<?xml version="1.0" encoding="UTF-8" standalone="no" ?>
<gpx xmlns="http://www.topografix.com/GPX/1/1" xmlns:xsi="http://www.w3.org/2001/XMLSchema-instance" xsi:schemaLocation="http://www.topografix.com/GPX/1/1 http://www.topografix.com/GPX/1/1/gpx.xsd" version="1.1" creator="VisuGPX - https://www.visugpx.com">
  <metadata>
    <name>SO-NE-St Léger St Pazanne Machecoul St Philbert La Chevrolière ZA Viais La Filée Les Couets</name>
    <desc><![CDATA[SO-NE-St Léger St Pazanne Machecoul St Philbert La Chevrolière ZA Viais La Filée Les Couets]]></desc>
  </metadata>
  <trk>
    <name><![CDATA[2022-08-15 09:28 GMT+2]]></name>
    <trkseg>
      <trkpt lat="47.16774" lon="-1.62657">
        <ele>64</ele>
        <time>2022-08-15T07:28:54Z</time>
      </trkpt>
      <trkpt lat="47.16776" lon="-1.62647">
        <ele>68</ele>
        <time>2022-08-15T07:30:55Z</time>
      </trkpt>
      <trkpt lat="47.16784" lon="-1.62656">
        <ele>72</ele>
        <time>2022-08-15T07:32:01Z</time>
      </trkpt>
      <trkpt lat="47.16778" lon="-1.62673">
        <ele>71</ele>
        <time>2022-08-15T07:32:05Z</time>
      </trkpt>
      <trkpt lat="47.16766" lon="-1.62676">
        <ele>71</ele>
        <time>2022-08-15T07:32:08Z</time>
      </trkpt>
      <trkpt lat="47.16755" lon="-1.6267">
        <ele>70</ele>
        <time>2022-08-15T07:32:10Z</time>
      </trkpt>
      <trkpt lat="47.16745" lon="-1.62674">
        <ele>70</ele>
        <time>2022-08-15T07:32:12Z</time>
      </trkpt>
      <trkpt lat="47.16734" lon="-1.62681">
        <ele>69</ele>
        <time>2022-08-15T07:32:14Z</time>
      </trkpt>
      <trkpt lat="47.16725" lon="-1.62688">
        <ele>69</ele>
        <time>2022-08-15T07:32:16Z</time>
      </trkpt>
      <trkpt lat="47.16721" lon="-1.62707">
        <ele>69</ele>
        <time>2022-08-15T07:32:19Z</time>
      </trkpt>
      <trkpt lat="47.16729" lon="-1.62722">
        <ele>69</ele>
        <time>2022-08-15T07:32:21Z</time>
      </trkpt>
      <trkpt lat="47.16737" lon="-1.62736">
        <ele>70</ele>
        <time>2022-08-15T07:32:23Z</time>
      </trkpt>
      <trkpt lat="47.16745" lon="-1.62749">
        <ele>70</ele>
        <time>2022-08-15T07:32:25Z</time>
      </trkpt>
      <trkpt lat="47.16754" lon="-1.62761">
        <ele>70</ele>
        <time>2022-08-15T07:32:27Z</time>
      </trkpt>
      <trkpt lat="47.16764" lon="-1.62772">
        <ele>70</ele>
        <time>2022-08-15T07:32:29Z</time>
      </trkpt>
      <trkpt lat="47.16775" lon="-1.62783">
        <ele>70</ele>
        <time>2022-08-15T07:32:31Z</time>
      </trkpt>
      <trkpt lat="47.16787" lon="-1.62793">
        <ele>69</ele>
        <time>2022-08-15T07:32:33Z</time>
      </trkpt>
      <trkpt lat="47.16798" lon="-1.62803">
        <ele>70</ele>
        <time>2022-08-15T07:32:35Z</time>
      </trkpt>
      <trkpt lat="47.16809" lon="-1.62813">
        <ele>70</ele>
        <time>2022-08-15T07:32:37Z</time>
      </trkpt>
      <trkpt lat="47.16819" lon="-1.62822">
        <ele>71</ele>
        <time>2022-08-15T07:32:39Z</time>
      </trkpt>
      <trkpt lat="47.16828" lon="-1.62832">
        <ele>71</ele>
        <time>2022-08-15T07:32:41Z</time>
      </trkpt>
      <trkpt lat="47.16837" lon="-1.62842">
        <ele>72</ele>
        <time>2022-08-15T07:32:43Z</time>
      </trkpt>
      <trkpt lat="47.16847" lon="-1.62851">
        <ele>73</ele>
        <time>2022-08-15T07:32:45Z</time>
      </trkpt>
      <trkpt lat="47.16857" lon="-1.6286">
        <ele>74</ele>
        <time>2022-08-15T07:32:47Z</time>
      </trkpt>
      <trkpt lat="47.16866" lon="-1.62871">
        <ele>74</ele>
        <time>2022-08-15T07:32:49Z</time>
      </trkpt>
      <trkpt lat="47.16875" lon="-1.62883">
        <ele>74</ele>
        <time>2022-08-15T07:32:51Z</time>
      </trkpt>
      <trkpt lat="47.16882" lon="-1.62896">
        <ele>75</ele>
        <time>2022-08-15T07:32:53Z</time>
      </trkpt>
      <trkpt lat="47.16887" lon="-1.6291">
        <ele>75</ele>
        <time>2022-08-15T07:32:55Z</time>
      </trkpt>
      <trkpt lat="47.1689" lon="-1.62925">
        <ele>76</ele>
        <time>2022-08-15T07:32:57Z</time>
      </trkpt>
      <trkpt lat="47.16892" lon="-1.62941">
        <ele>76</ele>
        <time>2022-08-15T07:32:59Z</time>
      </trkpt>
      <trkpt lat="47.16893" lon="-1.62957">
        <ele>76</ele>
        <time>2022-08-15T07:33:01Z</time>
      </trkpt>
      <trkpt lat="47.16893" lon="-1.62973">
        <ele>76</ele>
        <time>2022-08-15T07:33:03Z</time>
      </trkpt>
      <trkpt lat="47.16892" lon="-1.6299">
        <ele>77</ele>
        <time>2022-08-15T07:33:05Z</time>
      </trkpt>
      <trkpt lat="47.1689" lon="-1.63007">
        <ele>77</ele>
        <time>2022-08-15T07:33:07Z</time>
      </trkpt>
      <trkpt lat="47.16889" lon="-1.63023">
        <ele>77</ele>
        <time>2022-08-15T07:33:09Z</time>
      </trkpt>
      <trkpt lat="47.16888" lon="-1.6304">
        <ele>77</ele>
        <time>2022-08-15T07:33:11Z</time>
      </trkpt>
      <trkpt lat="47.16889" lon="-1.63056">
        <ele>77</ele>
        <time>2022-08-15T07:33:13Z</time>
      </trkpt>
      <trkpt lat="47.1689" lon="-1.63072">
        <ele>77</ele>
        <time>2022-08-15T07:33:15Z</time>
      </trkpt>
      <trkpt lat="47.16893" lon="-1.63088">
        <ele>78</ele>
        <time>2022-08-15T07:33:17Z</time>
      </trkpt>
      <trkpt lat="47.16895" lon="-1.63103">
        <ele>78</ele>
        <time>2022-08-15T07:33:19Z</time>
      </trkpt>
      <trkpt lat="47.16899" lon="-1.63119">
        <ele>78</ele>
        <time>2022-08-15T07:33:21Z</time>
      </trkpt>
      <trkpt lat="47.16903" lon="-1.63134">
        <ele>78</ele>
        <time>2022-08-15T07:33:23Z</time>
      </trkpt>
      <trkpt lat="47.16909" lon="-1.63148">
        <ele>79</ele>
        <time>2022-08-15T07:33:25Z</time>
      </trkpt>
      <trkpt lat="47.16914" lon="-1.63162">
        <ele>79</ele>
        <time>2022-08-15T07:33:27Z</time>
      </trkpt>
      <trkpt lat="47.1692" lon="-1.63176">
        <ele>79</ele>
        <time>2022-08-15T07:33:29Z</time>
      </trkpt>
      <trkpt lat="47.1693" lon="-1.63194">
        <ele>79</ele>
        <time>2022-08-15T07:33:32Z</time>
      </trkpt>
      <trkpt lat="47.16937" lon="-1.63206">
        <ele>79</ele>
        <time>2022-08-15T07:33:34Z</time>
      </trkpt>
      <trkpt lat="47.16947" lon="-1.63222">
        <ele>79</ele>
        <time>2022-08-15T07:33:37Z</time>
      </trkpt>
      <trkpt lat="47.16955" lon="-1.63231">
        <ele>79</ele>
        <time>2022-08-15T07:33:39Z</time>
      </trkpt>
      <trkpt lat="47.16961" lon="-1.63241">
        <ele>79</ele>
        <time>2022-08-15T07:33:41Z</time>
      </trkpt>
      <trkpt lat="47.16968" lon="-1.63258">
        <ele>79</ele>
        <time>2022-08-15T07:33:45Z</time>
      </trkpt>
      <trkpt lat="47.16963" lon="-1.63269">
        <ele>79</ele>
        <time>2022-08-15T07:33:47Z</time>
      </trkpt>
      <trkpt lat="47.16956" lon="-1.63282">
        <ele>79</ele>
        <time>2022-08-15T07:33:49Z</time>
      </trkpt>
      <trkpt lat="47.16948" lon="-1.63296">
        <ele>79</ele>
        <time>2022-08-15T07:33:51Z</time>
      </trkpt>
      <trkpt lat="47.1694" lon="-1.63307">
        <ele>79</ele>
        <time>2022-08-15T07:33:53Z</time>
      </trkpt>
      <trkpt lat="47.16931" lon="-1.63319">
        <ele>80</ele>
        <time>2022-08-15T07:33:55Z</time>
      </trkpt>
      <trkpt lat="47.16923" lon="-1.63331">
        <ele>80</ele>
        <time>2022-08-15T07:33:57Z</time>
      </trkpt>
      <trkpt lat="47.16914" lon="-1.63343">
        <ele>80</ele>
        <time>2022-08-15T07:33:59Z</time>
      </trkpt>
      <trkpt lat="47.16907" lon="-1.63354">
        <ele>80</ele>
        <time>2022-08-15T07:34:01Z</time>
      </trkpt>
      <trkpt lat="47.16899" lon="-1.63365">
        <ele>80</ele>
        <time>2022-08-15T07:34:03Z</time>
      </trkpt>
      <trkpt lat="47.16892" lon="-1.63376">
        <ele>80</ele>
        <time>2022-08-15T07:34:05Z</time>
      </trkpt>
      <trkpt lat="47.16885" lon="-1.63388">
        <ele>80</ele>
        <time>2022-08-15T07:34:07Z</time>
      </trkpt>
      <trkpt lat="47.16878" lon="-1.63399">
        <ele>80</ele>
        <time>2022-08-15T07:34:09Z</time>
      </trkpt>
      <trkpt lat="47.16872" lon="-1.63411">
        <ele>80</ele>
        <time>2022-08-15T07:34:11Z</time>
      </trkpt>
      <trkpt lat="47.16864" lon="-1.63423">
        <ele>80</ele>
        <time>2022-08-15T07:34:13Z</time>
      </trkpt>
      <trkpt lat="47.16858" lon="-1.63435">
        <ele>80</ele>
        <time>2022-08-15T07:34:15Z</time>
      </trkpt>
      <trkpt lat="47.16851" lon="-1.63447">
        <ele>80</ele>
        <time>2022-08-15T07:34:17Z</time>
      </trkpt>
      <trkpt lat="47.16843" lon="-1.63459">
        <ele>80</ele>
        <time>2022-08-15T07:34:19Z</time>
      </trkpt>
      <trkpt lat="47.16835" lon="-1.63471">
        <ele>80</ele>
        <time>2022-08-15T07:34:21Z</time>
      </trkpt>
      <trkpt lat="47.16828" lon="-1.63484">
        <ele>80</ele>
        <time>2022-08-15T07:34:23Z</time>
      </trkpt>
      <trkpt lat="47.16821" lon="-1.63497">
        <ele>80</ele>
        <time>2022-08-15T07:34:25Z</time>
      </trkpt>
      <trkpt lat="47.16813" lon="-1.6351">
        <ele>80</ele>
        <time>2022-08-15T07:34:27Z</time>
      </trkpt>
      <trkpt lat="47.16806" lon="-1.63523">
        <ele>81</ele>
        <time>2022-08-15T07:34:29Z</time>
      </trkpt>
      <trkpt lat="47.16798" lon="-1.63536">
        <ele>81</ele>
        <time>2022-08-15T07:34:31Z</time>
      </trkpt>
      <trkpt lat="47.1679" lon="-1.63549">
        <ele>80</ele>
        <time>2022-08-15T07:34:33Z</time>
      </trkpt>
      <trkpt lat="47.16783" lon="-1.63563">
        <ele>80</ele>
        <time>2022-08-15T07:34:35Z</time>
      </trkpt>
      <trkpt lat="47.16775" lon="-1.63575">
        <ele>80</ele>
        <time>2022-08-15T07:34:37Z</time>
      </trkpt>
      <trkpt lat="47.16768" lon="-1.63588">
        <ele>81</ele>
        <time>2022-08-15T07:34:39Z</time>
      </trkpt>
      <trkpt lat="47.16761" lon="-1.636">
        <ele>80</ele>
        <time>2022-08-15T07:34:41Z</time>
      </trkpt>
      <trkpt lat="47.16754" lon="-1.63611">
        <ele>80</ele>
        <time>2022-08-15T07:34:43Z</time>
      </trkpt>
      <trkpt lat="47.16747" lon="-1.63623">
        <ele>80</ele>
        <time>2022-08-15T07:34:45Z</time>
      </trkpt>
      <trkpt lat="47.16745" lon="-1.63639">
        <ele>81</ele>
        <time>2022-08-15T07:34:47Z</time>
      </trkpt>
      <trkpt lat="47.16756" lon="-1.63647">
        <ele>80</ele>
        <time>2022-08-15T07:34:49Z</time>
      </trkpt>
      <trkpt lat="47.16767" lon="-1.6365">
        <ele>80</ele>
        <time>2022-08-15T07:34:51Z</time>
      </trkpt>
      <trkpt lat="47.16778" lon="-1.63655">
        <ele>80</ele>
        <time>2022-08-15T07:34:53Z</time>
      </trkpt>
      <trkpt lat="47.16789" lon="-1.63659">
        <ele>80</ele>
        <time>2022-08-15T07:34:55Z</time>
      </trkpt>
      <trkpt lat="47.16801" lon="-1.63664">
        <ele>79</ele>
        <time>2022-08-15T07:34:57Z</time>
      </trkpt>
      <trkpt lat="47.16813" lon="-1.63669">
        <ele>79</ele>
        <time>2022-08-15T07:34:59Z</time>
      </trkpt>
      <trkpt lat="47.16825" lon="-1.63673">
        <ele>79</ele>
        <time>2022-08-15T07:35:01Z</time>
      </trkpt>
      <trkpt lat="47.16836" lon="-1.63677">
        <ele>79</ele>
        <time>2022-08-15T07:35:03Z</time>
      </trkpt>
      <trkpt lat="47.16848" lon="-1.63681">
        <ele>78</ele>
        <time>2022-08-15T07:35:05Z</time>
      </trkpt>
      <trkpt lat="47.1686" lon="-1.63686">
        <ele>78</ele>
        <time>2022-08-15T07:35:07Z</time>
      </trkpt>
      <trkpt lat="47.16872" lon="-1.6369">
        <ele>78</ele>
        <time>2022-08-15T07:35:09Z</time>
      </trkpt>
      <trkpt lat="47.16884" lon="-1.63695">
        <ele>78</ele>
        <time>2022-08-15T07:35:11Z</time>
      </trkpt>
      <trkpt lat="47.16896" lon="-1.63699">
        <ele>77</ele>
        <time>2022-08-15T07:35:13Z</time>
      </trkpt>
      <trkpt lat="47.16908" lon="-1.63704">
        <ele>78</ele>
        <time>2022-08-15T07:35:15Z</time>
      </trkpt>
      <trkpt lat="47.1692" lon="-1.63708">
        <ele>77</ele>
        <time>2022-08-15T07:35:17Z</time>
      </trkpt>
      <trkpt lat="47.16932" lon="-1.63713">
        <ele>77</ele>
        <time>2022-08-15T07:35:19Z</time>
      </trkpt>
      <trkpt lat="47.16944" lon="-1.63717">
        <ele>77</ele>
        <time>2022-08-15T07:35:21Z</time>
      </trkpt>
      <trkpt lat="47.16956" lon="-1.63721">
        <ele>77</ele>
        <time>2022-08-15T07:35:23Z</time>
      </trkpt>
      <trkpt lat="47.16967" lon="-1.63726">
        <ele>77</ele>
        <time>2022-08-15T07:35:25Z</time>
      </trkpt>
      <trkpt lat="47.16979" lon="-1.63731">
        <ele>77</ele>
        <time>2022-08-15T07:35:27Z</time>
      </trkpt>
      <trkpt lat="47.16991" lon="-1.63735">
        <ele>77</ele>
        <time>2022-08-15T07:35:29Z</time>
      </trkpt>
      <trkpt lat="47.17003" lon="-1.63739">
        <ele>77</ele>
        <time>2022-08-15T07:35:31Z</time>
      </trkpt>
      <trkpt lat="47.17015" lon="-1.63743">
        <ele>78</ele>
        <time>2022-08-15T07:35:33Z</time>
      </trkpt>
      <trkpt lat="47.17027" lon="-1.63748">
        <ele>78</ele>
        <time>2022-08-15T07:35:35Z</time>
      </trkpt>
      <trkpt lat="47.17039" lon="-1.63752">
        <ele>78</ele>
        <time>2022-08-15T07:35:37Z</time>
      </trkpt>
      <trkpt lat="47.1705" lon="-1.63759">
        <ele>78</ele>
        <time>2022-08-15T07:35:39Z</time>
      </trkpt>
      <trkpt lat="47.17059" lon="-1.6377">
        <ele>78</ele>
        <time>2022-08-15T07:35:41Z</time>
      </trkpt>
      <trkpt lat="47.17066" lon="-1.63785">
        <ele>78</ele>
        <time>2022-08-15T07:35:43Z</time>
      </trkpt>
      <trkpt lat="47.17072" lon="-1.63801">
        <ele>78</ele>
        <time>2022-08-15T07:35:45Z</time>
      </trkpt>
      <trkpt lat="47.17078" lon="-1.63817">
        <ele>78</ele>
        <time>2022-08-15T07:35:47Z</time>
      </trkpt>
      <trkpt lat="47.17082" lon="-1.63832">
        <ele>79</ele>
        <time>2022-08-15T07:35:49Z</time>
      </trkpt>
      <trkpt lat="47.17088" lon="-1.63847">
        <ele>79</ele>
        <time>2022-08-15T07:35:51Z</time>
      </trkpt>
      <trkpt lat="47.17093" lon="-1.63863">
        <ele>79</ele>
        <time>2022-08-15T07:35:53Z</time>
      </trkpt>
      <trkpt lat="47.17098" lon="-1.63878">
        <ele>80</ele>
        <time>2022-08-15T07:35:55Z</time>
      </trkpt>
      <trkpt lat="47.17104" lon="-1.63893">
        <ele>80</ele>
        <time>2022-08-15T07:35:57Z</time>
      </trkpt>
      <trkpt lat="47.17109" lon="-1.63907">
        <ele>80</ele>
        <time>2022-08-15T07:35:59Z</time>
      </trkpt>
      <trkpt lat="47.17115" lon="-1.63921">
        <ele>80</ele>
        <time>2022-08-15T07:36:01Z</time>
      </trkpt>
      <trkpt lat="47.17121" lon="-1.63933">
        <ele>80</ele>
        <time>2022-08-15T07:36:03Z</time>
      </trkpt>
      <trkpt lat="47.17129" lon="-1.6394">
        <ele>80</ele>
        <time>2022-08-15T07:36:05Z</time>
      </trkpt>
      <trkpt lat="47.17138" lon="-1.63952">
        <ele>80</ele>
        <time>2022-08-15T07:36:08Z</time>
      </trkpt>
      <trkpt lat="47.1714" lon="-1.63968">
        <ele>80</ele>
        <time>2022-08-15T07:36:10Z</time>
      </trkpt>
      <trkpt lat="47.1714" lon="-1.63985">
        <ele>80</ele>
        <time>2022-08-15T07:36:12Z</time>
      </trkpt>
      <trkpt lat="47.17138" lon="-1.64002">
        <ele>81</ele>
        <time>2022-08-15T07:36:14Z</time>
      </trkpt>
      <trkpt lat="47.17135" lon="-1.64019">
        <ele>81</ele>
        <time>2022-08-15T07:36:16Z</time>
      </trkpt>
      <trkpt lat="47.17133" lon="-1.64037">
        <ele>81</ele>
        <time>2022-08-15T07:36:18Z</time>
      </trkpt>
      <trkpt lat="47.17131" lon="-1.64055">
        <ele>81</ele>
        <time>2022-08-15T07:36:20Z</time>
      </trkpt>
      <trkpt lat="47.17129" lon="-1.64074">
        <ele>81</ele>
        <time>2022-08-15T07:36:22Z</time>
      </trkpt>
      <trkpt lat="47.17128" lon="-1.64093">
        <ele>81</ele>
        <time>2022-08-15T07:36:24Z</time>
      </trkpt>
      <trkpt lat="47.17125" lon="-1.64112">
        <ele>82</ele>
        <time>2022-08-15T07:36:26Z</time>
      </trkpt>
      <trkpt lat="47.17123" lon="-1.6413">
        <ele>82</ele>
        <time>2022-08-15T07:36:28Z</time>
      </trkpt>
      <trkpt lat="47.17121" lon="-1.64148">
        <ele>82</ele>
        <time>2022-08-15T07:36:30Z</time>
      </trkpt>
      <trkpt lat="47.1712" lon="-1.64167">
        <ele>81</ele>
        <time>2022-08-15T07:36:32Z</time>
      </trkpt>
      <trkpt lat="47.17118" lon="-1.64186">
        <ele>81</ele>
        <time>2022-08-15T07:36:34Z</time>
      </trkpt>
      <trkpt lat="47.17116" lon="-1.64204">
        <ele>81</ele>
        <time>2022-08-15T07:36:36Z</time>
      </trkpt>
      <trkpt lat="47.17113" lon="-1.64222">
        <ele>81</ele>
        <time>2022-08-15T07:36:38Z</time>
      </trkpt>
      <trkpt lat="47.17112" lon="-1.6424">
        <ele>81</ele>
        <time>2022-08-15T07:36:40Z</time>
      </trkpt>
      <trkpt lat="47.1711" lon="-1.64259">
        <ele>81</ele>
        <time>2022-08-15T07:36:42Z</time>
      </trkpt>
      <trkpt lat="47.17108" lon="-1.64277">
        <ele>82</ele>
        <time>2022-08-15T07:36:44Z</time>
      </trkpt>
      <trkpt lat="47.17107" lon="-1.64295">
        <ele>82</ele>
        <time>2022-08-15T07:36:46Z</time>
      </trkpt>
      <trkpt lat="47.17105" lon="-1.64313">
        <ele>82</ele>
        <time>2022-08-15T07:36:48Z</time>
      </trkpt>
      <trkpt lat="47.17103" lon="-1.6433">
        <ele>81</ele>
        <time>2022-08-15T07:36:50Z</time>
      </trkpt>
      <trkpt lat="47.17102" lon="-1.64348">
        <ele>81</ele>
        <time>2022-08-15T07:36:52Z</time>
      </trkpt>
      <trkpt lat="47.171" lon="-1.64365">
        <ele>81</ele>
        <time>2022-08-15T07:36:54Z</time>
      </trkpt>
      <trkpt lat="47.17099" lon="-1.64383">
        <ele>81</ele>
        <time>2022-08-15T07:36:56Z</time>
      </trkpt>
      <trkpt lat="47.17098" lon="-1.64402">
        <ele>80</ele>
        <time>2022-08-15T07:36:58Z</time>
      </trkpt>
      <trkpt lat="47.17096" lon="-1.6442">
        <ele>81</ele>
        <time>2022-08-15T07:37:00Z</time>
      </trkpt>
      <trkpt lat="47.17095" lon="-1.64439">
        <ele>80</ele>
        <time>2022-08-15T07:37:02Z</time>
      </trkpt>
      <trkpt lat="47.17094" lon="-1.64457">
        <ele>80</ele>
        <time>2022-08-15T07:37:04Z</time>
      </trkpt>
      <trkpt lat="47.17093" lon="-1.64476">
        <ele>80</ele>
        <time>2022-08-15T07:37:06Z</time>
      </trkpt>
      <trkpt lat="47.17091" lon="-1.64495">
        <ele>80</ele>
        <time>2022-08-15T07:37:08Z</time>
      </trkpt>
      <trkpt lat="47.17091" lon="-1.64514">
        <ele>80</ele>
        <time>2022-08-15T07:37:10Z</time>
      </trkpt>
      <trkpt lat="47.1709" lon="-1.64533">
        <ele>80</ele>
        <time>2022-08-15T07:37:12Z</time>
      </trkpt>
      <trkpt lat="47.1709" lon="-1.64551">
        <ele>80</ele>
        <time>2022-08-15T07:37:14Z</time>
      </trkpt>
      <trkpt lat="47.17089" lon="-1.64571">
        <ele>79</ele>
        <time>2022-08-15T07:37:16Z</time>
      </trkpt>
      <trkpt lat="47.17089" lon="-1.6459">
        <ele>79</ele>
        <time>2022-08-15T07:37:18Z</time>
      </trkpt>
      <trkpt lat="47.17089" lon="-1.64608">
        <ele>80</ele>
        <time>2022-08-15T07:37:20Z</time>
      </trkpt>
      <trkpt lat="47.17089" lon="-1.64627">
        <ele>79</ele>
        <time>2022-08-15T07:37:22Z</time>
      </trkpt>
      <trkpt lat="47.17089" lon="-1.64646">
        <ele>80</ele>
        <time>2022-08-15T07:37:24Z</time>
      </trkpt>
      <trkpt lat="47.1709" lon="-1.64665">
        <ele>80</ele>
        <time>2022-08-15T07:37:26Z</time>
      </trkpt>
      <trkpt lat="47.1709" lon="-1.64685">
        <ele>79</ele>
        <time>2022-08-15T07:37:28Z</time>
      </trkpt>
      <trkpt lat="47.1709" lon="-1.64702">
        <ele>79</ele>
        <time>2022-08-15T07:37:30Z</time>
      </trkpt>
      <trkpt lat="47.17091" lon="-1.6472">
        <ele>80</ele>
        <time>2022-08-15T07:37:32Z</time>
      </trkpt>
      <trkpt lat="47.17092" lon="-1.64737">
        <ele>80</ele>
        <time>2022-08-15T07:37:34Z</time>
      </trkpt>
      <trkpt lat="47.17093" lon="-1.64755">
        <ele>79</ele>
        <time>2022-08-15T07:37:36Z</time>
      </trkpt>
      <trkpt lat="47.17094" lon="-1.64773">
        <ele>80</ele>
        <time>2022-08-15T07:37:38Z</time>
      </trkpt>
      <trkpt lat="47.17094" lon="-1.64791">
        <ele>80</ele>
        <time>2022-08-15T07:37:40Z</time>
      </trkpt>
      <trkpt lat="47.17096" lon="-1.64809">
        <ele>80</ele>
        <time>2022-08-15T07:37:42Z</time>
      </trkpt>
      <trkpt lat="47.17097" lon="-1.64829">
        <ele>80</ele>
        <time>2022-08-15T07:37:44Z</time>
      </trkpt>
      <trkpt lat="47.17098" lon="-1.64848">
        <ele>80</ele>
        <time>2022-08-15T07:37:46Z</time>
      </trkpt>
      <trkpt lat="47.17101" lon="-1.64866">
        <ele>79</ele>
        <time>2022-08-15T07:37:48Z</time>
      </trkpt>
      <trkpt lat="47.17102" lon="-1.64886">
        <ele>79</ele>
        <time>2022-08-15T07:37:50Z</time>
      </trkpt>
      <trkpt lat="47.17103" lon="-1.64905">
        <ele>78</ele>
        <time>2022-08-15T07:37:52Z</time>
      </trkpt>
      <trkpt lat="47.17104" lon="-1.64923">
        <ele>79</ele>
        <time>2022-08-15T07:37:54Z</time>
      </trkpt>
      <trkpt lat="47.17106" lon="-1.64942">
        <ele>79</ele>
        <time>2022-08-15T07:37:56Z</time>
      </trkpt>
      <trkpt lat="47.17106" lon="-1.64961">
        <ele>79</ele>
        <time>2022-08-15T07:37:58Z</time>
      </trkpt>
      <trkpt lat="47.17108" lon="-1.6498">
        <ele>79</ele>
        <time>2022-08-15T07:38:00Z</time>
      </trkpt>
      <trkpt lat="47.17109" lon="-1.64999">
        <ele>79</ele>
        <time>2022-08-15T07:38:02Z</time>
      </trkpt>
      <trkpt lat="47.17111" lon="-1.65017">
        <ele>79</ele>
        <time>2022-08-15T07:38:04Z</time>
      </trkpt>
      <trkpt lat="47.17112" lon="-1.65035">
        <ele>78</ele>
        <time>2022-08-15T07:38:06Z</time>
      </trkpt>
      <trkpt lat="47.17113" lon="-1.65054">
        <ele>79</ele>
        <time>2022-08-15T07:38:08Z</time>
      </trkpt>
      <trkpt lat="47.17115" lon="-1.65072">
        <ele>79</ele>
        <time>2022-08-15T07:38:10Z</time>
      </trkpt>
      <trkpt lat="47.17116" lon="-1.65089">
        <ele>79</ele>
        <time>2022-08-15T07:38:12Z</time>
      </trkpt>
      <trkpt lat="47.17117" lon="-1.65106">
        <ele>80</ele>
        <time>2022-08-15T07:38:14Z</time>
      </trkpt>
      <trkpt lat="47.17118" lon="-1.65124">
        <ele>79</ele>
        <time>2022-08-15T07:38:16Z</time>
      </trkpt>
      <trkpt lat="47.1712" lon="-1.65142">
        <ele>79</ele>
        <time>2022-08-15T07:38:18Z</time>
      </trkpt>
      <trkpt lat="47.1712" lon="-1.65159">
        <ele>79</ele>
        <time>2022-08-15T07:38:20Z</time>
      </trkpt>
      <trkpt lat="47.17121" lon="-1.65176">
        <ele>79</ele>
        <time>2022-08-15T07:38:22Z</time>
      </trkpt>
      <trkpt lat="47.17123" lon="-1.65193">
        <ele>79</ele>
        <time>2022-08-15T07:38:24Z</time>
      </trkpt>
      <trkpt lat="47.17124" lon="-1.65209">
        <ele>80</ele>
        <time>2022-08-15T07:38:26Z</time>
      </trkpt>
      <trkpt lat="47.17125" lon="-1.65225">
        <ele>80</ele>
        <time>2022-08-15T07:38:28Z</time>
      </trkpt>
      <trkpt lat="47.17127" lon="-1.6524">
        <ele>80</ele>
        <time>2022-08-15T07:38:30Z</time>
      </trkpt>
      <trkpt lat="47.17128" lon="-1.65256">
        <ele>80</ele>
        <time>2022-08-15T07:38:32Z</time>
      </trkpt>
      <trkpt lat="47.17131" lon="-1.65271">
        <ele>80</ele>
        <time>2022-08-15T07:38:34Z</time>
      </trkpt>
      <trkpt lat="47.17136" lon="-1.65285">
        <ele>81</ele>
        <time>2022-08-15T07:38:36Z</time>
      </trkpt>
      <trkpt lat="47.1714" lon="-1.653">
        <ele>81</ele>
        <time>2022-08-15T07:38:38Z</time>
      </trkpt>
      <trkpt lat="47.17139" lon="-1.65317">
        <ele>81</ele>
        <time>2022-08-15T07:38:40Z</time>
      </trkpt>
      <trkpt lat="47.17133" lon="-1.65329">
        <ele>81</ele>
        <time>2022-08-15T07:38:42Z</time>
      </trkpt>
      <trkpt lat="47.17125" lon="-1.6534">
        <ele>81</ele>
        <time>2022-08-15T07:38:44Z</time>
      </trkpt>
      <trkpt lat="47.1712" lon="-1.65355">
        <ele>81</ele>
        <time>2022-08-15T07:38:46Z</time>
      </trkpt>
      <trkpt lat="47.1712" lon="-1.65372">
        <ele>81</ele>
        <time>2022-08-15T07:38:48Z</time>
      </trkpt>
      <trkpt lat="47.17121" lon="-1.65388">
        <ele>82</ele>
        <time>2022-08-15T07:38:50Z</time>
      </trkpt>
      <trkpt lat="47.17122" lon="-1.65403">
        <ele>82</ele>
        <time>2022-08-15T07:38:52Z</time>
      </trkpt>
      <trkpt lat="47.17122" lon="-1.65417">
        <ele>83</ele>
        <time>2022-08-15T07:38:54Z</time>
      </trkpt>
      <trkpt lat="47.17121" lon="-1.65431">
        <ele>83</ele>
        <time>2022-08-15T07:38:56Z</time>
      </trkpt>
      <trkpt lat="47.17121" lon="-1.65445">
        <ele>83</ele>
        <time>2022-08-15T07:38:58Z</time>
      </trkpt>
      <trkpt lat="47.17121" lon="-1.65459">
        <ele>84</ele>
        <time>2022-08-15T07:39:00Z</time>
      </trkpt>
      <trkpt lat="47.17119" lon="-1.65472">
        <ele>85</ele>
        <time>2022-08-15T07:39:02Z</time>
      </trkpt>
      <trkpt lat="47.17117" lon="-1.65485">
        <ele>85</ele>
        <time>2022-08-15T07:39:04Z</time>
      </trkpt>
      <trkpt lat="47.17114" lon="-1.65498">
        <ele>86</ele>
        <time>2022-08-15T07:39:06Z</time>
      </trkpt>
      <trkpt lat="47.17111" lon="-1.65511">
        <ele>86</ele>
        <time>2022-08-15T07:39:08Z</time>
      </trkpt>
      <trkpt lat="47.17107" lon="-1.65523">
        <ele>87</ele>
        <time>2022-08-15T07:39:10Z</time>
      </trkpt>
      <trkpt lat="47.17102" lon="-1.65535">
        <ele>87</ele>
        <time>2022-08-15T07:39:12Z</time>
      </trkpt>
      <trkpt lat="47.17096" lon="-1.65547">
        <ele>87</ele>
        <time>2022-08-15T07:39:14Z</time>
      </trkpt>
      <trkpt lat="47.1709" lon="-1.65558">
        <ele>87</ele>
        <time>2022-08-15T07:39:16Z</time>
      </trkpt>
      <trkpt lat="47.17084" lon="-1.65569">
        <ele>87</ele>
        <time>2022-08-15T07:39:18Z</time>
      </trkpt>
      <trkpt lat="47.17078" lon="-1.6558">
        <ele>88</ele>
        <time>2022-08-15T07:39:20Z</time>
      </trkpt>
      <trkpt lat="47.17072" lon="-1.65592">
        <ele>88</ele>
        <time>2022-08-15T07:39:22Z</time>
      </trkpt>
      <trkpt lat="47.17065" lon="-1.65603">
        <ele>87</ele>
        <time>2022-08-15T07:39:24Z</time>
      </trkpt>
      <trkpt lat="47.17058" lon="-1.65615">
        <ele>87</ele>
        <time>2022-08-15T07:39:26Z</time>
      </trkpt>
      <trkpt lat="47.17051" lon="-1.65627">
        <ele>87</ele>
        <time>2022-08-15T07:39:28Z</time>
      </trkpt>
      <trkpt lat="47.17044" lon="-1.6564">
        <ele>87</ele>
        <time>2022-08-15T07:39:30Z</time>
      </trkpt>
      <trkpt lat="47.17036" lon="-1.65654">
        <ele>86</ele>
        <time>2022-08-15T07:39:32Z</time>
      </trkpt>
      <trkpt lat="47.17029" lon="-1.65668">
        <ele>85</ele>
        <time>2022-08-15T07:39:34Z</time>
      </trkpt>
      <trkpt lat="47.17022" lon="-1.65682">
        <ele>85</ele>
        <time>2022-08-15T07:39:36Z</time>
      </trkpt>
      <trkpt lat="47.17016" lon="-1.65697">
        <ele>85</ele>
        <time>2022-08-15T07:39:38Z</time>
      </trkpt>
      <trkpt lat="47.1701" lon="-1.65712">
        <ele>85</ele>
        <time>2022-08-15T07:39:40Z</time>
      </trkpt>
      <trkpt lat="47.17007" lon="-1.65729">
        <ele>85</ele>
        <time>2022-08-15T07:39:42Z</time>
      </trkpt>
      <trkpt lat="47.17004" lon="-1.65745">
        <ele>85</ele>
        <time>2022-08-15T07:39:44Z</time>
      </trkpt>
      <trkpt lat="47.16998" lon="-1.65758">
        <ele>85</ele>
        <time>2022-08-15T07:39:46Z</time>
      </trkpt>
      <trkpt lat="47.16989" lon="-1.65767">
        <ele>85</ele>
        <time>2022-08-15T07:39:48Z</time>
      </trkpt>
      <trkpt lat="47.16978" lon="-1.65775">
        <ele>85</ele>
        <time>2022-08-15T07:39:50Z</time>
      </trkpt>
      <trkpt lat="47.16967" lon="-1.65784">
        <ele>84</ele>
        <time>2022-08-15T07:39:52Z</time>
      </trkpt>
      <trkpt lat="47.16958" lon="-1.65795">
        <ele>84</ele>
        <time>2022-08-15T07:39:54Z</time>
      </trkpt>
      <trkpt lat="47.16951" lon="-1.6581">
        <ele>84</ele>
        <time>2022-08-15T07:39:56Z</time>
      </trkpt>
      <trkpt lat="47.16944" lon="-1.65823">
        <ele>83</ele>
        <time>2022-08-15T07:39:58Z</time>
      </trkpt>
      <trkpt lat="47.16937" lon="-1.65838">
        <ele>83</ele>
        <time>2022-08-15T07:40:00Z</time>
      </trkpt>
      <trkpt lat="47.1693" lon="-1.65851">
        <ele>83</ele>
        <time>2022-08-15T07:40:02Z</time>
      </trkpt>
      <trkpt lat="47.16923" lon="-1.65866">
        <ele>83</ele>
        <time>2022-08-15T07:40:04Z</time>
      </trkpt>
      <trkpt lat="47.16916" lon="-1.6588">
        <ele>83</ele>
        <time>2022-08-15T07:40:06Z</time>
      </trkpt>
      <trkpt lat="47.16908" lon="-1.65895">
        <ele>82</ele>
        <time>2022-08-15T07:40:08Z</time>
      </trkpt>
      <trkpt lat="47.16902" lon="-1.6591">
        <ele>82</ele>
        <time>2022-08-15T07:40:10Z</time>
      </trkpt>
      <trkpt lat="47.16895" lon="-1.65926">
        <ele>82</ele>
        <time>2022-08-15T07:40:12Z</time>
      </trkpt>
      <trkpt lat="47.16888" lon="-1.65941">
        <ele>81</ele>
        <time>2022-08-15T07:40:14Z</time>
      </trkpt>
      <trkpt lat="47.16881" lon="-1.65957">
        <ele>81</ele>
        <time>2022-08-15T07:40:16Z</time>
      </trkpt>
      <trkpt lat="47.16875" lon="-1.65972">
        <ele>81</ele>
        <time>2022-08-15T07:40:18Z</time>
      </trkpt>
      <trkpt lat="47.16869" lon="-1.65989">
        <ele>81</ele>
        <time>2022-08-15T07:40:20Z</time>
      </trkpt>
      <trkpt lat="47.16865" lon="-1.66006">
        <ele>81</ele>
        <time>2022-08-15T07:40:22Z</time>
      </trkpt>
      <trkpt lat="47.1686" lon="-1.66023">
        <ele>81</ele>
        <time>2022-08-15T07:40:24Z</time>
      </trkpt>
      <trkpt lat="47.16857" lon="-1.66041">
        <ele>81</ele>
        <time>2022-08-15T07:40:26Z</time>
      </trkpt>
      <trkpt lat="47.16854" lon="-1.66058">
        <ele>81</ele>
        <time>2022-08-15T07:40:28Z</time>
      </trkpt>
      <trkpt lat="47.16851" lon="-1.66074">
        <ele>81</ele>
        <time>2022-08-15T07:40:30Z</time>
      </trkpt>
      <trkpt lat="47.16849" lon="-1.66092">
        <ele>81</ele>
        <time>2022-08-15T07:40:32Z</time>
      </trkpt>
      <trkpt lat="47.16848" lon="-1.66109">
        <ele>81</ele>
        <time>2022-08-15T07:40:34Z</time>
      </trkpt>
      <trkpt lat="47.16847" lon="-1.66127">
        <ele>81</ele>
        <time>2022-08-15T07:40:36Z</time>
      </trkpt>
      <trkpt lat="47.16848" lon="-1.66145">
        <ele>81</ele>
        <time>2022-08-15T07:40:38Z</time>
      </trkpt>
      <trkpt lat="47.16849" lon="-1.66163">
        <ele>81</ele>
        <time>2022-08-15T07:40:40Z</time>
      </trkpt>
      <trkpt lat="47.1685" lon="-1.6618">
        <ele>81</ele>
        <time>2022-08-15T07:40:42Z</time>
      </trkpt>
      <trkpt lat="47.16851" lon="-1.66197">
        <ele>81</ele>
        <time>2022-08-15T07:40:44Z</time>
      </trkpt>
      <trkpt lat="47.16852" lon="-1.66215">
        <ele>81</ele>
        <time>2022-08-15T07:40:46Z</time>
      </trkpt>
      <trkpt lat="47.16852" lon="-1.66232">
        <ele>81</ele>
        <time>2022-08-15T07:40:48Z</time>
      </trkpt>
      <trkpt lat="47.16854" lon="-1.6625">
        <ele>81</ele>
        <time>2022-08-15T07:40:50Z</time>
      </trkpt>
      <trkpt lat="47.16854" lon="-1.66266">
        <ele>81</ele>
        <time>2022-08-15T07:40:52Z</time>
      </trkpt>
      <trkpt lat="47.16856" lon="-1.66283">
        <ele>81</ele>
        <time>2022-08-15T07:40:54Z</time>
      </trkpt>
      <trkpt lat="47.16857" lon="-1.66299">
        <ele>81</ele>
        <time>2022-08-15T07:40:56Z</time>
      </trkpt>
      <trkpt lat="47.16858" lon="-1.66316">
        <ele>81</ele>
        <time>2022-08-15T07:40:58Z</time>
      </trkpt>
      <trkpt lat="47.1686" lon="-1.66332">
        <ele>81</ele>
        <time>2022-08-15T07:41:00Z</time>
      </trkpt>
      <trkpt lat="47.16861" lon="-1.66349">
        <ele>81</ele>
        <time>2022-08-15T07:41:02Z</time>
      </trkpt>
      <trkpt lat="47.16863" lon="-1.66366">
        <ele>81</ele>
        <time>2022-08-15T07:41:04Z</time>
      </trkpt>
      <trkpt lat="47.16866" lon="-1.66383">
        <ele>81</ele>
        <time>2022-08-15T07:41:06Z</time>
      </trkpt>
      <trkpt lat="47.16868" lon="-1.66401">
        <ele>81</ele>
        <time>2022-08-15T07:41:08Z</time>
      </trkpt>
      <trkpt lat="47.1687" lon="-1.66418">
        <ele>81</ele>
        <time>2022-08-15T07:41:10Z</time>
      </trkpt>
      <trkpt lat="47.16872" lon="-1.66435">
        <ele>81</ele>
        <time>2022-08-15T07:41:12Z</time>
      </trkpt>
      <trkpt lat="47.16874" lon="-1.66453">
        <ele>81</ele>
        <time>2022-08-15T07:41:14Z</time>
      </trkpt>
      <trkpt lat="47.16876" lon="-1.6647">
        <ele>81</ele>
        <time>2022-08-15T07:41:16Z</time>
      </trkpt>
      <trkpt lat="47.16878" lon="-1.66486">
        <ele>81</ele>
        <time>2022-08-15T07:41:18Z</time>
      </trkpt>
      <trkpt lat="47.1688" lon="-1.66503">
        <ele>81</ele>
        <time>2022-08-15T07:41:20Z</time>
      </trkpt>
      <trkpt lat="47.16882" lon="-1.6652">
        <ele>81</ele>
        <time>2022-08-15T07:41:22Z</time>
      </trkpt>
      <trkpt lat="47.16883" lon="-1.66538">
        <ele>81</ele>
        <time>2022-08-15T07:41:24Z</time>
      </trkpt>
      <trkpt lat="47.16885" lon="-1.66555">
        <ele>81</ele>
        <time>2022-08-15T07:41:26Z</time>
      </trkpt>
      <trkpt lat="47.16887" lon="-1.6657">
        <ele>81</ele>
        <time>2022-08-15T07:41:28Z</time>
      </trkpt>
      <trkpt lat="47.16889" lon="-1.66586">
        <ele>80</ele>
        <time>2022-08-15T07:41:30Z</time>
      </trkpt>
      <trkpt lat="47.1689" lon="-1.66601">
        <ele>80</ele>
        <time>2022-08-15T07:41:32Z</time>
      </trkpt>
      <trkpt lat="47.16892" lon="-1.66616">
        <ele>81</ele>
        <time>2022-08-15T07:41:34Z</time>
      </trkpt>
      <trkpt lat="47.16893" lon="-1.66632">
        <ele>81</ele>
        <time>2022-08-15T07:41:36Z</time>
      </trkpt>
      <trkpt lat="47.16894" lon="-1.66648">
        <ele>81</ele>
        <time>2022-08-15T07:41:38Z</time>
      </trkpt>
      <trkpt lat="47.16894" lon="-1.66664">
        <ele>81</ele>
        <time>2022-08-15T07:41:40Z</time>
      </trkpt>
      <trkpt lat="47.16894" lon="-1.6668">
        <ele>80</ele>
        <time>2022-08-15T07:41:42Z</time>
      </trkpt>
      <trkpt lat="47.16891" lon="-1.66696">
        <ele>80</ele>
        <time>2022-08-15T07:41:44Z</time>
      </trkpt>
      <trkpt lat="47.16888" lon="-1.66712">
        <ele>80</ele>
        <time>2022-08-15T07:41:46Z</time>
      </trkpt>
      <trkpt lat="47.16883" lon="-1.66728">
        <ele>80</ele>
        <time>2022-08-15T07:41:48Z</time>
      </trkpt>
      <trkpt lat="47.16876" lon="-1.66743">
        <ele>80</ele>
        <time>2022-08-15T07:41:50Z</time>
      </trkpt>
      <trkpt lat="47.16869" lon="-1.66757">
        <ele>80</ele>
        <time>2022-08-15T07:41:52Z</time>
      </trkpt>
      <trkpt lat="47.16862" lon="-1.66772">
        <ele>80</ele>
        <time>2022-08-15T07:41:54Z</time>
      </trkpt>
      <trkpt lat="47.16855" lon="-1.66786">
        <ele>80</ele>
        <time>2022-08-15T07:41:56Z</time>
      </trkpt>
      <trkpt lat="47.16848" lon="-1.668">
        <ele>80</ele>
        <time>2022-08-15T07:41:58Z</time>
      </trkpt>
      <trkpt lat="47.1684" lon="-1.66814">
        <ele>81</ele>
        <time>2022-08-15T07:42:00Z</time>
      </trkpt>
      <trkpt lat="47.16832" lon="-1.66828">
        <ele>81</ele>
        <time>2022-08-15T07:42:02Z</time>
      </trkpt>
      <trkpt lat="47.16825" lon="-1.66842">
        <ele>81</ele>
        <time>2022-08-15T07:42:04Z</time>
      </trkpt>
      <trkpt lat="47.16817" lon="-1.66857">
        <ele>81</ele>
        <time>2022-08-15T07:42:06Z</time>
      </trkpt>
      <trkpt lat="47.16809" lon="-1.6687">
        <ele>81</ele>
        <time>2022-08-15T07:42:08Z</time>
      </trkpt>
      <trkpt lat="47.168" lon="-1.66883">
        <ele>81</ele>
        <time>2022-08-15T07:42:10Z</time>
      </trkpt>
      <trkpt lat="47.16791" lon="-1.66894">
        <ele>80</ele>
        <time>2022-08-15T07:42:12Z</time>
      </trkpt>
      <trkpt lat="47.16781" lon="-1.66903">
        <ele>80</ele>
        <time>2022-08-15T07:42:14Z</time>
      </trkpt>
      <trkpt lat="47.16771" lon="-1.66911">
        <ele>81</ele>
        <time>2022-08-15T07:42:16Z</time>
      </trkpt>
      <trkpt lat="47.16759" lon="-1.66915">
        <ele>81</ele>
        <time>2022-08-15T07:42:18Z</time>
      </trkpt>
      <trkpt lat="47.16748" lon="-1.66919">
        <ele>82</ele>
        <time>2022-08-15T07:42:20Z</time>
      </trkpt>
      <trkpt lat="47.16737" lon="-1.66922">
        <ele>82</ele>
        <time>2022-08-15T07:42:22Z</time>
      </trkpt>
      <trkpt lat="47.16727" lon="-1.66926">
        <ele>82</ele>
        <time>2022-08-15T07:42:24Z</time>
      </trkpt>
      <trkpt lat="47.16715" lon="-1.6693">
        <ele>82</ele>
        <time>2022-08-15T07:42:26Z</time>
      </trkpt>
      <trkpt lat="47.16703" lon="-1.66935">
        <ele>82</ele>
        <time>2022-08-15T07:42:28Z</time>
      </trkpt>
      <trkpt lat="47.16692" lon="-1.66943">
        <ele>82</ele>
        <time>2022-08-15T07:42:30Z</time>
      </trkpt>
      <trkpt lat="47.16682" lon="-1.66955">
        <ele>82</ele>
        <time>2022-08-15T07:42:32Z</time>
      </trkpt>
      <trkpt lat="47.16673" lon="-1.66969">
        <ele>83</ele>
        <time>2022-08-15T07:42:34Z</time>
      </trkpt>
      <trkpt lat="47.16666" lon="-1.66986">
        <ele>82</ele>
        <time>2022-08-15T07:42:36Z</time>
      </trkpt>
      <trkpt lat="47.16662" lon="-1.67003">
        <ele>82</ele>
        <time>2022-08-15T07:42:38Z</time>
      </trkpt>
      <trkpt lat="47.16659" lon="-1.67019">
        <ele>82</ele>
        <time>2022-08-15T07:42:40Z</time>
      </trkpt>
      <trkpt lat="47.16656" lon="-1.67036">
        <ele>82</ele>
        <time>2022-08-15T07:42:42Z</time>
      </trkpt>
      <trkpt lat="47.16652" lon="-1.67053">
        <ele>81</ele>
        <time>2022-08-15T07:42:44Z</time>
      </trkpt>
      <trkpt lat="47.16649" lon="-1.67069">
        <ele>81</ele>
        <time>2022-08-15T07:42:46Z</time>
      </trkpt>
      <trkpt lat="47.16646" lon="-1.67085">
        <ele>81</ele>
        <time>2022-08-15T07:42:48Z</time>
      </trkpt>
      <trkpt lat="47.16643" lon="-1.67101">
        <ele>81</ele>
        <time>2022-08-15T07:42:50Z</time>
      </trkpt>
      <trkpt lat="47.16639" lon="-1.67118">
        <ele>81</ele>
        <time>2022-08-15T07:42:52Z</time>
      </trkpt>
      <trkpt lat="47.16636" lon="-1.67135">
        <ele>81</ele>
        <time>2022-08-15T07:42:54Z</time>
      </trkpt>
      <trkpt lat="47.16632" lon="-1.67152">
        <ele>81</ele>
        <time>2022-08-15T07:42:56Z</time>
      </trkpt>
      <trkpt lat="47.16629" lon="-1.67169">
        <ele>81</ele>
        <time>2022-08-15T07:42:58Z</time>
      </trkpt>
      <trkpt lat="47.16626" lon="-1.67185">
        <ele>81</ele>
        <time>2022-08-15T07:43:00Z</time>
      </trkpt>
      <trkpt lat="47.16622" lon="-1.672">
        <ele>81</ele>
        <time>2022-08-15T07:43:02Z</time>
      </trkpt>
      <trkpt lat="47.16619" lon="-1.67215">
        <ele>80</ele>
        <time>2022-08-15T07:43:04Z</time>
      </trkpt>
      <trkpt lat="47.16617" lon="-1.67229">
        <ele>80</ele>
        <time>2022-08-15T07:43:06Z</time>
      </trkpt>
      <trkpt lat="47.16614" lon="-1.67242">
        <ele>80</ele>
        <time>2022-08-15T07:43:08Z</time>
      </trkpt>
      <trkpt lat="47.16612" lon="-1.67257">
        <ele>80</ele>
        <time>2022-08-15T07:43:11Z</time>
      </trkpt>
      <trkpt lat="47.16606" lon="-1.67273">
        <ele>80</ele>
        <time>2022-08-15T07:43:14Z</time>
      </trkpt>
      <trkpt lat="47.166" lon="-1.67287">
        <ele>80</ele>
        <time>2022-08-15T07:43:16Z</time>
      </trkpt>
      <trkpt lat="47.16595" lon="-1.673">
        <ele>80</ele>
        <time>2022-08-15T07:43:18Z</time>
      </trkpt>
      <trkpt lat="47.16588" lon="-1.67315">
        <ele>80</ele>
        <time>2022-08-15T07:43:20Z</time>
      </trkpt>
      <trkpt lat="47.16581" lon="-1.67329">
        <ele>80</ele>
        <time>2022-08-15T07:43:22Z</time>
      </trkpt>
      <trkpt lat="47.16575" lon="-1.67344">
        <ele>80</ele>
        <time>2022-08-15T07:43:24Z</time>
      </trkpt>
      <trkpt lat="47.16568" lon="-1.67358">
        <ele>80</ele>
        <time>2022-08-15T07:43:26Z</time>
      </trkpt>
      <trkpt lat="47.1656" lon="-1.67371">
        <ele>80</ele>
        <time>2022-08-15T07:43:28Z</time>
      </trkpt>
      <trkpt lat="47.16551" lon="-1.67384">
        <ele>80</ele>
        <time>2022-08-15T07:43:30Z</time>
      </trkpt>
      <trkpt lat="47.16542" lon="-1.67396">
        <ele>80</ele>
        <time>2022-08-15T07:43:32Z</time>
      </trkpt>
      <trkpt lat="47.16534" lon="-1.67409">
        <ele>80</ele>
        <time>2022-08-15T07:43:34Z</time>
      </trkpt>
      <trkpt lat="47.16525" lon="-1.67422">
        <ele>80</ele>
        <time>2022-08-15T07:43:36Z</time>
      </trkpt>
      <trkpt lat="47.16516" lon="-1.67435">
        <ele>79</ele>
        <time>2022-08-15T07:43:38Z</time>
      </trkpt>
      <trkpt lat="47.16508" lon="-1.67449">
        <ele>79</ele>
        <time>2022-08-15T07:43:40Z</time>
      </trkpt>
      <trkpt lat="47.165" lon="-1.67463">
        <ele>79</ele>
        <time>2022-08-15T07:43:42Z</time>
      </trkpt>
      <trkpt lat="47.16492" lon="-1.67477">
        <ele>79</ele>
        <time>2022-08-15T07:43:44Z</time>
      </trkpt>
      <trkpt lat="47.16484" lon="-1.67491">
        <ele>78</ele>
        <time>2022-08-15T07:43:46Z</time>
      </trkpt>
      <trkpt lat="47.16476" lon="-1.67505">
        <ele>78</ele>
        <time>2022-08-15T07:43:48Z</time>
      </trkpt>
      <trkpt lat="47.16469" lon="-1.67519">
        <ele>79</ele>
        <time>2022-08-15T07:43:50Z</time>
      </trkpt>
      <trkpt lat="47.16461" lon="-1.67532">
        <ele>79</ele>
        <time>2022-08-15T07:43:52Z</time>
      </trkpt>
      <trkpt lat="47.16453" lon="-1.67546">
        <ele>79</ele>
        <time>2022-08-15T07:43:54Z</time>
      </trkpt>
      <trkpt lat="47.16446" lon="-1.6756">
        <ele>78</ele>
        <time>2022-08-15T07:43:56Z</time>
      </trkpt>
      <trkpt lat="47.16439" lon="-1.67574">
        <ele>78</ele>
        <time>2022-08-15T07:43:58Z</time>
      </trkpt>
      <trkpt lat="47.16432" lon="-1.67589">
        <ele>78</ele>
        <time>2022-08-15T07:44:00Z</time>
      </trkpt>
      <trkpt lat="47.16425" lon="-1.67604">
        <ele>78</ele>
        <time>2022-08-15T07:44:02Z</time>
      </trkpt>
      <trkpt lat="47.16418" lon="-1.67618">
        <ele>78</ele>
        <time>2022-08-15T07:44:04Z</time>
      </trkpt>
      <trkpt lat="47.1641" lon="-1.67632">
        <ele>78</ele>
        <time>2022-08-15T07:44:06Z</time>
      </trkpt>
      <trkpt lat="47.16403" lon="-1.67646">
        <ele>78</ele>
        <time>2022-08-15T07:44:08Z</time>
      </trkpt>
      <trkpt lat="47.16397" lon="-1.67659">
        <ele>78</ele>
        <time>2022-08-15T07:44:10Z</time>
      </trkpt>
      <trkpt lat="47.16391" lon="-1.67673">
        <ele>78</ele>
        <time>2022-08-15T07:44:12Z</time>
      </trkpt>
      <trkpt lat="47.16384" lon="-1.67687">
        <ele>78</ele>
        <time>2022-08-15T07:44:14Z</time>
      </trkpt>
      <trkpt lat="47.16377" lon="-1.677">
        <ele>78</ele>
        <time>2022-08-15T07:44:16Z</time>
      </trkpt>
      <trkpt lat="47.1637" lon="-1.67712">
        <ele>78</ele>
        <time>2022-08-15T07:44:18Z</time>
      </trkpt>
      <trkpt lat="47.16363" lon="-1.67726">
        <ele>78</ele>
        <time>2022-08-15T07:44:20Z</time>
      </trkpt>
      <trkpt lat="47.16356" lon="-1.67739">
        <ele>78</ele>
        <time>2022-08-15T07:44:22Z</time>
      </trkpt>
      <trkpt lat="47.16349" lon="-1.67752">
        <ele>78</ele>
        <time>2022-08-15T07:44:24Z</time>
      </trkpt>
      <trkpt lat="47.16342" lon="-1.67765">
        <ele>78</ele>
        <time>2022-08-15T07:44:26Z</time>
      </trkpt>
      <trkpt lat="47.16335" lon="-1.67777">
        <ele>78</ele>
        <time>2022-08-15T07:44:28Z</time>
      </trkpt>
      <trkpt lat="47.16327" lon="-1.6779">
        <ele>78</ele>
        <time>2022-08-15T07:44:30Z</time>
      </trkpt>
      <trkpt lat="47.1632" lon="-1.67802">
        <ele>78</ele>
        <time>2022-08-15T07:44:32Z</time>
      </trkpt>
      <trkpt lat="47.16313" lon="-1.67815">
        <ele>78</ele>
        <time>2022-08-15T07:44:34Z</time>
      </trkpt>
      <trkpt lat="47.16306" lon="-1.67828">
        <ele>78</ele>
        <time>2022-08-15T07:44:36Z</time>
      </trkpt>
      <trkpt lat="47.16298" lon="-1.67841">
        <ele>78</ele>
        <time>2022-08-15T07:44:38Z</time>
      </trkpt>
      <trkpt lat="47.16292" lon="-1.67854">
        <ele>78</ele>
        <time>2022-08-15T07:44:40Z</time>
      </trkpt>
      <trkpt lat="47.16284" lon="-1.67867">
        <ele>79</ele>
        <time>2022-08-15T07:44:42Z</time>
      </trkpt>
      <trkpt lat="47.16277" lon="-1.67879">
        <ele>79</ele>
        <time>2022-08-15T07:44:44Z</time>
      </trkpt>
      <trkpt lat="47.1627" lon="-1.67891">
        <ele>79</ele>
        <time>2022-08-15T07:44:46Z</time>
      </trkpt>
      <trkpt lat="47.16264" lon="-1.67904">
        <ele>79</ele>
        <time>2022-08-15T07:44:48Z</time>
      </trkpt>
      <trkpt lat="47.16256" lon="-1.67915">
        <ele>79</ele>
        <time>2022-08-15T07:44:50Z</time>
      </trkpt>
      <trkpt lat="47.16249" lon="-1.67927">
        <ele>79</ele>
        <time>2022-08-15T07:44:52Z</time>
      </trkpt>
      <trkpt lat="47.16241" lon="-1.67938">
        <ele>79</ele>
        <time>2022-08-15T07:44:54Z</time>
      </trkpt>
      <trkpt lat="47.16234" lon="-1.6795">
        <ele>79</ele>
        <time>2022-08-15T07:44:56Z</time>
      </trkpt>
      <trkpt lat="47.16228" lon="-1.67963">
        <ele>78</ele>
        <time>2022-08-15T07:44:58Z</time>
      </trkpt>
      <trkpt lat="47.16223" lon="-1.67978">
        <ele>79</ele>
        <time>2022-08-15T07:45:00Z</time>
      </trkpt>
      <trkpt lat="47.16217" lon="-1.67991">
        <ele>79</ele>
        <time>2022-08-15T07:45:02Z</time>
      </trkpt>
      <trkpt lat="47.16206" lon="-1.67996">
        <ele>78</ele>
        <time>2022-08-15T07:45:04Z</time>
      </trkpt>
      <trkpt lat="47.16196" lon="-1.68004">
        <ele>78</ele>
        <time>2022-08-15T07:45:06Z</time>
      </trkpt>
      <trkpt lat="47.16189" lon="-1.68016">
        <ele>77</ele>
        <time>2022-08-15T07:45:08Z</time>
      </trkpt>
      <trkpt lat="47.16182" lon="-1.68027">
        <ele>77</ele>
        <time>2022-08-15T07:45:10Z</time>
      </trkpt>
      <trkpt lat="47.16175" lon="-1.68037">
        <ele>77</ele>
        <time>2022-08-15T07:45:12Z</time>
      </trkpt>
      <trkpt lat="47.16169" lon="-1.68051">
        <ele>77</ele>
        <time>2022-08-15T07:45:16Z</time>
      </trkpt>
      <trkpt lat="47.16162" lon="-1.68061">
        <ele>77</ele>
        <time>2022-08-15T07:46:43Z</time>
      </trkpt>
      <trkpt lat="47.16154" lon="-1.68076">
        <ele>77</ele>
        <time>2022-08-15T07:46:46Z</time>
      </trkpt>
      <trkpt lat="47.16148" lon="-1.68089">
        <ele>78</ele>
        <time>2022-08-15T07:46:48Z</time>
      </trkpt>
      <trkpt lat="47.16144" lon="-1.68104">
        <ele>77</ele>
        <time>2022-08-15T07:46:50Z</time>
      </trkpt>
      <trkpt lat="47.16139" lon="-1.6812">
        <ele>77</ele>
        <time>2022-08-15T07:46:52Z</time>
      </trkpt>
      <trkpt lat="47.16136" lon="-1.68136">
        <ele>77</ele>
        <time>2022-08-15T07:46:54Z</time>
      </trkpt>
      <trkpt lat="47.16132" lon="-1.68152">
        <ele>77</ele>
        <time>2022-08-15T07:46:56Z</time>
      </trkpt>
      <trkpt lat="47.16129" lon="-1.68169">
        <ele>77</ele>
        <time>2022-08-15T07:46:58Z</time>
      </trkpt>
      <trkpt lat="47.16125" lon="-1.68187">
        <ele>77</ele>
        <time>2022-08-15T07:47:00Z</time>
      </trkpt>
      <trkpt lat="47.16121" lon="-1.68205">
        <ele>78</ele>
        <time>2022-08-15T07:47:02Z</time>
      </trkpt>
      <trkpt lat="47.16117" lon="-1.68224">
        <ele>78</ele>
        <time>2022-08-15T07:47:04Z</time>
      </trkpt>
      <trkpt lat="47.16113" lon="-1.68241">
        <ele>78</ele>
        <time>2022-08-15T07:47:06Z</time>
      </trkpt>
      <trkpt lat="47.16111" lon="-1.68258">
        <ele>78</ele>
        <time>2022-08-15T07:47:08Z</time>
      </trkpt>
      <trkpt lat="47.16107" lon="-1.68277">
        <ele>78</ele>
        <time>2022-08-15T07:47:10Z</time>
      </trkpt>
      <trkpt lat="47.16103" lon="-1.68298">
        <ele>77</ele>
        <time>2022-08-15T07:47:12Z</time>
      </trkpt>
      <trkpt lat="47.16099" lon="-1.68318">
        <ele>76</ele>
        <time>2022-08-15T07:47:14Z</time>
      </trkpt>
      <trkpt lat="47.16095" lon="-1.68337">
        <ele>76</ele>
        <time>2022-08-15T07:47:16Z</time>
      </trkpt>
      <trkpt lat="47.16091" lon="-1.68356">
        <ele>76</ele>
        <time>2022-08-15T07:47:18Z</time>
      </trkpt>
      <trkpt lat="47.16087" lon="-1.68374">
        <ele>75</ele>
        <time>2022-08-15T07:47:20Z</time>
      </trkpt>
      <trkpt lat="47.16084" lon="-1.68392">
        <ele>75</ele>
        <time>2022-08-15T07:47:22Z</time>
      </trkpt>
      <trkpt lat="47.1608" lon="-1.68408">
        <ele>75</ele>
        <time>2022-08-15T07:47:24Z</time>
      </trkpt>
      <trkpt lat="47.16077" lon="-1.68425">
        <ele>75</ele>
        <time>2022-08-15T07:47:26Z</time>
      </trkpt>
      <trkpt lat="47.16073" lon="-1.68442">
        <ele>75</ele>
        <time>2022-08-15T07:47:28Z</time>
      </trkpt>
      <trkpt lat="47.1607" lon="-1.68459">
        <ele>75</ele>
        <time>2022-08-15T07:47:30Z</time>
      </trkpt>
      <trkpt lat="47.16066" lon="-1.68476">
        <ele>76</ele>
        <time>2022-08-15T07:47:32Z</time>
      </trkpt>
      <trkpt lat="47.16064" lon="-1.68493">
        <ele>76</ele>
        <time>2022-08-15T07:47:34Z</time>
      </trkpt>
      <trkpt lat="47.16062" lon="-1.6851">
        <ele>76</ele>
        <time>2022-08-15T07:47:36Z</time>
      </trkpt>
      <trkpt lat="47.16059" lon="-1.68527">
        <ele>76</ele>
        <time>2022-08-15T07:47:38Z</time>
      </trkpt>
      <trkpt lat="47.16057" lon="-1.68544">
        <ele>76</ele>
        <time>2022-08-15T07:47:40Z</time>
      </trkpt>
      <trkpt lat="47.16054" lon="-1.68561">
        <ele>76</ele>
        <time>2022-08-15T07:47:42Z</time>
      </trkpt>
      <trkpt lat="47.16052" lon="-1.68577">
        <ele>76</ele>
        <time>2022-08-15T07:47:44Z</time>
      </trkpt>
      <trkpt lat="47.1605" lon="-1.68594">
        <ele>76</ele>
        <time>2022-08-15T07:47:46Z</time>
      </trkpt>
      <trkpt lat="47.16048" lon="-1.68611">
        <ele>76</ele>
        <time>2022-08-15T07:47:48Z</time>
      </trkpt>
      <trkpt lat="47.16047" lon="-1.68628">
        <ele>76</ele>
        <time>2022-08-15T07:47:50Z</time>
      </trkpt>
      <trkpt lat="47.16046" lon="-1.68644">
        <ele>76</ele>
        <time>2022-08-15T07:47:52Z</time>
      </trkpt>
      <trkpt lat="47.16045" lon="-1.6866">
        <ele>75</ele>
        <time>2022-08-15T07:47:54Z</time>
      </trkpt>
      <trkpt lat="47.16045" lon="-1.68677">
        <ele>75</ele>
        <time>2022-08-15T07:47:56Z</time>
      </trkpt>
      <trkpt lat="47.16045" lon="-1.68693">
        <ele>75</ele>
        <time>2022-08-15T07:47:58Z</time>
      </trkpt>
      <trkpt lat="47.16047" lon="-1.6871">
        <ele>75</ele>
        <time>2022-08-15T07:48:00Z</time>
      </trkpt>
      <trkpt lat="47.1605" lon="-1.68733">
        <ele>75</ele>
        <time>2022-08-15T07:48:03Z</time>
      </trkpt>
      <trkpt lat="47.16052" lon="-1.6875">
        <ele>75</ele>
        <time>2022-08-15T07:48:05Z</time>
      </trkpt>
      <trkpt lat="47.16056" lon="-1.68765">
        <ele>75</ele>
        <time>2022-08-15T07:48:07Z</time>
      </trkpt>
      <trkpt lat="47.1606" lon="-1.6878">
        <ele>76</ele>
        <time>2022-08-15T07:48:09Z</time>
      </trkpt>
      <trkpt lat="47.16065" lon="-1.68795">
        <ele>76</ele>
        <time>2022-08-15T07:48:11Z</time>
      </trkpt>
      <trkpt lat="47.16069" lon="-1.6881">
        <ele>77</ele>
        <time>2022-08-15T07:48:13Z</time>
      </trkpt>
      <trkpt lat="47.16074" lon="-1.68824">
        <ele>77</ele>
        <time>2022-08-15T07:48:15Z</time>
      </trkpt>
      <trkpt lat="47.16078" lon="-1.68838">
        <ele>77</ele>
        <time>2022-08-15T07:48:17Z</time>
      </trkpt>
      <trkpt lat="47.16082" lon="-1.68852">
        <ele>77</ele>
        <time>2022-08-15T07:48:19Z</time>
      </trkpt>
      <trkpt lat="47.16086" lon="-1.68867">
        <ele>77</ele>
        <time>2022-08-15T07:48:21Z</time>
      </trkpt>
      <trkpt lat="47.1609" lon="-1.68883">
        <ele>77</ele>
        <time>2022-08-15T07:48:23Z</time>
      </trkpt>
      <trkpt lat="47.16095" lon="-1.68898">
        <ele>77</ele>
        <time>2022-08-15T07:48:25Z</time>
      </trkpt>
      <trkpt lat="47.16099" lon="-1.68913">
        <ele>77</ele>
        <time>2022-08-15T07:48:27Z</time>
      </trkpt>
      <trkpt lat="47.16103" lon="-1.68929">
        <ele>77</ele>
        <time>2022-08-15T07:48:29Z</time>
      </trkpt>
      <trkpt lat="47.16108" lon="-1.68945">
        <ele>76</ele>
        <time>2022-08-15T07:48:31Z</time>
      </trkpt>
      <trkpt lat="47.16113" lon="-1.68961">
        <ele>76</ele>
        <time>2022-08-15T07:48:33Z</time>
      </trkpt>
      <trkpt lat="47.16118" lon="-1.68977">
        <ele>76</ele>
        <time>2022-08-15T07:48:35Z</time>
      </trkpt>
      <trkpt lat="47.16122" lon="-1.68993">
        <ele>75</ele>
        <time>2022-08-15T07:48:37Z</time>
      </trkpt>
      <trkpt lat="47.16127" lon="-1.69009">
        <ele>75</ele>
        <time>2022-08-15T07:48:39Z</time>
      </trkpt>
      <trkpt lat="47.16132" lon="-1.69025">
        <ele>74</ele>
        <time>2022-08-15T07:48:41Z</time>
      </trkpt>
      <trkpt lat="47.16135" lon="-1.69042">
        <ele>74</ele>
        <time>2022-08-15T07:48:43Z</time>
      </trkpt>
      <trkpt lat="47.16138" lon="-1.69059">
        <ele>74</ele>
        <time>2022-08-15T07:48:45Z</time>
      </trkpt>
      <trkpt lat="47.16141" lon="-1.69075">
        <ele>75</ele>
        <time>2022-08-15T07:48:47Z</time>
      </trkpt>
      <trkpt lat="47.16144" lon="-1.69091">
        <ele>75</ele>
        <time>2022-08-15T07:48:49Z</time>
      </trkpt>
      <trkpt lat="47.16146" lon="-1.69107">
        <ele>74</ele>
        <time>2022-08-15T07:48:51Z</time>
      </trkpt>
      <trkpt lat="47.16147" lon="-1.69124">
        <ele>74</ele>
        <time>2022-08-15T07:48:53Z</time>
      </trkpt>
      <trkpt lat="47.16147" lon="-1.69141">
        <ele>74</ele>
        <time>2022-08-15T07:48:55Z</time>
      </trkpt>
      <trkpt lat="47.16148" lon="-1.69158">
        <ele>74</ele>
        <time>2022-08-15T07:48:57Z</time>
      </trkpt>
      <trkpt lat="47.16147" lon="-1.69174">
        <ele>74</ele>
        <time>2022-08-15T07:48:59Z</time>
      </trkpt>
      <trkpt lat="47.16146" lon="-1.6919">
        <ele>73</ele>
        <time>2022-08-15T07:49:01Z</time>
      </trkpt>
      <trkpt lat="47.16144" lon="-1.69207">
        <ele>73</ele>
        <time>2022-08-15T07:49:03Z</time>
      </trkpt>
      <trkpt lat="47.16142" lon="-1.69226">
        <ele>72</ele>
        <time>2022-08-15T07:49:05Z</time>
      </trkpt>
      <trkpt lat="47.16141" lon="-1.69244">
        <ele>72</ele>
        <time>2022-08-15T07:49:07Z</time>
      </trkpt>
      <trkpt lat="47.1614" lon="-1.69262">
        <ele>72</ele>
        <time>2022-08-15T07:49:09Z</time>
      </trkpt>
      <trkpt lat="47.16139" lon="-1.6928">
        <ele>72</ele>
        <time>2022-08-15T07:49:11Z</time>
      </trkpt>
      <trkpt lat="47.16136" lon="-1.69298">
        <ele>72</ele>
        <time>2022-08-15T07:49:13Z</time>
      </trkpt>
      <trkpt lat="47.16134" lon="-1.69314">
        <ele>72</ele>
        <time>2022-08-15T07:49:15Z</time>
      </trkpt>
      <trkpt lat="47.16131" lon="-1.69331">
        <ele>72</ele>
        <time>2022-08-15T07:49:17Z</time>
      </trkpt>
      <trkpt lat="47.16129" lon="-1.69347">
        <ele>72</ele>
        <time>2022-08-15T07:49:19Z</time>
      </trkpt>
      <trkpt lat="47.16127" lon="-1.69363">
        <ele>72</ele>
        <time>2022-08-15T07:49:21Z</time>
      </trkpt>
      <trkpt lat="47.16125" lon="-1.69379">
        <ele>73</ele>
        <time>2022-08-15T07:49:23Z</time>
      </trkpt>
      <trkpt lat="47.16123" lon="-1.69395">
        <ele>73</ele>
        <time>2022-08-15T07:49:25Z</time>
      </trkpt>
      <trkpt lat="47.16122" lon="-1.69412">
        <ele>73</ele>
        <time>2022-08-15T07:49:27Z</time>
      </trkpt>
      <trkpt lat="47.16121" lon="-1.69427">
        <ele>73</ele>
        <time>2022-08-15T07:49:29Z</time>
      </trkpt>
      <trkpt lat="47.1612" lon="-1.69443">
        <ele>74</ele>
        <time>2022-08-15T07:49:31Z</time>
      </trkpt>
      <trkpt lat="47.16118" lon="-1.69459">
        <ele>74</ele>
        <time>2022-08-15T07:49:33Z</time>
      </trkpt>
      <trkpt lat="47.16117" lon="-1.69475">
        <ele>74</ele>
        <time>2022-08-15T07:49:35Z</time>
      </trkpt>
      <trkpt lat="47.16116" lon="-1.69491">
        <ele>75</ele>
        <time>2022-08-15T07:49:37Z</time>
      </trkpt>
      <trkpt lat="47.16115" lon="-1.69507">
        <ele>75</ele>
        <time>2022-08-15T07:49:39Z</time>
      </trkpt>
      <trkpt lat="47.16113" lon="-1.69523">
        <ele>74</ele>
        <time>2022-08-15T07:49:41Z</time>
      </trkpt>
      <trkpt lat="47.16112" lon="-1.6954">
        <ele>74</ele>
        <time>2022-08-15T07:49:43Z</time>
      </trkpt>
      <trkpt lat="47.16111" lon="-1.69556">
        <ele>74</ele>
        <time>2022-08-15T07:49:45Z</time>
      </trkpt>
      <trkpt lat="47.1611" lon="-1.69573">
        <ele>74</ele>
        <time>2022-08-15T07:49:47Z</time>
      </trkpt>
      <trkpt lat="47.16109" lon="-1.6959">
        <ele>75</ele>
        <time>2022-08-15T07:49:49Z</time>
      </trkpt>
      <trkpt lat="47.16107" lon="-1.69607">
        <ele>75</ele>
        <time>2022-08-15T07:49:51Z</time>
      </trkpt>
      <trkpt lat="47.16106" lon="-1.69623">
        <ele>75</ele>
        <time>2022-08-15T07:49:53Z</time>
      </trkpt>
      <trkpt lat="47.16105" lon="-1.69639">
        <ele>75</ele>
        <time>2022-08-15T07:49:55Z</time>
      </trkpt>
      <trkpt lat="47.16104" lon="-1.69655">
        <ele>75</ele>
        <time>2022-08-15T07:49:57Z</time>
      </trkpt>
      <trkpt lat="47.16103" lon="-1.69672">
        <ele>75</ele>
        <time>2022-08-15T07:49:59Z</time>
      </trkpt>
      <trkpt lat="47.16102" lon="-1.69689">
        <ele>75</ele>
        <time>2022-08-15T07:50:01Z</time>
      </trkpt>
      <trkpt lat="47.16101" lon="-1.69706">
        <ele>74</ele>
        <time>2022-08-15T07:50:03Z</time>
      </trkpt>
      <trkpt lat="47.16099" lon="-1.69723">
        <ele>74</ele>
        <time>2022-08-15T07:50:05Z</time>
      </trkpt>
      <trkpt lat="47.16098" lon="-1.69741">
        <ele>74</ele>
        <time>2022-08-15T07:50:07Z</time>
      </trkpt>
      <trkpt lat="47.16096" lon="-1.69759">
        <ele>74</ele>
        <time>2022-08-15T07:50:09Z</time>
      </trkpt>
      <trkpt lat="47.16095" lon="-1.69775">
        <ele>74</ele>
        <time>2022-08-15T07:50:11Z</time>
      </trkpt>
      <trkpt lat="47.16095" lon="-1.69792">
        <ele>75</ele>
        <time>2022-08-15T07:50:13Z</time>
      </trkpt>
      <trkpt lat="47.16094" lon="-1.6981">
        <ele>75</ele>
        <time>2022-08-15T07:50:15Z</time>
      </trkpt>
      <trkpt lat="47.16092" lon="-1.69827">
        <ele>75</ele>
        <time>2022-08-15T07:50:17Z</time>
      </trkpt>
      <trkpt lat="47.16091" lon="-1.69844">
        <ele>75</ele>
        <time>2022-08-15T07:50:19Z</time>
      </trkpt>
      <trkpt lat="47.1609" lon="-1.6986">
        <ele>76</ele>
        <time>2022-08-15T07:50:21Z</time>
      </trkpt>
      <trkpt lat="47.16089" lon="-1.69878">
        <ele>76</ele>
        <time>2022-08-15T07:50:23Z</time>
      </trkpt>
      <trkpt lat="47.16088" lon="-1.69895">
        <ele>76</ele>
        <time>2022-08-15T07:50:25Z</time>
      </trkpt>
      <trkpt lat="47.16086" lon="-1.69914">
        <ele>77</ele>
        <time>2022-08-15T07:50:27Z</time>
      </trkpt>
      <trkpt lat="47.16085" lon="-1.69932">
        <ele>77</ele>
        <time>2022-08-15T07:50:29Z</time>
      </trkpt>
      <trkpt lat="47.16084" lon="-1.69951">
        <ele>77</ele>
        <time>2022-08-15T07:50:31Z</time>
      </trkpt>
      <trkpt lat="47.16083" lon="-1.6997">
        <ele>77</ele>
        <time>2022-08-15T07:50:33Z</time>
      </trkpt>
      <trkpt lat="47.16081" lon="-1.69988">
        <ele>76</ele>
        <time>2022-08-15T07:50:35Z</time>
      </trkpt>
      <trkpt lat="47.1608" lon="-1.70006">
        <ele>76</ele>
        <time>2022-08-15T07:50:37Z</time>
      </trkpt>
      <trkpt lat="47.16079" lon="-1.70024">
        <ele>76</ele>
        <time>2022-08-15T07:50:39Z</time>
      </trkpt>
      <trkpt lat="47.16077" lon="-1.70043">
        <ele>76</ele>
        <time>2022-08-15T07:50:41Z</time>
      </trkpt>
      <trkpt lat="47.16076" lon="-1.7006">
        <ele>76</ele>
        <time>2022-08-15T07:50:43Z</time>
      </trkpt>
      <trkpt lat="47.16075" lon="-1.70078">
        <ele>75</ele>
        <time>2022-08-15T07:50:45Z</time>
      </trkpt>
      <trkpt lat="47.16073" lon="-1.70095">
        <ele>75</ele>
        <time>2022-08-15T07:50:47Z</time>
      </trkpt>
      <trkpt lat="47.1607" lon="-1.70113">
        <ele>75</ele>
        <time>2022-08-15T07:50:49Z</time>
      </trkpt>
      <trkpt lat="47.16066" lon="-1.70131">
        <ele>75</ele>
        <time>2022-08-15T07:50:51Z</time>
      </trkpt>
      <trkpt lat="47.16061" lon="-1.70148">
        <ele>75</ele>
        <time>2022-08-15T07:50:53Z</time>
      </trkpt>
      <trkpt lat="47.16056" lon="-1.70164">
        <ele>75</ele>
        <time>2022-08-15T07:50:55Z</time>
      </trkpt>
      <trkpt lat="47.1605" lon="-1.70178">
        <ele>74</ele>
        <time>2022-08-15T07:50:57Z</time>
      </trkpt>
      <trkpt lat="47.16043" lon="-1.70193">
        <ele>74</ele>
        <time>2022-08-15T07:50:59Z</time>
      </trkpt>
      <trkpt lat="47.16036" lon="-1.70208">
        <ele>75</ele>
        <time>2022-08-15T07:51:01Z</time>
      </trkpt>
      <trkpt lat="47.1603" lon="-1.70222">
        <ele>75</ele>
        <time>2022-08-15T07:51:03Z</time>
      </trkpt>
      <trkpt lat="47.16023" lon="-1.70237">
        <ele>76</ele>
        <time>2022-08-15T07:51:05Z</time>
      </trkpt>
      <trkpt lat="47.16016" lon="-1.70252">
        <ele>76</ele>
        <time>2022-08-15T07:51:07Z</time>
      </trkpt>
      <trkpt lat="47.16009" lon="-1.70268">
        <ele>76</ele>
        <time>2022-08-15T07:51:09Z</time>
      </trkpt>
      <trkpt lat="47.16002" lon="-1.70284">
        <ele>76</ele>
        <time>2022-08-15T07:51:11Z</time>
      </trkpt>
      <trkpt lat="47.15995" lon="-1.703">
        <ele>76</ele>
        <time>2022-08-15T07:51:13Z</time>
      </trkpt>
      <trkpt lat="47.15989" lon="-1.70317">
        <ele>76</ele>
        <time>2022-08-15T07:51:15Z</time>
      </trkpt>
      <trkpt lat="47.15981" lon="-1.70332">
        <ele>76</ele>
        <time>2022-08-15T07:51:17Z</time>
      </trkpt>
      <trkpt lat="47.15974" lon="-1.70348">
        <ele>76</ele>
        <time>2022-08-15T07:51:19Z</time>
      </trkpt>
      <trkpt lat="47.15966" lon="-1.70365">
        <ele>77</ele>
        <time>2022-08-15T07:51:21Z</time>
      </trkpt>
      <trkpt lat="47.15959" lon="-1.70382">
        <ele>76</ele>
        <time>2022-08-15T07:51:23Z</time>
      </trkpt>
      <trkpt lat="47.15952" lon="-1.70398">
        <ele>76</ele>
        <time>2022-08-15T07:51:25Z</time>
      </trkpt>
      <trkpt lat="47.15945" lon="-1.70414">
        <ele>76</ele>
        <time>2022-08-15T07:51:27Z</time>
      </trkpt>
      <trkpt lat="47.15938" lon="-1.7043">
        <ele>76</ele>
        <time>2022-08-15T07:51:29Z</time>
      </trkpt>
      <trkpt lat="47.15931" lon="-1.70446">
        <ele>75</ele>
        <time>2022-08-15T07:51:31Z</time>
      </trkpt>
      <trkpt lat="47.15923" lon="-1.70461">
        <ele>75</ele>
        <time>2022-08-15T07:51:33Z</time>
      </trkpt>
      <trkpt lat="47.15915" lon="-1.70476">
        <ele>75</ele>
        <time>2022-08-15T07:51:35Z</time>
      </trkpt>
      <trkpt lat="47.15908" lon="-1.70491">
        <ele>75</ele>
        <time>2022-08-15T07:51:37Z</time>
      </trkpt>
      <trkpt lat="47.15901" lon="-1.70506">
        <ele>75</ele>
        <time>2022-08-15T07:51:39Z</time>
      </trkpt>
      <trkpt lat="47.15896" lon="-1.70522">
        <ele>74</ele>
        <time>2022-08-15T07:51:41Z</time>
      </trkpt>
      <trkpt lat="47.1589" lon="-1.70536">
        <ele>74</ele>
        <time>2022-08-15T07:51:43Z</time>
      </trkpt>
      <trkpt lat="47.15886" lon="-1.70552">
        <ele>74</ele>
        <time>2022-08-15T07:51:45Z</time>
      </trkpt>
      <trkpt lat="47.15882" lon="-1.70567">
        <ele>74</ele>
        <time>2022-08-15T07:51:47Z</time>
      </trkpt>
      <trkpt lat="47.15877" lon="-1.70583">
        <ele>74</ele>
        <time>2022-08-15T07:51:49Z</time>
      </trkpt>
      <trkpt lat="47.15873" lon="-1.70597">
        <ele>74</ele>
        <time>2022-08-15T07:51:51Z</time>
      </trkpt>
      <trkpt lat="47.15868" lon="-1.70613">
        <ele>74</ele>
        <time>2022-08-15T07:51:53Z</time>
      </trkpt>
      <trkpt lat="47.15864" lon="-1.70628">
        <ele>74</ele>
        <time>2022-08-15T07:51:55Z</time>
      </trkpt>
      <trkpt lat="47.15859" lon="-1.70643">
        <ele>74</ele>
        <time>2022-08-15T07:51:57Z</time>
      </trkpt>
      <trkpt lat="47.15854" lon="-1.70657">
        <ele>74</ele>
        <time>2022-08-15T07:51:59Z</time>
      </trkpt>
      <trkpt lat="47.15849" lon="-1.70671">
        <ele>74</ele>
        <time>2022-08-15T07:52:01Z</time>
      </trkpt>
      <trkpt lat="47.15843" lon="-1.70684">
        <ele>74</ele>
        <time>2022-08-15T07:52:03Z</time>
      </trkpt>
      <trkpt lat="47.15837" lon="-1.70697">
        <ele>74</ele>
        <time>2022-08-15T07:52:05Z</time>
      </trkpt>
      <trkpt lat="47.15831" lon="-1.7071">
        <ele>74</ele>
        <time>2022-08-15T07:52:07Z</time>
      </trkpt>
      <trkpt lat="47.15825" lon="-1.70723">
        <ele>74</ele>
        <time>2022-08-15T07:52:09Z</time>
      </trkpt>
      <trkpt lat="47.15819" lon="-1.70736">
        <ele>74</ele>
        <time>2022-08-15T07:52:11Z</time>
      </trkpt>
      <trkpt lat="47.15813" lon="-1.70749">
        <ele>74</ele>
        <time>2022-08-15T07:52:13Z</time>
      </trkpt>
      <trkpt lat="47.15807" lon="-1.70762">
        <ele>74</ele>
        <time>2022-08-15T07:52:15Z</time>
      </trkpt>
      <trkpt lat="47.15801" lon="-1.70775">
        <ele>74</ele>
        <time>2022-08-15T07:52:17Z</time>
      </trkpt>
      <trkpt lat="47.15795" lon="-1.70788">
        <ele>74</ele>
        <time>2022-08-15T07:52:19Z</time>
      </trkpt>
      <trkpt lat="47.15789" lon="-1.708">
        <ele>75</ele>
        <time>2022-08-15T07:52:21Z</time>
      </trkpt>
      <trkpt lat="47.15783" lon="-1.70814">
        <ele>75</ele>
        <time>2022-08-15T07:52:23Z</time>
      </trkpt>
      <trkpt lat="47.15776" lon="-1.70826">
        <ele>74</ele>
        <time>2022-08-15T07:52:25Z</time>
      </trkpt>
      <trkpt lat="47.1577" lon="-1.70839">
        <ele>74</ele>
        <time>2022-08-15T07:52:27Z</time>
      </trkpt>
      <trkpt lat="47.15763" lon="-1.70851">
        <ele>74</ele>
        <time>2022-08-15T07:52:29Z</time>
      </trkpt>
      <trkpt lat="47.15756" lon="-1.70864">
        <ele>74</ele>
        <time>2022-08-15T07:52:31Z</time>
      </trkpt>
      <trkpt lat="47.15749" lon="-1.70876">
        <ele>74</ele>
        <time>2022-08-15T07:52:33Z</time>
      </trkpt>
      <trkpt lat="47.15742" lon="-1.70888">
        <ele>74</ele>
        <time>2022-08-15T07:52:35Z</time>
      </trkpt>
      <trkpt lat="47.15735" lon="-1.70901">
        <ele>74</ele>
        <time>2022-08-15T07:52:37Z</time>
      </trkpt>
      <trkpt lat="47.15728" lon="-1.70913">
        <ele>74</ele>
        <time>2022-08-15T07:52:39Z</time>
      </trkpt>
      <trkpt lat="47.15721" lon="-1.70925">
        <ele>74</ele>
        <time>2022-08-15T07:52:41Z</time>
      </trkpt>
      <trkpt lat="47.15715" lon="-1.70937">
        <ele>74</ele>
        <time>2022-08-15T07:52:43Z</time>
      </trkpt>
      <trkpt lat="47.15708" lon="-1.70951">
        <ele>74</ele>
        <time>2022-08-15T07:52:45Z</time>
      </trkpt>
      <trkpt lat="47.15702" lon="-1.70964">
        <ele>74</ele>
        <time>2022-08-15T07:52:47Z</time>
      </trkpt>
      <trkpt lat="47.15696" lon="-1.70977">
        <ele>74</ele>
        <time>2022-08-15T07:52:49Z</time>
      </trkpt>
      <trkpt lat="47.1569" lon="-1.70989">
        <ele>74</ele>
        <time>2022-08-15T07:52:51Z</time>
      </trkpt>
      <trkpt lat="47.15684" lon="-1.71003">
        <ele>74</ele>
        <time>2022-08-15T07:52:53Z</time>
      </trkpt>
      <trkpt lat="47.15677" lon="-1.71016">
        <ele>74</ele>
        <time>2022-08-15T07:52:55Z</time>
      </trkpt>
      <trkpt lat="47.15672" lon="-1.71029">
        <ele>74</ele>
        <time>2022-08-15T07:52:57Z</time>
      </trkpt>
      <trkpt lat="47.15666" lon="-1.71041">
        <ele>74</ele>
        <time>2022-08-15T07:52:59Z</time>
      </trkpt>
      <trkpt lat="47.15659" lon="-1.71056">
        <ele>74</ele>
        <time>2022-08-15T07:53:02Z</time>
      </trkpt>
      <trkpt lat="47.15649" lon="-1.71067">
        <ele>74</ele>
        <time>2022-08-15T07:53:05Z</time>
      </trkpt>
      <trkpt lat="47.1564" lon="-1.71072">
        <ele>74</ele>
        <time>2022-08-15T07:53:07Z</time>
      </trkpt>
      <trkpt lat="47.15631" lon="-1.71082">
        <ele>74</ele>
        <time>2022-08-15T07:53:09Z</time>
      </trkpt>
      <trkpt lat="47.15624" lon="-1.71095">
        <ele>74</ele>
        <time>2022-08-15T07:53:11Z</time>
      </trkpt>
      <trkpt lat="47.15617" lon="-1.71108">
        <ele>74</ele>
        <time>2022-08-15T07:53:13Z</time>
      </trkpt>
      <trkpt lat="47.15611" lon="-1.71121">
        <ele>74</ele>
        <time>2022-08-15T07:53:15Z</time>
      </trkpt>
      <trkpt lat="47.15604" lon="-1.71134">
        <ele>74</ele>
        <time>2022-08-15T07:53:17Z</time>
      </trkpt>
      <trkpt lat="47.15597" lon="-1.71146">
        <ele>74</ele>
        <time>2022-08-15T07:53:19Z</time>
      </trkpt>
      <trkpt lat="47.1559" lon="-1.71158">
        <ele>75</ele>
        <time>2022-08-15T07:53:21Z</time>
      </trkpt>
      <trkpt lat="47.15582" lon="-1.71169">
        <ele>74</ele>
        <time>2022-08-15T07:53:23Z</time>
      </trkpt>
      <trkpt lat="47.15575" lon="-1.71181">
        <ele>75</ele>
        <time>2022-08-15T07:53:25Z</time>
      </trkpt>
      <trkpt lat="47.15568" lon="-1.71194">
        <ele>75</ele>
        <time>2022-08-15T07:53:27Z</time>
      </trkpt>
      <trkpt lat="47.15562" lon="-1.71206">
        <ele>75</ele>
        <time>2022-08-15T07:53:29Z</time>
      </trkpt>
      <trkpt lat="47.15555" lon="-1.7122">
        <ele>75</ele>
        <time>2022-08-15T07:53:31Z</time>
      </trkpt>
      <trkpt lat="47.15549" lon="-1.71234">
        <ele>75</ele>
        <time>2022-08-15T07:53:33Z</time>
      </trkpt>
      <trkpt lat="47.15543" lon="-1.71248">
        <ele>75</ele>
        <time>2022-08-15T07:53:35Z</time>
      </trkpt>
      <trkpt lat="47.15538" lon="-1.71263">
        <ele>75</ele>
        <time>2022-08-15T07:53:37Z</time>
      </trkpt>
      <trkpt lat="47.15532" lon="-1.71277">
        <ele>75</ele>
        <time>2022-08-15T07:53:39Z</time>
      </trkpt>
      <trkpt lat="47.15525" lon="-1.71292">
        <ele>76</ele>
        <time>2022-08-15T07:53:41Z</time>
      </trkpt>
      <trkpt lat="47.15519" lon="-1.71305">
        <ele>76</ele>
        <time>2022-08-15T07:53:43Z</time>
      </trkpt>
      <trkpt lat="47.15513" lon="-1.71318">
        <ele>76</ele>
        <time>2022-08-15T07:53:45Z</time>
      </trkpt>
      <trkpt lat="47.15505" lon="-1.71331">
        <ele>75</ele>
        <time>2022-08-15T07:53:47Z</time>
      </trkpt>
      <trkpt lat="47.15497" lon="-1.71345">
        <ele>75</ele>
        <time>2022-08-15T07:53:49Z</time>
      </trkpt>
      <trkpt lat="47.15489" lon="-1.71357">
        <ele>75</ele>
        <time>2022-08-15T07:53:51Z</time>
      </trkpt>
      <trkpt lat="47.15481" lon="-1.71369">
        <ele>74</ele>
        <time>2022-08-15T07:53:53Z</time>
      </trkpt>
      <trkpt lat="47.15472" lon="-1.71381">
        <ele>74</ele>
        <time>2022-08-15T07:53:55Z</time>
      </trkpt>
      <trkpt lat="47.15462" lon="-1.71392">
        <ele>74</ele>
        <time>2022-08-15T07:53:57Z</time>
      </trkpt>
      <trkpt lat="47.15453" lon="-1.71401">
        <ele>74</ele>
        <time>2022-08-15T07:53:59Z</time>
      </trkpt>
      <trkpt lat="47.15443" lon="-1.71411">
        <ele>74</ele>
        <time>2022-08-15T07:54:01Z</time>
      </trkpt>
      <trkpt lat="47.15433" lon="-1.7142">
        <ele>73</ele>
        <time>2022-08-15T07:54:03Z</time>
      </trkpt>
      <trkpt lat="47.15424" lon="-1.71429">
        <ele>74</ele>
        <time>2022-08-15T07:54:05Z</time>
      </trkpt>
      <trkpt lat="47.15414" lon="-1.71439">
        <ele>74</ele>
        <time>2022-08-15T07:54:07Z</time>
      </trkpt>
      <trkpt lat="47.15404" lon="-1.71448">
        <ele>74</ele>
        <time>2022-08-15T07:54:09Z</time>
      </trkpt>
      <trkpt lat="47.15394" lon="-1.71457">
        <ele>74</ele>
        <time>2022-08-15T07:54:11Z</time>
      </trkpt>
      <trkpt lat="47.15383" lon="-1.71465">
        <ele>74</ele>
        <time>2022-08-15T07:54:13Z</time>
      </trkpt>
      <trkpt lat="47.15373" lon="-1.71473">
        <ele>74</ele>
        <time>2022-08-15T07:54:15Z</time>
      </trkpt>
      <trkpt lat="47.15363" lon="-1.71483">
        <ele>73</ele>
        <time>2022-08-15T07:54:17Z</time>
      </trkpt>
      <trkpt lat="47.15353" lon="-1.71493">
        <ele>73</ele>
        <time>2022-08-15T07:54:19Z</time>
      </trkpt>
      <trkpt lat="47.15343" lon="-1.71503">
        <ele>73</ele>
        <time>2022-08-15T07:54:21Z</time>
      </trkpt>
      <trkpt lat="47.15333" lon="-1.71514">
        <ele>73</ele>
        <time>2022-08-15T07:54:23Z</time>
      </trkpt>
      <trkpt lat="47.15324" lon="-1.71525">
        <ele>73</ele>
        <time>2022-08-15T07:54:25Z</time>
      </trkpt>
      <trkpt lat="47.15314" lon="-1.71536">
        <ele>72</ele>
        <time>2022-08-15T07:54:27Z</time>
      </trkpt>
      <trkpt lat="47.15303" lon="-1.71547">
        <ele>72</ele>
        <time>2022-08-15T07:54:29Z</time>
      </trkpt>
      <trkpt lat="47.15293" lon="-1.71558">
        <ele>72</ele>
        <time>2022-08-15T07:54:31Z</time>
      </trkpt>
      <trkpt lat="47.15283" lon="-1.7157">
        <ele>72</ele>
        <time>2022-08-15T07:54:33Z</time>
      </trkpt>
      <trkpt lat="47.15273" lon="-1.71581">
        <ele>71</ele>
        <time>2022-08-15T07:54:35Z</time>
      </trkpt>
      <trkpt lat="47.15263" lon="-1.71592">
        <ele>71</ele>
        <time>2022-08-15T07:54:37Z</time>
      </trkpt>
      <trkpt lat="47.15254" lon="-1.71605">
        <ele>71</ele>
        <time>2022-08-15T07:54:39Z</time>
      </trkpt>
      <trkpt lat="47.15246" lon="-1.71618">
        <ele>71</ele>
        <time>2022-08-15T07:54:41Z</time>
      </trkpt>
      <trkpt lat="47.15235" lon="-1.71625">
        <ele>71</ele>
        <time>2022-08-15T07:54:43Z</time>
      </trkpt>
      <trkpt lat="47.15223" lon="-1.7162">
        <ele>70</ele>
        <time>2022-08-15T07:54:45Z</time>
      </trkpt>
      <trkpt lat="47.15212" lon="-1.71611">
        <ele>70</ele>
        <time>2022-08-15T07:54:47Z</time>
      </trkpt>
      <trkpt lat="47.15201" lon="-1.71603">
        <ele>71</ele>
        <time>2022-08-15T07:54:49Z</time>
      </trkpt>
      <trkpt lat="47.15189" lon="-1.71596">
        <ele>71</ele>
        <time>2022-08-15T07:54:51Z</time>
      </trkpt>
      <trkpt lat="47.15178" lon="-1.71587">
        <ele>71</ele>
        <time>2022-08-15T07:54:53Z</time>
      </trkpt>
      <trkpt lat="47.15167" lon="-1.71579">
        <ele>70</ele>
        <time>2022-08-15T07:54:55Z</time>
      </trkpt>
      <trkpt lat="47.15156" lon="-1.7157">
        <ele>71</ele>
        <time>2022-08-15T07:54:57Z</time>
      </trkpt>
      <trkpt lat="47.15145" lon="-1.71562">
        <ele>70</ele>
        <time>2022-08-15T07:54:59Z</time>
      </trkpt>
      <trkpt lat="47.15134" lon="-1.71553">
        <ele>70</ele>
        <time>2022-08-15T07:55:01Z</time>
      </trkpt>
      <trkpt lat="47.15124" lon="-1.71544">
        <ele>70</ele>
        <time>2022-08-15T07:55:03Z</time>
      </trkpt>
      <trkpt lat="47.15113" lon="-1.71535">
        <ele>70</ele>
        <time>2022-08-15T07:55:05Z</time>
      </trkpt>
      <trkpt lat="47.15103" lon="-1.71525">
        <ele>71</ele>
        <time>2022-08-15T07:55:07Z</time>
      </trkpt>
      <trkpt lat="47.15093" lon="-1.71515">
        <ele>71</ele>
        <time>2022-08-15T07:55:09Z</time>
      </trkpt>
      <trkpt lat="47.15083" lon="-1.71504">
        <ele>71</ele>
        <time>2022-08-15T07:55:11Z</time>
      </trkpt>
      <trkpt lat="47.15073" lon="-1.71494">
        <ele>72</ele>
        <time>2022-08-15T07:55:13Z</time>
      </trkpt>
      <trkpt lat="47.15062" lon="-1.71484">
        <ele>72</ele>
        <time>2022-08-15T07:55:15Z</time>
      </trkpt>
      <trkpt lat="47.15052" lon="-1.71474">
        <ele>71</ele>
        <time>2022-08-15T07:55:17Z</time>
      </trkpt>
      <trkpt lat="47.15042" lon="-1.71464">
        <ele>71</ele>
        <time>2022-08-15T07:55:19Z</time>
      </trkpt>
      <trkpt lat="47.15032" lon="-1.71455">
        <ele>71</ele>
        <time>2022-08-15T07:55:21Z</time>
      </trkpt>
      <trkpt lat="47.15022" lon="-1.71445">
        <ele>71</ele>
        <time>2022-08-15T07:55:23Z</time>
      </trkpt>
      <trkpt lat="47.15012" lon="-1.71435">
        <ele>71</ele>
        <time>2022-08-15T07:55:25Z</time>
      </trkpt>
      <trkpt lat="47.15002" lon="-1.71425">
        <ele>71</ele>
        <time>2022-08-15T07:55:27Z</time>
      </trkpt>
      <trkpt lat="47.14992" lon="-1.71416">
        <ele>72</ele>
        <time>2022-08-15T07:55:29Z</time>
      </trkpt>
      <trkpt lat="47.14982" lon="-1.71406">
        <ele>72</ele>
        <time>2022-08-15T07:55:31Z</time>
      </trkpt>
      <trkpt lat="47.14972" lon="-1.71395">
        <ele>72</ele>
        <time>2022-08-15T07:55:33Z</time>
      </trkpt>
      <trkpt lat="47.14963" lon="-1.71385">
        <ele>72</ele>
        <time>2022-08-15T07:55:35Z</time>
      </trkpt>
      <trkpt lat="47.14953" lon="-1.71375">
        <ele>72</ele>
        <time>2022-08-15T07:55:37Z</time>
      </trkpt>
      <trkpt lat="47.14944" lon="-1.71365">
        <ele>72</ele>
        <time>2022-08-15T07:55:39Z</time>
      </trkpt>
      <trkpt lat="47.14934" lon="-1.71354">
        <ele>73</ele>
        <time>2022-08-15T07:55:41Z</time>
      </trkpt>
      <trkpt lat="47.14925" lon="-1.71344">
        <ele>73</ele>
        <time>2022-08-15T07:55:43Z</time>
      </trkpt>
      <trkpt lat="47.14916" lon="-1.71332">
        <ele>74</ele>
        <time>2022-08-15T07:55:45Z</time>
      </trkpt>
      <trkpt lat="47.14907" lon="-1.71321">
        <ele>74</ele>
        <time>2022-08-15T07:55:47Z</time>
      </trkpt>
      <trkpt lat="47.14898" lon="-1.71309">
        <ele>74</ele>
        <time>2022-08-15T07:55:49Z</time>
      </trkpt>
      <trkpt lat="47.14888" lon="-1.71298">
        <ele>74</ele>
        <time>2022-08-15T07:55:51Z</time>
      </trkpt>
      <trkpt lat="47.14879" lon="-1.71289">
        <ele>74</ele>
        <time>2022-08-15T07:55:53Z</time>
      </trkpt>
      <trkpt lat="47.14868" lon="-1.7128">
        <ele>74</ele>
        <time>2022-08-15T07:55:55Z</time>
      </trkpt>
      <trkpt lat="47.14859" lon="-1.71269">
        <ele>74</ele>
        <time>2022-08-15T07:55:57Z</time>
      </trkpt>
      <trkpt lat="47.14851" lon="-1.71255">
        <ele>74</ele>
        <time>2022-08-15T07:55:59Z</time>
      </trkpt>
      <trkpt lat="47.14844" lon="-1.71239">
        <ele>74</ele>
        <time>2022-08-15T07:56:01Z</time>
      </trkpt>
      <trkpt lat="47.14837" lon="-1.71223">
        <ele>74</ele>
        <time>2022-08-15T07:56:03Z</time>
      </trkpt>
      <trkpt lat="47.14831" lon="-1.71208">
        <ele>74</ele>
        <time>2022-08-15T07:56:05Z</time>
      </trkpt>
      <trkpt lat="47.14825" lon="-1.71192">
        <ele>75</ele>
        <time>2022-08-15T07:56:07Z</time>
      </trkpt>
      <trkpt lat="47.14819" lon="-1.71176">
        <ele>75</ele>
        <time>2022-08-15T07:56:09Z</time>
      </trkpt>
      <trkpt lat="47.14813" lon="-1.7116">
        <ele>75</ele>
        <time>2022-08-15T07:56:11Z</time>
      </trkpt>
      <trkpt lat="47.14808" lon="-1.71144">
        <ele>74</ele>
        <time>2022-08-15T07:56:13Z</time>
      </trkpt>
      <trkpt lat="47.148" lon="-1.71129">
        <ele>74</ele>
        <time>2022-08-15T07:56:15Z</time>
      </trkpt>
      <trkpt lat="47.14793" lon="-1.71113">
        <ele>75</ele>
        <time>2022-08-15T07:56:17Z</time>
      </trkpt>
      <trkpt lat="47.14786" lon="-1.71096">
        <ele>74</ele>
        <time>2022-08-15T07:56:19Z</time>
      </trkpt>
      <trkpt lat="47.14779" lon="-1.7108">
        <ele>74</ele>
        <time>2022-08-15T07:56:21Z</time>
      </trkpt>
      <trkpt lat="47.14773" lon="-1.71063">
        <ele>75</ele>
        <time>2022-08-15T07:56:23Z</time>
      </trkpt>
      <trkpt lat="47.14767" lon="-1.71045">
        <ele>74</ele>
        <time>2022-08-15T07:56:25Z</time>
      </trkpt>
      <trkpt lat="47.14762" lon="-1.71027">
        <ele>74</ele>
        <time>2022-08-15T07:56:27Z</time>
      </trkpt>
      <trkpt lat="47.14756" lon="-1.71009">
        <ele>74</ele>
        <time>2022-08-15T07:56:29Z</time>
      </trkpt>
      <trkpt lat="47.14752" lon="-1.70992">
        <ele>74</ele>
        <time>2022-08-15T07:56:31Z</time>
      </trkpt>
      <trkpt lat="47.14743" lon="-1.70982">
        <ele>74</ele>
        <time>2022-08-15T07:56:33Z</time>
      </trkpt>
      <trkpt lat="47.14732" lon="-1.70986">
        <ele>73</ele>
        <time>2022-08-15T07:56:35Z</time>
      </trkpt>
      <trkpt lat="47.14724" lon="-1.70998">
        <ele>73</ele>
        <time>2022-08-15T07:56:37Z</time>
      </trkpt>
      <trkpt lat="47.14717" lon="-1.71013">
        <ele>73</ele>
        <time>2022-08-15T07:56:39Z</time>
      </trkpt>
      <trkpt lat="47.14713" lon="-1.71031">
        <ele>73</ele>
        <time>2022-08-15T07:56:41Z</time>
      </trkpt>
      <trkpt lat="47.14713" lon="-1.71049">
        <ele>73</ele>
        <time>2022-08-15T07:56:43Z</time>
      </trkpt>
      <trkpt lat="47.14716" lon="-1.71067">
        <ele>73</ele>
        <time>2022-08-15T07:56:45Z</time>
      </trkpt>
      <trkpt lat="47.14719" lon="-1.71084">
        <ele>73</ele>
        <time>2022-08-15T07:56:47Z</time>
      </trkpt>
      <trkpt lat="47.14721" lon="-1.71102">
        <ele>73</ele>
        <time>2022-08-15T07:56:49Z</time>
      </trkpt>
      <trkpt lat="47.14725" lon="-1.71119">
        <ele>73</ele>
        <time>2022-08-15T07:56:51Z</time>
      </trkpt>
      <trkpt lat="47.14728" lon="-1.71136">
        <ele>73</ele>
        <time>2022-08-15T07:56:53Z</time>
      </trkpt>
      <trkpt lat="47.14731" lon="-1.71153">
        <ele>73</ele>
        <time>2022-08-15T07:56:55Z</time>
      </trkpt>
      <trkpt lat="47.14734" lon="-1.7117">
        <ele>74</ele>
        <time>2022-08-15T07:56:57Z</time>
      </trkpt>
      <trkpt lat="47.14738" lon="-1.71186">
        <ele>75</ele>
        <time>2022-08-15T07:56:59Z</time>
      </trkpt>
      <trkpt lat="47.14743" lon="-1.71202">
        <ele>75</ele>
        <time>2022-08-15T07:57:01Z</time>
      </trkpt>
      <trkpt lat="47.14747" lon="-1.71219">
        <ele>75</ele>
        <time>2022-08-15T07:57:03Z</time>
      </trkpt>
      <trkpt lat="47.14752" lon="-1.71234">
        <ele>75</ele>
        <time>2022-08-15T07:57:05Z</time>
      </trkpt>
      <trkpt lat="47.14756" lon="-1.7125">
        <ele>75</ele>
        <time>2022-08-15T07:57:07Z</time>
      </trkpt>
      <trkpt lat="47.14761" lon="-1.71267">
        <ele>76</ele>
        <time>2022-08-15T07:57:09Z</time>
      </trkpt>
      <trkpt lat="47.14764" lon="-1.71283">
        <ele>76</ele>
        <time>2022-08-15T07:57:11Z</time>
      </trkpt>
      <trkpt lat="47.14767" lon="-1.713">
        <ele>77</ele>
        <time>2022-08-15T07:57:13Z</time>
      </trkpt>
      <trkpt lat="47.1477" lon="-1.71316">
        <ele>78</ele>
        <time>2022-08-15T07:57:15Z</time>
      </trkpt>
      <trkpt lat="47.14772" lon="-1.71334">
        <ele>78</ele>
        <time>2022-08-15T07:57:17Z</time>
      </trkpt>
      <trkpt lat="47.14774" lon="-1.7135">
        <ele>78</ele>
        <time>2022-08-15T07:57:19Z</time>
      </trkpt>
      <trkpt lat="47.14777" lon="-1.71366">
        <ele>77</ele>
        <time>2022-08-15T07:57:21Z</time>
      </trkpt>
      <trkpt lat="47.14779" lon="-1.71382">
        <ele>77</ele>
        <time>2022-08-15T07:57:23Z</time>
      </trkpt>
      <trkpt lat="47.14781" lon="-1.71398">
        <ele>77</ele>
        <time>2022-08-15T07:57:25Z</time>
      </trkpt>
      <trkpt lat="47.14783" lon="-1.71413">
        <ele>77</ele>
        <time>2022-08-15T07:57:27Z</time>
      </trkpt>
      <trkpt lat="47.14785" lon="-1.71429">
        <ele>77</ele>
        <time>2022-08-15T07:57:29Z</time>
      </trkpt>
      <trkpt lat="47.14788" lon="-1.71445">
        <ele>76</ele>
        <time>2022-08-15T07:57:31Z</time>
      </trkpt>
      <trkpt lat="47.1479" lon="-1.71462">
        <ele>76</ele>
        <time>2022-08-15T07:57:33Z</time>
      </trkpt>
      <trkpt lat="47.14792" lon="-1.71479">
        <ele>76</ele>
        <time>2022-08-15T07:57:35Z</time>
      </trkpt>
      <trkpt lat="47.14795" lon="-1.71495">
        <ele>76</ele>
        <time>2022-08-15T07:57:37Z</time>
      </trkpt>
      <trkpt lat="47.14796" lon="-1.71512">
        <ele>76</ele>
        <time>2022-08-15T07:57:39Z</time>
      </trkpt>
      <trkpt lat="47.14798" lon="-1.71529">
        <ele>76</ele>
        <time>2022-08-15T07:57:41Z</time>
      </trkpt>
      <trkpt lat="47.14798" lon="-1.71545">
        <ele>76</ele>
        <time>2022-08-15T07:57:43Z</time>
      </trkpt>
      <trkpt lat="47.14797" lon="-1.71563">
        <ele>76</ele>
        <time>2022-08-15T07:57:45Z</time>
      </trkpt>
      <trkpt lat="47.14796" lon="-1.7158">
        <ele>76</ele>
        <time>2022-08-15T07:57:47Z</time>
      </trkpt>
      <trkpt lat="47.14793" lon="-1.71596">
        <ele>76</ele>
        <time>2022-08-15T07:57:49Z</time>
      </trkpt>
      <trkpt lat="47.14791" lon="-1.71612">
        <ele>76</ele>
        <time>2022-08-15T07:57:51Z</time>
      </trkpt>
      <trkpt lat="47.14788" lon="-1.71628">
        <ele>76</ele>
        <time>2022-08-15T07:57:53Z</time>
      </trkpt>
      <trkpt lat="47.14786" lon="-1.71644">
        <ele>76</ele>
        <time>2022-08-15T07:57:55Z</time>
      </trkpt>
      <trkpt lat="47.14783" lon="-1.7166">
        <ele>77</ele>
        <time>2022-08-15T07:57:57Z</time>
      </trkpt>
      <trkpt lat="47.1478" lon="-1.71675">
        <ele>77</ele>
        <time>2022-08-15T07:57:59Z</time>
      </trkpt>
      <trkpt lat="47.14777" lon="-1.71691">
        <ele>77</ele>
        <time>2022-08-15T07:58:01Z</time>
      </trkpt>
      <trkpt lat="47.14774" lon="-1.71707">
        <ele>76</ele>
        <time>2022-08-15T07:58:03Z</time>
      </trkpt>
      <trkpt lat="47.1477" lon="-1.71723">
        <ele>76</ele>
        <time>2022-08-15T07:58:05Z</time>
      </trkpt>
      <trkpt lat="47.14768" lon="-1.71739">
        <ele>76</ele>
        <time>2022-08-15T07:58:07Z</time>
      </trkpt>
      <trkpt lat="47.14765" lon="-1.71754">
        <ele>76</ele>
        <time>2022-08-15T07:58:09Z</time>
      </trkpt>
      <trkpt lat="47.14762" lon="-1.71769">
        <ele>77</ele>
        <time>2022-08-15T07:58:11Z</time>
      </trkpt>
      <trkpt lat="47.14757" lon="-1.71783">
        <ele>77</ele>
        <time>2022-08-15T07:58:13Z</time>
      </trkpt>
      <trkpt lat="47.1475" lon="-1.71795">
        <ele>77</ele>
        <time>2022-08-15T07:58:15Z</time>
      </trkpt>
      <trkpt lat="47.14743" lon="-1.71806">
        <ele>76</ele>
        <time>2022-08-15T07:58:17Z</time>
      </trkpt>
      <trkpt lat="47.14733" lon="-1.71815">
        <ele>76</ele>
        <time>2022-08-15T07:58:19Z</time>
      </trkpt>
      <trkpt lat="47.14723" lon="-1.71822">
        <ele>76</ele>
        <time>2022-08-15T07:58:21Z</time>
      </trkpt>
      <trkpt lat="47.14712" lon="-1.71828">
        <ele>76</ele>
        <time>2022-08-15T07:58:23Z</time>
      </trkpt>
      <trkpt lat="47.14702" lon="-1.71833">
        <ele>76</ele>
        <time>2022-08-15T07:58:25Z</time>
      </trkpt>
      <trkpt lat="47.1469" lon="-1.71838">
        <ele>75</ele>
        <time>2022-08-15T07:58:27Z</time>
      </trkpt>
      <trkpt lat="47.14679" lon="-1.71844">
        <ele>75</ele>
        <time>2022-08-15T07:58:29Z</time>
      </trkpt>
      <trkpt lat="47.14667" lon="-1.71849">
        <ele>75</ele>
        <time>2022-08-15T07:58:31Z</time>
      </trkpt>
      <trkpt lat="47.14655" lon="-1.71853">
        <ele>75</ele>
        <time>2022-08-15T07:58:33Z</time>
      </trkpt>
      <trkpt lat="47.14643" lon="-1.71855">
        <ele>74</ele>
        <time>2022-08-15T07:58:35Z</time>
      </trkpt>
      <trkpt lat="47.14631" lon="-1.71856">
        <ele>74</ele>
        <time>2022-08-15T07:58:37Z</time>
      </trkpt>
      <trkpt lat="47.14619" lon="-1.71855">
        <ele>74</ele>
        <time>2022-08-15T07:58:39Z</time>
      </trkpt>
      <trkpt lat="47.14606" lon="-1.71853">
        <ele>74</ele>
        <time>2022-08-15T07:58:41Z</time>
      </trkpt>
      <trkpt lat="47.14594" lon="-1.71849">
        <ele>74</ele>
        <time>2022-08-15T07:58:43Z</time>
      </trkpt>
      <trkpt lat="47.14581" lon="-1.71844">
        <ele>74</ele>
        <time>2022-08-15T07:58:45Z</time>
      </trkpt>
      <trkpt lat="47.14569" lon="-1.71838">
        <ele>74</ele>
        <time>2022-08-15T07:58:47Z</time>
      </trkpt>
      <trkpt lat="47.14557" lon="-1.71832">
        <ele>74</ele>
        <time>2022-08-15T07:58:49Z</time>
      </trkpt>
      <trkpt lat="47.14545" lon="-1.71826">
        <ele>74</ele>
        <time>2022-08-15T07:58:51Z</time>
      </trkpt>
      <trkpt lat="47.14533" lon="-1.71821">
        <ele>74</ele>
        <time>2022-08-15T07:58:53Z</time>
      </trkpt>
      <trkpt lat="47.14521" lon="-1.71815">
        <ele>74</ele>
        <time>2022-08-15T07:58:55Z</time>
      </trkpt>
      <trkpt lat="47.14508" lon="-1.7181">
        <ele>73</ele>
        <time>2022-08-15T07:58:57Z</time>
      </trkpt>
      <trkpt lat="47.14496" lon="-1.71803">
        <ele>73</ele>
        <time>2022-08-15T07:58:59Z</time>
      </trkpt>
      <trkpt lat="47.14484" lon="-1.71798">
        <ele>73</ele>
        <time>2022-08-15T07:59:01Z</time>
      </trkpt>
      <trkpt lat="47.14472" lon="-1.71793">
        <ele>73</ele>
        <time>2022-08-15T07:59:03Z</time>
      </trkpt>
      <trkpt lat="47.14459" lon="-1.71787">
        <ele>73</ele>
        <time>2022-08-15T07:59:05Z</time>
      </trkpt>
      <trkpt lat="47.14447" lon="-1.71783">
        <ele>73</ele>
        <time>2022-08-15T07:59:07Z</time>
      </trkpt>
      <trkpt lat="47.14434" lon="-1.71781">
        <ele>72</ele>
        <time>2022-08-15T07:59:09Z</time>
      </trkpt>
      <trkpt lat="47.14421" lon="-1.7178">
        <ele>72</ele>
        <time>2022-08-15T07:59:11Z</time>
      </trkpt>
      <trkpt lat="47.14409" lon="-1.71781">
        <ele>72</ele>
        <time>2022-08-15T07:59:13Z</time>
      </trkpt>
      <trkpt lat="47.14397" lon="-1.71782">
        <ele>71</ele>
        <time>2022-08-15T07:59:15Z</time>
      </trkpt>
      <trkpt lat="47.14384" lon="-1.71785">
        <ele>71</ele>
        <time>2022-08-15T07:59:17Z</time>
      </trkpt>
      <trkpt lat="47.14372" lon="-1.71789">
        <ele>70</ele>
        <time>2022-08-15T07:59:19Z</time>
      </trkpt>
      <trkpt lat="47.14359" lon="-1.71794">
        <ele>71</ele>
        <time>2022-08-15T07:59:21Z</time>
      </trkpt>
      <trkpt lat="47.14348" lon="-1.71798">
        <ele>70</ele>
        <time>2022-08-15T07:59:23Z</time>
      </trkpt>
      <trkpt lat="47.14335" lon="-1.71802">
        <ele>70</ele>
        <time>2022-08-15T07:59:25Z</time>
      </trkpt>
      <trkpt lat="47.14324" lon="-1.71806">
        <ele>70</ele>
        <time>2022-08-15T07:59:27Z</time>
      </trkpt>
      <trkpt lat="47.14311" lon="-1.7181">
        <ele>70</ele>
        <time>2022-08-15T07:59:29Z</time>
      </trkpt>
      <trkpt lat="47.14299" lon="-1.71814">
        <ele>69</ele>
        <time>2022-08-15T07:59:31Z</time>
      </trkpt>
      <trkpt lat="47.14286" lon="-1.71818">
        <ele>69</ele>
        <time>2022-08-15T07:59:33Z</time>
      </trkpt>
      <trkpt lat="47.14274" lon="-1.71822">
        <ele>69</ele>
        <time>2022-08-15T07:59:35Z</time>
      </trkpt>
      <trkpt lat="47.14262" lon="-1.71825">
        <ele>68</ele>
        <time>2022-08-15T07:59:37Z</time>
      </trkpt>
      <trkpt lat="47.14249" lon="-1.7183">
        <ele>68</ele>
        <time>2022-08-15T07:59:39Z</time>
      </trkpt>
      <trkpt lat="47.14238" lon="-1.71834">
        <ele>67</ele>
        <time>2022-08-15T07:59:41Z</time>
      </trkpt>
      <trkpt lat="47.14225" lon="-1.71838">
        <ele>67</ele>
        <time>2022-08-15T07:59:43Z</time>
      </trkpt>
      <trkpt lat="47.14213" lon="-1.71842">
        <ele>67</ele>
        <time>2022-08-15T07:59:45Z</time>
      </trkpt>
      <trkpt lat="47.14201" lon="-1.71845">
        <ele>67</ele>
        <time>2022-08-15T07:59:47Z</time>
      </trkpt>
      <trkpt lat="47.14189" lon="-1.7185">
        <ele>66</ele>
        <time>2022-08-15T07:59:49Z</time>
      </trkpt>
      <trkpt lat="47.14176" lon="-1.71854">
        <ele>66</ele>
        <time>2022-08-15T07:59:51Z</time>
      </trkpt>
      <trkpt lat="47.14164" lon="-1.71859">
        <ele>65</ele>
        <time>2022-08-15T07:59:53Z</time>
      </trkpt>
      <trkpt lat="47.1415" lon="-1.71863">
        <ele>65</ele>
        <time>2022-08-15T07:59:55Z</time>
      </trkpt>
      <trkpt lat="47.14137" lon="-1.71867">
        <ele>65</ele>
        <time>2022-08-15T07:59:57Z</time>
      </trkpt>
      <trkpt lat="47.14123" lon="-1.71872">
        <ele>64</ele>
        <time>2022-08-15T07:59:59Z</time>
      </trkpt>
      <trkpt lat="47.14109" lon="-1.71876">
        <ele>63</ele>
        <time>2022-08-15T08:00:01Z</time>
      </trkpt>
      <trkpt lat="47.14093" lon="-1.71881">
        <ele>62</ele>
        <time>2022-08-15T08:00:03Z</time>
      </trkpt>
      <trkpt lat="47.14078" lon="-1.71886">
        <ele>61</ele>
        <time>2022-08-15T08:00:05Z</time>
      </trkpt>
      <trkpt lat="47.14062" lon="-1.71891">
        <ele>61</ele>
        <time>2022-08-15T08:00:07Z</time>
      </trkpt>
      <trkpt lat="47.14047" lon="-1.71896">
        <ele>60</ele>
        <time>2022-08-15T08:00:09Z</time>
      </trkpt>
      <trkpt lat="47.14032" lon="-1.71901">
        <ele>59</ele>
        <time>2022-08-15T08:00:11Z</time>
      </trkpt>
      <trkpt lat="47.14017" lon="-1.71904">
        <ele>58</ele>
        <time>2022-08-15T08:00:13Z</time>
      </trkpt>
      <trkpt lat="47.14" lon="-1.719">
        <ele>57</ele>
        <time>2022-08-15T08:00:15Z</time>
      </trkpt>
      <trkpt lat="47.13982" lon="-1.71897">
        <ele>57</ele>
        <time>2022-08-15T08:00:17Z</time>
      </trkpt>
      <trkpt lat="47.13969" lon="-1.71908">
        <ele>56</ele>
        <time>2022-08-15T08:00:19Z</time>
      </trkpt>
      <trkpt lat="47.13966" lon="-1.71929">
        <ele>55</ele>
        <time>2022-08-15T08:00:21Z</time>
      </trkpt>
      <trkpt lat="47.13967" lon="-1.7195">
        <ele>55</ele>
        <time>2022-08-15T08:00:23Z</time>
      </trkpt>
      <trkpt lat="47.13961" lon="-1.71966">
        <ele>56</ele>
        <time>2022-08-15T08:00:25Z</time>
      </trkpt>
      <trkpt lat="47.1395" lon="-1.71975">
        <ele>56</ele>
        <time>2022-08-15T08:00:27Z</time>
      </trkpt>
      <trkpt lat="47.13939" lon="-1.71981">
        <ele>57</ele>
        <time>2022-08-15T08:00:29Z</time>
      </trkpt>
      <trkpt lat="47.13928" lon="-1.71986">
        <ele>57</ele>
        <time>2022-08-15T08:00:31Z</time>
      </trkpt>
      <trkpt lat="47.13917" lon="-1.71991">
        <ele>56</ele>
        <time>2022-08-15T08:00:33Z</time>
      </trkpt>
      <trkpt lat="47.13906" lon="-1.71996">
        <ele>56</ele>
        <time>2022-08-15T08:00:35Z</time>
      </trkpt>
      <trkpt lat="47.13894" lon="-1.72001">
        <ele>57</ele>
        <time>2022-08-15T08:00:37Z</time>
      </trkpt>
      <trkpt lat="47.13884" lon="-1.72009">
        <ele>57</ele>
        <time>2022-08-15T08:00:39Z</time>
      </trkpt>
      <trkpt lat="47.13875" lon="-1.72018">
        <ele>57</ele>
        <time>2022-08-15T08:00:41Z</time>
      </trkpt>
      <trkpt lat="47.13866" lon="-1.7203">
        <ele>58</ele>
        <time>2022-08-15T08:00:43Z</time>
      </trkpt>
      <trkpt lat="47.13858" lon="-1.72043">
        <ele>58</ele>
        <time>2022-08-15T08:00:45Z</time>
      </trkpt>
      <trkpt lat="47.1385" lon="-1.72056">
        <ele>58</ele>
        <time>2022-08-15T08:00:47Z</time>
      </trkpt>
      <trkpt lat="47.13843" lon="-1.72068">
        <ele>58</ele>
        <time>2022-08-15T08:00:49Z</time>
      </trkpt>
      <trkpt lat="47.13835" lon="-1.7208">
        <ele>58</ele>
        <time>2022-08-15T08:00:51Z</time>
      </trkpt>
      <trkpt lat="47.13828" lon="-1.72092">
        <ele>59</ele>
        <time>2022-08-15T08:00:53Z</time>
      </trkpt>
      <trkpt lat="47.13821" lon="-1.72105">
        <ele>59</ele>
        <time>2022-08-15T08:00:55Z</time>
      </trkpt>
      <trkpt lat="47.13814" lon="-1.72117">
        <ele>59</ele>
        <time>2022-08-15T08:00:57Z</time>
      </trkpt>
      <trkpt lat="47.13806" lon="-1.72128">
        <ele>60</ele>
        <time>2022-08-15T08:00:59Z</time>
      </trkpt>
      <trkpt lat="47.13799" lon="-1.7214">
        <ele>60</ele>
        <time>2022-08-15T08:01:01Z</time>
      </trkpt>
      <trkpt lat="47.13792" lon="-1.72152">
        <ele>60</ele>
        <time>2022-08-15T08:01:03Z</time>
      </trkpt>
      <trkpt lat="47.13785" lon="-1.72164">
        <ele>60</ele>
        <time>2022-08-15T08:01:05Z</time>
      </trkpt>
      <trkpt lat="47.13778" lon="-1.72176">
        <ele>60</ele>
        <time>2022-08-15T08:01:07Z</time>
      </trkpt>
      <trkpt lat="47.13771" lon="-1.72188">
        <ele>60</ele>
        <time>2022-08-15T08:01:09Z</time>
      </trkpt>
      <trkpt lat="47.13765" lon="-1.722">
        <ele>60</ele>
        <time>2022-08-15T08:01:11Z</time>
      </trkpt>
      <trkpt lat="47.13758" lon="-1.72213">
        <ele>61</ele>
        <time>2022-08-15T08:01:13Z</time>
      </trkpt>
      <trkpt lat="47.13751" lon="-1.72224">
        <ele>61</ele>
        <time>2022-08-15T08:01:15Z</time>
      </trkpt>
      <trkpt lat="47.13745" lon="-1.72237">
        <ele>62</ele>
        <time>2022-08-15T08:01:17Z</time>
      </trkpt>
      <trkpt lat="47.13741" lon="-1.72251">
        <ele>62</ele>
        <time>2022-08-15T08:01:19Z</time>
      </trkpt>
      <trkpt lat="47.13739" lon="-1.72267">
        <ele>63</ele>
        <time>2022-08-15T08:01:21Z</time>
      </trkpt>
      <trkpt lat="47.13736" lon="-1.72283">
        <ele>64</ele>
        <time>2022-08-15T08:01:23Z</time>
      </trkpt>
      <trkpt lat="47.13735" lon="-1.72299">
        <ele>64</ele>
        <time>2022-08-15T08:01:25Z</time>
      </trkpt>
      <trkpt lat="47.13734" lon="-1.72314">
        <ele>64</ele>
        <time>2022-08-15T08:01:27Z</time>
      </trkpt>
      <trkpt lat="47.13731" lon="-1.72329">
        <ele>64</ele>
        <time>2022-08-15T08:01:29Z</time>
      </trkpt>
      <trkpt lat="47.13729" lon="-1.72344">
        <ele>65</ele>
        <time>2022-08-15T08:01:31Z</time>
      </trkpt>
      <trkpt lat="47.13726" lon="-1.72359">
        <ele>65</ele>
        <time>2022-08-15T08:01:33Z</time>
      </trkpt>
      <trkpt lat="47.13723" lon="-1.72374">
        <ele>65</ele>
        <time>2022-08-15T08:01:35Z</time>
      </trkpt>
      <trkpt lat="47.13719" lon="-1.72389">
        <ele>65</ele>
        <time>2022-08-15T08:01:37Z</time>
      </trkpt>
      <trkpt lat="47.13716" lon="-1.72403">
        <ele>66</ele>
        <time>2022-08-15T08:01:39Z</time>
      </trkpt>
      <trkpt lat="47.13712" lon="-1.72418">
        <ele>66</ele>
        <time>2022-08-15T08:01:41Z</time>
      </trkpt>
      <trkpt lat="47.13708" lon="-1.72433">
        <ele>67</ele>
        <time>2022-08-15T08:01:43Z</time>
      </trkpt>
      <trkpt lat="47.13704" lon="-1.72447">
        <ele>67</ele>
        <time>2022-08-15T08:01:45Z</time>
      </trkpt>
      <trkpt lat="47.137" lon="-1.72462">
        <ele>67</ele>
        <time>2022-08-15T08:01:47Z</time>
      </trkpt>
      <trkpt lat="47.13696" lon="-1.72478">
        <ele>67</ele>
        <time>2022-08-15T08:01:49Z</time>
      </trkpt>
      <trkpt lat="47.13692" lon="-1.72494">
        <ele>68</ele>
        <time>2022-08-15T08:01:51Z</time>
      </trkpt>
      <trkpt lat="47.13688" lon="-1.7251">
        <ele>68</ele>
        <time>2022-08-15T08:01:53Z</time>
      </trkpt>
      <trkpt lat="47.13685" lon="-1.72527">
        <ele>68</ele>
        <time>2022-08-15T08:01:55Z</time>
      </trkpt>
      <trkpt lat="47.13683" lon="-1.72544">
        <ele>68</ele>
        <time>2022-08-15T08:01:57Z</time>
      </trkpt>
      <trkpt lat="47.13682" lon="-1.72561">
        <ele>68</ele>
        <time>2022-08-15T08:01:59Z</time>
      </trkpt>
      <trkpt lat="47.13681" lon="-1.72578">
        <ele>68</ele>
        <time>2022-08-15T08:02:01Z</time>
      </trkpt>
      <trkpt lat="47.1368" lon="-1.72595">
        <ele>68</ele>
        <time>2022-08-15T08:02:03Z</time>
      </trkpt>
      <trkpt lat="47.1368" lon="-1.72611">
        <ele>68</ele>
        <time>2022-08-15T08:02:05Z</time>
      </trkpt>
      <trkpt lat="47.13678" lon="-1.72628">
        <ele>68</ele>
        <time>2022-08-15T08:02:07Z</time>
      </trkpt>
      <trkpt lat="47.13675" lon="-1.72645">
        <ele>68</ele>
        <time>2022-08-15T08:02:09Z</time>
      </trkpt>
      <trkpt lat="47.13673" lon="-1.72662">
        <ele>68</ele>
        <time>2022-08-15T08:02:11Z</time>
      </trkpt>
      <trkpt lat="47.1367" lon="-1.72678">
        <ele>69</ele>
        <time>2022-08-15T08:02:13Z</time>
      </trkpt>
      <trkpt lat="47.13668" lon="-1.72693">
        <ele>69</ele>
        <time>2022-08-15T08:02:15Z</time>
      </trkpt>
      <trkpt lat="47.13666" lon="-1.72708">
        <ele>69</ele>
        <time>2022-08-15T08:02:17Z</time>
      </trkpt>
      <trkpt lat="47.13665" lon="-1.72724">
        <ele>69</ele>
        <time>2022-08-15T08:02:19Z</time>
      </trkpt>
      <trkpt lat="47.13664" lon="-1.7274">
        <ele>70</ele>
        <time>2022-08-15T08:02:21Z</time>
      </trkpt>
      <trkpt lat="47.13662" lon="-1.72755">
        <ele>70</ele>
        <time>2022-08-15T08:02:23Z</time>
      </trkpt>
      <trkpt lat="47.13661" lon="-1.72772">
        <ele>70</ele>
        <time>2022-08-15T08:02:25Z</time>
      </trkpt>
      <trkpt lat="47.1366" lon="-1.72789">
        <ele>70</ele>
        <time>2022-08-15T08:02:27Z</time>
      </trkpt>
      <trkpt lat="47.13659" lon="-1.72805">
        <ele>69</ele>
        <time>2022-08-15T08:02:29Z</time>
      </trkpt>
      <trkpt lat="47.13658" lon="-1.72821">
        <ele>69</ele>
        <time>2022-08-15T08:02:31Z</time>
      </trkpt>
      <trkpt lat="47.13656" lon="-1.72838">
        <ele>68</ele>
        <time>2022-08-15T08:02:33Z</time>
      </trkpt>
      <trkpt lat="47.13655" lon="-1.72855">
        <ele>67</ele>
        <time>2022-08-15T08:02:35Z</time>
      </trkpt>
      <trkpt lat="47.13653" lon="-1.72871">
        <ele>67</ele>
        <time>2022-08-15T08:02:37Z</time>
      </trkpt>
      <trkpt lat="47.13651" lon="-1.7289">
        <ele>66</ele>
        <time>2022-08-15T08:02:39Z</time>
      </trkpt>
      <trkpt lat="47.13649" lon="-1.72909">
        <ele>66</ele>
        <time>2022-08-15T08:02:41Z</time>
      </trkpt>
      <trkpt lat="47.13647" lon="-1.7293">
        <ele>65</ele>
        <time>2022-08-15T08:02:43Z</time>
      </trkpt>
      <trkpt lat="47.13646" lon="-1.7295">
        <ele>64</ele>
        <time>2022-08-15T08:02:45Z</time>
      </trkpt>
      <trkpt lat="47.13644" lon="-1.72972">
        <ele>63</ele>
        <time>2022-08-15T08:02:47Z</time>
      </trkpt>
      <trkpt lat="47.13642" lon="-1.73005">
        <ele>62</ele>
        <time>2022-08-15T08:02:50Z</time>
      </trkpt>
      <trkpt lat="47.13638" lon="-1.73026">
        <ele>61</ele>
        <time>2022-08-15T08:02:52Z</time>
      </trkpt>
      <trkpt lat="47.13623" lon="-1.7305">
        <ele>60</ele>
        <time>2022-08-15T08:02:55Z</time>
      </trkpt>
      <trkpt lat="47.13605" lon="-1.73065">
        <ele>59</ele>
        <time>2022-08-15T08:02:58Z</time>
      </trkpt>
      <trkpt lat="47.13586" lon="-1.7308">
        <ele>59</ele>
        <time>2022-08-15T08:03:01Z</time>
      </trkpt>
      <trkpt lat="47.1357" lon="-1.73096">
        <ele>58</ele>
        <time>2022-08-15T08:03:04Z</time>
      </trkpt>
      <trkpt lat="47.13559" lon="-1.73107">
        <ele>58</ele>
        <time>2022-08-15T08:03:06Z</time>
      </trkpt>
      <trkpt lat="47.13549" lon="-1.73118">
        <ele>58</ele>
        <time>2022-08-15T08:03:08Z</time>
      </trkpt>
      <trkpt lat="47.13538" lon="-1.7313">
        <ele>57</ele>
        <time>2022-08-15T08:03:10Z</time>
      </trkpt>
      <trkpt lat="47.13528" lon="-1.73142">
        <ele>57</ele>
        <time>2022-08-15T08:03:12Z</time>
      </trkpt>
      <trkpt lat="47.13519" lon="-1.73157">
        <ele>56</ele>
        <time>2022-08-15T08:03:14Z</time>
      </trkpt>
      <trkpt lat="47.13515" lon="-1.73175">
        <ele>56</ele>
        <time>2022-08-15T08:03:16Z</time>
      </trkpt>
      <trkpt lat="47.13514" lon="-1.73194">
        <ele>56</ele>
        <time>2022-08-15T08:03:18Z</time>
      </trkpt>
      <trkpt lat="47.13511" lon="-1.73214">
        <ele>56</ele>
        <time>2022-08-15T08:03:20Z</time>
      </trkpt>
      <trkpt lat="47.13509" lon="-1.73234">
        <ele>55</ele>
        <time>2022-08-15T08:03:22Z</time>
      </trkpt>
      <trkpt lat="47.13507" lon="-1.73255">
        <ele>55</ele>
        <time>2022-08-15T08:03:24Z</time>
      </trkpt>
      <trkpt lat="47.13505" lon="-1.73275">
        <ele>55</ele>
        <time>2022-08-15T08:03:26Z</time>
      </trkpt>
      <trkpt lat="47.13505" lon="-1.73293">
        <ele>55</ele>
        <time>2022-08-15T08:03:28Z</time>
      </trkpt>
      <trkpt lat="47.13508" lon="-1.73311">
        <ele>55</ele>
        <time>2022-08-15T08:03:30Z</time>
      </trkpt>
      <trkpt lat="47.13513" lon="-1.73328">
        <ele>55</ele>
        <time>2022-08-15T08:03:32Z</time>
      </trkpt>
      <trkpt lat="47.13518" lon="-1.73344">
        <ele>56</ele>
        <time>2022-08-15T08:03:34Z</time>
      </trkpt>
      <trkpt lat="47.13523" lon="-1.73359">
        <ele>56</ele>
        <time>2022-08-15T08:03:36Z</time>
      </trkpt>
      <trkpt lat="47.13527" lon="-1.73373">
        <ele>57</ele>
        <time>2022-08-15T08:03:38Z</time>
      </trkpt>
      <trkpt lat="47.13533" lon="-1.73387">
        <ele>57</ele>
        <time>2022-08-15T08:03:40Z</time>
      </trkpt>
      <trkpt lat="47.13538" lon="-1.73402">
        <ele>57</ele>
        <time>2022-08-15T08:03:42Z</time>
      </trkpt>
      <trkpt lat="47.13543" lon="-1.73417">
        <ele>58</ele>
        <time>2022-08-15T08:03:44Z</time>
      </trkpt>
      <trkpt lat="47.13547" lon="-1.73433">
        <ele>58</ele>
        <time>2022-08-15T08:03:46Z</time>
      </trkpt>
      <trkpt lat="47.13552" lon="-1.73447">
        <ele>59</ele>
        <time>2022-08-15T08:03:48Z</time>
      </trkpt>
      <trkpt lat="47.13557" lon="-1.73462">
        <ele>59</ele>
        <time>2022-08-15T08:03:50Z</time>
      </trkpt>
      <trkpt lat="47.13562" lon="-1.73477">
        <ele>59</ele>
        <time>2022-08-15T08:03:52Z</time>
      </trkpt>
      <trkpt lat="47.13567" lon="-1.73492">
        <ele>59</ele>
        <time>2022-08-15T08:03:54Z</time>
      </trkpt>
      <trkpt lat="47.13571" lon="-1.73507">
        <ele>59</ele>
        <time>2022-08-15T08:03:56Z</time>
      </trkpt>
      <trkpt lat="47.13575" lon="-1.73522">
        <ele>59</ele>
        <time>2022-08-15T08:03:58Z</time>
      </trkpt>
      <trkpt lat="47.13578" lon="-1.73539">
        <ele>59</ele>
        <time>2022-08-15T08:04:00Z</time>
      </trkpt>
      <trkpt lat="47.13583" lon="-1.73554">
        <ele>59</ele>
        <time>2022-08-15T08:04:02Z</time>
      </trkpt>
      <trkpt lat="47.13588" lon="-1.73569">
        <ele>59</ele>
        <time>2022-08-15T08:04:04Z</time>
      </trkpt>
      <trkpt lat="47.13593" lon="-1.73584">
        <ele>59</ele>
        <time>2022-08-15T08:04:06Z</time>
      </trkpt>
      <trkpt lat="47.13599" lon="-1.736">
        <ele>60</ele>
        <time>2022-08-15T08:04:08Z</time>
      </trkpt>
      <trkpt lat="47.13605" lon="-1.73615">
        <ele>59</ele>
        <time>2022-08-15T08:04:10Z</time>
      </trkpt>
      <trkpt lat="47.1361" lon="-1.7363">
        <ele>60</ele>
        <time>2022-08-15T08:04:12Z</time>
      </trkpt>
      <trkpt lat="47.13616" lon="-1.73646">
        <ele>60</ele>
        <time>2022-08-15T08:04:14Z</time>
      </trkpt>
      <trkpt lat="47.13621" lon="-1.73661">
        <ele>60</ele>
        <time>2022-08-15T08:04:16Z</time>
      </trkpt>
      <trkpt lat="47.13625" lon="-1.73676">
        <ele>59</ele>
        <time>2022-08-15T08:04:18Z</time>
      </trkpt>
      <trkpt lat="47.13631" lon="-1.73691">
        <ele>59</ele>
        <time>2022-08-15T08:04:20Z</time>
      </trkpt>
      <trkpt lat="47.13634" lon="-1.73708">
        <ele>59</ele>
        <time>2022-08-15T08:04:22Z</time>
      </trkpt>
      <trkpt lat="47.13637" lon="-1.73724">
        <ele>58</ele>
        <time>2022-08-15T08:04:24Z</time>
      </trkpt>
      <trkpt lat="47.1364" lon="-1.73741">
        <ele>58</ele>
        <time>2022-08-15T08:04:26Z</time>
      </trkpt>
      <trkpt lat="47.13643" lon="-1.7376">
        <ele>58</ele>
        <time>2022-08-15T08:04:28Z</time>
      </trkpt>
      <trkpt lat="47.13644" lon="-1.7378">
        <ele>57</ele>
        <time>2022-08-15T08:04:30Z</time>
      </trkpt>
      <trkpt lat="47.13645" lon="-1.73801">
        <ele>57</ele>
        <time>2022-08-15T08:04:32Z</time>
      </trkpt>
      <trkpt lat="47.13646" lon="-1.73822">
        <ele>57</ele>
        <time>2022-08-15T08:04:34Z</time>
      </trkpt>
      <trkpt lat="47.13647" lon="-1.73841">
        <ele>57</ele>
        <time>2022-08-15T08:04:36Z</time>
      </trkpt>
      <trkpt lat="47.13648" lon="-1.7386">
        <ele>57</ele>
        <time>2022-08-15T08:04:38Z</time>
      </trkpt>
      <trkpt lat="47.13648" lon="-1.73878">
        <ele>57</ele>
        <time>2022-08-15T08:04:40Z</time>
      </trkpt>
      <trkpt lat="47.13649" lon="-1.73897">
        <ele>57</ele>
        <time>2022-08-15T08:04:42Z</time>
      </trkpt>
      <trkpt lat="47.13649" lon="-1.73913">
        <ele>57</ele>
        <time>2022-08-15T08:04:44Z</time>
      </trkpt>
      <trkpt lat="47.1365" lon="-1.73928">
        <ele>57</ele>
        <time>2022-08-15T08:04:46Z</time>
      </trkpt>
      <trkpt lat="47.13651" lon="-1.73943">
        <ele>57</ele>
        <time>2022-08-15T08:04:48Z</time>
      </trkpt>
      <trkpt lat="47.13651" lon="-1.73957">
        <ele>57</ele>
        <time>2022-08-15T08:04:50Z</time>
      </trkpt>
      <trkpt lat="47.13652" lon="-1.73972">
        <ele>57</ele>
        <time>2022-08-15T08:04:52Z</time>
      </trkpt>
      <trkpt lat="47.13651" lon="-1.73986">
        <ele>58</ele>
        <time>2022-08-15T08:04:54Z</time>
      </trkpt>
      <trkpt lat="47.1365" lon="-1.74001">
        <ele>58</ele>
        <time>2022-08-15T08:04:56Z</time>
      </trkpt>
      <trkpt lat="47.13648" lon="-1.74015">
        <ele>58</ele>
        <time>2022-08-15T08:04:58Z</time>
      </trkpt>
      <trkpt lat="47.13647" lon="-1.7403">
        <ele>59</ele>
        <time>2022-08-15T08:05:00Z</time>
      </trkpt>
      <trkpt lat="47.13645" lon="-1.74044">
        <ele>59</ele>
        <time>2022-08-15T08:05:02Z</time>
      </trkpt>
      <trkpt lat="47.13644" lon="-1.74058">
        <ele>59</ele>
        <time>2022-08-15T08:05:04Z</time>
      </trkpt>
      <trkpt lat="47.13643" lon="-1.74073">
        <ele>59</ele>
        <time>2022-08-15T08:05:06Z</time>
      </trkpt>
      <trkpt lat="47.13643" lon="-1.74088">
        <ele>60</ele>
        <time>2022-08-15T08:05:08Z</time>
      </trkpt>
      <trkpt lat="47.13643" lon="-1.74103">
        <ele>59</ele>
        <time>2022-08-15T08:05:10Z</time>
      </trkpt>
      <trkpt lat="47.13645" lon="-1.74118">
        <ele>59</ele>
        <time>2022-08-15T08:05:12Z</time>
      </trkpt>
      <trkpt lat="47.13646" lon="-1.74132">
        <ele>59</ele>
        <time>2022-08-15T08:05:14Z</time>
      </trkpt>
      <trkpt lat="47.13649" lon="-1.74147">
        <ele>59</ele>
        <time>2022-08-15T08:05:16Z</time>
      </trkpt>
      <trkpt lat="47.13652" lon="-1.74162">
        <ele>60</ele>
        <time>2022-08-15T08:05:18Z</time>
      </trkpt>
      <trkpt lat="47.13656" lon="-1.74177">
        <ele>60</ele>
        <time>2022-08-15T08:05:20Z</time>
      </trkpt>
      <trkpt lat="47.13659" lon="-1.74192">
        <ele>60</ele>
        <time>2022-08-15T08:05:22Z</time>
      </trkpt>
      <trkpt lat="47.13663" lon="-1.74207">
        <ele>60</ele>
        <time>2022-08-15T08:05:24Z</time>
      </trkpt>
      <trkpt lat="47.13667" lon="-1.74222">
        <ele>60</ele>
        <time>2022-08-15T08:05:26Z</time>
      </trkpt>
      <trkpt lat="47.1367" lon="-1.74238">
        <ele>59</ele>
        <time>2022-08-15T08:05:28Z</time>
      </trkpt>
      <trkpt lat="47.13674" lon="-1.74254">
        <ele>59</ele>
        <time>2022-08-15T08:05:30Z</time>
      </trkpt>
      <trkpt lat="47.13678" lon="-1.74269">
        <ele>59</ele>
        <time>2022-08-15T08:05:32Z</time>
      </trkpt>
      <trkpt lat="47.13684" lon="-1.74284">
        <ele>59</ele>
        <time>2022-08-15T08:05:34Z</time>
      </trkpt>
      <trkpt lat="47.1369" lon="-1.743">
        <ele>59</ele>
        <time>2022-08-15T08:05:36Z</time>
      </trkpt>
      <trkpt lat="47.13695" lon="-1.74317">
        <ele>58</ele>
        <time>2022-08-15T08:05:38Z</time>
      </trkpt>
      <trkpt lat="47.13697" lon="-1.74335">
        <ele>58</ele>
        <time>2022-08-15T08:05:40Z</time>
      </trkpt>
      <trkpt lat="47.13698" lon="-1.74355">
        <ele>57</ele>
        <time>2022-08-15T08:05:42Z</time>
      </trkpt>
      <trkpt lat="47.13698" lon="-1.74376">
        <ele>56</ele>
        <time>2022-08-15T08:05:44Z</time>
      </trkpt>
      <trkpt lat="47.13698" lon="-1.74398">
        <ele>56</ele>
        <time>2022-08-15T08:05:46Z</time>
      </trkpt>
      <trkpt lat="47.13698" lon="-1.7442">
        <ele>55</ele>
        <time>2022-08-15T08:05:48Z</time>
      </trkpt>
      <trkpt lat="47.13698" lon="-1.74443">
        <ele>54</ele>
        <time>2022-08-15T08:05:50Z</time>
      </trkpt>
      <trkpt lat="47.1369" lon="-1.74464">
        <ele>53</ele>
        <time>2022-08-15T08:05:52Z</time>
      </trkpt>
      <trkpt lat="47.13678" lon="-1.74479">
        <ele>52</ele>
        <time>2022-08-15T08:05:54Z</time>
      </trkpt>
      <trkpt lat="47.13666" lon="-1.74491">
        <ele>52</ele>
        <time>2022-08-15T08:05:56Z</time>
      </trkpt>
      <trkpt lat="47.13655" lon="-1.74504">
        <ele>52</ele>
        <time>2022-08-15T08:05:58Z</time>
      </trkpt>
      <trkpt lat="47.13645" lon="-1.74514">
        <ele>53</ele>
        <time>2022-08-15T08:06:00Z</time>
      </trkpt>
      <trkpt lat="47.13634" lon="-1.74524">
        <ele>53</ele>
        <time>2022-08-15T08:06:02Z</time>
      </trkpt>
      <trkpt lat="47.13624" lon="-1.74533">
        <ele>54</ele>
        <time>2022-08-15T08:06:04Z</time>
      </trkpt>
      <trkpt lat="47.13614" lon="-1.74543">
        <ele>53</ele>
        <time>2022-08-15T08:06:06Z</time>
      </trkpt>
      <trkpt lat="47.13602" lon="-1.74555">
        <ele>51</ele>
        <time>2022-08-15T08:06:08Z</time>
      </trkpt>
      <trkpt lat="47.1359" lon="-1.74568">
        <ele>50</ele>
        <time>2022-08-15T08:06:10Z</time>
      </trkpt>
      <trkpt lat="47.13578" lon="-1.74581">
        <ele>49</ele>
        <time>2022-08-15T08:06:12Z</time>
      </trkpt>
      <trkpt lat="47.13565" lon="-1.74593">
        <ele>49</ele>
        <time>2022-08-15T08:06:14Z</time>
      </trkpt>
      <trkpt lat="47.13553" lon="-1.74606">
        <ele>49</ele>
        <time>2022-08-15T08:06:16Z</time>
      </trkpt>
      <trkpt lat="47.13541" lon="-1.74617">
        <ele>49</ele>
        <time>2022-08-15T08:06:18Z</time>
      </trkpt>
      <trkpt lat="47.1353" lon="-1.74627">
        <ele>49</ele>
        <time>2022-08-15T08:06:20Z</time>
      </trkpt>
      <trkpt lat="47.1352" lon="-1.74637">
        <ele>50</ele>
        <time>2022-08-15T08:06:22Z</time>
      </trkpt>
      <trkpt lat="47.1351" lon="-1.74646">
        <ele>51</ele>
        <time>2022-08-15T08:06:24Z</time>
      </trkpt>
      <trkpt lat="47.13502" lon="-1.74658">
        <ele>51</ele>
        <time>2022-08-15T08:06:26Z</time>
      </trkpt>
      <trkpt lat="47.13497" lon="-1.74672">
        <ele>52</ele>
        <time>2022-08-15T08:06:28Z</time>
      </trkpt>
      <trkpt lat="47.13492" lon="-1.74687">
        <ele>52</ele>
        <time>2022-08-15T08:06:30Z</time>
      </trkpt>
      <trkpt lat="47.13487" lon="-1.747">
        <ele>52</ele>
        <time>2022-08-15T08:06:32Z</time>
      </trkpt>
      <trkpt lat="47.13482" lon="-1.74713">
        <ele>53</ele>
        <time>2022-08-15T08:06:34Z</time>
      </trkpt>
      <trkpt lat="47.13475" lon="-1.74725">
        <ele>54</ele>
        <time>2022-08-15T08:06:36Z</time>
      </trkpt>
      <trkpt lat="47.13467" lon="-1.74736">
        <ele>54</ele>
        <time>2022-08-15T08:06:38Z</time>
      </trkpt>
      <trkpt lat="47.13459" lon="-1.74745">
        <ele>55</ele>
        <time>2022-08-15T08:06:40Z</time>
      </trkpt>
      <trkpt lat="47.13448" lon="-1.74753">
        <ele>55</ele>
        <time>2022-08-15T08:06:42Z</time>
      </trkpt>
      <trkpt lat="47.13438" lon="-1.74759">
        <ele>54</ele>
        <time>2022-08-15T08:06:44Z</time>
      </trkpt>
      <trkpt lat="47.13428" lon="-1.74767">
        <ele>54</ele>
        <time>2022-08-15T08:06:46Z</time>
      </trkpt>
      <trkpt lat="47.13419" lon="-1.74775">
        <ele>55</ele>
        <time>2022-08-15T08:06:48Z</time>
      </trkpt>
      <trkpt lat="47.13409" lon="-1.74784">
        <ele>55</ele>
        <time>2022-08-15T08:06:50Z</time>
      </trkpt>
      <trkpt lat="47.13401" lon="-1.74794">
        <ele>56</ele>
        <time>2022-08-15T08:06:52Z</time>
      </trkpt>
      <trkpt lat="47.13393" lon="-1.74805">
        <ele>56</ele>
        <time>2022-08-15T08:06:54Z</time>
      </trkpt>
      <trkpt lat="47.13387" lon="-1.74817">
        <ele>56</ele>
        <time>2022-08-15T08:06:56Z</time>
      </trkpt>
      <trkpt lat="47.13382" lon="-1.74831">
        <ele>57</ele>
        <time>2022-08-15T08:06:58Z</time>
      </trkpt>
      <trkpt lat="47.13379" lon="-1.74846">
        <ele>58</ele>
        <time>2022-08-15T08:07:00Z</time>
      </trkpt>
      <trkpt lat="47.13375" lon="-1.7486">
        <ele>58</ele>
        <time>2022-08-15T08:07:02Z</time>
      </trkpt>
      <trkpt lat="47.13371" lon="-1.74875">
        <ele>58</ele>
        <time>2022-08-15T08:07:04Z</time>
      </trkpt>
      <trkpt lat="47.13367" lon="-1.7489">
        <ele>58</ele>
        <time>2022-08-15T08:07:06Z</time>
      </trkpt>
      <trkpt lat="47.13363" lon="-1.74905">
        <ele>58</ele>
        <time>2022-08-15T08:07:08Z</time>
      </trkpt>
      <trkpt lat="47.13358" lon="-1.74919">
        <ele>59</ele>
        <time>2022-08-15T08:07:10Z</time>
      </trkpt>
      <trkpt lat="47.13352" lon="-1.74933">
        <ele>59</ele>
        <time>2022-08-15T08:07:12Z</time>
      </trkpt>
      <trkpt lat="47.13346" lon="-1.74947">
        <ele>58</ele>
        <time>2022-08-15T08:07:14Z</time>
      </trkpt>
      <trkpt lat="47.1334" lon="-1.74961">
        <ele>58</ele>
        <time>2022-08-15T08:07:16Z</time>
      </trkpt>
      <trkpt lat="47.13333" lon="-1.74974">
        <ele>59</ele>
        <time>2022-08-15T08:07:18Z</time>
      </trkpt>
      <trkpt lat="47.13326" lon="-1.74986">
        <ele>59</ele>
        <time>2022-08-15T08:07:20Z</time>
      </trkpt>
      <trkpt lat="47.13319" lon="-1.74996">
        <ele>60</ele>
        <time>2022-08-15T08:07:22Z</time>
      </trkpt>
      <trkpt lat="47.1331" lon="-1.75004">
        <ele>60</ele>
        <time>2022-08-15T08:07:24Z</time>
      </trkpt>
      <trkpt lat="47.133" lon="-1.75012">
        <ele>61</ele>
        <time>2022-08-15T08:07:26Z</time>
      </trkpt>
      <trkpt lat="47.1329" lon="-1.7502">
        <ele>62</ele>
        <time>2022-08-15T08:07:28Z</time>
      </trkpt>
      <trkpt lat="47.13281" lon="-1.75028">
        <ele>62</ele>
        <time>2022-08-15T08:07:30Z</time>
      </trkpt>
      <trkpt lat="47.13271" lon="-1.75035">
        <ele>62</ele>
        <time>2022-08-15T08:07:32Z</time>
      </trkpt>
      <trkpt lat="47.13261" lon="-1.75042">
        <ele>62</ele>
        <time>2022-08-15T08:07:34Z</time>
      </trkpt>
      <trkpt lat="47.13252" lon="-1.7505">
        <ele>62</ele>
        <time>2022-08-15T08:07:36Z</time>
      </trkpt>
      <trkpt lat="47.13243" lon="-1.75058">
        <ele>62</ele>
        <time>2022-08-15T08:07:38Z</time>
      </trkpt>
      <trkpt lat="47.13235" lon="-1.75067">
        <ele>63</ele>
        <time>2022-08-15T08:07:40Z</time>
      </trkpt>
      <trkpt lat="47.13226" lon="-1.75076">
        <ele>63</ele>
        <time>2022-08-15T08:07:42Z</time>
      </trkpt>
      <trkpt lat="47.13219" lon="-1.75086">
        <ele>63</ele>
        <time>2022-08-15T08:07:44Z</time>
      </trkpt>
      <trkpt lat="47.13212" lon="-1.75097">
        <ele>63</ele>
        <time>2022-08-15T08:07:46Z</time>
      </trkpt>
      <trkpt lat="47.13205" lon="-1.75109">
        <ele>63</ele>
        <time>2022-08-15T08:07:48Z</time>
      </trkpt>
      <trkpt lat="47.13198" lon="-1.7512">
        <ele>64</ele>
        <time>2022-08-15T08:07:50Z</time>
      </trkpt>
      <trkpt lat="47.13191" lon="-1.75132">
        <ele>65</ele>
        <time>2022-08-15T08:07:52Z</time>
      </trkpt>
      <trkpt lat="47.13185" lon="-1.75145">
        <ele>65</ele>
        <time>2022-08-15T08:07:54Z</time>
      </trkpt>
      <trkpt lat="47.13179" lon="-1.75157">
        <ele>65</ele>
        <time>2022-08-15T08:07:56Z</time>
      </trkpt>
      <trkpt lat="47.13174" lon="-1.75171">
        <ele>66</ele>
        <time>2022-08-15T08:07:58Z</time>
      </trkpt>
      <trkpt lat="47.13168" lon="-1.75185">
        <ele>65</ele>
        <time>2022-08-15T08:08:00Z</time>
      </trkpt>
      <trkpt lat="47.13164" lon="-1.752">
        <ele>65</ele>
        <time>2022-08-15T08:08:02Z</time>
      </trkpt>
      <trkpt lat="47.1316" lon="-1.75216">
        <ele>65</ele>
        <time>2022-08-15T08:08:04Z</time>
      </trkpt>
      <trkpt lat="47.13157" lon="-1.75231">
        <ele>66</ele>
        <time>2022-08-15T08:08:06Z</time>
      </trkpt>
      <trkpt lat="47.13154" lon="-1.75246">
        <ele>66</ele>
        <time>2022-08-15T08:08:08Z</time>
      </trkpt>
      <trkpt lat="47.13152" lon="-1.75263">
        <ele>65</ele>
        <time>2022-08-15T08:08:10Z</time>
      </trkpt>
      <trkpt lat="47.13151" lon="-1.75278">
        <ele>65</ele>
        <time>2022-08-15T08:08:12Z</time>
      </trkpt>
      <trkpt lat="47.1315" lon="-1.75294">
        <ele>65</ele>
        <time>2022-08-15T08:08:14Z</time>
      </trkpt>
      <trkpt lat="47.13146" lon="-1.7531">
        <ele>65</ele>
        <time>2022-08-15T08:08:16Z</time>
      </trkpt>
      <trkpt lat="47.1314" lon="-1.75325">
        <ele>65</ele>
        <time>2022-08-15T08:08:18Z</time>
      </trkpt>
      <trkpt lat="47.13136" lon="-1.7534">
        <ele>66</ele>
        <time>2022-08-15T08:08:20Z</time>
      </trkpt>
      <trkpt lat="47.13133" lon="-1.75355">
        <ele>66</ele>
        <time>2022-08-15T08:08:22Z</time>
      </trkpt>
      <trkpt lat="47.1313" lon="-1.75369">
        <ele>66</ele>
        <time>2022-08-15T08:08:24Z</time>
      </trkpt>
      <trkpt lat="47.13126" lon="-1.75388">
        <ele>67</ele>
        <time>2022-08-15T08:08:27Z</time>
      </trkpt>
      <trkpt lat="47.13122" lon="-1.75401">
        <ele>67</ele>
        <time>2022-08-15T08:08:29Z</time>
      </trkpt>
      <trkpt lat="47.13117" lon="-1.75418">
        <ele>68</ele>
        <time>2022-08-15T08:08:32Z</time>
      </trkpt>
      <trkpt lat="47.13116" lon="-1.75438">
        <ele>69</ele>
        <time>2022-08-15T08:08:35Z</time>
      </trkpt>
      <trkpt lat="47.13113" lon="-1.75452">
        <ele>70</ele>
        <time>2022-08-15T08:08:37Z</time>
      </trkpt>
      <trkpt lat="47.1311" lon="-1.75466">
        <ele>70</ele>
        <time>2022-08-15T08:08:39Z</time>
      </trkpt>
      <trkpt lat="47.13109" lon="-1.7548">
        <ele>70</ele>
        <time>2022-08-15T08:08:41Z</time>
      </trkpt>
      <trkpt lat="47.13109" lon="-1.75495">
        <ele>71</ele>
        <time>2022-08-15T08:08:43Z</time>
      </trkpt>
      <trkpt lat="47.13107" lon="-1.75509">
        <ele>71</ele>
        <time>2022-08-15T08:08:45Z</time>
      </trkpt>
      <trkpt lat="47.13104" lon="-1.75528">
        <ele>71</ele>
        <time>2022-08-15T08:08:48Z</time>
      </trkpt>
      <trkpt lat="47.13102" lon="-1.75541">
        <ele>72</ele>
        <time>2022-08-15T08:08:50Z</time>
      </trkpt>
      <trkpt lat="47.13098" lon="-1.75559">
        <ele>72</ele>
        <time>2022-08-15T08:08:53Z</time>
      </trkpt>
      <trkpt lat="47.13096" lon="-1.75572">
        <ele>72</ele>
        <time>2022-08-15T08:08:55Z</time>
      </trkpt>
      <trkpt lat="47.13094" lon="-1.75585">
        <ele>72</ele>
        <time>2022-08-15T08:08:57Z</time>
      </trkpt>
      <trkpt lat="47.13091" lon="-1.75599">
        <ele>72</ele>
        <time>2022-08-15T08:08:59Z</time>
      </trkpt>
      <trkpt lat="47.13089" lon="-1.75614">
        <ele>73</ele>
        <time>2022-08-15T08:09:01Z</time>
      </trkpt>
      <trkpt lat="47.13086" lon="-1.75628">
        <ele>72</ele>
        <time>2022-08-15T08:09:03Z</time>
      </trkpt>
      <trkpt lat="47.13084" lon="-1.75642">
        <ele>73</ele>
        <time>2022-08-15T08:09:05Z</time>
      </trkpt>
      <trkpt lat="47.13081" lon="-1.75657">
        <ele>73</ele>
        <time>2022-08-15T08:09:07Z</time>
      </trkpt>
      <trkpt lat="47.13077" lon="-1.75672">
        <ele>73</ele>
        <time>2022-08-15T08:09:09Z</time>
      </trkpt>
      <trkpt lat="47.13075" lon="-1.75686">
        <ele>73</ele>
        <time>2022-08-15T08:09:11Z</time>
      </trkpt>
      <trkpt lat="47.13072" lon="-1.757">
        <ele>73</ele>
        <time>2022-08-15T08:09:13Z</time>
      </trkpt>
      <trkpt lat="47.13068" lon="-1.75714">
        <ele>73</ele>
        <time>2022-08-15T08:09:15Z</time>
      </trkpt>
      <trkpt lat="47.13064" lon="-1.75727">
        <ele>73</ele>
        <time>2022-08-15T08:09:17Z</time>
      </trkpt>
      <trkpt lat="47.13059" lon="-1.7574">
        <ele>74</ele>
        <time>2022-08-15T08:09:19Z</time>
      </trkpt>
      <trkpt lat="47.13052" lon="-1.75752">
        <ele>75</ele>
        <time>2022-08-15T08:09:21Z</time>
      </trkpt>
      <trkpt lat="47.13045" lon="-1.75763">
        <ele>75</ele>
        <time>2022-08-15T08:09:23Z</time>
      </trkpt>
      <trkpt lat="47.13038" lon="-1.75774">
        <ele>75</ele>
        <time>2022-08-15T08:09:25Z</time>
      </trkpt>
      <trkpt lat="47.13031" lon="-1.75785">
        <ele>76</ele>
        <time>2022-08-15T08:09:27Z</time>
      </trkpt>
      <trkpt lat="47.13024" lon="-1.75796">
        <ele>75</ele>
        <time>2022-08-15T08:09:29Z</time>
      </trkpt>
      <trkpt lat="47.13017" lon="-1.75808">
        <ele>76</ele>
        <time>2022-08-15T08:09:31Z</time>
      </trkpt>
      <trkpt lat="47.13011" lon="-1.7582">
        <ele>76</ele>
        <time>2022-08-15T08:09:33Z</time>
      </trkpt>
      <trkpt lat="47.13008" lon="-1.75835">
        <ele>76</ele>
        <time>2022-08-15T08:09:35Z</time>
      </trkpt>
      <trkpt lat="47.1301" lon="-1.75851">
        <ele>76</ele>
        <time>2022-08-15T08:09:37Z</time>
      </trkpt>
      <trkpt lat="47.13011" lon="-1.75866">
        <ele>76</ele>
        <time>2022-08-15T08:09:39Z</time>
      </trkpt>
      <trkpt lat="47.1301" lon="-1.75882">
        <ele>76</ele>
        <time>2022-08-15T08:09:41Z</time>
      </trkpt>
      <trkpt lat="47.13008" lon="-1.75897">
        <ele>76</ele>
        <time>2022-08-15T08:09:43Z</time>
      </trkpt>
      <trkpt lat="47.13005" lon="-1.75912">
        <ele>76</ele>
        <time>2022-08-15T08:09:45Z</time>
      </trkpt>
      <trkpt lat="47.13002" lon="-1.75926">
        <ele>76</ele>
        <time>2022-08-15T08:09:47Z</time>
      </trkpt>
      <trkpt lat="47.12999" lon="-1.7594">
        <ele>76</ele>
        <time>2022-08-15T08:09:49Z</time>
      </trkpt>
      <trkpt lat="47.12996" lon="-1.75954">
        <ele>76</ele>
        <time>2022-08-15T08:09:51Z</time>
      </trkpt>
      <trkpt lat="47.12994" lon="-1.75968">
        <ele>76</ele>
        <time>2022-08-15T08:09:53Z</time>
      </trkpt>
      <trkpt lat="47.12991" lon="-1.75983">
        <ele>76</ele>
        <time>2022-08-15T08:09:55Z</time>
      </trkpt>
      <trkpt lat="47.12988" lon="-1.75998">
        <ele>76</ele>
        <time>2022-08-15T08:09:57Z</time>
      </trkpt>
      <trkpt lat="47.12988" lon="-1.76014">
        <ele>76</ele>
        <time>2022-08-15T08:09:59Z</time>
      </trkpt>
      <trkpt lat="47.12987" lon="-1.7603">
        <ele>76</ele>
        <time>2022-08-15T08:10:01Z</time>
      </trkpt>
      <trkpt lat="47.12986" lon="-1.76044">
        <ele>76</ele>
        <time>2022-08-15T08:10:03Z</time>
      </trkpt>
      <trkpt lat="47.12986" lon="-1.7606">
        <ele>77</ele>
        <time>2022-08-15T08:10:05Z</time>
      </trkpt>
      <trkpt lat="47.12986" lon="-1.76075">
        <ele>77</ele>
        <time>2022-08-15T08:10:07Z</time>
      </trkpt>
      <trkpt lat="47.12987" lon="-1.7609">
        <ele>77</ele>
        <time>2022-08-15T08:10:09Z</time>
      </trkpt>
      <trkpt lat="47.12989" lon="-1.76105">
        <ele>77</ele>
        <time>2022-08-15T08:10:11Z</time>
      </trkpt>
      <trkpt lat="47.12991" lon="-1.76119">
        <ele>77</ele>
        <time>2022-08-15T08:10:13Z</time>
      </trkpt>
      <trkpt lat="47.12994" lon="-1.76133">
        <ele>78</ele>
        <time>2022-08-15T08:10:15Z</time>
      </trkpt>
      <trkpt lat="47.12998" lon="-1.76148">
        <ele>77</ele>
        <time>2022-08-15T08:10:17Z</time>
      </trkpt>
      <trkpt lat="47.13002" lon="-1.76163">
        <ele>77</ele>
        <time>2022-08-15T08:10:19Z</time>
      </trkpt>
      <trkpt lat="47.13006" lon="-1.76178">
        <ele>77</ele>
        <time>2022-08-15T08:10:21Z</time>
      </trkpt>
      <trkpt lat="47.1301" lon="-1.76193">
        <ele>77</ele>
        <time>2022-08-15T08:10:23Z</time>
      </trkpt>
      <trkpt lat="47.13015" lon="-1.76208">
        <ele>77</ele>
        <time>2022-08-15T08:10:25Z</time>
      </trkpt>
      <trkpt lat="47.13019" lon="-1.76223">
        <ele>77</ele>
        <time>2022-08-15T08:10:27Z</time>
      </trkpt>
      <trkpt lat="47.13022" lon="-1.76239">
        <ele>77</ele>
        <time>2022-08-15T08:10:29Z</time>
      </trkpt>
      <trkpt lat="47.13026" lon="-1.76254">
        <ele>78</ele>
        <time>2022-08-15T08:10:31Z</time>
      </trkpt>
      <trkpt lat="47.13029" lon="-1.76268">
        <ele>78</ele>
        <time>2022-08-15T08:10:33Z</time>
      </trkpt>
      <trkpt lat="47.13032" lon="-1.76283">
        <ele>78</ele>
        <time>2022-08-15T08:10:35Z</time>
      </trkpt>
      <trkpt lat="47.13036" lon="-1.76297">
        <ele>77</ele>
        <time>2022-08-15T08:10:37Z</time>
      </trkpt>
      <trkpt lat="47.13038" lon="-1.76313">
        <ele>77</ele>
        <time>2022-08-15T08:10:39Z</time>
      </trkpt>
      <trkpt lat="47.13041" lon="-1.76328">
        <ele>77</ele>
        <time>2022-08-15T08:10:41Z</time>
      </trkpt>
      <trkpt lat="47.13044" lon="-1.76344">
        <ele>77</ele>
        <time>2022-08-15T08:10:43Z</time>
      </trkpt>
      <trkpt lat="47.13047" lon="-1.76361">
        <ele>77</ele>
        <time>2022-08-15T08:10:45Z</time>
      </trkpt>
      <trkpt lat="47.1305" lon="-1.76376">
        <ele>77</ele>
        <time>2022-08-15T08:10:47Z</time>
      </trkpt>
      <trkpt lat="47.13053" lon="-1.76391">
        <ele>77</ele>
        <time>2022-08-15T08:10:49Z</time>
      </trkpt>
      <trkpt lat="47.13055" lon="-1.76407">
        <ele>77</ele>
        <time>2022-08-15T08:10:51Z</time>
      </trkpt>
      <trkpt lat="47.13056" lon="-1.76423">
        <ele>77</ele>
        <time>2022-08-15T08:10:53Z</time>
      </trkpt>
      <trkpt lat="47.13057" lon="-1.76439">
        <ele>77</ele>
        <time>2022-08-15T08:10:55Z</time>
      </trkpt>
      <trkpt lat="47.13057" lon="-1.76456">
        <ele>77</ele>
        <time>2022-08-15T08:10:57Z</time>
      </trkpt>
      <trkpt lat="47.13058" lon="-1.76472">
        <ele>77</ele>
        <time>2022-08-15T08:10:59Z</time>
      </trkpt>
      <trkpt lat="47.13058" lon="-1.76489">
        <ele>77</ele>
        <time>2022-08-15T08:11:01Z</time>
      </trkpt>
      <trkpt lat="47.13059" lon="-1.76505">
        <ele>77</ele>
        <time>2022-08-15T08:11:03Z</time>
      </trkpt>
      <trkpt lat="47.13059" lon="-1.76521">
        <ele>77</ele>
        <time>2022-08-15T08:11:05Z</time>
      </trkpt>
      <trkpt lat="47.1306" lon="-1.76538">
        <ele>77</ele>
        <time>2022-08-15T08:11:07Z</time>
      </trkpt>
      <trkpt lat="47.13061" lon="-1.76555">
        <ele>77</ele>
        <time>2022-08-15T08:11:09Z</time>
      </trkpt>
      <trkpt lat="47.13063" lon="-1.76572">
        <ele>77</ele>
        <time>2022-08-15T08:11:11Z</time>
      </trkpt>
      <trkpt lat="47.13064" lon="-1.76588">
        <ele>77</ele>
        <time>2022-08-15T08:11:13Z</time>
      </trkpt>
      <trkpt lat="47.13065" lon="-1.76604">
        <ele>77</ele>
        <time>2022-08-15T08:11:15Z</time>
      </trkpt>
      <trkpt lat="47.13067" lon="-1.7662">
        <ele>77</ele>
        <time>2022-08-15T08:11:17Z</time>
      </trkpt>
      <trkpt lat="47.13067" lon="-1.76635">
        <ele>77</ele>
        <time>2022-08-15T08:11:19Z</time>
      </trkpt>
      <trkpt lat="47.1307" lon="-1.7665">
        <ele>77</ele>
        <time>2022-08-15T08:11:21Z</time>
      </trkpt>
      <trkpt lat="47.13072" lon="-1.76665">
        <ele>76</ele>
        <time>2022-08-15T08:11:23Z</time>
      </trkpt>
      <trkpt lat="47.13073" lon="-1.76681">
        <ele>76</ele>
        <time>2022-08-15T08:11:25Z</time>
      </trkpt>
      <trkpt lat="47.13072" lon="-1.76696">
        <ele>77</ele>
        <time>2022-08-15T08:11:27Z</time>
      </trkpt>
      <trkpt lat="47.13069" lon="-1.76712">
        <ele>77</ele>
        <time>2022-08-15T08:11:29Z</time>
      </trkpt>
      <trkpt lat="47.13067" lon="-1.76727">
        <ele>77</ele>
        <time>2022-08-15T08:11:31Z</time>
      </trkpt>
      <trkpt lat="47.13066" lon="-1.76742">
        <ele>77</ele>
        <time>2022-08-15T08:11:33Z</time>
      </trkpt>
      <trkpt lat="47.13064" lon="-1.76758">
        <ele>76</ele>
        <time>2022-08-15T08:11:35Z</time>
      </trkpt>
      <trkpt lat="47.13063" lon="-1.76774">
        <ele>75</ele>
        <time>2022-08-15T08:11:37Z</time>
      </trkpt>
      <trkpt lat="47.1306" lon="-1.76789">
        <ele>75</ele>
        <time>2022-08-15T08:11:39Z</time>
      </trkpt>
      <trkpt lat="47.13058" lon="-1.76805">
        <ele>75</ele>
        <time>2022-08-15T08:11:41Z</time>
      </trkpt>
      <trkpt lat="47.13057" lon="-1.7682">
        <ele>75</ele>
        <time>2022-08-15T08:11:43Z</time>
      </trkpt>
      <trkpt lat="47.13055" lon="-1.76833">
        <ele>76</ele>
        <time>2022-08-15T08:11:45Z</time>
      </trkpt>
      <trkpt lat="47.13053" lon="-1.76848">
        <ele>75</ele>
        <time>2022-08-15T08:11:47Z</time>
      </trkpt>
      <trkpt lat="47.13051" lon="-1.76864">
        <ele>76</ele>
        <time>2022-08-15T08:11:49Z</time>
      </trkpt>
      <trkpt lat="47.1305" lon="-1.76879">
        <ele>76</ele>
        <time>2022-08-15T08:11:51Z</time>
      </trkpt>
      <trkpt lat="47.13048" lon="-1.76893">
        <ele>76</ele>
        <time>2022-08-15T08:11:53Z</time>
      </trkpt>
      <trkpt lat="47.13046" lon="-1.76908">
        <ele>76</ele>
        <time>2022-08-15T08:11:55Z</time>
      </trkpt>
      <trkpt lat="47.13045" lon="-1.76922">
        <ele>76</ele>
        <time>2022-08-15T08:11:57Z</time>
      </trkpt>
      <trkpt lat="47.13043" lon="-1.76936">
        <ele>77</ele>
        <time>2022-08-15T08:11:59Z</time>
      </trkpt>
      <trkpt lat="47.13042" lon="-1.76951">
        <ele>78</ele>
        <time>2022-08-15T08:12:01Z</time>
      </trkpt>
      <trkpt lat="47.13042" lon="-1.76966">
        <ele>78</ele>
        <time>2022-08-15T08:12:03Z</time>
      </trkpt>
      <trkpt lat="47.13041" lon="-1.7698">
        <ele>78</ele>
        <time>2022-08-15T08:12:05Z</time>
      </trkpt>
      <trkpt lat="47.1304" lon="-1.76994">
        <ele>78</ele>
        <time>2022-08-15T08:12:07Z</time>
      </trkpt>
      <trkpt lat="47.1304" lon="-1.77007">
        <ele>78</ele>
        <time>2022-08-15T08:12:09Z</time>
      </trkpt>
      <trkpt lat="47.13039" lon="-1.7702">
        <ele>78</ele>
        <time>2022-08-15T08:12:11Z</time>
      </trkpt>
      <trkpt lat="47.13038" lon="-1.77034">
        <ele>78</ele>
        <time>2022-08-15T08:12:13Z</time>
      </trkpt>
      <trkpt lat="47.13037" lon="-1.77048">
        <ele>79</ele>
        <time>2022-08-15T08:12:15Z</time>
      </trkpt>
      <trkpt lat="47.13035" lon="-1.77062">
        <ele>79</ele>
        <time>2022-08-15T08:12:17Z</time>
      </trkpt>
      <trkpt lat="47.13034" lon="-1.77076">
        <ele>79</ele>
        <time>2022-08-15T08:12:19Z</time>
      </trkpt>
      <trkpt lat="47.13032" lon="-1.77091">
        <ele>79</ele>
        <time>2022-08-15T08:12:21Z</time>
      </trkpt>
      <trkpt lat="47.1303" lon="-1.77105">
        <ele>79</ele>
        <time>2022-08-15T08:12:23Z</time>
      </trkpt>
      <trkpt lat="47.13028" lon="-1.77119">
        <ele>79</ele>
        <time>2022-08-15T08:12:25Z</time>
      </trkpt>
      <trkpt lat="47.13026" lon="-1.77133">
        <ele>79</ele>
        <time>2022-08-15T08:12:27Z</time>
      </trkpt>
      <trkpt lat="47.13024" lon="-1.77147">
        <ele>79</ele>
        <time>2022-08-15T08:12:29Z</time>
      </trkpt>
      <trkpt lat="47.13021" lon="-1.77162">
        <ele>79</ele>
        <time>2022-08-15T08:12:31Z</time>
      </trkpt>
      <trkpt lat="47.13019" lon="-1.77176">
        <ele>80</ele>
        <time>2022-08-15T08:12:33Z</time>
      </trkpt>
      <trkpt lat="47.13015" lon="-1.7719">
        <ele>80</ele>
        <time>2022-08-15T08:12:35Z</time>
      </trkpt>
      <trkpt lat="47.13012" lon="-1.77204">
        <ele>80</ele>
        <time>2022-08-15T08:12:37Z</time>
      </trkpt>
      <trkpt lat="47.13009" lon="-1.77219">
        <ele>80</ele>
        <time>2022-08-15T08:12:39Z</time>
      </trkpt>
      <trkpt lat="47.13006" lon="-1.77234">
        <ele>80</ele>
        <time>2022-08-15T08:12:41Z</time>
      </trkpt>
      <trkpt lat="47.13002" lon="-1.77248">
        <ele>80</ele>
        <time>2022-08-15T08:12:43Z</time>
      </trkpt>
      <trkpt lat="47.12997" lon="-1.77262">
        <ele>80</ele>
        <time>2022-08-15T08:12:45Z</time>
      </trkpt>
      <trkpt lat="47.12993" lon="-1.77277">
        <ele>80</ele>
        <time>2022-08-15T08:12:47Z</time>
      </trkpt>
      <trkpt lat="47.12989" lon="-1.77291">
        <ele>80</ele>
        <time>2022-08-15T08:12:49Z</time>
      </trkpt>
      <trkpt lat="47.12984" lon="-1.77306">
        <ele>79</ele>
        <time>2022-08-15T08:12:51Z</time>
      </trkpt>
      <trkpt lat="47.12979" lon="-1.77319">
        <ele>79</ele>
        <time>2022-08-15T08:12:53Z</time>
      </trkpt>
      <trkpt lat="47.12973" lon="-1.77334">
        <ele>79</ele>
        <time>2022-08-15T08:12:55Z</time>
      </trkpt>
      <trkpt lat="47.12968" lon="-1.77349">
        <ele>79</ele>
        <time>2022-08-15T08:12:57Z</time>
      </trkpt>
      <trkpt lat="47.12962" lon="-1.77364">
        <ele>79</ele>
        <time>2022-08-15T08:12:59Z</time>
      </trkpt>
      <trkpt lat="47.12956" lon="-1.77378">
        <ele>79</ele>
        <time>2022-08-15T08:13:01Z</time>
      </trkpt>
      <trkpt lat="47.1295" lon="-1.77393">
        <ele>79</ele>
        <time>2022-08-15T08:13:03Z</time>
      </trkpt>
      <trkpt lat="47.12944" lon="-1.77407">
        <ele>80</ele>
        <time>2022-08-15T08:13:05Z</time>
      </trkpt>
      <trkpt lat="47.12938" lon="-1.77421">
        <ele>80</ele>
        <time>2022-08-15T08:13:07Z</time>
      </trkpt>
      <trkpt lat="47.12933" lon="-1.77435">
        <ele>80</ele>
        <time>2022-08-15T08:13:09Z</time>
      </trkpt>
      <trkpt lat="47.12927" lon="-1.7745">
        <ele>80</ele>
        <time>2022-08-15T08:13:11Z</time>
      </trkpt>
      <trkpt lat="47.12923" lon="-1.77463">
        <ele>80</ele>
        <time>2022-08-15T08:13:13Z</time>
      </trkpt>
      <trkpt lat="47.12918" lon="-1.77477">
        <ele>80</ele>
        <time>2022-08-15T08:13:15Z</time>
      </trkpt>
      <trkpt lat="47.12914" lon="-1.77492">
        <ele>80</ele>
        <time>2022-08-15T08:13:17Z</time>
      </trkpt>
      <trkpt lat="47.1291" lon="-1.77507">
        <ele>81</ele>
        <time>2022-08-15T08:13:19Z</time>
      </trkpt>
      <trkpt lat="47.12906" lon="-1.77523">
        <ele>81</ele>
        <time>2022-08-15T08:13:21Z</time>
      </trkpt>
      <trkpt lat="47.12902" lon="-1.77538">
        <ele>81</ele>
        <time>2022-08-15T08:13:23Z</time>
      </trkpt>
      <trkpt lat="47.12898" lon="-1.77553">
        <ele>81</ele>
        <time>2022-08-15T08:13:25Z</time>
      </trkpt>
      <trkpt lat="47.12894" lon="-1.77569">
        <ele>81</ele>
        <time>2022-08-15T08:13:27Z</time>
      </trkpt>
      <trkpt lat="47.12891" lon="-1.77585">
        <ele>82</ele>
        <time>2022-08-15T08:13:29Z</time>
      </trkpt>
      <trkpt lat="47.12888" lon="-1.776">
        <ele>82</ele>
        <time>2022-08-15T08:13:31Z</time>
      </trkpt>
      <trkpt lat="47.12885" lon="-1.77615">
        <ele>83</ele>
        <time>2022-08-15T08:13:33Z</time>
      </trkpt>
      <trkpt lat="47.12882" lon="-1.77631">
        <ele>83</ele>
        <time>2022-08-15T08:13:35Z</time>
      </trkpt>
      <trkpt lat="47.12878" lon="-1.77646">
        <ele>84</ele>
        <time>2022-08-15T08:13:37Z</time>
      </trkpt>
      <trkpt lat="47.12874" lon="-1.77661">
        <ele>84</ele>
        <time>2022-08-15T08:13:39Z</time>
      </trkpt>
      <trkpt lat="47.12871" lon="-1.77676">
        <ele>84</ele>
        <time>2022-08-15T08:13:41Z</time>
      </trkpt>
      <trkpt lat="47.12868" lon="-1.77692">
        <ele>85</ele>
        <time>2022-08-15T08:13:43Z</time>
      </trkpt>
      <trkpt lat="47.12863" lon="-1.77707">
        <ele>84</ele>
        <time>2022-08-15T08:13:45Z</time>
      </trkpt>
      <trkpt lat="47.1286" lon="-1.77722">
        <ele>84</ele>
        <time>2022-08-15T08:13:47Z</time>
      </trkpt>
      <trkpt lat="47.12855" lon="-1.77738">
        <ele>84</ele>
        <time>2022-08-15T08:13:49Z</time>
      </trkpt>
      <trkpt lat="47.1285" lon="-1.77753">
        <ele>84</ele>
        <time>2022-08-15T08:13:51Z</time>
      </trkpt>
      <trkpt lat="47.12846" lon="-1.77768">
        <ele>84</ele>
        <time>2022-08-15T08:13:53Z</time>
      </trkpt>
      <trkpt lat="47.12839" lon="-1.77784">
        <ele>84</ele>
        <time>2022-08-15T08:13:55Z</time>
      </trkpt>
      <trkpt lat="47.12833" lon="-1.778">
        <ele>83</ele>
        <time>2022-08-15T08:13:57Z</time>
      </trkpt>
      <trkpt lat="47.12827" lon="-1.77816">
        <ele>82</ele>
        <time>2022-08-15T08:13:59Z</time>
      </trkpt>
      <trkpt lat="47.1282" lon="-1.77831">
        <ele>82</ele>
        <time>2022-08-15T08:14:01Z</time>
      </trkpt>
      <trkpt lat="47.12814" lon="-1.77847">
        <ele>82</ele>
        <time>2022-08-15T08:14:03Z</time>
      </trkpt>
      <trkpt lat="47.12809" lon="-1.77863">
        <ele>82</ele>
        <time>2022-08-15T08:14:05Z</time>
      </trkpt>
      <trkpt lat="47.12803" lon="-1.77878">
        <ele>82</ele>
        <time>2022-08-15T08:14:07Z</time>
      </trkpt>
      <trkpt lat="47.12799" lon="-1.77893">
        <ele>82</ele>
        <time>2022-08-15T08:14:09Z</time>
      </trkpt>
      <trkpt lat="47.12793" lon="-1.77908">
        <ele>81</ele>
        <time>2022-08-15T08:14:11Z</time>
      </trkpt>
      <trkpt lat="47.12788" lon="-1.77924">
        <ele>81</ele>
        <time>2022-08-15T08:14:13Z</time>
      </trkpt>
      <trkpt lat="47.12784" lon="-1.7794">
        <ele>80</ele>
        <time>2022-08-15T08:14:15Z</time>
      </trkpt>
      <trkpt lat="47.12779" lon="-1.77956">
        <ele>80</ele>
        <time>2022-08-15T08:14:17Z</time>
      </trkpt>
      <trkpt lat="47.12776" lon="-1.77971">
        <ele>80</ele>
        <time>2022-08-15T08:14:19Z</time>
      </trkpt>
      <trkpt lat="47.12772" lon="-1.77987">
        <ele>80</ele>
        <time>2022-08-15T08:14:21Z</time>
      </trkpt>
      <trkpt lat="47.12767" lon="-1.78002">
        <ele>80</ele>
        <time>2022-08-15T08:14:23Z</time>
      </trkpt>
      <trkpt lat="47.12762" lon="-1.78017">
        <ele>81</ele>
        <time>2022-08-15T08:14:25Z</time>
      </trkpt>
      <trkpt lat="47.12757" lon="-1.78032">
        <ele>81</ele>
        <time>2022-08-15T08:14:27Z</time>
      </trkpt>
      <trkpt lat="47.12751" lon="-1.78048">
        <ele>81</ele>
        <time>2022-08-15T08:14:29Z</time>
      </trkpt>
      <trkpt lat="47.12744" lon="-1.78061">
        <ele>80</ele>
        <time>2022-08-15T08:14:31Z</time>
      </trkpt>
      <trkpt lat="47.12735" lon="-1.78075">
        <ele>81</ele>
        <time>2022-08-15T08:14:33Z</time>
      </trkpt>
      <trkpt lat="47.12726" lon="-1.78087">
        <ele>81</ele>
        <time>2022-08-15T08:14:35Z</time>
      </trkpt>
      <trkpt lat="47.12717" lon="-1.781">
        <ele>81</ele>
        <time>2022-08-15T08:14:37Z</time>
      </trkpt>
      <trkpt lat="47.12708" lon="-1.78112">
        <ele>80</ele>
        <time>2022-08-15T08:14:39Z</time>
      </trkpt>
      <trkpt lat="47.12699" lon="-1.78125">
        <ele>80</ele>
        <time>2022-08-15T08:14:41Z</time>
      </trkpt>
      <trkpt lat="47.1269" lon="-1.78138">
        <ele>80</ele>
        <time>2022-08-15T08:14:43Z</time>
      </trkpt>
      <trkpt lat="47.1268" lon="-1.7815">
        <ele>80</ele>
        <time>2022-08-15T08:14:45Z</time>
      </trkpt>
      <trkpt lat="47.12671" lon="-1.78163">
        <ele>81</ele>
        <time>2022-08-15T08:14:47Z</time>
      </trkpt>
      <trkpt lat="47.12662" lon="-1.78176">
        <ele>80</ele>
        <time>2022-08-15T08:14:49Z</time>
      </trkpt>
      <trkpt lat="47.12652" lon="-1.78189">
        <ele>80</ele>
        <time>2022-08-15T08:14:51Z</time>
      </trkpt>
      <trkpt lat="47.12643" lon="-1.78201">
        <ele>80</ele>
        <time>2022-08-15T08:14:53Z</time>
      </trkpt>
      <trkpt lat="47.12636" lon="-1.78215">
        <ele>80</ele>
        <time>2022-08-15T08:14:55Z</time>
      </trkpt>
      <trkpt lat="47.12629" lon="-1.78229">
        <ele>80</ele>
        <time>2022-08-15T08:14:57Z</time>
      </trkpt>
      <trkpt lat="47.12624" lon="-1.78245">
        <ele>80</ele>
        <time>2022-08-15T08:14:59Z</time>
      </trkpt>
      <trkpt lat="47.1262" lon="-1.78262">
        <ele>80</ele>
        <time>2022-08-15T08:15:01Z</time>
      </trkpt>
      <trkpt lat="47.12616" lon="-1.78279">
        <ele>79</ele>
        <time>2022-08-15T08:15:03Z</time>
      </trkpt>
      <trkpt lat="47.12612" lon="-1.78294">
        <ele>80</ele>
        <time>2022-08-15T08:15:05Z</time>
      </trkpt>
      <trkpt lat="47.12609" lon="-1.78311">
        <ele>80</ele>
        <time>2022-08-15T08:15:07Z</time>
      </trkpt>
      <trkpt lat="47.12604" lon="-1.78329">
        <ele>80</ele>
        <time>2022-08-15T08:15:09Z</time>
      </trkpt>
      <trkpt lat="47.12601" lon="-1.78346">
        <ele>79</ele>
        <time>2022-08-15T08:15:11Z</time>
      </trkpt>
      <trkpt lat="47.12597" lon="-1.78363">
        <ele>79</ele>
        <time>2022-08-15T08:15:13Z</time>
      </trkpt>
      <trkpt lat="47.12593" lon="-1.7838">
        <ele>79</ele>
        <time>2022-08-15T08:15:15Z</time>
      </trkpt>
      <trkpt lat="47.12589" lon="-1.78396">
        <ele>79</ele>
        <time>2022-08-15T08:15:17Z</time>
      </trkpt>
      <trkpt lat="47.12585" lon="-1.78413">
        <ele>79</ele>
        <time>2022-08-15T08:15:19Z</time>
      </trkpt>
      <trkpt lat="47.12581" lon="-1.7843">
        <ele>79</ele>
        <time>2022-08-15T08:15:21Z</time>
      </trkpt>
      <trkpt lat="47.12577" lon="-1.78446">
        <ele>79</ele>
        <time>2022-08-15T08:15:23Z</time>
      </trkpt>
      <trkpt lat="47.12573" lon="-1.78463">
        <ele>78</ele>
        <time>2022-08-15T08:15:25Z</time>
      </trkpt>
      <trkpt lat="47.12569" lon="-1.78481">
        <ele>78</ele>
        <time>2022-08-15T08:15:27Z</time>
      </trkpt>
      <trkpt lat="47.12566" lon="-1.78497">
        <ele>78</ele>
        <time>2022-08-15T08:15:29Z</time>
      </trkpt>
      <trkpt lat="47.12562" lon="-1.78514">
        <ele>78</ele>
        <time>2022-08-15T08:15:31Z</time>
      </trkpt>
      <trkpt lat="47.12557" lon="-1.7853">
        <ele>78</ele>
        <time>2022-08-15T08:15:33Z</time>
      </trkpt>
      <trkpt lat="47.12553" lon="-1.78548">
        <ele>78</ele>
        <time>2022-08-15T08:15:35Z</time>
      </trkpt>
      <trkpt lat="47.12549" lon="-1.78565">
        <ele>78</ele>
        <time>2022-08-15T08:15:37Z</time>
      </trkpt>
      <trkpt lat="47.12545" lon="-1.78582">
        <ele>77</ele>
        <time>2022-08-15T08:15:39Z</time>
      </trkpt>
      <trkpt lat="47.1254" lon="-1.78599">
        <ele>77</ele>
        <time>2022-08-15T08:15:41Z</time>
      </trkpt>
      <trkpt lat="47.12535" lon="-1.78616">
        <ele>77</ele>
        <time>2022-08-15T08:15:43Z</time>
      </trkpt>
      <trkpt lat="47.12531" lon="-1.78632">
        <ele>77</ele>
        <time>2022-08-15T08:15:45Z</time>
      </trkpt>
      <trkpt lat="47.12525" lon="-1.78648">
        <ele>77</ele>
        <time>2022-08-15T08:15:47Z</time>
      </trkpt>
      <trkpt lat="47.1252" lon="-1.78664">
        <ele>77</ele>
        <time>2022-08-15T08:15:49Z</time>
      </trkpt>
      <trkpt lat="47.12514" lon="-1.7868">
        <ele>77</ele>
        <time>2022-08-15T08:15:51Z</time>
      </trkpt>
      <trkpt lat="47.12508" lon="-1.78696">
        <ele>77</ele>
        <time>2022-08-15T08:15:53Z</time>
      </trkpt>
      <trkpt lat="47.12503" lon="-1.78713">
        <ele>77</ele>
        <time>2022-08-15T08:15:55Z</time>
      </trkpt>
      <trkpt lat="47.12498" lon="-1.7873">
        <ele>76</ele>
        <time>2022-08-15T08:15:57Z</time>
      </trkpt>
      <trkpt lat="47.12495" lon="-1.78745">
        <ele>76</ele>
        <time>2022-08-15T08:15:59Z</time>
      </trkpt>
      <trkpt lat="47.1249" lon="-1.78762">
        <ele>76</ele>
        <time>2022-08-15T08:16:01Z</time>
      </trkpt>
      <trkpt lat="47.12486" lon="-1.78778">
        <ele>76</ele>
        <time>2022-08-15T08:16:03Z</time>
      </trkpt>
      <trkpt lat="47.12483" lon="-1.78795">
        <ele>76</ele>
        <time>2022-08-15T08:16:05Z</time>
      </trkpt>
      <trkpt lat="47.1248" lon="-1.78812">
        <ele>76</ele>
        <time>2022-08-15T08:16:07Z</time>
      </trkpt>
      <trkpt lat="47.12477" lon="-1.78829">
        <ele>76</ele>
        <time>2022-08-15T08:16:09Z</time>
      </trkpt>
      <trkpt lat="47.12474" lon="-1.78847">
        <ele>76</ele>
        <time>2022-08-15T08:16:11Z</time>
      </trkpt>
      <trkpt lat="47.12472" lon="-1.78865">
        <ele>76</ele>
        <time>2022-08-15T08:16:13Z</time>
      </trkpt>
      <trkpt lat="47.12471" lon="-1.78883">
        <ele>75</ele>
        <time>2022-08-15T08:16:15Z</time>
      </trkpt>
      <trkpt lat="47.12469" lon="-1.789">
        <ele>75</ele>
        <time>2022-08-15T08:16:17Z</time>
      </trkpt>
      <trkpt lat="47.12467" lon="-1.78917">
        <ele>75</ele>
        <time>2022-08-15T08:16:19Z</time>
      </trkpt>
      <trkpt lat="47.12464" lon="-1.78935">
        <ele>75</ele>
        <time>2022-08-15T08:16:21Z</time>
      </trkpt>
      <trkpt lat="47.12459" lon="-1.78951">
        <ele>74</ele>
        <time>2022-08-15T08:16:23Z</time>
      </trkpt>
      <trkpt lat="47.12455" lon="-1.78968">
        <ele>74</ele>
        <time>2022-08-15T08:16:25Z</time>
      </trkpt>
      <trkpt lat="47.12451" lon="-1.78984">
        <ele>75</ele>
        <time>2022-08-15T08:16:27Z</time>
      </trkpt>
      <trkpt lat="47.12447" lon="-1.79001">
        <ele>75</ele>
        <time>2022-08-15T08:16:29Z</time>
      </trkpt>
      <trkpt lat="47.12443" lon="-1.79017">
        <ele>74</ele>
        <time>2022-08-15T08:16:31Z</time>
      </trkpt>
      <trkpt lat="47.12439" lon="-1.79034">
        <ele>74</ele>
        <time>2022-08-15T08:16:33Z</time>
      </trkpt>
      <trkpt lat="47.12435" lon="-1.79051">
        <ele>74</ele>
        <time>2022-08-15T08:16:35Z</time>
      </trkpt>
      <trkpt lat="47.12432" lon="-1.79068">
        <ele>74</ele>
        <time>2022-08-15T08:16:37Z</time>
      </trkpt>
      <trkpt lat="47.12428" lon="-1.79084">
        <ele>74</ele>
        <time>2022-08-15T08:16:39Z</time>
      </trkpt>
      <trkpt lat="47.12426" lon="-1.791">
        <ele>75</ele>
        <time>2022-08-15T08:16:41Z</time>
      </trkpt>
      <trkpt lat="47.12423" lon="-1.79117">
        <ele>74</ele>
        <time>2022-08-15T08:16:43Z</time>
      </trkpt>
      <trkpt lat="47.12421" lon="-1.79134">
        <ele>74</ele>
        <time>2022-08-15T08:16:45Z</time>
      </trkpt>
      <trkpt lat="47.1242" lon="-1.79152">
        <ele>74</ele>
        <time>2022-08-15T08:16:47Z</time>
      </trkpt>
      <trkpt lat="47.12421" lon="-1.79169">
        <ele>74</ele>
        <time>2022-08-15T08:16:49Z</time>
      </trkpt>
      <trkpt lat="47.12422" lon="-1.79186">
        <ele>73</ele>
        <time>2022-08-15T08:16:51Z</time>
      </trkpt>
      <trkpt lat="47.12423" lon="-1.79203">
        <ele>73</ele>
        <time>2022-08-15T08:16:53Z</time>
      </trkpt>
      <trkpt lat="47.12424" lon="-1.7922">
        <ele>73</ele>
        <time>2022-08-15T08:16:55Z</time>
      </trkpt>
      <trkpt lat="47.12425" lon="-1.79238">
        <ele>73</ele>
        <time>2022-08-15T08:16:57Z</time>
      </trkpt>
      <trkpt lat="47.12425" lon="-1.79255">
        <ele>73</ele>
        <time>2022-08-15T08:16:59Z</time>
      </trkpt>
      <trkpt lat="47.12422" lon="-1.79271">
        <ele>74</ele>
        <time>2022-08-15T08:17:01Z</time>
      </trkpt>
      <trkpt lat="47.12417" lon="-1.79286">
        <ele>73</ele>
        <time>2022-08-15T08:17:03Z</time>
      </trkpt>
      <trkpt lat="47.12411" lon="-1.79301">
        <ele>73</ele>
        <time>2022-08-15T08:17:05Z</time>
      </trkpt>
      <trkpt lat="47.12404" lon="-1.79315">
        <ele>73</ele>
        <time>2022-08-15T08:17:07Z</time>
      </trkpt>
      <trkpt lat="47.12397" lon="-1.79329">
        <ele>74</ele>
        <time>2022-08-15T08:17:09Z</time>
      </trkpt>
      <trkpt lat="47.12391" lon="-1.79344">
        <ele>74</ele>
        <time>2022-08-15T08:17:11Z</time>
      </trkpt>
      <trkpt lat="47.12384" lon="-1.79358">
        <ele>74</ele>
        <time>2022-08-15T08:17:13Z</time>
      </trkpt>
      <trkpt lat="47.12378" lon="-1.79372">
        <ele>74</ele>
        <time>2022-08-15T08:17:15Z</time>
      </trkpt>
      <trkpt lat="47.12372" lon="-1.79386">
        <ele>74</ele>
        <time>2022-08-15T08:17:17Z</time>
      </trkpt>
      <trkpt lat="47.12367" lon="-1.79399">
        <ele>75</ele>
        <time>2022-08-15T08:17:19Z</time>
      </trkpt>
      <trkpt lat="47.12362" lon="-1.79414">
        <ele>75</ele>
        <time>2022-08-15T08:17:21Z</time>
      </trkpt>
      <trkpt lat="47.12357" lon="-1.7943">
        <ele>75</ele>
        <time>2022-08-15T08:17:23Z</time>
      </trkpt>
      <trkpt lat="47.12354" lon="-1.79447">
        <ele>75</ele>
        <time>2022-08-15T08:17:25Z</time>
      </trkpt>
      <trkpt lat="47.12351" lon="-1.79464">
        <ele>75</ele>
        <time>2022-08-15T08:17:27Z</time>
      </trkpt>
      <trkpt lat="47.12349" lon="-1.79481">
        <ele>75</ele>
        <time>2022-08-15T08:17:29Z</time>
      </trkpt>
      <trkpt lat="47.12346" lon="-1.79497">
        <ele>75</ele>
        <time>2022-08-15T08:17:31Z</time>
      </trkpt>
      <trkpt lat="47.12344" lon="-1.79514">
        <ele>74</ele>
        <time>2022-08-15T08:17:33Z</time>
      </trkpt>
      <trkpt lat="47.12342" lon="-1.79531">
        <ele>74</ele>
        <time>2022-08-15T08:17:35Z</time>
      </trkpt>
      <trkpt lat="47.12339" lon="-1.79547">
        <ele>74</ele>
        <time>2022-08-15T08:17:37Z</time>
      </trkpt>
      <trkpt lat="47.12337" lon="-1.79563">
        <ele>74</ele>
        <time>2022-08-15T08:17:39Z</time>
      </trkpt>
      <trkpt lat="47.12333" lon="-1.79577">
        <ele>74</ele>
        <time>2022-08-15T08:17:41Z</time>
      </trkpt>
      <trkpt lat="47.12328" lon="-1.7959">
        <ele>74</ele>
        <time>2022-08-15T08:17:43Z</time>
      </trkpt>
      <trkpt lat="47.12318" lon="-1.79595">
        <ele>75</ele>
        <time>2022-08-15T08:17:45Z</time>
      </trkpt>
      <trkpt lat="47.12307" lon="-1.79597">
        <ele>75</ele>
        <time>2022-08-15T08:17:47Z</time>
      </trkpt>
      <trkpt lat="47.12296" lon="-1.79597">
        <ele>75</ele>
        <time>2022-08-15T08:17:49Z</time>
      </trkpt>
      <trkpt lat="47.12284" lon="-1.79596">
        <ele>76</ele>
        <time>2022-08-15T08:17:51Z</time>
      </trkpt>
      <trkpt lat="47.12273" lon="-1.79596">
        <ele>75</ele>
        <time>2022-08-15T08:17:53Z</time>
      </trkpt>
      <trkpt lat="47.12262" lon="-1.79596">
        <ele>76</ele>
        <time>2022-08-15T08:17:55Z</time>
      </trkpt>
      <trkpt lat="47.1225" lon="-1.79595">
        <ele>76</ele>
        <time>2022-08-15T08:17:57Z</time>
      </trkpt>
      <trkpt lat="47.12239" lon="-1.79595">
        <ele>76</ele>
        <time>2022-08-15T08:17:59Z</time>
      </trkpt>
      <trkpt lat="47.12227" lon="-1.79595">
        <ele>76</ele>
        <time>2022-08-15T08:18:01Z</time>
      </trkpt>
      <trkpt lat="47.12217" lon="-1.79594">
        <ele>76</ele>
        <time>2022-08-15T08:18:03Z</time>
      </trkpt>
      <trkpt lat="47.12206" lon="-1.79594">
        <ele>76</ele>
        <time>2022-08-15T08:18:05Z</time>
      </trkpt>
      <trkpt lat="47.12195" lon="-1.79593">
        <ele>76</ele>
        <time>2022-08-15T08:18:07Z</time>
      </trkpt>
      <trkpt lat="47.12184" lon="-1.79593">
        <ele>76</ele>
        <time>2022-08-15T08:18:09Z</time>
      </trkpt>
      <trkpt lat="47.12172" lon="-1.79593">
        <ele>76</ele>
        <time>2022-08-15T08:18:11Z</time>
      </trkpt>
      <trkpt lat="47.12161" lon="-1.79593">
        <ele>76</ele>
        <time>2022-08-15T08:18:13Z</time>
      </trkpt>
      <trkpt lat="47.12149" lon="-1.79594">
        <ele>76</ele>
        <time>2022-08-15T08:18:15Z</time>
      </trkpt>
      <trkpt lat="47.12138" lon="-1.79594">
        <ele>76</ele>
        <time>2022-08-15T08:18:17Z</time>
      </trkpt>
      <trkpt lat="47.12126" lon="-1.79596">
        <ele>76</ele>
        <time>2022-08-15T08:18:19Z</time>
      </trkpt>
      <trkpt lat="47.12114" lon="-1.79597">
        <ele>76</ele>
        <time>2022-08-15T08:18:21Z</time>
      </trkpt>
      <trkpt lat="47.12102" lon="-1.79599">
        <ele>75</ele>
        <time>2022-08-15T08:18:23Z</time>
      </trkpt>
      <trkpt lat="47.12091" lon="-1.79604">
        <ele>74</ele>
        <time>2022-08-15T08:18:25Z</time>
      </trkpt>
      <trkpt lat="47.1208" lon="-1.79614">
        <ele>74</ele>
        <time>2022-08-15T08:18:27Z</time>
      </trkpt>
      <trkpt lat="47.12071" lon="-1.79623">
        <ele>74</ele>
        <time>2022-08-15T08:18:29Z</time>
      </trkpt>
      <trkpt lat="47.12062" lon="-1.79633">
        <ele>74</ele>
        <time>2022-08-15T08:18:31Z</time>
      </trkpt>
      <trkpt lat="47.12052" lon="-1.79643">
        <ele>74</ele>
        <time>2022-08-15T08:18:33Z</time>
      </trkpt>
      <trkpt lat="47.12042" lon="-1.79653">
        <ele>73</ele>
        <time>2022-08-15T08:18:35Z</time>
      </trkpt>
      <trkpt lat="47.12032" lon="-1.79664">
        <ele>73</ele>
        <time>2022-08-15T08:18:37Z</time>
      </trkpt>
      <trkpt lat="47.12023" lon="-1.79673">
        <ele>73</ele>
        <time>2022-08-15T08:18:39Z</time>
      </trkpt>
      <trkpt lat="47.12013" lon="-1.79683">
        <ele>73</ele>
        <time>2022-08-15T08:18:41Z</time>
      </trkpt>
      <trkpt lat="47.12004" lon="-1.79693">
        <ele>74</ele>
        <time>2022-08-15T08:18:43Z</time>
      </trkpt>
      <trkpt lat="47.11994" lon="-1.79703">
        <ele>73</ele>
        <time>2022-08-15T08:18:45Z</time>
      </trkpt>
      <trkpt lat="47.11984" lon="-1.79713">
        <ele>73</ele>
        <time>2022-08-15T08:18:47Z</time>
      </trkpt>
      <trkpt lat="47.11975" lon="-1.79724">
        <ele>73</ele>
        <time>2022-08-15T08:18:49Z</time>
      </trkpt>
      <trkpt lat="47.11966" lon="-1.79735">
        <ele>73</ele>
        <time>2022-08-15T08:18:51Z</time>
      </trkpt>
      <trkpt lat="47.11957" lon="-1.79746">
        <ele>73</ele>
        <time>2022-08-15T08:18:53Z</time>
      </trkpt>
      <trkpt lat="47.11947" lon="-1.79758">
        <ele>73</ele>
        <time>2022-08-15T08:18:55Z</time>
      </trkpt>
      <trkpt lat="47.11939" lon="-1.79769">
        <ele>73</ele>
        <time>2022-08-15T08:18:57Z</time>
      </trkpt>
      <trkpt lat="47.1193" lon="-1.79781">
        <ele>72</ele>
        <time>2022-08-15T08:18:59Z</time>
      </trkpt>
      <trkpt lat="47.1192" lon="-1.79793">
        <ele>73</ele>
        <time>2022-08-15T08:19:01Z</time>
      </trkpt>
      <trkpt lat="47.11911" lon="-1.79804">
        <ele>72</ele>
        <time>2022-08-15T08:19:03Z</time>
      </trkpt>
      <trkpt lat="47.11902" lon="-1.79814">
        <ele>73</ele>
        <time>2022-08-15T08:19:05Z</time>
      </trkpt>
      <trkpt lat="47.11893" lon="-1.79826">
        <ele>72</ele>
        <time>2022-08-15T08:19:07Z</time>
      </trkpt>
      <trkpt lat="47.11884" lon="-1.79837">
        <ele>72</ele>
        <time>2022-08-15T08:19:09Z</time>
      </trkpt>
      <trkpt lat="47.11874" lon="-1.79847">
        <ele>72</ele>
        <time>2022-08-15T08:19:11Z</time>
      </trkpt>
      <trkpt lat="47.11865" lon="-1.79857">
        <ele>72</ele>
        <time>2022-08-15T08:19:13Z</time>
      </trkpt>
      <trkpt lat="47.11855" lon="-1.79867">
        <ele>72</ele>
        <time>2022-08-15T08:19:15Z</time>
      </trkpt>
      <trkpt lat="47.11845" lon="-1.79878">
        <ele>71</ele>
        <time>2022-08-15T08:19:17Z</time>
      </trkpt>
      <trkpt lat="47.11836" lon="-1.79889">
        <ele>72</ele>
        <time>2022-08-15T08:19:19Z</time>
      </trkpt>
      <trkpt lat="47.11821" lon="-1.79904">
        <ele>71</ele>
        <time>2022-08-15T08:19:22Z</time>
      </trkpt>
      <trkpt lat="47.11812" lon="-1.79914">
        <ele>71</ele>
        <time>2022-08-15T08:19:24Z</time>
      </trkpt>
      <trkpt lat="47.11802" lon="-1.79925">
        <ele>71</ele>
        <time>2022-08-15T08:19:26Z</time>
      </trkpt>
      <trkpt lat="47.11788" lon="-1.7994">
        <ele>71</ele>
        <time>2022-08-15T08:19:29Z</time>
      </trkpt>
      <trkpt lat="47.11779" lon="-1.7995">
        <ele>71</ele>
        <time>2022-08-15T08:19:31Z</time>
      </trkpt>
      <trkpt lat="47.11772" lon="-1.7996">
        <ele>71</ele>
        <time>2022-08-15T08:19:33Z</time>
      </trkpt>
      <trkpt lat="47.11765" lon="-1.7997">
        <ele>71</ele>
        <time>2022-08-15T08:19:35Z</time>
      </trkpt>
      <trkpt lat="47.11753" lon="-1.7998">
        <ele>71</ele>
        <time>2022-08-15T08:19:38Z</time>
      </trkpt>
      <trkpt lat="47.11742" lon="-1.79979">
        <ele>70</ele>
        <time>2022-08-15T08:19:40Z</time>
      </trkpt>
      <trkpt lat="47.1173" lon="-1.79976">
        <ele>70</ele>
        <time>2022-08-15T08:19:42Z</time>
      </trkpt>
      <trkpt lat="47.11717" lon="-1.79975">
        <ele>70</ele>
        <time>2022-08-15T08:19:44Z</time>
      </trkpt>
      <trkpt lat="47.11705" lon="-1.79972">
        <ele>70</ele>
        <time>2022-08-15T08:19:46Z</time>
      </trkpt>
      <trkpt lat="47.11693" lon="-1.7997">
        <ele>71</ele>
        <time>2022-08-15T08:19:48Z</time>
      </trkpt>
      <trkpt lat="47.11681" lon="-1.79968">
        <ele>70</ele>
        <time>2022-08-15T08:19:50Z</time>
      </trkpt>
      <trkpt lat="47.11669" lon="-1.79966">
        <ele>71</ele>
        <time>2022-08-15T08:19:52Z</time>
      </trkpt>
      <trkpt lat="47.11656" lon="-1.79964">
        <ele>71</ele>
        <time>2022-08-15T08:19:54Z</time>
      </trkpt>
      <trkpt lat="47.11644" lon="-1.79962">
        <ele>71</ele>
        <time>2022-08-15T08:19:56Z</time>
      </trkpt>
      <trkpt lat="47.11632" lon="-1.79959">
        <ele>71</ele>
        <time>2022-08-15T08:19:58Z</time>
      </trkpt>
      <trkpt lat="47.1162" lon="-1.79957">
        <ele>71</ele>
        <time>2022-08-15T08:20:00Z</time>
      </trkpt>
      <trkpt lat="47.11608" lon="-1.79956">
        <ele>71</ele>
        <time>2022-08-15T08:20:02Z</time>
      </trkpt>
      <trkpt lat="47.11596" lon="-1.79954">
        <ele>70</ele>
        <time>2022-08-15T08:20:04Z</time>
      </trkpt>
      <trkpt lat="47.11584" lon="-1.79952">
        <ele>70</ele>
        <time>2022-08-15T08:20:06Z</time>
      </trkpt>
      <trkpt lat="47.11572" lon="-1.79953">
        <ele>69</ele>
        <time>2022-08-15T08:20:08Z</time>
      </trkpt>
      <trkpt lat="47.11561" lon="-1.79956">
        <ele>68</ele>
        <time>2022-08-15T08:20:10Z</time>
      </trkpt>
      <trkpt lat="47.11549" lon="-1.79961">
        <ele>68</ele>
        <time>2022-08-15T08:20:12Z</time>
      </trkpt>
      <trkpt lat="47.11538" lon="-1.79969">
        <ele>68</ele>
        <time>2022-08-15T08:20:14Z</time>
      </trkpt>
      <trkpt lat="47.11528" lon="-1.79979">
        <ele>69</ele>
        <time>2022-08-15T08:20:16Z</time>
      </trkpt>
      <trkpt lat="47.11518" lon="-1.79991">
        <ele>69</ele>
        <time>2022-08-15T08:20:18Z</time>
      </trkpt>
      <trkpt lat="47.11509" lon="-1.80003">
        <ele>69</ele>
        <time>2022-08-15T08:20:20Z</time>
      </trkpt>
      <trkpt lat="47.11499" lon="-1.80015">
        <ele>69</ele>
        <time>2022-08-15T08:20:22Z</time>
      </trkpt>
      <trkpt lat="47.1149" lon="-1.80026">
        <ele>68</ele>
        <time>2022-08-15T08:20:24Z</time>
      </trkpt>
      <trkpt lat="47.11482" lon="-1.80038">
        <ele>68</ele>
        <time>2022-08-15T08:20:26Z</time>
      </trkpt>
      <trkpt lat="47.11473" lon="-1.8005">
        <ele>68</ele>
        <time>2022-08-15T08:20:28Z</time>
      </trkpt>
      <trkpt lat="47.11465" lon="-1.80061">
        <ele>68</ele>
        <time>2022-08-15T08:20:30Z</time>
      </trkpt>
      <trkpt lat="47.11456" lon="-1.80072">
        <ele>68</ele>
        <time>2022-08-15T08:20:32Z</time>
      </trkpt>
      <trkpt lat="47.11447" lon="-1.80083">
        <ele>68</ele>
        <time>2022-08-15T08:20:34Z</time>
      </trkpt>
      <trkpt lat="47.11439" lon="-1.80094">
        <ele>68</ele>
        <time>2022-08-15T08:20:36Z</time>
      </trkpt>
      <trkpt lat="47.11431" lon="-1.80106">
        <ele>68</ele>
        <time>2022-08-15T08:20:38Z</time>
      </trkpt>
      <trkpt lat="47.11422" lon="-1.80118">
        <ele>67</ele>
        <time>2022-08-15T08:20:40Z</time>
      </trkpt>
      <trkpt lat="47.11413" lon="-1.8013">
        <ele>67</ele>
        <time>2022-08-15T08:20:42Z</time>
      </trkpt>
      <trkpt lat="47.11405" lon="-1.80141">
        <ele>67</ele>
        <time>2022-08-15T08:20:44Z</time>
      </trkpt>
      <trkpt lat="47.11396" lon="-1.80153">
        <ele>67</ele>
        <time>2022-08-15T08:20:46Z</time>
      </trkpt>
      <trkpt lat="47.11387" lon="-1.80165">
        <ele>67</ele>
        <time>2022-08-15T08:20:48Z</time>
      </trkpt>
      <trkpt lat="47.11378" lon="-1.80176">
        <ele>67</ele>
        <time>2022-08-15T08:20:50Z</time>
      </trkpt>
      <trkpt lat="47.1137" lon="-1.80186">
        <ele>67</ele>
        <time>2022-08-15T08:20:52Z</time>
      </trkpt>
      <trkpt lat="47.11361" lon="-1.80197">
        <ele>66</ele>
        <time>2022-08-15T08:20:54Z</time>
      </trkpt>
      <trkpt lat="47.11352" lon="-1.8021">
        <ele>66</ele>
        <time>2022-08-15T08:20:56Z</time>
      </trkpt>
      <trkpt lat="47.11344" lon="-1.80223">
        <ele>66</ele>
        <time>2022-08-15T08:20:58Z</time>
      </trkpt>
      <trkpt lat="47.11336" lon="-1.80235">
        <ele>66</ele>
        <time>2022-08-15T08:21:00Z</time>
      </trkpt>
      <trkpt lat="47.11327" lon="-1.80248">
        <ele>66</ele>
        <time>2022-08-15T08:21:02Z</time>
      </trkpt>
      <trkpt lat="47.1132" lon="-1.80261">
        <ele>65</ele>
        <time>2022-08-15T08:21:04Z</time>
      </trkpt>
      <trkpt lat="47.11311" lon="-1.80273">
        <ele>65</ele>
        <time>2022-08-15T08:21:06Z</time>
      </trkpt>
      <trkpt lat="47.11302" lon="-1.80284">
        <ele>65</ele>
        <time>2022-08-15T08:21:08Z</time>
      </trkpt>
      <trkpt lat="47.11294" lon="-1.80295">
        <ele>64</ele>
        <time>2022-08-15T08:21:10Z</time>
      </trkpt>
      <trkpt lat="47.11286" lon="-1.80307">
        <ele>64</ele>
        <time>2022-08-15T08:21:12Z</time>
      </trkpt>
      <trkpt lat="47.11277" lon="-1.8032">
        <ele>64</ele>
        <time>2022-08-15T08:21:14Z</time>
      </trkpt>
      <trkpt lat="47.11268" lon="-1.80332">
        <ele>64</ele>
        <time>2022-08-15T08:21:16Z</time>
      </trkpt>
      <trkpt lat="47.11259" lon="-1.80344">
        <ele>64</ele>
        <time>2022-08-15T08:21:18Z</time>
      </trkpt>
      <trkpt lat="47.1125" lon="-1.80355">
        <ele>64</ele>
        <time>2022-08-15T08:21:20Z</time>
      </trkpt>
      <trkpt lat="47.1124" lon="-1.80367">
        <ele>64</ele>
        <time>2022-08-15T08:21:22Z</time>
      </trkpt>
      <trkpt lat="47.11232" lon="-1.80378">
        <ele>64</ele>
        <time>2022-08-15T08:21:24Z</time>
      </trkpt>
      <trkpt lat="47.11223" lon="-1.8039">
        <ele>64</ele>
        <time>2022-08-15T08:21:26Z</time>
      </trkpt>
      <trkpt lat="47.11213" lon="-1.804">
        <ele>63</ele>
        <time>2022-08-15T08:21:28Z</time>
      </trkpt>
      <trkpt lat="47.11204" lon="-1.80411">
        <ele>63</ele>
        <time>2022-08-15T08:21:30Z</time>
      </trkpt>
      <trkpt lat="47.11194" lon="-1.80421">
        <ele>64</ele>
        <time>2022-08-15T08:21:32Z</time>
      </trkpt>
      <trkpt lat="47.11184" lon="-1.8043">
        <ele>63</ele>
        <time>2022-08-15T08:21:34Z</time>
      </trkpt>
      <trkpt lat="47.11173" lon="-1.80438">
        <ele>64</ele>
        <time>2022-08-15T08:21:36Z</time>
      </trkpt>
      <trkpt lat="47.11163" lon="-1.80446">
        <ele>64</ele>
        <time>2022-08-15T08:21:38Z</time>
      </trkpt>
      <trkpt lat="47.11152" lon="-1.80452">
        <ele>64</ele>
        <time>2022-08-15T08:21:40Z</time>
      </trkpt>
      <trkpt lat="47.11141" lon="-1.80459">
        <ele>64</ele>
        <time>2022-08-15T08:21:42Z</time>
      </trkpt>
      <trkpt lat="47.11131" lon="-1.80465">
        <ele>65</ele>
        <time>2022-08-15T08:21:44Z</time>
      </trkpt>
      <trkpt lat="47.11121" lon="-1.80473">
        <ele>65</ele>
        <time>2022-08-15T08:21:46Z</time>
      </trkpt>
      <trkpt lat="47.1111" lon="-1.8048">
        <ele>65</ele>
        <time>2022-08-15T08:21:48Z</time>
      </trkpt>
      <trkpt lat="47.111" lon="-1.80487">
        <ele>64</ele>
        <time>2022-08-15T08:21:50Z</time>
      </trkpt>
      <trkpt lat="47.11089" lon="-1.80494">
        <ele>65</ele>
        <time>2022-08-15T08:21:52Z</time>
      </trkpt>
      <trkpt lat="47.11079" lon="-1.80501">
        <ele>65</ele>
        <time>2022-08-15T08:21:54Z</time>
      </trkpt>
      <trkpt lat="47.11068" lon="-1.80509">
        <ele>65</ele>
        <time>2022-08-15T08:21:56Z</time>
      </trkpt>
      <trkpt lat="47.11057" lon="-1.80515">
        <ele>65</ele>
        <time>2022-08-15T08:21:58Z</time>
      </trkpt>
      <trkpt lat="47.11046" lon="-1.80522">
        <ele>65</ele>
        <time>2022-08-15T08:22:00Z</time>
      </trkpt>
      <trkpt lat="47.11036" lon="-1.80529">
        <ele>65</ele>
        <time>2022-08-15T08:22:02Z</time>
      </trkpt>
      <trkpt lat="47.11025" lon="-1.80536">
        <ele>65</ele>
        <time>2022-08-15T08:22:04Z</time>
      </trkpt>
      <trkpt lat="47.11014" lon="-1.80543">
        <ele>65</ele>
        <time>2022-08-15T08:22:06Z</time>
      </trkpt>
      <trkpt lat="47.11004" lon="-1.8055">
        <ele>64</ele>
        <time>2022-08-15T08:22:08Z</time>
      </trkpt>
      <trkpt lat="47.10994" lon="-1.80557">
        <ele>64</ele>
        <time>2022-08-15T08:22:10Z</time>
      </trkpt>
      <trkpt lat="47.10983" lon="-1.80564">
        <ele>64</ele>
        <time>2022-08-15T08:22:12Z</time>
      </trkpt>
      <trkpt lat="47.10972" lon="-1.8057">
        <ele>64</ele>
        <time>2022-08-15T08:22:14Z</time>
      </trkpt>
      <trkpt lat="47.10962" lon="-1.80578">
        <ele>64</ele>
        <time>2022-08-15T08:22:16Z</time>
      </trkpt>
      <trkpt lat="47.10951" lon="-1.80585">
        <ele>64</ele>
        <time>2022-08-15T08:22:18Z</time>
      </trkpt>
      <trkpt lat="47.10939" lon="-1.80592">
        <ele>64</ele>
        <time>2022-08-15T08:22:20Z</time>
      </trkpt>
      <trkpt lat="47.10928" lon="-1.80599">
        <ele>64</ele>
        <time>2022-08-15T08:22:22Z</time>
      </trkpt>
      <trkpt lat="47.10918" lon="-1.80607">
        <ele>64</ele>
        <time>2022-08-15T08:22:24Z</time>
      </trkpt>
      <trkpt lat="47.10907" lon="-1.80614">
        <ele>64</ele>
        <time>2022-08-15T08:22:26Z</time>
      </trkpt>
      <trkpt lat="47.10896" lon="-1.80622">
        <ele>64</ele>
        <time>2022-08-15T08:22:28Z</time>
      </trkpt>
      <trkpt lat="47.10885" lon="-1.80628">
        <ele>64</ele>
        <time>2022-08-15T08:22:30Z</time>
      </trkpt>
      <trkpt lat="47.10875" lon="-1.80635">
        <ele>64</ele>
        <time>2022-08-15T08:22:32Z</time>
      </trkpt>
      <trkpt lat="47.10865" lon="-1.8064">
        <ele>64</ele>
        <time>2022-08-15T08:22:34Z</time>
      </trkpt>
      <trkpt lat="47.10855" lon="-1.80644">
        <ele>64</ele>
        <time>2022-08-15T08:22:36Z</time>
      </trkpt>
      <trkpt lat="47.10844" lon="-1.80648">
        <ele>64</ele>
        <time>2022-08-15T08:22:38Z</time>
      </trkpt>
      <trkpt lat="47.10832" lon="-1.80652">
        <ele>64</ele>
        <time>2022-08-15T08:22:40Z</time>
      </trkpt>
      <trkpt lat="47.1082" lon="-1.80657">
        <ele>63</ele>
        <time>2022-08-15T08:22:42Z</time>
      </trkpt>
      <trkpt lat="47.10807" lon="-1.80661">
        <ele>63</ele>
        <time>2022-08-15T08:22:44Z</time>
      </trkpt>
      <trkpt lat="47.10795" lon="-1.80666">
        <ele>63</ele>
        <time>2022-08-15T08:22:46Z</time>
      </trkpt>
      <trkpt lat="47.10783" lon="-1.8067">
        <ele>63</ele>
        <time>2022-08-15T08:22:48Z</time>
      </trkpt>
      <trkpt lat="47.10771" lon="-1.80674">
        <ele>63</ele>
        <time>2022-08-15T08:22:50Z</time>
      </trkpt>
      <trkpt lat="47.1076" lon="-1.80678">
        <ele>62</ele>
        <time>2022-08-15T08:22:52Z</time>
      </trkpt>
      <trkpt lat="47.10747" lon="-1.80681">
        <ele>62</ele>
        <time>2022-08-15T08:22:54Z</time>
      </trkpt>
      <trkpt lat="47.10735" lon="-1.80683">
        <ele>62</ele>
        <time>2022-08-15T08:22:56Z</time>
      </trkpt>
      <trkpt lat="47.10723" lon="-1.80685">
        <ele>62</ele>
        <time>2022-08-15T08:22:58Z</time>
      </trkpt>
      <trkpt lat="47.10711" lon="-1.80687">
        <ele>62</ele>
        <time>2022-08-15T08:23:00Z</time>
      </trkpt>
      <trkpt lat="47.10699" lon="-1.80688">
        <ele>62</ele>
        <time>2022-08-15T08:23:02Z</time>
      </trkpt>
      <trkpt lat="47.10687" lon="-1.80688">
        <ele>62</ele>
        <time>2022-08-15T08:23:04Z</time>
      </trkpt>
      <trkpt lat="47.10675" lon="-1.8069">
        <ele>62</ele>
        <time>2022-08-15T08:23:06Z</time>
      </trkpt>
      <trkpt lat="47.10663" lon="-1.80692">
        <ele>63</ele>
        <time>2022-08-15T08:23:08Z</time>
      </trkpt>
      <trkpt lat="47.10652" lon="-1.80692">
        <ele>63</ele>
        <time>2022-08-15T08:23:10Z</time>
      </trkpt>
      <trkpt lat="47.1064" lon="-1.80694">
        <ele>63</ele>
        <time>2022-08-15T08:23:12Z</time>
      </trkpt>
      <trkpt lat="47.10628" lon="-1.80697">
        <ele>63</ele>
        <time>2022-08-15T08:23:14Z</time>
      </trkpt>
      <trkpt lat="47.10616" lon="-1.80701">
        <ele>62</ele>
        <time>2022-08-15T08:23:16Z</time>
      </trkpt>
      <trkpt lat="47.10603" lon="-1.80707">
        <ele>63</ele>
        <time>2022-08-15T08:23:18Z</time>
      </trkpt>
      <trkpt lat="47.10591" lon="-1.80714">
        <ele>63</ele>
        <time>2022-08-15T08:23:20Z</time>
      </trkpt>
      <trkpt lat="47.1058" lon="-1.80723">
        <ele>62</ele>
        <time>2022-08-15T08:23:22Z</time>
      </trkpt>
      <trkpt lat="47.1057" lon="-1.80734">
        <ele>62</ele>
        <time>2022-08-15T08:23:24Z</time>
      </trkpt>
      <trkpt lat="47.10561" lon="-1.80745">
        <ele>62</ele>
        <time>2022-08-15T08:23:26Z</time>
      </trkpt>
      <trkpt lat="47.10551" lon="-1.80756">
        <ele>61</ele>
        <time>2022-08-15T08:23:28Z</time>
      </trkpt>
      <trkpt lat="47.10542" lon="-1.80767">
        <ele>61</ele>
        <time>2022-08-15T08:23:30Z</time>
      </trkpt>
      <trkpt lat="47.10534" lon="-1.80777">
        <ele>60</ele>
        <time>2022-08-15T08:23:32Z</time>
      </trkpt>
      <trkpt lat="47.10526" lon="-1.80788">
        <ele>60</ele>
        <time>2022-08-15T08:23:34Z</time>
      </trkpt>
      <trkpt lat="47.10518" lon="-1.80801">
        <ele>60</ele>
        <time>2022-08-15T08:23:36Z</time>
      </trkpt>
      <trkpt lat="47.10508" lon="-1.8081">
        <ele>60</ele>
        <time>2022-08-15T08:23:38Z</time>
      </trkpt>
      <trkpt lat="47.10497" lon="-1.80817">
        <ele>60</ele>
        <time>2022-08-15T08:23:40Z</time>
      </trkpt>
      <trkpt lat="47.10486" lon="-1.80826">
        <ele>59</ele>
        <time>2022-08-15T08:23:42Z</time>
      </trkpt>
      <trkpt lat="47.10478" lon="-1.80839">
        <ele>59</ele>
        <time>2022-08-15T08:23:44Z</time>
      </trkpt>
      <trkpt lat="47.1047" lon="-1.80852">
        <ele>58</ele>
        <time>2022-08-15T08:23:46Z</time>
      </trkpt>
      <trkpt lat="47.10461" lon="-1.80865">
        <ele>59</ele>
        <time>2022-08-15T08:23:48Z</time>
      </trkpt>
      <trkpt lat="47.10453" lon="-1.80878">
        <ele>59</ele>
        <time>2022-08-15T08:23:50Z</time>
      </trkpt>
      <trkpt lat="47.10446" lon="-1.80891">
        <ele>59</ele>
        <time>2022-08-15T08:23:52Z</time>
      </trkpt>
      <trkpt lat="47.10439" lon="-1.80904">
        <ele>59</ele>
        <time>2022-08-15T08:23:54Z</time>
      </trkpt>
      <trkpt lat="47.10431" lon="-1.80915">
        <ele>59</ele>
        <time>2022-08-15T08:23:56Z</time>
      </trkpt>
      <trkpt lat="47.10424" lon="-1.80927">
        <ele>60</ele>
        <time>2022-08-15T08:23:58Z</time>
      </trkpt>
      <trkpt lat="47.10416" lon="-1.80939">
        <ele>60</ele>
        <time>2022-08-15T08:24:00Z</time>
      </trkpt>
      <trkpt lat="47.10408" lon="-1.80951">
        <ele>60</ele>
        <time>2022-08-15T08:24:02Z</time>
      </trkpt>
      <trkpt lat="47.10401" lon="-1.80963">
        <ele>60</ele>
        <time>2022-08-15T08:24:04Z</time>
      </trkpt>
      <trkpt lat="47.10394" lon="-1.80974">
        <ele>61</ele>
        <time>2022-08-15T08:24:06Z</time>
      </trkpt>
      <trkpt lat="47.10388" lon="-1.80985">
        <ele>61</ele>
        <time>2022-08-15T08:24:08Z</time>
      </trkpt>
      <trkpt lat="47.10382" lon="-1.80996">
        <ele>61</ele>
        <time>2022-08-15T08:24:10Z</time>
      </trkpt>
      <trkpt lat="47.10377" lon="-1.81007">
        <ele>62</ele>
        <time>2022-08-15T08:24:12Z</time>
      </trkpt>
      <trkpt lat="47.10372" lon="-1.8102">
        <ele>61</ele>
        <time>2022-08-15T08:24:14Z</time>
      </trkpt>
      <trkpt lat="47.10367" lon="-1.81033">
        <ele>61</ele>
        <time>2022-08-15T08:24:16Z</time>
      </trkpt>
      <trkpt lat="47.1036" lon="-1.81048">
        <ele>61</ele>
        <time>2022-08-15T08:24:19Z</time>
      </trkpt>
      <trkpt lat="47.1035" lon="-1.81043">
        <ele>62</ele>
        <time>2022-08-15T08:24:21Z</time>
      </trkpt>
      <trkpt lat="47.10343" lon="-1.81029">
        <ele>62</ele>
        <time>2022-08-15T08:24:23Z</time>
      </trkpt>
      <trkpt lat="47.10334" lon="-1.81016">
        <ele>62</ele>
        <time>2022-08-15T08:24:25Z</time>
      </trkpt>
      <trkpt lat="47.10322" lon="-1.81013">
        <ele>61</ele>
        <time>2022-08-15T08:24:27Z</time>
      </trkpt>
      <trkpt lat="47.10309" lon="-1.8101">
        <ele>59</ele>
        <time>2022-08-15T08:24:29Z</time>
      </trkpt>
      <trkpt lat="47.10296" lon="-1.81008">
        <ele>59</ele>
        <time>2022-08-15T08:24:31Z</time>
      </trkpt>
      <trkpt lat="47.10282" lon="-1.81007">
        <ele>58</ele>
        <time>2022-08-15T08:24:33Z</time>
      </trkpt>
      <trkpt lat="47.1027" lon="-1.81008">
        <ele>57</ele>
        <time>2022-08-15T08:24:35Z</time>
      </trkpt>
      <trkpt lat="47.10257" lon="-1.81009">
        <ele>57</ele>
        <time>2022-08-15T08:24:37Z</time>
      </trkpt>
      <trkpt lat="47.10244" lon="-1.81011">
        <ele>57</ele>
        <time>2022-08-15T08:24:39Z</time>
      </trkpt>
      <trkpt lat="47.10232" lon="-1.81012">
        <ele>57</ele>
        <time>2022-08-15T08:24:41Z</time>
      </trkpt>
      <trkpt lat="47.10219" lon="-1.81009">
        <ele>59</ele>
        <time>2022-08-15T08:24:43Z</time>
      </trkpt>
      <trkpt lat="47.10206" lon="-1.81004">
        <ele>61</ele>
        <time>2022-08-15T08:24:45Z</time>
      </trkpt>
      <trkpt lat="47.10193" lon="-1.80998">
        <ele>63</ele>
        <time>2022-08-15T08:24:47Z</time>
      </trkpt>
      <trkpt lat="47.10181" lon="-1.80993">
        <ele>62</ele>
        <time>2022-08-15T08:24:49Z</time>
      </trkpt>
      <trkpt lat="47.10169" lon="-1.80986">
        <ele>62</ele>
        <time>2022-08-15T08:24:51Z</time>
      </trkpt>
      <trkpt lat="47.10157" lon="-1.8098">
        <ele>61</ele>
        <time>2022-08-15T08:24:53Z</time>
      </trkpt>
      <trkpt lat="47.10146" lon="-1.80974">
        <ele>60</ele>
        <time>2022-08-15T08:24:55Z</time>
      </trkpt>
      <trkpt lat="47.10135" lon="-1.80971">
        <ele>59</ele>
        <time>2022-08-15T08:24:57Z</time>
      </trkpt>
      <trkpt lat="47.10123" lon="-1.8097">
        <ele>58</ele>
        <time>2022-08-15T08:24:59Z</time>
      </trkpt>
      <trkpt lat="47.10111" lon="-1.8097">
        <ele>58</ele>
        <time>2022-08-15T08:25:01Z</time>
      </trkpt>
      <trkpt lat="47.10098" lon="-1.80971">
        <ele>57</ele>
        <time>2022-08-15T08:25:03Z</time>
      </trkpt>
      <trkpt lat="47.10085" lon="-1.80971">
        <ele>57</ele>
        <time>2022-08-15T08:25:05Z</time>
      </trkpt>
      <trkpt lat="47.10073" lon="-1.80972">
        <ele>57</ele>
        <time>2022-08-15T08:25:07Z</time>
      </trkpt>
      <trkpt lat="47.10062" lon="-1.80972">
        <ele>57</ele>
        <time>2022-08-15T08:25:09Z</time>
      </trkpt>
      <trkpt lat="47.1005" lon="-1.80972">
        <ele>57</ele>
        <time>2022-08-15T08:25:11Z</time>
      </trkpt>
      <trkpt lat="47.10039" lon="-1.80973">
        <ele>57</ele>
        <time>2022-08-15T08:25:13Z</time>
      </trkpt>
      <trkpt lat="47.10027" lon="-1.80975">
        <ele>56</ele>
        <time>2022-08-15T08:25:15Z</time>
      </trkpt>
      <trkpt lat="47.10015" lon="-1.80976">
        <ele>56</ele>
        <time>2022-08-15T08:25:17Z</time>
      </trkpt>
      <trkpt lat="47.10003" lon="-1.80977">
        <ele>57</ele>
        <time>2022-08-15T08:25:19Z</time>
      </trkpt>
      <trkpt lat="47.09992" lon="-1.80977">
        <ele>57</ele>
        <time>2022-08-15T08:25:21Z</time>
      </trkpt>
      <trkpt lat="47.0998" lon="-1.80977">
        <ele>57</ele>
        <time>2022-08-15T08:25:23Z</time>
      </trkpt>
      <trkpt lat="47.09968" lon="-1.80977">
        <ele>58</ele>
        <time>2022-08-15T08:25:25Z</time>
      </trkpt>
      <trkpt lat="47.09957" lon="-1.80977">
        <ele>58</ele>
        <time>2022-08-15T08:25:27Z</time>
      </trkpt>
      <trkpt lat="47.09946" lon="-1.80979">
        <ele>58</ele>
        <time>2022-08-15T08:25:29Z</time>
      </trkpt>
      <trkpt lat="47.09934" lon="-1.80981">
        <ele>58</ele>
        <time>2022-08-15T08:25:31Z</time>
      </trkpt>
      <trkpt lat="47.09922" lon="-1.80981">
        <ele>58</ele>
        <time>2022-08-15T08:25:33Z</time>
      </trkpt>
      <trkpt lat="47.09911" lon="-1.80983">
        <ele>58</ele>
        <time>2022-08-15T08:25:35Z</time>
      </trkpt>
      <trkpt lat="47.09899" lon="-1.80984">
        <ele>59</ele>
        <time>2022-08-15T08:25:37Z</time>
      </trkpt>
      <trkpt lat="47.09887" lon="-1.80984">
        <ele>59</ele>
        <time>2022-08-15T08:25:39Z</time>
      </trkpt>
      <trkpt lat="47.09875" lon="-1.80985">
        <ele>60</ele>
        <time>2022-08-15T08:25:41Z</time>
      </trkpt>
      <trkpt lat="47.09864" lon="-1.80986">
        <ele>60</ele>
        <time>2022-08-15T08:25:43Z</time>
      </trkpt>
      <trkpt lat="47.09852" lon="-1.80987">
        <ele>60</ele>
        <time>2022-08-15T08:25:45Z</time>
      </trkpt>
      <trkpt lat="47.0984" lon="-1.80987">
        <ele>60</ele>
        <time>2022-08-15T08:25:47Z</time>
      </trkpt>
      <trkpt lat="47.09829" lon="-1.80988">
        <ele>60</ele>
        <time>2022-08-15T08:25:49Z</time>
      </trkpt>
      <trkpt lat="47.09819" lon="-1.80989">
        <ele>60</ele>
        <time>2022-08-15T08:25:51Z</time>
      </trkpt>
      <trkpt lat="47.09809" lon="-1.80989">
        <ele>60</ele>
        <time>2022-08-15T08:25:53Z</time>
      </trkpt>
      <trkpt lat="47.09797" lon="-1.80989">
        <ele>61</ele>
        <time>2022-08-15T08:25:55Z</time>
      </trkpt>
      <trkpt lat="47.09786" lon="-1.80988">
        <ele>61</ele>
        <time>2022-08-15T08:25:57Z</time>
      </trkpt>
      <trkpt lat="47.09775" lon="-1.80986">
        <ele>60</ele>
        <time>2022-08-15T08:25:59Z</time>
      </trkpt>
      <trkpt lat="47.09763" lon="-1.80984">
        <ele>60</ele>
        <time>2022-08-15T08:26:01Z</time>
      </trkpt>
      <trkpt lat="47.0975" lon="-1.80982">
        <ele>60</ele>
        <time>2022-08-15T08:26:03Z</time>
      </trkpt>
      <trkpt lat="47.09739" lon="-1.80979">
        <ele>60</ele>
        <time>2022-08-15T08:26:05Z</time>
      </trkpt>
      <trkpt lat="47.09726" lon="-1.80975">
        <ele>60</ele>
        <time>2022-08-15T08:26:07Z</time>
      </trkpt>
      <trkpt lat="47.09713" lon="-1.80973">
        <ele>61</ele>
        <time>2022-08-15T08:26:09Z</time>
      </trkpt>
      <trkpt lat="47.09701" lon="-1.8097">
        <ele>60</ele>
        <time>2022-08-15T08:26:11Z</time>
      </trkpt>
      <trkpt lat="47.09688" lon="-1.80968">
        <ele>60</ele>
        <time>2022-08-15T08:26:13Z</time>
      </trkpt>
      <trkpt lat="47.09676" lon="-1.80965">
        <ele>59</ele>
        <time>2022-08-15T08:26:15Z</time>
      </trkpt>
      <trkpt lat="47.09663" lon="-1.80962">
        <ele>59</ele>
        <time>2022-08-15T08:26:17Z</time>
      </trkpt>
      <trkpt lat="47.09651" lon="-1.80959">
        <ele>59</ele>
        <time>2022-08-15T08:26:19Z</time>
      </trkpt>
      <trkpt lat="47.0964" lon="-1.80957">
        <ele>59</ele>
        <time>2022-08-15T08:26:21Z</time>
      </trkpt>
      <trkpt lat="47.09628" lon="-1.80954">
        <ele>59</ele>
        <time>2022-08-15T08:26:23Z</time>
      </trkpt>
      <trkpt lat="47.09618" lon="-1.8095">
        <ele>59</ele>
        <time>2022-08-15T08:26:25Z</time>
      </trkpt>
      <trkpt lat="47.09607" lon="-1.80949">
        <ele>59</ele>
        <time>2022-08-15T08:26:27Z</time>
      </trkpt>
      <trkpt lat="47.09594" lon="-1.80946">
        <ele>59</ele>
        <time>2022-08-15T08:26:29Z</time>
      </trkpt>
      <trkpt lat="47.09582" lon="-1.80941">
        <ele>59</ele>
        <time>2022-08-15T08:26:31Z</time>
      </trkpt>
      <trkpt lat="47.0957" lon="-1.80939">
        <ele>59</ele>
        <time>2022-08-15T08:26:33Z</time>
      </trkpt>
      <trkpt lat="47.09557" lon="-1.80936">
        <ele>59</ele>
        <time>2022-08-15T08:26:35Z</time>
      </trkpt>
      <trkpt lat="47.09545" lon="-1.80933">
        <ele>59</ele>
        <time>2022-08-15T08:26:37Z</time>
      </trkpt>
      <trkpt lat="47.09533" lon="-1.8093">
        <ele>59</ele>
        <time>2022-08-15T08:26:39Z</time>
      </trkpt>
      <trkpt lat="47.09521" lon="-1.80928">
        <ele>59</ele>
        <time>2022-08-15T08:26:41Z</time>
      </trkpt>
      <trkpt lat="47.09509" lon="-1.80925">
        <ele>58</ele>
        <time>2022-08-15T08:26:43Z</time>
      </trkpt>
      <trkpt lat="47.09496" lon="-1.80924">
        <ele>58</ele>
        <time>2022-08-15T08:26:45Z</time>
      </trkpt>
      <trkpt lat="47.09485" lon="-1.80925">
        <ele>58</ele>
        <time>2022-08-15T08:26:47Z</time>
      </trkpt>
      <trkpt lat="47.09473" lon="-1.80931">
        <ele>58</ele>
        <time>2022-08-15T08:26:49Z</time>
      </trkpt>
      <trkpt lat="47.09462" lon="-1.80937">
        <ele>58</ele>
        <time>2022-08-15T08:26:51Z</time>
      </trkpt>
      <trkpt lat="47.09451" lon="-1.80944">
        <ele>58</ele>
        <time>2022-08-15T08:26:53Z</time>
      </trkpt>
      <trkpt lat="47.0944" lon="-1.80951">
        <ele>58</ele>
        <time>2022-08-15T08:26:55Z</time>
      </trkpt>
      <trkpt lat="47.09429" lon="-1.80959">
        <ele>58</ele>
        <time>2022-08-15T08:26:57Z</time>
      </trkpt>
      <trkpt lat="47.09417" lon="-1.80966">
        <ele>58</ele>
        <time>2022-08-15T08:26:59Z</time>
      </trkpt>
      <trkpt lat="47.09405" lon="-1.80973">
        <ele>58</ele>
        <time>2022-08-15T08:27:01Z</time>
      </trkpt>
      <trkpt lat="47.09392" lon="-1.8098">
        <ele>58</ele>
        <time>2022-08-15T08:27:03Z</time>
      </trkpt>
      <trkpt lat="47.0938" lon="-1.80988">
        <ele>58</ele>
        <time>2022-08-15T08:27:05Z</time>
      </trkpt>
      <trkpt lat="47.09367" lon="-1.80996">
        <ele>57</ele>
        <time>2022-08-15T08:27:07Z</time>
      </trkpt>
      <trkpt lat="47.09355" lon="-1.81003">
        <ele>57</ele>
        <time>2022-08-15T08:27:09Z</time>
      </trkpt>
      <trkpt lat="47.09342" lon="-1.8101">
        <ele>56</ele>
        <time>2022-08-15T08:27:11Z</time>
      </trkpt>
      <trkpt lat="47.09329" lon="-1.81018">
        <ele>56</ele>
        <time>2022-08-15T08:27:13Z</time>
      </trkpt>
      <trkpt lat="47.09316" lon="-1.81026">
        <ele>56</ele>
        <time>2022-08-15T08:27:15Z</time>
      </trkpt>
      <trkpt lat="47.09304" lon="-1.81033">
        <ele>56</ele>
        <time>2022-08-15T08:27:17Z</time>
      </trkpt>
      <trkpt lat="47.09291" lon="-1.81041">
        <ele>55</ele>
        <time>2022-08-15T08:27:19Z</time>
      </trkpt>
      <trkpt lat="47.09279" lon="-1.81049">
        <ele>55</ele>
        <time>2022-08-15T08:27:21Z</time>
      </trkpt>
      <trkpt lat="47.09266" lon="-1.81056">
        <ele>55</ele>
        <time>2022-08-15T08:27:23Z</time>
      </trkpt>
      <trkpt lat="47.09254" lon="-1.81063">
        <ele>54</ele>
        <time>2022-08-15T08:27:25Z</time>
      </trkpt>
      <trkpt lat="47.09244" lon="-1.8107">
        <ele>54</ele>
        <time>2022-08-15T08:27:27Z</time>
      </trkpt>
      <trkpt lat="47.09235" lon="-1.81079">
        <ele>54</ele>
        <time>2022-08-15T08:27:29Z</time>
      </trkpt>
      <trkpt lat="47.09225" lon="-1.81089">
        <ele>54</ele>
        <time>2022-08-15T08:27:32Z</time>
      </trkpt>
      <trkpt lat="47.09215" lon="-1.81085">
        <ele>55</ele>
        <time>2022-08-15T08:27:34Z</time>
      </trkpt>
      <trkpt lat="47.09205" lon="-1.81078">
        <ele>55</ele>
        <time>2022-08-15T08:27:36Z</time>
      </trkpt>
      <trkpt lat="47.09195" lon="-1.81069">
        <ele>55</ele>
        <time>2022-08-15T08:27:38Z</time>
      </trkpt>
      <trkpt lat="47.09184" lon="-1.8106">
        <ele>55</ele>
        <time>2022-08-15T08:27:40Z</time>
      </trkpt>
      <trkpt lat="47.09175" lon="-1.81053">
        <ele>55</ele>
        <time>2022-08-15T08:27:42Z</time>
      </trkpt>
      <trkpt lat="47.09165" lon="-1.81061">
        <ele>55</ele>
        <time>2022-08-15T08:27:44Z</time>
      </trkpt>
      <trkpt lat="47.09158" lon="-1.81077">
        <ele>54</ele>
        <time>2022-08-15T08:27:46Z</time>
      </trkpt>
      <trkpt lat="47.09149" lon="-1.81093">
        <ele>54</ele>
        <time>2022-08-15T08:27:48Z</time>
      </trkpt>
      <trkpt lat="47.09139" lon="-1.81105">
        <ele>54</ele>
        <time>2022-08-15T08:27:50Z</time>
      </trkpt>
      <trkpt lat="47.09127" lon="-1.81112">
        <ele>53</ele>
        <time>2022-08-15T08:27:52Z</time>
      </trkpt>
      <trkpt lat="47.09114" lon="-1.81116">
        <ele>53</ele>
        <time>2022-08-15T08:27:54Z</time>
      </trkpt>
      <trkpt lat="47.09102" lon="-1.81118">
        <ele>52</ele>
        <time>2022-08-15T08:27:56Z</time>
      </trkpt>
      <trkpt lat="47.09089" lon="-1.8112">
        <ele>51</ele>
        <time>2022-08-15T08:27:58Z</time>
      </trkpt>
      <trkpt lat="47.09075" lon="-1.81125">
        <ele>51</ele>
        <time>2022-08-15T08:28:00Z</time>
      </trkpt>
      <trkpt lat="47.09064" lon="-1.81134">
        <ele>51</ele>
        <time>2022-08-15T08:28:02Z</time>
      </trkpt>
      <trkpt lat="47.09055" lon="-1.81146">
        <ele>51</ele>
        <time>2022-08-15T08:28:04Z</time>
      </trkpt>
      <trkpt lat="47.09049" lon="-1.81162">
        <ele>52</ele>
        <time>2022-08-15T08:28:06Z</time>
      </trkpt>
      <trkpt lat="47.09045" lon="-1.81178">
        <ele>52</ele>
        <time>2022-08-15T08:28:08Z</time>
      </trkpt>
      <trkpt lat="47.0904" lon="-1.81194">
        <ele>53</ele>
        <time>2022-08-15T08:28:10Z</time>
      </trkpt>
      <trkpt lat="47.09035" lon="-1.81209">
        <ele>53</ele>
        <time>2022-08-15T08:28:12Z</time>
      </trkpt>
      <trkpt lat="47.09031" lon="-1.81224">
        <ele>53</ele>
        <time>2022-08-15T08:28:14Z</time>
      </trkpt>
      <trkpt lat="47.09026" lon="-1.81238">
        <ele>54</ele>
        <time>2022-08-15T08:28:16Z</time>
      </trkpt>
      <trkpt lat="47.0902" lon="-1.81251">
        <ele>54</ele>
        <time>2022-08-15T08:28:18Z</time>
      </trkpt>
      <trkpt lat="47.09012" lon="-1.81263">
        <ele>54</ele>
        <time>2022-08-15T08:28:20Z</time>
      </trkpt>
      <trkpt lat="47.09005" lon="-1.81274">
        <ele>54</ele>
        <time>2022-08-15T08:28:22Z</time>
      </trkpt>
      <trkpt lat="47.08997" lon="-1.81286">
        <ele>55</ele>
        <time>2022-08-15T08:28:24Z</time>
      </trkpt>
      <trkpt lat="47.08989" lon="-1.81298">
        <ele>55</ele>
        <time>2022-08-15T08:28:26Z</time>
      </trkpt>
      <trkpt lat="47.08981" lon="-1.81308">
        <ele>55</ele>
        <time>2022-08-15T08:28:28Z</time>
      </trkpt>
      <trkpt lat="47.08973" lon="-1.81319">
        <ele>55</ele>
        <time>2022-08-15T08:28:30Z</time>
      </trkpt>
      <trkpt lat="47.08965" lon="-1.81331">
        <ele>55</ele>
        <time>2022-08-15T08:28:32Z</time>
      </trkpt>
      <trkpt lat="47.08957" lon="-1.81342">
        <ele>55</ele>
        <time>2022-08-15T08:28:34Z</time>
      </trkpt>
      <trkpt lat="47.08948" lon="-1.81353">
        <ele>56</ele>
        <time>2022-08-15T08:28:36Z</time>
      </trkpt>
      <trkpt lat="47.08938" lon="-1.81363">
        <ele>56</ele>
        <time>2022-08-15T08:28:38Z</time>
      </trkpt>
      <trkpt lat="47.08929" lon="-1.81372">
        <ele>56</ele>
        <time>2022-08-15T08:28:40Z</time>
      </trkpt>
      <trkpt lat="47.08919" lon="-1.81381">
        <ele>56</ele>
        <time>2022-08-15T08:28:42Z</time>
      </trkpt>
      <trkpt lat="47.0891" lon="-1.81391">
        <ele>57</ele>
        <time>2022-08-15T08:28:44Z</time>
      </trkpt>
      <trkpt lat="47.089" lon="-1.814">
        <ele>56</ele>
        <time>2022-08-15T08:28:46Z</time>
      </trkpt>
      <trkpt lat="47.08891" lon="-1.81411">
        <ele>57</ele>
        <time>2022-08-15T08:28:48Z</time>
      </trkpt>
      <trkpt lat="47.08882" lon="-1.81423">
        <ele>57</ele>
        <time>2022-08-15T08:28:50Z</time>
      </trkpt>
      <trkpt lat="47.08874" lon="-1.81434">
        <ele>57</ele>
        <time>2022-08-15T08:28:52Z</time>
      </trkpt>
      <trkpt lat="47.08866" lon="-1.81444">
        <ele>57</ele>
        <time>2022-08-15T08:28:54Z</time>
      </trkpt>
      <trkpt lat="47.08856" lon="-1.81454">
        <ele>57</ele>
        <time>2022-08-15T08:28:56Z</time>
      </trkpt>
      <trkpt lat="47.08847" lon="-1.81463">
        <ele>58</ele>
        <time>2022-08-15T08:28:58Z</time>
      </trkpt>
      <trkpt lat="47.08837" lon="-1.81472">
        <ele>58</ele>
        <time>2022-08-15T08:29:00Z</time>
      </trkpt>
      <trkpt lat="47.08828" lon="-1.81479">
        <ele>59</ele>
        <time>2022-08-15T08:29:02Z</time>
      </trkpt>
      <trkpt lat="47.08817" lon="-1.81485">
        <ele>59</ele>
        <time>2022-08-15T08:29:04Z</time>
      </trkpt>
      <trkpt lat="47.08809" lon="-1.81493">
        <ele>59</ele>
        <time>2022-08-15T08:29:06Z</time>
      </trkpt>
      <trkpt lat="47.08799" lon="-1.81504">
        <ele>59</ele>
        <time>2022-08-15T08:29:08Z</time>
      </trkpt>
      <trkpt lat="47.08788" lon="-1.81512">
        <ele>60</ele>
        <time>2022-08-15T08:29:10Z</time>
      </trkpt>
      <trkpt lat="47.08778" lon="-1.81522">
        <ele>60</ele>
        <time>2022-08-15T08:29:12Z</time>
      </trkpt>
      <trkpt lat="47.08767" lon="-1.81531">
        <ele>60</ele>
        <time>2022-08-15T08:29:14Z</time>
      </trkpt>
      <trkpt lat="47.08757" lon="-1.8154">
        <ele>60</ele>
        <time>2022-08-15T08:29:16Z</time>
      </trkpt>
      <trkpt lat="47.08747" lon="-1.81552">
        <ele>61</ele>
        <time>2022-08-15T08:29:18Z</time>
      </trkpt>
      <trkpt lat="47.08738" lon="-1.81564">
        <ele>61</ele>
        <time>2022-08-15T08:29:20Z</time>
      </trkpt>
      <trkpt lat="47.0873" lon="-1.81578">
        <ele>62</ele>
        <time>2022-08-15T08:29:22Z</time>
      </trkpt>
      <trkpt lat="47.08725" lon="-1.81594">
        <ele>63</ele>
        <time>2022-08-15T08:29:24Z</time>
      </trkpt>
      <trkpt lat="47.08719" lon="-1.81609">
        <ele>63</ele>
        <time>2022-08-15T08:29:26Z</time>
      </trkpt>
      <trkpt lat="47.08713" lon="-1.81625">
        <ele>63</ele>
        <time>2022-08-15T08:29:28Z</time>
      </trkpt>
      <trkpt lat="47.08707" lon="-1.81641">
        <ele>63</ele>
        <time>2022-08-15T08:29:30Z</time>
      </trkpt>
      <trkpt lat="47.08702" lon="-1.81656">
        <ele>64</ele>
        <time>2022-08-15T08:29:32Z</time>
      </trkpt>
      <trkpt lat="47.08695" lon="-1.81672">
        <ele>64</ele>
        <time>2022-08-15T08:29:34Z</time>
      </trkpt>
      <trkpt lat="47.08685" lon="-1.81684">
        <ele>63</ele>
        <time>2022-08-15T08:29:36Z</time>
      </trkpt>
      <trkpt lat="47.08674" lon="-1.81691">
        <ele>63</ele>
        <time>2022-08-15T08:29:38Z</time>
      </trkpt>
      <trkpt lat="47.08663" lon="-1.81696">
        <ele>63</ele>
        <time>2022-08-15T08:29:40Z</time>
      </trkpt>
      <trkpt lat="47.08651" lon="-1.81697">
        <ele>63</ele>
        <time>2022-08-15T08:29:42Z</time>
      </trkpt>
      <trkpt lat="47.08639" lon="-1.81694">
        <ele>64</ele>
        <time>2022-08-15T08:29:44Z</time>
      </trkpt>
      <trkpt lat="47.08627" lon="-1.81691">
        <ele>64</ele>
        <time>2022-08-15T08:29:46Z</time>
      </trkpt>
      <trkpt lat="47.08616" lon="-1.81687">
        <ele>64</ele>
        <time>2022-08-15T08:29:48Z</time>
      </trkpt>
      <trkpt lat="47.08604" lon="-1.81683">
        <ele>64</ele>
        <time>2022-08-15T08:29:50Z</time>
      </trkpt>
      <trkpt lat="47.08592" lon="-1.8168">
        <ele>65</ele>
        <time>2022-08-15T08:29:52Z</time>
      </trkpt>
      <trkpt lat="47.0858" lon="-1.81676">
        <ele>65</ele>
        <time>2022-08-15T08:29:54Z</time>
      </trkpt>
      <trkpt lat="47.08568" lon="-1.81673">
        <ele>65</ele>
        <time>2022-08-15T08:29:56Z</time>
      </trkpt>
      <trkpt lat="47.08556" lon="-1.81671">
        <ele>64</ele>
        <time>2022-08-15T08:29:58Z</time>
      </trkpt>
      <trkpt lat="47.08544" lon="-1.81669">
        <ele>65</ele>
        <time>2022-08-15T08:30:00Z</time>
      </trkpt>
      <trkpt lat="47.08532" lon="-1.81667">
        <ele>65</ele>
        <time>2022-08-15T08:30:02Z</time>
      </trkpt>
      <trkpt lat="47.0852" lon="-1.81665">
        <ele>65</ele>
        <time>2022-08-15T08:30:04Z</time>
      </trkpt>
      <trkpt lat="47.08508" lon="-1.81663">
        <ele>65</ele>
        <time>2022-08-15T08:30:06Z</time>
      </trkpt>
      <trkpt lat="47.08496" lon="-1.81661">
        <ele>65</ele>
        <time>2022-08-15T08:30:08Z</time>
      </trkpt>
      <trkpt lat="47.08485" lon="-1.81659">
        <ele>65</ele>
        <time>2022-08-15T08:30:10Z</time>
      </trkpt>
      <trkpt lat="47.08473" lon="-1.81658">
        <ele>65</ele>
        <time>2022-08-15T08:30:12Z</time>
      </trkpt>
      <trkpt lat="47.08461" lon="-1.81657">
        <ele>64</ele>
        <time>2022-08-15T08:30:14Z</time>
      </trkpt>
      <trkpt lat="47.08449" lon="-1.81654">
        <ele>64</ele>
        <time>2022-08-15T08:30:16Z</time>
      </trkpt>
      <trkpt lat="47.08436" lon="-1.81652">
        <ele>65</ele>
        <time>2022-08-15T08:30:18Z</time>
      </trkpt>
      <trkpt lat="47.08424" lon="-1.8165">
        <ele>65</ele>
        <time>2022-08-15T08:30:20Z</time>
      </trkpt>
      <trkpt lat="47.08412" lon="-1.81649">
        <ele>65</ele>
        <time>2022-08-15T08:30:22Z</time>
      </trkpt>
      <trkpt lat="47.084" lon="-1.81648">
        <ele>65</ele>
        <time>2022-08-15T08:30:24Z</time>
      </trkpt>
      <trkpt lat="47.08388" lon="-1.81646">
        <ele>65</ele>
        <time>2022-08-15T08:30:26Z</time>
      </trkpt>
      <trkpt lat="47.08377" lon="-1.81644">
        <ele>65</ele>
        <time>2022-08-15T08:30:28Z</time>
      </trkpt>
      <trkpt lat="47.08365" lon="-1.81643">
        <ele>65</ele>
        <time>2022-08-15T08:30:30Z</time>
      </trkpt>
      <trkpt lat="47.08354" lon="-1.81642">
        <ele>65</ele>
        <time>2022-08-15T08:30:32Z</time>
      </trkpt>
      <trkpt lat="47.08342" lon="-1.8164">
        <ele>66</ele>
        <time>2022-08-15T08:30:34Z</time>
      </trkpt>
      <trkpt lat="47.0833" lon="-1.81638">
        <ele>66</ele>
        <time>2022-08-15T08:30:36Z</time>
      </trkpt>
      <trkpt lat="47.08319" lon="-1.81636">
        <ele>66</ele>
        <time>2022-08-15T08:30:38Z</time>
      </trkpt>
      <trkpt lat="47.08308" lon="-1.81634">
        <ele>66</ele>
        <time>2022-08-15T08:30:40Z</time>
      </trkpt>
      <trkpt lat="47.08297" lon="-1.81634">
        <ele>66</ele>
        <time>2022-08-15T08:30:42Z</time>
      </trkpt>
      <trkpt lat="47.08286" lon="-1.81634">
        <ele>68</ele>
        <time>2022-08-15T08:30:44Z</time>
      </trkpt>
      <trkpt lat="47.08274" lon="-1.81633">
        <ele>67</ele>
        <time>2022-08-15T08:30:46Z</time>
      </trkpt>
      <trkpt lat="47.08262" lon="-1.81632">
        <ele>67</ele>
        <time>2022-08-15T08:30:48Z</time>
      </trkpt>
      <trkpt lat="47.08249" lon="-1.81632">
        <ele>67</ele>
        <time>2022-08-15T08:30:50Z</time>
      </trkpt>
      <trkpt lat="47.08237" lon="-1.81631">
        <ele>67</ele>
        <time>2022-08-15T08:30:52Z</time>
      </trkpt>
      <trkpt lat="47.08225" lon="-1.81631">
        <ele>67</ele>
        <time>2022-08-15T08:30:54Z</time>
      </trkpt>
      <trkpt lat="47.08212" lon="-1.81631">
        <ele>67</ele>
        <time>2022-08-15T08:30:56Z</time>
      </trkpt>
      <trkpt lat="47.082" lon="-1.81631">
        <ele>67</ele>
        <time>2022-08-15T08:30:58Z</time>
      </trkpt>
      <trkpt lat="47.08187" lon="-1.8163">
        <ele>67</ele>
        <time>2022-08-15T08:31:00Z</time>
      </trkpt>
      <trkpt lat="47.08174" lon="-1.81629">
        <ele>67</ele>
        <time>2022-08-15T08:31:02Z</time>
      </trkpt>
      <trkpt lat="47.08161" lon="-1.81628">
        <ele>67</ele>
        <time>2022-08-15T08:31:04Z</time>
      </trkpt>
      <trkpt lat="47.08148" lon="-1.81627">
        <ele>66</ele>
        <time>2022-08-15T08:31:06Z</time>
      </trkpt>
      <trkpt lat="47.08136" lon="-1.81626">
        <ele>66</ele>
        <time>2022-08-15T08:31:08Z</time>
      </trkpt>
      <trkpt lat="47.08123" lon="-1.81624">
        <ele>66</ele>
        <time>2022-08-15T08:31:10Z</time>
      </trkpt>
      <trkpt lat="47.0811" lon="-1.81622">
        <ele>66</ele>
        <time>2022-08-15T08:31:12Z</time>
      </trkpt>
      <trkpt lat="47.08098" lon="-1.81619">
        <ele>66</ele>
        <time>2022-08-15T08:31:14Z</time>
      </trkpt>
      <trkpt lat="47.08087" lon="-1.81616">
        <ele>67</ele>
        <time>2022-08-15T08:31:16Z</time>
      </trkpt>
      <trkpt lat="47.08074" lon="-1.8161">
        <ele>67</ele>
        <time>2022-08-15T08:31:18Z</time>
      </trkpt>
      <trkpt lat="47.08063" lon="-1.81604">
        <ele>67</ele>
        <time>2022-08-15T08:31:20Z</time>
      </trkpt>
      <trkpt lat="47.08051" lon="-1.81597">
        <ele>66</ele>
        <time>2022-08-15T08:31:22Z</time>
      </trkpt>
      <trkpt lat="47.08039" lon="-1.8159">
        <ele>67</ele>
        <time>2022-08-15T08:31:24Z</time>
      </trkpt>
      <trkpt lat="47.08028" lon="-1.81584">
        <ele>67</ele>
        <time>2022-08-15T08:31:26Z</time>
      </trkpt>
      <trkpt lat="47.08016" lon="-1.81579">
        <ele>67</ele>
        <time>2022-08-15T08:31:28Z</time>
      </trkpt>
      <trkpt lat="47.08004" lon="-1.81573">
        <ele>67</ele>
        <time>2022-08-15T08:31:30Z</time>
      </trkpt>
      <trkpt lat="47.07992" lon="-1.81569">
        <ele>67</ele>
        <time>2022-08-15T08:31:32Z</time>
      </trkpt>
      <trkpt lat="47.0798" lon="-1.81564">
        <ele>67</ele>
        <time>2022-08-15T08:31:34Z</time>
      </trkpt>
      <trkpt lat="47.07966" lon="-1.81562">
        <ele>68</ele>
        <time>2022-08-15T08:31:36Z</time>
      </trkpt>
      <trkpt lat="47.07952" lon="-1.81561">
        <ele>67</ele>
        <time>2022-08-15T08:31:38Z</time>
      </trkpt>
      <trkpt lat="47.07938" lon="-1.8156">
        <ele>67</ele>
        <time>2022-08-15T08:31:40Z</time>
      </trkpt>
      <trkpt lat="47.07926" lon="-1.81561">
        <ele>67</ele>
        <time>2022-08-15T08:31:42Z</time>
      </trkpt>
      <trkpt lat="47.07913" lon="-1.81562">
        <ele>67</ele>
        <time>2022-08-15T08:31:44Z</time>
      </trkpt>
      <trkpt lat="47.079" lon="-1.81562">
        <ele>68</ele>
        <time>2022-08-15T08:31:46Z</time>
      </trkpt>
      <trkpt lat="47.07887" lon="-1.81563">
        <ele>68</ele>
        <time>2022-08-15T08:31:48Z</time>
      </trkpt>
      <trkpt lat="47.07875" lon="-1.81563">
        <ele>68</ele>
        <time>2022-08-15T08:31:50Z</time>
      </trkpt>
      <trkpt lat="47.07863" lon="-1.81563">
        <ele>68</ele>
        <time>2022-08-15T08:31:52Z</time>
      </trkpt>
      <trkpt lat="47.07851" lon="-1.81562">
        <ele>68</ele>
        <time>2022-08-15T08:31:54Z</time>
      </trkpt>
      <trkpt lat="47.0784" lon="-1.8156">
        <ele>68</ele>
        <time>2022-08-15T08:31:56Z</time>
      </trkpt>
      <trkpt lat="47.07827" lon="-1.81558">
        <ele>68</ele>
        <time>2022-08-15T08:31:58Z</time>
      </trkpt>
      <trkpt lat="47.07815" lon="-1.81555">
        <ele>68</ele>
        <time>2022-08-15T08:32:00Z</time>
      </trkpt>
      <trkpt lat="47.07803" lon="-1.81553">
        <ele>68</ele>
        <time>2022-08-15T08:32:02Z</time>
      </trkpt>
      <trkpt lat="47.0779" lon="-1.81551">
        <ele>68</ele>
        <time>2022-08-15T08:32:04Z</time>
      </trkpt>
      <trkpt lat="47.07778" lon="-1.81549">
        <ele>68</ele>
        <time>2022-08-15T08:32:06Z</time>
      </trkpt>
      <trkpt lat="47.07766" lon="-1.81549">
        <ele>68</ele>
        <time>2022-08-15T08:32:08Z</time>
      </trkpt>
      <trkpt lat="47.07754" lon="-1.81548">
        <ele>68</ele>
        <time>2022-08-15T08:32:10Z</time>
      </trkpt>
      <trkpt lat="47.07742" lon="-1.81548">
        <ele>68</ele>
        <time>2022-08-15T08:32:12Z</time>
      </trkpt>
      <trkpt lat="47.0773" lon="-1.81547">
        <ele>68</ele>
        <time>2022-08-15T08:32:14Z</time>
      </trkpt>
      <trkpt lat="47.07718" lon="-1.81546">
        <ele>67</ele>
        <time>2022-08-15T08:32:16Z</time>
      </trkpt>
      <trkpt lat="47.07706" lon="-1.81545">
        <ele>67</ele>
        <time>2022-08-15T08:32:18Z</time>
      </trkpt>
      <trkpt lat="47.07694" lon="-1.81545">
        <ele>67</ele>
        <time>2022-08-15T08:32:20Z</time>
      </trkpt>
      <trkpt lat="47.07682" lon="-1.81543">
        <ele>68</ele>
        <time>2022-08-15T08:32:22Z</time>
      </trkpt>
      <trkpt lat="47.07669" lon="-1.81543">
        <ele>68</ele>
        <time>2022-08-15T08:32:24Z</time>
      </trkpt>
      <trkpt lat="47.07658" lon="-1.81541">
        <ele>68</ele>
        <time>2022-08-15T08:32:26Z</time>
      </trkpt>
      <trkpt lat="47.07645" lon="-1.81537">
        <ele>68</ele>
        <time>2022-08-15T08:32:28Z</time>
      </trkpt>
      <trkpt lat="47.07634" lon="-1.81531">
        <ele>68</ele>
        <time>2022-08-15T08:32:30Z</time>
      </trkpt>
      <trkpt lat="47.07622" lon="-1.81523">
        <ele>69</ele>
        <time>2022-08-15T08:32:32Z</time>
      </trkpt>
      <trkpt lat="47.07611" lon="-1.81513">
        <ele>69</ele>
        <time>2022-08-15T08:32:34Z</time>
      </trkpt>
      <trkpt lat="47.07601" lon="-1.81503">
        <ele>69</ele>
        <time>2022-08-15T08:32:36Z</time>
      </trkpt>
      <trkpt lat="47.07591" lon="-1.81493">
        <ele>69</ele>
        <time>2022-08-15T08:32:38Z</time>
      </trkpt>
      <trkpt lat="47.07581" lon="-1.81482">
        <ele>69</ele>
        <time>2022-08-15T08:32:40Z</time>
      </trkpt>
      <trkpt lat="47.07571" lon="-1.81473">
        <ele>69</ele>
        <time>2022-08-15T08:32:42Z</time>
      </trkpt>
      <trkpt lat="47.07561" lon="-1.81463">
        <ele>69</ele>
        <time>2022-08-15T08:32:44Z</time>
      </trkpt>
      <trkpt lat="47.07551" lon="-1.81453">
        <ele>69</ele>
        <time>2022-08-15T08:32:46Z</time>
      </trkpt>
      <trkpt lat="47.0754" lon="-1.81446">
        <ele>69</ele>
        <time>2022-08-15T08:32:48Z</time>
      </trkpt>
      <trkpt lat="47.07528" lon="-1.81443">
        <ele>69</ele>
        <time>2022-08-15T08:32:50Z</time>
      </trkpt>
      <trkpt lat="47.07516" lon="-1.81444">
        <ele>68</ele>
        <time>2022-08-15T08:32:52Z</time>
      </trkpt>
      <trkpt lat="47.07505" lon="-1.81451">
        <ele>67</ele>
        <time>2022-08-15T08:32:54Z</time>
      </trkpt>
      <trkpt lat="47.07494" lon="-1.81458">
        <ele>67</ele>
        <time>2022-08-15T08:32:56Z</time>
      </trkpt>
      <trkpt lat="47.07482" lon="-1.81466">
        <ele>67</ele>
        <time>2022-08-15T08:32:58Z</time>
      </trkpt>
      <trkpt lat="47.07471" lon="-1.81473">
        <ele>66</ele>
        <time>2022-08-15T08:33:00Z</time>
      </trkpt>
      <trkpt lat="47.0746" lon="-1.81479">
        <ele>67</ele>
        <time>2022-08-15T08:33:02Z</time>
      </trkpt>
      <trkpt lat="47.07447" lon="-1.81483">
        <ele>67</ele>
        <time>2022-08-15T08:33:04Z</time>
      </trkpt>
      <trkpt lat="47.07435" lon="-1.81485">
        <ele>67</ele>
        <time>2022-08-15T08:33:06Z</time>
      </trkpt>
      <trkpt lat="47.07422" lon="-1.81485">
        <ele>67</ele>
        <time>2022-08-15T08:33:08Z</time>
      </trkpt>
      <trkpt lat="47.0741" lon="-1.81486">
        <ele>67</ele>
        <time>2022-08-15T08:33:10Z</time>
      </trkpt>
      <trkpt lat="47.07397" lon="-1.81486">
        <ele>68</ele>
        <time>2022-08-15T08:33:12Z</time>
      </trkpt>
      <trkpt lat="47.07384" lon="-1.81485">
        <ele>68</ele>
        <time>2022-08-15T08:33:14Z</time>
      </trkpt>
      <trkpt lat="47.07371" lon="-1.81484">
        <ele>69</ele>
        <time>2022-08-15T08:33:16Z</time>
      </trkpt>
      <trkpt lat="47.07358" lon="-1.81481">
        <ele>70</ele>
        <time>2022-08-15T08:33:18Z</time>
      </trkpt>
      <trkpt lat="47.07345" lon="-1.81476">
        <ele>69</ele>
        <time>2022-08-15T08:33:20Z</time>
      </trkpt>
      <trkpt lat="47.07333" lon="-1.8147">
        <ele>70</ele>
        <time>2022-08-15T08:33:22Z</time>
      </trkpt>
      <trkpt lat="47.07321" lon="-1.81465">
        <ele>69</ele>
        <time>2022-08-15T08:33:24Z</time>
      </trkpt>
      <trkpt lat="47.0731" lon="-1.81458">
        <ele>69</ele>
        <time>2022-08-15T08:33:26Z</time>
      </trkpt>
      <trkpt lat="47.07298" lon="-1.81451">
        <ele>70</ele>
        <time>2022-08-15T08:33:28Z</time>
      </trkpt>
      <trkpt lat="47.07288" lon="-1.81443">
        <ele>70</ele>
        <time>2022-08-15T08:33:30Z</time>
      </trkpt>
      <trkpt lat="47.07278" lon="-1.81433">
        <ele>70</ele>
        <time>2022-08-15T08:33:32Z</time>
      </trkpt>
      <trkpt lat="47.07268" lon="-1.81423">
        <ele>70</ele>
        <time>2022-08-15T08:33:34Z</time>
      </trkpt>
      <trkpt lat="47.07258" lon="-1.81413">
        <ele>70</ele>
        <time>2022-08-15T08:33:36Z</time>
      </trkpt>
      <trkpt lat="47.07247" lon="-1.81403">
        <ele>70</ele>
        <time>2022-08-15T08:33:38Z</time>
      </trkpt>
      <trkpt lat="47.07237" lon="-1.81393">
        <ele>70</ele>
        <time>2022-08-15T08:33:40Z</time>
      </trkpt>
      <trkpt lat="47.07228" lon="-1.81384">
        <ele>70</ele>
        <time>2022-08-15T08:33:42Z</time>
      </trkpt>
      <trkpt lat="47.07217" lon="-1.81374">
        <ele>71</ele>
        <time>2022-08-15T08:33:44Z</time>
      </trkpt>
      <trkpt lat="47.07207" lon="-1.81364">
        <ele>71</ele>
        <time>2022-08-15T08:33:46Z</time>
      </trkpt>
      <trkpt lat="47.07195" lon="-1.81354">
        <ele>71</ele>
        <time>2022-08-15T08:33:48Z</time>
      </trkpt>
      <trkpt lat="47.07183" lon="-1.81346">
        <ele>71</ele>
        <time>2022-08-15T08:33:50Z</time>
      </trkpt>
      <trkpt lat="47.07171" lon="-1.81345">
        <ele>72</ele>
        <time>2022-08-15T08:33:52Z</time>
      </trkpt>
      <trkpt lat="47.0716" lon="-1.81352">
        <ele>71</ele>
        <time>2022-08-15T08:33:54Z</time>
      </trkpt>
      <trkpt lat="47.07151" lon="-1.81364">
        <ele>71</ele>
        <time>2022-08-15T08:33:56Z</time>
      </trkpt>
      <trkpt lat="47.07141" lon="-1.81375">
        <ele>71</ele>
        <time>2022-08-15T08:33:58Z</time>
      </trkpt>
      <trkpt lat="47.07132" lon="-1.81386">
        <ele>71</ele>
        <time>2022-08-15T08:34:00Z</time>
      </trkpt>
      <trkpt lat="47.07123" lon="-1.81397">
        <ele>72</ele>
        <time>2022-08-15T08:34:02Z</time>
      </trkpt>
      <trkpt lat="47.07114" lon="-1.81409">
        <ele>72</ele>
        <time>2022-08-15T08:34:04Z</time>
      </trkpt>
      <trkpt lat="47.07106" lon="-1.81421">
        <ele>72</ele>
        <time>2022-08-15T08:34:06Z</time>
      </trkpt>
      <trkpt lat="47.07099" lon="-1.81434">
        <ele>72</ele>
        <time>2022-08-15T08:34:08Z</time>
      </trkpt>
      <trkpt lat="47.07092" lon="-1.81445">
        <ele>73</ele>
        <time>2022-08-15T08:34:10Z</time>
      </trkpt>
      <trkpt lat="47.07084" lon="-1.81456">
        <ele>73</ele>
        <time>2022-08-15T08:34:12Z</time>
      </trkpt>
      <trkpt lat="47.07077" lon="-1.81467">
        <ele>73</ele>
        <time>2022-08-15T08:34:14Z</time>
      </trkpt>
      <trkpt lat="47.0707" lon="-1.81479">
        <ele>73</ele>
        <time>2022-08-15T08:34:16Z</time>
      </trkpt>
      <trkpt lat="47.07063" lon="-1.81492">
        <ele>73</ele>
        <time>2022-08-15T08:34:18Z</time>
      </trkpt>
      <trkpt lat="47.07057" lon="-1.81505">
        <ele>74</ele>
        <time>2022-08-15T08:34:20Z</time>
      </trkpt>
      <trkpt lat="47.07052" lon="-1.81518">
        <ele>74</ele>
        <time>2022-08-15T08:34:22Z</time>
      </trkpt>
      <trkpt lat="47.07045" lon="-1.81531">
        <ele>74</ele>
        <time>2022-08-15T08:34:24Z</time>
      </trkpt>
      <trkpt lat="47.07039" lon="-1.81543">
        <ele>74</ele>
        <time>2022-08-15T08:34:26Z</time>
      </trkpt>
      <trkpt lat="47.07034" lon="-1.81556">
        <ele>73</ele>
        <time>2022-08-15T08:34:28Z</time>
      </trkpt>
      <trkpt lat="47.0703" lon="-1.8157">
        <ele>73</ele>
        <time>2022-08-15T08:34:30Z</time>
      </trkpt>
      <trkpt lat="47.07026" lon="-1.81585">
        <ele>73</ele>
        <time>2022-08-15T08:34:32Z</time>
      </trkpt>
      <trkpt lat="47.07021" lon="-1.81598">
        <ele>73</ele>
        <time>2022-08-15T08:34:34Z</time>
      </trkpt>
      <trkpt lat="47.07017" lon="-1.81612">
        <ele>74</ele>
        <time>2022-08-15T08:34:36Z</time>
      </trkpt>
      <trkpt lat="47.07013" lon="-1.81626">
        <ele>74</ele>
        <time>2022-08-15T08:34:38Z</time>
      </trkpt>
      <trkpt lat="47.07009" lon="-1.81641">
        <ele>74</ele>
        <time>2022-08-15T08:34:40Z</time>
      </trkpt>
      <trkpt lat="47.07004" lon="-1.81655">
        <ele>74</ele>
        <time>2022-08-15T08:34:42Z</time>
      </trkpt>
      <trkpt lat="47.07" lon="-1.81669">
        <ele>74</ele>
        <time>2022-08-15T08:34:44Z</time>
      </trkpt>
      <trkpt lat="47.06996" lon="-1.81684">
        <ele>74</ele>
        <time>2022-08-15T08:34:46Z</time>
      </trkpt>
      <trkpt lat="47.06991" lon="-1.81698">
        <ele>74</ele>
        <time>2022-08-15T08:34:48Z</time>
      </trkpt>
      <trkpt lat="47.06986" lon="-1.81713">
        <ele>74</ele>
        <time>2022-08-15T08:34:50Z</time>
      </trkpt>
      <trkpt lat="47.06982" lon="-1.81726">
        <ele>74</ele>
        <time>2022-08-15T08:34:52Z</time>
      </trkpt>
      <trkpt lat="47.06976" lon="-1.8174">
        <ele>74</ele>
        <time>2022-08-15T08:34:54Z</time>
      </trkpt>
      <trkpt lat="47.0697" lon="-1.81753">
        <ele>74</ele>
        <time>2022-08-15T08:34:56Z</time>
      </trkpt>
      <trkpt lat="47.06964" lon="-1.81766">
        <ele>75</ele>
        <time>2022-08-15T08:34:58Z</time>
      </trkpt>
      <trkpt lat="47.06959" lon="-1.81778">
        <ele>75</ele>
        <time>2022-08-15T08:35:00Z</time>
      </trkpt>
      <trkpt lat="47.06954" lon="-1.81791">
        <ele>75</ele>
        <time>2022-08-15T08:35:02Z</time>
      </trkpt>
      <trkpt lat="47.06949" lon="-1.81803">
        <ele>75</ele>
        <time>2022-08-15T08:35:04Z</time>
      </trkpt>
      <trkpt lat="47.06944" lon="-1.81817">
        <ele>75</ele>
        <time>2022-08-15T08:35:06Z</time>
      </trkpt>
      <trkpt lat="47.06939" lon="-1.81829">
        <ele>75</ele>
        <time>2022-08-15T08:35:08Z</time>
      </trkpt>
      <trkpt lat="47.06933" lon="-1.81842">
        <ele>75</ele>
        <time>2022-08-15T08:35:10Z</time>
      </trkpt>
      <trkpt lat="47.06929" lon="-1.81854">
        <ele>75</ele>
        <time>2022-08-15T08:35:12Z</time>
      </trkpt>
      <trkpt lat="47.06923" lon="-1.81866">
        <ele>76</ele>
        <time>2022-08-15T08:35:14Z</time>
      </trkpt>
      <trkpt lat="47.06918" lon="-1.81879">
        <ele>76</ele>
        <time>2022-08-15T08:35:16Z</time>
      </trkpt>
      <trkpt lat="47.06913" lon="-1.81892">
        <ele>77</ele>
        <time>2022-08-15T08:35:18Z</time>
      </trkpt>
      <trkpt lat="47.06904" lon="-1.81913">
        <ele>77</ele>
        <time>2022-08-15T08:35:21Z</time>
      </trkpt>
      <trkpt lat="47.06899" lon="-1.81928">
        <ele>77</ele>
        <time>2022-08-15T08:35:23Z</time>
      </trkpt>
      <trkpt lat="47.06895" lon="-1.81944">
        <ele>77</ele>
        <time>2022-08-15T08:35:25Z</time>
      </trkpt>
      <trkpt lat="47.06894" lon="-1.81959">
        <ele>77</ele>
        <time>2022-08-15T08:35:27Z</time>
      </trkpt>
      <trkpt lat="47.06894" lon="-1.81975">
        <ele>77</ele>
        <time>2022-08-15T08:35:29Z</time>
      </trkpt>
      <trkpt lat="47.06895" lon="-1.8199">
        <ele>77</ele>
        <time>2022-08-15T08:35:31Z</time>
      </trkpt>
      <trkpt lat="47.06896" lon="-1.82006">
        <ele>77</ele>
        <time>2022-08-15T08:35:33Z</time>
      </trkpt>
      <trkpt lat="47.06897" lon="-1.8202">
        <ele>77</ele>
        <time>2022-08-15T08:35:35Z</time>
      </trkpt>
      <trkpt lat="47.06899" lon="-1.82034">
        <ele>78</ele>
        <time>2022-08-15T08:35:37Z</time>
      </trkpt>
      <trkpt lat="47.06901" lon="-1.82049">
        <ele>78</ele>
        <time>2022-08-15T08:35:39Z</time>
      </trkpt>
      <trkpt lat="47.06903" lon="-1.82073">
        <ele>78</ele>
        <time>2022-08-15T08:35:42Z</time>
      </trkpt>
      <trkpt lat="47.06904" lon="-1.82088">
        <ele>79</ele>
        <time>2022-08-15T08:35:44Z</time>
      </trkpt>
      <trkpt lat="47.06906" lon="-1.82103">
        <ele>80</ele>
        <time>2022-08-15T08:35:46Z</time>
      </trkpt>
      <trkpt lat="47.06907" lon="-1.82119">
        <ele>80</ele>
        <time>2022-08-15T08:35:48Z</time>
      </trkpt>
      <trkpt lat="47.06907" lon="-1.82136">
        <ele>80</ele>
        <time>2022-08-15T08:35:50Z</time>
      </trkpt>
      <trkpt lat="47.06907" lon="-1.82153">
        <ele>80</ele>
        <time>2022-08-15T08:35:52Z</time>
      </trkpt>
      <trkpt lat="47.06906" lon="-1.82171">
        <ele>80</ele>
        <time>2022-08-15T08:35:54Z</time>
      </trkpt>
      <trkpt lat="47.06905" lon="-1.82189">
        <ele>80</ele>
        <time>2022-08-15T08:35:56Z</time>
      </trkpt>
      <trkpt lat="47.06905" lon="-1.82205">
        <ele>80</ele>
        <time>2022-08-15T08:35:58Z</time>
      </trkpt>
      <trkpt lat="47.06904" lon="-1.82222">
        <ele>80</ele>
        <time>2022-08-15T08:36:00Z</time>
      </trkpt>
      <trkpt lat="47.06903" lon="-1.82239">
        <ele>80</ele>
        <time>2022-08-15T08:36:02Z</time>
      </trkpt>
      <trkpt lat="47.06903" lon="-1.82256">
        <ele>81</ele>
        <time>2022-08-15T08:36:04Z</time>
      </trkpt>
      <trkpt lat="47.06902" lon="-1.82272">
        <ele>81</ele>
        <time>2022-08-15T08:36:06Z</time>
      </trkpt>
      <trkpt lat="47.06902" lon="-1.82289">
        <ele>81</ele>
        <time>2022-08-15T08:36:08Z</time>
      </trkpt>
      <trkpt lat="47.06901" lon="-1.82306">
        <ele>81</ele>
        <time>2022-08-15T08:36:10Z</time>
      </trkpt>
      <trkpt lat="47.06899" lon="-1.82322">
        <ele>81</ele>
        <time>2022-08-15T08:36:12Z</time>
      </trkpt>
      <trkpt lat="47.06897" lon="-1.82339">
        <ele>81</ele>
        <time>2022-08-15T08:36:14Z</time>
      </trkpt>
      <trkpt lat="47.06895" lon="-1.82357">
        <ele>81</ele>
        <time>2022-08-15T08:36:16Z</time>
      </trkpt>
      <trkpt lat="47.06893" lon="-1.82374">
        <ele>81</ele>
        <time>2022-08-15T08:36:18Z</time>
      </trkpt>
      <trkpt lat="47.06891" lon="-1.8239">
        <ele>81</ele>
        <time>2022-08-15T08:36:20Z</time>
      </trkpt>
      <trkpt lat="47.06888" lon="-1.82406">
        <ele>81</ele>
        <time>2022-08-15T08:36:22Z</time>
      </trkpt>
      <trkpt lat="47.06886" lon="-1.82422">
        <ele>81</ele>
        <time>2022-08-15T08:36:24Z</time>
      </trkpt>
      <trkpt lat="47.06884" lon="-1.82437">
        <ele>81</ele>
        <time>2022-08-15T08:36:26Z</time>
      </trkpt>
      <trkpt lat="47.06881" lon="-1.82452">
        <ele>81</ele>
        <time>2022-08-15T08:36:28Z</time>
      </trkpt>
      <trkpt lat="47.06881" lon="-1.82469">
        <ele>81</ele>
        <time>2022-08-15T08:36:30Z</time>
      </trkpt>
      <trkpt lat="47.0688" lon="-1.82486">
        <ele>81</ele>
        <time>2022-08-15T08:36:32Z</time>
      </trkpt>
      <trkpt lat="47.06882" lon="-1.82502">
        <ele>82</ele>
        <time>2022-08-15T08:36:34Z</time>
      </trkpt>
      <trkpt lat="47.06883" lon="-1.82519">
        <ele>82</ele>
        <time>2022-08-15T08:36:36Z</time>
      </trkpt>
      <trkpt lat="47.06885" lon="-1.82536">
        <ele>82</ele>
        <time>2022-08-15T08:36:38Z</time>
      </trkpt>
      <trkpt lat="47.06887" lon="-1.82554">
        <ele>81</ele>
        <time>2022-08-15T08:36:40Z</time>
      </trkpt>
      <trkpt lat="47.06888" lon="-1.8257">
        <ele>81</ele>
        <time>2022-08-15T08:36:42Z</time>
      </trkpt>
      <trkpt lat="47.0689" lon="-1.82588">
        <ele>81</ele>
        <time>2022-08-15T08:36:44Z</time>
      </trkpt>
      <trkpt lat="47.06891" lon="-1.82606">
        <ele>81</ele>
        <time>2022-08-15T08:36:46Z</time>
      </trkpt>
      <trkpt lat="47.06893" lon="-1.82624">
        <ele>81</ele>
        <time>2022-08-15T08:36:48Z</time>
      </trkpt>
      <trkpt lat="47.06894" lon="-1.82642">
        <ele>81</ele>
        <time>2022-08-15T08:36:50Z</time>
      </trkpt>
      <trkpt lat="47.06895" lon="-1.82658">
        <ele>81</ele>
        <time>2022-08-15T08:36:52Z</time>
      </trkpt>
      <trkpt lat="47.06896" lon="-1.82675">
        <ele>82</ele>
        <time>2022-08-15T08:36:54Z</time>
      </trkpt>
      <trkpt lat="47.06896" lon="-1.82693">
        <ele>82</ele>
        <time>2022-08-15T08:36:56Z</time>
      </trkpt>
      <trkpt lat="47.06895" lon="-1.82711">
        <ele>82</ele>
        <time>2022-08-15T08:36:58Z</time>
      </trkpt>
      <trkpt lat="47.06895" lon="-1.82729">
        <ele>82</ele>
        <time>2022-08-15T08:37:00Z</time>
      </trkpt>
      <trkpt lat="47.06895" lon="-1.82748">
        <ele>82</ele>
        <time>2022-08-15T08:37:02Z</time>
      </trkpt>
      <trkpt lat="47.06894" lon="-1.82766">
        <ele>82</ele>
        <time>2022-08-15T08:37:04Z</time>
      </trkpt>
      <trkpt lat="47.06895" lon="-1.82784">
        <ele>82</ele>
        <time>2022-08-15T08:37:06Z</time>
      </trkpt>
      <trkpt lat="47.06896" lon="-1.82801">
        <ele>82</ele>
        <time>2022-08-15T08:37:08Z</time>
      </trkpt>
      <trkpt lat="47.06897" lon="-1.82818">
        <ele>82</ele>
        <time>2022-08-15T08:37:10Z</time>
      </trkpt>
      <trkpt lat="47.06898" lon="-1.82835">
        <ele>82</ele>
        <time>2022-08-15T08:37:12Z</time>
      </trkpt>
      <trkpt lat="47.06898" lon="-1.82853">
        <ele>82</ele>
        <time>2022-08-15T08:37:14Z</time>
      </trkpt>
      <trkpt lat="47.06899" lon="-1.8287">
        <ele>82</ele>
        <time>2022-08-15T08:37:16Z</time>
      </trkpt>
      <trkpt lat="47.069" lon="-1.82887">
        <ele>82</ele>
        <time>2022-08-15T08:37:18Z</time>
      </trkpt>
      <trkpt lat="47.06901" lon="-1.82904">
        <ele>82</ele>
        <time>2022-08-15T08:37:20Z</time>
      </trkpt>
      <trkpt lat="47.06903" lon="-1.82922">
        <ele>82</ele>
        <time>2022-08-15T08:37:22Z</time>
      </trkpt>
      <trkpt lat="47.06905" lon="-1.82942">
        <ele>82</ele>
        <time>2022-08-15T08:37:24Z</time>
      </trkpt>
      <trkpt lat="47.06906" lon="-1.82961">
        <ele>81</ele>
        <time>2022-08-15T08:37:26Z</time>
      </trkpt>
      <trkpt lat="47.06907" lon="-1.8298">
        <ele>81</ele>
        <time>2022-08-15T08:37:28Z</time>
      </trkpt>
      <trkpt lat="47.06909" lon="-1.83">
        <ele>80</ele>
        <time>2022-08-15T08:37:30Z</time>
      </trkpt>
      <trkpt lat="47.06912" lon="-1.83018">
        <ele>80</ele>
        <time>2022-08-15T08:37:32Z</time>
      </trkpt>
      <trkpt lat="47.06916" lon="-1.83033">
        <ele>80</ele>
        <time>2022-08-15T08:37:34Z</time>
      </trkpt>
      <trkpt lat="47.06909" lon="-1.83044">
        <ele>80</ele>
        <time>2022-08-15T08:37:36Z</time>
      </trkpt>
      <trkpt lat="47.06896" lon="-1.83043">
        <ele>80</ele>
        <time>2022-08-15T08:37:38Z</time>
      </trkpt>
      <trkpt lat="47.06884" lon="-1.83041">
        <ele>79</ele>
        <time>2022-08-15T08:37:40Z</time>
      </trkpt>
      <trkpt lat="47.06871" lon="-1.8304">
        <ele>80</ele>
        <time>2022-08-15T08:37:42Z</time>
      </trkpt>
      <trkpt lat="47.06857" lon="-1.83038">
        <ele>79</ele>
        <time>2022-08-15T08:37:44Z</time>
      </trkpt>
      <trkpt lat="47.06844" lon="-1.83037">
        <ele>79</ele>
        <time>2022-08-15T08:37:46Z</time>
      </trkpt>
      <trkpt lat="47.06831" lon="-1.83035">
        <ele>79</ele>
        <time>2022-08-15T08:37:48Z</time>
      </trkpt>
      <trkpt lat="47.06817" lon="-1.83034">
        <ele>79</ele>
        <time>2022-08-15T08:37:50Z</time>
      </trkpt>
      <trkpt lat="47.06804" lon="-1.83035">
        <ele>79</ele>
        <time>2022-08-15T08:37:52Z</time>
      </trkpt>
      <trkpt lat="47.0679" lon="-1.83037">
        <ele>79</ele>
        <time>2022-08-15T08:37:54Z</time>
      </trkpt>
      <trkpt lat="47.06777" lon="-1.83039">
        <ele>79</ele>
        <time>2022-08-15T08:37:56Z</time>
      </trkpt>
      <trkpt lat="47.06763" lon="-1.83041">
        <ele>79</ele>
        <time>2022-08-15T08:37:58Z</time>
      </trkpt>
      <trkpt lat="47.0675" lon="-1.83044">
        <ele>79</ele>
        <time>2022-08-15T08:38:00Z</time>
      </trkpt>
      <trkpt lat="47.06736" lon="-1.83046">
        <ele>79</ele>
        <time>2022-08-15T08:38:02Z</time>
      </trkpt>
      <trkpt lat="47.06722" lon="-1.83048">
        <ele>79</ele>
        <time>2022-08-15T08:38:04Z</time>
      </trkpt>
      <trkpt lat="47.06708" lon="-1.83051">
        <ele>79</ele>
        <time>2022-08-15T08:38:06Z</time>
      </trkpt>
      <trkpt lat="47.06694" lon="-1.83054">
        <ele>79</ele>
        <time>2022-08-15T08:38:08Z</time>
      </trkpt>
      <trkpt lat="47.06681" lon="-1.83057">
        <ele>80</ele>
        <time>2022-08-15T08:38:10Z</time>
      </trkpt>
      <trkpt lat="47.06668" lon="-1.8306">
        <ele>79</ele>
        <time>2022-08-15T08:38:12Z</time>
      </trkpt>
      <trkpt lat="47.06655" lon="-1.83064">
        <ele>79</ele>
        <time>2022-08-15T08:38:14Z</time>
      </trkpt>
      <trkpt lat="47.0664" lon="-1.83067">
        <ele>79</ele>
        <time>2022-08-15T08:38:16Z</time>
      </trkpt>
      <trkpt lat="47.06627" lon="-1.8307">
        <ele>78</ele>
        <time>2022-08-15T08:38:18Z</time>
      </trkpt>
      <trkpt lat="47.06614" lon="-1.83074">
        <ele>78</ele>
        <time>2022-08-15T08:38:20Z</time>
      </trkpt>
      <trkpt lat="47.06601" lon="-1.83077">
        <ele>78</ele>
        <time>2022-08-15T08:38:22Z</time>
      </trkpt>
      <trkpt lat="47.06589" lon="-1.83081">
        <ele>78</ele>
        <time>2022-08-15T08:38:24Z</time>
      </trkpt>
      <trkpt lat="47.06577" lon="-1.83084">
        <ele>78</ele>
        <time>2022-08-15T08:38:26Z</time>
      </trkpt>
      <trkpt lat="47.06566" lon="-1.83088">
        <ele>77</ele>
        <time>2022-08-15T08:38:28Z</time>
      </trkpt>
      <trkpt lat="47.06554" lon="-1.83092">
        <ele>77</ele>
        <time>2022-08-15T08:38:30Z</time>
      </trkpt>
      <trkpt lat="47.06542" lon="-1.83096">
        <ele>77</ele>
        <time>2022-08-15T08:38:32Z</time>
      </trkpt>
      <trkpt lat="47.0653" lon="-1.83101">
        <ele>78</ele>
        <time>2022-08-15T08:38:34Z</time>
      </trkpt>
      <trkpt lat="47.06518" lon="-1.83106">
        <ele>78</ele>
        <time>2022-08-15T08:38:36Z</time>
      </trkpt>
      <trkpt lat="47.06506" lon="-1.8311">
        <ele>78</ele>
        <time>2022-08-15T08:38:38Z</time>
      </trkpt>
      <trkpt lat="47.06494" lon="-1.83115">
        <ele>79</ele>
        <time>2022-08-15T08:38:40Z</time>
      </trkpt>
      <trkpt lat="47.06483" lon="-1.8312">
        <ele>79</ele>
        <time>2022-08-15T08:38:42Z</time>
      </trkpt>
      <trkpt lat="47.06472" lon="-1.83125">
        <ele>79</ele>
        <time>2022-08-15T08:38:44Z</time>
      </trkpt>
      <trkpt lat="47.0646" lon="-1.8313">
        <ele>79</ele>
        <time>2022-08-15T08:38:46Z</time>
      </trkpt>
      <trkpt lat="47.06448" lon="-1.83135">
        <ele>79</ele>
        <time>2022-08-15T08:38:48Z</time>
      </trkpt>
      <trkpt lat="47.06437" lon="-1.83139">
        <ele>79</ele>
        <time>2022-08-15T08:38:50Z</time>
      </trkpt>
      <trkpt lat="47.06425" lon="-1.83145">
        <ele>79</ele>
        <time>2022-08-15T08:38:52Z</time>
      </trkpt>
      <trkpt lat="47.06413" lon="-1.83149">
        <ele>79</ele>
        <time>2022-08-15T08:38:54Z</time>
      </trkpt>
      <trkpt lat="47.06401" lon="-1.83154">
        <ele>80</ele>
        <time>2022-08-15T08:38:56Z</time>
      </trkpt>
      <trkpt lat="47.0639" lon="-1.83159">
        <ele>80</ele>
        <time>2022-08-15T08:38:58Z</time>
      </trkpt>
      <trkpt lat="47.06378" lon="-1.83164">
        <ele>79</ele>
        <time>2022-08-15T08:39:00Z</time>
      </trkpt>
      <trkpt lat="47.06367" lon="-1.83169">
        <ele>79</ele>
        <time>2022-08-15T08:39:02Z</time>
      </trkpt>
      <trkpt lat="47.06356" lon="-1.83174">
        <ele>80</ele>
        <time>2022-08-15T08:39:04Z</time>
      </trkpt>
      <trkpt lat="47.06346" lon="-1.83178">
        <ele>79</ele>
        <time>2022-08-15T08:39:06Z</time>
      </trkpt>
      <trkpt lat="47.06335" lon="-1.83183">
        <ele>80</ele>
        <time>2022-08-15T08:39:08Z</time>
      </trkpt>
      <trkpt lat="47.06323" lon="-1.83187">
        <ele>80</ele>
        <time>2022-08-15T08:39:10Z</time>
      </trkpt>
      <trkpt lat="47.06312" lon="-1.83192">
        <ele>80</ele>
        <time>2022-08-15T08:39:12Z</time>
      </trkpt>
      <trkpt lat="47.06301" lon="-1.83195">
        <ele>80</ele>
        <time>2022-08-15T08:39:14Z</time>
      </trkpt>
      <trkpt lat="47.06289" lon="-1.83198">
        <ele>81</ele>
        <time>2022-08-15T08:39:16Z</time>
      </trkpt>
      <trkpt lat="47.06278" lon="-1.832">
        <ele>81</ele>
        <time>2022-08-15T08:39:18Z</time>
      </trkpt>
      <trkpt lat="47.06266" lon="-1.83201">
        <ele>81</ele>
        <time>2022-08-15T08:39:20Z</time>
      </trkpt>
      <trkpt lat="47.06255" lon="-1.83202">
        <ele>81</ele>
        <time>2022-08-15T08:39:22Z</time>
      </trkpt>
      <trkpt lat="47.06242" lon="-1.83202">
        <ele>81</ele>
        <time>2022-08-15T08:39:24Z</time>
      </trkpt>
      <trkpt lat="47.0623" lon="-1.83203">
        <ele>81</ele>
        <time>2022-08-15T08:39:26Z</time>
      </trkpt>
      <trkpt lat="47.06218" lon="-1.83204">
        <ele>82</ele>
        <time>2022-08-15T08:39:28Z</time>
      </trkpt>
      <trkpt lat="47.06206" lon="-1.83205">
        <ele>81</ele>
        <time>2022-08-15T08:39:30Z</time>
      </trkpt>
      <trkpt lat="47.06194" lon="-1.83205">
        <ele>81</ele>
        <time>2022-08-15T08:39:32Z</time>
      </trkpt>
      <trkpt lat="47.06182" lon="-1.83205">
        <ele>82</ele>
        <time>2022-08-15T08:39:34Z</time>
      </trkpt>
      <trkpt lat="47.0617" lon="-1.83206">
        <ele>81</ele>
        <time>2022-08-15T08:39:36Z</time>
      </trkpt>
      <trkpt lat="47.06158" lon="-1.83206">
        <ele>81</ele>
        <time>2022-08-15T08:39:38Z</time>
      </trkpt>
      <trkpt lat="47.06146" lon="-1.83207">
        <ele>81</ele>
        <time>2022-08-15T08:39:40Z</time>
      </trkpt>
      <trkpt lat="47.06134" lon="-1.83207">
        <ele>81</ele>
        <time>2022-08-15T08:39:42Z</time>
      </trkpt>
      <trkpt lat="47.06122" lon="-1.83208">
        <ele>82</ele>
        <time>2022-08-15T08:39:44Z</time>
      </trkpt>
      <trkpt lat="47.06111" lon="-1.83208">
        <ele>82</ele>
        <time>2022-08-15T08:39:46Z</time>
      </trkpt>
      <trkpt lat="47.06099" lon="-1.83208">
        <ele>81</ele>
        <time>2022-08-15T08:39:48Z</time>
      </trkpt>
      <trkpt lat="47.06088" lon="-1.83209">
        <ele>81</ele>
        <time>2022-08-15T08:39:50Z</time>
      </trkpt>
      <trkpt lat="47.06075" lon="-1.8321">
        <ele>81</ele>
        <time>2022-08-15T08:39:52Z</time>
      </trkpt>
      <trkpt lat="47.06063" lon="-1.83211">
        <ele>81</ele>
        <time>2022-08-15T08:39:54Z</time>
      </trkpt>
      <trkpt lat="47.06051" lon="-1.83211">
        <ele>81</ele>
        <time>2022-08-15T08:39:56Z</time>
      </trkpt>
      <trkpt lat="47.06039" lon="-1.83212">
        <ele>81</ele>
        <time>2022-08-15T08:39:58Z</time>
      </trkpt>
      <trkpt lat="47.06026" lon="-1.83213">
        <ele>81</ele>
        <time>2022-08-15T08:40:00Z</time>
      </trkpt>
      <trkpt lat="47.06014" lon="-1.83213">
        <ele>81</ele>
        <time>2022-08-15T08:40:02Z</time>
      </trkpt>
      <trkpt lat="47.06001" lon="-1.83214">
        <ele>81</ele>
        <time>2022-08-15T08:40:04Z</time>
      </trkpt>
      <trkpt lat="47.05989" lon="-1.83215">
        <ele>81</ele>
        <time>2022-08-15T08:40:06Z</time>
      </trkpt>
      <trkpt lat="47.05977" lon="-1.83218">
        <ele>81</ele>
        <time>2022-08-15T08:40:08Z</time>
      </trkpt>
      <trkpt lat="47.05967" lon="-1.83227">
        <ele>82</ele>
        <time>2022-08-15T08:40:10Z</time>
      </trkpt>
      <trkpt lat="47.05959" lon="-1.8324">
        <ele>82</ele>
        <time>2022-08-15T08:40:12Z</time>
      </trkpt>
      <trkpt lat="47.0595" lon="-1.83252">
        <ele>82</ele>
        <time>2022-08-15T08:40:14Z</time>
      </trkpt>
      <trkpt lat="47.05942" lon="-1.83265">
        <ele>82</ele>
        <time>2022-08-15T08:40:16Z</time>
      </trkpt>
      <trkpt lat="47.05934" lon="-1.83277">
        <ele>82</ele>
        <time>2022-08-15T08:40:18Z</time>
      </trkpt>
      <trkpt lat="47.05926" lon="-1.83289">
        <ele>82</ele>
        <time>2022-08-15T08:40:20Z</time>
      </trkpt>
      <trkpt lat="47.05919" lon="-1.83302">
        <ele>82</ele>
        <time>2022-08-15T08:40:22Z</time>
      </trkpt>
      <trkpt lat="47.05911" lon="-1.83314">
        <ele>82</ele>
        <time>2022-08-15T08:40:24Z</time>
      </trkpt>
      <trkpt lat="47.05902" lon="-1.83326">
        <ele>81</ele>
        <time>2022-08-15T08:40:26Z</time>
      </trkpt>
      <trkpt lat="47.05894" lon="-1.83338">
        <ele>81</ele>
        <time>2022-08-15T08:40:28Z</time>
      </trkpt>
      <trkpt lat="47.05886" lon="-1.83351">
        <ele>81</ele>
        <time>2022-08-15T08:40:30Z</time>
      </trkpt>
      <trkpt lat="47.05877" lon="-1.83364">
        <ele>82</ele>
        <time>2022-08-15T08:40:32Z</time>
      </trkpt>
      <trkpt lat="47.05869" lon="-1.83376">
        <ele>81</ele>
        <time>2022-08-15T08:40:34Z</time>
      </trkpt>
      <trkpt lat="47.05861" lon="-1.83388">
        <ele>81</ele>
        <time>2022-08-15T08:40:36Z</time>
      </trkpt>
      <trkpt lat="47.05853" lon="-1.834">
        <ele>81</ele>
        <time>2022-08-15T08:40:38Z</time>
      </trkpt>
      <trkpt lat="47.05846" lon="-1.83412">
        <ele>81</ele>
        <time>2022-08-15T08:40:40Z</time>
      </trkpt>
      <trkpt lat="47.05837" lon="-1.83424">
        <ele>81</ele>
        <time>2022-08-15T08:40:42Z</time>
      </trkpt>
      <trkpt lat="47.0583" lon="-1.83436">
        <ele>82</ele>
        <time>2022-08-15T08:40:44Z</time>
      </trkpt>
      <trkpt lat="47.05822" lon="-1.83447">
        <ele>82</ele>
        <time>2022-08-15T08:40:46Z</time>
      </trkpt>
      <trkpt lat="47.05814" lon="-1.83458">
        <ele>82</ele>
        <time>2022-08-15T08:40:48Z</time>
      </trkpt>
      <trkpt lat="47.05806" lon="-1.83469">
        <ele>82</ele>
        <time>2022-08-15T08:40:50Z</time>
      </trkpt>
      <trkpt lat="47.05798" lon="-1.83479">
        <ele>82</ele>
        <time>2022-08-15T08:40:52Z</time>
      </trkpt>
      <trkpt lat="47.05789" lon="-1.8349">
        <ele>82</ele>
        <time>2022-08-15T08:40:54Z</time>
      </trkpt>
      <trkpt lat="47.05781" lon="-1.83501">
        <ele>82</ele>
        <time>2022-08-15T08:40:56Z</time>
      </trkpt>
      <trkpt lat="47.05772" lon="-1.83511">
        <ele>82</ele>
        <time>2022-08-15T08:40:58Z</time>
      </trkpt>
      <trkpt lat="47.05762" lon="-1.83522">
        <ele>82</ele>
        <time>2022-08-15T08:41:00Z</time>
      </trkpt>
      <trkpt lat="47.05753" lon="-1.83533">
        <ele>82</ele>
        <time>2022-08-15T08:41:02Z</time>
      </trkpt>
      <trkpt lat="47.05744" lon="-1.83544">
        <ele>83</ele>
        <time>2022-08-15T08:41:04Z</time>
      </trkpt>
      <trkpt lat="47.05735" lon="-1.83554">
        <ele>83</ele>
        <time>2022-08-15T08:41:06Z</time>
      </trkpt>
      <trkpt lat="47.05727" lon="-1.83566">
        <ele>83</ele>
        <time>2022-08-15T08:41:08Z</time>
      </trkpt>
      <trkpt lat="47.0572" lon="-1.83578">
        <ele>83</ele>
        <time>2022-08-15T08:41:10Z</time>
      </trkpt>
      <trkpt lat="47.05712" lon="-1.83592">
        <ele>83</ele>
        <time>2022-08-15T08:41:12Z</time>
      </trkpt>
      <trkpt lat="47.05706" lon="-1.83604">
        <ele>83</ele>
        <time>2022-08-15T08:41:14Z</time>
      </trkpt>
      <trkpt lat="47.05699" lon="-1.83617">
        <ele>83</ele>
        <time>2022-08-15T08:41:16Z</time>
      </trkpt>
      <trkpt lat="47.05691" lon="-1.83629">
        <ele>83</ele>
        <time>2022-08-15T08:41:18Z</time>
      </trkpt>
      <trkpt lat="47.05683" lon="-1.83642">
        <ele>83</ele>
        <time>2022-08-15T08:41:20Z</time>
      </trkpt>
      <trkpt lat="47.05675" lon="-1.83656">
        <ele>84</ele>
        <time>2022-08-15T08:41:22Z</time>
      </trkpt>
      <trkpt lat="47.05668" lon="-1.83671">
        <ele>84</ele>
        <time>2022-08-15T08:41:24Z</time>
      </trkpt>
      <trkpt lat="47.05661" lon="-1.83686">
        <ele>84</ele>
        <time>2022-08-15T08:41:26Z</time>
      </trkpt>
      <trkpt lat="47.05653" lon="-1.837">
        <ele>84</ele>
        <time>2022-08-15T08:41:28Z</time>
      </trkpt>
      <trkpt lat="47.05645" lon="-1.83714">
        <ele>84</ele>
        <time>2022-08-15T08:41:30Z</time>
      </trkpt>
      <trkpt lat="47.05637" lon="-1.83728">
        <ele>84</ele>
        <time>2022-08-15T08:41:32Z</time>
      </trkpt>
      <trkpt lat="47.0563" lon="-1.83742">
        <ele>84</ele>
        <time>2022-08-15T08:41:34Z</time>
      </trkpt>
      <trkpt lat="47.05622" lon="-1.83756">
        <ele>84</ele>
        <time>2022-08-15T08:41:36Z</time>
      </trkpt>
      <trkpt lat="47.05614" lon="-1.8377">
        <ele>84</ele>
        <time>2022-08-15T08:41:38Z</time>
      </trkpt>
      <trkpt lat="47.05607" lon="-1.83784">
        <ele>84</ele>
        <time>2022-08-15T08:41:40Z</time>
      </trkpt>
      <trkpt lat="47.05599" lon="-1.83798">
        <ele>84</ele>
        <time>2022-08-15T08:41:42Z</time>
      </trkpt>
      <trkpt lat="47.05591" lon="-1.83812">
        <ele>84</ele>
        <time>2022-08-15T08:41:44Z</time>
      </trkpt>
      <trkpt lat="47.05584" lon="-1.83825">
        <ele>85</ele>
        <time>2022-08-15T08:41:46Z</time>
      </trkpt>
      <trkpt lat="47.05576" lon="-1.83839">
        <ele>85</ele>
        <time>2022-08-15T08:41:48Z</time>
      </trkpt>
      <trkpt lat="47.05568" lon="-1.83852">
        <ele>84</ele>
        <time>2022-08-15T08:41:50Z</time>
      </trkpt>
      <trkpt lat="47.05561" lon="-1.83866">
        <ele>84</ele>
        <time>2022-08-15T08:41:52Z</time>
      </trkpt>
      <trkpt lat="47.05554" lon="-1.83879">
        <ele>84</ele>
        <time>2022-08-15T08:41:54Z</time>
      </trkpt>
      <trkpt lat="47.05547" lon="-1.83891">
        <ele>84</ele>
        <time>2022-08-15T08:41:56Z</time>
      </trkpt>
      <trkpt lat="47.0554" lon="-1.83904">
        <ele>84</ele>
        <time>2022-08-15T08:41:58Z</time>
      </trkpt>
      <trkpt lat="47.05533" lon="-1.83916">
        <ele>84</ele>
        <time>2022-08-15T08:42:00Z</time>
      </trkpt>
      <trkpt lat="47.05525" lon="-1.83929">
        <ele>84</ele>
        <time>2022-08-15T08:42:02Z</time>
      </trkpt>
      <trkpt lat="47.05517" lon="-1.83942">
        <ele>84</ele>
        <time>2022-08-15T08:42:04Z</time>
      </trkpt>
      <trkpt lat="47.0551" lon="-1.83956">
        <ele>84</ele>
        <time>2022-08-15T08:42:06Z</time>
      </trkpt>
      <trkpt lat="47.05503" lon="-1.83969">
        <ele>85</ele>
        <time>2022-08-15T08:42:08Z</time>
      </trkpt>
      <trkpt lat="47.05496" lon="-1.83983">
        <ele>85</ele>
        <time>2022-08-15T08:42:10Z</time>
      </trkpt>
      <trkpt lat="47.05489" lon="-1.83997">
        <ele>85</ele>
        <time>2022-08-15T08:42:12Z</time>
      </trkpt>
      <trkpt lat="47.05482" lon="-1.84011">
        <ele>85</ele>
        <time>2022-08-15T08:42:14Z</time>
      </trkpt>
      <trkpt lat="47.05476" lon="-1.84024">
        <ele>85</ele>
        <time>2022-08-15T08:42:16Z</time>
      </trkpt>
      <trkpt lat="47.05469" lon="-1.84038">
        <ele>85</ele>
        <time>2022-08-15T08:42:18Z</time>
      </trkpt>
      <trkpt lat="47.05462" lon="-1.84052">
        <ele>85</ele>
        <time>2022-08-15T08:42:20Z</time>
      </trkpt>
      <trkpt lat="47.05455" lon="-1.84065">
        <ele>85</ele>
        <time>2022-08-15T08:42:22Z</time>
      </trkpt>
      <trkpt lat="47.05448" lon="-1.84079">
        <ele>85</ele>
        <time>2022-08-15T08:42:24Z</time>
      </trkpt>
      <trkpt lat="47.05441" lon="-1.84092">
        <ele>85</ele>
        <time>2022-08-15T08:42:26Z</time>
      </trkpt>
      <trkpt lat="47.05434" lon="-1.84105">
        <ele>85</ele>
        <time>2022-08-15T08:42:28Z</time>
      </trkpt>
      <trkpt lat="47.05427" lon="-1.84119">
        <ele>85</ele>
        <time>2022-08-15T08:42:30Z</time>
      </trkpt>
      <trkpt lat="47.05421" lon="-1.84132">
        <ele>85</ele>
        <time>2022-08-15T08:42:32Z</time>
      </trkpt>
      <trkpt lat="47.05415" lon="-1.84145">
        <ele>84</ele>
        <time>2022-08-15T08:42:34Z</time>
      </trkpt>
      <trkpt lat="47.05408" lon="-1.84158">
        <ele>85</ele>
        <time>2022-08-15T08:42:36Z</time>
      </trkpt>
      <trkpt lat="47.05401" lon="-1.84172">
        <ele>84</ele>
        <time>2022-08-15T08:42:38Z</time>
      </trkpt>
      <trkpt lat="47.05394" lon="-1.84185">
        <ele>85</ele>
        <time>2022-08-15T08:42:40Z</time>
      </trkpt>
      <trkpt lat="47.05387" lon="-1.84199">
        <ele>85</ele>
        <time>2022-08-15T08:42:42Z</time>
      </trkpt>
      <trkpt lat="47.05381" lon="-1.84212">
        <ele>85</ele>
        <time>2022-08-15T08:42:44Z</time>
      </trkpt>
      <trkpt lat="47.05374" lon="-1.84226">
        <ele>85</ele>
        <time>2022-08-15T08:42:46Z</time>
      </trkpt>
      <trkpt lat="47.05367" lon="-1.8424">
        <ele>85</ele>
        <time>2022-08-15T08:42:48Z</time>
      </trkpt>
      <trkpt lat="47.0536" lon="-1.84253">
        <ele>85</ele>
        <time>2022-08-15T08:42:50Z</time>
      </trkpt>
      <trkpt lat="47.05352" lon="-1.84266">
        <ele>85</ele>
        <time>2022-08-15T08:42:52Z</time>
      </trkpt>
      <trkpt lat="47.05346" lon="-1.84279">
        <ele>85</ele>
        <time>2022-08-15T08:42:54Z</time>
      </trkpt>
      <trkpt lat="47.05339" lon="-1.84292">
        <ele>85</ele>
        <time>2022-08-15T08:42:56Z</time>
      </trkpt>
      <trkpt lat="47.05332" lon="-1.84306">
        <ele>86</ele>
        <time>2022-08-15T08:42:58Z</time>
      </trkpt>
      <trkpt lat="47.05326" lon="-1.8432">
        <ele>86</ele>
        <time>2022-08-15T08:43:00Z</time>
      </trkpt>
      <trkpt lat="47.05319" lon="-1.84333">
        <ele>86</ele>
        <time>2022-08-15T08:43:02Z</time>
      </trkpt>
      <trkpt lat="47.05312" lon="-1.84346">
        <ele>86</ele>
        <time>2022-08-15T08:43:04Z</time>
      </trkpt>
      <trkpt lat="47.05305" lon="-1.8436">
        <ele>86</ele>
        <time>2022-08-15T08:43:06Z</time>
      </trkpt>
      <trkpt lat="47.05299" lon="-1.84373">
        <ele>86</ele>
        <time>2022-08-15T08:43:08Z</time>
      </trkpt>
      <trkpt lat="47.05292" lon="-1.84386">
        <ele>86</ele>
        <time>2022-08-15T08:43:10Z</time>
      </trkpt>
      <trkpt lat="47.05286" lon="-1.844">
        <ele>86</ele>
        <time>2022-08-15T08:43:12Z</time>
      </trkpt>
      <trkpt lat="47.0528" lon="-1.84414">
        <ele>86</ele>
        <time>2022-08-15T08:43:14Z</time>
      </trkpt>
      <trkpt lat="47.05273" lon="-1.84428">
        <ele>86</ele>
        <time>2022-08-15T08:43:16Z</time>
      </trkpt>
      <trkpt lat="47.05266" lon="-1.84441">
        <ele>87</ele>
        <time>2022-08-15T08:43:18Z</time>
      </trkpt>
      <trkpt lat="47.05259" lon="-1.84455">
        <ele>87</ele>
        <time>2022-08-15T08:43:20Z</time>
      </trkpt>
      <trkpt lat="47.05253" lon="-1.84468">
        <ele>87</ele>
        <time>2022-08-15T08:43:22Z</time>
      </trkpt>
      <trkpt lat="47.05247" lon="-1.84481">
        <ele>87</ele>
        <time>2022-08-15T08:43:24Z</time>
      </trkpt>
      <trkpt lat="47.0524" lon="-1.84494">
        <ele>87</ele>
        <time>2022-08-15T08:43:26Z</time>
      </trkpt>
      <trkpt lat="47.05233" lon="-1.84506">
        <ele>87</ele>
        <time>2022-08-15T08:43:28Z</time>
      </trkpt>
      <trkpt lat="47.05226" lon="-1.8452">
        <ele>88</ele>
        <time>2022-08-15T08:43:30Z</time>
      </trkpt>
      <trkpt lat="47.05221" lon="-1.84531">
        <ele>88</ele>
        <time>2022-08-15T08:43:32Z</time>
      </trkpt>
      <trkpt lat="47.05211" lon="-1.84543">
        <ele>88</ele>
        <time>2022-08-15T08:43:35Z</time>
      </trkpt>
      <trkpt lat="47.05201" lon="-1.84539">
        <ele>88</ele>
        <time>2022-08-15T08:43:37Z</time>
      </trkpt>
      <trkpt lat="47.05191" lon="-1.8453">
        <ele>88</ele>
        <time>2022-08-15T08:43:39Z</time>
      </trkpt>
      <trkpt lat="47.05182" lon="-1.84518">
        <ele>88</ele>
        <time>2022-08-15T08:43:41Z</time>
      </trkpt>
      <trkpt lat="47.05173" lon="-1.84506">
        <ele>89</ele>
        <time>2022-08-15T08:43:43Z</time>
      </trkpt>
      <trkpt lat="47.05164" lon="-1.84495">
        <ele>88</ele>
        <time>2022-08-15T08:43:45Z</time>
      </trkpt>
      <trkpt lat="47.05156" lon="-1.84483">
        <ele>88</ele>
        <time>2022-08-15T08:43:47Z</time>
      </trkpt>
      <trkpt lat="47.05148" lon="-1.84471">
        <ele>88</ele>
        <time>2022-08-15T08:43:49Z</time>
      </trkpt>
      <trkpt lat="47.05139" lon="-1.84459">
        <ele>88</ele>
        <time>2022-08-15T08:43:51Z</time>
      </trkpt>
      <trkpt lat="47.05131" lon="-1.84446">
        <ele>88</ele>
        <time>2022-08-15T08:43:53Z</time>
      </trkpt>
      <trkpt lat="47.05123" lon="-1.84433">
        <ele>88</ele>
        <time>2022-08-15T08:43:55Z</time>
      </trkpt>
      <trkpt lat="47.05114" lon="-1.84421">
        <ele>88</ele>
        <time>2022-08-15T08:43:57Z</time>
      </trkpt>
      <trkpt lat="47.05105" lon="-1.8441">
        <ele>88</ele>
        <time>2022-08-15T08:43:59Z</time>
      </trkpt>
      <trkpt lat="47.05095" lon="-1.84399">
        <ele>87</ele>
        <time>2022-08-15T08:44:01Z</time>
      </trkpt>
      <trkpt lat="47.05085" lon="-1.84388">
        <ele>87</ele>
        <time>2022-08-15T08:44:03Z</time>
      </trkpt>
      <trkpt lat="47.05075" lon="-1.84377">
        <ele>87</ele>
        <time>2022-08-15T08:44:05Z</time>
      </trkpt>
      <trkpt lat="47.05066" lon="-1.84365">
        <ele>87</ele>
        <time>2022-08-15T08:44:07Z</time>
      </trkpt>
      <trkpt lat="47.05056" lon="-1.84354">
        <ele>87</ele>
        <time>2022-08-15T08:44:09Z</time>
      </trkpt>
      <trkpt lat="47.05046" lon="-1.84345">
        <ele>88</ele>
        <time>2022-08-15T08:44:11Z</time>
      </trkpt>
      <trkpt lat="47.05036" lon="-1.84334">
        <ele>88</ele>
        <time>2022-08-15T08:44:13Z</time>
      </trkpt>
      <trkpt lat="47.05026" lon="-1.84325">
        <ele>88</ele>
        <time>2022-08-15T08:44:15Z</time>
      </trkpt>
      <trkpt lat="47.05016" lon="-1.84315">
        <ele>87</ele>
        <time>2022-08-15T08:44:17Z</time>
      </trkpt>
      <trkpt lat="47.05005" lon="-1.84307">
        <ele>87</ele>
        <time>2022-08-15T08:44:19Z</time>
      </trkpt>
      <trkpt lat="47.04994" lon="-1.84299">
        <ele>87</ele>
        <time>2022-08-15T08:44:21Z</time>
      </trkpt>
      <trkpt lat="47.04983" lon="-1.84291">
        <ele>87</ele>
        <time>2022-08-15T08:44:23Z</time>
      </trkpt>
      <trkpt lat="47.04973" lon="-1.84281">
        <ele>86</ele>
        <time>2022-08-15T08:44:25Z</time>
      </trkpt>
      <trkpt lat="47.04963" lon="-1.84272">
        <ele>87</ele>
        <time>2022-08-15T08:44:27Z</time>
      </trkpt>
      <trkpt lat="47.04954" lon="-1.84263">
        <ele>86</ele>
        <time>2022-08-15T08:44:29Z</time>
      </trkpt>
      <trkpt lat="47.04943" lon="-1.84253">
        <ele>86</ele>
        <time>2022-08-15T08:44:31Z</time>
      </trkpt>
      <trkpt lat="47.04934" lon="-1.84243">
        <ele>86</ele>
        <time>2022-08-15T08:44:33Z</time>
      </trkpt>
      <trkpt lat="47.04924" lon="-1.84232">
        <ele>86</ele>
        <time>2022-08-15T08:44:35Z</time>
      </trkpt>
      <trkpt lat="47.04914" lon="-1.84223">
        <ele>86</ele>
        <time>2022-08-15T08:44:37Z</time>
      </trkpt>
      <trkpt lat="47.04905" lon="-1.84214">
        <ele>87</ele>
        <time>2022-08-15T08:44:39Z</time>
      </trkpt>
      <trkpt lat="47.04895" lon="-1.84204">
        <ele>87</ele>
        <time>2022-08-15T08:44:41Z</time>
      </trkpt>
      <trkpt lat="47.04885" lon="-1.84194">
        <ele>87</ele>
        <time>2022-08-15T08:44:43Z</time>
      </trkpt>
      <trkpt lat="47.04875" lon="-1.84183">
        <ele>87</ele>
        <time>2022-08-15T08:44:45Z</time>
      </trkpt>
      <trkpt lat="47.04865" lon="-1.84173">
        <ele>88</ele>
        <time>2022-08-15T08:44:47Z</time>
      </trkpt>
      <trkpt lat="47.04855" lon="-1.84162">
        <ele>87</ele>
        <time>2022-08-15T08:44:49Z</time>
      </trkpt>
      <trkpt lat="47.04845" lon="-1.84151">
        <ele>87</ele>
        <time>2022-08-15T08:44:51Z</time>
      </trkpt>
      <trkpt lat="47.04836" lon="-1.8414">
        <ele>87</ele>
        <time>2022-08-15T08:44:53Z</time>
      </trkpt>
      <trkpt lat="47.04826" lon="-1.84128">
        <ele>86</ele>
        <time>2022-08-15T08:44:55Z</time>
      </trkpt>
      <trkpt lat="47.04817" lon="-1.84115">
        <ele>87</ele>
        <time>2022-08-15T08:44:57Z</time>
      </trkpt>
      <trkpt lat="47.04806" lon="-1.84103">
        <ele>86</ele>
        <time>2022-08-15T08:44:59Z</time>
      </trkpt>
      <trkpt lat="47.04796" lon="-1.84091">
        <ele>86</ele>
        <time>2022-08-15T08:45:01Z</time>
      </trkpt>
      <trkpt lat="47.04787" lon="-1.84079">
        <ele>86</ele>
        <time>2022-08-15T08:45:03Z</time>
      </trkpt>
      <trkpt lat="47.04778" lon="-1.84067">
        <ele>86</ele>
        <time>2022-08-15T08:45:05Z</time>
      </trkpt>
      <trkpt lat="47.04768" lon="-1.84055">
        <ele>86</ele>
        <time>2022-08-15T08:45:07Z</time>
      </trkpt>
      <trkpt lat="47.04758" lon="-1.84043">
        <ele>86</ele>
        <time>2022-08-15T08:45:09Z</time>
      </trkpt>
      <trkpt lat="47.04751" lon="-1.84031">
        <ele>86</ele>
        <time>2022-08-15T08:45:11Z</time>
      </trkpt>
      <trkpt lat="47.04743" lon="-1.84021">
        <ele>86</ele>
        <time>2022-08-15T08:45:13Z</time>
      </trkpt>
      <trkpt lat="47.04734" lon="-1.84011">
        <ele>85</ele>
        <time>2022-08-15T08:45:15Z</time>
      </trkpt>
      <trkpt lat="47.04725" lon="-1.84">
        <ele>85</ele>
        <time>2022-08-15T08:45:17Z</time>
      </trkpt>
      <trkpt lat="47.04715" lon="-1.83988">
        <ele>85</ele>
        <time>2022-08-15T08:45:19Z</time>
      </trkpt>
      <trkpt lat="47.04705" lon="-1.83976">
        <ele>86</ele>
        <time>2022-08-15T08:45:21Z</time>
      </trkpt>
      <trkpt lat="47.04694" lon="-1.83964">
        <ele>86</ele>
        <time>2022-08-15T08:45:23Z</time>
      </trkpt>
      <trkpt lat="47.04684" lon="-1.83952">
        <ele>86</ele>
        <time>2022-08-15T08:45:25Z</time>
      </trkpt>
      <trkpt lat="47.04674" lon="-1.83939">
        <ele>86</ele>
        <time>2022-08-15T08:45:27Z</time>
      </trkpt>
      <trkpt lat="47.04664" lon="-1.83927">
        <ele>85</ele>
        <time>2022-08-15T08:45:29Z</time>
      </trkpt>
      <trkpt lat="47.04654" lon="-1.83914">
        <ele>85</ele>
        <time>2022-08-15T08:45:31Z</time>
      </trkpt>
      <trkpt lat="47.04644" lon="-1.839">
        <ele>85</ele>
        <time>2022-08-15T08:45:33Z</time>
      </trkpt>
      <trkpt lat="47.04635" lon="-1.83886">
        <ele>85</ele>
        <time>2022-08-15T08:45:35Z</time>
      </trkpt>
      <trkpt lat="47.04626" lon="-1.83872">
        <ele>85</ele>
        <time>2022-08-15T08:45:37Z</time>
      </trkpt>
      <trkpt lat="47.04616" lon="-1.83859">
        <ele>85</ele>
        <time>2022-08-15T08:45:39Z</time>
      </trkpt>
      <trkpt lat="47.04606" lon="-1.83847">
        <ele>85</ele>
        <time>2022-08-15T08:45:41Z</time>
      </trkpt>
      <trkpt lat="47.04595" lon="-1.83836">
        <ele>85</ele>
        <time>2022-08-15T08:45:43Z</time>
      </trkpt>
      <trkpt lat="47.04584" lon="-1.83827">
        <ele>85</ele>
        <time>2022-08-15T08:45:45Z</time>
      </trkpt>
      <trkpt lat="47.04572" lon="-1.83819">
        <ele>85</ele>
        <time>2022-08-15T08:45:47Z</time>
      </trkpt>
      <trkpt lat="47.0456" lon="-1.83811">
        <ele>85</ele>
        <time>2022-08-15T08:45:49Z</time>
      </trkpt>
      <trkpt lat="47.04548" lon="-1.83802">
        <ele>85</ele>
        <time>2022-08-15T08:45:51Z</time>
      </trkpt>
      <trkpt lat="47.04537" lon="-1.83794">
        <ele>85</ele>
        <time>2022-08-15T08:45:53Z</time>
      </trkpt>
      <trkpt lat="47.04525" lon="-1.83786">
        <ele>85</ele>
        <time>2022-08-15T08:45:55Z</time>
      </trkpt>
      <trkpt lat="47.04514" lon="-1.83778">
        <ele>85</ele>
        <time>2022-08-15T08:45:57Z</time>
      </trkpt>
      <trkpt lat="47.04503" lon="-1.83769">
        <ele>84</ele>
        <time>2022-08-15T08:45:59Z</time>
      </trkpt>
      <trkpt lat="47.04492" lon="-1.8376">
        <ele>85</ele>
        <time>2022-08-15T08:46:01Z</time>
      </trkpt>
      <trkpt lat="47.04481" lon="-1.8375">
        <ele>85</ele>
        <time>2022-08-15T08:46:03Z</time>
      </trkpt>
      <trkpt lat="47.0447" lon="-1.83741">
        <ele>84</ele>
        <time>2022-08-15T08:46:05Z</time>
      </trkpt>
      <trkpt lat="47.04459" lon="-1.83732">
        <ele>85</ele>
        <time>2022-08-15T08:46:07Z</time>
      </trkpt>
      <trkpt lat="47.04448" lon="-1.83724">
        <ele>85</ele>
        <time>2022-08-15T08:46:09Z</time>
      </trkpt>
      <trkpt lat="47.04437" lon="-1.83715">
        <ele>85</ele>
        <time>2022-08-15T08:46:11Z</time>
      </trkpt>
      <trkpt lat="47.04425" lon="-1.83706">
        <ele>85</ele>
        <time>2022-08-15T08:46:13Z</time>
      </trkpt>
      <trkpt lat="47.04414" lon="-1.83698">
        <ele>85</ele>
        <time>2022-08-15T08:46:15Z</time>
      </trkpt>
      <trkpt lat="47.04402" lon="-1.8369">
        <ele>84</ele>
        <time>2022-08-15T08:46:17Z</time>
      </trkpt>
      <trkpt lat="47.0439" lon="-1.83681">
        <ele>84</ele>
        <time>2022-08-15T08:46:19Z</time>
      </trkpt>
      <trkpt lat="47.04379" lon="-1.83675">
        <ele>83</ele>
        <time>2022-08-15T08:46:21Z</time>
      </trkpt>
      <trkpt lat="47.04366" lon="-1.8367">
        <ele>83</ele>
        <time>2022-08-15T08:46:23Z</time>
      </trkpt>
      <trkpt lat="47.04354" lon="-1.83667">
        <ele>83</ele>
        <time>2022-08-15T08:46:25Z</time>
      </trkpt>
      <trkpt lat="47.04341" lon="-1.83664">
        <ele>82</ele>
        <time>2022-08-15T08:46:27Z</time>
      </trkpt>
      <trkpt lat="47.04328" lon="-1.83661">
        <ele>82</ele>
        <time>2022-08-15T08:46:29Z</time>
      </trkpt>
      <trkpt lat="47.04316" lon="-1.83658">
        <ele>82</ele>
        <time>2022-08-15T08:46:31Z</time>
      </trkpt>
      <trkpt lat="47.04303" lon="-1.83655">
        <ele>82</ele>
        <time>2022-08-15T08:46:33Z</time>
      </trkpt>
      <trkpt lat="47.0429" lon="-1.83651">
        <ele>82</ele>
        <time>2022-08-15T08:46:35Z</time>
      </trkpt>
      <trkpt lat="47.04276" lon="-1.83647">
        <ele>81</ele>
        <time>2022-08-15T08:46:37Z</time>
      </trkpt>
      <trkpt lat="47.04262" lon="-1.83643">
        <ele>82</ele>
        <time>2022-08-15T08:46:39Z</time>
      </trkpt>
      <trkpt lat="47.04249" lon="-1.8364">
        <ele>82</ele>
        <time>2022-08-15T08:46:41Z</time>
      </trkpt>
      <trkpt lat="47.04237" lon="-1.83636">
        <ele>82</ele>
        <time>2022-08-15T08:46:43Z</time>
      </trkpt>
      <trkpt lat="47.04225" lon="-1.83629">
        <ele>82</ele>
        <time>2022-08-15T08:46:45Z</time>
      </trkpt>
      <trkpt lat="47.04214" lon="-1.8362">
        <ele>82</ele>
        <time>2022-08-15T08:46:47Z</time>
      </trkpt>
      <trkpt lat="47.04201" lon="-1.83614">
        <ele>82</ele>
        <time>2022-08-15T08:46:49Z</time>
      </trkpt>
      <trkpt lat="47.04189" lon="-1.83616">
        <ele>81</ele>
        <time>2022-08-15T08:46:51Z</time>
      </trkpt>
      <trkpt lat="47.04177" lon="-1.83614">
        <ele>80</ele>
        <time>2022-08-15T08:46:53Z</time>
      </trkpt>
      <trkpt lat="47.04164" lon="-1.83609">
        <ele>80</ele>
        <time>2022-08-15T08:46:55Z</time>
      </trkpt>
      <trkpt lat="47.04153" lon="-1.83603">
        <ele>79</ele>
        <time>2022-08-15T08:46:57Z</time>
      </trkpt>
      <trkpt lat="47.04141" lon="-1.83597">
        <ele>80</ele>
        <time>2022-08-15T08:46:59Z</time>
      </trkpt>
      <trkpt lat="47.04129" lon="-1.8359">
        <ele>80</ele>
        <time>2022-08-15T08:47:01Z</time>
      </trkpt>
      <trkpt lat="47.04117" lon="-1.83585">
        <ele>80</ele>
        <time>2022-08-15T08:47:03Z</time>
      </trkpt>
      <trkpt lat="47.04105" lon="-1.8358">
        <ele>80</ele>
        <time>2022-08-15T08:47:05Z</time>
      </trkpt>
      <trkpt lat="47.04093" lon="-1.83575">
        <ele>80</ele>
        <time>2022-08-15T08:47:07Z</time>
      </trkpt>
      <trkpt lat="47.04081" lon="-1.83571">
        <ele>80</ele>
        <time>2022-08-15T08:47:09Z</time>
      </trkpt>
      <trkpt lat="47.04069" lon="-1.83568">
        <ele>80</ele>
        <time>2022-08-15T08:47:11Z</time>
      </trkpt>
      <trkpt lat="47.04056" lon="-1.83566">
        <ele>81</ele>
        <time>2022-08-15T08:47:13Z</time>
      </trkpt>
      <trkpt lat="47.04043" lon="-1.83564">
        <ele>81</ele>
        <time>2022-08-15T08:47:15Z</time>
      </trkpt>
      <trkpt lat="47.04031" lon="-1.83563">
        <ele>81</ele>
        <time>2022-08-15T08:47:17Z</time>
      </trkpt>
      <trkpt lat="47.04019" lon="-1.83562">
        <ele>81</ele>
        <time>2022-08-15T08:47:19Z</time>
      </trkpt>
      <trkpt lat="47.04007" lon="-1.83561">
        <ele>81</ele>
        <time>2022-08-15T08:47:21Z</time>
      </trkpt>
      <trkpt lat="47.03994" lon="-1.83559">
        <ele>81</ele>
        <time>2022-08-15T08:47:23Z</time>
      </trkpt>
      <trkpt lat="47.03982" lon="-1.83558">
        <ele>81</ele>
        <time>2022-08-15T08:47:25Z</time>
      </trkpt>
      <trkpt lat="47.03969" lon="-1.83556">
        <ele>81</ele>
        <time>2022-08-15T08:47:27Z</time>
      </trkpt>
      <trkpt lat="47.03957" lon="-1.83555">
        <ele>81</ele>
        <time>2022-08-15T08:47:29Z</time>
      </trkpt>
      <trkpt lat="47.03944" lon="-1.83554">
        <ele>81</ele>
        <time>2022-08-15T08:47:31Z</time>
      </trkpt>
      <trkpt lat="47.03931" lon="-1.83552">
        <ele>81</ele>
        <time>2022-08-15T08:47:33Z</time>
      </trkpt>
      <trkpt lat="47.03918" lon="-1.8355">
        <ele>81</ele>
        <time>2022-08-15T08:47:35Z</time>
      </trkpt>
      <trkpt lat="47.03905" lon="-1.83547">
        <ele>81</ele>
        <time>2022-08-15T08:47:37Z</time>
      </trkpt>
      <trkpt lat="47.03892" lon="-1.83545">
        <ele>81</ele>
        <time>2022-08-15T08:47:39Z</time>
      </trkpt>
      <trkpt lat="47.03879" lon="-1.83544">
        <ele>81</ele>
        <time>2022-08-15T08:47:41Z</time>
      </trkpt>
      <trkpt lat="47.03867" lon="-1.83542">
        <ele>81</ele>
        <time>2022-08-15T08:47:43Z</time>
      </trkpt>
      <trkpt lat="47.03855" lon="-1.8354">
        <ele>81</ele>
        <time>2022-08-15T08:47:45Z</time>
      </trkpt>
      <trkpt lat="47.03842" lon="-1.83539">
        <ele>80</ele>
        <time>2022-08-15T08:47:47Z</time>
      </trkpt>
      <trkpt lat="47.03829" lon="-1.83538">
        <ele>80</ele>
        <time>2022-08-15T08:47:49Z</time>
      </trkpt>
      <trkpt lat="47.03817" lon="-1.83536">
        <ele>81</ele>
        <time>2022-08-15T08:47:51Z</time>
      </trkpt>
      <trkpt lat="47.03805" lon="-1.83536">
        <ele>81</ele>
        <time>2022-08-15T08:47:53Z</time>
      </trkpt>
      <trkpt lat="47.03792" lon="-1.83535">
        <ele>81</ele>
        <time>2022-08-15T08:47:55Z</time>
      </trkpt>
      <trkpt lat="47.03778" lon="-1.83535">
        <ele>81</ele>
        <time>2022-08-15T08:47:57Z</time>
      </trkpt>
      <trkpt lat="47.03765" lon="-1.83534">
        <ele>81</ele>
        <time>2022-08-15T08:47:59Z</time>
      </trkpt>
      <trkpt lat="47.03751" lon="-1.83534">
        <ele>81</ele>
        <time>2022-08-15T08:48:01Z</time>
      </trkpt>
      <trkpt lat="47.03739" lon="-1.83534">
        <ele>82</ele>
        <time>2022-08-15T08:48:03Z</time>
      </trkpt>
      <trkpt lat="47.03726" lon="-1.83534">
        <ele>82</ele>
        <time>2022-08-15T08:48:05Z</time>
      </trkpt>
      <trkpt lat="47.03714" lon="-1.83534">
        <ele>82</ele>
        <time>2022-08-15T08:48:07Z</time>
      </trkpt>
      <trkpt lat="47.03701" lon="-1.83534">
        <ele>82</ele>
        <time>2022-08-15T08:48:09Z</time>
      </trkpt>
      <trkpt lat="47.03688" lon="-1.83534">
        <ele>82</ele>
        <time>2022-08-15T08:48:11Z</time>
      </trkpt>
      <trkpt lat="47.03676" lon="-1.83534">
        <ele>81</ele>
        <time>2022-08-15T08:48:13Z</time>
      </trkpt>
      <trkpt lat="47.03663" lon="-1.83534">
        <ele>81</ele>
        <time>2022-08-15T08:48:15Z</time>
      </trkpt>
      <trkpt lat="47.03651" lon="-1.83534">
        <ele>81</ele>
        <time>2022-08-15T08:48:17Z</time>
      </trkpt>
      <trkpt lat="47.03638" lon="-1.83534">
        <ele>81</ele>
        <time>2022-08-15T08:48:19Z</time>
      </trkpt>
      <trkpt lat="47.03625" lon="-1.83535">
        <ele>81</ele>
        <time>2022-08-15T08:48:21Z</time>
      </trkpt>
      <trkpt lat="47.03613" lon="-1.83535">
        <ele>80</ele>
        <time>2022-08-15T08:48:23Z</time>
      </trkpt>
      <trkpt lat="47.036" lon="-1.83536">
        <ele>80</ele>
        <time>2022-08-15T08:48:25Z</time>
      </trkpt>
      <trkpt lat="47.03587" lon="-1.83537">
        <ele>80</ele>
        <time>2022-08-15T08:48:27Z</time>
      </trkpt>
      <trkpt lat="47.03575" lon="-1.83537">
        <ele>79</ele>
        <time>2022-08-15T08:48:29Z</time>
      </trkpt>
      <trkpt lat="47.03562" lon="-1.83537">
        <ele>79</ele>
        <time>2022-08-15T08:48:31Z</time>
      </trkpt>
      <trkpt lat="47.0355" lon="-1.83537">
        <ele>79</ele>
        <time>2022-08-15T08:48:33Z</time>
      </trkpt>
      <trkpt lat="47.03537" lon="-1.83537">
        <ele>79</ele>
        <time>2022-08-15T08:48:35Z</time>
      </trkpt>
      <trkpt lat="47.03524" lon="-1.83537">
        <ele>79</ele>
        <time>2022-08-15T08:48:37Z</time>
      </trkpt>
      <trkpt lat="47.03511" lon="-1.83536">
        <ele>79</ele>
        <time>2022-08-15T08:48:39Z</time>
      </trkpt>
      <trkpt lat="47.03499" lon="-1.83536">
        <ele>79</ele>
        <time>2022-08-15T08:48:41Z</time>
      </trkpt>
      <trkpt lat="47.03486" lon="-1.83534">
        <ele>79</ele>
        <time>2022-08-15T08:48:43Z</time>
      </trkpt>
      <trkpt lat="47.03473" lon="-1.83532">
        <ele>78</ele>
        <time>2022-08-15T08:48:45Z</time>
      </trkpt>
      <trkpt lat="47.0346" lon="-1.83528">
        <ele>78</ele>
        <time>2022-08-15T08:48:47Z</time>
      </trkpt>
      <trkpt lat="47.03446" lon="-1.83525">
        <ele>77</ele>
        <time>2022-08-15T08:48:49Z</time>
      </trkpt>
      <trkpt lat="47.03433" lon="-1.83521">
        <ele>77</ele>
        <time>2022-08-15T08:48:51Z</time>
      </trkpt>
      <trkpt lat="47.03419" lon="-1.83517">
        <ele>77</ele>
        <time>2022-08-15T08:48:53Z</time>
      </trkpt>
      <trkpt lat="47.03406" lon="-1.83513">
        <ele>77</ele>
        <time>2022-08-15T08:48:55Z</time>
      </trkpt>
      <trkpt lat="47.03392" lon="-1.83508">
        <ele>78</ele>
        <time>2022-08-15T08:48:57Z</time>
      </trkpt>
      <trkpt lat="47.03379" lon="-1.83503">
        <ele>78</ele>
        <time>2022-08-15T08:48:59Z</time>
      </trkpt>
      <trkpt lat="47.03366" lon="-1.835">
        <ele>78</ele>
        <time>2022-08-15T08:49:01Z</time>
      </trkpt>
      <trkpt lat="47.03352" lon="-1.83497">
        <ele>77</ele>
        <time>2022-08-15T08:49:03Z</time>
      </trkpt>
      <trkpt lat="47.03339" lon="-1.83493">
        <ele>77</ele>
        <time>2022-08-15T08:49:05Z</time>
      </trkpt>
      <trkpt lat="47.03326" lon="-1.83489">
        <ele>77</ele>
        <time>2022-08-15T08:49:07Z</time>
      </trkpt>
      <trkpt lat="47.03313" lon="-1.83486">
        <ele>77</ele>
        <time>2022-08-15T08:49:09Z</time>
      </trkpt>
      <trkpt lat="47.033" lon="-1.83483">
        <ele>77</ele>
        <time>2022-08-15T08:49:11Z</time>
      </trkpt>
      <trkpt lat="47.03287" lon="-1.8348">
        <ele>77</ele>
        <time>2022-08-15T08:49:13Z</time>
      </trkpt>
      <trkpt lat="47.03275" lon="-1.83477">
        <ele>77</ele>
        <time>2022-08-15T08:49:15Z</time>
      </trkpt>
      <trkpt lat="47.03262" lon="-1.83474">
        <ele>77</ele>
        <time>2022-08-15T08:49:17Z</time>
      </trkpt>
      <trkpt lat="47.0325" lon="-1.83471">
        <ele>76</ele>
        <time>2022-08-15T08:49:19Z</time>
      </trkpt>
      <trkpt lat="47.03237" lon="-1.83468">
        <ele>76</ele>
        <time>2022-08-15T08:49:21Z</time>
      </trkpt>
      <trkpt lat="47.03224" lon="-1.83464">
        <ele>76</ele>
        <time>2022-08-15T08:49:23Z</time>
      </trkpt>
      <trkpt lat="47.03212" lon="-1.8346">
        <ele>76</ele>
        <time>2022-08-15T08:49:25Z</time>
      </trkpt>
      <trkpt lat="47.03199" lon="-1.83456">
        <ele>76</ele>
        <time>2022-08-15T08:49:27Z</time>
      </trkpt>
      <trkpt lat="47.03188" lon="-1.83452">
        <ele>76</ele>
        <time>2022-08-15T08:49:29Z</time>
      </trkpt>
      <trkpt lat="47.03177" lon="-1.83452">
        <ele>76</ele>
        <time>2022-08-15T08:49:31Z</time>
      </trkpt>
      <trkpt lat="47.03168" lon="-1.83459">
        <ele>76</ele>
        <time>2022-08-15T08:49:33Z</time>
      </trkpt>
      <trkpt lat="47.03162" lon="-1.83474">
        <ele>76</ele>
        <time>2022-08-15T08:49:35Z</time>
      </trkpt>
      <trkpt lat="47.03153" lon="-1.83486">
        <ele>76</ele>
        <time>2022-08-15T08:49:37Z</time>
      </trkpt>
      <trkpt lat="47.0314" lon="-1.8349">
        <ele>76</ele>
        <time>2022-08-15T08:49:39Z</time>
      </trkpt>
      <trkpt lat="47.03128" lon="-1.83491">
        <ele>76</ele>
        <time>2022-08-15T08:49:41Z</time>
      </trkpt>
      <trkpt lat="47.03114" lon="-1.83492">
        <ele>76</ele>
        <time>2022-08-15T08:49:43Z</time>
      </trkpt>
      <trkpt lat="47.031" lon="-1.83493">
        <ele>75</ele>
        <time>2022-08-15T08:49:45Z</time>
      </trkpt>
      <trkpt lat="47.03087" lon="-1.83495">
        <ele>76</ele>
        <time>2022-08-15T08:49:47Z</time>
      </trkpt>
      <trkpt lat="47.03073" lon="-1.83497">
        <ele>76</ele>
        <time>2022-08-15T08:49:49Z</time>
      </trkpt>
      <trkpt lat="47.03059" lon="-1.83498">
        <ele>76</ele>
        <time>2022-08-15T08:49:51Z</time>
      </trkpt>
      <trkpt lat="47.03045" lon="-1.83498">
        <ele>75</ele>
        <time>2022-08-15T08:49:53Z</time>
      </trkpt>
      <trkpt lat="47.03031" lon="-1.835">
        <ele>75</ele>
        <time>2022-08-15T08:49:55Z</time>
      </trkpt>
      <trkpt lat="47.03018" lon="-1.83502">
        <ele>75</ele>
        <time>2022-08-15T08:49:57Z</time>
      </trkpt>
      <trkpt lat="47.03004" lon="-1.83503">
        <ele>74</ele>
        <time>2022-08-15T08:49:59Z</time>
      </trkpt>
      <trkpt lat="47.02989" lon="-1.83505">
        <ele>74</ele>
        <time>2022-08-15T08:50:01Z</time>
      </trkpt>
      <trkpt lat="47.02974" lon="-1.83507">
        <ele>74</ele>
        <time>2022-08-15T08:50:03Z</time>
      </trkpt>
      <trkpt lat="47.0296" lon="-1.83508">
        <ele>74</ele>
        <time>2022-08-15T08:50:05Z</time>
      </trkpt>
      <trkpt lat="47.02946" lon="-1.8351">
        <ele>74</ele>
        <time>2022-08-15T08:50:07Z</time>
      </trkpt>
      <trkpt lat="47.02932" lon="-1.83513">
        <ele>73</ele>
        <time>2022-08-15T08:50:09Z</time>
      </trkpt>
      <trkpt lat="47.02917" lon="-1.83516">
        <ele>73</ele>
        <time>2022-08-15T08:50:11Z</time>
      </trkpt>
      <trkpt lat="47.02903" lon="-1.8352">
        <ele>73</ele>
        <time>2022-08-15T08:50:13Z</time>
      </trkpt>
      <trkpt lat="47.02889" lon="-1.83524">
        <ele>73</ele>
        <time>2022-08-15T08:50:15Z</time>
      </trkpt>
      <trkpt lat="47.02875" lon="-1.83527">
        <ele>73</ele>
        <time>2022-08-15T08:50:17Z</time>
      </trkpt>
      <trkpt lat="47.02862" lon="-1.83532">
        <ele>73</ele>
        <time>2022-08-15T08:50:19Z</time>
      </trkpt>
      <trkpt lat="47.02849" lon="-1.83537">
        <ele>73</ele>
        <time>2022-08-15T08:50:21Z</time>
      </trkpt>
      <trkpt lat="47.02837" lon="-1.83545">
        <ele>73</ele>
        <time>2022-08-15T08:50:23Z</time>
      </trkpt>
      <trkpt lat="47.02826" lon="-1.83554">
        <ele>73</ele>
        <time>2022-08-15T08:50:25Z</time>
      </trkpt>
      <trkpt lat="47.02815" lon="-1.83565">
        <ele>73</ele>
        <time>2022-08-15T08:50:27Z</time>
      </trkpt>
      <trkpt lat="47.02804" lon="-1.83576">
        <ele>73</ele>
        <time>2022-08-15T08:50:29Z</time>
      </trkpt>
      <trkpt lat="47.02794" lon="-1.83587">
        <ele>73</ele>
        <time>2022-08-15T08:50:31Z</time>
      </trkpt>
      <trkpt lat="47.02783" lon="-1.83598">
        <ele>73</ele>
        <time>2022-08-15T08:50:33Z</time>
      </trkpt>
      <trkpt lat="47.02771" lon="-1.83605">
        <ele>73</ele>
        <time>2022-08-15T08:50:35Z</time>
      </trkpt>
      <trkpt lat="47.02758" lon="-1.83611">
        <ele>73</ele>
        <time>2022-08-15T08:50:37Z</time>
      </trkpt>
      <trkpt lat="47.02746" lon="-1.83616">
        <ele>73</ele>
        <time>2022-08-15T08:50:39Z</time>
      </trkpt>
      <trkpt lat="47.02732" lon="-1.83618">
        <ele>73</ele>
        <time>2022-08-15T08:50:41Z</time>
      </trkpt>
      <trkpt lat="47.02719" lon="-1.83619">
        <ele>73</ele>
        <time>2022-08-15T08:50:43Z</time>
      </trkpt>
      <trkpt lat="47.02705" lon="-1.8362">
        <ele>72</ele>
        <time>2022-08-15T08:50:45Z</time>
      </trkpt>
      <trkpt lat="47.0269" lon="-1.83621">
        <ele>72</ele>
        <time>2022-08-15T08:50:47Z</time>
      </trkpt>
      <trkpt lat="47.02676" lon="-1.83622">
        <ele>72</ele>
        <time>2022-08-15T08:50:49Z</time>
      </trkpt>
      <trkpt lat="47.02662" lon="-1.83623">
        <ele>71</ele>
        <time>2022-08-15T08:50:51Z</time>
      </trkpt>
      <trkpt lat="47.02648" lon="-1.83623">
        <ele>71</ele>
        <time>2022-08-15T08:50:53Z</time>
      </trkpt>
      <trkpt lat="47.02633" lon="-1.83624">
        <ele>72</ele>
        <time>2022-08-15T08:50:55Z</time>
      </trkpt>
      <trkpt lat="47.02619" lon="-1.83625">
        <ele>71</ele>
        <time>2022-08-15T08:50:57Z</time>
      </trkpt>
      <trkpt lat="47.02604" lon="-1.83626">
        <ele>71</ele>
        <time>2022-08-15T08:50:59Z</time>
      </trkpt>
      <trkpt lat="47.0259" lon="-1.83627">
        <ele>71</ele>
        <time>2022-08-15T08:51:01Z</time>
      </trkpt>
      <trkpt lat="47.02576" lon="-1.83628">
        <ele>71</ele>
        <time>2022-08-15T08:51:03Z</time>
      </trkpt>
      <trkpt lat="47.02561" lon="-1.83628">
        <ele>71</ele>
        <time>2022-08-15T08:51:05Z</time>
      </trkpt>
      <trkpt lat="47.02545" lon="-1.83629">
        <ele>72</ele>
        <time>2022-08-15T08:51:07Z</time>
      </trkpt>
      <trkpt lat="47.0253" lon="-1.83631">
        <ele>72</ele>
        <time>2022-08-15T08:51:09Z</time>
      </trkpt>
      <trkpt lat="47.02516" lon="-1.83634">
        <ele>72</ele>
        <time>2022-08-15T08:51:11Z</time>
      </trkpt>
      <trkpt lat="47.02502" lon="-1.83637">
        <ele>71</ele>
        <time>2022-08-15T08:51:13Z</time>
      </trkpt>
      <trkpt lat="47.02488" lon="-1.8364">
        <ele>70</ele>
        <time>2022-08-15T08:51:15Z</time>
      </trkpt>
      <trkpt lat="47.02475" lon="-1.83644">
        <ele>70</ele>
        <time>2022-08-15T08:51:17Z</time>
      </trkpt>
      <trkpt lat="47.02461" lon="-1.83648">
        <ele>70</ele>
        <time>2022-08-15T08:51:19Z</time>
      </trkpt>
      <trkpt lat="47.02447" lon="-1.83651">
        <ele>70</ele>
        <time>2022-08-15T08:51:21Z</time>
      </trkpt>
      <trkpt lat="47.02433" lon="-1.83654">
        <ele>70</ele>
        <time>2022-08-15T08:51:23Z</time>
      </trkpt>
      <trkpt lat="47.02419" lon="-1.83657">
        <ele>71</ele>
        <time>2022-08-15T08:51:25Z</time>
      </trkpt>
      <trkpt lat="47.02405" lon="-1.83658">
        <ele>70</ele>
        <time>2022-08-15T08:51:27Z</time>
      </trkpt>
      <trkpt lat="47.0239" lon="-1.83659">
        <ele>70</ele>
        <time>2022-08-15T08:51:29Z</time>
      </trkpt>
      <trkpt lat="47.02377" lon="-1.8366">
        <ele>70</ele>
        <time>2022-08-15T08:51:31Z</time>
      </trkpt>
      <trkpt lat="47.02363" lon="-1.83659">
        <ele>70</ele>
        <time>2022-08-15T08:51:33Z</time>
      </trkpt>
      <trkpt lat="47.02348" lon="-1.83658">
        <ele>70</ele>
        <time>2022-08-15T08:51:35Z</time>
      </trkpt>
      <trkpt lat="47.02334" lon="-1.83657">
        <ele>71</ele>
        <time>2022-08-15T08:51:37Z</time>
      </trkpt>
      <trkpt lat="47.0232" lon="-1.83655">
        <ele>71</ele>
        <time>2022-08-15T08:51:39Z</time>
      </trkpt>
      <trkpt lat="47.02305" lon="-1.83654">
        <ele>71</ele>
        <time>2022-08-15T08:51:41Z</time>
      </trkpt>
      <trkpt lat="47.0229" lon="-1.83653">
        <ele>71</ele>
        <time>2022-08-15T08:51:43Z</time>
      </trkpt>
      <trkpt lat="47.02269" lon="-1.83652">
        <ele>71</ele>
        <time>2022-08-15T08:51:46Z</time>
      </trkpt>
      <trkpt lat="47.02248" lon="-1.83651">
        <ele>72</ele>
        <time>2022-08-15T08:51:49Z</time>
      </trkpt>
      <trkpt lat="47.02234" lon="-1.83649">
        <ele>72</ele>
        <time>2022-08-15T08:51:51Z</time>
      </trkpt>
      <trkpt lat="47.02219" lon="-1.83648">
        <ele>72</ele>
        <time>2022-08-15T08:51:53Z</time>
      </trkpt>
      <trkpt lat="47.02205" lon="-1.83645">
        <ele>72</ele>
        <time>2022-08-15T08:51:55Z</time>
      </trkpt>
      <trkpt lat="47.02185" lon="-1.83639">
        <ele>71</ele>
        <time>2022-08-15T08:51:58Z</time>
      </trkpt>
      <trkpt lat="47.02171" lon="-1.83631">
        <ele>71</ele>
        <time>2022-08-15T08:52:00Z</time>
      </trkpt>
      <trkpt lat="47.02156" lon="-1.83622">
        <ele>70</ele>
        <time>2022-08-15T08:52:02Z</time>
      </trkpt>
      <trkpt lat="47.02143" lon="-1.83613">
        <ele>70</ele>
        <time>2022-08-15T08:52:04Z</time>
      </trkpt>
      <trkpt lat="47.0213" lon="-1.83605">
        <ele>70</ele>
        <time>2022-08-15T08:52:06Z</time>
      </trkpt>
      <trkpt lat="47.0211" lon="-1.83593">
        <ele>69</ele>
        <time>2022-08-15T08:52:09Z</time>
      </trkpt>
      <trkpt lat="47.02097" lon="-1.83585">
        <ele>70</ele>
        <time>2022-08-15T08:52:11Z</time>
      </trkpt>
      <trkpt lat="47.02085" lon="-1.83578">
        <ele>70</ele>
        <time>2022-08-15T08:52:13Z</time>
      </trkpt>
      <trkpt lat="47.02071" lon="-1.8357">
        <ele>69</ele>
        <time>2022-08-15T08:52:15Z</time>
      </trkpt>
      <trkpt lat="47.02058" lon="-1.83563">
        <ele>68</ele>
        <time>2022-08-15T08:52:17Z</time>
      </trkpt>
      <trkpt lat="47.02044" lon="-1.83554">
        <ele>68</ele>
        <time>2022-08-15T08:52:19Z</time>
      </trkpt>
      <trkpt lat="47.02031" lon="-1.83545">
        <ele>68</ele>
        <time>2022-08-15T08:52:21Z</time>
      </trkpt>
      <trkpt lat="47.02018" lon="-1.83537">
        <ele>68</ele>
        <time>2022-08-15T08:52:23Z</time>
      </trkpt>
      <trkpt lat="47.02004" lon="-1.83529">
        <ele>67</ele>
        <time>2022-08-15T08:52:25Z</time>
      </trkpt>
      <trkpt lat="47.0199" lon="-1.83521">
        <ele>68</ele>
        <time>2022-08-15T08:52:27Z</time>
      </trkpt>
      <trkpt lat="47.01976" lon="-1.83512">
        <ele>67</ele>
        <time>2022-08-15T08:52:29Z</time>
      </trkpt>
      <trkpt lat="47.01961" lon="-1.83505">
        <ele>67</ele>
        <time>2022-08-15T08:52:31Z</time>
      </trkpt>
      <trkpt lat="47.01947" lon="-1.83498">
        <ele>66</ele>
        <time>2022-08-15T08:52:33Z</time>
      </trkpt>
      <trkpt lat="47.01931" lon="-1.83496">
        <ele>66</ele>
        <time>2022-08-15T08:52:35Z</time>
      </trkpt>
      <trkpt lat="47.01915" lon="-1.83498">
        <ele>65</ele>
        <time>2022-08-15T08:52:37Z</time>
      </trkpt>
      <trkpt lat="47.01898" lon="-1.83502">
        <ele>64</ele>
        <time>2022-08-15T08:52:39Z</time>
      </trkpt>
      <trkpt lat="47.0188" lon="-1.83506">
        <ele>64</ele>
        <time>2022-08-15T08:52:41Z</time>
      </trkpt>
      <trkpt lat="47.01871" lon="-1.83509">
        <ele>63</ele>
        <time>2022-08-15T08:52:42Z</time>
      </trkpt>
      <trkpt lat="47.01855" lon="-1.83513">
        <ele>62</ele>
        <time>2022-08-15T08:52:44Z</time>
      </trkpt>
      <trkpt lat="47.01838" lon="-1.83517">
        <ele>62</ele>
        <time>2022-08-15T08:52:46Z</time>
      </trkpt>
      <trkpt lat="47.01822" lon="-1.8352">
        <ele>62</ele>
        <time>2022-08-15T08:52:48Z</time>
      </trkpt>
      <trkpt lat="47.01805" lon="-1.83523">
        <ele>61</ele>
        <time>2022-08-15T08:52:50Z</time>
      </trkpt>
      <trkpt lat="47.01789" lon="-1.83527">
        <ele>61</ele>
        <time>2022-08-15T08:52:52Z</time>
      </trkpt>
      <trkpt lat="47.01774" lon="-1.83531">
        <ele>60</ele>
        <time>2022-08-15T08:52:54Z</time>
      </trkpt>
      <trkpt lat="47.0176" lon="-1.83538">
        <ele>60</ele>
        <time>2022-08-15T08:52:56Z</time>
      </trkpt>
      <trkpt lat="47.01747" lon="-1.83549">
        <ele>59</ele>
        <time>2022-08-15T08:52:58Z</time>
      </trkpt>
      <trkpt lat="47.01736" lon="-1.83564">
        <ele>59</ele>
        <time>2022-08-15T08:53:00Z</time>
      </trkpt>
      <trkpt lat="47.01728" lon="-1.8358">
        <ele>60</ele>
        <time>2022-08-15T08:53:02Z</time>
      </trkpt>
      <trkpt lat="47.01721" lon="-1.83595">
        <ele>60</ele>
        <time>2022-08-15T08:53:04Z</time>
      </trkpt>
      <trkpt lat="47.01714" lon="-1.8361">
        <ele>60</ele>
        <time>2022-08-15T08:53:06Z</time>
      </trkpt>
      <trkpt lat="47.01707" lon="-1.83624">
        <ele>60</ele>
        <time>2022-08-15T08:53:08Z</time>
      </trkpt>
      <trkpt lat="47.01699" lon="-1.83638">
        <ele>60</ele>
        <time>2022-08-15T08:53:10Z</time>
      </trkpt>
      <trkpt lat="47.01691" lon="-1.83652">
        <ele>61</ele>
        <time>2022-08-15T08:53:12Z</time>
      </trkpt>
      <trkpt lat="47.01683" lon="-1.83665">
        <ele>61</ele>
        <time>2022-08-15T08:53:14Z</time>
      </trkpt>
      <trkpt lat="47.01673" lon="-1.83678">
        <ele>61</ele>
        <time>2022-08-15T08:53:16Z</time>
      </trkpt>
      <trkpt lat="47.01663" lon="-1.8369">
        <ele>61</ele>
        <time>2022-08-15T08:53:18Z</time>
      </trkpt>
      <trkpt lat="47.01653" lon="-1.83702">
        <ele>60</ele>
        <time>2022-08-15T08:53:20Z</time>
      </trkpt>
      <trkpt lat="47.01642" lon="-1.83715">
        <ele>60</ele>
        <time>2022-08-15T08:53:22Z</time>
      </trkpt>
      <trkpt lat="47.01632" lon="-1.83728">
        <ele>60</ele>
        <time>2022-08-15T08:53:24Z</time>
      </trkpt>
      <trkpt lat="47.01621" lon="-1.83742">
        <ele>59</ele>
        <time>2022-08-15T08:53:26Z</time>
      </trkpt>
      <trkpt lat="47.0161" lon="-1.83755">
        <ele>59</ele>
        <time>2022-08-15T08:53:28Z</time>
      </trkpt>
      <trkpt lat="47.01599" lon="-1.83768">
        <ele>59</ele>
        <time>2022-08-15T08:53:30Z</time>
      </trkpt>
      <trkpt lat="47.01588" lon="-1.8378">
        <ele>59</ele>
        <time>2022-08-15T08:53:32Z</time>
      </trkpt>
      <trkpt lat="47.01577" lon="-1.83793">
        <ele>59</ele>
        <time>2022-08-15T08:53:34Z</time>
      </trkpt>
      <trkpt lat="47.01565" lon="-1.83807">
        <ele>58</ele>
        <time>2022-08-15T08:53:36Z</time>
      </trkpt>
      <trkpt lat="47.01555" lon="-1.83821">
        <ele>58</ele>
        <time>2022-08-15T08:53:38Z</time>
      </trkpt>
      <trkpt lat="47.01544" lon="-1.83835">
        <ele>58</ele>
        <time>2022-08-15T08:53:40Z</time>
      </trkpt>
      <trkpt lat="47.01534" lon="-1.8385">
        <ele>58</ele>
        <time>2022-08-15T08:53:42Z</time>
      </trkpt>
      <trkpt lat="47.01525" lon="-1.83865">
        <ele>59</ele>
        <time>2022-08-15T08:53:44Z</time>
      </trkpt>
      <trkpt lat="47.01515" lon="-1.83881">
        <ele>59</ele>
        <time>2022-08-15T08:53:46Z</time>
      </trkpt>
      <trkpt lat="47.01505" lon="-1.83896">
        <ele>59</ele>
        <time>2022-08-15T08:53:48Z</time>
      </trkpt>
      <trkpt lat="47.01495" lon="-1.83912">
        <ele>58</ele>
        <time>2022-08-15T08:53:50Z</time>
      </trkpt>
      <trkpt lat="47.01485" lon="-1.83927">
        <ele>57</ele>
        <time>2022-08-15T08:53:52Z</time>
      </trkpt>
      <trkpt lat="47.01474" lon="-1.83942">
        <ele>57</ele>
        <time>2022-08-15T08:53:54Z</time>
      </trkpt>
      <trkpt lat="47.01463" lon="-1.83957">
        <ele>57</ele>
        <time>2022-08-15T08:53:56Z</time>
      </trkpt>
      <trkpt lat="47.01453" lon="-1.83973">
        <ele>56</ele>
        <time>2022-08-15T08:53:58Z</time>
      </trkpt>
      <trkpt lat="47.01443" lon="-1.83988">
        <ele>56</ele>
        <time>2022-08-15T08:54:00Z</time>
      </trkpt>
      <trkpt lat="47.01433" lon="-1.84004">
        <ele>56</ele>
        <time>2022-08-15T08:54:02Z</time>
      </trkpt>
      <trkpt lat="47.01422" lon="-1.84019">
        <ele>56</ele>
        <time>2022-08-15T08:54:04Z</time>
      </trkpt>
      <trkpt lat="47.01412" lon="-1.84035">
        <ele>56</ele>
        <time>2022-08-15T08:54:06Z</time>
      </trkpt>
      <trkpt lat="47.01402" lon="-1.8405">
        <ele>55</ele>
        <time>2022-08-15T08:54:08Z</time>
      </trkpt>
      <trkpt lat="47.01391" lon="-1.84065">
        <ele>55</ele>
        <time>2022-08-15T08:54:10Z</time>
      </trkpt>
      <trkpt lat="47.0138" lon="-1.84079">
        <ele>54</ele>
        <time>2022-08-15T08:54:12Z</time>
      </trkpt>
      <trkpt lat="47.01368" lon="-1.84093">
        <ele>54</ele>
        <time>2022-08-15T08:54:14Z</time>
      </trkpt>
      <trkpt lat="47.01357" lon="-1.84107">
        <ele>53</ele>
        <time>2022-08-15T08:54:16Z</time>
      </trkpt>
      <trkpt lat="47.01345" lon="-1.8412">
        <ele>53</ele>
        <time>2022-08-15T08:54:18Z</time>
      </trkpt>
      <trkpt lat="47.01333" lon="-1.84133">
        <ele>53</ele>
        <time>2022-08-15T08:54:20Z</time>
      </trkpt>
      <trkpt lat="47.01322" lon="-1.84146">
        <ele>53</ele>
        <time>2022-08-15T08:54:22Z</time>
      </trkpt>
      <trkpt lat="47.0131" lon="-1.84159">
        <ele>53</ele>
        <time>2022-08-15T08:54:24Z</time>
      </trkpt>
      <trkpt lat="47.01299" lon="-1.84172">
        <ele>53</ele>
        <time>2022-08-15T08:54:26Z</time>
      </trkpt>
      <trkpt lat="47.01288" lon="-1.84183">
        <ele>53</ele>
        <time>2022-08-15T08:54:28Z</time>
      </trkpt>
      <trkpt lat="47.01277" lon="-1.84195">
        <ele>54</ele>
        <time>2022-08-15T08:54:30Z</time>
      </trkpt>
      <trkpt lat="47.01266" lon="-1.84206">
        <ele>54</ele>
        <time>2022-08-15T08:54:32Z</time>
      </trkpt>
      <trkpt lat="47.01255" lon="-1.84218">
        <ele>54</ele>
        <time>2022-08-15T08:54:34Z</time>
      </trkpt>
      <trkpt lat="47.01244" lon="-1.8423">
        <ele>54</ele>
        <time>2022-08-15T08:54:36Z</time>
      </trkpt>
      <trkpt lat="47.01234" lon="-1.84242">
        <ele>54</ele>
        <time>2022-08-15T08:54:38Z</time>
      </trkpt>
      <trkpt lat="47.01223" lon="-1.84254">
        <ele>54</ele>
        <time>2022-08-15T08:54:40Z</time>
      </trkpt>
      <trkpt lat="47.01213" lon="-1.84266">
        <ele>54</ele>
        <time>2022-08-15T08:54:42Z</time>
      </trkpt>
      <trkpt lat="47.01203" lon="-1.84279">
        <ele>54</ele>
        <time>2022-08-15T08:54:44Z</time>
      </trkpt>
      <trkpt lat="47.01193" lon="-1.84293">
        <ele>54</ele>
        <time>2022-08-15T08:54:46Z</time>
      </trkpt>
      <trkpt lat="47.01185" lon="-1.84309">
        <ele>54</ele>
        <time>2022-08-15T08:54:48Z</time>
      </trkpt>
      <trkpt lat="47.01179" lon="-1.84326">
        <ele>54</ele>
        <time>2022-08-15T08:54:50Z</time>
      </trkpt>
      <trkpt lat="47.01174" lon="-1.84343">
        <ele>54</ele>
        <time>2022-08-15T08:54:52Z</time>
      </trkpt>
      <trkpt lat="47.0117" lon="-1.84361">
        <ele>53</ele>
        <time>2022-08-15T08:54:54Z</time>
      </trkpt>
      <trkpt lat="47.01165" lon="-1.84379">
        <ele>53</ele>
        <time>2022-08-15T08:54:56Z</time>
      </trkpt>
      <trkpt lat="47.0116" lon="-1.84397">
        <ele>53</ele>
        <time>2022-08-15T08:54:58Z</time>
      </trkpt>
      <trkpt lat="47.01155" lon="-1.84416">
        <ele>53</ele>
        <time>2022-08-15T08:55:00Z</time>
      </trkpt>
      <trkpt lat="47.0115" lon="-1.84435">
        <ele>52</ele>
        <time>2022-08-15T08:55:02Z</time>
      </trkpt>
      <trkpt lat="47.01145" lon="-1.84454">
        <ele>52</ele>
        <time>2022-08-15T08:55:04Z</time>
      </trkpt>
      <trkpt lat="47.0114" lon="-1.84473">
        <ele>51</ele>
        <time>2022-08-15T08:55:06Z</time>
      </trkpt>
      <trkpt lat="47.01135" lon="-1.84492">
        <ele>51</ele>
        <time>2022-08-15T08:55:08Z</time>
      </trkpt>
      <trkpt lat="47.0113" lon="-1.84512">
        <ele>51</ele>
        <time>2022-08-15T08:55:10Z</time>
      </trkpt>
      <trkpt lat="47.01124" lon="-1.84531">
        <ele>51</ele>
        <time>2022-08-15T08:55:12Z</time>
      </trkpt>
      <trkpt lat="47.01116" lon="-1.84547">
        <ele>51</ele>
        <time>2022-08-15T08:55:14Z</time>
      </trkpt>
      <trkpt lat="47.01106" lon="-1.84562">
        <ele>51</ele>
        <time>2022-08-15T08:55:16Z</time>
      </trkpt>
      <trkpt lat="47.01095" lon="-1.84575">
        <ele>51</ele>
        <time>2022-08-15T08:55:18Z</time>
      </trkpt>
      <trkpt lat="47.01084" lon="-1.84587">
        <ele>52</ele>
        <time>2022-08-15T08:55:20Z</time>
      </trkpt>
      <trkpt lat="47.01074" lon="-1.846">
        <ele>52</ele>
        <time>2022-08-15T08:55:22Z</time>
      </trkpt>
      <trkpt lat="47.01063" lon="-1.84612">
        <ele>52</ele>
        <time>2022-08-15T08:55:24Z</time>
      </trkpt>
      <trkpt lat="47.01052" lon="-1.84624">
        <ele>52</ele>
        <time>2022-08-15T08:55:26Z</time>
      </trkpt>
      <trkpt lat="47.01042" lon="-1.84635">
        <ele>52</ele>
        <time>2022-08-15T08:55:28Z</time>
      </trkpt>
      <trkpt lat="47.01032" lon="-1.84647">
        <ele>52</ele>
        <time>2022-08-15T08:55:30Z</time>
      </trkpt>
      <trkpt lat="47.01021" lon="-1.84657">
        <ele>52</ele>
        <time>2022-08-15T08:55:32Z</time>
      </trkpt>
      <trkpt lat="47.01009" lon="-1.84665">
        <ele>52</ele>
        <time>2022-08-15T08:55:34Z</time>
      </trkpt>
      <trkpt lat="47.00997" lon="-1.84673">
        <ele>53</ele>
        <time>2022-08-15T08:55:36Z</time>
      </trkpt>
      <trkpt lat="47.00984" lon="-1.84679">
        <ele>52</ele>
        <time>2022-08-15T08:55:38Z</time>
      </trkpt>
      <trkpt lat="47.00971" lon="-1.84686">
        <ele>53</ele>
        <time>2022-08-15T08:55:40Z</time>
      </trkpt>
      <trkpt lat="47.00958" lon="-1.84694">
        <ele>53</ele>
        <time>2022-08-15T08:55:42Z</time>
      </trkpt>
      <trkpt lat="47.00945" lon="-1.84701">
        <ele>53</ele>
        <time>2022-08-15T08:55:44Z</time>
      </trkpt>
      <trkpt lat="47.00933" lon="-1.84708">
        <ele>53</ele>
        <time>2022-08-15T08:55:46Z</time>
      </trkpt>
      <trkpt lat="47.00922" lon="-1.84714">
        <ele>52</ele>
        <time>2022-08-15T08:55:48Z</time>
      </trkpt>
      <trkpt lat="47.00911" lon="-1.84719">
        <ele>53</ele>
        <time>2022-08-15T08:55:50Z</time>
      </trkpt>
      <trkpt lat="47.00901" lon="-1.84725">
        <ele>53</ele>
        <time>2022-08-15T08:55:52Z</time>
      </trkpt>
      <trkpt lat="47.00891" lon="-1.84733">
        <ele>53</ele>
        <time>2022-08-15T08:55:55Z</time>
      </trkpt>
      <trkpt lat="47.00883" lon="-1.84739">
        <ele>53</ele>
        <time>2022-08-15T08:55:58Z</time>
      </trkpt>
      <trkpt lat="47.00875" lon="-1.84748">
        <ele>53</ele>
        <time>2022-08-15T08:56:00Z</time>
      </trkpt>
      <trkpt lat="47.00864" lon="-1.84757">
        <ele>53</ele>
        <time>2022-08-15T08:56:02Z</time>
      </trkpt>
      <trkpt lat="47.00852" lon="-1.84765">
        <ele>52</ele>
        <time>2022-08-15T08:56:04Z</time>
      </trkpt>
      <trkpt lat="47.0084" lon="-1.84773">
        <ele>52</ele>
        <time>2022-08-15T08:56:06Z</time>
      </trkpt>
      <trkpt lat="47.00829" lon="-1.8478">
        <ele>51</ele>
        <time>2022-08-15T08:56:08Z</time>
      </trkpt>
      <trkpt lat="47.00818" lon="-1.84787">
        <ele>52</ele>
        <time>2022-08-15T08:56:10Z</time>
      </trkpt>
      <trkpt lat="47.00806" lon="-1.84794">
        <ele>52</ele>
        <time>2022-08-15T08:56:12Z</time>
      </trkpt>
      <trkpt lat="47.00795" lon="-1.848">
        <ele>52</ele>
        <time>2022-08-15T08:56:14Z</time>
      </trkpt>
      <trkpt lat="47.00783" lon="-1.84807">
        <ele>52</ele>
        <time>2022-08-15T08:56:16Z</time>
      </trkpt>
      <trkpt lat="47.00772" lon="-1.84813">
        <ele>52</ele>
        <time>2022-08-15T08:56:18Z</time>
      </trkpt>
      <trkpt lat="47.0076" lon="-1.84819">
        <ele>52</ele>
        <time>2022-08-15T08:56:20Z</time>
      </trkpt>
      <trkpt lat="47.00749" lon="-1.84825">
        <ele>53</ele>
        <time>2022-08-15T08:56:22Z</time>
      </trkpt>
      <trkpt lat="47.00737" lon="-1.84832">
        <ele>53</ele>
        <time>2022-08-15T08:56:24Z</time>
      </trkpt>
      <trkpt lat="47.00725" lon="-1.84837">
        <ele>52</ele>
        <time>2022-08-15T08:56:26Z</time>
      </trkpt>
      <trkpt lat="47.00714" lon="-1.84843">
        <ele>52</ele>
        <time>2022-08-15T08:56:28Z</time>
      </trkpt>
      <trkpt lat="47.00702" lon="-1.84849">
        <ele>52</ele>
        <time>2022-08-15T08:56:30Z</time>
      </trkpt>
      <trkpt lat="47.0069" lon="-1.84855">
        <ele>52</ele>
        <time>2022-08-15T08:56:32Z</time>
      </trkpt>
      <trkpt lat="47.00678" lon="-1.84861">
        <ele>52</ele>
        <time>2022-08-15T08:56:34Z</time>
      </trkpt>
      <trkpt lat="47.00667" lon="-1.84867">
        <ele>52</ele>
        <time>2022-08-15T08:56:36Z</time>
      </trkpt>
      <trkpt lat="47.00655" lon="-1.84873">
        <ele>52</ele>
        <time>2022-08-15T08:56:38Z</time>
      </trkpt>
      <trkpt lat="47.00643" lon="-1.84879">
        <ele>52</ele>
        <time>2022-08-15T08:56:40Z</time>
      </trkpt>
      <trkpt lat="47.00631" lon="-1.84887">
        <ele>52</ele>
        <time>2022-08-15T08:56:42Z</time>
      </trkpt>
      <trkpt lat="47.0062" lon="-1.84895">
        <ele>52</ele>
        <time>2022-08-15T08:56:44Z</time>
      </trkpt>
      <trkpt lat="47.0061" lon="-1.84904">
        <ele>52</ele>
        <time>2022-08-15T08:56:46Z</time>
      </trkpt>
      <trkpt lat="47.00599" lon="-1.84914">
        <ele>52</ele>
        <time>2022-08-15T08:56:48Z</time>
      </trkpt>
      <trkpt lat="47.0059" lon="-1.84925">
        <ele>52</ele>
        <time>2022-08-15T08:56:50Z</time>
      </trkpt>
      <trkpt lat="47.00581" lon="-1.84938">
        <ele>51</ele>
        <time>2022-08-15T08:56:52Z</time>
      </trkpt>
      <trkpt lat="47.00571" lon="-1.84951">
        <ele>51</ele>
        <time>2022-08-15T08:56:54Z</time>
      </trkpt>
      <trkpt lat="47.00562" lon="-1.84963">
        <ele>51</ele>
        <time>2022-08-15T08:56:56Z</time>
      </trkpt>
      <trkpt lat="47.00553" lon="-1.84974">
        <ele>51</ele>
        <time>2022-08-15T08:56:58Z</time>
      </trkpt>
      <trkpt lat="47.00544" lon="-1.84986">
        <ele>51</ele>
        <time>2022-08-15T08:57:00Z</time>
      </trkpt>
      <trkpt lat="47.00535" lon="-1.84998">
        <ele>51</ele>
        <time>2022-08-15T08:57:02Z</time>
      </trkpt>
      <trkpt lat="47.00526" lon="-1.8501">
        <ele>51</ele>
        <time>2022-08-15T08:57:04Z</time>
      </trkpt>
      <trkpt lat="47.00517" lon="-1.85022">
        <ele>51</ele>
        <time>2022-08-15T08:57:06Z</time>
      </trkpt>
      <trkpt lat="47.00507" lon="-1.85033">
        <ele>51</ele>
        <time>2022-08-15T08:57:08Z</time>
      </trkpt>
      <trkpt lat="47.00498" lon="-1.85045">
        <ele>51</ele>
        <time>2022-08-15T08:57:10Z</time>
      </trkpt>
      <trkpt lat="47.00489" lon="-1.85056">
        <ele>51</ele>
        <time>2022-08-15T08:57:12Z</time>
      </trkpt>
      <trkpt lat="47.0048" lon="-1.85066">
        <ele>51</ele>
        <time>2022-08-15T08:57:14Z</time>
      </trkpt>
      <trkpt lat="47.00469" lon="-1.85074">
        <ele>51</ele>
        <time>2022-08-15T08:57:16Z</time>
      </trkpt>
      <trkpt lat="47.00459" lon="-1.85083">
        <ele>51</ele>
        <time>2022-08-15T08:57:18Z</time>
      </trkpt>
      <trkpt lat="47.00449" lon="-1.85091">
        <ele>52</ele>
        <time>2022-08-15T08:57:20Z</time>
      </trkpt>
      <trkpt lat="47.00439" lon="-1.85099">
        <ele>52</ele>
        <time>2022-08-15T08:57:22Z</time>
      </trkpt>
      <trkpt lat="47.00429" lon="-1.85107">
        <ele>52</ele>
        <time>2022-08-15T08:57:24Z</time>
      </trkpt>
      <trkpt lat="47.00419" lon="-1.85115">
        <ele>53</ele>
        <time>2022-08-15T08:57:26Z</time>
      </trkpt>
      <trkpt lat="47.00409" lon="-1.85124">
        <ele>52</ele>
        <time>2022-08-15T08:57:28Z</time>
      </trkpt>
      <trkpt lat="47.00399" lon="-1.85133">
        <ele>52</ele>
        <time>2022-08-15T08:57:30Z</time>
      </trkpt>
      <trkpt lat="47.00389" lon="-1.85142">
        <ele>53</ele>
        <time>2022-08-15T08:57:32Z</time>
      </trkpt>
      <trkpt lat="47.00379" lon="-1.8515">
        <ele>53</ele>
        <time>2022-08-15T08:57:34Z</time>
      </trkpt>
      <trkpt lat="47.00369" lon="-1.85159">
        <ele>53</ele>
        <time>2022-08-15T08:57:36Z</time>
      </trkpt>
      <trkpt lat="47.00359" lon="-1.85167">
        <ele>53</ele>
        <time>2022-08-15T08:57:38Z</time>
      </trkpt>
      <trkpt lat="47.00348" lon="-1.85176">
        <ele>53</ele>
        <time>2022-08-15T08:57:40Z</time>
      </trkpt>
      <trkpt lat="47.00337" lon="-1.85184">
        <ele>53</ele>
        <time>2022-08-15T08:57:42Z</time>
      </trkpt>
      <trkpt lat="47.00327" lon="-1.85193">
        <ele>53</ele>
        <time>2022-08-15T08:57:44Z</time>
      </trkpt>
      <trkpt lat="47.00317" lon="-1.85201">
        <ele>53</ele>
        <time>2022-08-15T08:57:46Z</time>
      </trkpt>
      <trkpt lat="47.00307" lon="-1.85209">
        <ele>53</ele>
        <time>2022-08-15T08:57:48Z</time>
      </trkpt>
      <trkpt lat="47.00297" lon="-1.85218">
        <ele>53</ele>
        <time>2022-08-15T08:57:50Z</time>
      </trkpt>
      <trkpt lat="47.00287" lon="-1.85226">
        <ele>53</ele>
        <time>2022-08-15T08:57:52Z</time>
      </trkpt>
      <trkpt lat="47.00277" lon="-1.85234">
        <ele>54</ele>
        <time>2022-08-15T08:57:54Z</time>
      </trkpt>
      <trkpt lat="47.00268" lon="-1.85243">
        <ele>54</ele>
        <time>2022-08-15T08:57:56Z</time>
      </trkpt>
      <trkpt lat="47.00257" lon="-1.85252">
        <ele>54</ele>
        <time>2022-08-15T08:57:58Z</time>
      </trkpt>
      <trkpt lat="47.00247" lon="-1.85261">
        <ele>53</ele>
        <time>2022-08-15T08:58:00Z</time>
      </trkpt>
      <trkpt lat="47.00237" lon="-1.8527">
        <ele>53</ele>
        <time>2022-08-15T08:58:02Z</time>
      </trkpt>
      <trkpt lat="47.00228" lon="-1.85281">
        <ele>53</ele>
        <time>2022-08-15T08:58:04Z</time>
      </trkpt>
      <trkpt lat="47.00219" lon="-1.85292">
        <ele>53</ele>
        <time>2022-08-15T08:58:06Z</time>
      </trkpt>
      <trkpt lat="47.00211" lon="-1.85305">
        <ele>53</ele>
        <time>2022-08-15T08:58:08Z</time>
      </trkpt>
      <trkpt lat="47.00203" lon="-1.85318">
        <ele>53</ele>
        <time>2022-08-15T08:58:10Z</time>
      </trkpt>
      <trkpt lat="47.00196" lon="-1.85332">
        <ele>53</ele>
        <time>2022-08-15T08:58:12Z</time>
      </trkpt>
      <trkpt lat="47.0019" lon="-1.85346">
        <ele>53</ele>
        <time>2022-08-15T08:58:14Z</time>
      </trkpt>
      <trkpt lat="47.00183" lon="-1.8536">
        <ele>53</ele>
        <time>2022-08-15T08:58:16Z</time>
      </trkpt>
      <trkpt lat="47.00176" lon="-1.85373">
        <ele>52</ele>
        <time>2022-08-15T08:58:18Z</time>
      </trkpt>
      <trkpt lat="47.0017" lon="-1.85387">
        <ele>52</ele>
        <time>2022-08-15T08:58:20Z</time>
      </trkpt>
      <trkpt lat="47.00163" lon="-1.854">
        <ele>52</ele>
        <time>2022-08-15T08:58:22Z</time>
      </trkpt>
      <trkpt lat="47.00155" lon="-1.85414">
        <ele>52</ele>
        <time>2022-08-15T08:58:24Z</time>
      </trkpt>
      <trkpt lat="47.00147" lon="-1.85425">
        <ele>52</ele>
        <time>2022-08-15T08:58:26Z</time>
      </trkpt>
      <trkpt lat="47.00138" lon="-1.85436">
        <ele>52</ele>
        <time>2022-08-15T08:58:28Z</time>
      </trkpt>
      <trkpt lat="47.00127" lon="-1.85446">
        <ele>52</ele>
        <time>2022-08-15T08:58:30Z</time>
      </trkpt>
      <trkpt lat="47.00116" lon="-1.85452">
        <ele>52</ele>
        <time>2022-08-15T08:58:32Z</time>
      </trkpt>
      <trkpt lat="47.00105" lon="-1.8545">
        <ele>52</ele>
        <time>2022-08-15T08:58:34Z</time>
      </trkpt>
      <trkpt lat="47.00094" lon="-1.85443">
        <ele>52</ele>
        <time>2022-08-15T08:58:36Z</time>
      </trkpt>
      <trkpt lat="47.00084" lon="-1.85432">
        <ele>52</ele>
        <time>2022-08-15T08:58:38Z</time>
      </trkpt>
      <trkpt lat="47.00075" lon="-1.8542">
        <ele>52</ele>
        <time>2022-08-15T08:58:40Z</time>
      </trkpt>
      <trkpt lat="47.00066" lon="-1.85408">
        <ele>52</ele>
        <time>2022-08-15T08:58:42Z</time>
      </trkpt>
      <trkpt lat="47.00058" lon="-1.85396">
        <ele>52</ele>
        <time>2022-08-15T08:58:44Z</time>
      </trkpt>
      <trkpt lat="47.00048" lon="-1.85386">
        <ele>52</ele>
        <time>2022-08-15T08:58:46Z</time>
      </trkpt>
      <trkpt lat="47.00039" lon="-1.85375">
        <ele>52</ele>
        <time>2022-08-15T08:58:48Z</time>
      </trkpt>
      <trkpt lat="47.00026" lon="-1.85369">
        <ele>52</ele>
        <time>2022-08-15T08:58:50Z</time>
      </trkpt>
      <trkpt lat="47.00014" lon="-1.85367">
        <ele>51</ele>
        <time>2022-08-15T08:58:52Z</time>
      </trkpt>
      <trkpt lat="47.00001" lon="-1.85365">
        <ele>51</ele>
        <time>2022-08-15T08:58:54Z</time>
      </trkpt>
      <trkpt lat="46.99989" lon="-1.85363">
        <ele>51</ele>
        <time>2022-08-15T08:58:56Z</time>
      </trkpt>
      <trkpt lat="46.9998" lon="-1.85352">
        <ele>51</ele>
        <time>2022-08-15T08:58:58Z</time>
      </trkpt>
      <trkpt lat="46.99972" lon="-1.85337">
        <ele>51</ele>
        <time>2022-08-15T08:59:00Z</time>
      </trkpt>
      <trkpt lat="46.99965" lon="-1.85323">
        <ele>51</ele>
        <time>2022-08-15T08:59:02Z</time>
      </trkpt>
      <trkpt lat="46.99958" lon="-1.85309">
        <ele>51</ele>
        <time>2022-08-15T08:59:04Z</time>
      </trkpt>
      <trkpt lat="46.9995" lon="-1.85294">
        <ele>51</ele>
        <time>2022-08-15T08:59:06Z</time>
      </trkpt>
      <trkpt lat="46.99942" lon="-1.85279">
        <ele>52</ele>
        <time>2022-08-15T08:59:08Z</time>
      </trkpt>
      <trkpt lat="46.99934" lon="-1.85264">
        <ele>52</ele>
        <time>2022-08-15T08:59:10Z</time>
      </trkpt>
      <trkpt lat="46.99926" lon="-1.85247">
        <ele>52</ele>
        <time>2022-08-15T08:59:12Z</time>
      </trkpt>
      <trkpt lat="46.99921" lon="-1.85229">
        <ele>52</ele>
        <time>2022-08-15T08:59:14Z</time>
      </trkpt>
      <trkpt lat="46.99917" lon="-1.8521">
        <ele>52</ele>
        <time>2022-08-15T08:59:16Z</time>
      </trkpt>
      <trkpt lat="46.99913" lon="-1.85191">
        <ele>52</ele>
        <time>2022-08-15T08:59:18Z</time>
      </trkpt>
      <trkpt lat="46.9991" lon="-1.85172">
        <ele>52</ele>
        <time>2022-08-15T08:59:20Z</time>
      </trkpt>
      <trkpt lat="46.99908" lon="-1.85153">
        <ele>52</ele>
        <time>2022-08-15T08:59:22Z</time>
      </trkpt>
      <trkpt lat="46.99905" lon="-1.85133">
        <ele>53</ele>
        <time>2022-08-15T08:59:24Z</time>
      </trkpt>
      <trkpt lat="46.99903" lon="-1.85114">
        <ele>53</ele>
        <time>2022-08-15T08:59:26Z</time>
      </trkpt>
      <trkpt lat="46.99901" lon="-1.85096">
        <ele>53</ele>
        <time>2022-08-15T08:59:28Z</time>
      </trkpt>
      <trkpt lat="46.999" lon="-1.85077">
        <ele>53</ele>
        <time>2022-08-15T08:59:30Z</time>
      </trkpt>
      <trkpt lat="46.99899" lon="-1.85058">
        <ele>54</ele>
        <time>2022-08-15T08:59:32Z</time>
      </trkpt>
      <trkpt lat="46.99897" lon="-1.85038">
        <ele>54</ele>
        <time>2022-08-15T08:59:34Z</time>
      </trkpt>
      <trkpt lat="46.99895" lon="-1.85019">
        <ele>54</ele>
        <time>2022-08-15T08:59:36Z</time>
      </trkpt>
      <trkpt lat="46.99894" lon="-1.84998">
        <ele>54</ele>
        <time>2022-08-15T08:59:38Z</time>
      </trkpt>
      <trkpt lat="46.99893" lon="-1.84979">
        <ele>55</ele>
        <time>2022-08-15T08:59:40Z</time>
      </trkpt>
      <trkpt lat="46.99893" lon="-1.8496">
        <ele>55</ele>
        <time>2022-08-15T08:59:42Z</time>
      </trkpt>
      <trkpt lat="46.99892" lon="-1.8494">
        <ele>55</ele>
        <time>2022-08-15T08:59:44Z</time>
      </trkpt>
      <trkpt lat="46.9989" lon="-1.84921">
        <ele>55</ele>
        <time>2022-08-15T08:59:46Z</time>
      </trkpt>
      <trkpt lat="46.99889" lon="-1.84901">
        <ele>56</ele>
        <time>2022-08-15T08:59:48Z</time>
      </trkpt>
      <trkpt lat="46.99888" lon="-1.84882">
        <ele>56</ele>
        <time>2022-08-15T08:59:50Z</time>
      </trkpt>
      <trkpt lat="46.99886" lon="-1.84863">
        <ele>56</ele>
        <time>2022-08-15T08:59:52Z</time>
      </trkpt>
      <trkpt lat="46.99883" lon="-1.84843">
        <ele>56</ele>
        <time>2022-08-15T08:59:54Z</time>
      </trkpt>
      <trkpt lat="46.9988" lon="-1.84824">
        <ele>55</ele>
        <time>2022-08-15T08:59:56Z</time>
      </trkpt>
      <trkpt lat="46.99876" lon="-1.84805">
        <ele>55</ele>
        <time>2022-08-15T08:59:58Z</time>
      </trkpt>
      <trkpt lat="46.9987" lon="-1.84787">
        <ele>55</ele>
        <time>2022-08-15T09:00:00Z</time>
      </trkpt>
      <trkpt lat="46.99864" lon="-1.8477">
        <ele>55</ele>
        <time>2022-08-15T09:00:02Z</time>
      </trkpt>
      <trkpt lat="46.99858" lon="-1.84752">
        <ele>55</ele>
        <time>2022-08-15T09:00:04Z</time>
      </trkpt>
      <trkpt lat="46.99852" lon="-1.84735">
        <ele>55</ele>
        <time>2022-08-15T09:00:06Z</time>
      </trkpt>
      <trkpt lat="46.99845" lon="-1.84718">
        <ele>55</ele>
        <time>2022-08-15T09:00:08Z</time>
      </trkpt>
      <trkpt lat="46.99838" lon="-1.84701">
        <ele>55</ele>
        <time>2022-08-15T09:00:10Z</time>
      </trkpt>
      <trkpt lat="46.99832" lon="-1.84684">
        <ele>55</ele>
        <time>2022-08-15T09:00:12Z</time>
      </trkpt>
      <trkpt lat="46.99825" lon="-1.84667">
        <ele>54</ele>
        <time>2022-08-15T09:00:14Z</time>
      </trkpt>
      <trkpt lat="46.99819" lon="-1.84649">
        <ele>54</ele>
        <time>2022-08-15T09:00:16Z</time>
      </trkpt>
      <trkpt lat="46.99814" lon="-1.84631">
        <ele>54</ele>
        <time>2022-08-15T09:00:18Z</time>
      </trkpt>
      <trkpt lat="46.99809" lon="-1.84613">
        <ele>54</ele>
        <time>2022-08-15T09:00:20Z</time>
      </trkpt>
      <trkpt lat="46.99804" lon="-1.84593">
        <ele>53</ele>
        <time>2022-08-15T09:00:22Z</time>
      </trkpt>
      <trkpt lat="46.998" lon="-1.84574">
        <ele>54</ele>
        <time>2022-08-15T09:00:24Z</time>
      </trkpt>
      <trkpt lat="46.99796" lon="-1.84553">
        <ele>54</ele>
        <time>2022-08-15T09:00:26Z</time>
      </trkpt>
      <trkpt lat="46.99792" lon="-1.84533">
        <ele>54</ele>
        <time>2022-08-15T09:00:28Z</time>
      </trkpt>
      <trkpt lat="46.99788" lon="-1.84513">
        <ele>54</ele>
        <time>2022-08-15T09:00:30Z</time>
      </trkpt>
      <trkpt lat="46.99784" lon="-1.84493">
        <ele>54</ele>
        <time>2022-08-15T09:00:32Z</time>
      </trkpt>
      <trkpt lat="46.99781" lon="-1.84473">
        <ele>54</ele>
        <time>2022-08-15T09:00:34Z</time>
      </trkpt>
      <trkpt lat="46.99777" lon="-1.84453">
        <ele>54</ele>
        <time>2022-08-15T09:00:36Z</time>
      </trkpt>
      <trkpt lat="46.99774" lon="-1.84431">
        <ele>54</ele>
        <time>2022-08-15T09:00:38Z</time>
      </trkpt>
      <trkpt lat="46.9977" lon="-1.84409">
        <ele>53</ele>
        <time>2022-08-15T09:00:40Z</time>
      </trkpt>
      <trkpt lat="46.99767" lon="-1.84388">
        <ele>53</ele>
        <time>2022-08-15T09:00:42Z</time>
      </trkpt>
      <trkpt lat="46.99763" lon="-1.84368">
        <ele>53</ele>
        <time>2022-08-15T09:00:44Z</time>
      </trkpt>
      <trkpt lat="46.99759" lon="-1.84347">
        <ele>53</ele>
        <time>2022-08-15T09:00:46Z</time>
      </trkpt>
      <trkpt lat="46.99756" lon="-1.84325">
        <ele>53</ele>
        <time>2022-08-15T09:00:48Z</time>
      </trkpt>
      <trkpt lat="46.99753" lon="-1.84304">
        <ele>53</ele>
        <time>2022-08-15T09:00:50Z</time>
      </trkpt>
      <trkpt lat="46.99751" lon="-1.84282">
        <ele>53</ele>
        <time>2022-08-15T09:00:52Z</time>
      </trkpt>
      <trkpt lat="46.9975" lon="-1.84263">
        <ele>52</ele>
        <time>2022-08-15T09:00:54Z</time>
      </trkpt>
      <trkpt lat="46.99748" lon="-1.84244">
        <ele>52</ele>
        <time>2022-08-15T09:00:56Z</time>
      </trkpt>
      <trkpt lat="46.99746" lon="-1.84225">
        <ele>52</ele>
        <time>2022-08-15T09:00:58Z</time>
      </trkpt>
      <trkpt lat="46.99741" lon="-1.84205">
        <ele>52</ele>
        <time>2022-08-15T09:01:00Z</time>
      </trkpt>
      <trkpt lat="46.99733" lon="-1.84188">
        <ele>53</ele>
        <time>2022-08-15T09:01:02Z</time>
      </trkpt>
      <trkpt lat="46.9972" lon="-1.84178">
        <ele>53</ele>
        <time>2022-08-15T09:01:04Z</time>
      </trkpt>
      <trkpt lat="46.99707" lon="-1.84172">
        <ele>53</ele>
        <time>2022-08-15T09:01:06Z</time>
      </trkpt>
      <trkpt lat="46.99694" lon="-1.84165">
        <ele>53</ele>
        <time>2022-08-15T09:01:08Z</time>
      </trkpt>
      <trkpt lat="46.99681" lon="-1.84156">
        <ele>53</ele>
        <time>2022-08-15T09:01:10Z</time>
      </trkpt>
      <trkpt lat="46.9967" lon="-1.84144">
        <ele>53</ele>
        <time>2022-08-15T09:01:12Z</time>
      </trkpt>
      <trkpt lat="46.99658" lon="-1.84131">
        <ele>53</ele>
        <time>2022-08-15T09:01:14Z</time>
      </trkpt>
      <trkpt lat="46.99649" lon="-1.84117">
        <ele>53</ele>
        <time>2022-08-15T09:01:16Z</time>
      </trkpt>
      <trkpt lat="46.9964" lon="-1.84102">
        <ele>53</ele>
        <time>2022-08-15T09:01:18Z</time>
      </trkpt>
      <trkpt lat="46.99632" lon="-1.84086">
        <ele>53</ele>
        <time>2022-08-15T09:01:20Z</time>
      </trkpt>
      <trkpt lat="46.99626" lon="-1.84069">
        <ele>54</ele>
        <time>2022-08-15T09:01:22Z</time>
      </trkpt>
      <trkpt lat="46.99621" lon="-1.8405">
        <ele>54</ele>
        <time>2022-08-15T09:01:24Z</time>
      </trkpt>
      <trkpt lat="46.99616" lon="-1.84032">
        <ele>54</ele>
        <time>2022-08-15T09:01:26Z</time>
      </trkpt>
      <trkpt lat="46.99612" lon="-1.84011">
        <ele>54</ele>
        <time>2022-08-15T09:01:28Z</time>
      </trkpt>
      <trkpt lat="46.99609" lon="-1.8399">
        <ele>54</ele>
        <time>2022-08-15T09:01:30Z</time>
      </trkpt>
      <trkpt lat="46.99604" lon="-1.83968">
        <ele>53</ele>
        <time>2022-08-15T09:01:32Z</time>
      </trkpt>
      <trkpt lat="46.99598" lon="-1.83949">
        <ele>53</ele>
        <time>2022-08-15T09:01:34Z</time>
      </trkpt>
      <trkpt lat="46.99589" lon="-1.83932">
        <ele>53</ele>
        <time>2022-08-15T09:01:36Z</time>
      </trkpt>
      <trkpt lat="46.99577" lon="-1.8392">
        <ele>52</ele>
        <time>2022-08-15T09:01:38Z</time>
      </trkpt>
      <trkpt lat="46.99564" lon="-1.83912">
        <ele>52</ele>
        <time>2022-08-15T09:01:40Z</time>
      </trkpt>
      <trkpt lat="46.99552" lon="-1.83905">
        <ele>53</ele>
        <time>2022-08-15T09:01:42Z</time>
      </trkpt>
      <trkpt lat="46.99539" lon="-1.83898">
        <ele>53</ele>
        <time>2022-08-15T09:01:44Z</time>
      </trkpt>
      <trkpt lat="46.99527" lon="-1.83891">
        <ele>53</ele>
        <time>2022-08-15T09:01:46Z</time>
      </trkpt>
      <trkpt lat="46.99514" lon="-1.83884">
        <ele>53</ele>
        <time>2022-08-15T09:01:48Z</time>
      </trkpt>
      <trkpt lat="46.99503" lon="-1.83876">
        <ele>54</ele>
        <time>2022-08-15T09:01:50Z</time>
      </trkpt>
      <trkpt lat="46.99491" lon="-1.83867">
        <ele>54</ele>
        <time>2022-08-15T09:01:52Z</time>
      </trkpt>
      <trkpt lat="46.99481" lon="-1.83855">
        <ele>54</ele>
        <time>2022-08-15T09:01:54Z</time>
      </trkpt>
      <trkpt lat="46.99472" lon="-1.8384">
        <ele>54</ele>
        <time>2022-08-15T09:01:56Z</time>
      </trkpt>
      <trkpt lat="46.99464" lon="-1.83825">
        <ele>53</ele>
        <time>2022-08-15T09:01:58Z</time>
      </trkpt>
      <trkpt lat="46.99457" lon="-1.83808">
        <ele>54</ele>
        <time>2022-08-15T09:02:00Z</time>
      </trkpt>
      <trkpt lat="46.99449" lon="-1.83792">
        <ele>53</ele>
        <time>2022-08-15T09:02:02Z</time>
      </trkpt>
      <trkpt lat="46.9944" lon="-1.8378">
        <ele>53</ele>
        <time>2022-08-15T09:02:04Z</time>
      </trkpt>
      <trkpt lat="46.99429" lon="-1.8377">
        <ele>53</ele>
        <time>2022-08-15T09:02:06Z</time>
      </trkpt>
      <trkpt lat="46.99418" lon="-1.83762">
        <ele>53</ele>
        <time>2022-08-15T09:02:08Z</time>
      </trkpt>
      <trkpt lat="46.99406" lon="-1.83755">
        <ele>53</ele>
        <time>2022-08-15T09:02:10Z</time>
      </trkpt>
      <trkpt lat="46.99394" lon="-1.83748">
        <ele>53</ele>
        <time>2022-08-15T09:02:12Z</time>
      </trkpt>
      <trkpt lat="46.99383" lon="-1.83741">
        <ele>53</ele>
        <time>2022-08-15T09:02:14Z</time>
      </trkpt>
      <trkpt lat="46.99371" lon="-1.83734">
        <ele>54</ele>
        <time>2022-08-15T09:02:16Z</time>
      </trkpt>
      <trkpt lat="46.99358" lon="-1.83727">
        <ele>54</ele>
        <time>2022-08-15T09:02:18Z</time>
      </trkpt>
      <trkpt lat="46.99346" lon="-1.8372">
        <ele>54</ele>
        <time>2022-08-15T09:02:20Z</time>
      </trkpt>
      <trkpt lat="46.99334" lon="-1.83713">
        <ele>54</ele>
        <time>2022-08-15T09:02:22Z</time>
      </trkpt>
      <trkpt lat="46.99322" lon="-1.83705">
        <ele>54</ele>
        <time>2022-08-15T09:02:24Z</time>
      </trkpt>
      <trkpt lat="46.9931" lon="-1.83697">
        <ele>55</ele>
        <time>2022-08-15T09:02:26Z</time>
      </trkpt>
      <trkpt lat="46.99298" lon="-1.83687">
        <ele>55</ele>
        <time>2022-08-15T09:02:28Z</time>
      </trkpt>
      <trkpt lat="46.99287" lon="-1.83677">
        <ele>55</ele>
        <time>2022-08-15T09:02:30Z</time>
      </trkpt>
      <trkpt lat="46.99277" lon="-1.83665">
        <ele>55</ele>
        <time>2022-08-15T09:02:32Z</time>
      </trkpt>
      <trkpt lat="46.99267" lon="-1.83652">
        <ele>56</ele>
        <time>2022-08-15T09:02:34Z</time>
      </trkpt>
      <trkpt lat="46.99256" lon="-1.83641">
        <ele>55</ele>
        <time>2022-08-15T09:02:36Z</time>
      </trkpt>
      <trkpt lat="46.99247" lon="-1.83629">
        <ele>55</ele>
        <time>2022-08-15T09:02:38Z</time>
      </trkpt>
      <trkpt lat="46.99237" lon="-1.83616">
        <ele>55</ele>
        <time>2022-08-15T09:02:40Z</time>
      </trkpt>
      <trkpt lat="46.99227" lon="-1.83604">
        <ele>55</ele>
        <time>2022-08-15T09:02:42Z</time>
      </trkpt>
      <trkpt lat="46.99217" lon="-1.83592">
        <ele>55</ele>
        <time>2022-08-15T09:02:44Z</time>
      </trkpt>
      <trkpt lat="46.99207" lon="-1.83579">
        <ele>54</ele>
        <time>2022-08-15T09:02:46Z</time>
      </trkpt>
      <trkpt lat="46.99198" lon="-1.83568">
        <ele>54</ele>
        <time>2022-08-15T09:02:48Z</time>
      </trkpt>
      <trkpt lat="46.99188" lon="-1.83557">
        <ele>54</ele>
        <time>2022-08-15T09:02:50Z</time>
      </trkpt>
      <trkpt lat="46.99179" lon="-1.83546">
        <ele>54</ele>
        <time>2022-08-15T09:02:52Z</time>
      </trkpt>
      <trkpt lat="46.9917" lon="-1.83535">
        <ele>54</ele>
        <time>2022-08-15T09:02:54Z</time>
      </trkpt>
      <trkpt lat="46.99161" lon="-1.83524">
        <ele>53</ele>
        <time>2022-08-15T09:02:56Z</time>
      </trkpt>
      <trkpt lat="46.99151" lon="-1.83519">
        <ele>53</ele>
        <time>2022-08-15T09:02:58Z</time>
      </trkpt>
      <trkpt lat="46.99144" lon="-1.83506">
        <ele>53</ele>
        <time>2022-08-15T09:03:00Z</time>
      </trkpt>
      <trkpt lat="46.99148" lon="-1.83488">
        <ele>53</ele>
        <time>2022-08-15T09:03:02Z</time>
      </trkpt>
      <trkpt lat="46.99156" lon="-1.83469">
        <ele>53</ele>
        <time>2022-08-15T09:03:04Z</time>
      </trkpt>
      <trkpt lat="46.99162" lon="-1.83445">
        <ele>52</ele>
        <time>2022-08-15T09:03:06Z</time>
      </trkpt>
      <trkpt lat="46.99167" lon="-1.83424">
        <ele>53</ele>
        <time>2022-08-15T09:03:08Z</time>
      </trkpt>
      <trkpt lat="46.99171" lon="-1.83403">
        <ele>53</ele>
        <time>2022-08-15T09:03:10Z</time>
      </trkpt>
      <trkpt lat="46.99176" lon="-1.8338">
        <ele>53</ele>
        <time>2022-08-15T09:03:12Z</time>
      </trkpt>
      <trkpt lat="46.99181" lon="-1.83357">
        <ele>53</ele>
        <time>2022-08-15T09:03:14Z</time>
      </trkpt>
      <trkpt lat="46.99186" lon="-1.83333">
        <ele>53</ele>
        <time>2022-08-15T09:03:16Z</time>
      </trkpt>
      <trkpt lat="46.99192" lon="-1.83309">
        <ele>54</ele>
        <time>2022-08-15T09:03:18Z</time>
      </trkpt>
      <trkpt lat="46.99197" lon="-1.83285">
        <ele>54</ele>
        <time>2022-08-15T09:03:20Z</time>
      </trkpt>
      <trkpt lat="46.99202" lon="-1.83261">
        <ele>54</ele>
        <time>2022-08-15T09:03:22Z</time>
      </trkpt>
      <trkpt lat="46.99207" lon="-1.83236">
        <ele>54</ele>
        <time>2022-08-15T09:03:24Z</time>
      </trkpt>
      <trkpt lat="46.9921" lon="-1.83223">
        <ele>54</ele>
        <time>2022-08-15T09:03:25Z</time>
      </trkpt>
      <trkpt lat="46.99215" lon="-1.83199">
        <ele>54</ele>
        <time>2022-08-15T09:03:27Z</time>
      </trkpt>
      <trkpt lat="46.99221" lon="-1.83175">
        <ele>54</ele>
        <time>2022-08-15T09:03:29Z</time>
      </trkpt>
      <trkpt lat="46.99226" lon="-1.83151">
        <ele>54</ele>
        <time>2022-08-15T09:03:31Z</time>
      </trkpt>
      <trkpt lat="46.99231" lon="-1.83128">
        <ele>54</ele>
        <time>2022-08-15T09:03:33Z</time>
      </trkpt>
      <trkpt lat="46.99236" lon="-1.83104">
        <ele>54</ele>
        <time>2022-08-15T09:03:35Z</time>
      </trkpt>
      <trkpt lat="46.99241" lon="-1.83081">
        <ele>54</ele>
        <time>2022-08-15T09:03:37Z</time>
      </trkpt>
      <trkpt lat="46.99246" lon="-1.83059">
        <ele>54</ele>
        <time>2022-08-15T09:03:39Z</time>
      </trkpt>
      <trkpt lat="46.99251" lon="-1.83037">
        <ele>54</ele>
        <time>2022-08-15T09:03:41Z</time>
      </trkpt>
      <trkpt lat="46.99256" lon="-1.83016">
        <ele>54</ele>
        <time>2022-08-15T09:03:43Z</time>
      </trkpt>
      <trkpt lat="46.99261" lon="-1.82994">
        <ele>54</ele>
        <time>2022-08-15T09:03:45Z</time>
      </trkpt>
      <trkpt lat="46.99266" lon="-1.82974">
        <ele>54</ele>
        <time>2022-08-15T09:03:47Z</time>
      </trkpt>
      <trkpt lat="46.99272" lon="-1.82953">
        <ele>54</ele>
        <time>2022-08-15T09:03:49Z</time>
      </trkpt>
      <trkpt lat="46.99277" lon="-1.82932">
        <ele>54</ele>
        <time>2022-08-15T09:03:51Z</time>
      </trkpt>
      <trkpt lat="46.99281" lon="-1.82911">
        <ele>54</ele>
        <time>2022-08-15T09:03:53Z</time>
      </trkpt>
      <trkpt lat="46.99286" lon="-1.82889">
        <ele>54</ele>
        <time>2022-08-15T09:03:55Z</time>
      </trkpt>
      <trkpt lat="46.9929" lon="-1.82868">
        <ele>54</ele>
        <time>2022-08-15T09:03:57Z</time>
      </trkpt>
      <trkpt lat="46.99295" lon="-1.82846">
        <ele>53</ele>
        <time>2022-08-15T09:03:59Z</time>
      </trkpt>
      <trkpt lat="46.99299" lon="-1.82825">
        <ele>53</ele>
        <time>2022-08-15T09:04:01Z</time>
      </trkpt>
      <trkpt lat="46.99304" lon="-1.82805">
        <ele>53</ele>
        <time>2022-08-15T09:04:03Z</time>
      </trkpt>
      <trkpt lat="46.99308" lon="-1.82784">
        <ele>53</ele>
        <time>2022-08-15T09:04:05Z</time>
      </trkpt>
      <trkpt lat="46.99312" lon="-1.82765">
        <ele>53</ele>
        <time>2022-08-15T09:04:07Z</time>
      </trkpt>
      <trkpt lat="46.99317" lon="-1.82744">
        <ele>54</ele>
        <time>2022-08-15T09:04:09Z</time>
      </trkpt>
      <trkpt lat="46.99321" lon="-1.82723">
        <ele>54</ele>
        <time>2022-08-15T09:04:11Z</time>
      </trkpt>
      <trkpt lat="46.99326" lon="-1.82702">
        <ele>54</ele>
        <time>2022-08-15T09:04:13Z</time>
      </trkpt>
      <trkpt lat="46.99331" lon="-1.82681">
        <ele>53</ele>
        <time>2022-08-15T09:04:15Z</time>
      </trkpt>
      <trkpt lat="46.99336" lon="-1.8266">
        <ele>54</ele>
        <time>2022-08-15T09:04:17Z</time>
      </trkpt>
      <trkpt lat="46.9934" lon="-1.8264">
        <ele>53</ele>
        <time>2022-08-15T09:04:19Z</time>
      </trkpt>
      <trkpt lat="46.99346" lon="-1.82621">
        <ele>53</ele>
        <time>2022-08-15T09:04:21Z</time>
      </trkpt>
      <trkpt lat="46.99354" lon="-1.82605">
        <ele>53</ele>
        <time>2022-08-15T09:04:23Z</time>
      </trkpt>
      <trkpt lat="46.99362" lon="-1.82587">
        <ele>53</ele>
        <time>2022-08-15T09:04:25Z</time>
      </trkpt>
      <trkpt lat="46.99366" lon="-1.82567">
        <ele>54</ele>
        <time>2022-08-15T09:04:27Z</time>
      </trkpt>
      <trkpt lat="46.99363" lon="-1.82547">
        <ele>54</ele>
        <time>2022-08-15T09:04:29Z</time>
      </trkpt>
      <trkpt lat="46.99358" lon="-1.82528">
        <ele>53</ele>
        <time>2022-08-15T09:04:31Z</time>
      </trkpt>
      <trkpt lat="46.99354" lon="-1.82509">
        <ele>54</ele>
        <time>2022-08-15T09:04:33Z</time>
      </trkpt>
      <trkpt lat="46.99349" lon="-1.82493">
        <ele>54</ele>
        <time>2022-08-15T09:04:35Z</time>
      </trkpt>
      <trkpt lat="46.99343" lon="-1.82475">
        <ele>54</ele>
        <time>2022-08-15T09:04:37Z</time>
      </trkpt>
      <trkpt lat="46.99338" lon="-1.82456">
        <ele>54</ele>
        <time>2022-08-15T09:04:39Z</time>
      </trkpt>
      <trkpt lat="46.99334" lon="-1.82437">
        <ele>54</ele>
        <time>2022-08-15T09:04:41Z</time>
      </trkpt>
      <trkpt lat="46.9933" lon="-1.82418">
        <ele>54</ele>
        <time>2022-08-15T09:04:43Z</time>
      </trkpt>
      <trkpt lat="46.99326" lon="-1.82399">
        <ele>54</ele>
        <time>2022-08-15T09:04:45Z</time>
      </trkpt>
      <trkpt lat="46.99324" lon="-1.82379">
        <ele>54</ele>
        <time>2022-08-15T09:04:47Z</time>
      </trkpt>
      <trkpt lat="46.99322" lon="-1.82359">
        <ele>54</ele>
        <time>2022-08-15T09:04:49Z</time>
      </trkpt>
      <trkpt lat="46.99319" lon="-1.82339">
        <ele>54</ele>
        <time>2022-08-15T09:04:51Z</time>
      </trkpt>
      <trkpt lat="46.99315" lon="-1.82321">
        <ele>54</ele>
        <time>2022-08-15T09:04:53Z</time>
      </trkpt>
      <trkpt lat="46.99312" lon="-1.82302">
        <ele>54</ele>
        <time>2022-08-15T09:04:55Z</time>
      </trkpt>
      <trkpt lat="46.99308" lon="-1.82283">
        <ele>54</ele>
        <time>2022-08-15T09:04:57Z</time>
      </trkpt>
      <trkpt lat="46.99304" lon="-1.82264">
        <ele>54</ele>
        <time>2022-08-15T09:04:59Z</time>
      </trkpt>
      <trkpt lat="46.99298" lon="-1.82247">
        <ele>54</ele>
        <time>2022-08-15T09:05:01Z</time>
      </trkpt>
      <trkpt lat="46.99293" lon="-1.8223">
        <ele>54</ele>
        <time>2022-08-15T09:05:03Z</time>
      </trkpt>
      <trkpt lat="46.99286" lon="-1.82218">
        <ele>54</ele>
        <time>2022-08-15T09:05:05Z</time>
      </trkpt>
      <trkpt lat="46.99276" lon="-1.82218">
        <ele>54</ele>
        <time>2022-08-15T09:05:07Z</time>
      </trkpt>
      <trkpt lat="46.99264" lon="-1.82221">
        <ele>53</ele>
        <time>2022-08-15T09:05:09Z</time>
      </trkpt>
      <trkpt lat="46.99252" lon="-1.82223">
        <ele>53</ele>
        <time>2022-08-15T09:05:11Z</time>
      </trkpt>
      <trkpt lat="46.9924" lon="-1.82224">
        <ele>53</ele>
        <time>2022-08-15T09:05:13Z</time>
      </trkpt>
      <trkpt lat="46.99226" lon="-1.82221">
        <ele>54</ele>
        <time>2022-08-15T09:05:15Z</time>
      </trkpt>
      <trkpt lat="46.99212" lon="-1.82214">
        <ele>54</ele>
        <time>2022-08-15T09:05:17Z</time>
      </trkpt>
      <trkpt lat="46.99199" lon="-1.82209">
        <ele>54</ele>
        <time>2022-08-15T09:05:19Z</time>
      </trkpt>
      <trkpt lat="46.99187" lon="-1.82203">
        <ele>55</ele>
        <time>2022-08-15T09:05:21Z</time>
      </trkpt>
      <trkpt lat="46.99175" lon="-1.82196">
        <ele>55</ele>
        <time>2022-08-15T09:05:23Z</time>
      </trkpt>
      <trkpt lat="46.99163" lon="-1.8219">
        <ele>54</ele>
        <time>2022-08-15T09:05:25Z</time>
      </trkpt>
      <trkpt lat="46.99151" lon="-1.82187">
        <ele>55</ele>
        <time>2022-08-15T09:05:27Z</time>
      </trkpt>
      <trkpt lat="46.9914" lon="-1.82184">
        <ele>56</ele>
        <time>2022-08-15T09:05:29Z</time>
      </trkpt>
      <trkpt lat="46.99127" lon="-1.82185">
        <ele>56</ele>
        <time>2022-08-15T09:05:31Z</time>
      </trkpt>
      <trkpt lat="46.99113" lon="-1.8219">
        <ele>55</ele>
        <time>2022-08-15T09:05:33Z</time>
      </trkpt>
      <trkpt lat="46.99101" lon="-1.8219">
        <ele>55</ele>
        <time>2022-08-15T09:05:35Z</time>
      </trkpt>
      <trkpt lat="46.99092" lon="-1.82178">
        <ele>54</ele>
        <time>2022-08-15T09:05:37Z</time>
      </trkpt>
      <trkpt lat="46.99091" lon="-1.82158">
        <ele>54</ele>
        <time>2022-08-15T09:05:39Z</time>
      </trkpt>
      <trkpt lat="46.99086" lon="-1.82138">
        <ele>55</ele>
        <time>2022-08-15T09:05:41Z</time>
      </trkpt>
      <trkpt lat="46.99084" lon="-1.82118">
        <ele>56</ele>
        <time>2022-08-15T09:05:43Z</time>
      </trkpt>
      <trkpt lat="46.99081" lon="-1.82098">
        <ele>55</ele>
        <time>2022-08-15T09:05:45Z</time>
      </trkpt>
      <trkpt lat="46.99079" lon="-1.82079">
        <ele>54</ele>
        <time>2022-08-15T09:05:47Z</time>
      </trkpt>
      <trkpt lat="46.9908" lon="-1.82059">
        <ele>54</ele>
        <time>2022-08-15T09:05:49Z</time>
      </trkpt>
      <trkpt lat="46.99082" lon="-1.82039">
        <ele>53</ele>
        <time>2022-08-15T09:05:51Z</time>
      </trkpt>
      <trkpt lat="46.99083" lon="-1.82019">
        <ele>54</ele>
        <time>2022-08-15T09:05:53Z</time>
      </trkpt>
      <trkpt lat="46.99084" lon="-1.81999">
        <ele>54</ele>
        <time>2022-08-15T09:05:55Z</time>
      </trkpt>
      <trkpt lat="46.99085" lon="-1.81979">
        <ele>54</ele>
        <time>2022-08-15T09:05:57Z</time>
      </trkpt>
      <trkpt lat="46.99086" lon="-1.81958">
        <ele>54</ele>
        <time>2022-08-15T09:05:59Z</time>
      </trkpt>
      <trkpt lat="46.99088" lon="-1.81939">
        <ele>54</ele>
        <time>2022-08-15T09:06:01Z</time>
      </trkpt>
      <trkpt lat="46.9909" lon="-1.81919">
        <ele>54</ele>
        <time>2022-08-15T09:06:03Z</time>
      </trkpt>
      <trkpt lat="46.99091" lon="-1.81899">
        <ele>54</ele>
        <time>2022-08-15T09:06:05Z</time>
      </trkpt>
      <trkpt lat="46.99095" lon="-1.8188">
        <ele>54</ele>
        <time>2022-08-15T09:06:07Z</time>
      </trkpt>
      <trkpt lat="46.991" lon="-1.8186">
        <ele>54</ele>
        <time>2022-08-15T09:06:09Z</time>
      </trkpt>
      <trkpt lat="46.99105" lon="-1.81841">
        <ele>54</ele>
        <time>2022-08-15T09:06:11Z</time>
      </trkpt>
      <trkpt lat="46.9911" lon="-1.81824">
        <ele>54</ele>
        <time>2022-08-15T09:06:13Z</time>
      </trkpt>
      <trkpt lat="46.99118" lon="-1.8181">
        <ele>55</ele>
        <time>2022-08-15T09:06:15Z</time>
      </trkpt>
      <trkpt lat="46.99128" lon="-1.81797">
        <ele>54</ele>
        <time>2022-08-15T09:06:17Z</time>
      </trkpt>
      <trkpt lat="46.99138" lon="-1.81783">
        <ele>53</ele>
        <time>2022-08-15T09:06:19Z</time>
      </trkpt>
      <trkpt lat="46.99148" lon="-1.8177">
        <ele>53</ele>
        <time>2022-08-15T09:06:21Z</time>
      </trkpt>
      <trkpt lat="46.99158" lon="-1.81757">
        <ele>53</ele>
        <time>2022-08-15T09:06:23Z</time>
      </trkpt>
      <trkpt lat="46.99168" lon="-1.81745">
        <ele>53</ele>
        <time>2022-08-15T09:06:25Z</time>
      </trkpt>
      <trkpt lat="46.99178" lon="-1.81734">
        <ele>53</ele>
        <time>2022-08-15T09:06:27Z</time>
      </trkpt>
      <trkpt lat="46.99187" lon="-1.81721">
        <ele>52</ele>
        <time>2022-08-15T09:06:29Z</time>
      </trkpt>
      <trkpt lat="46.99188" lon="-1.81708">
        <ele>53</ele>
        <time>2022-08-15T09:06:31Z</time>
      </trkpt>
      <trkpt lat="46.99176" lon="-1.81697">
        <ele>54</ele>
        <time>2022-08-15T09:06:33Z</time>
      </trkpt>
      <trkpt lat="46.99166" lon="-1.81687">
        <ele>53</ele>
        <time>2022-08-15T09:06:35Z</time>
      </trkpt>
      <trkpt lat="46.99155" lon="-1.81674">
        <ele>53</ele>
        <time>2022-08-15T09:06:37Z</time>
      </trkpt>
      <trkpt lat="46.99143" lon="-1.81662">
        <ele>53</ele>
        <time>2022-08-15T09:06:39Z</time>
      </trkpt>
      <trkpt lat="46.99132" lon="-1.8165">
        <ele>53</ele>
        <time>2022-08-15T09:06:41Z</time>
      </trkpt>
      <trkpt lat="46.99121" lon="-1.81637">
        <ele>54</ele>
        <time>2022-08-15T09:06:43Z</time>
      </trkpt>
      <trkpt lat="46.99111" lon="-1.81623">
        <ele>53</ele>
        <time>2022-08-15T09:06:45Z</time>
      </trkpt>
      <trkpt lat="46.99102" lon="-1.81609">
        <ele>54</ele>
        <time>2022-08-15T09:06:47Z</time>
      </trkpt>
      <trkpt lat="46.99104" lon="-1.81592">
        <ele>54</ele>
        <time>2022-08-15T09:06:49Z</time>
      </trkpt>
      <trkpt lat="46.99118" lon="-1.8159">
        <ele>54</ele>
        <time>2022-08-15T09:06:51Z</time>
      </trkpt>
      <trkpt lat="46.99133" lon="-1.81591">
        <ele>55</ele>
        <time>2022-08-15T09:06:53Z</time>
      </trkpt>
      <trkpt lat="46.99148" lon="-1.81591">
        <ele>55</ele>
        <time>2022-08-15T09:06:55Z</time>
      </trkpt>
      <trkpt lat="46.99162" lon="-1.81592">
        <ele>55</ele>
        <time>2022-08-15T09:06:57Z</time>
      </trkpt>
      <trkpt lat="46.99176" lon="-1.81593">
        <ele>55</ele>
        <time>2022-08-15T09:06:59Z</time>
      </trkpt>
      <trkpt lat="46.99189" lon="-1.81595">
        <ele>55</ele>
        <time>2022-08-15T09:07:01Z</time>
      </trkpt>
      <trkpt lat="46.99203" lon="-1.81596">
        <ele>55</ele>
        <time>2022-08-15T09:07:03Z</time>
      </trkpt>
      <trkpt lat="46.99217" lon="-1.81599">
        <ele>54</ele>
        <time>2022-08-15T09:07:05Z</time>
      </trkpt>
      <trkpt lat="46.99229" lon="-1.81602">
        <ele>54</ele>
        <time>2022-08-15T09:07:07Z</time>
      </trkpt>
      <trkpt lat="46.99242" lon="-1.81602">
        <ele>55</ele>
        <time>2022-08-15T09:07:09Z</time>
      </trkpt>
      <trkpt lat="46.99251" lon="-1.81593">
        <ele>54</ele>
        <time>2022-08-15T09:07:11Z</time>
      </trkpt>
      <trkpt lat="46.99251" lon="-1.81572">
        <ele>55</ele>
        <time>2022-08-15T09:07:13Z</time>
      </trkpt>
      <trkpt lat="46.99248" lon="-1.81554">
        <ele>56</ele>
        <time>2022-08-15T09:07:15Z</time>
      </trkpt>
      <trkpt lat="46.99245" lon="-1.81535">
        <ele>56</ele>
        <time>2022-08-15T09:07:17Z</time>
      </trkpt>
      <trkpt lat="46.99241" lon="-1.81515">
        <ele>57</ele>
        <time>2022-08-15T09:07:19Z</time>
      </trkpt>
      <trkpt lat="46.99237" lon="-1.81497">
        <ele>58</ele>
        <time>2022-08-15T09:07:21Z</time>
      </trkpt>
      <trkpt lat="46.99234" lon="-1.81478">
        <ele>57</ele>
        <time>2022-08-15T09:07:23Z</time>
      </trkpt>
      <trkpt lat="46.99233" lon="-1.81458">
        <ele>57</ele>
        <time>2022-08-15T09:07:25Z</time>
      </trkpt>
      <trkpt lat="46.9923" lon="-1.81439">
        <ele>56</ele>
        <time>2022-08-15T09:07:27Z</time>
      </trkpt>
      <trkpt lat="46.99228" lon="-1.81418">
        <ele>57</ele>
        <time>2022-08-15T09:07:29Z</time>
      </trkpt>
      <trkpt lat="46.99225" lon="-1.81398">
        <ele>57</ele>
        <time>2022-08-15T09:07:31Z</time>
      </trkpt>
      <trkpt lat="46.99223" lon="-1.81376">
        <ele>56</ele>
        <time>2022-08-15T09:07:33Z</time>
      </trkpt>
      <trkpt lat="46.99219" lon="-1.81354">
        <ele>56</ele>
        <time>2022-08-15T09:07:35Z</time>
      </trkpt>
      <trkpt lat="46.99216" lon="-1.81333">
        <ele>56</ele>
        <time>2022-08-15T09:07:37Z</time>
      </trkpt>
      <trkpt lat="46.99213" lon="-1.81313">
        <ele>56</ele>
        <time>2022-08-15T09:07:39Z</time>
      </trkpt>
      <trkpt lat="46.9921" lon="-1.81293">
        <ele>56</ele>
        <time>2022-08-15T09:07:41Z</time>
      </trkpt>
      <trkpt lat="46.99208" lon="-1.81272">
        <ele>55</ele>
        <time>2022-08-15T09:07:43Z</time>
      </trkpt>
      <trkpt lat="46.99204" lon="-1.81252">
        <ele>56</ele>
        <time>2022-08-15T09:07:45Z</time>
      </trkpt>
      <trkpt lat="46.99201" lon="-1.81233">
        <ele>55</ele>
        <time>2022-08-15T09:07:47Z</time>
      </trkpt>
      <trkpt lat="46.99198" lon="-1.81212">
        <ele>55</ele>
        <time>2022-08-15T09:07:49Z</time>
      </trkpt>
      <trkpt lat="46.99196" lon="-1.81192">
        <ele>55</ele>
        <time>2022-08-15T09:07:51Z</time>
      </trkpt>
      <trkpt lat="46.99192" lon="-1.81168">
        <ele>55</ele>
        <time>2022-08-15T09:07:53Z</time>
      </trkpt>
      <trkpt lat="46.9919" lon="-1.81145">
        <ele>54</ele>
        <time>2022-08-15T09:07:55Z</time>
      </trkpt>
      <trkpt lat="46.99187" lon="-1.81122">
        <ele>52</ele>
        <time>2022-08-15T09:07:57Z</time>
      </trkpt>
      <trkpt lat="46.99186" lon="-1.811">
        <ele>52</ele>
        <time>2022-08-15T09:07:59Z</time>
      </trkpt>
      <trkpt lat="46.99183" lon="-1.81079">
        <ele>52</ele>
        <time>2022-08-15T09:08:01Z</time>
      </trkpt>
      <trkpt lat="46.9918" lon="-1.81059">
        <ele>52</ele>
        <time>2022-08-15T09:08:03Z</time>
      </trkpt>
      <trkpt lat="46.99178" lon="-1.81039">
        <ele>51</ele>
        <time>2022-08-15T09:08:05Z</time>
      </trkpt>
      <trkpt lat="46.99175" lon="-1.81019">
        <ele>51</ele>
        <time>2022-08-15T09:08:07Z</time>
      </trkpt>
      <trkpt lat="46.99173" lon="-1.81">
        <ele>52</ele>
        <time>2022-08-15T09:08:09Z</time>
      </trkpt>
      <trkpt lat="46.99171" lon="-1.8098">
        <ele>52</ele>
        <time>2022-08-15T09:08:11Z</time>
      </trkpt>
      <trkpt lat="46.99168" lon="-1.80961">
        <ele>52</ele>
        <time>2022-08-15T09:08:13Z</time>
      </trkpt>
      <trkpt lat="46.99165" lon="-1.80942">
        <ele>52</ele>
        <time>2022-08-15T09:08:15Z</time>
      </trkpt>
      <trkpt lat="46.99163" lon="-1.80926">
        <ele>53</ele>
        <time>2022-08-15T09:08:17Z</time>
      </trkpt>
      <trkpt lat="46.99162" lon="-1.8091">
        <ele>53</ele>
        <time>2022-08-15T09:08:19Z</time>
      </trkpt>
      <trkpt lat="46.99166" lon="-1.80895">
        <ele>53</ele>
        <time>2022-08-15T09:08:21Z</time>
      </trkpt>
      <trkpt lat="46.99177" lon="-1.80887">
        <ele>53</ele>
        <time>2022-08-15T09:08:23Z</time>
      </trkpt>
      <trkpt lat="46.99189" lon="-1.80879">
        <ele>54</ele>
        <time>2022-08-15T09:08:25Z</time>
      </trkpt>
      <trkpt lat="46.99209" lon="-1.80866">
        <ele>53</ele>
        <time>2022-08-15T09:08:28Z</time>
      </trkpt>
      <trkpt lat="46.99223" lon="-1.80856">
        <ele>52</ele>
        <time>2022-08-15T09:08:30Z</time>
      </trkpt>
      <trkpt lat="46.99244" lon="-1.80843">
        <ele>51</ele>
        <time>2022-08-15T09:08:33Z</time>
      </trkpt>
      <trkpt lat="46.99257" lon="-1.80834">
        <ele>51</ele>
        <time>2022-08-15T09:08:35Z</time>
      </trkpt>
      <trkpt lat="46.99277" lon="-1.80822">
        <ele>51</ele>
        <time>2022-08-15T09:08:38Z</time>
      </trkpt>
      <trkpt lat="46.9929" lon="-1.80816">
        <ele>51</ele>
        <time>2022-08-15T09:08:40Z</time>
      </trkpt>
      <trkpt lat="46.99303" lon="-1.80808">
        <ele>52</ele>
        <time>2022-08-15T09:08:42Z</time>
      </trkpt>
      <trkpt lat="46.99316" lon="-1.80798">
        <ele>51</ele>
        <time>2022-08-15T09:08:44Z</time>
      </trkpt>
      <trkpt lat="46.9933" lon="-1.8079">
        <ele>51</ele>
        <time>2022-08-15T09:08:46Z</time>
      </trkpt>
      <trkpt lat="46.99343" lon="-1.8078">
        <ele>51</ele>
        <time>2022-08-15T09:08:48Z</time>
      </trkpt>
      <trkpt lat="46.99357" lon="-1.80772">
        <ele>50</ele>
        <time>2022-08-15T09:08:50Z</time>
      </trkpt>
      <trkpt lat="46.9937" lon="-1.80763">
        <ele>50</ele>
        <time>2022-08-15T09:08:52Z</time>
      </trkpt>
      <trkpt lat="46.99383" lon="-1.80755">
        <ele>50</ele>
        <time>2022-08-15T09:08:54Z</time>
      </trkpt>
      <trkpt lat="46.99397" lon="-1.80747">
        <ele>50</ele>
        <time>2022-08-15T09:08:56Z</time>
      </trkpt>
      <trkpt lat="46.9941" lon="-1.80738">
        <ele>50</ele>
        <time>2022-08-15T09:08:58Z</time>
      </trkpt>
      <trkpt lat="46.99423" lon="-1.8073">
        <ele>50</ele>
        <time>2022-08-15T09:09:00Z</time>
      </trkpt>
      <trkpt lat="46.99435" lon="-1.80722">
        <ele>50</ele>
        <time>2022-08-15T09:09:02Z</time>
      </trkpt>
      <trkpt lat="46.99448" lon="-1.80713">
        <ele>50</ele>
        <time>2022-08-15T09:09:04Z</time>
      </trkpt>
      <trkpt lat="46.9946" lon="-1.80705">
        <ele>50</ele>
        <time>2022-08-15T09:09:06Z</time>
      </trkpt>
      <trkpt lat="46.99469" lon="-1.80698">
        <ele>50</ele>
        <time>2022-08-15T09:09:08Z</time>
      </trkpt>
      <trkpt lat="46.99475" lon="-1.80685">
        <ele>51</ele>
        <time>2022-08-15T09:09:13Z</time>
      </trkpt>
      <trkpt lat="46.9948" lon="-1.80666">
        <ele>52</ele>
        <time>2022-08-15T09:09:16Z</time>
      </trkpt>
      <trkpt lat="46.99489" lon="-1.80658">
        <ele>52</ele>
        <time>2022-08-15T09:09:18Z</time>
      </trkpt>
      <trkpt lat="46.99502" lon="-1.80656">
        <ele>52</ele>
        <time>2022-08-15T09:09:20Z</time>
      </trkpt>
      <trkpt lat="46.99515" lon="-1.80651">
        <ele>51</ele>
        <time>2022-08-15T09:09:22Z</time>
      </trkpt>
      <trkpt lat="46.99527" lon="-1.80639">
        <ele>51</ele>
        <time>2022-08-15T09:09:24Z</time>
      </trkpt>
      <trkpt lat="46.99538" lon="-1.80627">
        <ele>50</ele>
        <time>2022-08-15T09:09:26Z</time>
      </trkpt>
      <trkpt lat="46.99549" lon="-1.80614">
        <ele>50</ele>
        <time>2022-08-15T09:09:28Z</time>
      </trkpt>
      <trkpt lat="46.99559" lon="-1.806">
        <ele>50</ele>
        <time>2022-08-15T09:09:30Z</time>
      </trkpt>
      <trkpt lat="46.9957" lon="-1.80586">
        <ele>51</ele>
        <time>2022-08-15T09:09:32Z</time>
      </trkpt>
      <trkpt lat="46.9958" lon="-1.80572">
        <ele>50</ele>
        <time>2022-08-15T09:09:34Z</time>
      </trkpt>
      <trkpt lat="46.99591" lon="-1.80558">
        <ele>50</ele>
        <time>2022-08-15T09:09:36Z</time>
      </trkpt>
      <trkpt lat="46.99601" lon="-1.80544">
        <ele>50</ele>
        <time>2022-08-15T09:09:38Z</time>
      </trkpt>
      <trkpt lat="46.99612" lon="-1.8053">
        <ele>50</ele>
        <time>2022-08-15T09:09:40Z</time>
      </trkpt>
      <trkpt lat="46.99622" lon="-1.80516">
        <ele>50</ele>
        <time>2022-08-15T09:09:42Z</time>
      </trkpt>
      <trkpt lat="46.99633" lon="-1.80502">
        <ele>50</ele>
        <time>2022-08-15T09:09:44Z</time>
      </trkpt>
      <trkpt lat="46.99645" lon="-1.80489">
        <ele>50</ele>
        <time>2022-08-15T09:09:46Z</time>
      </trkpt>
      <trkpt lat="46.99656" lon="-1.80476">
        <ele>50</ele>
        <time>2022-08-15T09:09:48Z</time>
      </trkpt>
      <trkpt lat="46.99666" lon="-1.80461">
        <ele>49</ele>
        <time>2022-08-15T09:09:50Z</time>
      </trkpt>
      <trkpt lat="46.99677" lon="-1.80447">
        <ele>50</ele>
        <time>2022-08-15T09:09:52Z</time>
      </trkpt>
      <trkpt lat="46.99687" lon="-1.80433">
        <ele>50</ele>
        <time>2022-08-15T09:09:54Z</time>
      </trkpt>
      <trkpt lat="46.99698" lon="-1.8042">
        <ele>50</ele>
        <time>2022-08-15T09:09:56Z</time>
      </trkpt>
      <trkpt lat="46.99708" lon="-1.80407">
        <ele>50</ele>
        <time>2022-08-15T09:09:58Z</time>
      </trkpt>
      <trkpt lat="46.99719" lon="-1.80393">
        <ele>50</ele>
        <time>2022-08-15T09:10:00Z</time>
      </trkpt>
      <trkpt lat="46.9973" lon="-1.80379">
        <ele>50</ele>
        <time>2022-08-15T09:10:02Z</time>
      </trkpt>
      <trkpt lat="46.9974" lon="-1.80365">
        <ele>50</ele>
        <time>2022-08-15T09:10:04Z</time>
      </trkpt>
      <trkpt lat="46.99751" lon="-1.80351">
        <ele>50</ele>
        <time>2022-08-15T09:10:06Z</time>
      </trkpt>
      <trkpt lat="46.99761" lon="-1.80337">
        <ele>50</ele>
        <time>2022-08-15T09:10:08Z</time>
      </trkpt>
      <trkpt lat="46.99772" lon="-1.80324">
        <ele>51</ele>
        <time>2022-08-15T09:10:10Z</time>
      </trkpt>
      <trkpt lat="46.99782" lon="-1.80311">
        <ele>51</ele>
        <time>2022-08-15T09:10:12Z</time>
      </trkpt>
      <trkpt lat="46.99792" lon="-1.80297">
        <ele>51</ele>
        <time>2022-08-15T09:10:14Z</time>
      </trkpt>
      <trkpt lat="46.99803" lon="-1.80283">
        <ele>51</ele>
        <time>2022-08-15T09:10:16Z</time>
      </trkpt>
      <trkpt lat="46.99813" lon="-1.8027">
        <ele>51</ele>
        <time>2022-08-15T09:10:18Z</time>
      </trkpt>
      <trkpt lat="46.99823" lon="-1.80256">
        <ele>51</ele>
        <time>2022-08-15T09:10:20Z</time>
      </trkpt>
      <trkpt lat="46.99833" lon="-1.80242">
        <ele>51</ele>
        <time>2022-08-15T09:10:22Z</time>
      </trkpt>
      <trkpt lat="46.99843" lon="-1.80228">
        <ele>51</ele>
        <time>2022-08-15T09:10:24Z</time>
      </trkpt>
      <trkpt lat="46.99852" lon="-1.80212">
        <ele>51</ele>
        <time>2022-08-15T09:10:26Z</time>
      </trkpt>
      <trkpt lat="46.99861" lon="-1.80197">
        <ele>52</ele>
        <time>2022-08-15T09:10:28Z</time>
      </trkpt>
      <trkpt lat="46.99869" lon="-1.80179">
        <ele>51</ele>
        <time>2022-08-15T09:10:30Z</time>
      </trkpt>
      <trkpt lat="46.99878" lon="-1.80162">
        <ele>52</ele>
        <time>2022-08-15T09:10:32Z</time>
      </trkpt>
      <trkpt lat="46.99886" lon="-1.80145">
        <ele>52</ele>
        <time>2022-08-15T09:10:34Z</time>
      </trkpt>
      <trkpt lat="46.99895" lon="-1.80127">
        <ele>52</ele>
        <time>2022-08-15T09:10:36Z</time>
      </trkpt>
      <trkpt lat="46.99903" lon="-1.80109">
        <ele>52</ele>
        <time>2022-08-15T09:10:38Z</time>
      </trkpt>
      <trkpt lat="46.99912" lon="-1.80091">
        <ele>52</ele>
        <time>2022-08-15T09:10:40Z</time>
      </trkpt>
      <trkpt lat="46.9992" lon="-1.80074">
        <ele>52</ele>
        <time>2022-08-15T09:10:42Z</time>
      </trkpt>
      <trkpt lat="46.99929" lon="-1.80056">
        <ele>52</ele>
        <time>2022-08-15T09:10:44Z</time>
      </trkpt>
      <trkpt lat="46.99937" lon="-1.80038">
        <ele>52</ele>
        <time>2022-08-15T09:10:46Z</time>
      </trkpt>
      <trkpt lat="46.99947" lon="-1.80021">
        <ele>53</ele>
        <time>2022-08-15T09:10:48Z</time>
      </trkpt>
      <trkpt lat="46.99958" lon="-1.80005">
        <ele>53</ele>
        <time>2022-08-15T09:10:50Z</time>
      </trkpt>
      <trkpt lat="46.99969" lon="-1.79992">
        <ele>53</ele>
        <time>2022-08-15T09:10:52Z</time>
      </trkpt>
      <trkpt lat="46.99982" lon="-1.79981">
        <ele>53</ele>
        <time>2022-08-15T09:10:54Z</time>
      </trkpt>
      <trkpt lat="46.99996" lon="-1.79971">
        <ele>53</ele>
        <time>2022-08-15T09:10:56Z</time>
      </trkpt>
      <trkpt lat="47.00008" lon="-1.79962">
        <ele>53</ele>
        <time>2022-08-15T09:10:58Z</time>
      </trkpt>
      <trkpt lat="47.00022" lon="-1.79952">
        <ele>53</ele>
        <time>2022-08-15T09:11:00Z</time>
      </trkpt>
      <trkpt lat="47.00035" lon="-1.79942">
        <ele>54</ele>
        <time>2022-08-15T09:11:02Z</time>
      </trkpt>
      <trkpt lat="47.00048" lon="-1.79932">
        <ele>54</ele>
        <time>2022-08-15T09:11:04Z</time>
      </trkpt>
      <trkpt lat="47.00062" lon="-1.79923">
        <ele>53</ele>
        <time>2022-08-15T09:11:06Z</time>
      </trkpt>
      <trkpt lat="47.00075" lon="-1.79912">
        <ele>53</ele>
        <time>2022-08-15T09:11:08Z</time>
      </trkpt>
      <trkpt lat="47.00088" lon="-1.79901">
        <ele>53</ele>
        <time>2022-08-15T09:11:10Z</time>
      </trkpt>
      <trkpt lat="47.001" lon="-1.79889">
        <ele>52</ele>
        <time>2022-08-15T09:11:12Z</time>
      </trkpt>
      <trkpt lat="47.00111" lon="-1.79876">
        <ele>52</ele>
        <time>2022-08-15T09:11:14Z</time>
      </trkpt>
      <trkpt lat="47.0012" lon="-1.79861">
        <ele>52</ele>
        <time>2022-08-15T09:11:16Z</time>
      </trkpt>
      <trkpt lat="47.0013" lon="-1.79847">
        <ele>52</ele>
        <time>2022-08-15T09:11:18Z</time>
      </trkpt>
      <trkpt lat="47.00137" lon="-1.79829">
        <ele>52</ele>
        <time>2022-08-15T09:11:20Z</time>
      </trkpt>
      <trkpt lat="47.00143" lon="-1.79811">
        <ele>52</ele>
        <time>2022-08-15T09:11:22Z</time>
      </trkpt>
      <trkpt lat="47.0015" lon="-1.79793">
        <ele>52</ele>
        <time>2022-08-15T09:11:24Z</time>
      </trkpt>
      <trkpt lat="47.00155" lon="-1.79775">
        <ele>52</ele>
        <time>2022-08-15T09:11:26Z</time>
      </trkpt>
      <trkpt lat="47.00161" lon="-1.79757">
        <ele>52</ele>
        <time>2022-08-15T09:11:28Z</time>
      </trkpt>
      <trkpt lat="47.00167" lon="-1.79739">
        <ele>52</ele>
        <time>2022-08-15T09:11:30Z</time>
      </trkpt>
      <trkpt lat="47.00172" lon="-1.7972">
        <ele>52</ele>
        <time>2022-08-15T09:11:32Z</time>
      </trkpt>
      <trkpt lat="47.00178" lon="-1.79702">
        <ele>52</ele>
        <time>2022-08-15T09:11:34Z</time>
      </trkpt>
      <trkpt lat="47.00183" lon="-1.79684">
        <ele>52</ele>
        <time>2022-08-15T09:11:36Z</time>
      </trkpt>
      <trkpt lat="47.00189" lon="-1.79666">
        <ele>53</ele>
        <time>2022-08-15T09:11:38Z</time>
      </trkpt>
      <trkpt lat="47.00194" lon="-1.79647">
        <ele>53</ele>
        <time>2022-08-15T09:11:40Z</time>
      </trkpt>
      <trkpt lat="47.00199" lon="-1.79628">
        <ele>53</ele>
        <time>2022-08-15T09:11:42Z</time>
      </trkpt>
      <trkpt lat="47.00204" lon="-1.79609">
        <ele>53</ele>
        <time>2022-08-15T09:11:44Z</time>
      </trkpt>
      <trkpt lat="47.0021" lon="-1.79591">
        <ele>53</ele>
        <time>2022-08-15T09:11:46Z</time>
      </trkpt>
      <trkpt lat="47.00215" lon="-1.79572">
        <ele>53</ele>
        <time>2022-08-15T09:11:48Z</time>
      </trkpt>
      <trkpt lat="47.00221" lon="-1.79554">
        <ele>52</ele>
        <time>2022-08-15T09:11:50Z</time>
      </trkpt>
      <trkpt lat="47.00226" lon="-1.79536">
        <ele>52</ele>
        <time>2022-08-15T09:11:52Z</time>
      </trkpt>
      <trkpt lat="47.00232" lon="-1.79518">
        <ele>52</ele>
        <time>2022-08-15T09:11:54Z</time>
      </trkpt>
      <trkpt lat="47.00237" lon="-1.79499">
        <ele>53</ele>
        <time>2022-08-15T09:11:56Z</time>
      </trkpt>
      <trkpt lat="47.00243" lon="-1.7948">
        <ele>53</ele>
        <time>2022-08-15T09:11:58Z</time>
      </trkpt>
      <trkpt lat="47.00249" lon="-1.79461">
        <ele>53</ele>
        <time>2022-08-15T09:12:00Z</time>
      </trkpt>
      <trkpt lat="47.00254" lon="-1.79443">
        <ele>53</ele>
        <time>2022-08-15T09:12:02Z</time>
      </trkpt>
      <trkpt lat="47.0026" lon="-1.79424">
        <ele>53</ele>
        <time>2022-08-15T09:12:04Z</time>
      </trkpt>
      <trkpt lat="47.00265" lon="-1.79405">
        <ele>53</ele>
        <time>2022-08-15T09:12:06Z</time>
      </trkpt>
      <trkpt lat="47.00271" lon="-1.79387">
        <ele>53</ele>
        <time>2022-08-15T09:12:08Z</time>
      </trkpt>
      <trkpt lat="47.00276" lon="-1.79368">
        <ele>53</ele>
        <time>2022-08-15T09:12:10Z</time>
      </trkpt>
      <trkpt lat="47.00281" lon="-1.7935">
        <ele>53</ele>
        <time>2022-08-15T09:12:12Z</time>
      </trkpt>
      <trkpt lat="47.00284" lon="-1.7933">
        <ele>53</ele>
        <time>2022-08-15T09:12:14Z</time>
      </trkpt>
      <trkpt lat="47.00287" lon="-1.7931">
        <ele>53</ele>
        <time>2022-08-15T09:12:16Z</time>
      </trkpt>
      <trkpt lat="47.00291" lon="-1.7929">
        <ele>53</ele>
        <time>2022-08-15T09:12:18Z</time>
      </trkpt>
      <trkpt lat="47.00294" lon="-1.79269">
        <ele>54</ele>
        <time>2022-08-15T09:12:20Z</time>
      </trkpt>
      <trkpt lat="47.00297" lon="-1.79249">
        <ele>53</ele>
        <time>2022-08-15T09:12:22Z</time>
      </trkpt>
      <trkpt lat="47.003" lon="-1.7923">
        <ele>53</ele>
        <time>2022-08-15T09:12:24Z</time>
      </trkpt>
      <trkpt lat="47.00303" lon="-1.79209">
        <ele>53</ele>
        <time>2022-08-15T09:12:26Z</time>
      </trkpt>
      <trkpt lat="47.00307" lon="-1.7919">
        <ele>53</ele>
        <time>2022-08-15T09:12:28Z</time>
      </trkpt>
      <trkpt lat="47.0031" lon="-1.7917">
        <ele>53</ele>
        <time>2022-08-15T09:12:30Z</time>
      </trkpt>
      <trkpt lat="47.00314" lon="-1.7915">
        <ele>53</ele>
        <time>2022-08-15T09:12:32Z</time>
      </trkpt>
      <trkpt lat="47.00319" lon="-1.79131">
        <ele>53</ele>
        <time>2022-08-15T09:12:34Z</time>
      </trkpt>
      <trkpt lat="47.00323" lon="-1.79112">
        <ele>53</ele>
        <time>2022-08-15T09:12:36Z</time>
      </trkpt>
      <trkpt lat="47.00329" lon="-1.79093">
        <ele>53</ele>
        <time>2022-08-15T09:12:38Z</time>
      </trkpt>
      <trkpt lat="47.00334" lon="-1.79075">
        <ele>54</ele>
        <time>2022-08-15T09:12:40Z</time>
      </trkpt>
      <trkpt lat="47.0034" lon="-1.79057">
        <ele>54</ele>
        <time>2022-08-15T09:12:42Z</time>
      </trkpt>
      <trkpt lat="47.00345" lon="-1.79038">
        <ele>53</ele>
        <time>2022-08-15T09:12:44Z</time>
      </trkpt>
      <trkpt lat="47.0035" lon="-1.79019">
        <ele>54</ele>
        <time>2022-08-15T09:12:46Z</time>
      </trkpt>
      <trkpt lat="47.00354" lon="-1.79">
        <ele>53</ele>
        <time>2022-08-15T09:12:48Z</time>
      </trkpt>
      <trkpt lat="47.00358" lon="-1.78981">
        <ele>53</ele>
        <time>2022-08-15T09:12:50Z</time>
      </trkpt>
      <trkpt lat="47.00363" lon="-1.78961">
        <ele>53</ele>
        <time>2022-08-15T09:12:52Z</time>
      </trkpt>
      <trkpt lat="47.00368" lon="-1.78942">
        <ele>53</ele>
        <time>2022-08-15T09:12:54Z</time>
      </trkpt>
      <trkpt lat="47.00372" lon="-1.78923">
        <ele>53</ele>
        <time>2022-08-15T09:12:56Z</time>
      </trkpt>
      <trkpt lat="47.00376" lon="-1.78905">
        <ele>52</ele>
        <time>2022-08-15T09:12:58Z</time>
      </trkpt>
      <trkpt lat="47.0038" lon="-1.78885">
        <ele>52</ele>
        <time>2022-08-15T09:13:00Z</time>
      </trkpt>
      <trkpt lat="47.00384" lon="-1.78867">
        <ele>52</ele>
        <time>2022-08-15T09:13:02Z</time>
      </trkpt>
      <trkpt lat="47.00389" lon="-1.78848">
        <ele>53</ele>
        <time>2022-08-15T09:13:04Z</time>
      </trkpt>
      <trkpt lat="47.00393" lon="-1.78829">
        <ele>53</ele>
        <time>2022-08-15T09:13:06Z</time>
      </trkpt>
      <trkpt lat="47.00396" lon="-1.78809">
        <ele>52</ele>
        <time>2022-08-15T09:13:08Z</time>
      </trkpt>
      <trkpt lat="47.004" lon="-1.78789">
        <ele>52</ele>
        <time>2022-08-15T09:13:10Z</time>
      </trkpt>
      <trkpt lat="47.00404" lon="-1.78769">
        <ele>52</ele>
        <time>2022-08-15T09:13:12Z</time>
      </trkpt>
      <trkpt lat="47.00406" lon="-1.78748">
        <ele>52</ele>
        <time>2022-08-15T09:13:14Z</time>
      </trkpt>
      <trkpt lat="47.00409" lon="-1.78728">
        <ele>52</ele>
        <time>2022-08-15T09:13:16Z</time>
      </trkpt>
      <trkpt lat="47.00412" lon="-1.78707">
        <ele>52</ele>
        <time>2022-08-15T09:13:18Z</time>
      </trkpt>
      <trkpt lat="47.00415" lon="-1.78686">
        <ele>52</ele>
        <time>2022-08-15T09:13:20Z</time>
      </trkpt>
      <trkpt lat="47.00418" lon="-1.78665">
        <ele>52</ele>
        <time>2022-08-15T09:13:22Z</time>
      </trkpt>
      <trkpt lat="47.00421" lon="-1.78645">
        <ele>52</ele>
        <time>2022-08-15T09:13:24Z</time>
      </trkpt>
      <trkpt lat="47.00423" lon="-1.78625">
        <ele>52</ele>
        <time>2022-08-15T09:13:26Z</time>
      </trkpt>
      <trkpt lat="47.00426" lon="-1.78605">
        <ele>52</ele>
        <time>2022-08-15T09:13:28Z</time>
      </trkpt>
      <trkpt lat="47.00428" lon="-1.78584">
        <ele>52</ele>
        <time>2022-08-15T09:13:30Z</time>
      </trkpt>
      <trkpt lat="47.00431" lon="-1.78563">
        <ele>52</ele>
        <time>2022-08-15T09:13:32Z</time>
      </trkpt>
      <trkpt lat="47.00433" lon="-1.78541">
        <ele>52</ele>
        <time>2022-08-15T09:13:34Z</time>
      </trkpt>
      <trkpt lat="47.00436" lon="-1.7852">
        <ele>52</ele>
        <time>2022-08-15T09:13:36Z</time>
      </trkpt>
      <trkpt lat="47.00439" lon="-1.78499">
        <ele>52</ele>
        <time>2022-08-15T09:13:38Z</time>
      </trkpt>
      <trkpt lat="47.00443" lon="-1.78477">
        <ele>52</ele>
        <time>2022-08-15T09:13:40Z</time>
      </trkpt>
      <trkpt lat="47.00446" lon="-1.78457">
        <ele>52</ele>
        <time>2022-08-15T09:13:42Z</time>
      </trkpt>
      <trkpt lat="47.00451" lon="-1.78437">
        <ele>52</ele>
        <time>2022-08-15T09:13:44Z</time>
      </trkpt>
      <trkpt lat="47.00455" lon="-1.78417">
        <ele>52</ele>
        <time>2022-08-15T09:13:46Z</time>
      </trkpt>
      <trkpt lat="47.0046" lon="-1.78397">
        <ele>52</ele>
        <time>2022-08-15T09:13:48Z</time>
      </trkpt>
      <trkpt lat="47.00464" lon="-1.78377">
        <ele>52</ele>
        <time>2022-08-15T09:13:50Z</time>
      </trkpt>
      <trkpt lat="47.00469" lon="-1.78358">
        <ele>52</ele>
        <time>2022-08-15T09:13:52Z</time>
      </trkpt>
      <trkpt lat="47.00474" lon="-1.78338">
        <ele>51</ele>
        <time>2022-08-15T09:13:54Z</time>
      </trkpt>
      <trkpt lat="47.0048" lon="-1.78317">
        <ele>51</ele>
        <time>2022-08-15T09:13:56Z</time>
      </trkpt>
      <trkpt lat="47.00485" lon="-1.78297">
        <ele>52</ele>
        <time>2022-08-15T09:13:58Z</time>
      </trkpt>
      <trkpt lat="47.0049" lon="-1.78278">
        <ele>51</ele>
        <time>2022-08-15T09:14:00Z</time>
      </trkpt>
      <trkpt lat="47.00495" lon="-1.78258">
        <ele>51</ele>
        <time>2022-08-15T09:14:02Z</time>
      </trkpt>
      <trkpt lat="47.005" lon="-1.78239">
        <ele>51</ele>
        <time>2022-08-15T09:14:04Z</time>
      </trkpt>
      <trkpt lat="47.00505" lon="-1.7822">
        <ele>51</ele>
        <time>2022-08-15T09:14:06Z</time>
      </trkpt>
      <trkpt lat="47.0051" lon="-1.78202">
        <ele>51</ele>
        <time>2022-08-15T09:14:08Z</time>
      </trkpt>
      <trkpt lat="47.00514" lon="-1.78184">
        <ele>52</ele>
        <time>2022-08-15T09:14:10Z</time>
      </trkpt>
      <trkpt lat="47.00517" lon="-1.78166">
        <ele>52</ele>
        <time>2022-08-15T09:14:12Z</time>
      </trkpt>
      <trkpt lat="47.00521" lon="-1.78147">
        <ele>52</ele>
        <time>2022-08-15T09:14:14Z</time>
      </trkpt>
      <trkpt lat="47.00526" lon="-1.78128">
        <ele>52</ele>
        <time>2022-08-15T09:14:16Z</time>
      </trkpt>
      <trkpt lat="47.0053" lon="-1.78108">
        <ele>52</ele>
        <time>2022-08-15T09:14:18Z</time>
      </trkpt>
      <trkpt lat="47.00535" lon="-1.78088">
        <ele>51</ele>
        <time>2022-08-15T09:14:20Z</time>
      </trkpt>
      <trkpt lat="47.00541" lon="-1.78069">
        <ele>51</ele>
        <time>2022-08-15T09:14:22Z</time>
      </trkpt>
      <trkpt lat="47.00545" lon="-1.78049">
        <ele>51</ele>
        <time>2022-08-15T09:14:24Z</time>
      </trkpt>
      <trkpt lat="47.0055" lon="-1.78029">
        <ele>51</ele>
        <time>2022-08-15T09:14:26Z</time>
      </trkpt>
      <trkpt lat="47.00555" lon="-1.78009">
        <ele>51</ele>
        <time>2022-08-15T09:14:28Z</time>
      </trkpt>
      <trkpt lat="47.0056" lon="-1.7799">
        <ele>51</ele>
        <time>2022-08-15T09:14:30Z</time>
      </trkpt>
      <trkpt lat="47.00565" lon="-1.7797">
        <ele>51</ele>
        <time>2022-08-15T09:14:32Z</time>
      </trkpt>
      <trkpt lat="47.0057" lon="-1.77951">
        <ele>51</ele>
        <time>2022-08-15T09:14:34Z</time>
      </trkpt>
      <trkpt lat="47.00575" lon="-1.77931">
        <ele>51</ele>
        <time>2022-08-15T09:14:36Z</time>
      </trkpt>
      <trkpt lat="47.0058" lon="-1.77911">
        <ele>51</ele>
        <time>2022-08-15T09:14:38Z</time>
      </trkpt>
      <trkpt lat="47.00584" lon="-1.77892">
        <ele>51</ele>
        <time>2022-08-15T09:14:40Z</time>
      </trkpt>
      <trkpt lat="47.00589" lon="-1.77873">
        <ele>51</ele>
        <time>2022-08-15T09:14:42Z</time>
      </trkpt>
      <trkpt lat="47.00593" lon="-1.77854">
        <ele>52</ele>
        <time>2022-08-15T09:14:44Z</time>
      </trkpt>
      <trkpt lat="47.00598" lon="-1.77835">
        <ele>51</ele>
        <time>2022-08-15T09:14:46Z</time>
      </trkpt>
      <trkpt lat="47.00603" lon="-1.77815">
        <ele>51</ele>
        <time>2022-08-15T09:14:48Z</time>
      </trkpt>
      <trkpt lat="47.00607" lon="-1.77795">
        <ele>52</ele>
        <time>2022-08-15T09:14:50Z</time>
      </trkpt>
      <trkpt lat="47.00613" lon="-1.77776">
        <ele>52</ele>
        <time>2022-08-15T09:14:52Z</time>
      </trkpt>
      <trkpt lat="47.00617" lon="-1.77757">
        <ele>52</ele>
        <time>2022-08-15T09:14:54Z</time>
      </trkpt>
      <trkpt lat="47.00622" lon="-1.77739">
        <ele>52</ele>
        <time>2022-08-15T09:14:56Z</time>
      </trkpt>
      <trkpt lat="47.00627" lon="-1.7772">
        <ele>52</ele>
        <time>2022-08-15T09:14:58Z</time>
      </trkpt>
      <trkpt lat="47.00631" lon="-1.77703">
        <ele>52</ele>
        <time>2022-08-15T09:15:00Z</time>
      </trkpt>
      <trkpt lat="47.00636" lon="-1.77684">
        <ele>52</ele>
        <time>2022-08-15T09:15:02Z</time>
      </trkpt>
      <trkpt lat="47.0064" lon="-1.77666">
        <ele>52</ele>
        <time>2022-08-15T09:15:04Z</time>
      </trkpt>
      <trkpt lat="47.00645" lon="-1.77647">
        <ele>52</ele>
        <time>2022-08-15T09:15:06Z</time>
      </trkpt>
      <trkpt lat="47.00648" lon="-1.77629">
        <ele>52</ele>
        <time>2022-08-15T09:15:08Z</time>
      </trkpt>
      <trkpt lat="47.00651" lon="-1.77611">
        <ele>53</ele>
        <time>2022-08-15T09:15:10Z</time>
      </trkpt>
      <trkpt lat="47.00656" lon="-1.77593">
        <ele>53</ele>
        <time>2022-08-15T09:15:12Z</time>
      </trkpt>
      <trkpt lat="47.0066" lon="-1.77576">
        <ele>53</ele>
        <time>2022-08-15T09:15:14Z</time>
      </trkpt>
      <trkpt lat="47.00664" lon="-1.77559">
        <ele>53</ele>
        <time>2022-08-15T09:15:16Z</time>
      </trkpt>
      <trkpt lat="47.00668" lon="-1.77543">
        <ele>53</ele>
        <time>2022-08-15T09:15:18Z</time>
      </trkpt>
      <trkpt lat="47.00673" lon="-1.77527">
        <ele>53</ele>
        <time>2022-08-15T09:15:20Z</time>
      </trkpt>
      <trkpt lat="47.00678" lon="-1.77512">
        <ele>54</ele>
        <time>2022-08-15T09:15:22Z</time>
      </trkpt>
      <trkpt lat="47.00683" lon="-1.77496">
        <ele>54</ele>
        <time>2022-08-15T09:15:24Z</time>
      </trkpt>
      <trkpt lat="47.00689" lon="-1.7748">
        <ele>54</ele>
        <time>2022-08-15T09:15:26Z</time>
      </trkpt>
      <trkpt lat="47.00694" lon="-1.77465">
        <ele>55</ele>
        <time>2022-08-15T09:15:28Z</time>
      </trkpt>
      <trkpt lat="47.00701" lon="-1.7745">
        <ele>55</ele>
        <time>2022-08-15T09:15:30Z</time>
      </trkpt>
      <trkpt lat="47.00706" lon="-1.77434">
        <ele>56</ele>
        <time>2022-08-15T09:15:32Z</time>
      </trkpt>
      <trkpt lat="47.00713" lon="-1.77418">
        <ele>57</ele>
        <time>2022-08-15T09:15:34Z</time>
      </trkpt>
      <trkpt lat="47.00719" lon="-1.77403">
        <ele>57</ele>
        <time>2022-08-15T09:15:36Z</time>
      </trkpt>
      <trkpt lat="47.00725" lon="-1.77388">
        <ele>57</ele>
        <time>2022-08-15T09:15:38Z</time>
      </trkpt>
      <trkpt lat="47.00731" lon="-1.77374">
        <ele>58</ele>
        <time>2022-08-15T09:15:40Z</time>
      </trkpt>
      <trkpt lat="47.00738" lon="-1.7736">
        <ele>59</ele>
        <time>2022-08-15T09:15:42Z</time>
      </trkpt>
      <trkpt lat="47.00746" lon="-1.77347">
        <ele>59</ele>
        <time>2022-08-15T09:15:44Z</time>
      </trkpt>
      <trkpt lat="47.00755" lon="-1.77335">
        <ele>60</ele>
        <time>2022-08-15T09:15:46Z</time>
      </trkpt>
      <trkpt lat="47.00764" lon="-1.77325">
        <ele>60</ele>
        <time>2022-08-15T09:15:48Z</time>
      </trkpt>
      <trkpt lat="47.00775" lon="-1.77315">
        <ele>60</ele>
        <time>2022-08-15T09:15:50Z</time>
      </trkpt>
      <trkpt lat="47.00786" lon="-1.77308">
        <ele>59</ele>
        <time>2022-08-15T09:15:52Z</time>
      </trkpt>
      <trkpt lat="47.00796" lon="-1.77301">
        <ele>60</ele>
        <time>2022-08-15T09:15:54Z</time>
      </trkpt>
      <trkpt lat="47.00808" lon="-1.77295">
        <ele>60</ele>
        <time>2022-08-15T09:15:56Z</time>
      </trkpt>
      <trkpt lat="47.00819" lon="-1.77288">
        <ele>60</ele>
        <time>2022-08-15T09:15:58Z</time>
      </trkpt>
      <trkpt lat="47.0083" lon="-1.77282">
        <ele>61</ele>
        <time>2022-08-15T09:16:00Z</time>
      </trkpt>
      <trkpt lat="47.00841" lon="-1.77275">
        <ele>60</ele>
        <time>2022-08-15T09:16:02Z</time>
      </trkpt>
      <trkpt lat="47.00852" lon="-1.77269">
        <ele>60</ele>
        <time>2022-08-15T09:16:04Z</time>
      </trkpt>
      <trkpt lat="47.00863" lon="-1.77261">
        <ele>60</ele>
        <time>2022-08-15T09:16:06Z</time>
      </trkpt>
      <trkpt lat="47.00874" lon="-1.77252">
        <ele>60</ele>
        <time>2022-08-15T09:16:08Z</time>
      </trkpt>
      <trkpt lat="47.00884" lon="-1.77241">
        <ele>60</ele>
        <time>2022-08-15T09:16:10Z</time>
      </trkpt>
      <trkpt lat="47.00895" lon="-1.77231">
        <ele>60</ele>
        <time>2022-08-15T09:16:12Z</time>
      </trkpt>
      <trkpt lat="47.00905" lon="-1.7722">
        <ele>60</ele>
        <time>2022-08-15T09:16:14Z</time>
      </trkpt>
      <trkpt lat="47.00915" lon="-1.77209">
        <ele>60</ele>
        <time>2022-08-15T09:16:16Z</time>
      </trkpt>
      <trkpt lat="47.00926" lon="-1.77199">
        <ele>60</ele>
        <time>2022-08-15T09:16:18Z</time>
      </trkpt>
      <trkpt lat="47.00935" lon="-1.77189">
        <ele>59</ele>
        <time>2022-08-15T09:16:20Z</time>
      </trkpt>
      <trkpt lat="47.00945" lon="-1.77181">
        <ele>59</ele>
        <time>2022-08-15T09:16:22Z</time>
      </trkpt>
      <trkpt lat="47.00953" lon="-1.7717">
        <ele>59</ele>
        <time>2022-08-15T09:16:24Z</time>
      </trkpt>
      <trkpt lat="47.0096" lon="-1.77162">
        <ele>59</ele>
        <time>2022-08-15T09:16:26Z</time>
      </trkpt>
      <trkpt lat="47.00969" lon="-1.77153">
        <ele>59</ele>
        <time>2022-08-15T09:16:28Z</time>
      </trkpt>
      <trkpt lat="47.0098" lon="-1.77143">
        <ele>59</ele>
        <time>2022-08-15T09:16:30Z</time>
      </trkpt>
      <trkpt lat="47.0099" lon="-1.77132">
        <ele>59</ele>
        <time>2022-08-15T09:16:32Z</time>
      </trkpt>
      <trkpt lat="47.01001" lon="-1.77121">
        <ele>59</ele>
        <time>2022-08-15T09:16:34Z</time>
      </trkpt>
      <trkpt lat="47.01011" lon="-1.77109">
        <ele>60</ele>
        <time>2022-08-15T09:16:36Z</time>
      </trkpt>
      <trkpt lat="47.01022" lon="-1.77098">
        <ele>60</ele>
        <time>2022-08-15T09:16:38Z</time>
      </trkpt>
      <trkpt lat="47.01033" lon="-1.77087">
        <ele>60</ele>
        <time>2022-08-15T09:16:40Z</time>
      </trkpt>
      <trkpt lat="47.01043" lon="-1.77076">
        <ele>60</ele>
        <time>2022-08-15T09:16:42Z</time>
      </trkpt>
      <trkpt lat="47.01053" lon="-1.77065">
        <ele>60</ele>
        <time>2022-08-15T09:16:44Z</time>
      </trkpt>
      <trkpt lat="47.01063" lon="-1.77054">
        <ele>60</ele>
        <time>2022-08-15T09:16:46Z</time>
      </trkpt>
      <trkpt lat="47.01073" lon="-1.77043">
        <ele>60</ele>
        <time>2022-08-15T09:16:48Z</time>
      </trkpt>
      <trkpt lat="47.01082" lon="-1.77031">
        <ele>60</ele>
        <time>2022-08-15T09:16:50Z</time>
      </trkpt>
      <trkpt lat="47.01091" lon="-1.7702">
        <ele>61</ele>
        <time>2022-08-15T09:16:52Z</time>
      </trkpt>
      <trkpt lat="47.01101" lon="-1.77009">
        <ele>61</ele>
        <time>2022-08-15T09:16:54Z</time>
      </trkpt>
      <trkpt lat="47.0111" lon="-1.76998">
        <ele>62</ele>
        <time>2022-08-15T09:16:56Z</time>
      </trkpt>
      <trkpt lat="47.01119" lon="-1.76986">
        <ele>62</ele>
        <time>2022-08-15T09:16:58Z</time>
      </trkpt>
      <trkpt lat="47.01127" lon="-1.76976">
        <ele>62</ele>
        <time>2022-08-15T09:17:00Z</time>
      </trkpt>
      <trkpt lat="47.01136" lon="-1.76965">
        <ele>63</ele>
        <time>2022-08-15T09:17:02Z</time>
      </trkpt>
      <trkpt lat="47.01145" lon="-1.76954">
        <ele>63</ele>
        <time>2022-08-15T09:17:04Z</time>
      </trkpt>
      <trkpt lat="47.01154" lon="-1.76943">
        <ele>63</ele>
        <time>2022-08-15T09:17:06Z</time>
      </trkpt>
      <trkpt lat="47.01163" lon="-1.76931">
        <ele>63</ele>
        <time>2022-08-15T09:17:08Z</time>
      </trkpt>
      <trkpt lat="47.01173" lon="-1.76921">
        <ele>63</ele>
        <time>2022-08-15T09:17:10Z</time>
      </trkpt>
      <trkpt lat="47.01183" lon="-1.76911">
        <ele>64</ele>
        <time>2022-08-15T09:17:12Z</time>
      </trkpt>
      <trkpt lat="47.01192" lon="-1.76901">
        <ele>64</ele>
        <time>2022-08-15T09:17:14Z</time>
      </trkpt>
      <trkpt lat="47.01202" lon="-1.76891">
        <ele>64</ele>
        <time>2022-08-15T09:17:16Z</time>
      </trkpt>
      <trkpt lat="47.01212" lon="-1.76881">
        <ele>64</ele>
        <time>2022-08-15T09:17:18Z</time>
      </trkpt>
      <trkpt lat="47.01222" lon="-1.76873">
        <ele>64</ele>
        <time>2022-08-15T09:17:20Z</time>
      </trkpt>
      <trkpt lat="47.01233" lon="-1.76865">
        <ele>64</ele>
        <time>2022-08-15T09:17:22Z</time>
      </trkpt>
      <trkpt lat="47.01243" lon="-1.76857">
        <ele>64</ele>
        <time>2022-08-15T09:17:24Z</time>
      </trkpt>
      <trkpt lat="47.01254" lon="-1.7685">
        <ele>64</ele>
        <time>2022-08-15T09:17:26Z</time>
      </trkpt>
      <trkpt lat="47.01265" lon="-1.76841">
        <ele>64</ele>
        <time>2022-08-15T09:17:28Z</time>
      </trkpt>
      <trkpt lat="47.01275" lon="-1.76832">
        <ele>64</ele>
        <time>2022-08-15T09:17:30Z</time>
      </trkpt>
      <trkpt lat="47.01284" lon="-1.76822">
        <ele>64</ele>
        <time>2022-08-15T09:17:32Z</time>
      </trkpt>
      <trkpt lat="47.01293" lon="-1.76812">
        <ele>65</ele>
        <time>2022-08-15T09:17:34Z</time>
      </trkpt>
      <trkpt lat="47.01301" lon="-1.768">
        <ele>65</ele>
        <time>2022-08-15T09:17:36Z</time>
      </trkpt>
      <trkpt lat="47.01308" lon="-1.76787">
        <ele>65</ele>
        <time>2022-08-15T09:17:38Z</time>
      </trkpt>
      <trkpt lat="47.01316" lon="-1.76775">
        <ele>65</ele>
        <time>2022-08-15T09:17:40Z</time>
      </trkpt>
      <trkpt lat="47.01323" lon="-1.76763">
        <ele>66</ele>
        <time>2022-08-15T09:17:42Z</time>
      </trkpt>
      <trkpt lat="47.01331" lon="-1.76749">
        <ele>66</ele>
        <time>2022-08-15T09:17:44Z</time>
      </trkpt>
      <trkpt lat="47.01338" lon="-1.76736">
        <ele>66</ele>
        <time>2022-08-15T09:17:46Z</time>
      </trkpt>
      <trkpt lat="47.01345" lon="-1.76724">
        <ele>66</ele>
        <time>2022-08-15T09:17:48Z</time>
      </trkpt>
      <trkpt lat="47.01351" lon="-1.7671">
        <ele>66</ele>
        <time>2022-08-15T09:17:50Z</time>
      </trkpt>
      <trkpt lat="47.01357" lon="-1.76695">
        <ele>66</ele>
        <time>2022-08-15T09:17:52Z</time>
      </trkpt>
      <trkpt lat="47.01362" lon="-1.7668">
        <ele>66</ele>
        <time>2022-08-15T09:17:54Z</time>
      </trkpt>
      <trkpt lat="47.01366" lon="-1.76662">
        <ele>66</ele>
        <time>2022-08-15T09:17:56Z</time>
      </trkpt>
      <trkpt lat="47.0137" lon="-1.76645">
        <ele>66</ele>
        <time>2022-08-15T09:17:58Z</time>
      </trkpt>
      <trkpt lat="47.01373" lon="-1.76628">
        <ele>66</ele>
        <time>2022-08-15T09:18:00Z</time>
      </trkpt>
      <trkpt lat="47.01377" lon="-1.76611">
        <ele>67</ele>
        <time>2022-08-15T09:18:02Z</time>
      </trkpt>
      <trkpt lat="47.0138" lon="-1.76594">
        <ele>67</ele>
        <time>2022-08-15T09:18:04Z</time>
      </trkpt>
      <trkpt lat="47.01383" lon="-1.76576">
        <ele>67</ele>
        <time>2022-08-15T09:18:06Z</time>
      </trkpt>
      <trkpt lat="47.01387" lon="-1.76558">
        <ele>67</ele>
        <time>2022-08-15T09:18:08Z</time>
      </trkpt>
      <trkpt lat="47.01391" lon="-1.7654">
        <ele>67</ele>
        <time>2022-08-15T09:18:10Z</time>
      </trkpt>
      <trkpt lat="47.01394" lon="-1.76522">
        <ele>67</ele>
        <time>2022-08-15T09:18:12Z</time>
      </trkpt>
      <trkpt lat="47.01399" lon="-1.76504">
        <ele>67</ele>
        <time>2022-08-15T09:18:14Z</time>
      </trkpt>
      <trkpt lat="47.01405" lon="-1.76486">
        <ele>67</ele>
        <time>2022-08-15T09:18:16Z</time>
      </trkpt>
      <trkpt lat="47.01411" lon="-1.76469">
        <ele>67</ele>
        <time>2022-08-15T09:18:18Z</time>
      </trkpt>
      <trkpt lat="47.01419" lon="-1.76452">
        <ele>67</ele>
        <time>2022-08-15T09:18:20Z</time>
      </trkpt>
      <trkpt lat="47.01427" lon="-1.76435">
        <ele>66</ele>
        <time>2022-08-15T09:18:22Z</time>
      </trkpt>
      <trkpt lat="47.01435" lon="-1.76418">
        <ele>66</ele>
        <time>2022-08-15T09:18:24Z</time>
      </trkpt>
      <trkpt lat="47.01443" lon="-1.764">
        <ele>66</ele>
        <time>2022-08-15T09:18:26Z</time>
      </trkpt>
      <trkpt lat="47.01451" lon="-1.76382">
        <ele>66</ele>
        <time>2022-08-15T09:18:28Z</time>
      </trkpt>
      <trkpt lat="47.01459" lon="-1.76364">
        <ele>66</ele>
        <time>2022-08-15T09:18:30Z</time>
      </trkpt>
      <trkpt lat="47.01468" lon="-1.76346">
        <ele>65</ele>
        <time>2022-08-15T09:18:32Z</time>
      </trkpt>
      <trkpt lat="47.01476" lon="-1.76328">
        <ele>65</ele>
        <time>2022-08-15T09:18:34Z</time>
      </trkpt>
      <trkpt lat="47.01479" lon="-1.76308">
        <ele>64</ele>
        <time>2022-08-15T09:18:36Z</time>
      </trkpt>
      <trkpt lat="47.01474" lon="-1.76287">
        <ele>64</ele>
        <time>2022-08-15T09:18:38Z</time>
      </trkpt>
      <trkpt lat="47.01466" lon="-1.76268">
        <ele>64</ele>
        <time>2022-08-15T09:18:40Z</time>
      </trkpt>
      <trkpt lat="47.01458" lon="-1.7625">
        <ele>65</ele>
        <time>2022-08-15T09:18:42Z</time>
      </trkpt>
      <trkpt lat="47.0145" lon="-1.76232">
        <ele>64</ele>
        <time>2022-08-15T09:18:44Z</time>
      </trkpt>
      <trkpt lat="47.01443" lon="-1.76213">
        <ele>65</ele>
        <time>2022-08-15T09:18:46Z</time>
      </trkpt>
      <trkpt lat="47.01435" lon="-1.76194">
        <ele>64</ele>
        <time>2022-08-15T09:18:48Z</time>
      </trkpt>
      <trkpt lat="47.01427" lon="-1.76175">
        <ele>64</ele>
        <time>2022-08-15T09:18:50Z</time>
      </trkpt>
      <trkpt lat="47.01419" lon="-1.76156">
        <ele>64</ele>
        <time>2022-08-15T09:18:52Z</time>
      </trkpt>
      <trkpt lat="47.01412" lon="-1.76137">
        <ele>63</ele>
        <time>2022-08-15T09:18:54Z</time>
      </trkpt>
      <trkpt lat="47.01405" lon="-1.76118">
        <ele>64</ele>
        <time>2022-08-15T09:18:56Z</time>
      </trkpt>
      <trkpt lat="47.01398" lon="-1.76101">
        <ele>64</ele>
        <time>2022-08-15T09:18:58Z</time>
      </trkpt>
      <trkpt lat="47.0139" lon="-1.76083">
        <ele>64</ele>
        <time>2022-08-15T09:19:00Z</time>
      </trkpt>
      <trkpt lat="47.01383" lon="-1.76064">
        <ele>64</ele>
        <time>2022-08-15T09:19:02Z</time>
      </trkpt>
      <trkpt lat="47.01376" lon="-1.76046">
        <ele>64</ele>
        <time>2022-08-15T09:19:04Z</time>
      </trkpt>
      <trkpt lat="47.0137" lon="-1.76028">
        <ele>64</ele>
        <time>2022-08-15T09:19:06Z</time>
      </trkpt>
      <trkpt lat="47.01362" lon="-1.76011">
        <ele>64</ele>
        <time>2022-08-15T09:19:08Z</time>
      </trkpt>
      <trkpt lat="47.01355" lon="-1.75993">
        <ele>65</ele>
        <time>2022-08-15T09:19:10Z</time>
      </trkpt>
      <trkpt lat="47.01348" lon="-1.75974">
        <ele>64</ele>
        <time>2022-08-15T09:19:12Z</time>
      </trkpt>
      <trkpt lat="47.01341" lon="-1.75957">
        <ele>64</ele>
        <time>2022-08-15T09:19:14Z</time>
      </trkpt>
      <trkpt lat="47.01335" lon="-1.75939">
        <ele>64</ele>
        <time>2022-08-15T09:19:16Z</time>
      </trkpt>
      <trkpt lat="47.01327" lon="-1.7592">
        <ele>63</ele>
        <time>2022-08-15T09:19:18Z</time>
      </trkpt>
      <trkpt lat="47.0132" lon="-1.75901">
        <ele>62</ele>
        <time>2022-08-15T09:19:20Z</time>
      </trkpt>
      <trkpt lat="47.01313" lon="-1.75882">
        <ele>62</ele>
        <time>2022-08-15T09:19:22Z</time>
      </trkpt>
      <trkpt lat="47.01304" lon="-1.75865">
        <ele>62</ele>
        <time>2022-08-15T09:19:24Z</time>
      </trkpt>
      <trkpt lat="47.01296" lon="-1.75847">
        <ele>63</ele>
        <time>2022-08-15T09:19:26Z</time>
      </trkpt>
      <trkpt lat="47.01288" lon="-1.75828">
        <ele>62</ele>
        <time>2022-08-15T09:19:28Z</time>
      </trkpt>
      <trkpt lat="47.01281" lon="-1.75809">
        <ele>62</ele>
        <time>2022-08-15T09:19:30Z</time>
      </trkpt>
      <trkpt lat="47.01274" lon="-1.7579">
        <ele>62</ele>
        <time>2022-08-15T09:19:32Z</time>
      </trkpt>
      <trkpt lat="47.01267" lon="-1.75773">
        <ele>62</ele>
        <time>2022-08-15T09:19:34Z</time>
      </trkpt>
      <trkpt lat="47.0126" lon="-1.75753">
        <ele>62</ele>
        <time>2022-08-15T09:19:36Z</time>
      </trkpt>
      <trkpt lat="47.01252" lon="-1.75734">
        <ele>63</ele>
        <time>2022-08-15T09:19:38Z</time>
      </trkpt>
      <trkpt lat="47.01245" lon="-1.75715">
        <ele>63</ele>
        <time>2022-08-15T09:19:40Z</time>
      </trkpt>
      <trkpt lat="47.01239" lon="-1.75699">
        <ele>63</ele>
        <time>2022-08-15T09:19:42Z</time>
      </trkpt>
      <trkpt lat="47.01233" lon="-1.75684">
        <ele>62</ele>
        <time>2022-08-15T09:19:44Z</time>
      </trkpt>
      <trkpt lat="47.01227" lon="-1.75669">
        <ele>62</ele>
        <time>2022-08-15T09:19:46Z</time>
      </trkpt>
      <trkpt lat="47.01222" lon="-1.75654">
        <ele>63</ele>
        <time>2022-08-15T09:19:48Z</time>
      </trkpt>
      <trkpt lat="47.01216" lon="-1.75638">
        <ele>63</ele>
        <time>2022-08-15T09:19:50Z</time>
      </trkpt>
      <trkpt lat="47.01209" lon="-1.75623">
        <ele>63</ele>
        <time>2022-08-15T09:19:52Z</time>
      </trkpt>
      <trkpt lat="47.01203" lon="-1.7561">
        <ele>64</ele>
        <time>2022-08-15T09:19:54Z</time>
      </trkpt>
      <trkpt lat="47.01196" lon="-1.75597">
        <ele>65</ele>
        <time>2022-08-15T09:19:56Z</time>
      </trkpt>
      <trkpt lat="47.0119" lon="-1.75582">
        <ele>66</ele>
        <time>2022-08-15T09:19:58Z</time>
      </trkpt>
      <trkpt lat="47.01183" lon="-1.75567">
        <ele>66</ele>
        <time>2022-08-15T09:20:00Z</time>
      </trkpt>
      <trkpt lat="47.01177" lon="-1.75551">
        <ele>66</ele>
        <time>2022-08-15T09:20:02Z</time>
      </trkpt>
      <trkpt lat="47.0117" lon="-1.75535">
        <ele>66</ele>
        <time>2022-08-15T09:20:04Z</time>
      </trkpt>
      <trkpt lat="47.01164" lon="-1.75518">
        <ele>66</ele>
        <time>2022-08-15T09:20:06Z</time>
      </trkpt>
      <trkpt lat="47.01158" lon="-1.75502">
        <ele>66</ele>
        <time>2022-08-15T09:20:08Z</time>
      </trkpt>
      <trkpt lat="47.01153" lon="-1.75487">
        <ele>65</ele>
        <time>2022-08-15T09:20:10Z</time>
      </trkpt>
      <trkpt lat="47.01147" lon="-1.75471">
        <ele>65</ele>
        <time>2022-08-15T09:20:12Z</time>
      </trkpt>
      <trkpt lat="47.01141" lon="-1.75455">
        <ele>65</ele>
        <time>2022-08-15T09:20:14Z</time>
      </trkpt>
      <trkpt lat="47.01135" lon="-1.7544">
        <ele>65</ele>
        <time>2022-08-15T09:20:16Z</time>
      </trkpt>
      <trkpt lat="47.01129" lon="-1.75424">
        <ele>65</ele>
        <time>2022-08-15T09:20:18Z</time>
      </trkpt>
      <trkpt lat="47.01123" lon="-1.75409">
        <ele>65</ele>
        <time>2022-08-15T09:20:20Z</time>
      </trkpt>
      <trkpt lat="47.01117" lon="-1.75393">
        <ele>65</ele>
        <time>2022-08-15T09:20:22Z</time>
      </trkpt>
      <trkpt lat="47.01111" lon="-1.75378">
        <ele>65</ele>
        <time>2022-08-15T09:20:24Z</time>
      </trkpt>
      <trkpt lat="47.01106" lon="-1.75363">
        <ele>66</ele>
        <time>2022-08-15T09:20:26Z</time>
      </trkpt>
      <trkpt lat="47.011" lon="-1.75348">
        <ele>65</ele>
        <time>2022-08-15T09:20:28Z</time>
      </trkpt>
      <trkpt lat="47.01093" lon="-1.75333">
        <ele>65</ele>
        <time>2022-08-15T09:20:30Z</time>
      </trkpt>
      <trkpt lat="47.01087" lon="-1.75317">
        <ele>65</ele>
        <time>2022-08-15T09:20:32Z</time>
      </trkpt>
      <trkpt lat="47.01082" lon="-1.75302">
        <ele>65</ele>
        <time>2022-08-15T09:20:34Z</time>
      </trkpt>
      <trkpt lat="47.01076" lon="-1.75286">
        <ele>64</ele>
        <time>2022-08-15T09:20:36Z</time>
      </trkpt>
      <trkpt lat="47.0107" lon="-1.75271">
        <ele>64</ele>
        <time>2022-08-15T09:20:38Z</time>
      </trkpt>
      <trkpt lat="47.01063" lon="-1.75255">
        <ele>64</ele>
        <time>2022-08-15T09:20:40Z</time>
      </trkpt>
      <trkpt lat="47.01057" lon="-1.75239">
        <ele>65</ele>
        <time>2022-08-15T09:20:42Z</time>
      </trkpt>
      <trkpt lat="47.01051" lon="-1.75223">
        <ele>65</ele>
        <time>2022-08-15T09:20:44Z</time>
      </trkpt>
      <trkpt lat="47.01047" lon="-1.75206">
        <ele>65</ele>
        <time>2022-08-15T09:20:46Z</time>
      </trkpt>
      <trkpt lat="47.01044" lon="-1.75188">
        <ele>66</ele>
        <time>2022-08-15T09:20:48Z</time>
      </trkpt>
      <trkpt lat="47.01042" lon="-1.7517">
        <ele>66</ele>
        <time>2022-08-15T09:20:50Z</time>
      </trkpt>
      <trkpt lat="47.01041" lon="-1.75151">
        <ele>66</ele>
        <time>2022-08-15T09:20:52Z</time>
      </trkpt>
      <trkpt lat="47.0104" lon="-1.75132">
        <ele>65</ele>
        <time>2022-08-15T09:20:54Z</time>
      </trkpt>
      <trkpt lat="47.0104" lon="-1.75114">
        <ele>65</ele>
        <time>2022-08-15T09:20:56Z</time>
      </trkpt>
      <trkpt lat="47.0104" lon="-1.75096">
        <ele>65</ele>
        <time>2022-08-15T09:20:58Z</time>
      </trkpt>
      <trkpt lat="47.01041" lon="-1.75077">
        <ele>66</ele>
        <time>2022-08-15T09:21:00Z</time>
      </trkpt>
      <trkpt lat="47.0104" lon="-1.75059">
        <ele>66</ele>
        <time>2022-08-15T09:21:02Z</time>
      </trkpt>
      <trkpt lat="47.01041" lon="-1.7504">
        <ele>66</ele>
        <time>2022-08-15T09:21:04Z</time>
      </trkpt>
      <trkpt lat="47.0104" lon="-1.75021">
        <ele>66</ele>
        <time>2022-08-15T09:21:06Z</time>
      </trkpt>
      <trkpt lat="47.0104" lon="-1.75002">
        <ele>66</ele>
        <time>2022-08-15T09:21:08Z</time>
      </trkpt>
      <trkpt lat="47.0104" lon="-1.74983">
        <ele>66</ele>
        <time>2022-08-15T09:21:10Z</time>
      </trkpt>
      <trkpt lat="47.01039" lon="-1.74964">
        <ele>67</ele>
        <time>2022-08-15T09:21:12Z</time>
      </trkpt>
      <trkpt lat="47.01039" lon="-1.74945">
        <ele>67</ele>
        <time>2022-08-15T09:21:14Z</time>
      </trkpt>
      <trkpt lat="47.01039" lon="-1.74926">
        <ele>67</ele>
        <time>2022-08-15T09:21:16Z</time>
      </trkpt>
      <trkpt lat="47.01039" lon="-1.74907">
        <ele>67</ele>
        <time>2022-08-15T09:21:18Z</time>
      </trkpt>
      <trkpt lat="47.01039" lon="-1.74889">
        <ele>67</ele>
        <time>2022-08-15T09:21:20Z</time>
      </trkpt>
      <trkpt lat="47.01039" lon="-1.74872">
        <ele>67</ele>
        <time>2022-08-15T09:21:22Z</time>
      </trkpt>
      <trkpt lat="47.01038" lon="-1.74854">
        <ele>67</ele>
        <time>2022-08-15T09:21:24Z</time>
      </trkpt>
      <trkpt lat="47.01038" lon="-1.74835">
        <ele>67</ele>
        <time>2022-08-15T09:21:26Z</time>
      </trkpt>
      <trkpt lat="47.01038" lon="-1.74816">
        <ele>67</ele>
        <time>2022-08-15T09:21:28Z</time>
      </trkpt>
      <trkpt lat="47.01038" lon="-1.74798">
        <ele>67</ele>
        <time>2022-08-15T09:21:30Z</time>
      </trkpt>
      <trkpt lat="47.01037" lon="-1.74779">
        <ele>67</ele>
        <time>2022-08-15T09:21:32Z</time>
      </trkpt>
      <trkpt lat="47.01037" lon="-1.74761">
        <ele>67</ele>
        <time>2022-08-15T09:21:34Z</time>
      </trkpt>
      <trkpt lat="47.01036" lon="-1.74742">
        <ele>67</ele>
        <time>2022-08-15T09:21:36Z</time>
      </trkpt>
      <trkpt lat="47.01035" lon="-1.74723">
        <ele>67</ele>
        <time>2022-08-15T09:21:38Z</time>
      </trkpt>
      <trkpt lat="47.01035" lon="-1.74704">
        <ele>67</ele>
        <time>2022-08-15T09:21:40Z</time>
      </trkpt>
      <trkpt lat="47.01034" lon="-1.74684">
        <ele>67</ele>
        <time>2022-08-15T09:21:42Z</time>
      </trkpt>
      <trkpt lat="47.01034" lon="-1.74665">
        <ele>67</ele>
        <time>2022-08-15T09:21:44Z</time>
      </trkpt>
      <trkpt lat="47.01035" lon="-1.74646">
        <ele>66</ele>
        <time>2022-08-15T09:21:46Z</time>
      </trkpt>
      <trkpt lat="47.01035" lon="-1.74627">
        <ele>66</ele>
        <time>2022-08-15T09:21:48Z</time>
      </trkpt>
      <trkpt lat="47.01034" lon="-1.74607">
        <ele>66</ele>
        <time>2022-08-15T09:21:50Z</time>
      </trkpt>
      <trkpt lat="47.01034" lon="-1.74587">
        <ele>65</ele>
        <time>2022-08-15T09:21:52Z</time>
      </trkpt>
      <trkpt lat="47.01035" lon="-1.74567">
        <ele>65</ele>
        <time>2022-08-15T09:21:54Z</time>
      </trkpt>
      <trkpt lat="47.01037" lon="-1.74548">
        <ele>65</ele>
        <time>2022-08-15T09:21:56Z</time>
      </trkpt>
      <trkpt lat="47.01042" lon="-1.7453">
        <ele>65</ele>
        <time>2022-08-15T09:21:58Z</time>
      </trkpt>
      <trkpt lat="47.01048" lon="-1.74512">
        <ele>65</ele>
        <time>2022-08-15T09:22:00Z</time>
      </trkpt>
      <trkpt lat="47.01054" lon="-1.74495">
        <ele>65</ele>
        <time>2022-08-15T09:22:02Z</time>
      </trkpt>
      <trkpt lat="47.0106" lon="-1.74478">
        <ele>65</ele>
        <time>2022-08-15T09:22:04Z</time>
      </trkpt>
      <trkpt lat="47.01067" lon="-1.74461">
        <ele>66</ele>
        <time>2022-08-15T09:22:06Z</time>
      </trkpt>
      <trkpt lat="47.01073" lon="-1.74443">
        <ele>66</ele>
        <time>2022-08-15T09:22:08Z</time>
      </trkpt>
      <trkpt lat="47.01077" lon="-1.74425">
        <ele>67</ele>
        <time>2022-08-15T09:22:10Z</time>
      </trkpt>
      <trkpt lat="47.01082" lon="-1.74407">
        <ele>67</ele>
        <time>2022-08-15T09:22:12Z</time>
      </trkpt>
      <trkpt lat="47.01086" lon="-1.74388">
        <ele>67</ele>
        <time>2022-08-15T09:22:14Z</time>
      </trkpt>
      <trkpt lat="47.01091" lon="-1.74371">
        <ele>67</ele>
        <time>2022-08-15T09:22:16Z</time>
      </trkpt>
      <trkpt lat="47.01095" lon="-1.74353">
        <ele>67</ele>
        <time>2022-08-15T09:22:18Z</time>
      </trkpt>
      <trkpt lat="47.011" lon="-1.74334">
        <ele>67</ele>
        <time>2022-08-15T09:22:20Z</time>
      </trkpt>
      <trkpt lat="47.01105" lon="-1.74316">
        <ele>67</ele>
        <time>2022-08-15T09:22:22Z</time>
      </trkpt>
      <trkpt lat="47.01109" lon="-1.74299">
        <ele>67</ele>
        <time>2022-08-15T09:22:24Z</time>
      </trkpt>
      <trkpt lat="47.01114" lon="-1.74282">
        <ele>67</ele>
        <time>2022-08-15T09:22:26Z</time>
      </trkpt>
      <trkpt lat="47.0112" lon="-1.74264">
        <ele>67</ele>
        <time>2022-08-15T09:22:28Z</time>
      </trkpt>
      <trkpt lat="47.01124" lon="-1.74247">
        <ele>67</ele>
        <time>2022-08-15T09:22:30Z</time>
      </trkpt>
      <trkpt lat="47.01127" lon="-1.74229">
        <ele>67</ele>
        <time>2022-08-15T09:22:32Z</time>
      </trkpt>
      <trkpt lat="47.01131" lon="-1.74211">
        <ele>67</ele>
        <time>2022-08-15T09:22:34Z</time>
      </trkpt>
      <trkpt lat="47.01136" lon="-1.74192">
        <ele>67</ele>
        <time>2022-08-15T09:22:36Z</time>
      </trkpt>
      <trkpt lat="47.0114" lon="-1.74173">
        <ele>68</ele>
        <time>2022-08-15T09:22:38Z</time>
      </trkpt>
      <trkpt lat="47.01144" lon="-1.74153">
        <ele>68</ele>
        <time>2022-08-15T09:22:40Z</time>
      </trkpt>
      <trkpt lat="47.01149" lon="-1.74135">
        <ele>67</ele>
        <time>2022-08-15T09:22:42Z</time>
      </trkpt>
      <trkpt lat="47.01154" lon="-1.74116">
        <ele>67</ele>
        <time>2022-08-15T09:22:44Z</time>
      </trkpt>
      <trkpt lat="47.01158" lon="-1.74099">
        <ele>67</ele>
        <time>2022-08-15T09:22:46Z</time>
      </trkpt>
      <trkpt lat="47.01162" lon="-1.74082">
        <ele>67</ele>
        <time>2022-08-15T09:22:48Z</time>
      </trkpt>
      <trkpt lat="47.01167" lon="-1.74065">
        <ele>68</ele>
        <time>2022-08-15T09:22:50Z</time>
      </trkpt>
      <trkpt lat="47.01171" lon="-1.74049">
        <ele>69</ele>
        <time>2022-08-15T09:22:52Z</time>
      </trkpt>
      <trkpt lat="47.01176" lon="-1.74031">
        <ele>69</ele>
        <time>2022-08-15T09:22:54Z</time>
      </trkpt>
      <trkpt lat="47.0118" lon="-1.74015">
        <ele>69</ele>
        <time>2022-08-15T09:22:56Z</time>
      </trkpt>
      <trkpt lat="47.01184" lon="-1.73999">
        <ele>70</ele>
        <time>2022-08-15T09:22:58Z</time>
      </trkpt>
      <trkpt lat="47.01187" lon="-1.73984">
        <ele>70</ele>
        <time>2022-08-15T09:23:00Z</time>
      </trkpt>
      <trkpt lat="47.01191" lon="-1.73966">
        <ele>70</ele>
        <time>2022-08-15T09:23:02Z</time>
      </trkpt>
      <trkpt lat="47.01195" lon="-1.73948">
        <ele>70</ele>
        <time>2022-08-15T09:23:04Z</time>
      </trkpt>
      <trkpt lat="47.01199" lon="-1.7393">
        <ele>69</ele>
        <time>2022-08-15T09:23:06Z</time>
      </trkpt>
      <trkpt lat="47.01202" lon="-1.7391">
        <ele>69</ele>
        <time>2022-08-15T09:23:08Z</time>
      </trkpt>
      <trkpt lat="47.01202" lon="-1.73891">
        <ele>69</ele>
        <time>2022-08-15T09:23:10Z</time>
      </trkpt>
      <trkpt lat="47.01204" lon="-1.73873">
        <ele>68</ele>
        <time>2022-08-15T09:23:12Z</time>
      </trkpt>
      <trkpt lat="47.01205" lon="-1.73854">
        <ele>69</ele>
        <time>2022-08-15T09:23:14Z</time>
      </trkpt>
      <trkpt lat="47.01205" lon="-1.73836">
        <ele>68</ele>
        <time>2022-08-15T09:23:16Z</time>
      </trkpt>
      <trkpt lat="47.01206" lon="-1.73818">
        <ele>69</ele>
        <time>2022-08-15T09:23:18Z</time>
      </trkpt>
      <trkpt lat="47.01207" lon="-1.73799">
        <ele>69</ele>
        <time>2022-08-15T09:23:20Z</time>
      </trkpt>
      <trkpt lat="47.01208" lon="-1.73781">
        <ele>68</ele>
        <time>2022-08-15T09:23:22Z</time>
      </trkpt>
      <trkpt lat="47.01209" lon="-1.73763">
        <ele>69</ele>
        <time>2022-08-15T09:23:24Z</time>
      </trkpt>
      <trkpt lat="47.0121" lon="-1.73744">
        <ele>69</ele>
        <time>2022-08-15T09:23:26Z</time>
      </trkpt>
      <trkpt lat="47.01211" lon="-1.73725">
        <ele>69</ele>
        <time>2022-08-15T09:23:28Z</time>
      </trkpt>
      <trkpt lat="47.01212" lon="-1.73706">
        <ele>69</ele>
        <time>2022-08-15T09:23:30Z</time>
      </trkpt>
      <trkpt lat="47.01213" lon="-1.73688">
        <ele>69</ele>
        <time>2022-08-15T09:23:32Z</time>
      </trkpt>
      <trkpt lat="47.01213" lon="-1.73669">
        <ele>69</ele>
        <time>2022-08-15T09:23:34Z</time>
      </trkpt>
      <trkpt lat="47.01214" lon="-1.73652">
        <ele>69</ele>
        <time>2022-08-15T09:23:36Z</time>
      </trkpt>
      <trkpt lat="47.01215" lon="-1.73633">
        <ele>70</ele>
        <time>2022-08-15T09:23:38Z</time>
      </trkpt>
      <trkpt lat="47.01216" lon="-1.73615">
        <ele>69</ele>
        <time>2022-08-15T09:23:40Z</time>
      </trkpt>
      <trkpt lat="47.01217" lon="-1.73596">
        <ele>69</ele>
        <time>2022-08-15T09:23:42Z</time>
      </trkpt>
      <trkpt lat="47.01218" lon="-1.73577">
        <ele>69</ele>
        <time>2022-08-15T09:23:44Z</time>
      </trkpt>
      <trkpt lat="47.01218" lon="-1.73558">
        <ele>69</ele>
        <time>2022-08-15T09:23:46Z</time>
      </trkpt>
      <trkpt lat="47.01219" lon="-1.7354">
        <ele>69</ele>
        <time>2022-08-15T09:23:48Z</time>
      </trkpt>
      <trkpt lat="47.0122" lon="-1.73523">
        <ele>69</ele>
        <time>2022-08-15T09:23:50Z</time>
      </trkpt>
      <trkpt lat="47.01221" lon="-1.73508">
        <ele>70</ele>
        <time>2022-08-15T09:23:52Z</time>
      </trkpt>
      <trkpt lat="47.0122" lon="-1.73494">
        <ele>70</ele>
        <time>2022-08-15T09:23:54Z</time>
      </trkpt>
      <trkpt lat="47.01213" lon="-1.73485">
        <ele>70</ele>
        <time>2022-08-15T09:23:56Z</time>
      </trkpt>
      <trkpt lat="47.01201" lon="-1.73482">
        <ele>69</ele>
        <time>2022-08-15T09:23:58Z</time>
      </trkpt>
      <trkpt lat="47.01189" lon="-1.73479">
        <ele>68</ele>
        <time>2022-08-15T09:24:00Z</time>
      </trkpt>
      <trkpt lat="47.01177" lon="-1.73476">
        <ele>68</ele>
        <time>2022-08-15T09:24:02Z</time>
      </trkpt>
      <trkpt lat="47.01165" lon="-1.73473">
        <ele>68</ele>
        <time>2022-08-15T09:24:04Z</time>
      </trkpt>
      <trkpt lat="47.01152" lon="-1.73469">
        <ele>68</ele>
        <time>2022-08-15T09:24:06Z</time>
      </trkpt>
      <trkpt lat="47.01141" lon="-1.73466">
        <ele>67</ele>
        <time>2022-08-15T09:24:08Z</time>
      </trkpt>
      <trkpt lat="47.01128" lon="-1.73462">
        <ele>68</ele>
        <time>2022-08-15T09:24:10Z</time>
      </trkpt>
      <trkpt lat="47.01116" lon="-1.73458">
        <ele>68</ele>
        <time>2022-08-15T09:24:12Z</time>
      </trkpt>
      <trkpt lat="47.01104" lon="-1.73456">
        <ele>68</ele>
        <time>2022-08-15T09:24:14Z</time>
      </trkpt>
      <trkpt lat="47.01096" lon="-1.73449">
        <ele>68</ele>
        <time>2022-08-15T09:24:16Z</time>
      </trkpt>
      <trkpt lat="47.01099" lon="-1.73435">
        <ele>68</ele>
        <time>2022-08-15T09:24:18Z</time>
      </trkpt>
      <trkpt lat="47.01106" lon="-1.73421">
        <ele>67</ele>
        <time>2022-08-15T09:24:20Z</time>
      </trkpt>
      <trkpt lat="47.01113" lon="-1.73407">
        <ele>67</ele>
        <time>2022-08-15T09:24:22Z</time>
      </trkpt>
      <trkpt lat="47.01119" lon="-1.73391">
        <ele>67</ele>
        <time>2022-08-15T09:24:24Z</time>
      </trkpt>
      <trkpt lat="47.01125" lon="-1.73376">
        <ele>68</ele>
        <time>2022-08-15T09:24:26Z</time>
      </trkpt>
      <trkpt lat="47.01132" lon="-1.7336">
        <ele>68</ele>
        <time>2022-08-15T09:24:28Z</time>
      </trkpt>
      <trkpt lat="47.01141" lon="-1.73337">
        <ele>69</ele>
        <time>2022-08-15T09:24:31Z</time>
      </trkpt>
      <trkpt lat="47.01149" lon="-1.73322">
        <ele>68</ele>
        <time>2022-08-15T09:24:33Z</time>
      </trkpt>
      <trkpt lat="47.01155" lon="-1.73307">
        <ele>69</ele>
        <time>2022-08-15T09:24:35Z</time>
      </trkpt>
      <trkpt lat="47.01162" lon="-1.73291">
        <ele>69</ele>
        <time>2022-08-15T09:24:37Z</time>
      </trkpt>
      <trkpt lat="47.01168" lon="-1.73276">
        <ele>70</ele>
        <time>2022-08-15T09:24:39Z</time>
      </trkpt>
      <trkpt lat="47.01175" lon="-1.7326">
        <ele>70</ele>
        <time>2022-08-15T09:24:41Z</time>
      </trkpt>
      <trkpt lat="47.01182" lon="-1.73245">
        <ele>70</ele>
        <time>2022-08-15T09:24:43Z</time>
      </trkpt>
      <trkpt lat="47.01189" lon="-1.7323">
        <ele>70</ele>
        <time>2022-08-15T09:24:45Z</time>
      </trkpt>
      <trkpt lat="47.01195" lon="-1.73215">
        <ele>70</ele>
        <time>2022-08-15T09:24:47Z</time>
      </trkpt>
      <trkpt lat="47.01206" lon="-1.7319">
        <ele>70</ele>
        <time>2022-08-15T09:24:50Z</time>
      </trkpt>
      <trkpt lat="47.01213" lon="-1.73175">
        <ele>69</ele>
        <time>2022-08-15T09:24:52Z</time>
      </trkpt>
      <trkpt lat="47.0122" lon="-1.73159">
        <ele>69</ele>
        <time>2022-08-15T09:24:54Z</time>
      </trkpt>
      <trkpt lat="47.01227" lon="-1.73144">
        <ele>69</ele>
        <time>2022-08-15T09:24:56Z</time>
      </trkpt>
      <trkpt lat="47.01233" lon="-1.73128">
        <ele>69</ele>
        <time>2022-08-15T09:24:58Z</time>
      </trkpt>
      <trkpt lat="47.01243" lon="-1.73105">
        <ele>68</ele>
        <time>2022-08-15T09:25:01Z</time>
      </trkpt>
      <trkpt lat="47.0125" lon="-1.73089">
        <ele>68</ele>
        <time>2022-08-15T09:25:03Z</time>
      </trkpt>
      <trkpt lat="47.01257" lon="-1.73073">
        <ele>68</ele>
        <time>2022-08-15T09:25:05Z</time>
      </trkpt>
      <trkpt lat="47.01264" lon="-1.73058">
        <ele>68</ele>
        <time>2022-08-15T09:25:07Z</time>
      </trkpt>
      <trkpt lat="47.0127" lon="-1.73043">
        <ele>69</ele>
        <time>2022-08-15T09:25:09Z</time>
      </trkpt>
      <trkpt lat="47.01277" lon="-1.73028">
        <ele>69</ele>
        <time>2022-08-15T09:25:11Z</time>
      </trkpt>
      <trkpt lat="47.01283" lon="-1.73013">
        <ele>69</ele>
        <time>2022-08-15T09:25:13Z</time>
      </trkpt>
      <trkpt lat="47.0129" lon="-1.72998">
        <ele>69</ele>
        <time>2022-08-15T09:25:15Z</time>
      </trkpt>
      <trkpt lat="47.01297" lon="-1.72984">
        <ele>69</ele>
        <time>2022-08-15T09:25:17Z</time>
      </trkpt>
      <trkpt lat="47.01303" lon="-1.72969">
        <ele>70</ele>
        <time>2022-08-15T09:25:19Z</time>
      </trkpt>
      <trkpt lat="47.0131" lon="-1.72953">
        <ele>69</ele>
        <time>2022-08-15T09:25:21Z</time>
      </trkpt>
      <trkpt lat="47.01317" lon="-1.72937">
        <ele>69</ele>
        <time>2022-08-15T09:25:23Z</time>
      </trkpt>
      <trkpt lat="47.01324" lon="-1.72921">
        <ele>69</ele>
        <time>2022-08-15T09:25:25Z</time>
      </trkpt>
      <trkpt lat="47.0133" lon="-1.72906">
        <ele>69</ele>
        <time>2022-08-15T09:25:27Z</time>
      </trkpt>
      <trkpt lat="47.01336" lon="-1.72891">
        <ele>69</ele>
        <time>2022-08-15T09:25:29Z</time>
      </trkpt>
      <trkpt lat="47.01343" lon="-1.72876">
        <ele>69</ele>
        <time>2022-08-15T09:25:31Z</time>
      </trkpt>
      <trkpt lat="47.01349" lon="-1.72861">
        <ele>69</ele>
        <time>2022-08-15T09:25:33Z</time>
      </trkpt>
      <trkpt lat="47.01356" lon="-1.72847">
        <ele>70</ele>
        <time>2022-08-15T09:25:35Z</time>
      </trkpt>
      <trkpt lat="47.01363" lon="-1.72832">
        <ele>70</ele>
        <time>2022-08-15T09:25:37Z</time>
      </trkpt>
      <trkpt lat="47.0137" lon="-1.72817">
        <ele>70</ele>
        <time>2022-08-15T09:25:39Z</time>
      </trkpt>
      <trkpt lat="47.01376" lon="-1.72802">
        <ele>71</ele>
        <time>2022-08-15T09:25:41Z</time>
      </trkpt>
      <trkpt lat="47.01383" lon="-1.72787">
        <ele>71</ele>
        <time>2022-08-15T09:25:43Z</time>
      </trkpt>
      <trkpt lat="47.01389" lon="-1.72771">
        <ele>71</ele>
        <time>2022-08-15T09:25:45Z</time>
      </trkpt>
      <trkpt lat="47.01396" lon="-1.72755">
        <ele>71</ele>
        <time>2022-08-15T09:25:47Z</time>
      </trkpt>
      <trkpt lat="47.01402" lon="-1.7274">
        <ele>71</ele>
        <time>2022-08-15T09:25:49Z</time>
      </trkpt>
      <trkpt lat="47.01409" lon="-1.72725">
        <ele>71</ele>
        <time>2022-08-15T09:25:51Z</time>
      </trkpt>
      <trkpt lat="47.01416" lon="-1.7271">
        <ele>71</ele>
        <time>2022-08-15T09:25:53Z</time>
      </trkpt>
      <trkpt lat="47.01423" lon="-1.72695">
        <ele>71</ele>
        <time>2022-08-15T09:25:55Z</time>
      </trkpt>
      <trkpt lat="47.01429" lon="-1.7268">
        <ele>72</ele>
        <time>2022-08-15T09:25:57Z</time>
      </trkpt>
      <trkpt lat="47.01435" lon="-1.72665">
        <ele>72</ele>
        <time>2022-08-15T09:25:59Z</time>
      </trkpt>
      <trkpt lat="47.01442" lon="-1.7265">
        <ele>71</ele>
        <time>2022-08-15T09:26:01Z</time>
      </trkpt>
      <trkpt lat="47.01449" lon="-1.72635">
        <ele>71</ele>
        <time>2022-08-15T09:26:03Z</time>
      </trkpt>
      <trkpt lat="47.01455" lon="-1.7262">
        <ele>72</ele>
        <time>2022-08-15T09:26:05Z</time>
      </trkpt>
      <trkpt lat="47.01461" lon="-1.72606">
        <ele>72</ele>
        <time>2022-08-15T09:26:07Z</time>
      </trkpt>
      <trkpt lat="47.01467" lon="-1.72591">
        <ele>72</ele>
        <time>2022-08-15T09:26:09Z</time>
      </trkpt>
      <trkpt lat="47.01473" lon="-1.72578">
        <ele>72</ele>
        <time>2022-08-15T09:26:11Z</time>
      </trkpt>
      <trkpt lat="47.01478" lon="-1.72564">
        <ele>72</ele>
        <time>2022-08-15T09:26:13Z</time>
      </trkpt>
      <trkpt lat="47.01485" lon="-1.72551">
        <ele>73</ele>
        <time>2022-08-15T09:26:15Z</time>
      </trkpt>
      <trkpt lat="47.01491" lon="-1.72536">
        <ele>74</ele>
        <time>2022-08-15T09:26:17Z</time>
      </trkpt>
      <trkpt lat="47.01498" lon="-1.72519">
        <ele>73</ele>
        <time>2022-08-15T09:26:19Z</time>
      </trkpt>
      <trkpt lat="47.01504" lon="-1.72504">
        <ele>73</ele>
        <time>2022-08-15T09:26:21Z</time>
      </trkpt>
      <trkpt lat="47.01511" lon="-1.7249">
        <ele>73</ele>
        <time>2022-08-15T09:26:23Z</time>
      </trkpt>
      <trkpt lat="47.01518" lon="-1.72474">
        <ele>74</ele>
        <time>2022-08-15T09:26:25Z</time>
      </trkpt>
      <trkpt lat="47.01524" lon="-1.72458">
        <ele>74</ele>
        <time>2022-08-15T09:26:27Z</time>
      </trkpt>
      <trkpt lat="47.01531" lon="-1.72443">
        <ele>75</ele>
        <time>2022-08-15T09:26:29Z</time>
      </trkpt>
      <trkpt lat="47.01538" lon="-1.72428">
        <ele>75</ele>
        <time>2022-08-15T09:26:31Z</time>
      </trkpt>
      <trkpt lat="47.01544" lon="-1.72412">
        <ele>76</ele>
        <time>2022-08-15T09:26:33Z</time>
      </trkpt>
      <trkpt lat="47.0155" lon="-1.72397">
        <ele>76</ele>
        <time>2022-08-15T09:26:35Z</time>
      </trkpt>
      <trkpt lat="47.01557" lon="-1.72382">
        <ele>77</ele>
        <time>2022-08-15T09:26:37Z</time>
      </trkpt>
      <trkpt lat="47.01563" lon="-1.72369">
        <ele>77</ele>
        <time>2022-08-15T09:26:39Z</time>
      </trkpt>
      <trkpt lat="47.01569" lon="-1.72353">
        <ele>77</ele>
        <time>2022-08-15T09:26:41Z</time>
      </trkpt>
      <trkpt lat="47.01577" lon="-1.72339">
        <ele>77</ele>
        <time>2022-08-15T09:26:43Z</time>
      </trkpt>
      <trkpt lat="47.01583" lon="-1.72323">
        <ele>77</ele>
        <time>2022-08-15T09:26:45Z</time>
      </trkpt>
      <trkpt lat="47.0159" lon="-1.72307">
        <ele>77</ele>
        <time>2022-08-15T09:26:47Z</time>
      </trkpt>
      <trkpt lat="47.01598" lon="-1.72291">
        <ele>76</ele>
        <time>2022-08-15T09:26:49Z</time>
      </trkpt>
      <trkpt lat="47.01604" lon="-1.72274">
        <ele>77</ele>
        <time>2022-08-15T09:26:51Z</time>
      </trkpt>
      <trkpt lat="47.0161" lon="-1.72258">
        <ele>77</ele>
        <time>2022-08-15T09:26:53Z</time>
      </trkpt>
      <trkpt lat="47.01616" lon="-1.72243">
        <ele>77</ele>
        <time>2022-08-15T09:26:55Z</time>
      </trkpt>
      <trkpt lat="47.01622" lon="-1.72227">
        <ele>76</ele>
        <time>2022-08-15T09:26:57Z</time>
      </trkpt>
      <trkpt lat="47.01627" lon="-1.72212">
        <ele>77</ele>
        <time>2022-08-15T09:26:59Z</time>
      </trkpt>
      <trkpt lat="47.01632" lon="-1.72196">
        <ele>77</ele>
        <time>2022-08-15T09:27:01Z</time>
      </trkpt>
      <trkpt lat="47.01638" lon="-1.72181">
        <ele>77</ele>
        <time>2022-08-15T09:27:03Z</time>
      </trkpt>
      <trkpt lat="47.01643" lon="-1.72165">
        <ele>77</ele>
        <time>2022-08-15T09:27:05Z</time>
      </trkpt>
      <trkpt lat="47.01648" lon="-1.72149">
        <ele>77</ele>
        <time>2022-08-15T09:27:07Z</time>
      </trkpt>
      <trkpt lat="47.01654" lon="-1.72132">
        <ele>77</ele>
        <time>2022-08-15T09:27:09Z</time>
      </trkpt>
      <trkpt lat="47.0166" lon="-1.72116">
        <ele>77</ele>
        <time>2022-08-15T09:27:11Z</time>
      </trkpt>
      <trkpt lat="47.01665" lon="-1.721">
        <ele>77</ele>
        <time>2022-08-15T09:27:13Z</time>
      </trkpt>
      <trkpt lat="47.0167" lon="-1.72084">
        <ele>77</ele>
        <time>2022-08-15T09:27:15Z</time>
      </trkpt>
      <trkpt lat="47.01676" lon="-1.72067">
        <ele>77</ele>
        <time>2022-08-15T09:27:17Z</time>
      </trkpt>
      <trkpt lat="47.01681" lon="-1.72051">
        <ele>77</ele>
        <time>2022-08-15T09:27:19Z</time>
      </trkpt>
      <trkpt lat="47.01687" lon="-1.72035">
        <ele>77</ele>
        <time>2022-08-15T09:27:21Z</time>
      </trkpt>
      <trkpt lat="47.01692" lon="-1.7202">
        <ele>78</ele>
        <time>2022-08-15T09:27:23Z</time>
      </trkpt>
      <trkpt lat="47.01697" lon="-1.72004">
        <ele>78</ele>
        <time>2022-08-15T09:27:25Z</time>
      </trkpt>
      <trkpt lat="47.01703" lon="-1.7199">
        <ele>78</ele>
        <time>2022-08-15T09:27:27Z</time>
      </trkpt>
      <trkpt lat="47.01708" lon="-1.71975">
        <ele>78</ele>
        <time>2022-08-15T09:27:29Z</time>
      </trkpt>
      <trkpt lat="47.01713" lon="-1.7196">
        <ele>78</ele>
        <time>2022-08-15T09:27:31Z</time>
      </trkpt>
      <trkpt lat="47.01719" lon="-1.71945">
        <ele>79</ele>
        <time>2022-08-15T09:27:33Z</time>
      </trkpt>
      <trkpt lat="47.01723" lon="-1.71929">
        <ele>78</ele>
        <time>2022-08-15T09:27:35Z</time>
      </trkpt>
      <trkpt lat="47.01729" lon="-1.71913">
        <ele>78</ele>
        <time>2022-08-15T09:27:37Z</time>
      </trkpt>
      <trkpt lat="47.01734" lon="-1.71897">
        <ele>78</ele>
        <time>2022-08-15T09:27:39Z</time>
      </trkpt>
      <trkpt lat="47.01739" lon="-1.71881">
        <ele>79</ele>
        <time>2022-08-15T09:27:41Z</time>
      </trkpt>
      <trkpt lat="47.01744" lon="-1.71866">
        <ele>79</ele>
        <time>2022-08-15T09:27:43Z</time>
      </trkpt>
      <trkpt lat="47.01748" lon="-1.7185">
        <ele>80</ele>
        <time>2022-08-15T09:27:45Z</time>
      </trkpt>
      <trkpt lat="47.01754" lon="-1.71834">
        <ele>80</ele>
        <time>2022-08-15T09:27:47Z</time>
      </trkpt>
      <trkpt lat="47.0176" lon="-1.71819">
        <ele>80</ele>
        <time>2022-08-15T09:27:49Z</time>
      </trkpt>
      <trkpt lat="47.01765" lon="-1.71803">
        <ele>80</ele>
        <time>2022-08-15T09:27:51Z</time>
      </trkpt>
      <trkpt lat="47.0177" lon="-1.71787">
        <ele>81</ele>
        <time>2022-08-15T09:27:53Z</time>
      </trkpt>
      <trkpt lat="47.01775" lon="-1.71772">
        <ele>81</ele>
        <time>2022-08-15T09:27:55Z</time>
      </trkpt>
      <trkpt lat="47.01781" lon="-1.71755">
        <ele>81</ele>
        <time>2022-08-15T09:27:57Z</time>
      </trkpt>
      <trkpt lat="47.01785" lon="-1.7174">
        <ele>82</ele>
        <time>2022-08-15T09:27:59Z</time>
      </trkpt>
      <trkpt lat="47.0179" lon="-1.71724">
        <ele>82</ele>
        <time>2022-08-15T09:28:01Z</time>
      </trkpt>
      <trkpt lat="47.01796" lon="-1.71707">
        <ele>82</ele>
        <time>2022-08-15T09:28:03Z</time>
      </trkpt>
      <trkpt lat="47.01801" lon="-1.7169">
        <ele>81</ele>
        <time>2022-08-15T09:28:05Z</time>
      </trkpt>
      <trkpt lat="47.01807" lon="-1.71674">
        <ele>81</ele>
        <time>2022-08-15T09:28:07Z</time>
      </trkpt>
      <trkpt lat="47.01813" lon="-1.71656">
        <ele>81</ele>
        <time>2022-08-15T09:28:09Z</time>
      </trkpt>
      <trkpt lat="47.0182" lon="-1.7164">
        <ele>80</ele>
        <time>2022-08-15T09:28:11Z</time>
      </trkpt>
      <trkpt lat="47.01826" lon="-1.71624">
        <ele>80</ele>
        <time>2022-08-15T09:28:13Z</time>
      </trkpt>
      <trkpt lat="47.01833" lon="-1.71608">
        <ele>79</ele>
        <time>2022-08-15T09:28:15Z</time>
      </trkpt>
      <trkpt lat="47.01841" lon="-1.71593">
        <ele>80</ele>
        <time>2022-08-15T09:28:17Z</time>
      </trkpt>
      <trkpt lat="47.01849" lon="-1.7158">
        <ele>79</ele>
        <time>2022-08-15T09:28:19Z</time>
      </trkpt>
      <trkpt lat="47.01858" lon="-1.71565">
        <ele>78</ele>
        <time>2022-08-15T09:28:21Z</time>
      </trkpt>
      <trkpt lat="47.01867" lon="-1.71551">
        <ele>78</ele>
        <time>2022-08-15T09:28:23Z</time>
      </trkpt>
      <trkpt lat="47.01876" lon="-1.71536">
        <ele>77</ele>
        <time>2022-08-15T09:28:25Z</time>
      </trkpt>
      <trkpt lat="47.01886" lon="-1.71521">
        <ele>77</ele>
        <time>2022-08-15T09:28:27Z</time>
      </trkpt>
      <trkpt lat="47.01895" lon="-1.71507">
        <ele>77</ele>
        <time>2022-08-15T09:28:29Z</time>
      </trkpt>
      <trkpt lat="47.01905" lon="-1.71492">
        <ele>77</ele>
        <time>2022-08-15T09:28:31Z</time>
      </trkpt>
      <trkpt lat="47.01915" lon="-1.71478">
        <ele>76</ele>
        <time>2022-08-15T09:28:33Z</time>
      </trkpt>
      <trkpt lat="47.01924" lon="-1.71463">
        <ele>76</ele>
        <time>2022-08-15T09:28:35Z</time>
      </trkpt>
      <trkpt lat="47.01933" lon="-1.71449">
        <ele>75</ele>
        <time>2022-08-15T09:28:37Z</time>
      </trkpt>
      <trkpt lat="47.01942" lon="-1.71435">
        <ele>75</ele>
        <time>2022-08-15T09:28:39Z</time>
      </trkpt>
      <trkpt lat="47.01952" lon="-1.71421">
        <ele>75</ele>
        <time>2022-08-15T09:28:41Z</time>
      </trkpt>
      <trkpt lat="47.01962" lon="-1.71407">
        <ele>74</ele>
        <time>2022-08-15T09:28:43Z</time>
      </trkpt>
      <trkpt lat="47.01971" lon="-1.71393">
        <ele>74</ele>
        <time>2022-08-15T09:28:45Z</time>
      </trkpt>
      <trkpt lat="47.01981" lon="-1.71381">
        <ele>74</ele>
        <time>2022-08-15T09:28:47Z</time>
      </trkpt>
      <trkpt lat="47.01991" lon="-1.71367">
        <ele>74</ele>
        <time>2022-08-15T09:28:49Z</time>
      </trkpt>
      <trkpt lat="47.02001" lon="-1.71355">
        <ele>74</ele>
        <time>2022-08-15T09:28:51Z</time>
      </trkpt>
      <trkpt lat="47.02011" lon="-1.71343">
        <ele>74</ele>
        <time>2022-08-15T09:28:53Z</time>
      </trkpt>
      <trkpt lat="47.02022" lon="-1.71332">
        <ele>75</ele>
        <time>2022-08-15T09:28:55Z</time>
      </trkpt>
      <trkpt lat="47.02033" lon="-1.71319">
        <ele>75</ele>
        <time>2022-08-15T09:28:57Z</time>
      </trkpt>
      <trkpt lat="47.02043" lon="-1.71305">
        <ele>75</ele>
        <time>2022-08-15T09:28:59Z</time>
      </trkpt>
      <trkpt lat="47.02051" lon="-1.7129">
        <ele>75</ele>
        <time>2022-08-15T09:29:01Z</time>
      </trkpt>
      <trkpt lat="47.0206" lon="-1.71273">
        <ele>74</ele>
        <time>2022-08-15T09:29:03Z</time>
      </trkpt>
      <trkpt lat="47.02069" lon="-1.71256">
        <ele>74</ele>
        <time>2022-08-15T09:29:05Z</time>
      </trkpt>
      <trkpt lat="47.02077" lon="-1.71239">
        <ele>74</ele>
        <time>2022-08-15T09:29:07Z</time>
      </trkpt>
      <trkpt lat="47.02085" lon="-1.71222">
        <ele>74</ele>
        <time>2022-08-15T09:29:09Z</time>
      </trkpt>
      <trkpt lat="47.02092" lon="-1.71205">
        <ele>73</ele>
        <time>2022-08-15T09:29:11Z</time>
      </trkpt>
      <trkpt lat="47.021" lon="-1.71188">
        <ele>74</ele>
        <time>2022-08-15T09:29:13Z</time>
      </trkpt>
      <trkpt lat="47.02106" lon="-1.7117">
        <ele>74</ele>
        <time>2022-08-15T09:29:15Z</time>
      </trkpt>
      <trkpt lat="47.02112" lon="-1.71152">
        <ele>74</ele>
        <time>2022-08-15T09:29:17Z</time>
      </trkpt>
      <trkpt lat="47.02117" lon="-1.71135">
        <ele>74</ele>
        <time>2022-08-15T09:29:19Z</time>
      </trkpt>
      <trkpt lat="47.02122" lon="-1.71118">
        <ele>75</ele>
        <time>2022-08-15T09:29:21Z</time>
      </trkpt>
      <trkpt lat="47.02129" lon="-1.71103">
        <ele>74</ele>
        <time>2022-08-15T09:29:23Z</time>
      </trkpt>
      <trkpt lat="47.02136" lon="-1.71085">
        <ele>74</ele>
        <time>2022-08-15T09:29:25Z</time>
      </trkpt>
      <trkpt lat="47.02144" lon="-1.71069">
        <ele>73</ele>
        <time>2022-08-15T09:29:27Z</time>
      </trkpt>
      <trkpt lat="47.02153" lon="-1.71053">
        <ele>74</ele>
        <time>2022-08-15T09:29:29Z</time>
      </trkpt>
      <trkpt lat="47.02161" lon="-1.71037">
        <ele>73</ele>
        <time>2022-08-15T09:29:31Z</time>
      </trkpt>
      <trkpt lat="47.0217" lon="-1.71021">
        <ele>72</ele>
        <time>2022-08-15T09:29:33Z</time>
      </trkpt>
      <trkpt lat="47.02178" lon="-1.71004">
        <ele>72</ele>
        <time>2022-08-15T09:29:35Z</time>
      </trkpt>
      <trkpt lat="47.02187" lon="-1.70987">
        <ele>72</ele>
        <time>2022-08-15T09:29:37Z</time>
      </trkpt>
      <trkpt lat="47.02196" lon="-1.70971">
        <ele>72</ele>
        <time>2022-08-15T09:29:39Z</time>
      </trkpt>
      <trkpt lat="47.02204" lon="-1.70955">
        <ele>72</ele>
        <time>2022-08-15T09:29:41Z</time>
      </trkpt>
      <trkpt lat="47.02213" lon="-1.70939">
        <ele>72</ele>
        <time>2022-08-15T09:29:43Z</time>
      </trkpt>
      <trkpt lat="47.02222" lon="-1.70923">
        <ele>72</ele>
        <time>2022-08-15T09:29:45Z</time>
      </trkpt>
      <trkpt lat="47.02232" lon="-1.70908">
        <ele>72</ele>
        <time>2022-08-15T09:29:47Z</time>
      </trkpt>
      <trkpt lat="47.02242" lon="-1.70892">
        <ele>72</ele>
        <time>2022-08-15T09:29:49Z</time>
      </trkpt>
      <trkpt lat="47.02252" lon="-1.70877">
        <ele>72</ele>
        <time>2022-08-15T09:29:51Z</time>
      </trkpt>
      <trkpt lat="47.02262" lon="-1.70861">
        <ele>72</ele>
        <time>2022-08-15T09:29:53Z</time>
      </trkpt>
      <trkpt lat="47.02272" lon="-1.70845">
        <ele>72</ele>
        <time>2022-08-15T09:29:55Z</time>
      </trkpt>
      <trkpt lat="47.02282" lon="-1.7083">
        <ele>72</ele>
        <time>2022-08-15T09:29:57Z</time>
      </trkpt>
      <trkpt lat="47.02294" lon="-1.70813">
        <ele>71</ele>
        <time>2022-08-15T09:29:59Z</time>
      </trkpt>
      <trkpt lat="47.02305" lon="-1.70798">
        <ele>71</ele>
        <time>2022-08-15T09:30:01Z</time>
      </trkpt>
      <trkpt lat="47.02315" lon="-1.70783">
        <ele>71</ele>
        <time>2022-08-15T09:30:03Z</time>
      </trkpt>
      <trkpt lat="47.02325" lon="-1.70768">
        <ele>71</ele>
        <time>2022-08-15T09:30:05Z</time>
      </trkpt>
      <trkpt lat="47.02335" lon="-1.70752">
        <ele>71</ele>
        <time>2022-08-15T09:30:07Z</time>
      </trkpt>
      <trkpt lat="47.02344" lon="-1.70738">
        <ele>71</ele>
        <time>2022-08-15T09:30:09Z</time>
      </trkpt>
      <trkpt lat="47.02354" lon="-1.70723">
        <ele>71</ele>
        <time>2022-08-15T09:30:11Z</time>
      </trkpt>
      <trkpt lat="47.02364" lon="-1.70709">
        <ele>71</ele>
        <time>2022-08-15T09:30:13Z</time>
      </trkpt>
      <trkpt lat="47.02373" lon="-1.70694">
        <ele>71</ele>
        <time>2022-08-15T09:30:15Z</time>
      </trkpt>
      <trkpt lat="47.02382" lon="-1.7068">
        <ele>71</ele>
        <time>2022-08-15T09:30:17Z</time>
      </trkpt>
      <trkpt lat="47.02391" lon="-1.70664">
        <ele>72</ele>
        <time>2022-08-15T09:30:19Z</time>
      </trkpt>
      <trkpt lat="47.02399" lon="-1.70649">
        <ele>72</ele>
        <time>2022-08-15T09:30:21Z</time>
      </trkpt>
      <trkpt lat="47.02408" lon="-1.70635">
        <ele>73</ele>
        <time>2022-08-15T09:30:23Z</time>
      </trkpt>
      <trkpt lat="47.02416" lon="-1.70621">
        <ele>74</ele>
        <time>2022-08-15T09:30:25Z</time>
      </trkpt>
      <trkpt lat="47.02425" lon="-1.70606">
        <ele>76</ele>
        <time>2022-08-15T09:30:27Z</time>
      </trkpt>
      <trkpt lat="47.02434" lon="-1.70592">
        <ele>76</ele>
        <time>2022-08-15T09:30:29Z</time>
      </trkpt>
      <trkpt lat="47.02443" lon="-1.70577">
        <ele>76</ele>
        <time>2022-08-15T09:30:31Z</time>
      </trkpt>
      <trkpt lat="47.02454" lon="-1.70563">
        <ele>76</ele>
        <time>2022-08-15T09:30:33Z</time>
      </trkpt>
      <trkpt lat="47.02465" lon="-1.70551">
        <ele>76</ele>
        <time>2022-08-15T09:30:35Z</time>
      </trkpt>
      <trkpt lat="47.02476" lon="-1.70539">
        <ele>76</ele>
        <time>2022-08-15T09:30:37Z</time>
      </trkpt>
      <trkpt lat="47.02487" lon="-1.70529">
        <ele>76</ele>
        <time>2022-08-15T09:30:39Z</time>
      </trkpt>
      <trkpt lat="47.02498" lon="-1.70518">
        <ele>76</ele>
        <time>2022-08-15T09:30:41Z</time>
      </trkpt>
      <trkpt lat="47.0251" lon="-1.70509">
        <ele>75</ele>
        <time>2022-08-15T09:30:43Z</time>
      </trkpt>
      <trkpt lat="47.02522" lon="-1.70498">
        <ele>75</ele>
        <time>2022-08-15T09:30:45Z</time>
      </trkpt>
      <trkpt lat="47.02535" lon="-1.70486">
        <ele>75</ele>
        <time>2022-08-15T09:30:47Z</time>
      </trkpt>
      <trkpt lat="47.02547" lon="-1.70476">
        <ele>76</ele>
        <time>2022-08-15T09:30:49Z</time>
      </trkpt>
      <trkpt lat="47.02559" lon="-1.70466">
        <ele>76</ele>
        <time>2022-08-15T09:30:51Z</time>
      </trkpt>
      <trkpt lat="47.02572" lon="-1.70456">
        <ele>76</ele>
        <time>2022-08-15T09:30:53Z</time>
      </trkpt>
      <trkpt lat="47.02584" lon="-1.70446">
        <ele>75</ele>
        <time>2022-08-15T09:30:55Z</time>
      </trkpt>
      <trkpt lat="47.02597" lon="-1.70435">
        <ele>74</ele>
        <time>2022-08-15T09:30:57Z</time>
      </trkpt>
      <trkpt lat="47.02609" lon="-1.70422">
        <ele>73</ele>
        <time>2022-08-15T09:30:59Z</time>
      </trkpt>
      <trkpt lat="47.02621" lon="-1.7041">
        <ele>72</ele>
        <time>2022-08-15T09:31:01Z</time>
      </trkpt>
      <trkpt lat="47.02632" lon="-1.70399">
        <ele>72</ele>
        <time>2022-08-15T09:31:03Z</time>
      </trkpt>
      <trkpt lat="47.02643" lon="-1.70386">
        <ele>72</ele>
        <time>2022-08-15T09:31:05Z</time>
      </trkpt>
      <trkpt lat="47.02653" lon="-1.70373">
        <ele>72</ele>
        <time>2022-08-15T09:31:07Z</time>
      </trkpt>
      <trkpt lat="47.02662" lon="-1.7036">
        <ele>72</ele>
        <time>2022-08-15T09:31:09Z</time>
      </trkpt>
      <trkpt lat="47.02668" lon="-1.70345">
        <ele>71</ele>
        <time>2022-08-15T09:31:11Z</time>
      </trkpt>
      <trkpt lat="47.0266" lon="-1.70329">
        <ele>72</ele>
        <time>2022-08-15T09:31:13Z</time>
      </trkpt>
      <trkpt lat="47.02648" lon="-1.70321">
        <ele>72</ele>
        <time>2022-08-15T09:31:15Z</time>
      </trkpt>
      <trkpt lat="47.02634" lon="-1.70313">
        <ele>72</ele>
        <time>2022-08-15T09:31:17Z</time>
      </trkpt>
      <trkpt lat="47.02622" lon="-1.70305">
        <ele>72</ele>
        <time>2022-08-15T09:31:19Z</time>
      </trkpt>
      <trkpt lat="47.02609" lon="-1.70297">
        <ele>72</ele>
        <time>2022-08-15T09:31:21Z</time>
      </trkpt>
      <trkpt lat="47.02595" lon="-1.70291">
        <ele>72</ele>
        <time>2022-08-15T09:31:23Z</time>
      </trkpt>
      <trkpt lat="47.02582" lon="-1.70286">
        <ele>72</ele>
        <time>2022-08-15T09:31:25Z</time>
      </trkpt>
      <trkpt lat="47.02568" lon="-1.70282">
        <ele>72</ele>
        <time>2022-08-15T09:31:27Z</time>
      </trkpt>
      <trkpt lat="47.02553" lon="-1.7028">
        <ele>73</ele>
        <time>2022-08-15T09:31:29Z</time>
      </trkpt>
      <trkpt lat="47.0254" lon="-1.70278">
        <ele>73</ele>
        <time>2022-08-15T09:31:31Z</time>
      </trkpt>
      <trkpt lat="47.02527" lon="-1.70274">
        <ele>74</ele>
        <time>2022-08-15T09:31:33Z</time>
      </trkpt>
      <trkpt lat="47.02515" lon="-1.70266">
        <ele>74</ele>
        <time>2022-08-15T09:31:35Z</time>
      </trkpt>
      <trkpt lat="47.02505" lon="-1.70252">
        <ele>74</ele>
        <time>2022-08-15T09:31:37Z</time>
      </trkpt>
      <trkpt lat="47.02496" lon="-1.70237">
        <ele>73</ele>
        <time>2022-08-15T09:31:39Z</time>
      </trkpt>
      <trkpt lat="47.02488" lon="-1.70221">
        <ele>73</ele>
        <time>2022-08-15T09:31:41Z</time>
      </trkpt>
      <trkpt lat="47.02479" lon="-1.70204">
        <ele>73</ele>
        <time>2022-08-15T09:31:43Z</time>
      </trkpt>
      <trkpt lat="47.02471" lon="-1.70187">
        <ele>73</ele>
        <time>2022-08-15T09:31:45Z</time>
      </trkpt>
      <trkpt lat="47.02463" lon="-1.70171">
        <ele>73</ele>
        <time>2022-08-15T09:31:47Z</time>
      </trkpt>
      <trkpt lat="47.02455" lon="-1.70154">
        <ele>73</ele>
        <time>2022-08-15T09:31:49Z</time>
      </trkpt>
      <trkpt lat="47.02447" lon="-1.70138">
        <ele>73</ele>
        <time>2022-08-15T09:31:51Z</time>
      </trkpt>
      <trkpt lat="47.02441" lon="-1.7012">
        <ele>74</ele>
        <time>2022-08-15T09:31:53Z</time>
      </trkpt>
      <trkpt lat="47.02436" lon="-1.70101">
        <ele>74</ele>
        <time>2022-08-15T09:31:55Z</time>
      </trkpt>
      <trkpt lat="47.02433" lon="-1.7008">
        <ele>74</ele>
        <time>2022-08-15T09:31:57Z</time>
      </trkpt>
      <trkpt lat="47.02431" lon="-1.7006">
        <ele>74</ele>
        <time>2022-08-15T09:31:59Z</time>
      </trkpt>
      <trkpt lat="47.02429" lon="-1.7004">
        <ele>74</ele>
        <time>2022-08-15T09:32:01Z</time>
      </trkpt>
      <trkpt lat="47.02427" lon="-1.7002">
        <ele>74</ele>
        <time>2022-08-15T09:32:03Z</time>
      </trkpt>
      <trkpt lat="47.02425" lon="-1.70001">
        <ele>74</ele>
        <time>2022-08-15T09:32:05Z</time>
      </trkpt>
      <trkpt lat="47.02423" lon="-1.69981">
        <ele>75</ele>
        <time>2022-08-15T09:32:07Z</time>
      </trkpt>
      <trkpt lat="47.02421" lon="-1.69962">
        <ele>75</ele>
        <time>2022-08-15T09:32:09Z</time>
      </trkpt>
      <trkpt lat="47.02418" lon="-1.69942">
        <ele>75</ele>
        <time>2022-08-15T09:32:11Z</time>
      </trkpt>
      <trkpt lat="47.02416" lon="-1.69923">
        <ele>76</ele>
        <time>2022-08-15T09:32:13Z</time>
      </trkpt>
      <trkpt lat="47.02414" lon="-1.69904">
        <ele>76</ele>
        <time>2022-08-15T09:32:15Z</time>
      </trkpt>
      <trkpt lat="47.02411" lon="-1.69885">
        <ele>76</ele>
        <time>2022-08-15T09:32:17Z</time>
      </trkpt>
      <trkpt lat="47.02406" lon="-1.69867">
        <ele>77</ele>
        <time>2022-08-15T09:32:19Z</time>
      </trkpt>
      <trkpt lat="47.02401" lon="-1.6985">
        <ele>77</ele>
        <time>2022-08-15T09:32:21Z</time>
      </trkpt>
      <trkpt lat="47.02395" lon="-1.69835">
        <ele>77</ele>
        <time>2022-08-15T09:32:23Z</time>
      </trkpt>
      <trkpt lat="47.02388" lon="-1.69819">
        <ele>78</ele>
        <time>2022-08-15T09:32:25Z</time>
      </trkpt>
      <trkpt lat="47.02381" lon="-1.69804">
        <ele>78</ele>
        <time>2022-08-15T09:32:27Z</time>
      </trkpt>
      <trkpt lat="47.02372" lon="-1.69791">
        <ele>78</ele>
        <time>2022-08-15T09:32:29Z</time>
      </trkpt>
      <trkpt lat="47.02364" lon="-1.69775">
        <ele>78</ele>
        <time>2022-08-15T09:32:31Z</time>
      </trkpt>
      <trkpt lat="47.02356" lon="-1.6976">
        <ele>78</ele>
        <time>2022-08-15T09:32:33Z</time>
      </trkpt>
      <trkpt lat="47.02349" lon="-1.69746">
        <ele>78</ele>
        <time>2022-08-15T09:32:35Z</time>
      </trkpt>
      <trkpt lat="47.0234" lon="-1.69731">
        <ele>78</ele>
        <time>2022-08-15T09:32:37Z</time>
      </trkpt>
      <trkpt lat="47.02332" lon="-1.69717">
        <ele>78</ele>
        <time>2022-08-15T09:32:39Z</time>
      </trkpt>
      <trkpt lat="47.02324" lon="-1.69703">
        <ele>78</ele>
        <time>2022-08-15T09:32:41Z</time>
      </trkpt>
      <trkpt lat="47.02317" lon="-1.69689">
        <ele>78</ele>
        <time>2022-08-15T09:32:43Z</time>
      </trkpt>
      <trkpt lat="47.02308" lon="-1.69675">
        <ele>78</ele>
        <time>2022-08-15T09:32:45Z</time>
      </trkpt>
      <trkpt lat="47.023" lon="-1.69661">
        <ele>78</ele>
        <time>2022-08-15T09:32:47Z</time>
      </trkpt>
      <trkpt lat="47.02293" lon="-1.69646">
        <ele>78</ele>
        <time>2022-08-15T09:32:49Z</time>
      </trkpt>
      <trkpt lat="47.02285" lon="-1.69633">
        <ele>78</ele>
        <time>2022-08-15T09:32:51Z</time>
      </trkpt>
      <trkpt lat="47.02277" lon="-1.69619">
        <ele>78</ele>
        <time>2022-08-15T09:32:53Z</time>
      </trkpt>
      <trkpt lat="47.02269" lon="-1.69604">
        <ele>78</ele>
        <time>2022-08-15T09:32:55Z</time>
      </trkpt>
      <trkpt lat="47.02263" lon="-1.69589">
        <ele>77</ele>
        <time>2022-08-15T09:32:57Z</time>
      </trkpt>
      <trkpt lat="47.02256" lon="-1.69573">
        <ele>77</ele>
        <time>2022-08-15T09:32:59Z</time>
      </trkpt>
      <trkpt lat="47.0225" lon="-1.69557">
        <ele>78</ele>
        <time>2022-08-15T09:33:01Z</time>
      </trkpt>
      <trkpt lat="47.02244" lon="-1.6954">
        <ele>78</ele>
        <time>2022-08-15T09:33:03Z</time>
      </trkpt>
      <trkpt lat="47.02239" lon="-1.69522">
        <ele>78</ele>
        <time>2022-08-15T09:33:05Z</time>
      </trkpt>
      <trkpt lat="47.02234" lon="-1.69504">
        <ele>78</ele>
        <time>2022-08-15T09:33:07Z</time>
      </trkpt>
      <trkpt lat="47.0223" lon="-1.69486">
        <ele>79</ele>
        <time>2022-08-15T09:33:09Z</time>
      </trkpt>
      <trkpt lat="47.02226" lon="-1.69469">
        <ele>79</ele>
        <time>2022-08-15T09:33:11Z</time>
      </trkpt>
      <trkpt lat="47.02223" lon="-1.69451">
        <ele>79</ele>
        <time>2022-08-15T09:33:13Z</time>
      </trkpt>
      <trkpt lat="47.0222" lon="-1.69433">
        <ele>79</ele>
        <time>2022-08-15T09:33:15Z</time>
      </trkpt>
      <trkpt lat="47.02218" lon="-1.69414">
        <ele>79</ele>
        <time>2022-08-15T09:33:17Z</time>
      </trkpt>
      <trkpt lat="47.02215" lon="-1.69395">
        <ele>79</ele>
        <time>2022-08-15T09:33:19Z</time>
      </trkpt>
      <trkpt lat="47.02213" lon="-1.69377">
        <ele>79</ele>
        <time>2022-08-15T09:33:21Z</time>
      </trkpt>
      <trkpt lat="47.02212" lon="-1.69356">
        <ele>78</ele>
        <time>2022-08-15T09:33:23Z</time>
      </trkpt>
      <trkpt lat="47.02213" lon="-1.69336">
        <ele>78</ele>
        <time>2022-08-15T09:33:25Z</time>
      </trkpt>
      <trkpt lat="47.02216" lon="-1.69317">
        <ele>78</ele>
        <time>2022-08-15T09:33:27Z</time>
      </trkpt>
      <trkpt lat="47.02219" lon="-1.69298">
        <ele>78</ele>
        <time>2022-08-15T09:33:29Z</time>
      </trkpt>
      <trkpt lat="47.02223" lon="-1.69278">
        <ele>78</ele>
        <time>2022-08-15T09:33:31Z</time>
      </trkpt>
      <trkpt lat="47.02225" lon="-1.69259">
        <ele>77</ele>
        <time>2022-08-15T09:33:33Z</time>
      </trkpt>
      <trkpt lat="47.02226" lon="-1.6924">
        <ele>77</ele>
        <time>2022-08-15T09:33:35Z</time>
      </trkpt>
      <trkpt lat="47.02225" lon="-1.69219">
        <ele>77</ele>
        <time>2022-08-15T09:33:37Z</time>
      </trkpt>
      <trkpt lat="47.02222" lon="-1.692">
        <ele>77</ele>
        <time>2022-08-15T09:33:39Z</time>
      </trkpt>
      <trkpt lat="47.02219" lon="-1.69181">
        <ele>77</ele>
        <time>2022-08-15T09:33:41Z</time>
      </trkpt>
      <trkpt lat="47.02214" lon="-1.69163">
        <ele>77</ele>
        <time>2022-08-15T09:33:43Z</time>
      </trkpt>
      <trkpt lat="47.0221" lon="-1.69145">
        <ele>78</ele>
        <time>2022-08-15T09:33:45Z</time>
      </trkpt>
      <trkpt lat="47.02206" lon="-1.69127">
        <ele>78</ele>
        <time>2022-08-15T09:33:47Z</time>
      </trkpt>
      <trkpt lat="47.02201" lon="-1.6911">
        <ele>79</ele>
        <time>2022-08-15T09:33:49Z</time>
      </trkpt>
      <trkpt lat="47.02195" lon="-1.69093">
        <ele>79</ele>
        <time>2022-08-15T09:33:51Z</time>
      </trkpt>
      <trkpt lat="47.02191" lon="-1.69075">
        <ele>79</ele>
        <time>2022-08-15T09:33:53Z</time>
      </trkpt>
      <trkpt lat="47.02188" lon="-1.69057">
        <ele>79</ele>
        <time>2022-08-15T09:33:55Z</time>
      </trkpt>
      <trkpt lat="47.02186" lon="-1.69038">
        <ele>80</ele>
        <time>2022-08-15T09:33:57Z</time>
      </trkpt>
      <trkpt lat="47.02186" lon="-1.69019">
        <ele>80</ele>
        <time>2022-08-15T09:33:59Z</time>
      </trkpt>
      <trkpt lat="47.02186" lon="-1.69001">
        <ele>80</ele>
        <time>2022-08-15T09:34:01Z</time>
      </trkpt>
      <trkpt lat="47.02186" lon="-1.68983">
        <ele>80</ele>
        <time>2022-08-15T09:34:03Z</time>
      </trkpt>
      <trkpt lat="47.02187" lon="-1.68964">
        <ele>80</ele>
        <time>2022-08-15T09:34:05Z</time>
      </trkpt>
      <trkpt lat="47.02187" lon="-1.68945">
        <ele>80</ele>
        <time>2022-08-15T09:34:07Z</time>
      </trkpt>
      <trkpt lat="47.02188" lon="-1.68927">
        <ele>80</ele>
        <time>2022-08-15T09:34:09Z</time>
      </trkpt>
      <trkpt lat="47.02189" lon="-1.68908">
        <ele>80</ele>
        <time>2022-08-15T09:34:11Z</time>
      </trkpt>
      <trkpt lat="47.0219" lon="-1.68889">
        <ele>80</ele>
        <time>2022-08-15T09:34:13Z</time>
      </trkpt>
      <trkpt lat="47.02192" lon="-1.6887">
        <ele>80</ele>
        <time>2022-08-15T09:34:15Z</time>
      </trkpt>
      <trkpt lat="47.02194" lon="-1.68851">
        <ele>79</ele>
        <time>2022-08-15T09:34:17Z</time>
      </trkpt>
      <trkpt lat="47.02196" lon="-1.68834">
        <ele>80</ele>
        <time>2022-08-15T09:34:19Z</time>
      </trkpt>
      <trkpt lat="47.02197" lon="-1.68819">
        <ele>80</ele>
        <time>2022-08-15T09:34:21Z</time>
      </trkpt>
      <trkpt lat="47.02195" lon="-1.68801">
        <ele>80</ele>
        <time>2022-08-15T09:34:24Z</time>
      </trkpt>
      <trkpt lat="47.02198" lon="-1.68783">
        <ele>80</ele>
        <time>2022-08-15T09:34:27Z</time>
      </trkpt>
      <trkpt lat="47.02204" lon="-1.68771">
        <ele>81</ele>
        <time>2022-08-15T09:34:29Z</time>
      </trkpt>
      <trkpt lat="47.02212" lon="-1.68757">
        <ele>81</ele>
        <time>2022-08-15T09:34:31Z</time>
      </trkpt>
      <trkpt lat="47.02221" lon="-1.68743">
        <ele>82</ele>
        <time>2022-08-15T09:34:33Z</time>
      </trkpt>
      <trkpt lat="47.02229" lon="-1.68728">
        <ele>82</ele>
        <time>2022-08-15T09:34:35Z</time>
      </trkpt>
      <trkpt lat="47.02238" lon="-1.68713">
        <ele>83</ele>
        <time>2022-08-15T09:34:37Z</time>
      </trkpt>
      <trkpt lat="47.02247" lon="-1.68697">
        <ele>83</ele>
        <time>2022-08-15T09:34:39Z</time>
      </trkpt>
      <trkpt lat="47.02255" lon="-1.68682">
        <ele>84</ele>
        <time>2022-08-15T09:34:41Z</time>
      </trkpt>
      <trkpt lat="47.02262" lon="-1.68668">
        <ele>84</ele>
        <time>2022-08-15T09:34:43Z</time>
      </trkpt>
      <trkpt lat="47.0227" lon="-1.68655">
        <ele>85</ele>
        <time>2022-08-15T09:34:45Z</time>
      </trkpt>
      <trkpt lat="47.02278" lon="-1.68642">
        <ele>85</ele>
        <time>2022-08-15T09:34:47Z</time>
      </trkpt>
      <trkpt lat="47.02285" lon="-1.68628">
        <ele>86</ele>
        <time>2022-08-15T09:34:49Z</time>
      </trkpt>
      <trkpt lat="47.02292" lon="-1.68615">
        <ele>87</ele>
        <time>2022-08-15T09:34:51Z</time>
      </trkpt>
      <trkpt lat="47.02299" lon="-1.68601">
        <ele>88</ele>
        <time>2022-08-15T09:34:53Z</time>
      </trkpt>
      <trkpt lat="47.02307" lon="-1.68587">
        <ele>88</ele>
        <time>2022-08-15T09:34:55Z</time>
      </trkpt>
      <trkpt lat="47.02315" lon="-1.68574">
        <ele>89</ele>
        <time>2022-08-15T09:34:57Z</time>
      </trkpt>
      <trkpt lat="47.02323" lon="-1.6856">
        <ele>89</ele>
        <time>2022-08-15T09:34:59Z</time>
      </trkpt>
      <trkpt lat="47.0233" lon="-1.68546">
        <ele>89</ele>
        <time>2022-08-15T09:35:01Z</time>
      </trkpt>
      <trkpt lat="47.02338" lon="-1.68532">
        <ele>90</ele>
        <time>2022-08-15T09:35:03Z</time>
      </trkpt>
      <trkpt lat="47.02345" lon="-1.68519">
        <ele>90</ele>
        <time>2022-08-15T09:35:05Z</time>
      </trkpt>
      <trkpt lat="47.02353" lon="-1.68505">
        <ele>90</ele>
        <time>2022-08-15T09:35:07Z</time>
      </trkpt>
      <trkpt lat="47.0236" lon="-1.68491">
        <ele>90</ele>
        <time>2022-08-15T09:35:09Z</time>
      </trkpt>
      <trkpt lat="47.02367" lon="-1.68477">
        <ele>90</ele>
        <time>2022-08-15T09:35:11Z</time>
      </trkpt>
      <trkpt lat="47.02373" lon="-1.68462">
        <ele>91</ele>
        <time>2022-08-15T09:35:13Z</time>
      </trkpt>
      <trkpt lat="47.02379" lon="-1.68449">
        <ele>91</ele>
        <time>2022-08-15T09:35:15Z</time>
      </trkpt>
      <trkpt lat="47.02384" lon="-1.68435">
        <ele>91</ele>
        <time>2022-08-15T09:35:17Z</time>
      </trkpt>
      <trkpt lat="47.02389" lon="-1.6842">
        <ele>91</ele>
        <time>2022-08-15T09:35:19Z</time>
      </trkpt>
      <trkpt lat="47.02395" lon="-1.68405">
        <ele>90</ele>
        <time>2022-08-15T09:35:21Z</time>
      </trkpt>
      <trkpt lat="47.02401" lon="-1.68389">
        <ele>90</ele>
        <time>2022-08-15T09:35:23Z</time>
      </trkpt>
      <trkpt lat="47.02407" lon="-1.68373">
        <ele>90</ele>
        <time>2022-08-15T09:35:25Z</time>
      </trkpt>
      <trkpt lat="47.02413" lon="-1.68356">
        <ele>90</ele>
        <time>2022-08-15T09:35:27Z</time>
      </trkpt>
      <trkpt lat="47.02419" lon="-1.68338">
        <ele>89</ele>
        <time>2022-08-15T09:35:29Z</time>
      </trkpt>
      <trkpt lat="47.02425" lon="-1.6832">
        <ele>89</ele>
        <time>2022-08-15T09:35:31Z</time>
      </trkpt>
      <trkpt lat="47.02432" lon="-1.68302">
        <ele>89</ele>
        <time>2022-08-15T09:35:33Z</time>
      </trkpt>
      <trkpt lat="47.02439" lon="-1.68283">
        <ele>88</ele>
        <time>2022-08-15T09:35:35Z</time>
      </trkpt>
      <trkpt lat="47.02445" lon="-1.68265">
        <ele>88</ele>
        <time>2022-08-15T09:35:37Z</time>
      </trkpt>
      <trkpt lat="47.02453" lon="-1.68246">
        <ele>88</ele>
        <time>2022-08-15T09:35:39Z</time>
      </trkpt>
      <trkpt lat="47.0246" lon="-1.68227">
        <ele>88</ele>
        <time>2022-08-15T09:35:41Z</time>
      </trkpt>
      <trkpt lat="47.02467" lon="-1.68207">
        <ele>88</ele>
        <time>2022-08-15T09:35:43Z</time>
      </trkpt>
      <trkpt lat="47.02474" lon="-1.68188">
        <ele>88</ele>
        <time>2022-08-15T09:35:45Z</time>
      </trkpt>
      <trkpt lat="47.02481" lon="-1.68168">
        <ele>88</ele>
        <time>2022-08-15T09:35:47Z</time>
      </trkpt>
      <trkpt lat="47.02489" lon="-1.68148">
        <ele>87</ele>
        <time>2022-08-15T09:35:49Z</time>
      </trkpt>
      <trkpt lat="47.02497" lon="-1.68127">
        <ele>87</ele>
        <time>2022-08-15T09:35:51Z</time>
      </trkpt>
      <trkpt lat="47.02504" lon="-1.68106">
        <ele>87</ele>
        <time>2022-08-15T09:35:53Z</time>
      </trkpt>
      <trkpt lat="47.02513" lon="-1.68085">
        <ele>86</ele>
        <time>2022-08-15T09:35:55Z</time>
      </trkpt>
      <trkpt lat="47.0252" lon="-1.68064">
        <ele>87</ele>
        <time>2022-08-15T09:35:57Z</time>
      </trkpt>
      <trkpt lat="47.02528" lon="-1.68044">
        <ele>87</ele>
        <time>2022-08-15T09:35:59Z</time>
      </trkpt>
      <trkpt lat="47.02535" lon="-1.68023">
        <ele>87</ele>
        <time>2022-08-15T09:36:01Z</time>
      </trkpt>
      <trkpt lat="47.02543" lon="-1.68002">
        <ele>87</ele>
        <time>2022-08-15T09:36:03Z</time>
      </trkpt>
      <trkpt lat="47.02551" lon="-1.67982">
        <ele>87</ele>
        <time>2022-08-15T09:36:05Z</time>
      </trkpt>
      <trkpt lat="47.02558" lon="-1.67961">
        <ele>87</ele>
        <time>2022-08-15T09:36:07Z</time>
      </trkpt>
      <trkpt lat="47.02566" lon="-1.6794">
        <ele>87</ele>
        <time>2022-08-15T09:36:09Z</time>
      </trkpt>
      <trkpt lat="47.02574" lon="-1.6792">
        <ele>87</ele>
        <time>2022-08-15T09:36:11Z</time>
      </trkpt>
      <trkpt lat="47.02582" lon="-1.67899">
        <ele>87</ele>
        <time>2022-08-15T09:36:13Z</time>
      </trkpt>
      <trkpt lat="47.02589" lon="-1.67879">
        <ele>87</ele>
        <time>2022-08-15T09:36:15Z</time>
      </trkpt>
      <trkpt lat="47.02597" lon="-1.67859">
        <ele>87</ele>
        <time>2022-08-15T09:36:17Z</time>
      </trkpt>
      <trkpt lat="47.02604" lon="-1.67839">
        <ele>86</ele>
        <time>2022-08-15T09:36:19Z</time>
      </trkpt>
      <trkpt lat="47.02611" lon="-1.6782">
        <ele>87</ele>
        <time>2022-08-15T09:36:21Z</time>
      </trkpt>
      <trkpt lat="47.02618" lon="-1.678">
        <ele>87</ele>
        <time>2022-08-15T09:36:23Z</time>
      </trkpt>
      <trkpt lat="47.02625" lon="-1.67781">
        <ele>87</ele>
        <time>2022-08-15T09:36:25Z</time>
      </trkpt>
      <trkpt lat="47.02633" lon="-1.67761">
        <ele>87</ele>
        <time>2022-08-15T09:36:27Z</time>
      </trkpt>
      <trkpt lat="47.0264" lon="-1.67742">
        <ele>87</ele>
        <time>2022-08-15T09:36:29Z</time>
      </trkpt>
      <trkpt lat="47.02647" lon="-1.67722">
        <ele>87</ele>
        <time>2022-08-15T09:36:31Z</time>
      </trkpt>
      <trkpt lat="47.02654" lon="-1.67702">
        <ele>87</ele>
        <time>2022-08-15T09:36:33Z</time>
      </trkpt>
      <trkpt lat="47.02661" lon="-1.67683">
        <ele>88</ele>
        <time>2022-08-15T09:36:35Z</time>
      </trkpt>
      <trkpt lat="47.02669" lon="-1.67664">
        <ele>87</ele>
        <time>2022-08-15T09:36:37Z</time>
      </trkpt>
      <trkpt lat="47.02676" lon="-1.67644">
        <ele>87</ele>
        <time>2022-08-15T09:36:39Z</time>
      </trkpt>
      <trkpt lat="47.02683" lon="-1.67624">
        <ele>88</ele>
        <time>2022-08-15T09:36:41Z</time>
      </trkpt>
      <trkpt lat="47.0269" lon="-1.67605">
        <ele>87</ele>
        <time>2022-08-15T09:36:43Z</time>
      </trkpt>
      <trkpt lat="47.02697" lon="-1.67585">
        <ele>87</ele>
        <time>2022-08-15T09:36:45Z</time>
      </trkpt>
      <trkpt lat="47.02704" lon="-1.67565">
        <ele>87</ele>
        <time>2022-08-15T09:36:47Z</time>
      </trkpt>
      <trkpt lat="47.02712" lon="-1.67545">
        <ele>87</ele>
        <time>2022-08-15T09:36:49Z</time>
      </trkpt>
      <trkpt lat="47.02719" lon="-1.67525">
        <ele>86</ele>
        <time>2022-08-15T09:36:51Z</time>
      </trkpt>
      <trkpt lat="47.02727" lon="-1.67504">
        <ele>86</ele>
        <time>2022-08-15T09:36:53Z</time>
      </trkpt>
      <trkpt lat="47.02735" lon="-1.67483">
        <ele>86</ele>
        <time>2022-08-15T09:36:55Z</time>
      </trkpt>
      <trkpt lat="47.02743" lon="-1.67462">
        <ele>86</ele>
        <time>2022-08-15T09:36:57Z</time>
      </trkpt>
      <trkpt lat="47.02751" lon="-1.6744">
        <ele>86</ele>
        <time>2022-08-15T09:36:59Z</time>
      </trkpt>
      <trkpt lat="47.02759" lon="-1.67418">
        <ele>86</ele>
        <time>2022-08-15T09:37:01Z</time>
      </trkpt>
      <trkpt lat="47.02766" lon="-1.67397">
        <ele>85</ele>
        <time>2022-08-15T09:37:03Z</time>
      </trkpt>
      <trkpt lat="47.02774" lon="-1.67375">
        <ele>85</ele>
        <time>2022-08-15T09:37:05Z</time>
      </trkpt>
      <trkpt lat="47.02782" lon="-1.67353">
        <ele>85</ele>
        <time>2022-08-15T09:37:07Z</time>
      </trkpt>
      <trkpt lat="47.0279" lon="-1.67331">
        <ele>85</ele>
        <time>2022-08-15T09:37:09Z</time>
      </trkpt>
      <trkpt lat="47.02798" lon="-1.67308">
        <ele>84</ele>
        <time>2022-08-15T09:37:11Z</time>
      </trkpt>
      <trkpt lat="47.02807" lon="-1.67286">
        <ele>84</ele>
        <time>2022-08-15T09:37:13Z</time>
      </trkpt>
      <trkpt lat="47.02815" lon="-1.67263">
        <ele>83</ele>
        <time>2022-08-15T09:37:15Z</time>
      </trkpt>
      <trkpt lat="47.02823" lon="-1.6724">
        <ele>83</ele>
        <time>2022-08-15T09:37:17Z</time>
      </trkpt>
      <trkpt lat="47.02827" lon="-1.67228">
        <ele>83</ele>
        <time>2022-08-15T09:37:18Z</time>
      </trkpt>
      <trkpt lat="47.02832" lon="-1.67216">
        <ele>83</ele>
        <time>2022-08-15T09:37:19Z</time>
      </trkpt>
      <trkpt lat="47.02837" lon="-1.67204">
        <ele>83</ele>
        <time>2022-08-15T09:37:20Z</time>
      </trkpt>
      <trkpt lat="47.02841" lon="-1.67191">
        <ele>83</ele>
        <time>2022-08-15T09:37:21Z</time>
      </trkpt>
      <trkpt lat="47.02846" lon="-1.67179">
        <ele>83</ele>
        <time>2022-08-15T09:37:22Z</time>
      </trkpt>
      <trkpt lat="47.0285" lon="-1.67167">
        <ele>83</ele>
        <time>2022-08-15T09:37:23Z</time>
      </trkpt>
      <trkpt lat="47.02858" lon="-1.67144">
        <ele>83</ele>
        <time>2022-08-15T09:37:25Z</time>
      </trkpt>
      <trkpt lat="47.02863" lon="-1.67133">
        <ele>83</ele>
        <time>2022-08-15T09:37:26Z</time>
      </trkpt>
      <trkpt lat="47.02867" lon="-1.67121">
        <ele>83</ele>
        <time>2022-08-15T09:37:27Z</time>
      </trkpt>
      <trkpt lat="47.02872" lon="-1.67109">
        <ele>83</ele>
        <time>2022-08-15T09:37:28Z</time>
      </trkpt>
      <trkpt lat="47.0288" lon="-1.67087">
        <ele>83</ele>
        <time>2022-08-15T09:37:30Z</time>
      </trkpt>
      <trkpt lat="47.02888" lon="-1.67064">
        <ele>83</ele>
        <time>2022-08-15T09:37:32Z</time>
      </trkpt>
      <trkpt lat="47.02897" lon="-1.67042">
        <ele>83</ele>
        <time>2022-08-15T09:37:34Z</time>
      </trkpt>
      <trkpt lat="47.02905" lon="-1.67021">
        <ele>83</ele>
        <time>2022-08-15T09:37:36Z</time>
      </trkpt>
      <trkpt lat="47.02913" lon="-1.66999">
        <ele>83</ele>
        <time>2022-08-15T09:37:38Z</time>
      </trkpt>
      <trkpt lat="47.02921" lon="-1.66977">
        <ele>84</ele>
        <time>2022-08-15T09:37:40Z</time>
      </trkpt>
      <trkpt lat="47.02929" lon="-1.66955">
        <ele>83</ele>
        <time>2022-08-15T09:37:42Z</time>
      </trkpt>
      <trkpt lat="47.02938" lon="-1.66934">
        <ele>83</ele>
        <time>2022-08-15T09:37:44Z</time>
      </trkpt>
      <trkpt lat="47.02946" lon="-1.66913">
        <ele>82</ele>
        <time>2022-08-15T09:37:46Z</time>
      </trkpt>
      <trkpt lat="47.02954" lon="-1.66891">
        <ele>82</ele>
        <time>2022-08-15T09:37:48Z</time>
      </trkpt>
      <trkpt lat="47.02961" lon="-1.66871">
        <ele>82</ele>
        <time>2022-08-15T09:37:50Z</time>
      </trkpt>
      <trkpt lat="47.02969" lon="-1.66849">
        <ele>81</ele>
        <time>2022-08-15T09:37:52Z</time>
      </trkpt>
      <trkpt lat="47.02976" lon="-1.66828">
        <ele>81</ele>
        <time>2022-08-15T09:37:54Z</time>
      </trkpt>
      <trkpt lat="47.02984" lon="-1.66807">
        <ele>81</ele>
        <time>2022-08-15T09:37:56Z</time>
      </trkpt>
      <trkpt lat="47.02992" lon="-1.66785">
        <ele>81</ele>
        <time>2022-08-15T09:37:58Z</time>
      </trkpt>
      <trkpt lat="47.02999" lon="-1.66766">
        <ele>81</ele>
        <time>2022-08-15T09:38:00Z</time>
      </trkpt>
      <trkpt lat="47.03007" lon="-1.66746">
        <ele>81</ele>
        <time>2022-08-15T09:38:02Z</time>
      </trkpt>
      <trkpt lat="47.03014" lon="-1.66726">
        <ele>81</ele>
        <time>2022-08-15T09:38:04Z</time>
      </trkpt>
      <trkpt lat="47.03021" lon="-1.66707">
        <ele>80</ele>
        <time>2022-08-15T09:38:06Z</time>
      </trkpt>
      <trkpt lat="47.03028" lon="-1.66686">
        <ele>80</ele>
        <time>2022-08-15T09:38:08Z</time>
      </trkpt>
      <trkpt lat="47.03036" lon="-1.66665">
        <ele>79</ele>
        <time>2022-08-15T09:38:10Z</time>
      </trkpt>
      <trkpt lat="47.03044" lon="-1.66643">
        <ele>79</ele>
        <time>2022-08-15T09:38:12Z</time>
      </trkpt>
      <trkpt lat="47.03053" lon="-1.66621">
        <ele>77</ele>
        <time>2022-08-15T09:38:14Z</time>
      </trkpt>
      <trkpt lat="47.03061" lon="-1.66599">
        <ele>76</ele>
        <time>2022-08-15T09:38:16Z</time>
      </trkpt>
      <trkpt lat="47.03065" lon="-1.66587">
        <ele>76</ele>
        <time>2022-08-15T09:38:17Z</time>
      </trkpt>
      <trkpt lat="47.0307" lon="-1.66575">
        <ele>75</ele>
        <time>2022-08-15T09:38:18Z</time>
      </trkpt>
      <trkpt lat="47.03074" lon="-1.66562">
        <ele>75</ele>
        <time>2022-08-15T09:38:19Z</time>
      </trkpt>
      <trkpt lat="47.03079" lon="-1.66551">
        <ele>74</ele>
        <time>2022-08-15T09:38:20Z</time>
      </trkpt>
      <trkpt lat="47.03084" lon="-1.66538">
        <ele>74</ele>
        <time>2022-08-15T09:38:21Z</time>
      </trkpt>
      <trkpt lat="47.03089" lon="-1.66526">
        <ele>73</ele>
        <time>2022-08-15T09:38:22Z</time>
      </trkpt>
      <trkpt lat="47.03093" lon="-1.66513">
        <ele>73</ele>
        <time>2022-08-15T09:38:23Z</time>
      </trkpt>
      <trkpt lat="47.03098" lon="-1.66501">
        <ele>72</ele>
        <time>2022-08-15T09:38:24Z</time>
      </trkpt>
      <trkpt lat="47.03103" lon="-1.6649">
        <ele>72</ele>
        <time>2022-08-15T09:38:25Z</time>
      </trkpt>
      <trkpt lat="47.03109" lon="-1.66479">
        <ele>72</ele>
        <time>2022-08-15T09:38:26Z</time>
      </trkpt>
      <trkpt lat="47.03115" lon="-1.66469">
        <ele>72</ele>
        <time>2022-08-15T09:38:27Z</time>
      </trkpt>
      <trkpt lat="47.03122" lon="-1.6646">
        <ele>71</ele>
        <time>2022-08-15T09:38:28Z</time>
      </trkpt>
      <trkpt lat="47.03129" lon="-1.6645">
        <ele>71</ele>
        <time>2022-08-15T09:38:29Z</time>
      </trkpt>
      <trkpt lat="47.03136" lon="-1.66441">
        <ele>71</ele>
        <time>2022-08-15T09:38:30Z</time>
      </trkpt>
      <trkpt lat="47.03142" lon="-1.66431">
        <ele>70</ele>
        <time>2022-08-15T09:38:31Z</time>
      </trkpt>
      <trkpt lat="47.03149" lon="-1.66421">
        <ele>70</ele>
        <time>2022-08-15T09:38:32Z</time>
      </trkpt>
      <trkpt lat="47.03155" lon="-1.66411">
        <ele>69</ele>
        <time>2022-08-15T09:38:33Z</time>
      </trkpt>
      <trkpt lat="47.03161" lon="-1.66401">
        <ele>69</ele>
        <time>2022-08-15T09:38:34Z</time>
      </trkpt>
      <trkpt lat="47.03168" lon="-1.6639">
        <ele>69</ele>
        <time>2022-08-15T09:38:35Z</time>
      </trkpt>
      <trkpt lat="47.03174" lon="-1.66379">
        <ele>68</ele>
        <time>2022-08-15T09:38:36Z</time>
      </trkpt>
      <trkpt lat="47.0318" lon="-1.66369">
        <ele>68</ele>
        <time>2022-08-15T09:38:37Z</time>
      </trkpt>
      <trkpt lat="47.03186" lon="-1.66358">
        <ele>68</ele>
        <time>2022-08-15T09:38:38Z</time>
      </trkpt>
      <trkpt lat="47.03192" lon="-1.66346">
        <ele>68</ele>
        <time>2022-08-15T09:38:39Z</time>
      </trkpt>
      <trkpt lat="47.03198" lon="-1.66333">
        <ele>67</ele>
        <time>2022-08-15T09:38:40Z</time>
      </trkpt>
      <trkpt lat="47.03203" lon="-1.66321">
        <ele>67</ele>
        <time>2022-08-15T09:38:41Z</time>
      </trkpt>
      <trkpt lat="47.03208" lon="-1.66308">
        <ele>66</ele>
        <time>2022-08-15T09:38:42Z</time>
      </trkpt>
      <trkpt lat="47.03213" lon="-1.66296">
        <ele>66</ele>
        <time>2022-08-15T09:38:43Z</time>
      </trkpt>
      <trkpt lat="47.03218" lon="-1.66283">
        <ele>66</ele>
        <time>2022-08-15T09:38:44Z</time>
      </trkpt>
      <trkpt lat="47.03224" lon="-1.6627">
        <ele>66</ele>
        <time>2022-08-15T09:38:45Z</time>
      </trkpt>
      <trkpt lat="47.03229" lon="-1.66257">
        <ele>65</ele>
        <time>2022-08-15T09:38:46Z</time>
      </trkpt>
      <trkpt lat="47.03233" lon="-1.66245">
        <ele>65</ele>
        <time>2022-08-15T09:38:47Z</time>
      </trkpt>
      <trkpt lat="47.03238" lon="-1.66232">
        <ele>65</ele>
        <time>2022-08-15T09:38:48Z</time>
      </trkpt>
      <trkpt lat="47.03243" lon="-1.6622">
        <ele>65</ele>
        <time>2022-08-15T09:38:49Z</time>
      </trkpt>
      <trkpt lat="47.03247" lon="-1.66207">
        <ele>65</ele>
        <time>2022-08-15T09:38:50Z</time>
      </trkpt>
      <trkpt lat="47.03252" lon="-1.66196">
        <ele>65</ele>
        <time>2022-08-15T09:38:51Z</time>
      </trkpt>
      <trkpt lat="47.03257" lon="-1.66184">
        <ele>65</ele>
        <time>2022-08-15T09:38:52Z</time>
      </trkpt>
      <trkpt lat="47.03262" lon="-1.66172">
        <ele>65</ele>
        <time>2022-08-15T09:38:53Z</time>
      </trkpt>
      <trkpt lat="47.03267" lon="-1.6616">
        <ele>65</ele>
        <time>2022-08-15T09:38:54Z</time>
      </trkpt>
      <trkpt lat="47.03272" lon="-1.66148">
        <ele>65</ele>
        <time>2022-08-15T09:38:55Z</time>
      </trkpt>
      <trkpt lat="47.03278" lon="-1.66137">
        <ele>65</ele>
        <time>2022-08-15T09:38:56Z</time>
      </trkpt>
      <trkpt lat="47.03284" lon="-1.66127">
        <ele>64</ele>
        <time>2022-08-15T09:38:57Z</time>
      </trkpt>
      <trkpt lat="47.03291" lon="-1.66119">
        <ele>65</ele>
        <time>2022-08-15T09:38:58Z</time>
      </trkpt>
      <trkpt lat="47.03299" lon="-1.66111">
        <ele>64</ele>
        <time>2022-08-15T09:38:59Z</time>
      </trkpt>
      <trkpt lat="47.03308" lon="-1.66107">
        <ele>64</ele>
        <time>2022-08-15T09:39:00Z</time>
      </trkpt>
      <trkpt lat="47.03326" lon="-1.66104">
        <ele>64</ele>
        <time>2022-08-15T09:39:02Z</time>
      </trkpt>
      <trkpt lat="47.03343" lon="-1.6611">
        <ele>63</ele>
        <time>2022-08-15T09:39:04Z</time>
      </trkpt>
      <trkpt lat="47.03358" lon="-1.66121">
        <ele>63</ele>
        <time>2022-08-15T09:39:06Z</time>
      </trkpt>
      <trkpt lat="47.03372" lon="-1.66126">
        <ele>62</ele>
        <time>2022-08-15T09:39:08Z</time>
      </trkpt>
      <trkpt lat="47.03385" lon="-1.66115">
        <ele>61</ele>
        <time>2022-08-15T09:39:10Z</time>
      </trkpt>
      <trkpt lat="47.03389" lon="-1.66093">
        <ele>61</ele>
        <time>2022-08-15T09:39:12Z</time>
      </trkpt>
      <trkpt lat="47.03384" lon="-1.66073">
        <ele>62</ele>
        <time>2022-08-15T09:39:14Z</time>
      </trkpt>
      <trkpt lat="47.03385" lon="-1.66052">
        <ele>63</ele>
        <time>2022-08-15T09:39:16Z</time>
      </trkpt>
      <trkpt lat="47.03393" lon="-1.66033">
        <ele>63</ele>
        <time>2022-08-15T09:39:18Z</time>
      </trkpt>
      <trkpt lat="47.034" lon="-1.66013">
        <ele>63</ele>
        <time>2022-08-15T09:39:20Z</time>
      </trkpt>
      <trkpt lat="47.03401" lon="-1.65991">
        <ele>62</ele>
        <time>2022-08-15T09:39:22Z</time>
      </trkpt>
      <trkpt lat="47.034" lon="-1.6597">
        <ele>63</ele>
        <time>2022-08-15T09:39:24Z</time>
      </trkpt>
      <trkpt lat="47.03399" lon="-1.65948">
        <ele>63</ele>
        <time>2022-08-15T09:39:26Z</time>
      </trkpt>
      <trkpt lat="47.03397" lon="-1.65926">
        <ele>64</ele>
        <time>2022-08-15T09:39:28Z</time>
      </trkpt>
      <trkpt lat="47.03393" lon="-1.65906">
        <ele>65</ele>
        <time>2022-08-15T09:39:30Z</time>
      </trkpt>
      <trkpt lat="47.03387" lon="-1.65887">
        <ele>66</ele>
        <time>2022-08-15T09:39:32Z</time>
      </trkpt>
      <trkpt lat="47.03381" lon="-1.6587">
        <ele>66</ele>
        <time>2022-08-15T09:39:34Z</time>
      </trkpt>
      <trkpt lat="47.03373" lon="-1.65853">
        <ele>67</ele>
        <time>2022-08-15T09:39:36Z</time>
      </trkpt>
      <trkpt lat="47.03365" lon="-1.65837">
        <ele>68</ele>
        <time>2022-08-15T09:39:38Z</time>
      </trkpt>
      <trkpt lat="47.03357" lon="-1.6582">
        <ele>68</ele>
        <time>2022-08-15T09:39:40Z</time>
      </trkpt>
      <trkpt lat="47.03349" lon="-1.65804">
        <ele>68</ele>
        <time>2022-08-15T09:39:42Z</time>
      </trkpt>
      <trkpt lat="47.0334" lon="-1.65786">
        <ele>68</ele>
        <time>2022-08-15T09:39:44Z</time>
      </trkpt>
      <trkpt lat="47.03332" lon="-1.65768">
        <ele>68</ele>
        <time>2022-08-15T09:39:46Z</time>
      </trkpt>
      <trkpt lat="47.03324" lon="-1.65749">
        <ele>68</ele>
        <time>2022-08-15T09:39:48Z</time>
      </trkpt>
      <trkpt lat="47.03318" lon="-1.65729">
        <ele>67</ele>
        <time>2022-08-15T09:39:50Z</time>
      </trkpt>
      <trkpt lat="47.03313" lon="-1.65707">
        <ele>68</ele>
        <time>2022-08-15T09:39:52Z</time>
      </trkpt>
      <trkpt lat="47.03311" lon="-1.65686">
        <ele>67</ele>
        <time>2022-08-15T09:39:54Z</time>
      </trkpt>
      <trkpt lat="47.0331" lon="-1.65663">
        <ele>67</ele>
        <time>2022-08-15T09:39:56Z</time>
      </trkpt>
      <trkpt lat="47.03311" lon="-1.65639">
        <ele>67</ele>
        <time>2022-08-15T09:39:58Z</time>
      </trkpt>
      <trkpt lat="47.03312" lon="-1.65616">
        <ele>67</ele>
        <time>2022-08-15T09:40:00Z</time>
      </trkpt>
      <trkpt lat="47.03307" lon="-1.65594">
        <ele>67</ele>
        <time>2022-08-15T09:40:02Z</time>
      </trkpt>
      <trkpt lat="47.03304" lon="-1.65572">
        <ele>67</ele>
        <time>2022-08-15T09:40:04Z</time>
      </trkpt>
      <trkpt lat="47.03307" lon="-1.65549">
        <ele>67</ele>
        <time>2022-08-15T09:40:06Z</time>
      </trkpt>
      <trkpt lat="47.03307" lon="-1.65525">
        <ele>66</ele>
        <time>2022-08-15T09:40:08Z</time>
      </trkpt>
      <trkpt lat="47.03302" lon="-1.65503">
        <ele>65</ele>
        <time>2022-08-15T09:40:10Z</time>
      </trkpt>
      <trkpt lat="47.03297" lon="-1.65481">
        <ele>65</ele>
        <time>2022-08-15T09:40:12Z</time>
      </trkpt>
      <trkpt lat="47.03292" lon="-1.65459">
        <ele>64</ele>
        <time>2022-08-15T09:40:14Z</time>
      </trkpt>
      <trkpt lat="47.03287" lon="-1.65437">
        <ele>64</ele>
        <time>2022-08-15T09:40:16Z</time>
      </trkpt>
      <trkpt lat="47.03281" lon="-1.65413">
        <ele>63</ele>
        <time>2022-08-15T09:40:18Z</time>
      </trkpt>
      <trkpt lat="47.03276" lon="-1.6539">
        <ele>63</ele>
        <time>2022-08-15T09:40:20Z</time>
      </trkpt>
      <trkpt lat="47.0327" lon="-1.65365">
        <ele>62</ele>
        <time>2022-08-15T09:40:22Z</time>
      </trkpt>
      <trkpt lat="47.03265" lon="-1.65341">
        <ele>61</ele>
        <time>2022-08-15T09:40:24Z</time>
      </trkpt>
      <trkpt lat="47.03258" lon="-1.65317">
        <ele>61</ele>
        <time>2022-08-15T09:40:26Z</time>
      </trkpt>
      <trkpt lat="47.03255" lon="-1.65304">
        <ele>60</ele>
        <time>2022-08-15T09:40:27Z</time>
      </trkpt>
      <trkpt lat="47.0325" lon="-1.65278">
        <ele>60</ele>
        <time>2022-08-15T09:40:29Z</time>
      </trkpt>
      <trkpt lat="47.03243" lon="-1.65255">
        <ele>60</ele>
        <time>2022-08-15T09:40:31Z</time>
      </trkpt>
      <trkpt lat="47.03236" lon="-1.65232">
        <ele>60</ele>
        <time>2022-08-15T09:40:33Z</time>
      </trkpt>
      <trkpt lat="47.0323" lon="-1.6521">
        <ele>59</ele>
        <time>2022-08-15T09:40:35Z</time>
      </trkpt>
      <trkpt lat="47.03223" lon="-1.6519">
        <ele>60</ele>
        <time>2022-08-15T09:40:37Z</time>
      </trkpt>
      <trkpt lat="47.03212" lon="-1.65161">
        <ele>60</ele>
        <time>2022-08-15T09:40:40Z</time>
      </trkpt>
      <trkpt lat="47.03205" lon="-1.65142">
        <ele>60</ele>
        <time>2022-08-15T09:40:42Z</time>
      </trkpt>
      <trkpt lat="47.03197" lon="-1.65123">
        <ele>60</ele>
        <time>2022-08-15T09:40:44Z</time>
      </trkpt>
      <trkpt lat="47.03189" lon="-1.65105">
        <ele>61</ele>
        <time>2022-08-15T09:40:46Z</time>
      </trkpt>
      <trkpt lat="47.0318" lon="-1.65088">
        <ele>61</ele>
        <time>2022-08-15T09:40:48Z</time>
      </trkpt>
      <trkpt lat="47.03171" lon="-1.65071">
        <ele>61</ele>
        <time>2022-08-15T09:40:50Z</time>
      </trkpt>
      <trkpt lat="47.03162" lon="-1.65054">
        <ele>61</ele>
        <time>2022-08-15T09:40:52Z</time>
      </trkpt>
      <trkpt lat="47.03153" lon="-1.65038">
        <ele>61</ele>
        <time>2022-08-15T09:40:54Z</time>
      </trkpt>
      <trkpt lat="47.03144" lon="-1.65022">
        <ele>61</ele>
        <time>2022-08-15T09:40:56Z</time>
      </trkpt>
      <trkpt lat="47.03134" lon="-1.65006">
        <ele>61</ele>
        <time>2022-08-15T09:40:58Z</time>
      </trkpt>
      <trkpt lat="47.03125" lon="-1.64991">
        <ele>62</ele>
        <time>2022-08-15T09:41:00Z</time>
      </trkpt>
      <trkpt lat="47.03111" lon="-1.64967">
        <ele>62</ele>
        <time>2022-08-15T09:41:03Z</time>
      </trkpt>
      <trkpt lat="47.03101" lon="-1.64951">
        <ele>62</ele>
        <time>2022-08-15T09:41:05Z</time>
      </trkpt>
      <trkpt lat="47.03092" lon="-1.64935">
        <ele>62</ele>
        <time>2022-08-15T09:41:07Z</time>
      </trkpt>
      <trkpt lat="47.03078" lon="-1.64911">
        <ele>62</ele>
        <time>2022-08-15T09:41:10Z</time>
      </trkpt>
      <trkpt lat="47.03069" lon="-1.64896">
        <ele>62</ele>
        <time>2022-08-15T09:41:12Z</time>
      </trkpt>
      <trkpt lat="47.03055" lon="-1.64873">
        <ele>61</ele>
        <time>2022-08-15T09:41:15Z</time>
      </trkpt>
      <trkpt lat="47.03046" lon="-1.64859">
        <ele>61</ele>
        <time>2022-08-15T09:41:17Z</time>
      </trkpt>
      <trkpt lat="47.03038" lon="-1.64844">
        <ele>61</ele>
        <time>2022-08-15T09:41:19Z</time>
      </trkpt>
      <trkpt lat="47.03029" lon="-1.6483">
        <ele>62</ele>
        <time>2022-08-15T09:41:21Z</time>
      </trkpt>
      <trkpt lat="47.0302" lon="-1.64817">
        <ele>62</ele>
        <time>2022-08-15T09:41:23Z</time>
      </trkpt>
      <trkpt lat="47.03011" lon="-1.64807">
        <ele>62</ele>
        <time>2022-08-15T09:41:25Z</time>
      </trkpt>
      <trkpt lat="47.02999" lon="-1.648">
        <ele>62</ele>
        <time>2022-08-15T09:41:27Z</time>
      </trkpt>
      <trkpt lat="47.02989" lon="-1.64791">
        <ele>62</ele>
        <time>2022-08-15T09:41:29Z</time>
      </trkpt>
      <trkpt lat="47.02983" lon="-1.64775">
        <ele>62</ele>
        <time>2022-08-15T09:41:31Z</time>
      </trkpt>
      <trkpt lat="47.0298" lon="-1.64756">
        <ele>62</ele>
        <time>2022-08-15T09:41:33Z</time>
      </trkpt>
      <trkpt lat="47.02972" lon="-1.64739">
        <ele>62</ele>
        <time>2022-08-15T09:41:35Z</time>
      </trkpt>
      <trkpt lat="47.02964" lon="-1.64725">
        <ele>62</ele>
        <time>2022-08-15T09:41:37Z</time>
      </trkpt>
      <trkpt lat="47.02955" lon="-1.64712">
        <ele>63</ele>
        <time>2022-08-15T09:41:39Z</time>
      </trkpt>
      <trkpt lat="47.02946" lon="-1.64698">
        <ele>63</ele>
        <time>2022-08-15T09:41:41Z</time>
      </trkpt>
      <trkpt lat="47.02938" lon="-1.64685">
        <ele>63</ele>
        <time>2022-08-15T09:41:43Z</time>
      </trkpt>
      <trkpt lat="47.02929" lon="-1.64672">
        <ele>63</ele>
        <time>2022-08-15T09:41:45Z</time>
      </trkpt>
      <trkpt lat="47.02921" lon="-1.6466">
        <ele>64</ele>
        <time>2022-08-15T09:41:47Z</time>
      </trkpt>
      <trkpt lat="47.02912" lon="-1.64647">
        <ele>64</ele>
        <time>2022-08-15T09:41:49Z</time>
      </trkpt>
      <trkpt lat="47.02904" lon="-1.64634">
        <ele>64</ele>
        <time>2022-08-15T09:41:51Z</time>
      </trkpt>
      <trkpt lat="47.02895" lon="-1.64622">
        <ele>65</ele>
        <time>2022-08-15T09:41:53Z</time>
      </trkpt>
      <trkpt lat="47.02887" lon="-1.64609">
        <ele>65</ele>
        <time>2022-08-15T09:41:55Z</time>
      </trkpt>
      <trkpt lat="47.02879" lon="-1.64597">
        <ele>65</ele>
        <time>2022-08-15T09:41:57Z</time>
      </trkpt>
      <trkpt lat="47.0287" lon="-1.64583">
        <ele>65</ele>
        <time>2022-08-15T09:41:59Z</time>
      </trkpt>
      <trkpt lat="47.02861" lon="-1.6457">
        <ele>65</ele>
        <time>2022-08-15T09:42:01Z</time>
      </trkpt>
      <trkpt lat="47.02853" lon="-1.64557">
        <ele>65</ele>
        <time>2022-08-15T09:42:03Z</time>
      </trkpt>
      <trkpt lat="47.02845" lon="-1.64544">
        <ele>66</ele>
        <time>2022-08-15T09:42:05Z</time>
      </trkpt>
      <trkpt lat="47.02837" lon="-1.64529">
        <ele>66</ele>
        <time>2022-08-15T09:42:07Z</time>
      </trkpt>
      <trkpt lat="47.02829" lon="-1.64516">
        <ele>66</ele>
        <time>2022-08-15T09:42:09Z</time>
      </trkpt>
      <trkpt lat="47.02821" lon="-1.64502">
        <ele>66</ele>
        <time>2022-08-15T09:42:11Z</time>
      </trkpt>
      <trkpt lat="47.02813" lon="-1.64488">
        <ele>67</ele>
        <time>2022-08-15T09:42:13Z</time>
      </trkpt>
      <trkpt lat="47.02805" lon="-1.64473">
        <ele>66</ele>
        <time>2022-08-15T09:42:15Z</time>
      </trkpt>
      <trkpt lat="47.02798" lon="-1.64457">
        <ele>66</ele>
        <time>2022-08-15T09:42:17Z</time>
      </trkpt>
      <trkpt lat="47.0279" lon="-1.64442">
        <ele>66</ele>
        <time>2022-08-15T09:42:19Z</time>
      </trkpt>
      <trkpt lat="47.02782" lon="-1.64426">
        <ele>66</ele>
        <time>2022-08-15T09:42:21Z</time>
      </trkpt>
      <trkpt lat="47.02772" lon="-1.64413">
        <ele>66</ele>
        <time>2022-08-15T09:42:23Z</time>
      </trkpt>
      <trkpt lat="47.02762" lon="-1.64402">
        <ele>66</ele>
        <time>2022-08-15T09:42:25Z</time>
      </trkpt>
      <trkpt lat="47.02753" lon="-1.64388">
        <ele>66</ele>
        <time>2022-08-15T09:42:27Z</time>
      </trkpt>
      <trkpt lat="47.02755" lon="-1.6437">
        <ele>65</ele>
        <time>2022-08-15T09:42:29Z</time>
      </trkpt>
      <trkpt lat="47.02767" lon="-1.64359">
        <ele>66</ele>
        <time>2022-08-15T09:42:31Z</time>
      </trkpt>
      <trkpt lat="47.02781" lon="-1.64358">
        <ele>65</ele>
        <time>2022-08-15T09:42:33Z</time>
      </trkpt>
      <trkpt lat="47.02794" lon="-1.64357">
        <ele>65</ele>
        <time>2022-08-15T09:42:35Z</time>
      </trkpt>
      <trkpt lat="47.02807" lon="-1.64348">
        <ele>65</ele>
        <time>2022-08-15T09:42:37Z</time>
      </trkpt>
      <trkpt lat="47.02819" lon="-1.64341">
        <ele>65</ele>
        <time>2022-08-15T09:42:39Z</time>
      </trkpt>
      <trkpt lat="47.02832" lon="-1.64336">
        <ele>65</ele>
        <time>2022-08-15T09:42:41Z</time>
      </trkpt>
      <trkpt lat="47.02846" lon="-1.64333">
        <ele>66</ele>
        <time>2022-08-15T09:42:43Z</time>
      </trkpt>
      <trkpt lat="47.02859" lon="-1.64332">
        <ele>66</ele>
        <time>2022-08-15T09:42:45Z</time>
      </trkpt>
      <trkpt lat="47.02872" lon="-1.64332">
        <ele>66</ele>
        <time>2022-08-15T09:42:47Z</time>
      </trkpt>
      <trkpt lat="47.02886" lon="-1.64331">
        <ele>66</ele>
        <time>2022-08-15T09:42:49Z</time>
      </trkpt>
      <trkpt lat="47.02898" lon="-1.64324">
        <ele>66</ele>
        <time>2022-08-15T09:42:51Z</time>
      </trkpt>
      <trkpt lat="47.02912" lon="-1.64316">
        <ele>66</ele>
        <time>2022-08-15T09:42:53Z</time>
      </trkpt>
      <trkpt lat="47.02925" lon="-1.64306">
        <ele>65</ele>
        <time>2022-08-15T09:42:55Z</time>
      </trkpt>
      <trkpt lat="47.02938" lon="-1.64297">
        <ele>65</ele>
        <time>2022-08-15T09:42:57Z</time>
      </trkpt>
      <trkpt lat="47.02952" lon="-1.64288">
        <ele>64</ele>
        <time>2022-08-15T09:42:59Z</time>
      </trkpt>
      <trkpt lat="47.02965" lon="-1.64279">
        <ele>63</ele>
        <time>2022-08-15T09:43:01Z</time>
      </trkpt>
      <trkpt lat="47.02979" lon="-1.64271">
        <ele>63</ele>
        <time>2022-08-15T09:43:03Z</time>
      </trkpt>
      <trkpt lat="47.02993" lon="-1.64261">
        <ele>62</ele>
        <time>2022-08-15T09:43:05Z</time>
      </trkpt>
      <trkpt lat="47.03006" lon="-1.6425">
        <ele>61</ele>
        <time>2022-08-15T09:43:07Z</time>
      </trkpt>
      <trkpt lat="47.03021" lon="-1.6424">
        <ele>61</ele>
        <time>2022-08-15T09:43:09Z</time>
      </trkpt>
      <trkpt lat="47.03035" lon="-1.64231">
        <ele>61</ele>
        <time>2022-08-15T09:43:11Z</time>
      </trkpt>
      <trkpt lat="47.0305" lon="-1.64223">
        <ele>61</ele>
        <time>2022-08-15T09:43:13Z</time>
      </trkpt>
      <trkpt lat="47.03064" lon="-1.64217">
        <ele>61</ele>
        <time>2022-08-15T09:43:15Z</time>
      </trkpt>
      <trkpt lat="47.0308" lon="-1.64215">
        <ele>61</ele>
        <time>2022-08-15T09:43:17Z</time>
      </trkpt>
      <trkpt lat="47.03096" lon="-1.64216">
        <ele>61</ele>
        <time>2022-08-15T09:43:19Z</time>
      </trkpt>
      <trkpt lat="47.03112" lon="-1.64219">
        <ele>60</ele>
        <time>2022-08-15T09:43:21Z</time>
      </trkpt>
      <trkpt lat="47.03128" lon="-1.64223">
        <ele>59</ele>
        <time>2022-08-15T09:43:23Z</time>
      </trkpt>
      <trkpt lat="47.03144" lon="-1.64228">
        <ele>59</ele>
        <time>2022-08-15T09:43:25Z</time>
      </trkpt>
      <trkpt lat="47.0316" lon="-1.64233">
        <ele>58</ele>
        <time>2022-08-15T09:43:27Z</time>
      </trkpt>
      <trkpt lat="47.03177" lon="-1.64237">
        <ele>58</ele>
        <time>2022-08-15T09:43:29Z</time>
      </trkpt>
      <trkpt lat="47.03193" lon="-1.64239">
        <ele>58</ele>
        <time>2022-08-15T09:43:31Z</time>
      </trkpt>
      <trkpt lat="47.03209" lon="-1.64239">
        <ele>57</ele>
        <time>2022-08-15T09:43:33Z</time>
      </trkpt>
      <trkpt lat="47.03225" lon="-1.64239">
        <ele>57</ele>
        <time>2022-08-15T09:43:35Z</time>
      </trkpt>
      <trkpt lat="47.03241" lon="-1.64238">
        <ele>58</ele>
        <time>2022-08-15T09:43:37Z</time>
      </trkpt>
      <trkpt lat="47.03257" lon="-1.64238">
        <ele>57</ele>
        <time>2022-08-15T09:43:39Z</time>
      </trkpt>
      <trkpt lat="47.03273" lon="-1.64238">
        <ele>57</ele>
        <time>2022-08-15T09:43:41Z</time>
      </trkpt>
      <trkpt lat="47.03288" lon="-1.64239">
        <ele>57</ele>
        <time>2022-08-15T09:43:43Z</time>
      </trkpt>
      <trkpt lat="47.03304" lon="-1.64238">
        <ele>58</ele>
        <time>2022-08-15T09:43:45Z</time>
      </trkpt>
      <trkpt lat="47.03319" lon="-1.64238">
        <ele>58</ele>
        <time>2022-08-15T09:43:47Z</time>
      </trkpt>
      <trkpt lat="47.03334" lon="-1.64239">
        <ele>57</ele>
        <time>2022-08-15T09:43:49Z</time>
      </trkpt>
      <trkpt lat="47.0335" lon="-1.64241">
        <ele>56</ele>
        <time>2022-08-15T09:43:51Z</time>
      </trkpt>
      <trkpt lat="47.03366" lon="-1.64243">
        <ele>56</ele>
        <time>2022-08-15T09:43:53Z</time>
      </trkpt>
      <trkpt lat="47.03381" lon="-1.64246">
        <ele>56</ele>
        <time>2022-08-15T09:43:55Z</time>
      </trkpt>
      <trkpt lat="47.03396" lon="-1.64251">
        <ele>55</ele>
        <time>2022-08-15T09:43:57Z</time>
      </trkpt>
      <trkpt lat="47.03411" lon="-1.64257">
        <ele>55</ele>
        <time>2022-08-15T09:43:59Z</time>
      </trkpt>
      <trkpt lat="47.03425" lon="-1.64263">
        <ele>55</ele>
        <time>2022-08-15T09:44:01Z</time>
      </trkpt>
      <trkpt lat="47.0344" lon="-1.64268">
        <ele>55</ele>
        <time>2022-08-15T09:44:03Z</time>
      </trkpt>
      <trkpt lat="47.03455" lon="-1.64273">
        <ele>55</ele>
        <time>2022-08-15T09:44:05Z</time>
      </trkpt>
      <trkpt lat="47.0347" lon="-1.64279">
        <ele>55</ele>
        <time>2022-08-15T09:44:07Z</time>
      </trkpt>
      <trkpt lat="47.03484" lon="-1.64285">
        <ele>56</ele>
        <time>2022-08-15T09:44:09Z</time>
      </trkpt>
      <trkpt lat="47.03499" lon="-1.64291">
        <ele>56</ele>
        <time>2022-08-15T09:44:11Z</time>
      </trkpt>
      <trkpt lat="47.03513" lon="-1.64297">
        <ele>56</ele>
        <time>2022-08-15T09:44:13Z</time>
      </trkpt>
      <trkpt lat="47.03527" lon="-1.64303">
        <ele>57</ele>
        <time>2022-08-15T09:44:15Z</time>
      </trkpt>
      <trkpt lat="47.03541" lon="-1.64308">
        <ele>57</ele>
        <time>2022-08-15T09:44:17Z</time>
      </trkpt>
      <trkpt lat="47.03554" lon="-1.64309">
        <ele>57</ele>
        <time>2022-08-15T09:44:19Z</time>
      </trkpt>
      <trkpt lat="47.03567" lon="-1.64306">
        <ele>58</ele>
        <time>2022-08-15T09:44:21Z</time>
      </trkpt>
      <trkpt lat="47.0357" lon="-1.6429">
        <ele>59</ele>
        <time>2022-08-15T09:44:23Z</time>
      </trkpt>
      <trkpt lat="47.03565" lon="-1.64269">
        <ele>58</ele>
        <time>2022-08-15T09:44:25Z</time>
      </trkpt>
      <trkpt lat="47.03561" lon="-1.6425">
        <ele>58</ele>
        <time>2022-08-15T09:44:27Z</time>
      </trkpt>
      <trkpt lat="47.03556" lon="-1.64232">
        <ele>57</ele>
        <time>2022-08-15T09:44:29Z</time>
      </trkpt>
      <trkpt lat="47.03552" lon="-1.64216">
        <ele>57</ele>
        <time>2022-08-15T09:44:31Z</time>
      </trkpt>
      <trkpt lat="47.03555" lon="-1.642">
        <ele>57</ele>
        <time>2022-08-15T09:44:33Z</time>
      </trkpt>
      <trkpt lat="47.03566" lon="-1.64192">
        <ele>56</ele>
        <time>2022-08-15T09:44:35Z</time>
      </trkpt>
      <trkpt lat="47.03577" lon="-1.64186">
        <ele>57</ele>
        <time>2022-08-15T09:44:37Z</time>
      </trkpt>
      <trkpt lat="47.03588" lon="-1.64178">
        <ele>56</ele>
        <time>2022-08-15T09:44:39Z</time>
      </trkpt>
      <trkpt lat="47.03599" lon="-1.64172">
        <ele>56</ele>
        <time>2022-08-15T09:44:41Z</time>
      </trkpt>
      <trkpt lat="47.0361" lon="-1.64164">
        <ele>56</ele>
        <time>2022-08-15T09:44:44Z</time>
      </trkpt>
      <trkpt lat="47.03618" lon="-1.64149">
        <ele>55</ele>
        <time>2022-08-15T09:44:47Z</time>
      </trkpt>
      <trkpt lat="47.03627" lon="-1.64148">
        <ele>56</ele>
        <time>2022-08-15T09:44:49Z</time>
      </trkpt>
      <trkpt lat="47.03636" lon="-1.64145">
        <ele>56</ele>
        <time>2022-08-15T09:44:51Z</time>
      </trkpt>
      <trkpt lat="47.03647" lon="-1.64135">
        <ele>55</ele>
        <time>2022-08-15T09:44:54Z</time>
      </trkpt>
      <trkpt lat="47.03655" lon="-1.64129">
        <ele>53</ele>
        <time>2022-08-15T09:44:56Z</time>
      </trkpt>
      <trkpt lat="47.03666" lon="-1.64125">
        <ele>53</ele>
        <time>2022-08-15T09:44:58Z</time>
      </trkpt>
      <trkpt lat="47.03679" lon="-1.64122">
        <ele>53</ele>
        <time>2022-08-15T09:45:00Z</time>
      </trkpt>
      <trkpt lat="47.03693" lon="-1.64119">
        <ele>53</ele>
        <time>2022-08-15T09:45:02Z</time>
      </trkpt>
      <trkpt lat="47.03708" lon="-1.64116">
        <ele>53</ele>
        <time>2022-08-15T09:45:04Z</time>
      </trkpt>
      <trkpt lat="47.03722" lon="-1.64113">
        <ele>52</ele>
        <time>2022-08-15T09:45:06Z</time>
      </trkpt>
      <trkpt lat="47.03735" lon="-1.6411">
        <ele>52</ele>
        <time>2022-08-15T09:45:08Z</time>
      </trkpt>
      <trkpt lat="47.03746" lon="-1.64107">
        <ele>52</ele>
        <time>2022-08-15T09:45:10Z</time>
      </trkpt>
      <trkpt lat="47.03756" lon="-1.64105">
        <ele>51</ele>
        <time>2022-08-15T09:45:12Z</time>
      </trkpt>
      <trkpt lat="47.03768" lon="-1.64104">
        <ele>51</ele>
        <time>2022-08-15T09:45:14Z</time>
      </trkpt>
      <trkpt lat="47.03781" lon="-1.64101">
        <ele>51</ele>
        <time>2022-08-15T09:45:16Z</time>
      </trkpt>
      <trkpt lat="47.03794" lon="-1.64097">
        <ele>50</ele>
        <time>2022-08-15T09:45:18Z</time>
      </trkpt>
      <trkpt lat="47.03807" lon="-1.64094">
        <ele>51</ele>
        <time>2022-08-15T09:45:20Z</time>
      </trkpt>
      <trkpt lat="47.03819" lon="-1.64091">
        <ele>52</ele>
        <time>2022-08-15T09:45:22Z</time>
      </trkpt>
      <trkpt lat="47.03829" lon="-1.64087">
        <ele>52</ele>
        <time>2022-08-15T09:45:24Z</time>
      </trkpt>
      <trkpt lat="47.0384" lon="-1.64085">
        <ele>52</ele>
        <time>2022-08-15T09:45:26Z</time>
      </trkpt>
      <trkpt lat="47.03852" lon="-1.64085">
        <ele>52</ele>
        <time>2022-08-15T09:45:28Z</time>
      </trkpt>
      <trkpt lat="47.03864" lon="-1.64092">
        <ele>52</ele>
        <time>2022-08-15T09:45:30Z</time>
      </trkpt>
      <trkpt lat="47.03875" lon="-1.64097">
        <ele>52</ele>
        <time>2022-08-15T09:45:32Z</time>
      </trkpt>
      <trkpt lat="47.03889" lon="-1.64101">
        <ele>51</ele>
        <time>2022-08-15T09:45:34Z</time>
      </trkpt>
      <trkpt lat="47.03902" lon="-1.6411">
        <ele>52</ele>
        <time>2022-08-15T09:45:36Z</time>
      </trkpt>
      <trkpt lat="47.03914" lon="-1.64118">
        <ele>52</ele>
        <time>2022-08-15T09:45:38Z</time>
      </trkpt>
      <trkpt lat="47.03927" lon="-1.64126">
        <ele>52</ele>
        <time>2022-08-15T09:45:40Z</time>
      </trkpt>
      <trkpt lat="47.0394" lon="-1.64134">
        <ele>52</ele>
        <time>2022-08-15T09:45:42Z</time>
      </trkpt>
      <trkpt lat="47.0395" lon="-1.6414">
        <ele>52</ele>
        <time>2022-08-15T09:45:44Z</time>
      </trkpt>
      <trkpt lat="47.03961" lon="-1.64145">
        <ele>52</ele>
        <time>2022-08-15T09:45:48Z</time>
      </trkpt>
      <trkpt lat="47.03975" lon="-1.64144">
        <ele>53</ele>
        <time>2022-08-15T09:45:51Z</time>
      </trkpt>
      <trkpt lat="47.03987" lon="-1.64139">
        <ele>54</ele>
        <time>2022-08-15T09:45:53Z</time>
      </trkpt>
      <trkpt lat="47.03999" lon="-1.64132">
        <ele>53</ele>
        <time>2022-08-15T09:45:55Z</time>
      </trkpt>
      <trkpt lat="47.04011" lon="-1.64126">
        <ele>53</ele>
        <time>2022-08-15T09:45:57Z</time>
      </trkpt>
      <trkpt lat="47.04023" lon="-1.6412">
        <ele>52</ele>
        <time>2022-08-15T09:45:59Z</time>
      </trkpt>
      <trkpt lat="47.04036" lon="-1.64114">
        <ele>51</ele>
        <time>2022-08-15T09:46:01Z</time>
      </trkpt>
      <trkpt lat="47.0405" lon="-1.64108">
        <ele>51</ele>
        <time>2022-08-15T09:46:03Z</time>
      </trkpt>
      <trkpt lat="47.04064" lon="-1.64101">
        <ele>51</ele>
        <time>2022-08-15T09:46:05Z</time>
      </trkpt>
      <trkpt lat="47.04078" lon="-1.64094">
        <ele>52</ele>
        <time>2022-08-15T09:46:07Z</time>
      </trkpt>
      <trkpt lat="47.04093" lon="-1.64087">
        <ele>52</ele>
        <time>2022-08-15T09:46:09Z</time>
      </trkpt>
      <trkpt lat="47.04108" lon="-1.64081">
        <ele>52</ele>
        <time>2022-08-15T09:46:11Z</time>
      </trkpt>
      <trkpt lat="47.04123" lon="-1.64074">
        <ele>53</ele>
        <time>2022-08-15T09:46:13Z</time>
      </trkpt>
      <trkpt lat="47.04137" lon="-1.64067">
        <ele>53</ele>
        <time>2022-08-15T09:46:15Z</time>
      </trkpt>
      <trkpt lat="47.04151" lon="-1.64061">
        <ele>52</ele>
        <time>2022-08-15T09:46:17Z</time>
      </trkpt>
      <trkpt lat="47.04165" lon="-1.64055">
        <ele>52</ele>
        <time>2022-08-15T09:46:19Z</time>
      </trkpt>
      <trkpt lat="47.04179" lon="-1.64048">
        <ele>51</ele>
        <time>2022-08-15T09:46:21Z</time>
      </trkpt>
      <trkpt lat="47.04193" lon="-1.64043">
        <ele>51</ele>
        <time>2022-08-15T09:46:23Z</time>
      </trkpt>
      <trkpt lat="47.04207" lon="-1.64037">
        <ele>51</ele>
        <time>2022-08-15T09:46:25Z</time>
      </trkpt>
      <trkpt lat="47.04221" lon="-1.64031">
        <ele>51</ele>
        <time>2022-08-15T09:46:27Z</time>
      </trkpt>
      <trkpt lat="47.04234" lon="-1.64025">
        <ele>52</ele>
        <time>2022-08-15T09:46:29Z</time>
      </trkpt>
      <trkpt lat="47.04248" lon="-1.64019">
        <ele>52</ele>
        <time>2022-08-15T09:46:31Z</time>
      </trkpt>
      <trkpt lat="47.04262" lon="-1.64012">
        <ele>51</ele>
        <time>2022-08-15T09:46:33Z</time>
      </trkpt>
      <trkpt lat="47.04276" lon="-1.64006">
        <ele>51</ele>
        <time>2022-08-15T09:46:35Z</time>
      </trkpt>
      <trkpt lat="47.0429" lon="-1.64">
        <ele>51</ele>
        <time>2022-08-15T09:46:37Z</time>
      </trkpt>
      <trkpt lat="47.04303" lon="-1.63994">
        <ele>51</ele>
        <time>2022-08-15T09:46:39Z</time>
      </trkpt>
      <trkpt lat="47.04316" lon="-1.63989">
        <ele>51</ele>
        <time>2022-08-15T09:46:41Z</time>
      </trkpt>
      <trkpt lat="47.04329" lon="-1.63983">
        <ele>51</ele>
        <time>2022-08-15T09:46:43Z</time>
      </trkpt>
      <trkpt lat="47.04342" lon="-1.63978">
        <ele>51</ele>
        <time>2022-08-15T09:46:45Z</time>
      </trkpt>
      <trkpt lat="47.04355" lon="-1.63971">
        <ele>51</ele>
        <time>2022-08-15T09:46:47Z</time>
      </trkpt>
      <trkpt lat="47.04367" lon="-1.63965">
        <ele>51</ele>
        <time>2022-08-15T09:46:49Z</time>
      </trkpt>
      <trkpt lat="47.0438" lon="-1.6396">
        <ele>50</ele>
        <time>2022-08-15T09:46:51Z</time>
      </trkpt>
      <trkpt lat="47.04393" lon="-1.63953">
        <ele>50</ele>
        <time>2022-08-15T09:46:53Z</time>
      </trkpt>
      <trkpt lat="47.04406" lon="-1.63947">
        <ele>51</ele>
        <time>2022-08-15T09:46:55Z</time>
      </trkpt>
      <trkpt lat="47.04419" lon="-1.63941">
        <ele>51</ele>
        <time>2022-08-15T09:46:57Z</time>
      </trkpt>
      <trkpt lat="47.04433" lon="-1.63936">
        <ele>51</ele>
        <time>2022-08-15T09:46:59Z</time>
      </trkpt>
      <trkpt lat="47.04446" lon="-1.6393">
        <ele>51</ele>
        <time>2022-08-15T09:47:01Z</time>
      </trkpt>
      <trkpt lat="47.04457" lon="-1.63924">
        <ele>51</ele>
        <time>2022-08-15T09:47:03Z</time>
      </trkpt>
      <trkpt lat="47.04468" lon="-1.63913">
        <ele>51</ele>
        <time>2022-08-15T09:47:05Z</time>
      </trkpt>
      <trkpt lat="47.04482" lon="-1.6391">
        <ele>52</ele>
        <time>2022-08-15T09:47:07Z</time>
      </trkpt>
      <trkpt lat="47.04495" lon="-1.63904">
        <ele>51</ele>
        <time>2022-08-15T09:47:09Z</time>
      </trkpt>
      <trkpt lat="47.04509" lon="-1.63895">
        <ele>50</ele>
        <time>2022-08-15T09:47:11Z</time>
      </trkpt>
      <trkpt lat="47.04522" lon="-1.63887">
        <ele>49</ele>
        <time>2022-08-15T09:47:13Z</time>
      </trkpt>
      <trkpt lat="47.04536" lon="-1.63879">
        <ele>48</ele>
        <time>2022-08-15T09:47:15Z</time>
      </trkpt>
      <trkpt lat="47.04549" lon="-1.63871">
        <ele>48</ele>
        <time>2022-08-15T09:47:17Z</time>
      </trkpt>
      <trkpt lat="47.04562" lon="-1.63863">
        <ele>48</ele>
        <time>2022-08-15T09:47:19Z</time>
      </trkpt>
      <trkpt lat="47.04575" lon="-1.63855">
        <ele>48</ele>
        <time>2022-08-15T09:47:21Z</time>
      </trkpt>
      <trkpt lat="47.04588" lon="-1.63849">
        <ele>48</ele>
        <time>2022-08-15T09:47:23Z</time>
      </trkpt>
      <trkpt lat="47.04601" lon="-1.63845">
        <ele>49</ele>
        <time>2022-08-15T09:47:25Z</time>
      </trkpt>
      <trkpt lat="47.04614" lon="-1.63843">
        <ele>49</ele>
        <time>2022-08-15T09:47:27Z</time>
      </trkpt>
      <trkpt lat="47.04627" lon="-1.63841">
        <ele>49</ele>
        <time>2022-08-15T09:47:29Z</time>
      </trkpt>
      <trkpt lat="47.04638" lon="-1.6384">
        <ele>49</ele>
        <time>2022-08-15T09:47:31Z</time>
      </trkpt>
      <trkpt lat="47.0465" lon="-1.63835">
        <ele>49</ele>
        <time>2022-08-15T09:47:33Z</time>
      </trkpt>
      <trkpt lat="47.04661" lon="-1.63829">
        <ele>49</ele>
        <time>2022-08-15T09:47:35Z</time>
      </trkpt>
      <trkpt lat="47.04672" lon="-1.63822">
        <ele>50</ele>
        <time>2022-08-15T09:47:37Z</time>
      </trkpt>
      <trkpt lat="47.04682" lon="-1.63815">
        <ele>51</ele>
        <time>2022-08-15T09:47:39Z</time>
      </trkpt>
      <trkpt lat="47.04693" lon="-1.6381">
        <ele>51</ele>
        <time>2022-08-15T09:47:41Z</time>
      </trkpt>
      <trkpt lat="47.04704" lon="-1.63804">
        <ele>51</ele>
        <time>2022-08-15T09:47:43Z</time>
      </trkpt>
      <trkpt lat="47.04715" lon="-1.63798">
        <ele>52</ele>
        <time>2022-08-15T09:47:45Z</time>
      </trkpt>
      <trkpt lat="47.04727" lon="-1.63797">
        <ele>52</ele>
        <time>2022-08-15T09:47:47Z</time>
      </trkpt>
      <trkpt lat="47.0474" lon="-1.63799">
        <ele>53</ele>
        <time>2022-08-15T09:47:49Z</time>
      </trkpt>
      <trkpt lat="47.04752" lon="-1.63796">
        <ele>54</ele>
        <time>2022-08-15T09:47:51Z</time>
      </trkpt>
      <trkpt lat="47.04764" lon="-1.63791">
        <ele>54</ele>
        <time>2022-08-15T09:47:53Z</time>
      </trkpt>
      <trkpt lat="47.04775" lon="-1.63787">
        <ele>54</ele>
        <time>2022-08-15T09:47:55Z</time>
      </trkpt>
      <trkpt lat="47.04786" lon="-1.63783">
        <ele>55</ele>
        <time>2022-08-15T09:47:57Z</time>
      </trkpt>
      <trkpt lat="47.04798" lon="-1.6378">
        <ele>55</ele>
        <time>2022-08-15T09:47:59Z</time>
      </trkpt>
      <trkpt lat="47.04809" lon="-1.63778">
        <ele>56</ele>
        <time>2022-08-15T09:48:01Z</time>
      </trkpt>
      <trkpt lat="47.0482" lon="-1.63776">
        <ele>56</ele>
        <time>2022-08-15T09:48:03Z</time>
      </trkpt>
      <trkpt lat="47.04831" lon="-1.63773">
        <ele>56</ele>
        <time>2022-08-15T09:48:05Z</time>
      </trkpt>
      <trkpt lat="47.04842" lon="-1.63772">
        <ele>56</ele>
        <time>2022-08-15T09:48:07Z</time>
      </trkpt>
      <trkpt lat="47.04853" lon="-1.63769">
        <ele>56</ele>
        <time>2022-08-15T09:48:09Z</time>
      </trkpt>
      <trkpt lat="47.04864" lon="-1.63768">
        <ele>56</ele>
        <time>2022-08-15T09:48:11Z</time>
      </trkpt>
      <trkpt lat="47.04876" lon="-1.63766">
        <ele>55</ele>
        <time>2022-08-15T09:48:13Z</time>
      </trkpt>
      <trkpt lat="47.04888" lon="-1.63763">
        <ele>55</ele>
        <time>2022-08-15T09:48:15Z</time>
      </trkpt>
      <trkpt lat="47.04901" lon="-1.63761">
        <ele>55</ele>
        <time>2022-08-15T09:48:17Z</time>
      </trkpt>
      <trkpt lat="47.04913" lon="-1.63758">
        <ele>55</ele>
        <time>2022-08-15T09:48:19Z</time>
      </trkpt>
      <trkpt lat="47.04925" lon="-1.63752">
        <ele>55</ele>
        <time>2022-08-15T09:48:21Z</time>
      </trkpt>
      <trkpt lat="47.04936" lon="-1.63744">
        <ele>55</ele>
        <time>2022-08-15T09:48:23Z</time>
      </trkpt>
      <trkpt lat="47.04944" lon="-1.63728">
        <ele>55</ele>
        <time>2022-08-15T09:48:25Z</time>
      </trkpt>
      <trkpt lat="47.04947" lon="-1.63707">
        <ele>55</ele>
        <time>2022-08-15T09:48:27Z</time>
      </trkpt>
      <trkpt lat="47.04947" lon="-1.63685">
        <ele>54</ele>
        <time>2022-08-15T09:48:29Z</time>
      </trkpt>
      <trkpt lat="47.04946" lon="-1.63663">
        <ele>54</ele>
        <time>2022-08-15T09:48:31Z</time>
      </trkpt>
      <trkpt lat="47.04947" lon="-1.6364">
        <ele>54</ele>
        <time>2022-08-15T09:48:33Z</time>
      </trkpt>
      <trkpt lat="47.04951" lon="-1.63618">
        <ele>53</ele>
        <time>2022-08-15T09:48:35Z</time>
      </trkpt>
      <trkpt lat="47.04959" lon="-1.63597">
        <ele>52</ele>
        <time>2022-08-15T09:48:37Z</time>
      </trkpt>
      <trkpt lat="47.04971" lon="-1.63579">
        <ele>52</ele>
        <time>2022-08-15T09:48:39Z</time>
      </trkpt>
      <trkpt lat="47.04985" lon="-1.63565">
        <ele>51</ele>
        <time>2022-08-15T09:48:41Z</time>
      </trkpt>
      <trkpt lat="47.05" lon="-1.63555">
        <ele>50</ele>
        <time>2022-08-15T09:48:43Z</time>
      </trkpt>
      <trkpt lat="47.05016" lon="-1.63547">
        <ele>50</ele>
        <time>2022-08-15T09:48:45Z</time>
      </trkpt>
      <trkpt lat="47.05031" lon="-1.6354">
        <ele>50</ele>
        <time>2022-08-15T09:48:47Z</time>
      </trkpt>
      <trkpt lat="47.05046" lon="-1.63534">
        <ele>50</ele>
        <time>2022-08-15T09:48:49Z</time>
      </trkpt>
      <trkpt lat="47.05061" lon="-1.63529">
        <ele>50</ele>
        <time>2022-08-15T09:48:51Z</time>
      </trkpt>
      <trkpt lat="47.05076" lon="-1.63523">
        <ele>50</ele>
        <time>2022-08-15T09:48:53Z</time>
      </trkpt>
      <trkpt lat="47.05091" lon="-1.63518">
        <ele>50</ele>
        <time>2022-08-15T09:48:55Z</time>
      </trkpt>
      <trkpt lat="47.05106" lon="-1.63512">
        <ele>49</ele>
        <time>2022-08-15T09:48:57Z</time>
      </trkpt>
      <trkpt lat="47.0512" lon="-1.63506">
        <ele>49</ele>
        <time>2022-08-15T09:48:59Z</time>
      </trkpt>
      <trkpt lat="47.05134" lon="-1.635">
        <ele>49</ele>
        <time>2022-08-15T09:49:01Z</time>
      </trkpt>
      <trkpt lat="47.05149" lon="-1.63495">
        <ele>49</ele>
        <time>2022-08-15T09:49:03Z</time>
      </trkpt>
      <trkpt lat="47.05163" lon="-1.63489">
        <ele>49</ele>
        <time>2022-08-15T09:49:05Z</time>
      </trkpt>
      <trkpt lat="47.05178" lon="-1.63484">
        <ele>49</ele>
        <time>2022-08-15T09:49:07Z</time>
      </trkpt>
      <trkpt lat="47.05192" lon="-1.63478">
        <ele>49</ele>
        <time>2022-08-15T09:49:09Z</time>
      </trkpt>
      <trkpt lat="47.05206" lon="-1.63472">
        <ele>49</ele>
        <time>2022-08-15T09:49:11Z</time>
      </trkpt>
      <trkpt lat="47.0522" lon="-1.63467">
        <ele>49</ele>
        <time>2022-08-15T09:49:13Z</time>
      </trkpt>
      <trkpt lat="47.05234" lon="-1.63463">
        <ele>49</ele>
        <time>2022-08-15T09:49:15Z</time>
      </trkpt>
      <trkpt lat="47.05248" lon="-1.63459">
        <ele>49</ele>
        <time>2022-08-15T09:49:17Z</time>
      </trkpt>
      <trkpt lat="47.05262" lon="-1.63455">
        <ele>50</ele>
        <time>2022-08-15T09:49:19Z</time>
      </trkpt>
      <trkpt lat="47.05275" lon="-1.63452">
        <ele>50</ele>
        <time>2022-08-15T09:49:21Z</time>
      </trkpt>
      <trkpt lat="47.05289" lon="-1.63449">
        <ele>50</ele>
        <time>2022-08-15T09:49:23Z</time>
      </trkpt>
      <trkpt lat="47.05303" lon="-1.63447">
        <ele>51</ele>
        <time>2022-08-15T09:49:25Z</time>
      </trkpt>
      <trkpt lat="47.05318" lon="-1.63446">
        <ele>51</ele>
        <time>2022-08-15T09:49:27Z</time>
      </trkpt>
      <trkpt lat="47.05332" lon="-1.63445">
        <ele>50</ele>
        <time>2022-08-15T09:49:29Z</time>
      </trkpt>
      <trkpt lat="47.05345" lon="-1.63444">
        <ele>50</ele>
        <time>2022-08-15T09:49:31Z</time>
      </trkpt>
      <trkpt lat="47.05358" lon="-1.63438">
        <ele>50</ele>
        <time>2022-08-15T09:49:33Z</time>
      </trkpt>
      <trkpt lat="47.05371" lon="-1.63432">
        <ele>50</ele>
        <time>2022-08-15T09:49:35Z</time>
      </trkpt>
      <trkpt lat="47.05385" lon="-1.63431">
        <ele>50</ele>
        <time>2022-08-15T09:49:37Z</time>
      </trkpt>
      <trkpt lat="47.05399" lon="-1.63434">
        <ele>49</ele>
        <time>2022-08-15T09:49:39Z</time>
      </trkpt>
      <trkpt lat="47.05413" lon="-1.63432">
        <ele>49</ele>
        <time>2022-08-15T09:49:41Z</time>
      </trkpt>
      <trkpt lat="47.05427" lon="-1.63429">
        <ele>49</ele>
        <time>2022-08-15T09:49:43Z</time>
      </trkpt>
      <trkpt lat="47.05441" lon="-1.63426">
        <ele>50</ele>
        <time>2022-08-15T09:49:45Z</time>
      </trkpt>
      <trkpt lat="47.05455" lon="-1.63424">
        <ele>49</ele>
        <time>2022-08-15T09:49:47Z</time>
      </trkpt>
      <trkpt lat="47.0547" lon="-1.63422">
        <ele>49</ele>
        <time>2022-08-15T09:49:49Z</time>
      </trkpt>
      <trkpt lat="47.05484" lon="-1.6342">
        <ele>49</ele>
        <time>2022-08-15T09:49:51Z</time>
      </trkpt>
      <trkpt lat="47.05498" lon="-1.63418">
        <ele>49</ele>
        <time>2022-08-15T09:49:53Z</time>
      </trkpt>
      <trkpt lat="47.05512" lon="-1.63415">
        <ele>49</ele>
        <time>2022-08-15T09:49:55Z</time>
      </trkpt>
      <trkpt lat="47.05526" lon="-1.63411">
        <ele>50</ele>
        <time>2022-08-15T09:49:57Z</time>
      </trkpt>
      <trkpt lat="47.05539" lon="-1.63407">
        <ele>49</ele>
        <time>2022-08-15T09:49:59Z</time>
      </trkpt>
      <trkpt lat="47.05553" lon="-1.63403">
        <ele>49</ele>
        <time>2022-08-15T09:50:01Z</time>
      </trkpt>
      <trkpt lat="47.05567" lon="-1.63397">
        <ele>49</ele>
        <time>2022-08-15T09:50:03Z</time>
      </trkpt>
      <trkpt lat="47.0558" lon="-1.63391">
        <ele>50</ele>
        <time>2022-08-15T09:50:05Z</time>
      </trkpt>
      <trkpt lat="47.05593" lon="-1.63386">
        <ele>50</ele>
        <time>2022-08-15T09:50:07Z</time>
      </trkpt>
      <trkpt lat="47.05606" lon="-1.6338">
        <ele>49</ele>
        <time>2022-08-15T09:50:09Z</time>
      </trkpt>
      <trkpt lat="47.05618" lon="-1.63373">
        <ele>50</ele>
        <time>2022-08-15T09:50:11Z</time>
      </trkpt>
      <trkpt lat="47.05631" lon="-1.63368">
        <ele>49</ele>
        <time>2022-08-15T09:50:13Z</time>
      </trkpt>
      <trkpt lat="47.05644" lon="-1.63362">
        <ele>49</ele>
        <time>2022-08-15T09:50:15Z</time>
      </trkpt>
      <trkpt lat="47.05657" lon="-1.63356">
        <ele>50</ele>
        <time>2022-08-15T09:50:17Z</time>
      </trkpt>
      <trkpt lat="47.0567" lon="-1.6335">
        <ele>50</ele>
        <time>2022-08-15T09:50:19Z</time>
      </trkpt>
      <trkpt lat="47.05683" lon="-1.63343">
        <ele>50</ele>
        <time>2022-08-15T09:50:21Z</time>
      </trkpt>
      <trkpt lat="47.05697" lon="-1.63336">
        <ele>50</ele>
        <time>2022-08-15T09:50:23Z</time>
      </trkpt>
      <trkpt lat="47.0571" lon="-1.63331">
        <ele>51</ele>
        <time>2022-08-15T09:50:25Z</time>
      </trkpt>
      <trkpt lat="47.05724" lon="-1.63324">
        <ele>51</ele>
        <time>2022-08-15T09:50:27Z</time>
      </trkpt>
      <trkpt lat="47.05737" lon="-1.63318">
        <ele>51</ele>
        <time>2022-08-15T09:50:29Z</time>
      </trkpt>
      <trkpt lat="47.0575" lon="-1.63312">
        <ele>51</ele>
        <time>2022-08-15T09:50:31Z</time>
      </trkpt>
      <trkpt lat="47.05763" lon="-1.63306">
        <ele>51</ele>
        <time>2022-08-15T09:50:33Z</time>
      </trkpt>
      <trkpt lat="47.05777" lon="-1.633">
        <ele>52</ele>
        <time>2022-08-15T09:50:35Z</time>
      </trkpt>
      <trkpt lat="47.0579" lon="-1.63293">
        <ele>52</ele>
        <time>2022-08-15T09:50:37Z</time>
      </trkpt>
      <trkpt lat="47.05803" lon="-1.63287">
        <ele>52</ele>
        <time>2022-08-15T09:50:39Z</time>
      </trkpt>
      <trkpt lat="47.05816" lon="-1.63281">
        <ele>52</ele>
        <time>2022-08-15T09:50:41Z</time>
      </trkpt>
      <trkpt lat="47.05829" lon="-1.63274">
        <ele>52</ele>
        <time>2022-08-15T09:50:43Z</time>
      </trkpt>
      <trkpt lat="47.05842" lon="-1.63267">
        <ele>52</ele>
        <time>2022-08-15T09:50:45Z</time>
      </trkpt>
      <trkpt lat="47.05856" lon="-1.63262">
        <ele>52</ele>
        <time>2022-08-15T09:50:47Z</time>
      </trkpt>
      <trkpt lat="47.05869" lon="-1.63256">
        <ele>52</ele>
        <time>2022-08-15T09:50:49Z</time>
      </trkpt>
      <trkpt lat="47.05881" lon="-1.63249">
        <ele>52</ele>
        <time>2022-08-15T09:50:51Z</time>
      </trkpt>
      <trkpt lat="47.05895" lon="-1.63243">
        <ele>52</ele>
        <time>2022-08-15T09:50:53Z</time>
      </trkpt>
      <trkpt lat="47.05908" lon="-1.63237">
        <ele>52</ele>
        <time>2022-08-15T09:50:55Z</time>
      </trkpt>
      <trkpt lat="47.05921" lon="-1.6323">
        <ele>51</ele>
        <time>2022-08-15T09:50:57Z</time>
      </trkpt>
      <trkpt lat="47.05935" lon="-1.63224">
        <ele>51</ele>
        <time>2022-08-15T09:50:59Z</time>
      </trkpt>
      <trkpt lat="47.05948" lon="-1.63218">
        <ele>51</ele>
        <time>2022-08-15T09:51:01Z</time>
      </trkpt>
      <trkpt lat="47.05961" lon="-1.63212">
        <ele>51</ele>
        <time>2022-08-15T09:51:03Z</time>
      </trkpt>
      <trkpt lat="47.05975" lon="-1.63206">
        <ele>51</ele>
        <time>2022-08-15T09:51:05Z</time>
      </trkpt>
      <trkpt lat="47.05988" lon="-1.63199">
        <ele>52</ele>
        <time>2022-08-15T09:51:07Z</time>
      </trkpt>
      <trkpt lat="47.06001" lon="-1.63192">
        <ele>52</ele>
        <time>2022-08-15T09:51:09Z</time>
      </trkpt>
      <trkpt lat="47.06015" lon="-1.63186">
        <ele>51</ele>
        <time>2022-08-15T09:51:11Z</time>
      </trkpt>
      <trkpt lat="47.06029" lon="-1.6318">
        <ele>51</ele>
        <time>2022-08-15T09:51:13Z</time>
      </trkpt>
      <trkpt lat="47.06042" lon="-1.63174">
        <ele>51</ele>
        <time>2022-08-15T09:51:15Z</time>
      </trkpt>
      <trkpt lat="47.06055" lon="-1.63168">
        <ele>51</ele>
        <time>2022-08-15T09:51:17Z</time>
      </trkpt>
      <trkpt lat="47.06068" lon="-1.63161">
        <ele>51</ele>
        <time>2022-08-15T09:51:19Z</time>
      </trkpt>
      <trkpt lat="47.06081" lon="-1.63156">
        <ele>51</ele>
        <time>2022-08-15T09:51:21Z</time>
      </trkpt>
      <trkpt lat="47.06094" lon="-1.63149">
        <ele>51</ele>
        <time>2022-08-15T09:51:23Z</time>
      </trkpt>
      <trkpt lat="47.06107" lon="-1.63143">
        <ele>51</ele>
        <time>2022-08-15T09:51:25Z</time>
      </trkpt>
      <trkpt lat="47.06121" lon="-1.63136">
        <ele>51</ele>
        <time>2022-08-15T09:51:27Z</time>
      </trkpt>
      <trkpt lat="47.06134" lon="-1.6313">
        <ele>50</ele>
        <time>2022-08-15T09:51:29Z</time>
      </trkpt>
      <trkpt lat="47.06147" lon="-1.63124">
        <ele>50</ele>
        <time>2022-08-15T09:51:31Z</time>
      </trkpt>
      <trkpt lat="47.0616" lon="-1.63118">
        <ele>51</ele>
        <time>2022-08-15T09:51:33Z</time>
      </trkpt>
      <trkpt lat="47.06174" lon="-1.63112">
        <ele>51</ele>
        <time>2022-08-15T09:51:35Z</time>
      </trkpt>
      <trkpt lat="47.06187" lon="-1.63106">
        <ele>50</ele>
        <time>2022-08-15T09:51:37Z</time>
      </trkpt>
      <trkpt lat="47.062" lon="-1.631">
        <ele>50</ele>
        <time>2022-08-15T09:51:39Z</time>
      </trkpt>
      <trkpt lat="47.06212" lon="-1.63094">
        <ele>51</ele>
        <time>2022-08-15T09:51:41Z</time>
      </trkpt>
      <trkpt lat="47.06224" lon="-1.63088">
        <ele>51</ele>
        <time>2022-08-15T09:51:43Z</time>
      </trkpt>
      <trkpt lat="47.06237" lon="-1.63081">
        <ele>51</ele>
        <time>2022-08-15T09:51:45Z</time>
      </trkpt>
      <trkpt lat="47.06251" lon="-1.63075">
        <ele>51</ele>
        <time>2022-08-15T09:51:47Z</time>
      </trkpt>
      <trkpt lat="47.06263" lon="-1.63069">
        <ele>51</ele>
        <time>2022-08-15T09:51:49Z</time>
      </trkpt>
      <trkpt lat="47.06277" lon="-1.63063">
        <ele>51</ele>
        <time>2022-08-15T09:51:51Z</time>
      </trkpt>
      <trkpt lat="47.0629" lon="-1.63057">
        <ele>51</ele>
        <time>2022-08-15T09:51:53Z</time>
      </trkpt>
      <trkpt lat="47.06302" lon="-1.63051">
        <ele>51</ele>
        <time>2022-08-15T09:51:55Z</time>
      </trkpt>
      <trkpt lat="47.06315" lon="-1.63045">
        <ele>51</ele>
        <time>2022-08-15T09:51:57Z</time>
      </trkpt>
      <trkpt lat="47.06328" lon="-1.63038">
        <ele>51</ele>
        <time>2022-08-15T09:51:59Z</time>
      </trkpt>
      <trkpt lat="47.0634" lon="-1.63032">
        <ele>51</ele>
        <time>2022-08-15T09:52:01Z</time>
      </trkpt>
      <trkpt lat="47.06353" lon="-1.63026">
        <ele>50</ele>
        <time>2022-08-15T09:52:03Z</time>
      </trkpt>
      <trkpt lat="47.06365" lon="-1.6302">
        <ele>50</ele>
        <time>2022-08-15T09:52:05Z</time>
      </trkpt>
      <trkpt lat="47.06378" lon="-1.63015">
        <ele>50</ele>
        <time>2022-08-15T09:52:07Z</time>
      </trkpt>
      <trkpt lat="47.0639" lon="-1.6301">
        <ele>50</ele>
        <time>2022-08-15T09:52:09Z</time>
      </trkpt>
      <trkpt lat="47.06403" lon="-1.63004">
        <ele>50</ele>
        <time>2022-08-15T09:52:11Z</time>
      </trkpt>
      <trkpt lat="47.06415" lon="-1.62999">
        <ele>50</ele>
        <time>2022-08-15T09:52:13Z</time>
      </trkpt>
      <trkpt lat="47.06427" lon="-1.62993">
        <ele>50</ele>
        <time>2022-08-15T09:52:15Z</time>
      </trkpt>
      <trkpt lat="47.06439" lon="-1.62987">
        <ele>50</ele>
        <time>2022-08-15T09:52:17Z</time>
      </trkpt>
      <trkpt lat="47.06451" lon="-1.62981">
        <ele>51</ele>
        <time>2022-08-15T09:52:19Z</time>
      </trkpt>
      <trkpt lat="47.06464" lon="-1.62975">
        <ele>50</ele>
        <time>2022-08-15T09:52:21Z</time>
      </trkpt>
      <trkpt lat="47.06476" lon="-1.62968">
        <ele>51</ele>
        <time>2022-08-15T09:52:23Z</time>
      </trkpt>
      <trkpt lat="47.06488" lon="-1.6296">
        <ele>51</ele>
        <time>2022-08-15T09:52:25Z</time>
      </trkpt>
      <trkpt lat="47.065" lon="-1.62951">
        <ele>51</ele>
        <time>2022-08-15T09:52:27Z</time>
      </trkpt>
      <trkpt lat="47.06512" lon="-1.6294">
        <ele>51</ele>
        <time>2022-08-15T09:52:29Z</time>
      </trkpt>
      <trkpt lat="47.06523" lon="-1.62928">
        <ele>51</ele>
        <time>2022-08-15T09:52:31Z</time>
      </trkpt>
      <trkpt lat="47.06534" lon="-1.62915">
        <ele>51</ele>
        <time>2022-08-15T09:52:33Z</time>
      </trkpt>
      <trkpt lat="47.06543" lon="-1.629">
        <ele>52</ele>
        <time>2022-08-15T09:52:35Z</time>
      </trkpt>
      <trkpt lat="47.06553" lon="-1.62886">
        <ele>52</ele>
        <time>2022-08-15T09:52:37Z</time>
      </trkpt>
      <trkpt lat="47.06563" lon="-1.62871">
        <ele>52</ele>
        <time>2022-08-15T09:52:39Z</time>
      </trkpt>
      <trkpt lat="47.06573" lon="-1.62855">
        <ele>52</ele>
        <time>2022-08-15T09:52:41Z</time>
      </trkpt>
      <trkpt lat="47.06583" lon="-1.6284">
        <ele>51</ele>
        <time>2022-08-15T09:52:43Z</time>
      </trkpt>
      <trkpt lat="47.06593" lon="-1.62825">
        <ele>51</ele>
        <time>2022-08-15T09:52:45Z</time>
      </trkpt>
      <trkpt lat="47.06603" lon="-1.62809">
        <ele>51</ele>
        <time>2022-08-15T09:52:47Z</time>
      </trkpt>
      <trkpt lat="47.06613" lon="-1.62793">
        <ele>51</ele>
        <time>2022-08-15T09:52:49Z</time>
      </trkpt>
      <trkpt lat="47.06623" lon="-1.62778">
        <ele>51</ele>
        <time>2022-08-15T09:52:51Z</time>
      </trkpt>
      <trkpt lat="47.06634" lon="-1.62762">
        <ele>51</ele>
        <time>2022-08-15T09:52:53Z</time>
      </trkpt>
      <trkpt lat="47.06644" lon="-1.62747">
        <ele>51</ele>
        <time>2022-08-15T09:52:55Z</time>
      </trkpt>
      <trkpt lat="47.06654" lon="-1.62731">
        <ele>51</ele>
        <time>2022-08-15T09:52:57Z</time>
      </trkpt>
      <trkpt lat="47.06664" lon="-1.62716">
        <ele>51</ele>
        <time>2022-08-15T09:52:59Z</time>
      </trkpt>
      <trkpt lat="47.06674" lon="-1.627">
        <ele>51</ele>
        <time>2022-08-15T09:53:01Z</time>
      </trkpt>
      <trkpt lat="47.06684" lon="-1.62685">
        <ele>51</ele>
        <time>2022-08-15T09:53:03Z</time>
      </trkpt>
      <trkpt lat="47.06694" lon="-1.62669">
        <ele>50</ele>
        <time>2022-08-15T09:53:05Z</time>
      </trkpt>
      <trkpt lat="47.06705" lon="-1.62654">
        <ele>50</ele>
        <time>2022-08-15T09:53:07Z</time>
      </trkpt>
      <trkpt lat="47.06716" lon="-1.62641">
        <ele>50</ele>
        <time>2022-08-15T09:53:09Z</time>
      </trkpt>
      <trkpt lat="47.06727" lon="-1.62628">
        <ele>50</ele>
        <time>2022-08-15T09:53:11Z</time>
      </trkpt>
      <trkpt lat="47.06739" lon="-1.62616">
        <ele>50</ele>
        <time>2022-08-15T09:53:13Z</time>
      </trkpt>
      <trkpt lat="47.06752" lon="-1.62604">
        <ele>50</ele>
        <time>2022-08-15T09:53:15Z</time>
      </trkpt>
      <trkpt lat="47.06764" lon="-1.62593">
        <ele>50</ele>
        <time>2022-08-15T09:53:17Z</time>
      </trkpt>
      <trkpt lat="47.06776" lon="-1.62582">
        <ele>51</ele>
        <time>2022-08-15T09:53:19Z</time>
      </trkpt>
      <trkpt lat="47.06788" lon="-1.62571">
        <ele>51</ele>
        <time>2022-08-15T09:53:21Z</time>
      </trkpt>
      <trkpt lat="47.068" lon="-1.6256">
        <ele>51</ele>
        <time>2022-08-15T09:53:23Z</time>
      </trkpt>
      <trkpt lat="47.06812" lon="-1.62548">
        <ele>52</ele>
        <time>2022-08-15T09:53:25Z</time>
      </trkpt>
      <trkpt lat="47.06824" lon="-1.62537">
        <ele>53</ele>
        <time>2022-08-15T09:53:27Z</time>
      </trkpt>
      <trkpt lat="47.06836" lon="-1.62527">
        <ele>54</ele>
        <time>2022-08-15T09:53:29Z</time>
      </trkpt>
      <trkpt lat="47.06849" lon="-1.62516">
        <ele>55</ele>
        <time>2022-08-15T09:53:31Z</time>
      </trkpt>
      <trkpt lat="47.06862" lon="-1.62507">
        <ele>55</ele>
        <time>2022-08-15T09:53:33Z</time>
      </trkpt>
      <trkpt lat="47.06876" lon="-1.62498">
        <ele>55</ele>
        <time>2022-08-15T09:53:35Z</time>
      </trkpt>
      <trkpt lat="47.0689" lon="-1.6249">
        <ele>55</ele>
        <time>2022-08-15T09:53:37Z</time>
      </trkpt>
      <trkpt lat="47.06905" lon="-1.62483">
        <ele>55</ele>
        <time>2022-08-15T09:53:39Z</time>
      </trkpt>
      <trkpt lat="47.0692" lon="-1.62476">
        <ele>55</ele>
        <time>2022-08-15T09:53:41Z</time>
      </trkpt>
      <trkpt lat="47.06935" lon="-1.6247">
        <ele>56</ele>
        <time>2022-08-15T09:53:43Z</time>
      </trkpt>
      <trkpt lat="47.06949" lon="-1.62463">
        <ele>56</ele>
        <time>2022-08-15T09:53:45Z</time>
      </trkpt>
      <trkpt lat="47.06963" lon="-1.62457">
        <ele>56</ele>
        <time>2022-08-15T09:53:47Z</time>
      </trkpt>
      <trkpt lat="47.06976" lon="-1.6245">
        <ele>56</ele>
        <time>2022-08-15T09:53:49Z</time>
      </trkpt>
      <trkpt lat="47.0699" lon="-1.62444">
        <ele>56</ele>
        <time>2022-08-15T09:53:51Z</time>
      </trkpt>
      <trkpt lat="47.07003" lon="-1.62439">
        <ele>58</ele>
        <time>2022-08-15T09:53:53Z</time>
      </trkpt>
      <trkpt lat="47.07015" lon="-1.62433">
        <ele>59</ele>
        <time>2022-08-15T09:53:55Z</time>
      </trkpt>
      <trkpt lat="47.07028" lon="-1.62427">
        <ele>59</ele>
        <time>2022-08-15T09:53:57Z</time>
      </trkpt>
      <trkpt lat="47.0704" lon="-1.62421">
        <ele>59</ele>
        <time>2022-08-15T09:53:59Z</time>
      </trkpt>
      <trkpt lat="47.07053" lon="-1.62414">
        <ele>59</ele>
        <time>2022-08-15T09:54:01Z</time>
      </trkpt>
      <trkpt lat="47.07066" lon="-1.62407">
        <ele>59</ele>
        <time>2022-08-15T09:54:03Z</time>
      </trkpt>
      <trkpt lat="47.07079" lon="-1.62399">
        <ele>59</ele>
        <time>2022-08-15T09:54:05Z</time>
      </trkpt>
      <trkpt lat="47.07091" lon="-1.62389">
        <ele>59</ele>
        <time>2022-08-15T09:54:07Z</time>
      </trkpt>
      <trkpt lat="47.07104" lon="-1.6238">
        <ele>59</ele>
        <time>2022-08-15T09:54:09Z</time>
      </trkpt>
      <trkpt lat="47.07117" lon="-1.62372">
        <ele>59</ele>
        <time>2022-08-15T09:54:11Z</time>
      </trkpt>
      <trkpt lat="47.0713" lon="-1.62362">
        <ele>59</ele>
        <time>2022-08-15T09:54:13Z</time>
      </trkpt>
      <trkpt lat="47.07145" lon="-1.62353">
        <ele>58</ele>
        <time>2022-08-15T09:54:15Z</time>
      </trkpt>
      <trkpt lat="47.0716" lon="-1.62342">
        <ele>56</ele>
        <time>2022-08-15T09:54:17Z</time>
      </trkpt>
      <trkpt lat="47.07174" lon="-1.62333">
        <ele>55</ele>
        <time>2022-08-15T09:54:19Z</time>
      </trkpt>
      <trkpt lat="47.07188" lon="-1.62323">
        <ele>55</ele>
        <time>2022-08-15T09:54:21Z</time>
      </trkpt>
      <trkpt lat="47.07202" lon="-1.62315">
        <ele>54</ele>
        <time>2022-08-15T09:54:23Z</time>
      </trkpt>
      <trkpt lat="47.07215" lon="-1.62306">
        <ele>54</ele>
        <time>2022-08-15T09:54:25Z</time>
      </trkpt>
      <trkpt lat="47.07228" lon="-1.62297">
        <ele>53</ele>
        <time>2022-08-15T09:54:27Z</time>
      </trkpt>
      <trkpt lat="47.07241" lon="-1.62288">
        <ele>53</ele>
        <time>2022-08-15T09:54:29Z</time>
      </trkpt>
      <trkpt lat="47.07254" lon="-1.62279">
        <ele>53</ele>
        <time>2022-08-15T09:54:31Z</time>
      </trkpt>
      <trkpt lat="47.07265" lon="-1.62269">
        <ele>52</ele>
        <time>2022-08-15T09:54:33Z</time>
      </trkpt>
      <trkpt lat="47.07277" lon="-1.62258">
        <ele>52</ele>
        <time>2022-08-15T09:54:35Z</time>
      </trkpt>
      <trkpt lat="47.07288" lon="-1.62246">
        <ele>51</ele>
        <time>2022-08-15T09:54:37Z</time>
      </trkpt>
      <trkpt lat="47.07299" lon="-1.62233">
        <ele>51</ele>
        <time>2022-08-15T09:54:39Z</time>
      </trkpt>
      <trkpt lat="47.0731" lon="-1.6222">
        <ele>51</ele>
        <time>2022-08-15T09:54:41Z</time>
      </trkpt>
      <trkpt lat="47.0732" lon="-1.62205">
        <ele>51</ele>
        <time>2022-08-15T09:54:43Z</time>
      </trkpt>
      <trkpt lat="47.07329" lon="-1.62191">
        <ele>51</ele>
        <time>2022-08-15T09:54:45Z</time>
      </trkpt>
      <trkpt lat="47.07339" lon="-1.62177">
        <ele>51</ele>
        <time>2022-08-15T09:54:47Z</time>
      </trkpt>
      <trkpt lat="47.07348" lon="-1.62162">
        <ele>51</ele>
        <time>2022-08-15T09:54:49Z</time>
      </trkpt>
      <trkpt lat="47.07358" lon="-1.62148">
        <ele>51</ele>
        <time>2022-08-15T09:54:51Z</time>
      </trkpt>
      <trkpt lat="47.07367" lon="-1.62132">
        <ele>51</ele>
        <time>2022-08-15T09:54:53Z</time>
      </trkpt>
      <trkpt lat="47.07377" lon="-1.62117">
        <ele>51</ele>
        <time>2022-08-15T09:54:55Z</time>
      </trkpt>
      <trkpt lat="47.07386" lon="-1.62101">
        <ele>51</ele>
        <time>2022-08-15T09:54:57Z</time>
      </trkpt>
      <trkpt lat="47.07396" lon="-1.62086">
        <ele>51</ele>
        <time>2022-08-15T09:54:59Z</time>
      </trkpt>
      <trkpt lat="47.07405" lon="-1.6207">
        <ele>51</ele>
        <time>2022-08-15T09:55:01Z</time>
      </trkpt>
      <trkpt lat="47.07414" lon="-1.62055">
        <ele>51</ele>
        <time>2022-08-15T09:55:03Z</time>
      </trkpt>
      <trkpt lat="47.07424" lon="-1.6204">
        <ele>51</ele>
        <time>2022-08-15T09:55:05Z</time>
      </trkpt>
      <trkpt lat="47.07435" lon="-1.62024">
        <ele>51</ele>
        <time>2022-08-15T09:55:07Z</time>
      </trkpt>
      <trkpt lat="47.07445" lon="-1.62009">
        <ele>51</ele>
        <time>2022-08-15T09:55:09Z</time>
      </trkpt>
      <trkpt lat="47.07455" lon="-1.61994">
        <ele>51</ele>
        <time>2022-08-15T09:55:11Z</time>
      </trkpt>
      <trkpt lat="47.07466" lon="-1.61981">
        <ele>51</ele>
        <time>2022-08-15T09:55:13Z</time>
      </trkpt>
      <trkpt lat="47.07478" lon="-1.61967">
        <ele>51</ele>
        <time>2022-08-15T09:55:15Z</time>
      </trkpt>
      <trkpt lat="47.07489" lon="-1.61954">
        <ele>51</ele>
        <time>2022-08-15T09:55:17Z</time>
      </trkpt>
      <trkpt lat="47.07501" lon="-1.61941">
        <ele>51</ele>
        <time>2022-08-15T09:55:19Z</time>
      </trkpt>
      <trkpt lat="47.07512" lon="-1.61928">
        <ele>51</ele>
        <time>2022-08-15T09:55:21Z</time>
      </trkpt>
      <trkpt lat="47.07523" lon="-1.61914">
        <ele>51</ele>
        <time>2022-08-15T09:55:23Z</time>
      </trkpt>
      <trkpt lat="47.07534" lon="-1.619">
        <ele>51</ele>
        <time>2022-08-15T09:55:25Z</time>
      </trkpt>
      <trkpt lat="47.07545" lon="-1.61888">
        <ele>52</ele>
        <time>2022-08-15T09:55:27Z</time>
      </trkpt>
      <trkpt lat="47.07556" lon="-1.61876">
        <ele>52</ele>
        <time>2022-08-15T09:55:29Z</time>
      </trkpt>
      <trkpt lat="47.07567" lon="-1.61863">
        <ele>52</ele>
        <time>2022-08-15T09:55:31Z</time>
      </trkpt>
      <trkpt lat="47.07578" lon="-1.6185">
        <ele>52</ele>
        <time>2022-08-15T09:55:33Z</time>
      </trkpt>
      <trkpt lat="47.07589" lon="-1.61837">
        <ele>53</ele>
        <time>2022-08-15T09:55:35Z</time>
      </trkpt>
      <trkpt lat="47.07599" lon="-1.61824">
        <ele>53</ele>
        <time>2022-08-15T09:55:37Z</time>
      </trkpt>
      <trkpt lat="47.0761" lon="-1.61811">
        <ele>53</ele>
        <time>2022-08-15T09:55:39Z</time>
      </trkpt>
      <trkpt lat="47.07622" lon="-1.61798">
        <ele>53</ele>
        <time>2022-08-15T09:55:41Z</time>
      </trkpt>
      <trkpt lat="47.07633" lon="-1.61784">
        <ele>53</ele>
        <time>2022-08-15T09:55:43Z</time>
      </trkpt>
      <trkpt lat="47.07645" lon="-1.6177">
        <ele>53</ele>
        <time>2022-08-15T09:55:45Z</time>
      </trkpt>
      <trkpt lat="47.07657" lon="-1.61757">
        <ele>54</ele>
        <time>2022-08-15T09:55:47Z</time>
      </trkpt>
      <trkpt lat="47.07668" lon="-1.61742">
        <ele>54</ele>
        <time>2022-08-15T09:55:49Z</time>
      </trkpt>
      <trkpt lat="47.07681" lon="-1.61728">
        <ele>53</ele>
        <time>2022-08-15T09:55:51Z</time>
      </trkpt>
      <trkpt lat="47.07694" lon="-1.61713">
        <ele>53</ele>
        <time>2022-08-15T09:55:53Z</time>
      </trkpt>
      <trkpt lat="47.07707" lon="-1.617">
        <ele>52</ele>
        <time>2022-08-15T09:55:55Z</time>
      </trkpt>
      <trkpt lat="47.07719" lon="-1.61686">
        <ele>52</ele>
        <time>2022-08-15T09:55:57Z</time>
      </trkpt>
      <trkpt lat="47.07731" lon="-1.61673">
        <ele>53</ele>
        <time>2022-08-15T09:55:59Z</time>
      </trkpt>
      <trkpt lat="47.07743" lon="-1.61659">
        <ele>53</ele>
        <time>2022-08-15T09:56:01Z</time>
      </trkpt>
      <trkpt lat="47.07754" lon="-1.61646">
        <ele>53</ele>
        <time>2022-08-15T09:56:03Z</time>
      </trkpt>
      <trkpt lat="47.07765" lon="-1.61632">
        <ele>54</ele>
        <time>2022-08-15T09:56:05Z</time>
      </trkpt>
      <trkpt lat="47.07777" lon="-1.61619">
        <ele>54</ele>
        <time>2022-08-15T09:56:07Z</time>
      </trkpt>
      <trkpt lat="47.07788" lon="-1.61606">
        <ele>54</ele>
        <time>2022-08-15T09:56:09Z</time>
      </trkpt>
      <trkpt lat="47.07801" lon="-1.61596">
        <ele>53</ele>
        <time>2022-08-15T09:56:11Z</time>
      </trkpt>
      <trkpt lat="47.07813" lon="-1.61586">
        <ele>54</ele>
        <time>2022-08-15T09:56:13Z</time>
      </trkpt>
      <trkpt lat="47.07826" lon="-1.61578">
        <ele>54</ele>
        <time>2022-08-15T09:56:15Z</time>
      </trkpt>
      <trkpt lat="47.07838" lon="-1.6157">
        <ele>53</ele>
        <time>2022-08-15T09:56:17Z</time>
      </trkpt>
      <trkpt lat="47.07851" lon="-1.61564">
        <ele>53</ele>
        <time>2022-08-15T09:56:19Z</time>
      </trkpt>
      <trkpt lat="47.07864" lon="-1.61558">
        <ele>53</ele>
        <time>2022-08-15T09:56:21Z</time>
      </trkpt>
      <trkpt lat="47.07877" lon="-1.61552">
        <ele>53</ele>
        <time>2022-08-15T09:56:23Z</time>
      </trkpt>
      <trkpt lat="47.07889" lon="-1.61547">
        <ele>53</ele>
        <time>2022-08-15T09:56:25Z</time>
      </trkpt>
      <trkpt lat="47.07902" lon="-1.61541">
        <ele>53</ele>
        <time>2022-08-15T09:56:27Z</time>
      </trkpt>
      <trkpt lat="47.07915" lon="-1.61534">
        <ele>53</ele>
        <time>2022-08-15T09:56:29Z</time>
      </trkpt>
      <trkpt lat="47.07929" lon="-1.61529">
        <ele>54</ele>
        <time>2022-08-15T09:56:31Z</time>
      </trkpt>
      <trkpt lat="47.07942" lon="-1.61523">
        <ele>54</ele>
        <time>2022-08-15T09:56:33Z</time>
      </trkpt>
      <trkpt lat="47.07956" lon="-1.61518">
        <ele>53</ele>
        <time>2022-08-15T09:56:35Z</time>
      </trkpt>
      <trkpt lat="47.0797" lon="-1.61513">
        <ele>53</ele>
        <time>2022-08-15T09:56:37Z</time>
      </trkpt>
      <trkpt lat="47.07982" lon="-1.61506">
        <ele>52</ele>
        <time>2022-08-15T09:56:39Z</time>
      </trkpt>
      <trkpt lat="47.07996" lon="-1.61501">
        <ele>52</ele>
        <time>2022-08-15T09:56:41Z</time>
      </trkpt>
      <trkpt lat="47.08009" lon="-1.61496">
        <ele>52</ele>
        <time>2022-08-15T09:56:43Z</time>
      </trkpt>
      <trkpt lat="47.08022" lon="-1.6149">
        <ele>52</ele>
        <time>2022-08-15T09:56:45Z</time>
      </trkpt>
      <trkpt lat="47.08035" lon="-1.61484">
        <ele>52</ele>
        <time>2022-08-15T09:56:47Z</time>
      </trkpt>
      <trkpt lat="47.08048" lon="-1.61478">
        <ele>52</ele>
        <time>2022-08-15T09:56:49Z</time>
      </trkpt>
      <trkpt lat="47.08061" lon="-1.61472">
        <ele>51</ele>
        <time>2022-08-15T09:56:51Z</time>
      </trkpt>
      <trkpt lat="47.08074" lon="-1.61466">
        <ele>51</ele>
        <time>2022-08-15T09:56:53Z</time>
      </trkpt>
      <trkpt lat="47.08087" lon="-1.61461">
        <ele>51</ele>
        <time>2022-08-15T09:56:55Z</time>
      </trkpt>
      <trkpt lat="47.081" lon="-1.61456">
        <ele>51</ele>
        <time>2022-08-15T09:56:57Z</time>
      </trkpt>
      <trkpt lat="47.08113" lon="-1.61449">
        <ele>51</ele>
        <time>2022-08-15T09:56:59Z</time>
      </trkpt>
      <trkpt lat="47.08126" lon="-1.61444">
        <ele>51</ele>
        <time>2022-08-15T09:57:01Z</time>
      </trkpt>
      <trkpt lat="47.0814" lon="-1.61438">
        <ele>51</ele>
        <time>2022-08-15T09:57:03Z</time>
      </trkpt>
      <trkpt lat="47.08154" lon="-1.61433">
        <ele>51</ele>
        <time>2022-08-15T09:57:05Z</time>
      </trkpt>
      <trkpt lat="47.08168" lon="-1.61428">
        <ele>50</ele>
        <time>2022-08-15T09:57:07Z</time>
      </trkpt>
      <trkpt lat="47.08182" lon="-1.61422">
        <ele>50</ele>
        <time>2022-08-15T09:57:09Z</time>
      </trkpt>
      <trkpt lat="47.08196" lon="-1.61416">
        <ele>50</ele>
        <time>2022-08-15T09:57:11Z</time>
      </trkpt>
      <trkpt lat="47.0821" lon="-1.6141">
        <ele>49</ele>
        <time>2022-08-15T09:57:13Z</time>
      </trkpt>
      <trkpt lat="47.08224" lon="-1.61405">
        <ele>50</ele>
        <time>2022-08-15T09:57:15Z</time>
      </trkpt>
      <trkpt lat="47.08237" lon="-1.61398">
        <ele>50</ele>
        <time>2022-08-15T09:57:17Z</time>
      </trkpt>
      <trkpt lat="47.08258" lon="-1.61389">
        <ele>51</ele>
        <time>2022-08-15T09:57:20Z</time>
      </trkpt>
      <trkpt lat="47.08279" lon="-1.6138">
        <ele>51</ele>
        <time>2022-08-15T09:57:23Z</time>
      </trkpt>
      <trkpt lat="47.08292" lon="-1.61374">
        <ele>51</ele>
        <time>2022-08-15T09:57:25Z</time>
      </trkpt>
      <trkpt lat="47.08306" lon="-1.61368">
        <ele>51</ele>
        <time>2022-08-15T09:57:27Z</time>
      </trkpt>
      <trkpt lat="47.08327" lon="-1.6136">
        <ele>51</ele>
        <time>2022-08-15T09:57:30Z</time>
      </trkpt>
      <trkpt lat="47.08341" lon="-1.61354">
        <ele>51</ele>
        <time>2022-08-15T09:57:32Z</time>
      </trkpt>
      <trkpt lat="47.08356" lon="-1.61348">
        <ele>51</ele>
        <time>2022-08-15T09:57:34Z</time>
      </trkpt>
      <trkpt lat="47.08369" lon="-1.61341">
        <ele>51</ele>
        <time>2022-08-15T09:57:36Z</time>
      </trkpt>
      <trkpt lat="47.08383" lon="-1.61336">
        <ele>51</ele>
        <time>2022-08-15T09:57:38Z</time>
      </trkpt>
      <trkpt lat="47.08397" lon="-1.6133">
        <ele>50</ele>
        <time>2022-08-15T09:57:40Z</time>
      </trkpt>
      <trkpt lat="47.08411" lon="-1.61324">
        <ele>50</ele>
        <time>2022-08-15T09:57:42Z</time>
      </trkpt>
      <trkpt lat="47.08424" lon="-1.61318">
        <ele>50</ele>
        <time>2022-08-15T09:57:44Z</time>
      </trkpt>
      <trkpt lat="47.08438" lon="-1.61312">
        <ele>50</ele>
        <time>2022-08-15T09:57:46Z</time>
      </trkpt>
      <trkpt lat="47.08452" lon="-1.61306">
        <ele>51</ele>
        <time>2022-08-15T09:57:48Z</time>
      </trkpt>
      <trkpt lat="47.08465" lon="-1.613">
        <ele>51</ele>
        <time>2022-08-15T09:57:50Z</time>
      </trkpt>
      <trkpt lat="47.08477" lon="-1.61295">
        <ele>51</ele>
        <time>2022-08-15T09:57:52Z</time>
      </trkpt>
      <trkpt lat="47.0849" lon="-1.61288">
        <ele>50</ele>
        <time>2022-08-15T09:57:54Z</time>
      </trkpt>
      <trkpt lat="47.08504" lon="-1.61282">
        <ele>51</ele>
        <time>2022-08-15T09:57:56Z</time>
      </trkpt>
      <trkpt lat="47.08517" lon="-1.61278">
        <ele>51</ele>
        <time>2022-08-15T09:57:58Z</time>
      </trkpt>
      <trkpt lat="47.08531" lon="-1.61272">
        <ele>51</ele>
        <time>2022-08-15T09:58:00Z</time>
      </trkpt>
      <trkpt lat="47.08544" lon="-1.61266">
        <ele>51</ele>
        <time>2022-08-15T09:58:02Z</time>
      </trkpt>
      <trkpt lat="47.08558" lon="-1.6126">
        <ele>52</ele>
        <time>2022-08-15T09:58:04Z</time>
      </trkpt>
      <trkpt lat="47.08571" lon="-1.61255">
        <ele>52</ele>
        <time>2022-08-15T09:58:06Z</time>
      </trkpt>
      <trkpt lat="47.08584" lon="-1.61249">
        <ele>52</ele>
        <time>2022-08-15T09:58:08Z</time>
      </trkpt>
      <trkpt lat="47.08597" lon="-1.61243">
        <ele>52</ele>
        <time>2022-08-15T09:58:10Z</time>
      </trkpt>
      <trkpt lat="47.0861" lon="-1.61237">
        <ele>52</ele>
        <time>2022-08-15T09:58:12Z</time>
      </trkpt>
      <trkpt lat="47.08623" lon="-1.61232">
        <ele>53</ele>
        <time>2022-08-15T09:58:14Z</time>
      </trkpt>
      <trkpt lat="47.08636" lon="-1.61227">
        <ele>53</ele>
        <time>2022-08-15T09:58:16Z</time>
      </trkpt>
      <trkpt lat="47.08649" lon="-1.61221">
        <ele>52</ele>
        <time>2022-08-15T09:58:18Z</time>
      </trkpt>
      <trkpt lat="47.08663" lon="-1.61216">
        <ele>52</ele>
        <time>2022-08-15T09:58:20Z</time>
      </trkpt>
      <trkpt lat="47.08675" lon="-1.61211">
        <ele>53</ele>
        <time>2022-08-15T09:58:22Z</time>
      </trkpt>
      <trkpt lat="47.08688" lon="-1.61205">
        <ele>53</ele>
        <time>2022-08-15T09:58:24Z</time>
      </trkpt>
      <trkpt lat="47.08701" lon="-1.612">
        <ele>53</ele>
        <time>2022-08-15T09:58:26Z</time>
      </trkpt>
      <trkpt lat="47.08715" lon="-1.61194">
        <ele>53</ele>
        <time>2022-08-15T09:58:28Z</time>
      </trkpt>
      <trkpt lat="47.08728" lon="-1.61187">
        <ele>53</ele>
        <time>2022-08-15T09:58:30Z</time>
      </trkpt>
      <trkpt lat="47.08741" lon="-1.61182">
        <ele>53</ele>
        <time>2022-08-15T09:58:32Z</time>
      </trkpt>
      <trkpt lat="47.08755" lon="-1.61176">
        <ele>54</ele>
        <time>2022-08-15T09:58:34Z</time>
      </trkpt>
      <trkpt lat="47.08768" lon="-1.61171">
        <ele>54</ele>
        <time>2022-08-15T09:58:36Z</time>
      </trkpt>
      <trkpt lat="47.0878" lon="-1.61166">
        <ele>54</ele>
        <time>2022-08-15T09:58:38Z</time>
      </trkpt>
      <trkpt lat="47.08793" lon="-1.6116">
        <ele>54</ele>
        <time>2022-08-15T09:58:40Z</time>
      </trkpt>
      <trkpt lat="47.08805" lon="-1.61156">
        <ele>54</ele>
        <time>2022-08-15T09:58:42Z</time>
      </trkpt>
      <trkpt lat="47.08818" lon="-1.6115">
        <ele>54</ele>
        <time>2022-08-15T09:58:44Z</time>
      </trkpt>
      <trkpt lat="47.0883" lon="-1.61144">
        <ele>54</ele>
        <time>2022-08-15T09:58:46Z</time>
      </trkpt>
      <trkpt lat="47.08842" lon="-1.61139">
        <ele>54</ele>
        <time>2022-08-15T09:58:48Z</time>
      </trkpt>
      <trkpt lat="47.08855" lon="-1.61134">
        <ele>54</ele>
        <time>2022-08-15T09:58:50Z</time>
      </trkpt>
      <trkpt lat="47.08867" lon="-1.61129">
        <ele>55</ele>
        <time>2022-08-15T09:58:52Z</time>
      </trkpt>
      <trkpt lat="47.0888" lon="-1.61123">
        <ele>54</ele>
        <time>2022-08-15T09:58:54Z</time>
      </trkpt>
      <trkpt lat="47.08892" lon="-1.61118">
        <ele>54</ele>
        <time>2022-08-15T09:58:56Z</time>
      </trkpt>
      <trkpt lat="47.08904" lon="-1.61112">
        <ele>55</ele>
        <time>2022-08-15T09:58:58Z</time>
      </trkpt>
      <trkpt lat="47.08916" lon="-1.61106">
        <ele>55</ele>
        <time>2022-08-15T09:59:00Z</time>
      </trkpt>
      <trkpt lat="47.08929" lon="-1.61101">
        <ele>55</ele>
        <time>2022-08-15T09:59:02Z</time>
      </trkpt>
      <trkpt lat="47.08941" lon="-1.61096">
        <ele>55</ele>
        <time>2022-08-15T09:59:04Z</time>
      </trkpt>
      <trkpt lat="47.08953" lon="-1.6109">
        <ele>55</ele>
        <time>2022-08-15T09:59:06Z</time>
      </trkpt>
      <trkpt lat="47.08965" lon="-1.61086">
        <ele>55</ele>
        <time>2022-08-15T09:59:08Z</time>
      </trkpt>
      <trkpt lat="47.08978" lon="-1.61084">
        <ele>56</ele>
        <time>2022-08-15T09:59:10Z</time>
      </trkpt>
      <trkpt lat="47.08991" lon="-1.61085">
        <ele>56</ele>
        <time>2022-08-15T09:59:12Z</time>
      </trkpt>
      <trkpt lat="47.09003" lon="-1.61086">
        <ele>56</ele>
        <time>2022-08-15T09:59:14Z</time>
      </trkpt>
      <trkpt lat="47.09016" lon="-1.61089">
        <ele>56</ele>
        <time>2022-08-15T09:59:16Z</time>
      </trkpt>
      <trkpt lat="47.09028" lon="-1.61092">
        <ele>56</ele>
        <time>2022-08-15T09:59:18Z</time>
      </trkpt>
      <trkpt lat="47.0904" lon="-1.61096">
        <ele>56</ele>
        <time>2022-08-15T09:59:20Z</time>
      </trkpt>
      <trkpt lat="47.09053" lon="-1.611">
        <ele>56</ele>
        <time>2022-08-15T09:59:22Z</time>
      </trkpt>
      <trkpt lat="47.09065" lon="-1.61104">
        <ele>56</ele>
        <time>2022-08-15T09:59:24Z</time>
      </trkpt>
      <trkpt lat="47.09078" lon="-1.61108">
        <ele>57</ele>
        <time>2022-08-15T09:59:26Z</time>
      </trkpt>
      <trkpt lat="47.09091" lon="-1.61113">
        <ele>57</ele>
        <time>2022-08-15T09:59:28Z</time>
      </trkpt>
      <trkpt lat="47.09103" lon="-1.61117">
        <ele>58</ele>
        <time>2022-08-15T09:59:30Z</time>
      </trkpt>
      <trkpt lat="47.09116" lon="-1.61121">
        <ele>58</ele>
        <time>2022-08-15T09:59:32Z</time>
      </trkpt>
      <trkpt lat="47.09127" lon="-1.61124">
        <ele>58</ele>
        <time>2022-08-15T09:59:34Z</time>
      </trkpt>
      <trkpt lat="47.09138" lon="-1.61128">
        <ele>57</ele>
        <time>2022-08-15T09:59:36Z</time>
      </trkpt>
      <trkpt lat="47.09147" lon="-1.61131">
        <ele>57</ele>
        <time>2022-08-15T09:59:38Z</time>
      </trkpt>
      <trkpt lat="47.09157" lon="-1.61133">
        <ele>57</ele>
        <time>2022-08-15T09:59:42Z</time>
      </trkpt>
      <trkpt lat="47.09167" lon="-1.61136">
        <ele>58</ele>
        <time>2022-08-15T09:59:47Z</time>
      </trkpt>
      <trkpt lat="47.09177" lon="-1.6114">
        <ele>59</ele>
        <time>2022-08-15T09:59:53Z</time>
      </trkpt>
      <trkpt lat="47.09189" lon="-1.61144">
        <ele>59</ele>
        <time>2022-08-15T09:59:56Z</time>
      </trkpt>
      <trkpt lat="47.09201" lon="-1.61146">
        <ele>59</ele>
        <time>2022-08-15T09:59:58Z</time>
      </trkpt>
      <trkpt lat="47.09215" lon="-1.6115">
        <ele>58</ele>
        <time>2022-08-15T10:00:00Z</time>
      </trkpt>
      <trkpt lat="47.09225" lon="-1.61161">
        <ele>58</ele>
        <time>2022-08-15T10:00:02Z</time>
      </trkpt>
      <trkpt lat="47.09234" lon="-1.61172">
        <ele>58</ele>
        <time>2022-08-15T10:00:04Z</time>
      </trkpt>
      <trkpt lat="47.09244" lon="-1.61177">
        <ele>58</ele>
        <time>2022-08-15T10:00:06Z</time>
      </trkpt>
      <trkpt lat="47.09257" lon="-1.61181">
        <ele>58</ele>
        <time>2022-08-15T10:00:09Z</time>
      </trkpt>
      <trkpt lat="47.09266" lon="-1.61184">
        <ele>58</ele>
        <time>2022-08-15T10:00:11Z</time>
      </trkpt>
      <trkpt lat="47.09275" lon="-1.61187">
        <ele>58</ele>
        <time>2022-08-15T10:00:13Z</time>
      </trkpt>
      <trkpt lat="47.09287" lon="-1.6119">
        <ele>59</ele>
        <time>2022-08-15T10:00:16Z</time>
      </trkpt>
      <trkpt lat="47.09296" lon="-1.61193">
        <ele>59</ele>
        <time>2022-08-15T10:00:19Z</time>
      </trkpt>
      <trkpt lat="47.09306" lon="-1.61196">
        <ele>60</ele>
        <time>2022-08-15T10:00:22Z</time>
      </trkpt>
      <trkpt lat="47.09318" lon="-1.612">
        <ele>60</ele>
        <time>2022-08-15T10:00:25Z</time>
      </trkpt>
      <trkpt lat="47.09328" lon="-1.61203">
        <ele>62</ele>
        <time>2022-08-15T10:00:27Z</time>
      </trkpt>
      <trkpt lat="47.0934" lon="-1.61206">
        <ele>63</ele>
        <time>2022-08-15T10:00:30Z</time>
      </trkpt>
      <trkpt lat="47.09351" lon="-1.61209">
        <ele>62</ele>
        <time>2022-08-15T10:00:33Z</time>
      </trkpt>
      <trkpt lat="47.09363" lon="-1.61211">
        <ele>61</ele>
        <time>2022-08-15T10:00:36Z</time>
      </trkpt>
      <trkpt lat="47.09372" lon="-1.61214">
        <ele>60</ele>
        <time>2022-08-15T10:00:39Z</time>
      </trkpt>
      <trkpt lat="47.09381" lon="-1.61218">
        <ele>60</ele>
        <time>2022-08-15T10:00:41Z</time>
      </trkpt>
      <trkpt lat="47.09393" lon="-1.61222">
        <ele>60</ele>
        <time>2022-08-15T10:00:43Z</time>
      </trkpt>
      <trkpt lat="47.09408" lon="-1.61229">
        <ele>59</ele>
        <time>2022-08-15T10:00:45Z</time>
      </trkpt>
      <trkpt lat="47.09421" lon="-1.61229">
        <ele>58</ele>
        <time>2022-08-15T10:00:47Z</time>
      </trkpt>
      <trkpt lat="47.09435" lon="-1.61217">
        <ele>58</ele>
        <time>2022-08-15T10:00:49Z</time>
      </trkpt>
      <trkpt lat="47.09448" lon="-1.61204">
        <ele>57</ele>
        <time>2022-08-15T10:00:51Z</time>
      </trkpt>
      <trkpt lat="47.09461" lon="-1.61187">
        <ele>56</ele>
        <time>2022-08-15T10:00:53Z</time>
      </trkpt>
      <trkpt lat="47.09474" lon="-1.61171">
        <ele>55</ele>
        <time>2022-08-15T10:00:55Z</time>
      </trkpt>
      <trkpt lat="47.09487" lon="-1.61158">
        <ele>55</ele>
        <time>2022-08-15T10:00:57Z</time>
      </trkpt>
      <trkpt lat="47.09501" lon="-1.61147">
        <ele>54</ele>
        <time>2022-08-15T10:00:59Z</time>
      </trkpt>
      <trkpt lat="47.09518" lon="-1.6114">
        <ele>54</ele>
        <time>2022-08-15T10:01:01Z</time>
      </trkpt>
      <trkpt lat="47.09533" lon="-1.61135">
        <ele>55</ele>
        <time>2022-08-15T10:01:03Z</time>
      </trkpt>
      <trkpt lat="47.0955" lon="-1.61133">
        <ele>54</ele>
        <time>2022-08-15T10:01:05Z</time>
      </trkpt>
      <trkpt lat="47.09567" lon="-1.6113">
        <ele>53</ele>
        <time>2022-08-15T10:01:07Z</time>
      </trkpt>
      <trkpt lat="47.09584" lon="-1.61129">
        <ele>53</ele>
        <time>2022-08-15T10:01:09Z</time>
      </trkpt>
      <trkpt lat="47.09602" lon="-1.61127">
        <ele>52</ele>
        <time>2022-08-15T10:01:11Z</time>
      </trkpt>
      <trkpt lat="47.0962" lon="-1.61125">
        <ele>52</ele>
        <time>2022-08-15T10:01:13Z</time>
      </trkpt>
      <trkpt lat="47.09637" lon="-1.61123">
        <ele>52</ele>
        <time>2022-08-15T10:01:15Z</time>
      </trkpt>
      <trkpt lat="47.09654" lon="-1.61121">
        <ele>52</ele>
        <time>2022-08-15T10:01:17Z</time>
      </trkpt>
      <trkpt lat="47.0967" lon="-1.61119">
        <ele>51</ele>
        <time>2022-08-15T10:01:19Z</time>
      </trkpt>
      <trkpt lat="47.09686" lon="-1.61116">
        <ele>52</ele>
        <time>2022-08-15T10:01:21Z</time>
      </trkpt>
      <trkpt lat="47.09702" lon="-1.61114">
        <ele>51</ele>
        <time>2022-08-15T10:01:23Z</time>
      </trkpt>
      <trkpt lat="47.09719" lon="-1.61111">
        <ele>51</ele>
        <time>2022-08-15T10:01:25Z</time>
      </trkpt>
      <trkpt lat="47.09735" lon="-1.61109">
        <ele>51</ele>
        <time>2022-08-15T10:01:27Z</time>
      </trkpt>
      <trkpt lat="47.0975" lon="-1.61107">
        <ele>51</ele>
        <time>2022-08-15T10:01:29Z</time>
      </trkpt>
      <trkpt lat="47.09766" lon="-1.61106">
        <ele>52</ele>
        <time>2022-08-15T10:01:31Z</time>
      </trkpt>
      <trkpt lat="47.0978" lon="-1.61103">
        <ele>52</ele>
        <time>2022-08-15T10:01:33Z</time>
      </trkpt>
      <trkpt lat="47.09796" lon="-1.611">
        <ele>53</ele>
        <time>2022-08-15T10:01:35Z</time>
      </trkpt>
      <trkpt lat="47.09811" lon="-1.61092">
        <ele>53</ele>
        <time>2022-08-15T10:01:37Z</time>
      </trkpt>
      <trkpt lat="47.09826" lon="-1.61082">
        <ele>52</ele>
        <time>2022-08-15T10:01:39Z</time>
      </trkpt>
      <trkpt lat="47.09839" lon="-1.6107">
        <ele>52</ele>
        <time>2022-08-15T10:01:41Z</time>
      </trkpt>
      <trkpt lat="47.09851" lon="-1.61055">
        <ele>52</ele>
        <time>2022-08-15T10:01:43Z</time>
      </trkpt>
      <trkpt lat="47.09861" lon="-1.61039">
        <ele>52</ele>
        <time>2022-08-15T10:01:45Z</time>
      </trkpt>
      <trkpt lat="47.09871" lon="-1.61021">
        <ele>52</ele>
        <time>2022-08-15T10:01:47Z</time>
      </trkpt>
      <trkpt lat="47.0988" lon="-1.61001">
        <ele>52</ele>
        <time>2022-08-15T10:01:49Z</time>
      </trkpt>
      <trkpt lat="47.09888" lon="-1.60982">
        <ele>52</ele>
        <time>2022-08-15T10:01:51Z</time>
      </trkpt>
      <trkpt lat="47.09896" lon="-1.60962">
        <ele>52</ele>
        <time>2022-08-15T10:01:53Z</time>
      </trkpt>
      <trkpt lat="47.09903" lon="-1.60944">
        <ele>52</ele>
        <time>2022-08-15T10:01:55Z</time>
      </trkpt>
      <trkpt lat="47.09911" lon="-1.60925">
        <ele>52</ele>
        <time>2022-08-15T10:01:57Z</time>
      </trkpt>
      <trkpt lat="47.09918" lon="-1.60907">
        <ele>52</ele>
        <time>2022-08-15T10:01:59Z</time>
      </trkpt>
      <trkpt lat="47.09926" lon="-1.60889">
        <ele>51</ele>
        <time>2022-08-15T10:02:01Z</time>
      </trkpt>
      <trkpt lat="47.09933" lon="-1.6087">
        <ele>51</ele>
        <time>2022-08-15T10:02:03Z</time>
      </trkpt>
      <trkpt lat="47.0994" lon="-1.60852">
        <ele>51</ele>
        <time>2022-08-15T10:02:05Z</time>
      </trkpt>
      <trkpt lat="47.09947" lon="-1.60832">
        <ele>51</ele>
        <time>2022-08-15T10:02:07Z</time>
      </trkpt>
      <trkpt lat="47.09953" lon="-1.60813">
        <ele>51</ele>
        <time>2022-08-15T10:02:09Z</time>
      </trkpt>
      <trkpt lat="47.09959" lon="-1.60793">
        <ele>52</ele>
        <time>2022-08-15T10:02:11Z</time>
      </trkpt>
      <trkpt lat="47.09965" lon="-1.60773">
        <ele>52</ele>
        <time>2022-08-15T10:02:13Z</time>
      </trkpt>
      <trkpt lat="47.09971" lon="-1.60754">
        <ele>52</ele>
        <time>2022-08-15T10:02:15Z</time>
      </trkpt>
      <trkpt lat="47.09976" lon="-1.60735">
        <ele>52</ele>
        <time>2022-08-15T10:02:17Z</time>
      </trkpt>
      <trkpt lat="47.09982" lon="-1.60716">
        <ele>52</ele>
        <time>2022-08-15T10:02:19Z</time>
      </trkpt>
      <trkpt lat="47.09988" lon="-1.60697">
        <ele>52</ele>
        <time>2022-08-15T10:02:21Z</time>
      </trkpt>
      <trkpt lat="47.09994" lon="-1.60678">
        <ele>52</ele>
        <time>2022-08-15T10:02:23Z</time>
      </trkpt>
      <trkpt lat="47.1" lon="-1.60659">
        <ele>52</ele>
        <time>2022-08-15T10:02:25Z</time>
      </trkpt>
      <trkpt lat="47.10005" lon="-1.6064">
        <ele>52</ele>
        <time>2022-08-15T10:02:27Z</time>
      </trkpt>
      <trkpt lat="47.10011" lon="-1.6062">
        <ele>52</ele>
        <time>2022-08-15T10:02:29Z</time>
      </trkpt>
      <trkpt lat="47.10017" lon="-1.606">
        <ele>52</ele>
        <time>2022-08-15T10:02:31Z</time>
      </trkpt>
      <trkpt lat="47.10023" lon="-1.6058">
        <ele>51</ele>
        <time>2022-08-15T10:02:33Z</time>
      </trkpt>
      <trkpt lat="47.10029" lon="-1.60559">
        <ele>51</ele>
        <time>2022-08-15T10:02:35Z</time>
      </trkpt>
      <trkpt lat="47.10035" lon="-1.60539">
        <ele>51</ele>
        <time>2022-08-15T10:02:37Z</time>
      </trkpt>
      <trkpt lat="47.1004" lon="-1.60519">
        <ele>51</ele>
        <time>2022-08-15T10:02:39Z</time>
      </trkpt>
      <trkpt lat="47.10046" lon="-1.60498">
        <ele>51</ele>
        <time>2022-08-15T10:02:41Z</time>
      </trkpt>
      <trkpt lat="47.10051" lon="-1.60478">
        <ele>51</ele>
        <time>2022-08-15T10:02:43Z</time>
      </trkpt>
      <trkpt lat="47.10055" lon="-1.60456">
        <ele>51</ele>
        <time>2022-08-15T10:02:45Z</time>
      </trkpt>
      <trkpt lat="47.10057" lon="-1.60434">
        <ele>52</ele>
        <time>2022-08-15T10:02:47Z</time>
      </trkpt>
      <trkpt lat="47.1006" lon="-1.60411">
        <ele>53</ele>
        <time>2022-08-15T10:02:49Z</time>
      </trkpt>
      <trkpt lat="47.10062" lon="-1.6039">
        <ele>53</ele>
        <time>2022-08-15T10:02:51Z</time>
      </trkpt>
      <trkpt lat="47.10064" lon="-1.60368">
        <ele>54</ele>
        <time>2022-08-15T10:02:53Z</time>
      </trkpt>
      <trkpt lat="47.10066" lon="-1.60346">
        <ele>54</ele>
        <time>2022-08-15T10:02:55Z</time>
      </trkpt>
      <trkpt lat="47.10068" lon="-1.60325">
        <ele>54</ele>
        <time>2022-08-15T10:02:57Z</time>
      </trkpt>
      <trkpt lat="47.1007" lon="-1.60303">
        <ele>55</ele>
        <time>2022-08-15T10:02:59Z</time>
      </trkpt>
      <trkpt lat="47.10072" lon="-1.60282">
        <ele>55</ele>
        <time>2022-08-15T10:03:01Z</time>
      </trkpt>
      <trkpt lat="47.10075" lon="-1.6026">
        <ele>55</ele>
        <time>2022-08-15T10:03:03Z</time>
      </trkpt>
      <trkpt lat="47.10076" lon="-1.60239">
        <ele>55</ele>
        <time>2022-08-15T10:03:05Z</time>
      </trkpt>
      <trkpt lat="47.10077" lon="-1.60218">
        <ele>56</ele>
        <time>2022-08-15T10:03:07Z</time>
      </trkpt>
      <trkpt lat="47.10078" lon="-1.60196">
        <ele>56</ele>
        <time>2022-08-15T10:03:09Z</time>
      </trkpt>
      <trkpt lat="47.10078" lon="-1.60175">
        <ele>56</ele>
        <time>2022-08-15T10:03:11Z</time>
      </trkpt>
      <trkpt lat="47.10073" lon="-1.60155">
        <ele>56</ele>
        <time>2022-08-15T10:03:13Z</time>
      </trkpt>
      <trkpt lat="47.10067" lon="-1.60134">
        <ele>56</ele>
        <time>2022-08-15T10:03:15Z</time>
      </trkpt>
      <trkpt lat="47.10074" lon="-1.60113">
        <ele>55</ele>
        <time>2022-08-15T10:03:17Z</time>
      </trkpt>
      <trkpt lat="47.10087" lon="-1.60102">
        <ele>56</ele>
        <time>2022-08-15T10:03:19Z</time>
      </trkpt>
      <trkpt lat="47.10101" lon="-1.60096">
        <ele>56</ele>
        <time>2022-08-15T10:03:21Z</time>
      </trkpt>
      <trkpt lat="47.10111" lon="-1.60081">
        <ele>56</ele>
        <time>2022-08-15T10:03:23Z</time>
      </trkpt>
      <trkpt lat="47.10119" lon="-1.60063">
        <ele>57</ele>
        <time>2022-08-15T10:03:25Z</time>
      </trkpt>
      <trkpt lat="47.10128" lon="-1.60046">
        <ele>56</ele>
        <time>2022-08-15T10:03:27Z</time>
      </trkpt>
      <trkpt lat="47.10139" lon="-1.6003">
        <ele>57</ele>
        <time>2022-08-15T10:03:29Z</time>
      </trkpt>
      <trkpt lat="47.10149" lon="-1.60013">
        <ele>56</ele>
        <time>2022-08-15T10:03:31Z</time>
      </trkpt>
      <trkpt lat="47.10159" lon="-1.59996">
        <ele>56</ele>
        <time>2022-08-15T10:03:33Z</time>
      </trkpt>
      <trkpt lat="47.10169" lon="-1.59979">
        <ele>56</ele>
        <time>2022-08-15T10:03:35Z</time>
      </trkpt>
      <trkpt lat="47.10179" lon="-1.59962">
        <ele>56</ele>
        <time>2022-08-15T10:03:37Z</time>
      </trkpt>
      <trkpt lat="47.10189" lon="-1.59946">
        <ele>56</ele>
        <time>2022-08-15T10:03:39Z</time>
      </trkpt>
      <trkpt lat="47.10198" lon="-1.5993">
        <ele>56</ele>
        <time>2022-08-15T10:03:41Z</time>
      </trkpt>
      <trkpt lat="47.10208" lon="-1.59915">
        <ele>56</ele>
        <time>2022-08-15T10:03:43Z</time>
      </trkpt>
      <trkpt lat="47.10217" lon="-1.59899">
        <ele>56</ele>
        <time>2022-08-15T10:03:45Z</time>
      </trkpt>
      <trkpt lat="47.10227" lon="-1.59884">
        <ele>56</ele>
        <time>2022-08-15T10:03:47Z</time>
      </trkpt>
      <trkpt lat="47.10236" lon="-1.59869">
        <ele>55</ele>
        <time>2022-08-15T10:03:49Z</time>
      </trkpt>
      <trkpt lat="47.10246" lon="-1.59853">
        <ele>55</ele>
        <time>2022-08-15T10:03:51Z</time>
      </trkpt>
      <trkpt lat="47.10255" lon="-1.59839">
        <ele>55</ele>
        <time>2022-08-15T10:03:53Z</time>
      </trkpt>
      <trkpt lat="47.10264" lon="-1.59823">
        <ele>55</ele>
        <time>2022-08-15T10:03:55Z</time>
      </trkpt>
      <trkpt lat="47.10273" lon="-1.59808">
        <ele>55</ele>
        <time>2022-08-15T10:03:57Z</time>
      </trkpt>
      <trkpt lat="47.10283" lon="-1.59793">
        <ele>55</ele>
        <time>2022-08-15T10:03:59Z</time>
      </trkpt>
      <trkpt lat="47.10292" lon="-1.59777">
        <ele>55</ele>
        <time>2022-08-15T10:04:01Z</time>
      </trkpt>
      <trkpt lat="47.10301" lon="-1.59762">
        <ele>55</ele>
        <time>2022-08-15T10:04:03Z</time>
      </trkpt>
      <trkpt lat="47.10309" lon="-1.59746">
        <ele>56</ele>
        <time>2022-08-15T10:04:05Z</time>
      </trkpt>
      <trkpt lat="47.10317" lon="-1.59729">
        <ele>57</ele>
        <time>2022-08-15T10:04:07Z</time>
      </trkpt>
      <trkpt lat="47.10325" lon="-1.59713">
        <ele>58</ele>
        <time>2022-08-15T10:04:09Z</time>
      </trkpt>
      <trkpt lat="47.10335" lon="-1.59697">
        <ele>59</ele>
        <time>2022-08-15T10:04:11Z</time>
      </trkpt>
      <trkpt lat="47.10344" lon="-1.59681">
        <ele>60</ele>
        <time>2022-08-15T10:04:13Z</time>
      </trkpt>
      <trkpt lat="47.10353" lon="-1.59665">
        <ele>60</ele>
        <time>2022-08-15T10:04:15Z</time>
      </trkpt>
      <trkpt lat="47.10363" lon="-1.5965">
        <ele>59</ele>
        <time>2022-08-15T10:04:17Z</time>
      </trkpt>
      <trkpt lat="47.10373" lon="-1.59634">
        <ele>59</ele>
        <time>2022-08-15T10:04:19Z</time>
      </trkpt>
      <trkpt lat="47.10383" lon="-1.59618">
        <ele>59</ele>
        <time>2022-08-15T10:04:21Z</time>
      </trkpt>
      <trkpt lat="47.10393" lon="-1.59603">
        <ele>59</ele>
        <time>2022-08-15T10:04:23Z</time>
      </trkpt>
      <trkpt lat="47.10402" lon="-1.59586">
        <ele>59</ele>
        <time>2022-08-15T10:04:25Z</time>
      </trkpt>
      <trkpt lat="47.10412" lon="-1.5957">
        <ele>59</ele>
        <time>2022-08-15T10:04:27Z</time>
      </trkpt>
      <trkpt lat="47.10422" lon="-1.59555">
        <ele>58</ele>
        <time>2022-08-15T10:04:29Z</time>
      </trkpt>
      <trkpt lat="47.10432" lon="-1.5954">
        <ele>58</ele>
        <time>2022-08-15T10:04:31Z</time>
      </trkpt>
      <trkpt lat="47.10441" lon="-1.59525">
        <ele>58</ele>
        <time>2022-08-15T10:04:33Z</time>
      </trkpt>
      <trkpt lat="47.10451" lon="-1.59511">
        <ele>57</ele>
        <time>2022-08-15T10:04:35Z</time>
      </trkpt>
      <trkpt lat="47.1046" lon="-1.59496">
        <ele>57</ele>
        <time>2022-08-15T10:04:37Z</time>
      </trkpt>
      <trkpt lat="47.10469" lon="-1.5948">
        <ele>56</ele>
        <time>2022-08-15T10:04:39Z</time>
      </trkpt>
      <trkpt lat="47.10478" lon="-1.59464">
        <ele>56</ele>
        <time>2022-08-15T10:04:41Z</time>
      </trkpt>
      <trkpt lat="47.10487" lon="-1.5945">
        <ele>56</ele>
        <time>2022-08-15T10:04:43Z</time>
      </trkpt>
      <trkpt lat="47.10496" lon="-1.59435">
        <ele>55</ele>
        <time>2022-08-15T10:04:45Z</time>
      </trkpt>
      <trkpt lat="47.10505" lon="-1.5942">
        <ele>55</ele>
        <time>2022-08-15T10:04:47Z</time>
      </trkpt>
      <trkpt lat="47.10514" lon="-1.59406">
        <ele>56</ele>
        <time>2022-08-15T10:04:49Z</time>
      </trkpt>
      <trkpt lat="47.10523" lon="-1.59391">
        <ele>55</ele>
        <time>2022-08-15T10:04:51Z</time>
      </trkpt>
      <trkpt lat="47.10531" lon="-1.59377">
        <ele>55</ele>
        <time>2022-08-15T10:04:53Z</time>
      </trkpt>
      <trkpt lat="47.1054" lon="-1.59362">
        <ele>55</ele>
        <time>2022-08-15T10:04:55Z</time>
      </trkpt>
      <trkpt lat="47.10548" lon="-1.59346">
        <ele>55</ele>
        <time>2022-08-15T10:04:57Z</time>
      </trkpt>
      <trkpt lat="47.10557" lon="-1.5933">
        <ele>55</ele>
        <time>2022-08-15T10:04:59Z</time>
      </trkpt>
      <trkpt lat="47.10565" lon="-1.59315">
        <ele>56</ele>
        <time>2022-08-15T10:05:01Z</time>
      </trkpt>
      <trkpt lat="47.10573" lon="-1.59301">
        <ele>56</ele>
        <time>2022-08-15T10:05:03Z</time>
      </trkpt>
      <trkpt lat="47.10582" lon="-1.59287">
        <ele>57</ele>
        <time>2022-08-15T10:05:05Z</time>
      </trkpt>
      <trkpt lat="47.1059" lon="-1.59272">
        <ele>57</ele>
        <time>2022-08-15T10:05:07Z</time>
      </trkpt>
      <trkpt lat="47.10598" lon="-1.59257">
        <ele>57</ele>
        <time>2022-08-15T10:05:09Z</time>
      </trkpt>
      <trkpt lat="47.10608" lon="-1.59244">
        <ele>57</ele>
        <time>2022-08-15T10:05:11Z</time>
      </trkpt>
      <trkpt lat="47.10616" lon="-1.5923">
        <ele>57</ele>
        <time>2022-08-15T10:05:13Z</time>
      </trkpt>
      <trkpt lat="47.10625" lon="-1.59217">
        <ele>58</ele>
        <time>2022-08-15T10:05:15Z</time>
      </trkpt>
      <trkpt lat="47.10634" lon="-1.59202">
        <ele>58</ele>
        <time>2022-08-15T10:05:17Z</time>
      </trkpt>
      <trkpt lat="47.10641" lon="-1.59187">
        <ele>59</ele>
        <time>2022-08-15T10:05:19Z</time>
      </trkpt>
      <trkpt lat="47.10648" lon="-1.59172">
        <ele>59</ele>
        <time>2022-08-15T10:05:21Z</time>
      </trkpt>
      <trkpt lat="47.10655" lon="-1.59156">
        <ele>60</ele>
        <time>2022-08-15T10:05:23Z</time>
      </trkpt>
      <trkpt lat="47.10661" lon="-1.5914">
        <ele>60</ele>
        <time>2022-08-15T10:05:25Z</time>
      </trkpt>
      <trkpt lat="47.10667" lon="-1.59124">
        <ele>60</ele>
        <time>2022-08-15T10:05:27Z</time>
      </trkpt>
      <trkpt lat="47.10672" lon="-1.59109">
        <ele>60</ele>
        <time>2022-08-15T10:05:29Z</time>
      </trkpt>
      <trkpt lat="47.10678" lon="-1.59092">
        <ele>61</ele>
        <time>2022-08-15T10:05:31Z</time>
      </trkpt>
      <trkpt lat="47.10683" lon="-1.59077">
        <ele>61</ele>
        <time>2022-08-15T10:05:33Z</time>
      </trkpt>
      <trkpt lat="47.10687" lon="-1.5906">
        <ele>60</ele>
        <time>2022-08-15T10:05:35Z</time>
      </trkpt>
      <trkpt lat="47.10691" lon="-1.59043">
        <ele>61</ele>
        <time>2022-08-15T10:05:37Z</time>
      </trkpt>
      <trkpt lat="47.10696" lon="-1.59029">
        <ele>61</ele>
        <time>2022-08-15T10:05:39Z</time>
      </trkpt>
      <trkpt lat="47.10704" lon="-1.59016">
        <ele>61</ele>
        <time>2022-08-15T10:05:41Z</time>
      </trkpt>
      <trkpt lat="47.10711" lon="-1.59002">
        <ele>61</ele>
        <time>2022-08-15T10:05:43Z</time>
      </trkpt>
      <trkpt lat="47.10719" lon="-1.58988">
        <ele>62</ele>
        <time>2022-08-15T10:05:45Z</time>
      </trkpt>
      <trkpt lat="47.10726" lon="-1.58972">
        <ele>62</ele>
        <time>2022-08-15T10:05:47Z</time>
      </trkpt>
      <trkpt lat="47.10731" lon="-1.58956">
        <ele>62</ele>
        <time>2022-08-15T10:05:49Z</time>
      </trkpt>
      <trkpt lat="47.10737" lon="-1.58938">
        <ele>62</ele>
        <time>2022-08-15T10:05:51Z</time>
      </trkpt>
      <trkpt lat="47.10742" lon="-1.58921">
        <ele>62</ele>
        <time>2022-08-15T10:05:53Z</time>
      </trkpt>
      <trkpt lat="47.10749" lon="-1.58904">
        <ele>62</ele>
        <time>2022-08-15T10:05:55Z</time>
      </trkpt>
      <trkpt lat="47.10756" lon="-1.58888">
        <ele>62</ele>
        <time>2022-08-15T10:05:57Z</time>
      </trkpt>
      <trkpt lat="47.10766" lon="-1.58873">
        <ele>61</ele>
        <time>2022-08-15T10:05:59Z</time>
      </trkpt>
      <trkpt lat="47.10776" lon="-1.5886">
        <ele>61</ele>
        <time>2022-08-15T10:06:01Z</time>
      </trkpt>
      <trkpt lat="47.10786" lon="-1.58844">
        <ele>61</ele>
        <time>2022-08-15T10:06:03Z</time>
      </trkpt>
      <trkpt lat="47.10796" lon="-1.58829">
        <ele>61</ele>
        <time>2022-08-15T10:06:05Z</time>
      </trkpt>
      <trkpt lat="47.10805" lon="-1.58813">
        <ele>61</ele>
        <time>2022-08-15T10:06:07Z</time>
      </trkpt>
      <trkpt lat="47.10815" lon="-1.58797">
        <ele>61</ele>
        <time>2022-08-15T10:06:09Z</time>
      </trkpt>
      <trkpt lat="47.10824" lon="-1.58782">
        <ele>61</ele>
        <time>2022-08-15T10:06:11Z</time>
      </trkpt>
      <trkpt lat="47.10834" lon="-1.58766">
        <ele>60</ele>
        <time>2022-08-15T10:06:13Z</time>
      </trkpt>
      <trkpt lat="47.10844" lon="-1.58752">
        <ele>60</ele>
        <time>2022-08-15T10:06:15Z</time>
      </trkpt>
      <trkpt lat="47.10853" lon="-1.58737">
        <ele>60</ele>
        <time>2022-08-15T10:06:17Z</time>
      </trkpt>
      <trkpt lat="47.10862" lon="-1.58723">
        <ele>59</ele>
        <time>2022-08-15T10:06:19Z</time>
      </trkpt>
      <trkpt lat="47.10873" lon="-1.58712">
        <ele>59</ele>
        <time>2022-08-15T10:06:21Z</time>
      </trkpt>
      <trkpt lat="47.10883" lon="-1.58697">
        <ele>59</ele>
        <time>2022-08-15T10:06:23Z</time>
      </trkpt>
      <trkpt lat="47.10894" lon="-1.5868">
        <ele>58</ele>
        <time>2022-08-15T10:06:25Z</time>
      </trkpt>
      <trkpt lat="47.10905" lon="-1.58662">
        <ele>58</ele>
        <time>2022-08-15T10:06:27Z</time>
      </trkpt>
      <trkpt lat="47.10916" lon="-1.58645">
        <ele>57</ele>
        <time>2022-08-15T10:06:29Z</time>
      </trkpt>
      <trkpt lat="47.10928" lon="-1.58629">
        <ele>57</ele>
        <time>2022-08-15T10:06:31Z</time>
      </trkpt>
      <trkpt lat="47.1094" lon="-1.58612">
        <ele>56</ele>
        <time>2022-08-15T10:06:33Z</time>
      </trkpt>
      <trkpt lat="47.10953" lon="-1.58596">
        <ele>56</ele>
        <time>2022-08-15T10:06:35Z</time>
      </trkpt>
      <trkpt lat="47.10965" lon="-1.58579">
        <ele>56</ele>
        <time>2022-08-15T10:06:37Z</time>
      </trkpt>
      <trkpt lat="47.10976" lon="-1.58562">
        <ele>56</ele>
        <time>2022-08-15T10:06:39Z</time>
      </trkpt>
      <trkpt lat="47.10987" lon="-1.58545">
        <ele>56</ele>
        <time>2022-08-15T10:06:41Z</time>
      </trkpt>
      <trkpt lat="47.10997" lon="-1.58527">
        <ele>57</ele>
        <time>2022-08-15T10:06:43Z</time>
      </trkpt>
      <trkpt lat="47.11008" lon="-1.58509">
        <ele>57</ele>
        <time>2022-08-15T10:06:45Z</time>
      </trkpt>
      <trkpt lat="47.1102" lon="-1.58492">
        <ele>56</ele>
        <time>2022-08-15T10:06:47Z</time>
      </trkpt>
      <trkpt lat="47.11031" lon="-1.58475">
        <ele>56</ele>
        <time>2022-08-15T10:06:49Z</time>
      </trkpt>
      <trkpt lat="47.11041" lon="-1.58457">
        <ele>55</ele>
        <time>2022-08-15T10:06:51Z</time>
      </trkpt>
      <trkpt lat="47.1105" lon="-1.58437">
        <ele>55</ele>
        <time>2022-08-15T10:06:53Z</time>
      </trkpt>
      <trkpt lat="47.1106" lon="-1.58419">
        <ele>54</ele>
        <time>2022-08-15T10:06:55Z</time>
      </trkpt>
      <trkpt lat="47.1107" lon="-1.584">
        <ele>55</ele>
        <time>2022-08-15T10:06:57Z</time>
      </trkpt>
      <trkpt lat="47.11078" lon="-1.58381">
        <ele>55</ele>
        <time>2022-08-15T10:06:59Z</time>
      </trkpt>
      <trkpt lat="47.11086" lon="-1.58362">
        <ele>54</ele>
        <time>2022-08-15T10:07:01Z</time>
      </trkpt>
      <trkpt lat="47.11096" lon="-1.58343">
        <ele>54</ele>
        <time>2022-08-15T10:07:03Z</time>
      </trkpt>
      <trkpt lat="47.11107" lon="-1.58326">
        <ele>54</ele>
        <time>2022-08-15T10:07:05Z</time>
      </trkpt>
      <trkpt lat="47.11118" lon="-1.58309">
        <ele>53</ele>
        <time>2022-08-15T10:07:07Z</time>
      </trkpt>
      <trkpt lat="47.11132" lon="-1.58295">
        <ele>53</ele>
        <time>2022-08-15T10:07:09Z</time>
      </trkpt>
      <trkpt lat="47.11144" lon="-1.58283">
        <ele>53</ele>
        <time>2022-08-15T10:07:11Z</time>
      </trkpt>
      <trkpt lat="47.11157" lon="-1.58269">
        <ele>52</ele>
        <time>2022-08-15T10:07:13Z</time>
      </trkpt>
      <trkpt lat="47.1117" lon="-1.58255">
        <ele>52</ele>
        <time>2022-08-15T10:07:15Z</time>
      </trkpt>
      <trkpt lat="47.11183" lon="-1.58239">
        <ele>52</ele>
        <time>2022-08-15T10:07:17Z</time>
      </trkpt>
      <trkpt lat="47.11196" lon="-1.58223">
        <ele>52</ele>
        <time>2022-08-15T10:07:19Z</time>
      </trkpt>
      <trkpt lat="47.11209" lon="-1.58206">
        <ele>52</ele>
        <time>2022-08-15T10:07:21Z</time>
      </trkpt>
      <trkpt lat="47.11222" lon="-1.58189">
        <ele>51</ele>
        <time>2022-08-15T10:07:23Z</time>
      </trkpt>
      <trkpt lat="47.11235" lon="-1.58172">
        <ele>51</ele>
        <time>2022-08-15T10:07:25Z</time>
      </trkpt>
      <trkpt lat="47.11249" lon="-1.58157">
        <ele>51</ele>
        <time>2022-08-15T10:07:27Z</time>
      </trkpt>
      <trkpt lat="47.11264" lon="-1.58143">
        <ele>51</ele>
        <time>2022-08-15T10:07:29Z</time>
      </trkpt>
      <trkpt lat="47.11272" lon="-1.58136">
        <ele>51</ele>
        <time>2022-08-15T10:07:30Z</time>
      </trkpt>
      <trkpt lat="47.11287" lon="-1.58123">
        <ele>51</ele>
        <time>2022-08-15T10:07:32Z</time>
      </trkpt>
      <trkpt lat="47.11303" lon="-1.58112">
        <ele>51</ele>
        <time>2022-08-15T10:07:34Z</time>
      </trkpt>
      <trkpt lat="47.11318" lon="-1.58102">
        <ele>51</ele>
        <time>2022-08-15T10:07:36Z</time>
      </trkpt>
      <trkpt lat="47.11334" lon="-1.58093">
        <ele>51</ele>
        <time>2022-08-15T10:07:38Z</time>
      </trkpt>
      <trkpt lat="47.11348" lon="-1.58083">
        <ele>52</ele>
        <time>2022-08-15T10:07:40Z</time>
      </trkpt>
      <trkpt lat="47.11363" lon="-1.58074">
        <ele>52</ele>
        <time>2022-08-15T10:07:42Z</time>
      </trkpt>
      <trkpt lat="47.11379" lon="-1.58065">
        <ele>52</ele>
        <time>2022-08-15T10:07:44Z</time>
      </trkpt>
      <trkpt lat="47.11394" lon="-1.58055">
        <ele>52</ele>
        <time>2022-08-15T10:07:46Z</time>
      </trkpt>
      <trkpt lat="47.11408" lon="-1.58046">
        <ele>53</ele>
        <time>2022-08-15T10:07:48Z</time>
      </trkpt>
      <trkpt lat="47.11423" lon="-1.58037">
        <ele>52</ele>
        <time>2022-08-15T10:07:50Z</time>
      </trkpt>
      <trkpt lat="47.11438" lon="-1.58029">
        <ele>53</ele>
        <time>2022-08-15T10:07:52Z</time>
      </trkpt>
      <trkpt lat="47.11453" lon="-1.58023">
        <ele>53</ele>
        <time>2022-08-15T10:07:54Z</time>
      </trkpt>
      <trkpt lat="47.11468" lon="-1.58018">
        <ele>53</ele>
        <time>2022-08-15T10:07:56Z</time>
      </trkpt>
      <trkpt lat="47.11483" lon="-1.58014">
        <ele>54</ele>
        <time>2022-08-15T10:07:58Z</time>
      </trkpt>
      <trkpt lat="47.11498" lon="-1.58011">
        <ele>54</ele>
        <time>2022-08-15T10:08:00Z</time>
      </trkpt>
      <trkpt lat="47.11513" lon="-1.5801">
        <ele>54</ele>
        <time>2022-08-15T10:08:02Z</time>
      </trkpt>
      <trkpt lat="47.11527" lon="-1.58009">
        <ele>54</ele>
        <time>2022-08-15T10:08:04Z</time>
      </trkpt>
      <trkpt lat="47.11541" lon="-1.58008">
        <ele>54</ele>
        <time>2022-08-15T10:08:06Z</time>
      </trkpt>
      <trkpt lat="47.11555" lon="-1.58008">
        <ele>54</ele>
        <time>2022-08-15T10:08:08Z</time>
      </trkpt>
      <trkpt lat="47.11569" lon="-1.58009">
        <ele>54</ele>
        <time>2022-08-15T10:08:10Z</time>
      </trkpt>
      <trkpt lat="47.11582" lon="-1.58011">
        <ele>54</ele>
        <time>2022-08-15T10:08:12Z</time>
      </trkpt>
      <trkpt lat="47.11594" lon="-1.58013">
        <ele>54</ele>
        <time>2022-08-15T10:08:14Z</time>
      </trkpt>
      <trkpt lat="47.11607" lon="-1.58012">
        <ele>55</ele>
        <time>2022-08-15T10:08:16Z</time>
      </trkpt>
      <trkpt lat="47.11619" lon="-1.58009">
        <ele>55</ele>
        <time>2022-08-15T10:08:18Z</time>
      </trkpt>
      <trkpt lat="47.11629" lon="-1.58006">
        <ele>55</ele>
        <time>2022-08-15T10:08:20Z</time>
      </trkpt>
      <trkpt lat="47.11637" lon="-1.58001">
        <ele>55</ele>
        <time>2022-08-15T10:08:22Z</time>
      </trkpt>
      <trkpt lat="47.11635" lon="-1.57982">
        <ele>55</ele>
        <time>2022-08-15T10:08:25Z</time>
      </trkpt>
      <trkpt lat="47.11628" lon="-1.57968">
        <ele>55</ele>
        <time>2022-08-15T10:08:27Z</time>
      </trkpt>
      <trkpt lat="47.11623" lon="-1.57951">
        <ele>55</ele>
        <time>2022-08-15T10:08:29Z</time>
      </trkpt>
      <trkpt lat="47.11617" lon="-1.57934">
        <ele>55</ele>
        <time>2022-08-15T10:08:31Z</time>
      </trkpt>
      <trkpt lat="47.11611" lon="-1.57916">
        <ele>55</ele>
        <time>2022-08-15T10:08:33Z</time>
      </trkpt>
      <trkpt lat="47.11606" lon="-1.57898">
        <ele>55</ele>
        <time>2022-08-15T10:08:35Z</time>
      </trkpt>
      <trkpt lat="47.11601" lon="-1.5788">
        <ele>55</ele>
        <time>2022-08-15T10:08:37Z</time>
      </trkpt>
      <trkpt lat="47.11596" lon="-1.57861">
        <ele>56</ele>
        <time>2022-08-15T10:08:39Z</time>
      </trkpt>
      <trkpt lat="47.11591" lon="-1.57844">
        <ele>56</ele>
        <time>2022-08-15T10:08:41Z</time>
      </trkpt>
      <trkpt lat="47.11586" lon="-1.57826">
        <ele>56</ele>
        <time>2022-08-15T10:08:43Z</time>
      </trkpt>
      <trkpt lat="47.11582" lon="-1.57807">
        <ele>56</ele>
        <time>2022-08-15T10:08:45Z</time>
      </trkpt>
      <trkpt lat="47.11579" lon="-1.57789">
        <ele>56</ele>
        <time>2022-08-15T10:08:47Z</time>
      </trkpt>
      <trkpt lat="47.11576" lon="-1.5777">
        <ele>56</ele>
        <time>2022-08-15T10:08:49Z</time>
      </trkpt>
      <trkpt lat="47.11572" lon="-1.57752">
        <ele>56</ele>
        <time>2022-08-15T10:08:51Z</time>
      </trkpt>
      <trkpt lat="47.11566" lon="-1.57735">
        <ele>55</ele>
        <time>2022-08-15T10:08:53Z</time>
      </trkpt>
      <trkpt lat="47.11562" lon="-1.57715">
        <ele>55</ele>
        <time>2022-08-15T10:08:55Z</time>
      </trkpt>
      <trkpt lat="47.11556" lon="-1.57697">
        <ele>55</ele>
        <time>2022-08-15T10:08:57Z</time>
      </trkpt>
      <trkpt lat="47.11548" lon="-1.5768">
        <ele>55</ele>
        <time>2022-08-15T10:08:59Z</time>
      </trkpt>
      <trkpt lat="47.1154" lon="-1.57663">
        <ele>55</ele>
        <time>2022-08-15T10:09:01Z</time>
      </trkpt>
      <trkpt lat="47.11532" lon="-1.57647">
        <ele>56</ele>
        <time>2022-08-15T10:09:03Z</time>
      </trkpt>
      <trkpt lat="47.11524" lon="-1.57631">
        <ele>56</ele>
        <time>2022-08-15T10:09:05Z</time>
      </trkpt>
      <trkpt lat="47.11515" lon="-1.57615">
        <ele>55</ele>
        <time>2022-08-15T10:09:07Z</time>
      </trkpt>
      <trkpt lat="47.11507" lon="-1.57599">
        <ele>55</ele>
        <time>2022-08-15T10:09:09Z</time>
      </trkpt>
      <trkpt lat="47.115" lon="-1.57583">
        <ele>55</ele>
        <time>2022-08-15T10:09:11Z</time>
      </trkpt>
      <trkpt lat="47.11494" lon="-1.57566">
        <ele>56</ele>
        <time>2022-08-15T10:09:13Z</time>
      </trkpt>
      <trkpt lat="47.11485" lon="-1.57551">
        <ele>56</ele>
        <time>2022-08-15T10:09:15Z</time>
      </trkpt>
      <trkpt lat="47.11478" lon="-1.57535">
        <ele>56</ele>
        <time>2022-08-15T10:09:17Z</time>
      </trkpt>
      <trkpt lat="47.1147" lon="-1.57519">
        <ele>56</ele>
        <time>2022-08-15T10:09:19Z</time>
      </trkpt>
      <trkpt lat="47.11461" lon="-1.57504">
        <ele>55</ele>
        <time>2022-08-15T10:09:21Z</time>
      </trkpt>
      <trkpt lat="47.11453" lon="-1.57488">
        <ele>56</ele>
        <time>2022-08-15T10:09:23Z</time>
      </trkpt>
      <trkpt lat="47.11445" lon="-1.57472">
        <ele>55</ele>
        <time>2022-08-15T10:09:25Z</time>
      </trkpt>
      <trkpt lat="47.11437" lon="-1.57456">
        <ele>56</ele>
        <time>2022-08-15T10:09:27Z</time>
      </trkpt>
      <trkpt lat="47.11429" lon="-1.5744">
        <ele>56</ele>
        <time>2022-08-15T10:09:29Z</time>
      </trkpt>
      <trkpt lat="47.11421" lon="-1.57425">
        <ele>56</ele>
        <time>2022-08-15T10:09:31Z</time>
      </trkpt>
      <trkpt lat="47.11412" lon="-1.57408">
        <ele>56</ele>
        <time>2022-08-15T10:09:33Z</time>
      </trkpt>
      <trkpt lat="47.11404" lon="-1.57392">
        <ele>57</ele>
        <time>2022-08-15T10:09:35Z</time>
      </trkpt>
      <trkpt lat="47.11396" lon="-1.57376">
        <ele>57</ele>
        <time>2022-08-15T10:09:37Z</time>
      </trkpt>
      <trkpt lat="47.11387" lon="-1.5736">
        <ele>57</ele>
        <time>2022-08-15T10:09:39Z</time>
      </trkpt>
      <trkpt lat="47.11379" lon="-1.57345">
        <ele>58</ele>
        <time>2022-08-15T10:09:41Z</time>
      </trkpt>
      <trkpt lat="47.11371" lon="-1.5733">
        <ele>58</ele>
        <time>2022-08-15T10:09:43Z</time>
      </trkpt>
      <trkpt lat="47.11364" lon="-1.57315">
        <ele>58</ele>
        <time>2022-08-15T10:09:45Z</time>
      </trkpt>
      <trkpt lat="47.11356" lon="-1.573">
        <ele>59</ele>
        <time>2022-08-15T10:09:47Z</time>
      </trkpt>
      <trkpt lat="47.11348" lon="-1.57285">
        <ele>59</ele>
        <time>2022-08-15T10:09:49Z</time>
      </trkpt>
      <trkpt lat="47.11338" lon="-1.57272">
        <ele>59</ele>
        <time>2022-08-15T10:09:51Z</time>
      </trkpt>
      <trkpt lat="47.11328" lon="-1.57259">
        <ele>58</ele>
        <time>2022-08-15T10:09:53Z</time>
      </trkpt>
      <trkpt lat="47.11318" lon="-1.57248">
        <ele>58</ele>
        <time>2022-08-15T10:09:55Z</time>
      </trkpt>
      <trkpt lat="47.11307" lon="-1.57237">
        <ele>59</ele>
        <time>2022-08-15T10:09:57Z</time>
      </trkpt>
      <trkpt lat="47.11296" lon="-1.57225">
        <ele>59</ele>
        <time>2022-08-15T10:09:59Z</time>
      </trkpt>
      <trkpt lat="47.11285" lon="-1.57214">
        <ele>59</ele>
        <time>2022-08-15T10:10:01Z</time>
      </trkpt>
      <trkpt lat="47.11274" lon="-1.57203">
        <ele>59</ele>
        <time>2022-08-15T10:10:03Z</time>
      </trkpt>
      <trkpt lat="47.11264" lon="-1.57192">
        <ele>59</ele>
        <time>2022-08-15T10:10:05Z</time>
      </trkpt>
      <trkpt lat="47.11253" lon="-1.57182">
        <ele>60</ele>
        <time>2022-08-15T10:10:07Z</time>
      </trkpt>
      <trkpt lat="47.11243" lon="-1.57171">
        <ele>60</ele>
        <time>2022-08-15T10:10:09Z</time>
      </trkpt>
      <trkpt lat="47.11233" lon="-1.57159">
        <ele>61</ele>
        <time>2022-08-15T10:10:11Z</time>
      </trkpt>
      <trkpt lat="47.11222" lon="-1.57147">
        <ele>61</ele>
        <time>2022-08-15T10:10:13Z</time>
      </trkpt>
      <trkpt lat="47.11213" lon="-1.57134">
        <ele>61</ele>
        <time>2022-08-15T10:10:15Z</time>
      </trkpt>
      <trkpt lat="47.11203" lon="-1.57121">
        <ele>61</ele>
        <time>2022-08-15T10:10:17Z</time>
      </trkpt>
      <trkpt lat="47.11194" lon="-1.57108">
        <ele>60</ele>
        <time>2022-08-15T10:10:19Z</time>
      </trkpt>
      <trkpt lat="47.11185" lon="-1.57095">
        <ele>60</ele>
        <time>2022-08-15T10:10:21Z</time>
      </trkpt>
      <trkpt lat="47.11176" lon="-1.57082">
        <ele>60</ele>
        <time>2022-08-15T10:10:23Z</time>
      </trkpt>
      <trkpt lat="47.11166" lon="-1.57069">
        <ele>60</ele>
        <time>2022-08-15T10:10:25Z</time>
      </trkpt>
      <trkpt lat="47.11157" lon="-1.57056">
        <ele>60</ele>
        <time>2022-08-15T10:10:27Z</time>
      </trkpt>
      <trkpt lat="47.11148" lon="-1.57044">
        <ele>60</ele>
        <time>2022-08-15T10:10:29Z</time>
      </trkpt>
      <trkpt lat="47.11138" lon="-1.57032">
        <ele>60</ele>
        <time>2022-08-15T10:10:31Z</time>
      </trkpt>
      <trkpt lat="47.11128" lon="-1.57019">
        <ele>60</ele>
        <time>2022-08-15T10:10:33Z</time>
      </trkpt>
      <trkpt lat="47.11118" lon="-1.57008">
        <ele>60</ele>
        <time>2022-08-15T10:10:35Z</time>
      </trkpt>
      <trkpt lat="47.11108" lon="-1.56996">
        <ele>60</ele>
        <time>2022-08-15T10:10:37Z</time>
      </trkpt>
      <trkpt lat="47.11098" lon="-1.56985">
        <ele>60</ele>
        <time>2022-08-15T10:10:39Z</time>
      </trkpt>
      <trkpt lat="47.11088" lon="-1.56974">
        <ele>60</ele>
        <time>2022-08-15T10:10:41Z</time>
      </trkpt>
      <trkpt lat="47.11078" lon="-1.56963">
        <ele>61</ele>
        <time>2022-08-15T10:10:43Z</time>
      </trkpt>
      <trkpt lat="47.11067" lon="-1.56952">
        <ele>61</ele>
        <time>2022-08-15T10:10:45Z</time>
      </trkpt>
      <trkpt lat="47.11057" lon="-1.56941">
        <ele>61</ele>
        <time>2022-08-15T10:10:47Z</time>
      </trkpt>
      <trkpt lat="47.11047" lon="-1.56931">
        <ele>62</ele>
        <time>2022-08-15T10:10:49Z</time>
      </trkpt>
      <trkpt lat="47.11037" lon="-1.5692">
        <ele>62</ele>
        <time>2022-08-15T10:10:51Z</time>
      </trkpt>
      <trkpt lat="47.11026" lon="-1.56909">
        <ele>62</ele>
        <time>2022-08-15T10:10:53Z</time>
      </trkpt>
      <trkpt lat="47.11016" lon="-1.569">
        <ele>62</ele>
        <time>2022-08-15T10:10:55Z</time>
      </trkpt>
      <trkpt lat="47.11005" lon="-1.5689">
        <ele>63</ele>
        <time>2022-08-15T10:10:57Z</time>
      </trkpt>
      <trkpt lat="47.10995" lon="-1.5688">
        <ele>63</ele>
        <time>2022-08-15T10:10:59Z</time>
      </trkpt>
      <trkpt lat="47.10984" lon="-1.5687">
        <ele>64</ele>
        <time>2022-08-15T10:11:01Z</time>
      </trkpt>
      <trkpt lat="47.10973" lon="-1.56861">
        <ele>64</ele>
        <time>2022-08-15T10:11:03Z</time>
      </trkpt>
      <trkpt lat="47.10963" lon="-1.56851">
        <ele>64</ele>
        <time>2022-08-15T10:11:05Z</time>
      </trkpt>
      <trkpt lat="47.10952" lon="-1.5684">
        <ele>64</ele>
        <time>2022-08-15T10:11:07Z</time>
      </trkpt>
      <trkpt lat="47.10941" lon="-1.56829">
        <ele>63</ele>
        <time>2022-08-15T10:11:09Z</time>
      </trkpt>
      <trkpt lat="47.10931" lon="-1.56818">
        <ele>63</ele>
        <time>2022-08-15T10:11:11Z</time>
      </trkpt>
      <trkpt lat="47.10919" lon="-1.56809">
        <ele>63</ele>
        <time>2022-08-15T10:11:13Z</time>
      </trkpt>
      <trkpt lat="47.10908" lon="-1.56799">
        <ele>63</ele>
        <time>2022-08-15T10:11:15Z</time>
      </trkpt>
      <trkpt lat="47.10897" lon="-1.56787">
        <ele>63</ele>
        <time>2022-08-15T10:11:17Z</time>
      </trkpt>
      <trkpt lat="47.10886" lon="-1.56774">
        <ele>63</ele>
        <time>2022-08-15T10:11:19Z</time>
      </trkpt>
      <trkpt lat="47.10876" lon="-1.56764">
        <ele>62</ele>
        <time>2022-08-15T10:11:21Z</time>
      </trkpt>
      <trkpt lat="47.10879" lon="-1.56748">
        <ele>65</ele>
        <time>2022-08-15T10:11:26Z</time>
      </trkpt>
      <trkpt lat="47.10886" lon="-1.56732">
        <ele>66</ele>
        <time>2022-08-15T10:11:29Z</time>
      </trkpt>
      <trkpt lat="47.10894" lon="-1.56717">
        <ele>65</ele>
        <time>2022-08-15T10:11:31Z</time>
      </trkpt>
      <trkpt lat="47.10901" lon="-1.567">
        <ele>65</ele>
        <time>2022-08-15T10:11:33Z</time>
      </trkpt>
      <trkpt lat="47.10909" lon="-1.56682">
        <ele>65</ele>
        <time>2022-08-15T10:11:35Z</time>
      </trkpt>
      <trkpt lat="47.10917" lon="-1.56666">
        <ele>64</ele>
        <time>2022-08-15T10:11:37Z</time>
      </trkpt>
      <trkpt lat="47.10926" lon="-1.5665">
        <ele>64</ele>
        <time>2022-08-15T10:11:39Z</time>
      </trkpt>
      <trkpt lat="47.10935" lon="-1.56636">
        <ele>64</ele>
        <time>2022-08-15T10:11:41Z</time>
      </trkpt>
      <trkpt lat="47.10945" lon="-1.56622">
        <ele>63</ele>
        <time>2022-08-15T10:11:43Z</time>
      </trkpt>
      <trkpt lat="47.10956" lon="-1.5661">
        <ele>63</ele>
        <time>2022-08-15T10:11:45Z</time>
      </trkpt>
      <trkpt lat="47.10966" lon="-1.56598">
        <ele>62</ele>
        <time>2022-08-15T10:11:47Z</time>
      </trkpt>
      <trkpt lat="47.10976" lon="-1.56586">
        <ele>62</ele>
        <time>2022-08-15T10:11:49Z</time>
      </trkpt>
      <trkpt lat="47.10985" lon="-1.56574">
        <ele>62</ele>
        <time>2022-08-15T10:11:51Z</time>
      </trkpt>
      <trkpt lat="47.10995" lon="-1.56562">
        <ele>61</ele>
        <time>2022-08-15T10:11:53Z</time>
      </trkpt>
      <trkpt lat="47.11004" lon="-1.56551">
        <ele>62</ele>
        <time>2022-08-15T10:11:55Z</time>
      </trkpt>
      <trkpt lat="47.11013" lon="-1.5654">
        <ele>62</ele>
        <time>2022-08-15T10:11:57Z</time>
      </trkpt>
      <trkpt lat="47.1102" lon="-1.56525">
        <ele>62</ele>
        <time>2022-08-15T10:11:59Z</time>
      </trkpt>
      <trkpt lat="47.11021" lon="-1.56506">
        <ele>62</ele>
        <time>2022-08-15T10:12:01Z</time>
      </trkpt>
      <trkpt lat="47.11017" lon="-1.56488">
        <ele>62</ele>
        <time>2022-08-15T10:12:03Z</time>
      </trkpt>
      <trkpt lat="47.11012" lon="-1.56471">
        <ele>62</ele>
        <time>2022-08-15T10:12:05Z</time>
      </trkpt>
      <trkpt lat="47.11007" lon="-1.56454">
        <ele>62</ele>
        <time>2022-08-15T10:12:07Z</time>
      </trkpt>
      <trkpt lat="47.11002" lon="-1.56437">
        <ele>62</ele>
        <time>2022-08-15T10:12:09Z</time>
      </trkpt>
      <trkpt lat="47.10995" lon="-1.5642">
        <ele>62</ele>
        <time>2022-08-15T10:12:11Z</time>
      </trkpt>
      <trkpt lat="47.10988" lon="-1.56405">
        <ele>63</ele>
        <time>2022-08-15T10:12:13Z</time>
      </trkpt>
      <trkpt lat="47.10979" lon="-1.56391">
        <ele>63</ele>
        <time>2022-08-15T10:12:15Z</time>
      </trkpt>
      <trkpt lat="47.1097" lon="-1.56378">
        <ele>64</ele>
        <time>2022-08-15T10:12:17Z</time>
      </trkpt>
      <trkpt lat="47.10961" lon="-1.56364">
        <ele>64</ele>
        <time>2022-08-15T10:12:19Z</time>
      </trkpt>
      <trkpt lat="47.10952" lon="-1.5635">
        <ele>64</ele>
        <time>2022-08-15T10:12:21Z</time>
      </trkpt>
      <trkpt lat="47.10942" lon="-1.56336">
        <ele>64</ele>
        <time>2022-08-15T10:12:23Z</time>
      </trkpt>
      <trkpt lat="47.10933" lon="-1.56323">
        <ele>64</ele>
        <time>2022-08-15T10:12:25Z</time>
      </trkpt>
      <trkpt lat="47.10924" lon="-1.56309">
        <ele>64</ele>
        <time>2022-08-15T10:12:27Z</time>
      </trkpt>
      <trkpt lat="47.10915" lon="-1.56295">
        <ele>64</ele>
        <time>2022-08-15T10:12:29Z</time>
      </trkpt>
      <trkpt lat="47.10906" lon="-1.56282">
        <ele>64</ele>
        <time>2022-08-15T10:12:31Z</time>
      </trkpt>
      <trkpt lat="47.10897" lon="-1.56269">
        <ele>64</ele>
        <time>2022-08-15T10:12:33Z</time>
      </trkpt>
      <trkpt lat="47.10888" lon="-1.56256">
        <ele>65</ele>
        <time>2022-08-15T10:12:35Z</time>
      </trkpt>
      <trkpt lat="47.10879" lon="-1.56244">
        <ele>65</ele>
        <time>2022-08-15T10:12:37Z</time>
      </trkpt>
      <trkpt lat="47.10871" lon="-1.5623">
        <ele>65</ele>
        <time>2022-08-15T10:12:39Z</time>
      </trkpt>
      <trkpt lat="47.10862" lon="-1.56218">
        <ele>65</ele>
        <time>2022-08-15T10:12:41Z</time>
      </trkpt>
      <trkpt lat="47.10853" lon="-1.56206">
        <ele>66</ele>
        <time>2022-08-15T10:12:43Z</time>
      </trkpt>
      <trkpt lat="47.10844" lon="-1.56193">
        <ele>65</ele>
        <time>2022-08-15T10:12:45Z</time>
      </trkpt>
      <trkpt lat="47.10836" lon="-1.56179">
        <ele>66</ele>
        <time>2022-08-15T10:12:47Z</time>
      </trkpt>
      <trkpt lat="47.10827" lon="-1.56166">
        <ele>65</ele>
        <time>2022-08-15T10:12:49Z</time>
      </trkpt>
      <trkpt lat="47.10818" lon="-1.56154">
        <ele>65</ele>
        <time>2022-08-15T10:12:51Z</time>
      </trkpt>
      <trkpt lat="47.10809" lon="-1.56141">
        <ele>66</ele>
        <time>2022-08-15T10:12:53Z</time>
      </trkpt>
      <trkpt lat="47.108" lon="-1.56128">
        <ele>66</ele>
        <time>2022-08-15T10:12:55Z</time>
      </trkpt>
      <trkpt lat="47.10791" lon="-1.56115">
        <ele>66</ele>
        <time>2022-08-15T10:12:57Z</time>
      </trkpt>
      <trkpt lat="47.10782" lon="-1.56103">
        <ele>67</ele>
        <time>2022-08-15T10:12:59Z</time>
      </trkpt>
      <trkpt lat="47.10773" lon="-1.5609">
        <ele>66</ele>
        <time>2022-08-15T10:13:01Z</time>
      </trkpt>
      <trkpt lat="47.10764" lon="-1.56077">
        <ele>67</ele>
        <time>2022-08-15T10:13:03Z</time>
      </trkpt>
      <trkpt lat="47.10755" lon="-1.56065">
        <ele>67</ele>
        <time>2022-08-15T10:13:05Z</time>
      </trkpt>
      <trkpt lat="47.10747" lon="-1.56052">
        <ele>68</ele>
        <time>2022-08-15T10:13:07Z</time>
      </trkpt>
      <trkpt lat="47.10735" lon="-1.56029">
        <ele>68</ele>
        <time>2022-08-15T10:13:10Z</time>
      </trkpt>
      <trkpt lat="47.10728" lon="-1.56013">
        <ele>67</ele>
        <time>2022-08-15T10:13:12Z</time>
      </trkpt>
      <trkpt lat="47.10722" lon="-1.55996">
        <ele>67</ele>
        <time>2022-08-15T10:13:14Z</time>
      </trkpt>
      <trkpt lat="47.10715" lon="-1.55978">
        <ele>67</ele>
        <time>2022-08-15T10:13:16Z</time>
      </trkpt>
      <trkpt lat="47.10708" lon="-1.55962">
        <ele>66</ele>
        <time>2022-08-15T10:13:18Z</time>
      </trkpt>
      <trkpt lat="47.10702" lon="-1.55946">
        <ele>66</ele>
        <time>2022-08-15T10:13:20Z</time>
      </trkpt>
      <trkpt lat="47.10695" lon="-1.55932">
        <ele>66</ele>
        <time>2022-08-15T10:13:22Z</time>
      </trkpt>
      <trkpt lat="47.10688" lon="-1.55917">
        <ele>66</ele>
        <time>2022-08-15T10:13:24Z</time>
      </trkpt>
      <trkpt lat="47.1068" lon="-1.55904">
        <ele>66</ele>
        <time>2022-08-15T10:13:26Z</time>
      </trkpt>
      <trkpt lat="47.10672" lon="-1.55891">
        <ele>66</ele>
        <time>2022-08-15T10:13:28Z</time>
      </trkpt>
      <trkpt lat="47.10662" lon="-1.55879">
        <ele>67</ele>
        <time>2022-08-15T10:13:30Z</time>
      </trkpt>
      <trkpt lat="47.10652" lon="-1.55868">
        <ele>66</ele>
        <time>2022-08-15T10:13:32Z</time>
      </trkpt>
      <trkpt lat="47.10642" lon="-1.55855">
        <ele>66</ele>
        <time>2022-08-15T10:13:34Z</time>
      </trkpt>
      <trkpt lat="47.10633" lon="-1.55843">
        <ele>66</ele>
        <time>2022-08-15T10:13:36Z</time>
      </trkpt>
      <trkpt lat="47.10624" lon="-1.55831">
        <ele>66</ele>
        <time>2022-08-15T10:13:38Z</time>
      </trkpt>
      <trkpt lat="47.10615" lon="-1.55822">
        <ele>66</ele>
        <time>2022-08-15T10:13:40Z</time>
      </trkpt>
      <trkpt lat="47.10604" lon="-1.55829">
        <ele>66</ele>
        <time>2022-08-15T10:13:42Z</time>
      </trkpt>
      <trkpt lat="47.10598" lon="-1.55844">
        <ele>66</ele>
        <time>2022-08-15T10:13:44Z</time>
      </trkpt>
      <trkpt lat="47.1059" lon="-1.55859">
        <ele>65</ele>
        <time>2022-08-15T10:13:46Z</time>
      </trkpt>
      <trkpt lat="47.10582" lon="-1.55875">
        <ele>65</ele>
        <time>2022-08-15T10:13:48Z</time>
      </trkpt>
      <trkpt lat="47.10575" lon="-1.55892">
        <ele>64</ele>
        <time>2022-08-15T10:13:50Z</time>
      </trkpt>
      <trkpt lat="47.10568" lon="-1.55908">
        <ele>64</ele>
        <time>2022-08-15T10:13:52Z</time>
      </trkpt>
      <trkpt lat="47.10557" lon="-1.55932">
        <ele>64</ele>
        <time>2022-08-15T10:13:55Z</time>
      </trkpt>
      <trkpt lat="47.10549" lon="-1.55948">
        <ele>63</ele>
        <time>2022-08-15T10:13:57Z</time>
      </trkpt>
      <trkpt lat="47.10541" lon="-1.55964">
        <ele>63</ele>
        <time>2022-08-15T10:13:59Z</time>
      </trkpt>
      <trkpt lat="47.10527" lon="-1.55987">
        <ele>62</ele>
        <time>2022-08-15T10:14:02Z</time>
      </trkpt>
      <trkpt lat="47.10518" lon="-1.56003">
        <ele>62</ele>
        <time>2022-08-15T10:14:04Z</time>
      </trkpt>
      <trkpt lat="47.10509" lon="-1.56017">
        <ele>62</ele>
        <time>2022-08-15T10:14:06Z</time>
      </trkpt>
      <trkpt lat="47.105" lon="-1.56031">
        <ele>61</ele>
        <time>2022-08-15T10:14:08Z</time>
      </trkpt>
      <trkpt lat="47.10492" lon="-1.56045">
        <ele>61</ele>
        <time>2022-08-15T10:14:10Z</time>
      </trkpt>
      <trkpt lat="47.10483" lon="-1.56059">
        <ele>61</ele>
        <time>2022-08-15T10:14:12Z</time>
      </trkpt>
      <trkpt lat="47.10475" lon="-1.56073">
        <ele>61</ele>
        <time>2022-08-15T10:14:14Z</time>
      </trkpt>
      <trkpt lat="47.10467" lon="-1.56088">
        <ele>61</ele>
        <time>2022-08-15T10:14:16Z</time>
      </trkpt>
      <trkpt lat="47.10457" lon="-1.56102">
        <ele>60</ele>
        <time>2022-08-15T10:14:18Z</time>
      </trkpt>
      <trkpt lat="47.10449" lon="-1.56116">
        <ele>60</ele>
        <time>2022-08-15T10:14:20Z</time>
      </trkpt>
      <trkpt lat="47.10441" lon="-1.56131">
        <ele>60</ele>
        <time>2022-08-15T10:14:22Z</time>
      </trkpt>
      <trkpt lat="47.10432" lon="-1.56146">
        <ele>60</ele>
        <time>2022-08-15T10:14:24Z</time>
      </trkpt>
      <trkpt lat="47.10423" lon="-1.5616">
        <ele>60</ele>
        <time>2022-08-15T10:14:26Z</time>
      </trkpt>
      <trkpt lat="47.10414" lon="-1.56175">
        <ele>60</ele>
        <time>2022-08-15T10:14:28Z</time>
      </trkpt>
      <trkpt lat="47.10405" lon="-1.5619">
        <ele>60</ele>
        <time>2022-08-15T10:14:30Z</time>
      </trkpt>
      <trkpt lat="47.10397" lon="-1.56205">
        <ele>59</ele>
        <time>2022-08-15T10:14:32Z</time>
      </trkpt>
      <trkpt lat="47.10388" lon="-1.56218">
        <ele>60</ele>
        <time>2022-08-15T10:14:34Z</time>
      </trkpt>
      <trkpt lat="47.10379" lon="-1.56224">
        <ele>59</ele>
        <time>2022-08-15T10:14:36Z</time>
      </trkpt>
      <trkpt lat="47.10367" lon="-1.56217">
        <ele>59</ele>
        <time>2022-08-15T10:14:38Z</time>
      </trkpt>
      <trkpt lat="47.10357" lon="-1.56204">
        <ele>59</ele>
        <time>2022-08-15T10:14:40Z</time>
      </trkpt>
      <trkpt lat="47.10347" lon="-1.56192">
        <ele>60</ele>
        <time>2022-08-15T10:14:42Z</time>
      </trkpt>
      <trkpt lat="47.10338" lon="-1.56178">
        <ele>60</ele>
        <time>2022-08-15T10:14:44Z</time>
      </trkpt>
      <trkpt lat="47.10328" lon="-1.56164">
        <ele>59</ele>
        <time>2022-08-15T10:14:46Z</time>
      </trkpt>
      <trkpt lat="47.10318" lon="-1.56151">
        <ele>59</ele>
        <time>2022-08-15T10:14:48Z</time>
      </trkpt>
      <trkpt lat="47.10308" lon="-1.56139">
        <ele>59</ele>
        <time>2022-08-15T10:14:50Z</time>
      </trkpt>
      <trkpt lat="47.10298" lon="-1.56127">
        <ele>59</ele>
        <time>2022-08-15T10:14:52Z</time>
      </trkpt>
      <trkpt lat="47.10288" lon="-1.56115">
        <ele>59</ele>
        <time>2022-08-15T10:14:54Z</time>
      </trkpt>
      <trkpt lat="47.10278" lon="-1.56103">
        <ele>59</ele>
        <time>2022-08-15T10:14:56Z</time>
      </trkpt>
      <trkpt lat="47.10268" lon="-1.5609">
        <ele>59</ele>
        <time>2022-08-15T10:14:58Z</time>
      </trkpt>
      <trkpt lat="47.10259" lon="-1.56079">
        <ele>60</ele>
        <time>2022-08-15T10:15:00Z</time>
      </trkpt>
      <trkpt lat="47.10249" lon="-1.56066">
        <ele>60</ele>
        <time>2022-08-15T10:15:02Z</time>
      </trkpt>
      <trkpt lat="47.1024" lon="-1.56053">
        <ele>60</ele>
        <time>2022-08-15T10:15:04Z</time>
      </trkpt>
      <trkpt lat="47.10231" lon="-1.5604">
        <ele>60</ele>
        <time>2022-08-15T10:15:06Z</time>
      </trkpt>
      <trkpt lat="47.10221" lon="-1.56027">
        <ele>60</ele>
        <time>2022-08-15T10:15:08Z</time>
      </trkpt>
      <trkpt lat="47.10212" lon="-1.56013">
        <ele>60</ele>
        <time>2022-08-15T10:15:10Z</time>
      </trkpt>
      <trkpt lat="47.10202" lon="-1.56">
        <ele>59</ele>
        <time>2022-08-15T10:15:12Z</time>
      </trkpt>
      <trkpt lat="47.10192" lon="-1.55987">
        <ele>59</ele>
        <time>2022-08-15T10:15:14Z</time>
      </trkpt>
      <trkpt lat="47.10182" lon="-1.55974">
        <ele>59</ele>
        <time>2022-08-15T10:15:16Z</time>
      </trkpt>
      <trkpt lat="47.10173" lon="-1.55961">
        <ele>60</ele>
        <time>2022-08-15T10:15:18Z</time>
      </trkpt>
      <trkpt lat="47.10163" lon="-1.55949">
        <ele>60</ele>
        <time>2022-08-15T10:15:20Z</time>
      </trkpt>
      <trkpt lat="47.10153" lon="-1.55936">
        <ele>59</ele>
        <time>2022-08-15T10:15:22Z</time>
      </trkpt>
      <trkpt lat="47.10144" lon="-1.55923">
        <ele>59</ele>
        <time>2022-08-15T10:15:24Z</time>
      </trkpt>
      <trkpt lat="47.10134" lon="-1.5591">
        <ele>59</ele>
        <time>2022-08-15T10:15:26Z</time>
      </trkpt>
      <trkpt lat="47.10124" lon="-1.55897">
        <ele>59</ele>
        <time>2022-08-15T10:15:28Z</time>
      </trkpt>
      <trkpt lat="47.10114" lon="-1.55884">
        <ele>59</ele>
        <time>2022-08-15T10:15:30Z</time>
      </trkpt>
      <trkpt lat="47.10104" lon="-1.55871">
        <ele>59</ele>
        <time>2022-08-15T10:15:32Z</time>
      </trkpt>
      <trkpt lat="47.10094" lon="-1.55859">
        <ele>60</ele>
        <time>2022-08-15T10:15:34Z</time>
      </trkpt>
      <trkpt lat="47.10083" lon="-1.55853">
        <ele>59</ele>
        <time>2022-08-15T10:15:36Z</time>
      </trkpt>
      <trkpt lat="47.10071" lon="-1.55859">
        <ele>60</ele>
        <time>2022-08-15T10:15:38Z</time>
      </trkpt>
      <trkpt lat="47.10062" lon="-1.55869">
        <ele>60</ele>
        <time>2022-08-15T10:15:40Z</time>
      </trkpt>
      <trkpt lat="47.10055" lon="-1.55883">
        <ele>60</ele>
        <time>2022-08-15T10:15:42Z</time>
      </trkpt>
      <trkpt lat="47.10048" lon="-1.55897">
        <ele>60</ele>
        <time>2022-08-15T10:15:44Z</time>
      </trkpt>
      <trkpt lat="47.1004" lon="-1.55911">
        <ele>60</ele>
        <time>2022-08-15T10:15:46Z</time>
      </trkpt>
      <trkpt lat="47.10033" lon="-1.55924">
        <ele>60</ele>
        <time>2022-08-15T10:15:48Z</time>
      </trkpt>
      <trkpt lat="47.10026" lon="-1.55937">
        <ele>60</ele>
        <time>2022-08-15T10:15:50Z</time>
      </trkpt>
      <trkpt lat="47.10018" lon="-1.55951">
        <ele>60</ele>
        <time>2022-08-15T10:15:52Z</time>
      </trkpt>
      <trkpt lat="47.1001" lon="-1.55964">
        <ele>60</ele>
        <time>2022-08-15T10:15:54Z</time>
      </trkpt>
      <trkpt lat="47.10003" lon="-1.55977">
        <ele>60</ele>
        <time>2022-08-15T10:15:56Z</time>
      </trkpt>
      <trkpt lat="47.09995" lon="-1.5599">
        <ele>60</ele>
        <time>2022-08-15T10:15:58Z</time>
      </trkpt>
      <trkpt lat="47.09988" lon="-1.56004">
        <ele>59</ele>
        <time>2022-08-15T10:16:00Z</time>
      </trkpt>
      <trkpt lat="47.0998" lon="-1.56018">
        <ele>60</ele>
        <time>2022-08-15T10:16:02Z</time>
      </trkpt>
      <trkpt lat="47.09972" lon="-1.56031">
        <ele>59</ele>
        <time>2022-08-15T10:16:04Z</time>
      </trkpt>
      <trkpt lat="47.09965" lon="-1.56044">
        <ele>59</ele>
        <time>2022-08-15T10:16:06Z</time>
      </trkpt>
      <trkpt lat="47.09957" lon="-1.56058">
        <ele>59</ele>
        <time>2022-08-15T10:16:08Z</time>
      </trkpt>
      <trkpt lat="47.0995" lon="-1.5607">
        <ele>59</ele>
        <time>2022-08-15T10:16:10Z</time>
      </trkpt>
      <trkpt lat="47.09943" lon="-1.56083">
        <ele>59</ele>
        <time>2022-08-15T10:16:12Z</time>
      </trkpt>
      <trkpt lat="47.09936" lon="-1.56096">
        <ele>59</ele>
        <time>2022-08-15T10:16:14Z</time>
      </trkpt>
      <trkpt lat="47.09929" lon="-1.56109">
        <ele>59</ele>
        <time>2022-08-15T10:16:16Z</time>
      </trkpt>
      <trkpt lat="47.09922" lon="-1.56121">
        <ele>59</ele>
        <time>2022-08-15T10:16:18Z</time>
      </trkpt>
      <trkpt lat="47.09914" lon="-1.56133">
        <ele>59</ele>
        <time>2022-08-15T10:16:20Z</time>
      </trkpt>
      <trkpt lat="47.09907" lon="-1.56146">
        <ele>59</ele>
        <time>2022-08-15T10:16:22Z</time>
      </trkpt>
      <trkpt lat="47.09901" lon="-1.56159">
        <ele>59</ele>
        <time>2022-08-15T10:16:24Z</time>
      </trkpt>
      <trkpt lat="47.09893" lon="-1.56173">
        <ele>59</ele>
        <time>2022-08-15T10:16:26Z</time>
      </trkpt>
      <trkpt lat="47.09885" lon="-1.56186">
        <ele>60</ele>
        <time>2022-08-15T10:16:28Z</time>
      </trkpt>
      <trkpt lat="47.09878" lon="-1.562">
        <ele>60</ele>
        <time>2022-08-15T10:16:30Z</time>
      </trkpt>
      <trkpt lat="47.0987" lon="-1.56213">
        <ele>60</ele>
        <time>2022-08-15T10:16:32Z</time>
      </trkpt>
      <trkpt lat="47.09863" lon="-1.56227">
        <ele>59</ele>
        <time>2022-08-15T10:16:34Z</time>
      </trkpt>
      <trkpt lat="47.09856" lon="-1.56238">
        <ele>59</ele>
        <time>2022-08-15T10:16:36Z</time>
      </trkpt>
      <trkpt lat="47.09844" lon="-1.56242">
        <ele>59</ele>
        <time>2022-08-15T10:16:39Z</time>
      </trkpt>
      <trkpt lat="47.09839" lon="-1.5623">
        <ele>60</ele>
        <time>2022-08-15T10:16:41Z</time>
      </trkpt>
      <trkpt lat="47.09837" lon="-1.56213">
        <ele>60</ele>
        <time>2022-08-15T10:16:43Z</time>
      </trkpt>
      <trkpt lat="47.09835" lon="-1.56195">
        <ele>60</ele>
        <time>2022-08-15T10:16:45Z</time>
      </trkpt>
      <trkpt lat="47.09833" lon="-1.56178">
        <ele>59</ele>
        <time>2022-08-15T10:16:47Z</time>
      </trkpt>
      <trkpt lat="47.09831" lon="-1.56161">
        <ele>59</ele>
        <time>2022-08-15T10:16:49Z</time>
      </trkpt>
      <trkpt lat="47.09828" lon="-1.56144">
        <ele>59</ele>
        <time>2022-08-15T10:16:51Z</time>
      </trkpt>
      <trkpt lat="47.09825" lon="-1.56126">
        <ele>59</ele>
        <time>2022-08-15T10:16:53Z</time>
      </trkpt>
      <trkpt lat="47.09823" lon="-1.56109">
        <ele>60</ele>
        <time>2022-08-15T10:16:55Z</time>
      </trkpt>
      <trkpt lat="47.0982" lon="-1.56092">
        <ele>60</ele>
        <time>2022-08-15T10:16:57Z</time>
      </trkpt>
      <trkpt lat="47.09818" lon="-1.56073">
        <ele>61</ele>
        <time>2022-08-15T10:16:59Z</time>
      </trkpt>
      <trkpt lat="47.09815" lon="-1.56055">
        <ele>62</ele>
        <time>2022-08-15T10:17:01Z</time>
      </trkpt>
      <trkpt lat="47.09813" lon="-1.56037">
        <ele>63</ele>
        <time>2022-08-15T10:17:03Z</time>
      </trkpt>
      <trkpt lat="47.09811" lon="-1.5602">
        <ele>62</ele>
        <time>2022-08-15T10:17:05Z</time>
      </trkpt>
      <trkpt lat="47.09808" lon="-1.56003">
        <ele>62</ele>
        <time>2022-08-15T10:17:07Z</time>
      </trkpt>
      <trkpt lat="47.09806" lon="-1.55985">
        <ele>62</ele>
        <time>2022-08-15T10:17:09Z</time>
      </trkpt>
      <trkpt lat="47.09804" lon="-1.55967">
        <ele>63</ele>
        <time>2022-08-15T10:17:11Z</time>
      </trkpt>
      <trkpt lat="47.09802" lon="-1.55949">
        <ele>63</ele>
        <time>2022-08-15T10:17:13Z</time>
      </trkpt>
      <trkpt lat="47.098" lon="-1.55932">
        <ele>64</ele>
        <time>2022-08-15T10:17:15Z</time>
      </trkpt>
      <trkpt lat="47.09798" lon="-1.55914">
        <ele>64</ele>
        <time>2022-08-15T10:17:17Z</time>
      </trkpt>
      <trkpt lat="47.09796" lon="-1.55896">
        <ele>65</ele>
        <time>2022-08-15T10:17:19Z</time>
      </trkpt>
      <trkpt lat="47.09793" lon="-1.55878">
        <ele>64</ele>
        <time>2022-08-15T10:17:21Z</time>
      </trkpt>
      <trkpt lat="47.09791" lon="-1.5586">
        <ele>63</ele>
        <time>2022-08-15T10:17:23Z</time>
      </trkpt>
      <trkpt lat="47.09789" lon="-1.55842">
        <ele>64</ele>
        <time>2022-08-15T10:17:25Z</time>
      </trkpt>
      <trkpt lat="47.09787" lon="-1.55824">
        <ele>64</ele>
        <time>2022-08-15T10:17:27Z</time>
      </trkpt>
      <trkpt lat="47.09784" lon="-1.55807">
        <ele>64</ele>
        <time>2022-08-15T10:17:29Z</time>
      </trkpt>
      <trkpt lat="47.09782" lon="-1.55789">
        <ele>64</ele>
        <time>2022-08-15T10:17:31Z</time>
      </trkpt>
      <trkpt lat="47.09779" lon="-1.55771">
        <ele>64</ele>
        <time>2022-08-15T10:17:33Z</time>
      </trkpt>
      <trkpt lat="47.09777" lon="-1.55753">
        <ele>65</ele>
        <time>2022-08-15T10:17:35Z</time>
      </trkpt>
      <trkpt lat="47.09775" lon="-1.55734">
        <ele>65</ele>
        <time>2022-08-15T10:17:37Z</time>
      </trkpt>
      <trkpt lat="47.09773" lon="-1.55717">
        <ele>65</ele>
        <time>2022-08-15T10:17:39Z</time>
      </trkpt>
      <trkpt lat="47.0977" lon="-1.55698">
        <ele>64</ele>
        <time>2022-08-15T10:17:41Z</time>
      </trkpt>
      <trkpt lat="47.09768" lon="-1.5568">
        <ele>63</ele>
        <time>2022-08-15T10:17:43Z</time>
      </trkpt>
      <trkpt lat="47.09766" lon="-1.55662">
        <ele>63</ele>
        <time>2022-08-15T10:17:45Z</time>
      </trkpt>
      <trkpt lat="47.09763" lon="-1.55644">
        <ele>63</ele>
        <time>2022-08-15T10:17:47Z</time>
      </trkpt>
      <trkpt lat="47.09761" lon="-1.55625">
        <ele>63</ele>
        <time>2022-08-15T10:17:49Z</time>
      </trkpt>
      <trkpt lat="47.09759" lon="-1.55606">
        <ele>63</ele>
        <time>2022-08-15T10:17:51Z</time>
      </trkpt>
      <trkpt lat="47.09757" lon="-1.55588">
        <ele>62</ele>
        <time>2022-08-15T10:17:53Z</time>
      </trkpt>
      <trkpt lat="47.09754" lon="-1.5557">
        <ele>62</ele>
        <time>2022-08-15T10:17:55Z</time>
      </trkpt>
      <trkpt lat="47.09752" lon="-1.55553">
        <ele>63</ele>
        <time>2022-08-15T10:17:57Z</time>
      </trkpt>
      <trkpt lat="47.0975" lon="-1.55535">
        <ele>63</ele>
        <time>2022-08-15T10:17:59Z</time>
      </trkpt>
      <trkpt lat="47.09748" lon="-1.55517">
        <ele>63</ele>
        <time>2022-08-15T10:18:01Z</time>
      </trkpt>
      <trkpt lat="47.09746" lon="-1.555">
        <ele>63</ele>
        <time>2022-08-15T10:18:03Z</time>
      </trkpt>
      <trkpt lat="47.09743" lon="-1.55483">
        <ele>62</ele>
        <time>2022-08-15T10:18:05Z</time>
      </trkpt>
      <trkpt lat="47.09742" lon="-1.55469">
        <ele>62</ele>
        <time>2022-08-15T10:18:07Z</time>
      </trkpt>
      <trkpt lat="47.09743" lon="-1.55454">
        <ele>62</ele>
        <time>2022-08-15T10:18:09Z</time>
      </trkpt>
      <trkpt lat="47.09749" lon="-1.55443">
        <ele>62</ele>
        <time>2022-08-15T10:18:11Z</time>
      </trkpt>
      <trkpt lat="47.09758" lon="-1.55435">
        <ele>62</ele>
        <time>2022-08-15T10:18:13Z</time>
      </trkpt>
      <trkpt lat="47.09767" lon="-1.55425">
        <ele>61</ele>
        <time>2022-08-15T10:18:15Z</time>
      </trkpt>
      <trkpt lat="47.09777" lon="-1.55415">
        <ele>62</ele>
        <time>2022-08-15T10:18:17Z</time>
      </trkpt>
      <trkpt lat="47.09787" lon="-1.55406">
        <ele>62</ele>
        <time>2022-08-15T10:18:19Z</time>
      </trkpt>
      <trkpt lat="47.09799" lon="-1.55398">
        <ele>62</ele>
        <time>2022-08-15T10:18:21Z</time>
      </trkpt>
      <trkpt lat="47.09811" lon="-1.5539">
        <ele>61</ele>
        <time>2022-08-15T10:18:23Z</time>
      </trkpt>
      <trkpt lat="47.09823" lon="-1.55382">
        <ele>61</ele>
        <time>2022-08-15T10:18:25Z</time>
      </trkpt>
      <trkpt lat="47.09834" lon="-1.55374">
        <ele>61</ele>
        <time>2022-08-15T10:18:27Z</time>
      </trkpt>
      <trkpt lat="47.09846" lon="-1.55366">
        <ele>61</ele>
        <time>2022-08-15T10:18:29Z</time>
      </trkpt>
      <trkpt lat="47.09858" lon="-1.55358">
        <ele>61</ele>
        <time>2022-08-15T10:18:31Z</time>
      </trkpt>
      <trkpt lat="47.0987" lon="-1.5535">
        <ele>60</ele>
        <time>2022-08-15T10:18:33Z</time>
      </trkpt>
      <trkpt lat="47.09881" lon="-1.55342">
        <ele>61</ele>
        <time>2022-08-15T10:18:35Z</time>
      </trkpt>
      <trkpt lat="47.09893" lon="-1.55334">
        <ele>61</ele>
        <time>2022-08-15T10:18:37Z</time>
      </trkpt>
      <trkpt lat="47.09905" lon="-1.55327">
        <ele>61</ele>
        <time>2022-08-15T10:18:39Z</time>
      </trkpt>
      <trkpt lat="47.09916" lon="-1.55319">
        <ele>61</ele>
        <time>2022-08-15T10:18:41Z</time>
      </trkpt>
      <trkpt lat="47.09927" lon="-1.55312">
        <ele>61</ele>
        <time>2022-08-15T10:18:43Z</time>
      </trkpt>
      <trkpt lat="47.09938" lon="-1.55304">
        <ele>61</ele>
        <time>2022-08-15T10:18:45Z</time>
      </trkpt>
      <trkpt lat="47.0995" lon="-1.55296">
        <ele>61</ele>
        <time>2022-08-15T10:18:47Z</time>
      </trkpt>
      <trkpt lat="47.09962" lon="-1.55288">
        <ele>61</ele>
        <time>2022-08-15T10:18:49Z</time>
      </trkpt>
      <trkpt lat="47.09974" lon="-1.5528">
        <ele>61</ele>
        <time>2022-08-15T10:18:51Z</time>
      </trkpt>
      <trkpt lat="47.09985" lon="-1.55273">
        <ele>62</ele>
        <time>2022-08-15T10:18:53Z</time>
      </trkpt>
      <trkpt lat="47.09997" lon="-1.55265">
        <ele>62</ele>
        <time>2022-08-15T10:18:55Z</time>
      </trkpt>
      <trkpt lat="47.10009" lon="-1.55256">
        <ele>62</ele>
        <time>2022-08-15T10:18:57Z</time>
      </trkpt>
      <trkpt lat="47.10021" lon="-1.55249">
        <ele>62</ele>
        <time>2022-08-15T10:18:59Z</time>
      </trkpt>
      <trkpt lat="47.10032" lon="-1.55242">
        <ele>61</ele>
        <time>2022-08-15T10:19:01Z</time>
      </trkpt>
      <trkpt lat="47.10044" lon="-1.55233">
        <ele>61</ele>
        <time>2022-08-15T10:19:03Z</time>
      </trkpt>
      <trkpt lat="47.10056" lon="-1.55226">
        <ele>62</ele>
        <time>2022-08-15T10:19:05Z</time>
      </trkpt>
      <trkpt lat="47.10067" lon="-1.55218">
        <ele>62</ele>
        <time>2022-08-15T10:19:07Z</time>
      </trkpt>
      <trkpt lat="47.10078" lon="-1.55211">
        <ele>62</ele>
        <time>2022-08-15T10:19:09Z</time>
      </trkpt>
      <trkpt lat="47.10089" lon="-1.55203">
        <ele>62</ele>
        <time>2022-08-15T10:19:11Z</time>
      </trkpt>
      <trkpt lat="47.101" lon="-1.55196">
        <ele>62</ele>
        <time>2022-08-15T10:19:13Z</time>
      </trkpt>
      <trkpt lat="47.10111" lon="-1.55189">
        <ele>62</ele>
        <time>2022-08-15T10:19:15Z</time>
      </trkpt>
      <trkpt lat="47.10122" lon="-1.55181">
        <ele>62</ele>
        <time>2022-08-15T10:19:17Z</time>
      </trkpt>
      <trkpt lat="47.10133" lon="-1.55174">
        <ele>62</ele>
        <time>2022-08-15T10:19:19Z</time>
      </trkpt>
      <trkpt lat="47.10145" lon="-1.55166">
        <ele>62</ele>
        <time>2022-08-15T10:19:21Z</time>
      </trkpt>
      <trkpt lat="47.10157" lon="-1.55159">
        <ele>62</ele>
        <time>2022-08-15T10:19:23Z</time>
      </trkpt>
      <trkpt lat="47.10168" lon="-1.55151">
        <ele>62</ele>
        <time>2022-08-15T10:19:25Z</time>
      </trkpt>
      <trkpt lat="47.10179" lon="-1.55144">
        <ele>63</ele>
        <time>2022-08-15T10:19:27Z</time>
      </trkpt>
      <trkpt lat="47.1019" lon="-1.55136">
        <ele>64</ele>
        <time>2022-08-15T10:19:29Z</time>
      </trkpt>
      <trkpt lat="47.10201" lon="-1.55127">
        <ele>64</ele>
        <time>2022-08-15T10:19:31Z</time>
      </trkpt>
      <trkpt lat="47.10212" lon="-1.5512">
        <ele>64</ele>
        <time>2022-08-15T10:19:33Z</time>
      </trkpt>
      <trkpt lat="47.10224" lon="-1.55112">
        <ele>64</ele>
        <time>2022-08-15T10:19:35Z</time>
      </trkpt>
      <trkpt lat="47.10236" lon="-1.55104">
        <ele>64</ele>
        <time>2022-08-15T10:19:37Z</time>
      </trkpt>
      <trkpt lat="47.10247" lon="-1.55097">
        <ele>65</ele>
        <time>2022-08-15T10:19:39Z</time>
      </trkpt>
      <trkpt lat="47.10258" lon="-1.55089">
        <ele>65</ele>
        <time>2022-08-15T10:19:41Z</time>
      </trkpt>
      <trkpt lat="47.10269" lon="-1.55082">
        <ele>65</ele>
        <time>2022-08-15T10:19:43Z</time>
      </trkpt>
      <trkpt lat="47.10281" lon="-1.55074">
        <ele>66</ele>
        <time>2022-08-15T10:19:45Z</time>
      </trkpt>
      <trkpt lat="47.10292" lon="-1.55067">
        <ele>66</ele>
        <time>2022-08-15T10:19:47Z</time>
      </trkpt>
      <trkpt lat="47.10303" lon="-1.55059">
        <ele>66</ele>
        <time>2022-08-15T10:19:49Z</time>
      </trkpt>
      <trkpt lat="47.10314" lon="-1.55051">
        <ele>66</ele>
        <time>2022-08-15T10:19:51Z</time>
      </trkpt>
      <trkpt lat="47.10326" lon="-1.55043">
        <ele>66</ele>
        <time>2022-08-15T10:19:53Z</time>
      </trkpt>
      <trkpt lat="47.10338" lon="-1.55035">
        <ele>66</ele>
        <time>2022-08-15T10:19:55Z</time>
      </trkpt>
      <trkpt lat="47.1035" lon="-1.55028">
        <ele>66</ele>
        <time>2022-08-15T10:19:57Z</time>
      </trkpt>
      <trkpt lat="47.10361" lon="-1.5502">
        <ele>65</ele>
        <time>2022-08-15T10:19:59Z</time>
      </trkpt>
      <trkpt lat="47.10371" lon="-1.55013">
        <ele>65</ele>
        <time>2022-08-15T10:20:01Z</time>
      </trkpt>
      <trkpt lat="47.10383" lon="-1.55005">
        <ele>65</ele>
        <time>2022-08-15T10:20:03Z</time>
      </trkpt>
      <trkpt lat="47.10394" lon="-1.54998">
        <ele>65</ele>
        <time>2022-08-15T10:20:05Z</time>
      </trkpt>
      <trkpt lat="47.10406" lon="-1.5499">
        <ele>65</ele>
        <time>2022-08-15T10:20:07Z</time>
      </trkpt>
      <trkpt lat="47.10417" lon="-1.54982">
        <ele>65</ele>
        <time>2022-08-15T10:20:09Z</time>
      </trkpt>
      <trkpt lat="47.10429" lon="-1.54975">
        <ele>65</ele>
        <time>2022-08-15T10:20:11Z</time>
      </trkpt>
      <trkpt lat="47.1044" lon="-1.54967">
        <ele>65</ele>
        <time>2022-08-15T10:20:13Z</time>
      </trkpt>
      <trkpt lat="47.10451" lon="-1.54959">
        <ele>65</ele>
        <time>2022-08-15T10:20:15Z</time>
      </trkpt>
      <trkpt lat="47.10463" lon="-1.54951">
        <ele>65</ele>
        <time>2022-08-15T10:20:17Z</time>
      </trkpt>
      <trkpt lat="47.10474" lon="-1.54943">
        <ele>65</ele>
        <time>2022-08-15T10:20:19Z</time>
      </trkpt>
      <trkpt lat="47.10486" lon="-1.54936">
        <ele>66</ele>
        <time>2022-08-15T10:20:21Z</time>
      </trkpt>
      <trkpt lat="47.10498" lon="-1.5493">
        <ele>66</ele>
        <time>2022-08-15T10:20:23Z</time>
      </trkpt>
      <trkpt lat="47.10509" lon="-1.54922">
        <ele>66</ele>
        <time>2022-08-15T10:20:25Z</time>
      </trkpt>
      <trkpt lat="47.1052" lon="-1.54915">
        <ele>66</ele>
        <time>2022-08-15T10:20:27Z</time>
      </trkpt>
      <trkpt lat="47.10532" lon="-1.54907">
        <ele>67</ele>
        <time>2022-08-15T10:20:29Z</time>
      </trkpt>
      <trkpt lat="47.10543" lon="-1.54901">
        <ele>68</ele>
        <time>2022-08-15T10:20:31Z</time>
      </trkpt>
      <trkpt lat="47.10554" lon="-1.54893">
        <ele>68</ele>
        <time>2022-08-15T10:20:33Z</time>
      </trkpt>
      <trkpt lat="47.10565" lon="-1.54886">
        <ele>68</ele>
        <time>2022-08-15T10:20:35Z</time>
      </trkpt>
      <trkpt lat="47.10577" lon="-1.54879">
        <ele>68</ele>
        <time>2022-08-15T10:20:37Z</time>
      </trkpt>
      <trkpt lat="47.10589" lon="-1.54871">
        <ele>68</ele>
        <time>2022-08-15T10:20:39Z</time>
      </trkpt>
      <trkpt lat="47.10601" lon="-1.54864">
        <ele>67</ele>
        <time>2022-08-15T10:20:41Z</time>
      </trkpt>
      <trkpt lat="47.10613" lon="-1.54856">
        <ele>67</ele>
        <time>2022-08-15T10:20:43Z</time>
      </trkpt>
      <trkpt lat="47.10625" lon="-1.54849">
        <ele>67</ele>
        <time>2022-08-15T10:20:45Z</time>
      </trkpt>
      <trkpt lat="47.10637" lon="-1.54842">
        <ele>67</ele>
        <time>2022-08-15T10:20:47Z</time>
      </trkpt>
      <trkpt lat="47.10648" lon="-1.54834">
        <ele>67</ele>
        <time>2022-08-15T10:20:49Z</time>
      </trkpt>
      <trkpt lat="47.1066" lon="-1.54826">
        <ele>67</ele>
        <time>2022-08-15T10:20:51Z</time>
      </trkpt>
      <trkpt lat="47.10672" lon="-1.54818">
        <ele>67</ele>
        <time>2022-08-15T10:20:53Z</time>
      </trkpt>
      <trkpt lat="47.10684" lon="-1.5481">
        <ele>67</ele>
        <time>2022-08-15T10:20:55Z</time>
      </trkpt>
      <trkpt lat="47.10695" lon="-1.54802">
        <ele>66</ele>
        <time>2022-08-15T10:20:57Z</time>
      </trkpt>
      <trkpt lat="47.10707" lon="-1.54794">
        <ele>66</ele>
        <time>2022-08-15T10:20:59Z</time>
      </trkpt>
      <trkpt lat="47.10718" lon="-1.54785">
        <ele>66</ele>
        <time>2022-08-15T10:21:01Z</time>
      </trkpt>
      <trkpt lat="47.10729" lon="-1.54777">
        <ele>67</ele>
        <time>2022-08-15T10:21:03Z</time>
      </trkpt>
      <trkpt lat="47.10741" lon="-1.54768">
        <ele>66</ele>
        <time>2022-08-15T10:21:05Z</time>
      </trkpt>
      <trkpt lat="47.10752" lon="-1.5476">
        <ele>67</ele>
        <time>2022-08-15T10:21:07Z</time>
      </trkpt>
      <trkpt lat="47.10763" lon="-1.54752">
        <ele>67</ele>
        <time>2022-08-15T10:21:09Z</time>
      </trkpt>
      <trkpt lat="47.10774" lon="-1.54744">
        <ele>67</ele>
        <time>2022-08-15T10:21:11Z</time>
      </trkpt>
      <trkpt lat="47.10785" lon="-1.54735">
        <ele>67</ele>
        <time>2022-08-15T10:21:13Z</time>
      </trkpt>
      <trkpt lat="47.10797" lon="-1.54726">
        <ele>67</ele>
        <time>2022-08-15T10:21:15Z</time>
      </trkpt>
      <trkpt lat="47.10807" lon="-1.54715">
        <ele>67</ele>
        <time>2022-08-15T10:21:17Z</time>
      </trkpt>
      <trkpt lat="47.10817" lon="-1.54707">
        <ele>67</ele>
        <time>2022-08-15T10:21:19Z</time>
      </trkpt>
      <trkpt lat="47.10826" lon="-1.54698">
        <ele>67</ele>
        <time>2022-08-15T10:21:21Z</time>
      </trkpt>
      <trkpt lat="47.10837" lon="-1.54688">
        <ele>68</ele>
        <time>2022-08-15T10:21:24Z</time>
      </trkpt>
      <trkpt lat="47.10847" lon="-1.54678">
        <ele>68</ele>
        <time>2022-08-15T10:21:27Z</time>
      </trkpt>
      <trkpt lat="47.10857" lon="-1.54672">
        <ele>68</ele>
        <time>2022-08-15T10:21:29Z</time>
      </trkpt>
      <trkpt lat="47.10867" lon="-1.54665">
        <ele>68</ele>
        <time>2022-08-15T10:21:31Z</time>
      </trkpt>
      <trkpt lat="47.10878" lon="-1.54659">
        <ele>68</ele>
        <time>2022-08-15T10:21:33Z</time>
      </trkpt>
      <trkpt lat="47.10889" lon="-1.54652">
        <ele>67</ele>
        <time>2022-08-15T10:21:35Z</time>
      </trkpt>
      <trkpt lat="47.109" lon="-1.54646">
        <ele>68</ele>
        <time>2022-08-15T10:21:37Z</time>
      </trkpt>
      <trkpt lat="47.10911" lon="-1.5464">
        <ele>68</ele>
        <time>2022-08-15T10:21:39Z</time>
      </trkpt>
      <trkpt lat="47.10923" lon="-1.54634">
        <ele>68</ele>
        <time>2022-08-15T10:21:41Z</time>
      </trkpt>
      <trkpt lat="47.10934" lon="-1.54629">
        <ele>68</ele>
        <time>2022-08-15T10:21:43Z</time>
      </trkpt>
      <trkpt lat="47.10944" lon="-1.54621">
        <ele>69</ele>
        <time>2022-08-15T10:21:45Z</time>
      </trkpt>
      <trkpt lat="47.10956" lon="-1.54616">
        <ele>69</ele>
        <time>2022-08-15T10:21:47Z</time>
      </trkpt>
      <trkpt lat="47.10967" lon="-1.5461">
        <ele>69</ele>
        <time>2022-08-15T10:21:49Z</time>
      </trkpt>
      <trkpt lat="47.10979" lon="-1.54605">
        <ele>70</ele>
        <time>2022-08-15T10:21:51Z</time>
      </trkpt>
      <trkpt lat="47.1099" lon="-1.546">
        <ele>70</ele>
        <time>2022-08-15T10:21:53Z</time>
      </trkpt>
      <trkpt lat="47.11002" lon="-1.54595">
        <ele>70</ele>
        <time>2022-08-15T10:21:55Z</time>
      </trkpt>
      <trkpt lat="47.11013" lon="-1.5459">
        <ele>70</ele>
        <time>2022-08-15T10:21:57Z</time>
      </trkpt>
      <trkpt lat="47.11024" lon="-1.54584">
        <ele>70</ele>
        <time>2022-08-15T10:21:59Z</time>
      </trkpt>
      <trkpt lat="47.11036" lon="-1.54579">
        <ele>70</ele>
        <time>2022-08-15T10:22:01Z</time>
      </trkpt>
      <trkpt lat="47.11048" lon="-1.54574">
        <ele>71</ele>
        <time>2022-08-15T10:22:03Z</time>
      </trkpt>
      <trkpt lat="47.11061" lon="-1.54569">
        <ele>71</ele>
        <time>2022-08-15T10:22:05Z</time>
      </trkpt>
      <trkpt lat="47.11072" lon="-1.54562">
        <ele>71</ele>
        <time>2022-08-15T10:22:07Z</time>
      </trkpt>
      <trkpt lat="47.11084" lon="-1.54556">
        <ele>70</ele>
        <time>2022-08-15T10:22:09Z</time>
      </trkpt>
      <trkpt lat="47.11095" lon="-1.5455">
        <ele>70</ele>
        <time>2022-08-15T10:22:11Z</time>
      </trkpt>
      <trkpt lat="47.11107" lon="-1.54545">
        <ele>70</ele>
        <time>2022-08-15T10:22:13Z</time>
      </trkpt>
      <trkpt lat="47.11119" lon="-1.54539">
        <ele>70</ele>
        <time>2022-08-15T10:22:15Z</time>
      </trkpt>
      <trkpt lat="47.11131" lon="-1.54533">
        <ele>70</ele>
        <time>2022-08-15T10:22:17Z</time>
      </trkpt>
      <trkpt lat="47.11143" lon="-1.54526">
        <ele>70</ele>
        <time>2022-08-15T10:22:19Z</time>
      </trkpt>
      <trkpt lat="47.11155" lon="-1.5452">
        <ele>70</ele>
        <time>2022-08-15T10:22:21Z</time>
      </trkpt>
      <trkpt lat="47.11166" lon="-1.54515">
        <ele>71</ele>
        <time>2022-08-15T10:22:23Z</time>
      </trkpt>
      <trkpt lat="47.11178" lon="-1.5451">
        <ele>70</ele>
        <time>2022-08-15T10:22:25Z</time>
      </trkpt>
      <trkpt lat="47.11191" lon="-1.54504">
        <ele>70</ele>
        <time>2022-08-15T10:22:27Z</time>
      </trkpt>
      <trkpt lat="47.11203" lon="-1.54499">
        <ele>70</ele>
        <time>2022-08-15T10:22:29Z</time>
      </trkpt>
      <trkpt lat="47.11215" lon="-1.54493">
        <ele>70</ele>
        <time>2022-08-15T10:22:31Z</time>
      </trkpt>
      <trkpt lat="47.11227" lon="-1.54486">
        <ele>71</ele>
        <time>2022-08-15T10:22:33Z</time>
      </trkpt>
      <trkpt lat="47.11238" lon="-1.5448">
        <ele>71</ele>
        <time>2022-08-15T10:22:35Z</time>
      </trkpt>
      <trkpt lat="47.1125" lon="-1.54473">
        <ele>71</ele>
        <time>2022-08-15T10:22:37Z</time>
      </trkpt>
      <trkpt lat="47.11262" lon="-1.54467">
        <ele>71</ele>
        <time>2022-08-15T10:22:39Z</time>
      </trkpt>
      <trkpt lat="47.11274" lon="-1.54459">
        <ele>71</ele>
        <time>2022-08-15T10:22:41Z</time>
      </trkpt>
      <trkpt lat="47.11285" lon="-1.54451">
        <ele>71</ele>
        <time>2022-08-15T10:22:43Z</time>
      </trkpt>
      <trkpt lat="47.11296" lon="-1.54443">
        <ele>72</ele>
        <time>2022-08-15T10:22:45Z</time>
      </trkpt>
      <trkpt lat="47.11307" lon="-1.54435">
        <ele>72</ele>
        <time>2022-08-15T10:22:47Z</time>
      </trkpt>
      <trkpt lat="47.11318" lon="-1.54427">
        <ele>73</ele>
        <time>2022-08-15T10:22:49Z</time>
      </trkpt>
      <trkpt lat="47.11329" lon="-1.54419">
        <ele>73</ele>
        <time>2022-08-15T10:22:51Z</time>
      </trkpt>
      <trkpt lat="47.11341" lon="-1.54412">
        <ele>73</ele>
        <time>2022-08-15T10:22:53Z</time>
      </trkpt>
      <trkpt lat="47.11353" lon="-1.54404">
        <ele>73</ele>
        <time>2022-08-15T10:22:55Z</time>
      </trkpt>
      <trkpt lat="47.11364" lon="-1.54395">
        <ele>74</ele>
        <time>2022-08-15T10:22:57Z</time>
      </trkpt>
      <trkpt lat="47.11376" lon="-1.54386">
        <ele>74</ele>
        <time>2022-08-15T10:22:59Z</time>
      </trkpt>
      <trkpt lat="47.11387" lon="-1.54379">
        <ele>73</ele>
        <time>2022-08-15T10:23:01Z</time>
      </trkpt>
      <trkpt lat="47.11399" lon="-1.5437">
        <ele>73</ele>
        <time>2022-08-15T10:23:03Z</time>
      </trkpt>
      <trkpt lat="47.11411" lon="-1.54364">
        <ele>73</ele>
        <time>2022-08-15T10:23:05Z</time>
      </trkpt>
      <trkpt lat="47.11424" lon="-1.54356">
        <ele>72</ele>
        <time>2022-08-15T10:23:07Z</time>
      </trkpt>
      <trkpt lat="47.11436" lon="-1.54348">
        <ele>73</ele>
        <time>2022-08-15T10:23:09Z</time>
      </trkpt>
      <trkpt lat="47.11447" lon="-1.5434">
        <ele>73</ele>
        <time>2022-08-15T10:23:11Z</time>
      </trkpt>
      <trkpt lat="47.11458" lon="-1.54331">
        <ele>72</ele>
        <time>2022-08-15T10:23:13Z</time>
      </trkpt>
      <trkpt lat="47.1147" lon="-1.54324">
        <ele>72</ele>
        <time>2022-08-15T10:23:15Z</time>
      </trkpt>
      <trkpt lat="47.11482" lon="-1.54315">
        <ele>72</ele>
        <time>2022-08-15T10:23:17Z</time>
      </trkpt>
      <trkpt lat="47.11493" lon="-1.54307">
        <ele>72</ele>
        <time>2022-08-15T10:23:19Z</time>
      </trkpt>
      <trkpt lat="47.11504" lon="-1.54299">
        <ele>72</ele>
        <time>2022-08-15T10:23:21Z</time>
      </trkpt>
      <trkpt lat="47.11515" lon="-1.54291">
        <ele>72</ele>
        <time>2022-08-15T10:23:23Z</time>
      </trkpt>
      <trkpt lat="47.11527" lon="-1.54283">
        <ele>72</ele>
        <time>2022-08-15T10:23:25Z</time>
      </trkpt>
      <trkpt lat="47.11538" lon="-1.54275">
        <ele>72</ele>
        <time>2022-08-15T10:23:27Z</time>
      </trkpt>
      <trkpt lat="47.1155" lon="-1.54266">
        <ele>72</ele>
        <time>2022-08-15T10:23:29Z</time>
      </trkpt>
      <trkpt lat="47.11562" lon="-1.54258">
        <ele>72</ele>
        <time>2022-08-15T10:23:31Z</time>
      </trkpt>
      <trkpt lat="47.11573" lon="-1.5425">
        <ele>73</ele>
        <time>2022-08-15T10:23:33Z</time>
      </trkpt>
      <trkpt lat="47.11585" lon="-1.54242">
        <ele>73</ele>
        <time>2022-08-15T10:23:35Z</time>
      </trkpt>
      <trkpt lat="47.11597" lon="-1.54234">
        <ele>73</ele>
        <time>2022-08-15T10:23:37Z</time>
      </trkpt>
      <trkpt lat="47.11609" lon="-1.54227">
        <ele>73</ele>
        <time>2022-08-15T10:23:39Z</time>
      </trkpt>
      <trkpt lat="47.1162" lon="-1.54217">
        <ele>73</ele>
        <time>2022-08-15T10:23:41Z</time>
      </trkpt>
      <trkpt lat="47.11631" lon="-1.54207">
        <ele>73</ele>
        <time>2022-08-15T10:23:43Z</time>
      </trkpt>
      <trkpt lat="47.11639" lon="-1.54193">
        <ele>73</ele>
        <time>2022-08-15T10:23:45Z</time>
      </trkpt>
      <trkpt lat="47.11645" lon="-1.54177">
        <ele>73</ele>
        <time>2022-08-15T10:23:47Z</time>
      </trkpt>
      <trkpt lat="47.11649" lon="-1.5416">
        <ele>72</ele>
        <time>2022-08-15T10:23:49Z</time>
      </trkpt>
      <trkpt lat="47.1166" lon="-1.54149">
        <ele>72</ele>
        <time>2022-08-15T10:23:51Z</time>
      </trkpt>
      <trkpt lat="47.11673" lon="-1.54142">
        <ele>71</ele>
        <time>2022-08-15T10:23:53Z</time>
      </trkpt>
      <trkpt lat="47.11684" lon="-1.54132">
        <ele>72</ele>
        <time>2022-08-15T10:23:55Z</time>
      </trkpt>
      <trkpt lat="47.11694" lon="-1.5412">
        <ele>72</ele>
        <time>2022-08-15T10:23:57Z</time>
      </trkpt>
      <trkpt lat="47.11702" lon="-1.54104">
        <ele>72</ele>
        <time>2022-08-15T10:23:59Z</time>
      </trkpt>
      <trkpt lat="47.11709" lon="-1.54088">
        <ele>73</ele>
        <time>2022-08-15T10:24:01Z</time>
      </trkpt>
      <trkpt lat="47.11717" lon="-1.5407">
        <ele>73</ele>
        <time>2022-08-15T10:24:03Z</time>
      </trkpt>
      <trkpt lat="47.11724" lon="-1.54052">
        <ele>73</ele>
        <time>2022-08-15T10:24:05Z</time>
      </trkpt>
      <trkpt lat="47.11731" lon="-1.54035">
        <ele>73</ele>
        <time>2022-08-15T10:24:07Z</time>
      </trkpt>
      <trkpt lat="47.11739" lon="-1.54017">
        <ele>72</ele>
        <time>2022-08-15T10:24:09Z</time>
      </trkpt>
      <trkpt lat="47.11747" lon="-1.53998">
        <ele>71</ele>
        <time>2022-08-15T10:24:11Z</time>
      </trkpt>
      <trkpt lat="47.11754" lon="-1.5398">
        <ele>71</ele>
        <time>2022-08-15T10:24:13Z</time>
      </trkpt>
      <trkpt lat="47.11763" lon="-1.53959">
        <ele>70</ele>
        <time>2022-08-15T10:24:15Z</time>
      </trkpt>
      <trkpt lat="47.11771" lon="-1.53939">
        <ele>69</ele>
        <time>2022-08-15T10:24:17Z</time>
      </trkpt>
      <trkpt lat="47.11779" lon="-1.53918">
        <ele>68</ele>
        <time>2022-08-15T10:24:19Z</time>
      </trkpt>
      <trkpt lat="47.11789" lon="-1.53897">
        <ele>68</ele>
        <time>2022-08-15T10:24:21Z</time>
      </trkpt>
      <trkpt lat="47.11799" lon="-1.53878">
        <ele>66</ele>
        <time>2022-08-15T10:24:23Z</time>
      </trkpt>
      <trkpt lat="47.11811" lon="-1.53858">
        <ele>66</ele>
        <time>2022-08-15T10:24:25Z</time>
      </trkpt>
      <trkpt lat="47.11822" lon="-1.53839">
        <ele>65</ele>
        <time>2022-08-15T10:24:27Z</time>
      </trkpt>
      <trkpt lat="47.11828" lon="-1.53829">
        <ele>66</ele>
        <time>2022-08-15T10:24:28Z</time>
      </trkpt>
      <trkpt lat="47.11838" lon="-1.53808">
        <ele>66</ele>
        <time>2022-08-15T10:24:30Z</time>
      </trkpt>
      <trkpt lat="47.11843" lon="-1.53797">
        <ele>66</ele>
        <time>2022-08-15T10:24:31Z</time>
      </trkpt>
      <trkpt lat="47.11848" lon="-1.53786">
        <ele>65</ele>
        <time>2022-08-15T10:24:32Z</time>
      </trkpt>
      <trkpt lat="47.11853" lon="-1.53775">
        <ele>66</ele>
        <time>2022-08-15T10:24:33Z</time>
      </trkpt>
      <trkpt lat="47.11862" lon="-1.53753">
        <ele>66</ele>
        <time>2022-08-15T10:24:35Z</time>
      </trkpt>
      <trkpt lat="47.1187" lon="-1.5373">
        <ele>65</ele>
        <time>2022-08-15T10:24:37Z</time>
      </trkpt>
      <trkpt lat="47.11878" lon="-1.53707">
        <ele>64</ele>
        <time>2022-08-15T10:24:39Z</time>
      </trkpt>
      <trkpt lat="47.11889" lon="-1.53686">
        <ele>63</ele>
        <time>2022-08-15T10:24:41Z</time>
      </trkpt>
      <trkpt lat="47.11894" lon="-1.53676">
        <ele>63</ele>
        <time>2022-08-15T10:24:42Z</time>
      </trkpt>
      <trkpt lat="47.11905" lon="-1.53656">
        <ele>62</ele>
        <time>2022-08-15T10:24:44Z</time>
      </trkpt>
      <trkpt lat="47.11915" lon="-1.53637">
        <ele>63</ele>
        <time>2022-08-15T10:24:46Z</time>
      </trkpt>
      <trkpt lat="47.11924" lon="-1.53618">
        <ele>62</ele>
        <time>2022-08-15T10:24:48Z</time>
      </trkpt>
      <trkpt lat="47.11935" lon="-1.53599">
        <ele>61</ele>
        <time>2022-08-15T10:24:50Z</time>
      </trkpt>
      <trkpt lat="47.11945" lon="-1.5358">
        <ele>61</ele>
        <time>2022-08-15T10:24:52Z</time>
      </trkpt>
      <trkpt lat="47.11955" lon="-1.53561">
        <ele>61</ele>
        <time>2022-08-15T10:24:54Z</time>
      </trkpt>
      <trkpt lat="47.11966" lon="-1.53541">
        <ele>61</ele>
        <time>2022-08-15T10:24:56Z</time>
      </trkpt>
      <trkpt lat="47.11976" lon="-1.53522">
        <ele>61</ele>
        <time>2022-08-15T10:24:58Z</time>
      </trkpt>
      <trkpt lat="47.11987" lon="-1.53503">
        <ele>60</ele>
        <time>2022-08-15T10:25:00Z</time>
      </trkpt>
      <trkpt lat="47.11997" lon="-1.53485">
        <ele>60</ele>
        <time>2022-08-15T10:25:02Z</time>
      </trkpt>
      <trkpt lat="47.12007" lon="-1.53466">
        <ele>60</ele>
        <time>2022-08-15T10:25:04Z</time>
      </trkpt>
      <trkpt lat="47.12017" lon="-1.53447">
        <ele>60</ele>
        <time>2022-08-15T10:25:06Z</time>
      </trkpt>
      <trkpt lat="47.12026" lon="-1.53428">
        <ele>60</ele>
        <time>2022-08-15T10:25:08Z</time>
      </trkpt>
      <trkpt lat="47.12036" lon="-1.53411">
        <ele>59</ele>
        <time>2022-08-15T10:25:10Z</time>
      </trkpt>
      <trkpt lat="47.12045" lon="-1.53393">
        <ele>59</ele>
        <time>2022-08-15T10:25:12Z</time>
      </trkpt>
      <trkpt lat="47.12054" lon="-1.53374">
        <ele>59</ele>
        <time>2022-08-15T10:25:14Z</time>
      </trkpt>
      <trkpt lat="47.12064" lon="-1.53356">
        <ele>58</ele>
        <time>2022-08-15T10:25:16Z</time>
      </trkpt>
      <trkpt lat="47.12074" lon="-1.53337">
        <ele>58</ele>
        <time>2022-08-15T10:25:18Z</time>
      </trkpt>
      <trkpt lat="47.12084" lon="-1.53317">
        <ele>58</ele>
        <time>2022-08-15T10:25:20Z</time>
      </trkpt>
      <trkpt lat="47.12095" lon="-1.53297">
        <ele>57</ele>
        <time>2022-08-15T10:25:22Z</time>
      </trkpt>
      <trkpt lat="47.12105" lon="-1.53278">
        <ele>56</ele>
        <time>2022-08-15T10:25:24Z</time>
      </trkpt>
      <trkpt lat="47.12116" lon="-1.53258">
        <ele>56</ele>
        <time>2022-08-15T10:25:26Z</time>
      </trkpt>
      <trkpt lat="47.12126" lon="-1.53239">
        <ele>55</ele>
        <time>2022-08-15T10:25:28Z</time>
      </trkpt>
      <trkpt lat="47.12137" lon="-1.5322">
        <ele>55</ele>
        <time>2022-08-15T10:25:30Z</time>
      </trkpt>
      <trkpt lat="47.12147" lon="-1.532">
        <ele>55</ele>
        <time>2022-08-15T10:25:32Z</time>
      </trkpt>
      <trkpt lat="47.12157" lon="-1.53181">
        <ele>55</ele>
        <time>2022-08-15T10:25:34Z</time>
      </trkpt>
      <trkpt lat="47.12166" lon="-1.53163">
        <ele>56</ele>
        <time>2022-08-15T10:25:36Z</time>
      </trkpt>
      <trkpt lat="47.12175" lon="-1.53145">
        <ele>56</ele>
        <time>2022-08-15T10:25:38Z</time>
      </trkpt>
      <trkpt lat="47.12185" lon="-1.53127">
        <ele>57</ele>
        <time>2022-08-15T10:25:40Z</time>
      </trkpt>
      <trkpt lat="47.12193" lon="-1.53109">
        <ele>58</ele>
        <time>2022-08-15T10:25:42Z</time>
      </trkpt>
      <trkpt lat="47.12202" lon="-1.53092">
        <ele>58</ele>
        <time>2022-08-15T10:25:44Z</time>
      </trkpt>
      <trkpt lat="47.12211" lon="-1.53075">
        <ele>58</ele>
        <time>2022-08-15T10:25:46Z</time>
      </trkpt>
      <trkpt lat="47.1222" lon="-1.53058">
        <ele>58</ele>
        <time>2022-08-15T10:25:48Z</time>
      </trkpt>
      <trkpt lat="47.12229" lon="-1.53041">
        <ele>58</ele>
        <time>2022-08-15T10:25:50Z</time>
      </trkpt>
      <trkpt lat="47.12238" lon="-1.53024">
        <ele>58</ele>
        <time>2022-08-15T10:25:52Z</time>
      </trkpt>
      <trkpt lat="47.12247" lon="-1.53008">
        <ele>58</ele>
        <time>2022-08-15T10:25:54Z</time>
      </trkpt>
      <trkpt lat="47.12256" lon="-1.52992">
        <ele>59</ele>
        <time>2022-08-15T10:25:56Z</time>
      </trkpt>
      <trkpt lat="47.12264" lon="-1.52976">
        <ele>60</ele>
        <time>2022-08-15T10:25:58Z</time>
      </trkpt>
      <trkpt lat="47.12272" lon="-1.52961">
        <ele>61</ele>
        <time>2022-08-15T10:26:00Z</time>
      </trkpt>
      <trkpt lat="47.12281" lon="-1.52945">
        <ele>60</ele>
        <time>2022-08-15T10:26:02Z</time>
      </trkpt>
      <trkpt lat="47.12289" lon="-1.5293">
        <ele>61</ele>
        <time>2022-08-15T10:26:04Z</time>
      </trkpt>
      <trkpt lat="47.12298" lon="-1.52915">
        <ele>60</ele>
        <time>2022-08-15T10:26:06Z</time>
      </trkpt>
      <trkpt lat="47.12306" lon="-1.52901">
        <ele>61</ele>
        <time>2022-08-15T10:26:08Z</time>
      </trkpt>
      <trkpt lat="47.12314" lon="-1.52887">
        <ele>61</ele>
        <time>2022-08-15T10:26:10Z</time>
      </trkpt>
      <trkpt lat="47.12323" lon="-1.52874">
        <ele>61</ele>
        <time>2022-08-15T10:26:12Z</time>
      </trkpt>
      <trkpt lat="47.12332" lon="-1.5286">
        <ele>61</ele>
        <time>2022-08-15T10:26:14Z</time>
      </trkpt>
      <trkpt lat="47.12342" lon="-1.52848">
        <ele>61</ele>
        <time>2022-08-15T10:26:16Z</time>
      </trkpt>
      <trkpt lat="47.12352" lon="-1.52836">
        <ele>62</ele>
        <time>2022-08-15T10:26:18Z</time>
      </trkpt>
      <trkpt lat="47.12362" lon="-1.52826">
        <ele>62</ele>
        <time>2022-08-15T10:26:20Z</time>
      </trkpt>
      <trkpt lat="47.12372" lon="-1.52816">
        <ele>62</ele>
        <time>2022-08-15T10:26:22Z</time>
      </trkpt>
      <trkpt lat="47.12383" lon="-1.52806">
        <ele>63</ele>
        <time>2022-08-15T10:26:24Z</time>
      </trkpt>
      <trkpt lat="47.12392" lon="-1.52797">
        <ele>63</ele>
        <time>2022-08-15T10:26:26Z</time>
      </trkpt>
      <trkpt lat="47.12402" lon="-1.52787">
        <ele>64</ele>
        <time>2022-08-15T10:26:28Z</time>
      </trkpt>
      <trkpt lat="47.12411" lon="-1.52778">
        <ele>65</ele>
        <time>2022-08-15T10:26:30Z</time>
      </trkpt>
      <trkpt lat="47.1242" lon="-1.52768">
        <ele>66</ele>
        <time>2022-08-15T10:26:32Z</time>
      </trkpt>
      <trkpt lat="47.12429" lon="-1.52759">
        <ele>66</ele>
        <time>2022-08-15T10:26:34Z</time>
      </trkpt>
      <trkpt lat="47.1244" lon="-1.52751">
        <ele>66</ele>
        <time>2022-08-15T10:26:36Z</time>
      </trkpt>
      <trkpt lat="47.12451" lon="-1.52743">
        <ele>67</ele>
        <time>2022-08-15T10:26:38Z</time>
      </trkpt>
      <trkpt lat="47.12461" lon="-1.52738">
        <ele>67</ele>
        <time>2022-08-15T10:26:40Z</time>
      </trkpt>
      <trkpt lat="47.12472" lon="-1.52734">
        <ele>67</ele>
        <time>2022-08-15T10:26:42Z</time>
      </trkpt>
      <trkpt lat="47.12483" lon="-1.5273">
        <ele>68</ele>
        <time>2022-08-15T10:26:44Z</time>
      </trkpt>
      <trkpt lat="47.12493" lon="-1.52727">
        <ele>68</ele>
        <time>2022-08-15T10:26:46Z</time>
      </trkpt>
      <trkpt lat="47.12504" lon="-1.52723">
        <ele>68</ele>
        <time>2022-08-15T10:26:48Z</time>
      </trkpt>
      <trkpt lat="47.12511" lon="-1.52711">
        <ele>71</ele>
        <time>2022-08-15T10:26:51Z</time>
      </trkpt>
      <trkpt lat="47.12521" lon="-1.52702">
        <ele>71</ele>
        <time>2022-08-15T10:26:54Z</time>
      </trkpt>
      <trkpt lat="47.12531" lon="-1.52705">
        <ele>70</ele>
        <time>2022-08-15T10:26:56Z</time>
      </trkpt>
      <trkpt lat="47.12542" lon="-1.52712">
        <ele>70</ele>
        <time>2022-08-15T10:26:58Z</time>
      </trkpt>
      <trkpt lat="47.12553" lon="-1.5272">
        <ele>70</ele>
        <time>2022-08-15T10:27:00Z</time>
      </trkpt>
      <trkpt lat="47.12565" lon="-1.52729">
        <ele>70</ele>
        <time>2022-08-15T10:27:02Z</time>
      </trkpt>
      <trkpt lat="47.12576" lon="-1.5274">
        <ele>70</ele>
        <time>2022-08-15T10:27:04Z</time>
      </trkpt>
      <trkpt lat="47.12586" lon="-1.52752">
        <ele>70</ele>
        <time>2022-08-15T10:27:06Z</time>
      </trkpt>
      <trkpt lat="47.12596" lon="-1.52764">
        <ele>70</ele>
        <time>2022-08-15T10:27:08Z</time>
      </trkpt>
      <trkpt lat="47.12606" lon="-1.52776">
        <ele>71</ele>
        <time>2022-08-15T10:27:10Z</time>
      </trkpt>
      <trkpt lat="47.12615" lon="-1.52786">
        <ele>71</ele>
        <time>2022-08-15T10:27:12Z</time>
      </trkpt>
      <trkpt lat="47.12624" lon="-1.52798">
        <ele>71</ele>
        <time>2022-08-15T10:27:14Z</time>
      </trkpt>
      <trkpt lat="47.12633" lon="-1.52808">
        <ele>71</ele>
        <time>2022-08-15T10:27:16Z</time>
      </trkpt>
      <trkpt lat="47.12642" lon="-1.52819">
        <ele>72</ele>
        <time>2022-08-15T10:27:18Z</time>
      </trkpt>
      <trkpt lat="47.12651" lon="-1.5283">
        <ele>72</ele>
        <time>2022-08-15T10:27:20Z</time>
      </trkpt>
      <trkpt lat="47.12659" lon="-1.52842">
        <ele>72</ele>
        <time>2022-08-15T10:27:22Z</time>
      </trkpt>
      <trkpt lat="47.12669" lon="-1.52853">
        <ele>72</ele>
        <time>2022-08-15T10:27:24Z</time>
      </trkpt>
      <trkpt lat="47.12678" lon="-1.52865">
        <ele>72</ele>
        <time>2022-08-15T10:27:26Z</time>
      </trkpt>
      <trkpt lat="47.12688" lon="-1.52876">
        <ele>72</ele>
        <time>2022-08-15T10:27:28Z</time>
      </trkpt>
      <trkpt lat="47.12697" lon="-1.52888">
        <ele>72</ele>
        <time>2022-08-15T10:27:30Z</time>
      </trkpt>
      <trkpt lat="47.12706" lon="-1.529">
        <ele>72</ele>
        <time>2022-08-15T10:27:32Z</time>
      </trkpt>
      <trkpt lat="47.12716" lon="-1.52912">
        <ele>72</ele>
        <time>2022-08-15T10:27:34Z</time>
      </trkpt>
      <trkpt lat="47.12725" lon="-1.52924">
        <ele>72</ele>
        <time>2022-08-15T10:27:36Z</time>
      </trkpt>
      <trkpt lat="47.12734" lon="-1.52936">
        <ele>72</ele>
        <time>2022-08-15T10:27:38Z</time>
      </trkpt>
      <trkpt lat="47.12744" lon="-1.52949">
        <ele>71</ele>
        <time>2022-08-15T10:27:40Z</time>
      </trkpt>
      <trkpt lat="47.12754" lon="-1.52961">
        <ele>71</ele>
        <time>2022-08-15T10:27:42Z</time>
      </trkpt>
      <trkpt lat="47.12764" lon="-1.52973">
        <ele>71</ele>
        <time>2022-08-15T10:27:44Z</time>
      </trkpt>
      <trkpt lat="47.12773" lon="-1.52985">
        <ele>71</ele>
        <time>2022-08-15T10:27:46Z</time>
      </trkpt>
      <trkpt lat="47.12783" lon="-1.52997">
        <ele>71</ele>
        <time>2022-08-15T10:27:48Z</time>
      </trkpt>
      <trkpt lat="47.12793" lon="-1.53009">
        <ele>72</ele>
        <time>2022-08-15T10:27:50Z</time>
      </trkpt>
      <trkpt lat="47.12802" lon="-1.53021">
        <ele>72</ele>
        <time>2022-08-15T10:27:52Z</time>
      </trkpt>
      <trkpt lat="47.12811" lon="-1.53032">
        <ele>72</ele>
        <time>2022-08-15T10:27:54Z</time>
      </trkpt>
      <trkpt lat="47.1282" lon="-1.53044">
        <ele>72</ele>
        <time>2022-08-15T10:27:56Z</time>
      </trkpt>
      <trkpt lat="47.12829" lon="-1.53056">
        <ele>72</ele>
        <time>2022-08-15T10:27:58Z</time>
      </trkpt>
      <trkpt lat="47.12839" lon="-1.53067">
        <ele>72</ele>
        <time>2022-08-15T10:28:00Z</time>
      </trkpt>
      <trkpt lat="47.12847" lon="-1.53077">
        <ele>72</ele>
        <time>2022-08-15T10:28:02Z</time>
      </trkpt>
      <trkpt lat="47.12856" lon="-1.53087">
        <ele>73</ele>
        <time>2022-08-15T10:28:04Z</time>
      </trkpt>
      <trkpt lat="47.12865" lon="-1.53099">
        <ele>73</ele>
        <time>2022-08-15T10:28:06Z</time>
      </trkpt>
      <trkpt lat="47.12874" lon="-1.5311">
        <ele>73</ele>
        <time>2022-08-15T10:28:08Z</time>
      </trkpt>
      <trkpt lat="47.12883" lon="-1.53122">
        <ele>73</ele>
        <time>2022-08-15T10:28:10Z</time>
      </trkpt>
      <trkpt lat="47.12893" lon="-1.53133">
        <ele>73</ele>
        <time>2022-08-15T10:28:12Z</time>
      </trkpt>
      <trkpt lat="47.12902" lon="-1.53145">
        <ele>73</ele>
        <time>2022-08-15T10:28:14Z</time>
      </trkpt>
      <trkpt lat="47.12911" lon="-1.53156">
        <ele>73</ele>
        <time>2022-08-15T10:28:16Z</time>
      </trkpt>
      <trkpt lat="47.1292" lon="-1.53167">
        <ele>73</ele>
        <time>2022-08-15T10:28:18Z</time>
      </trkpt>
      <trkpt lat="47.12929" lon="-1.53178">
        <ele>73</ele>
        <time>2022-08-15T10:28:20Z</time>
      </trkpt>
      <trkpt lat="47.12937" lon="-1.53189">
        <ele>74</ele>
        <time>2022-08-15T10:28:22Z</time>
      </trkpt>
      <trkpt lat="47.12947" lon="-1.532">
        <ele>74</ele>
        <time>2022-08-15T10:28:24Z</time>
      </trkpt>
      <trkpt lat="47.12956" lon="-1.5321">
        <ele>74</ele>
        <time>2022-08-15T10:28:26Z</time>
      </trkpt>
      <trkpt lat="47.12966" lon="-1.5322">
        <ele>74</ele>
        <time>2022-08-15T10:28:28Z</time>
      </trkpt>
      <trkpt lat="47.12976" lon="-1.53229">
        <ele>75</ele>
        <time>2022-08-15T10:28:30Z</time>
      </trkpt>
      <trkpt lat="47.12987" lon="-1.53238">
        <ele>75</ele>
        <time>2022-08-15T10:28:32Z</time>
      </trkpt>
      <trkpt lat="47.12998" lon="-1.53245">
        <ele>75</ele>
        <time>2022-08-15T10:28:34Z</time>
      </trkpt>
      <trkpt lat="47.1301" lon="-1.53251">
        <ele>75</ele>
        <time>2022-08-15T10:28:36Z</time>
      </trkpt>
      <trkpt lat="47.13022" lon="-1.53255">
        <ele>75</ele>
        <time>2022-08-15T10:28:38Z</time>
      </trkpt>
      <trkpt lat="47.13035" lon="-1.53256">
        <ele>75</ele>
        <time>2022-08-15T10:28:40Z</time>
      </trkpt>
      <trkpt lat="47.13048" lon="-1.53256">
        <ele>75</ele>
        <time>2022-08-15T10:28:42Z</time>
      </trkpt>
      <trkpt lat="47.1306" lon="-1.53253">
        <ele>75</ele>
        <time>2022-08-15T10:28:44Z</time>
      </trkpt>
      <trkpt lat="47.13071" lon="-1.53249">
        <ele>74</ele>
        <time>2022-08-15T10:28:46Z</time>
      </trkpt>
      <trkpt lat="47.13083" lon="-1.53244">
        <ele>74</ele>
        <time>2022-08-15T10:28:48Z</time>
      </trkpt>
      <trkpt lat="47.13095" lon="-1.5324">
        <ele>74</ele>
        <time>2022-08-15T10:28:50Z</time>
      </trkpt>
      <trkpt lat="47.13106" lon="-1.53236">
        <ele>73</ele>
        <time>2022-08-15T10:28:52Z</time>
      </trkpt>
      <trkpt lat="47.13117" lon="-1.53231">
        <ele>74</ele>
        <time>2022-08-15T10:28:54Z</time>
      </trkpt>
      <trkpt lat="47.13128" lon="-1.53228">
        <ele>74</ele>
        <time>2022-08-15T10:28:56Z</time>
      </trkpt>
      <trkpt lat="47.13139" lon="-1.53226">
        <ele>74</ele>
        <time>2022-08-15T10:28:58Z</time>
      </trkpt>
      <trkpt lat="47.13151" lon="-1.53223">
        <ele>74</ele>
        <time>2022-08-15T10:29:00Z</time>
      </trkpt>
      <trkpt lat="47.1316" lon="-1.5323">
        <ele>74</ele>
        <time>2022-08-15T10:29:02Z</time>
      </trkpt>
      <trkpt lat="47.13165" lon="-1.53246">
        <ele>75</ele>
        <time>2022-08-15T10:29:04Z</time>
      </trkpt>
      <trkpt lat="47.1317" lon="-1.53263">
        <ele>75</ele>
        <time>2022-08-15T10:29:06Z</time>
      </trkpt>
      <trkpt lat="47.13175" lon="-1.5328">
        <ele>75</ele>
        <time>2022-08-15T10:29:08Z</time>
      </trkpt>
      <trkpt lat="47.1318" lon="-1.53296">
        <ele>75</ele>
        <time>2022-08-15T10:29:10Z</time>
      </trkpt>
      <trkpt lat="47.13185" lon="-1.53312">
        <ele>75</ele>
        <time>2022-08-15T10:29:12Z</time>
      </trkpt>
      <trkpt lat="47.1319" lon="-1.53328">
        <ele>75</ele>
        <time>2022-08-15T10:29:14Z</time>
      </trkpt>
      <trkpt lat="47.13195" lon="-1.53344">
        <ele>75</ele>
        <time>2022-08-15T10:29:16Z</time>
      </trkpt>
      <trkpt lat="47.13201" lon="-1.5336">
        <ele>75</ele>
        <time>2022-08-15T10:29:18Z</time>
      </trkpt>
      <trkpt lat="47.13206" lon="-1.53376">
        <ele>75</ele>
        <time>2022-08-15T10:29:20Z</time>
      </trkpt>
      <trkpt lat="47.13211" lon="-1.53391">
        <ele>75</ele>
        <time>2022-08-15T10:29:22Z</time>
      </trkpt>
      <trkpt lat="47.13215" lon="-1.53407">
        <ele>75</ele>
        <time>2022-08-15T10:29:24Z</time>
      </trkpt>
      <trkpt lat="47.13221" lon="-1.53423">
        <ele>75</ele>
        <time>2022-08-15T10:29:26Z</time>
      </trkpt>
      <trkpt lat="47.13226" lon="-1.53439">
        <ele>75</ele>
        <time>2022-08-15T10:29:28Z</time>
      </trkpt>
      <trkpt lat="47.1323" lon="-1.53455">
        <ele>76</ele>
        <time>2022-08-15T10:29:30Z</time>
      </trkpt>
      <trkpt lat="47.13235" lon="-1.53471">
        <ele>76</ele>
        <time>2022-08-15T10:29:32Z</time>
      </trkpt>
      <trkpt lat="47.1324" lon="-1.53486">
        <ele>76</ele>
        <time>2022-08-15T10:29:34Z</time>
      </trkpt>
      <trkpt lat="47.13245" lon="-1.53502">
        <ele>76</ele>
        <time>2022-08-15T10:29:36Z</time>
      </trkpt>
      <trkpt lat="47.1325" lon="-1.53517">
        <ele>76</ele>
        <time>2022-08-15T10:29:38Z</time>
      </trkpt>
      <trkpt lat="47.13255" lon="-1.53533">
        <ele>76</ele>
        <time>2022-08-15T10:29:40Z</time>
      </trkpt>
      <trkpt lat="47.1326" lon="-1.53548">
        <ele>77</ele>
        <time>2022-08-15T10:29:42Z</time>
      </trkpt>
      <trkpt lat="47.13265" lon="-1.53564">
        <ele>77</ele>
        <time>2022-08-15T10:29:44Z</time>
      </trkpt>
      <trkpt lat="47.13271" lon="-1.5358">
        <ele>77</ele>
        <time>2022-08-15T10:29:46Z</time>
      </trkpt>
      <trkpt lat="47.13276" lon="-1.53596">
        <ele>77</ele>
        <time>2022-08-15T10:29:48Z</time>
      </trkpt>
      <trkpt lat="47.13281" lon="-1.53612">
        <ele>77</ele>
        <time>2022-08-15T10:29:50Z</time>
      </trkpt>
      <trkpt lat="47.13287" lon="-1.53629">
        <ele>77</ele>
        <time>2022-08-15T10:29:52Z</time>
      </trkpt>
      <trkpt lat="47.13292" lon="-1.53645">
        <ele>76</ele>
        <time>2022-08-15T10:29:54Z</time>
      </trkpt>
      <trkpt lat="47.13297" lon="-1.53661">
        <ele>76</ele>
        <time>2022-08-15T10:29:56Z</time>
      </trkpt>
      <trkpt lat="47.13303" lon="-1.53677">
        <ele>76</ele>
        <time>2022-08-15T10:29:58Z</time>
      </trkpt>
      <trkpt lat="47.13309" lon="-1.53693">
        <ele>76</ele>
        <time>2022-08-15T10:30:00Z</time>
      </trkpt>
      <trkpt lat="47.13316" lon="-1.53709">
        <ele>76</ele>
        <time>2022-08-15T10:30:02Z</time>
      </trkpt>
      <trkpt lat="47.13323" lon="-1.53725">
        <ele>75</ele>
        <time>2022-08-15T10:30:04Z</time>
      </trkpt>
      <trkpt lat="47.1333" lon="-1.53741">
        <ele>75</ele>
        <time>2022-08-15T10:30:06Z</time>
      </trkpt>
      <trkpt lat="47.13338" lon="-1.53758">
        <ele>75</ele>
        <time>2022-08-15T10:30:08Z</time>
      </trkpt>
      <trkpt lat="47.13346" lon="-1.53775">
        <ele>74</ele>
        <time>2022-08-15T10:30:10Z</time>
      </trkpt>
      <trkpt lat="47.13355" lon="-1.53791">
        <ele>74</ele>
        <time>2022-08-15T10:30:12Z</time>
      </trkpt>
      <trkpt lat="47.13364" lon="-1.53808">
        <ele>74</ele>
        <time>2022-08-15T10:30:14Z</time>
      </trkpt>
      <trkpt lat="47.13373" lon="-1.53824">
        <ele>74</ele>
        <time>2022-08-15T10:30:16Z</time>
      </trkpt>
      <trkpt lat="47.13386" lon="-1.53849">
        <ele>73</ele>
        <time>2022-08-15T10:30:19Z</time>
      </trkpt>
      <trkpt lat="47.13394" lon="-1.53865">
        <ele>73</ele>
        <time>2022-08-15T10:30:21Z</time>
      </trkpt>
      <trkpt lat="47.13402" lon="-1.5388">
        <ele>74</ele>
        <time>2022-08-15T10:30:23Z</time>
      </trkpt>
      <trkpt lat="47.13411" lon="-1.53895">
        <ele>74</ele>
        <time>2022-08-15T10:30:25Z</time>
      </trkpt>
      <trkpt lat="47.13419" lon="-1.53909">
        <ele>74</ele>
        <time>2022-08-15T10:30:27Z</time>
      </trkpt>
      <trkpt lat="47.1343" lon="-1.53931">
        <ele>74</ele>
        <time>2022-08-15T10:30:30Z</time>
      </trkpt>
      <trkpt lat="47.13441" lon="-1.53952">
        <ele>75</ele>
        <time>2022-08-15T10:30:33Z</time>
      </trkpt>
      <trkpt lat="47.13449" lon="-1.53966">
        <ele>75</ele>
        <time>2022-08-15T10:30:35Z</time>
      </trkpt>
      <trkpt lat="47.13456" lon="-1.5398">
        <ele>74</ele>
        <time>2022-08-15T10:30:37Z</time>
      </trkpt>
      <trkpt lat="47.13464" lon="-1.53994">
        <ele>75</ele>
        <time>2022-08-15T10:30:39Z</time>
      </trkpt>
      <trkpt lat="47.13472" lon="-1.54008">
        <ele>75</ele>
        <time>2022-08-15T10:30:41Z</time>
      </trkpt>
      <trkpt lat="47.13479" lon="-1.54022">
        <ele>75</ele>
        <time>2022-08-15T10:30:43Z</time>
      </trkpt>
      <trkpt lat="47.13488" lon="-1.54035">
        <ele>75</ele>
        <time>2022-08-15T10:30:45Z</time>
      </trkpt>
      <trkpt lat="47.13496" lon="-1.54048">
        <ele>76</ele>
        <time>2022-08-15T10:30:47Z</time>
      </trkpt>
      <trkpt lat="47.13505" lon="-1.5406">
        <ele>75</ele>
        <time>2022-08-15T10:30:49Z</time>
      </trkpt>
      <trkpt lat="47.13513" lon="-1.54073">
        <ele>76</ele>
        <time>2022-08-15T10:30:51Z</time>
      </trkpt>
      <trkpt lat="47.13522" lon="-1.54086">
        <ele>76</ele>
        <time>2022-08-15T10:30:53Z</time>
      </trkpt>
      <trkpt lat="47.1353" lon="-1.54099">
        <ele>76</ele>
        <time>2022-08-15T10:30:55Z</time>
      </trkpt>
      <trkpt lat="47.13538" lon="-1.54111">
        <ele>76</ele>
        <time>2022-08-15T10:30:57Z</time>
      </trkpt>
      <trkpt lat="47.13547" lon="-1.54124">
        <ele>76</ele>
        <time>2022-08-15T10:30:59Z</time>
      </trkpt>
      <trkpt lat="47.13555" lon="-1.54137">
        <ele>77</ele>
        <time>2022-08-15T10:31:01Z</time>
      </trkpt>
      <trkpt lat="47.13564" lon="-1.54149">
        <ele>77</ele>
        <time>2022-08-15T10:31:03Z</time>
      </trkpt>
      <trkpt lat="47.13572" lon="-1.54161">
        <ele>77</ele>
        <time>2022-08-15T10:31:05Z</time>
      </trkpt>
      <trkpt lat="47.13581" lon="-1.54173">
        <ele>77</ele>
        <time>2022-08-15T10:31:07Z</time>
      </trkpt>
      <trkpt lat="47.13591" lon="-1.54184">
        <ele>77</ele>
        <time>2022-08-15T10:31:09Z</time>
      </trkpt>
      <trkpt lat="47.13602" lon="-1.54193">
        <ele>77</ele>
        <time>2022-08-15T10:31:11Z</time>
      </trkpt>
      <trkpt lat="47.13613" lon="-1.54201">
        <ele>77</ele>
        <time>2022-08-15T10:31:13Z</time>
      </trkpt>
      <trkpt lat="47.13625" lon="-1.54207">
        <ele>77</ele>
        <time>2022-08-15T10:31:15Z</time>
      </trkpt>
      <trkpt lat="47.13635" lon="-1.54213">
        <ele>77</ele>
        <time>2022-08-15T10:31:17Z</time>
      </trkpt>
      <trkpt lat="47.13646" lon="-1.54219">
        <ele>77</ele>
        <time>2022-08-15T10:31:19Z</time>
      </trkpt>
      <trkpt lat="47.13657" lon="-1.54225">
        <ele>77</ele>
        <time>2022-08-15T10:31:21Z</time>
      </trkpt>
      <trkpt lat="47.13669" lon="-1.54232">
        <ele>77</ele>
        <time>2022-08-15T10:31:23Z</time>
      </trkpt>
      <trkpt lat="47.13681" lon="-1.54238">
        <ele>78</ele>
        <time>2022-08-15T10:31:25Z</time>
      </trkpt>
      <trkpt lat="47.13692" lon="-1.54244">
        <ele>78</ele>
        <time>2022-08-15T10:31:27Z</time>
      </trkpt>
      <trkpt lat="47.13704" lon="-1.5425">
        <ele>78</ele>
        <time>2022-08-15T10:31:29Z</time>
      </trkpt>
      <trkpt lat="47.13715" lon="-1.54255">
        <ele>77</ele>
        <time>2022-08-15T10:31:31Z</time>
      </trkpt>
      <trkpt lat="47.13727" lon="-1.54261">
        <ele>77</ele>
        <time>2022-08-15T10:31:33Z</time>
      </trkpt>
      <trkpt lat="47.13739" lon="-1.54267">
        <ele>77</ele>
        <time>2022-08-15T10:31:35Z</time>
      </trkpt>
      <trkpt lat="47.13751" lon="-1.54272">
        <ele>77</ele>
        <time>2022-08-15T10:31:37Z</time>
      </trkpt>
      <trkpt lat="47.13764" lon="-1.54278">
        <ele>77</ele>
        <time>2022-08-15T10:31:39Z</time>
      </trkpt>
      <trkpt lat="47.13777" lon="-1.54284">
        <ele>78</ele>
        <time>2022-08-15T10:31:41Z</time>
      </trkpt>
      <trkpt lat="47.1379" lon="-1.54288">
        <ele>78</ele>
        <time>2022-08-15T10:31:43Z</time>
      </trkpt>
      <trkpt lat="47.13803" lon="-1.54293">
        <ele>78</ele>
        <time>2022-08-15T10:31:45Z</time>
      </trkpt>
      <trkpt lat="47.13817" lon="-1.54299">
        <ele>78</ele>
        <time>2022-08-15T10:31:47Z</time>
      </trkpt>
      <trkpt lat="47.1383" lon="-1.54306">
        <ele>78</ele>
        <time>2022-08-15T10:31:49Z</time>
      </trkpt>
      <trkpt lat="47.13843" lon="-1.54315">
        <ele>78</ele>
        <time>2022-08-15T10:31:51Z</time>
      </trkpt>
      <trkpt lat="47.13856" lon="-1.54324">
        <ele>77</ele>
        <time>2022-08-15T10:31:53Z</time>
      </trkpt>
      <trkpt lat="47.13868" lon="-1.54335">
        <ele>77</ele>
        <time>2022-08-15T10:31:55Z</time>
      </trkpt>
      <trkpt lat="47.13881" lon="-1.54345">
        <ele>77</ele>
        <time>2022-08-15T10:31:57Z</time>
      </trkpt>
      <trkpt lat="47.13894" lon="-1.54356">
        <ele>76</ele>
        <time>2022-08-15T10:31:59Z</time>
      </trkpt>
      <trkpt lat="47.13907" lon="-1.54367">
        <ele>76</ele>
        <time>2022-08-15T10:32:01Z</time>
      </trkpt>
      <trkpt lat="47.1392" lon="-1.54377">
        <ele>76</ele>
        <time>2022-08-15T10:32:03Z</time>
      </trkpt>
      <trkpt lat="47.13933" lon="-1.54388">
        <ele>75</ele>
        <time>2022-08-15T10:32:05Z</time>
      </trkpt>
      <trkpt lat="47.13946" lon="-1.54399">
        <ele>75</ele>
        <time>2022-08-15T10:32:07Z</time>
      </trkpt>
      <trkpt lat="47.13959" lon="-1.5441">
        <ele>75</ele>
        <time>2022-08-15T10:32:09Z</time>
      </trkpt>
      <trkpt lat="47.13972" lon="-1.5442">
        <ele>75</ele>
        <time>2022-08-15T10:32:11Z</time>
      </trkpt>
      <trkpt lat="47.13984" lon="-1.5443">
        <ele>75</ele>
        <time>2022-08-15T10:32:13Z</time>
      </trkpt>
      <trkpt lat="47.13996" lon="-1.5444">
        <ele>74</ele>
        <time>2022-08-15T10:32:15Z</time>
      </trkpt>
      <trkpt lat="47.14008" lon="-1.5445">
        <ele>74</ele>
        <time>2022-08-15T10:32:17Z</time>
      </trkpt>
      <trkpt lat="47.1402" lon="-1.54459">
        <ele>74</ele>
        <time>2022-08-15T10:32:19Z</time>
      </trkpt>
      <trkpt lat="47.14032" lon="-1.5447">
        <ele>73</ele>
        <time>2022-08-15T10:32:21Z</time>
      </trkpt>
      <trkpt lat="47.14045" lon="-1.54481">
        <ele>73</ele>
        <time>2022-08-15T10:32:23Z</time>
      </trkpt>
      <trkpt lat="47.14057" lon="-1.54491">
        <ele>73</ele>
        <time>2022-08-15T10:32:25Z</time>
      </trkpt>
      <trkpt lat="47.14069" lon="-1.54502">
        <ele>72</ele>
        <time>2022-08-15T10:32:27Z</time>
      </trkpt>
      <trkpt lat="47.1408" lon="-1.54515">
        <ele>73</ele>
        <time>2022-08-15T10:32:29Z</time>
      </trkpt>
      <trkpt lat="47.14092" lon="-1.54527">
        <ele>72</ele>
        <time>2022-08-15T10:32:31Z</time>
      </trkpt>
      <trkpt lat="47.14103" lon="-1.54541">
        <ele>72</ele>
        <time>2022-08-15T10:32:33Z</time>
      </trkpt>
      <trkpt lat="47.14115" lon="-1.54554">
        <ele>73</ele>
        <time>2022-08-15T10:32:35Z</time>
      </trkpt>
      <trkpt lat="47.14127" lon="-1.54568">
        <ele>73</ele>
        <time>2022-08-15T10:32:37Z</time>
      </trkpt>
      <trkpt lat="47.14138" lon="-1.54581">
        <ele>73</ele>
        <time>2022-08-15T10:32:39Z</time>
      </trkpt>
      <trkpt lat="47.14149" lon="-1.54595">
        <ele>72</ele>
        <time>2022-08-15T10:32:41Z</time>
      </trkpt>
      <trkpt lat="47.1416" lon="-1.5461">
        <ele>72</ele>
        <time>2022-08-15T10:32:43Z</time>
      </trkpt>
      <trkpt lat="47.14171" lon="-1.54623">
        <ele>72</ele>
        <time>2022-08-15T10:32:45Z</time>
      </trkpt>
      <trkpt lat="47.14181" lon="-1.54635">
        <ele>72</ele>
        <time>2022-08-15T10:32:47Z</time>
      </trkpt>
      <trkpt lat="47.1419" lon="-1.54644">
        <ele>72</ele>
        <time>2022-08-15T10:32:49Z</time>
      </trkpt>
      <trkpt lat="47.14198" lon="-1.54653">
        <ele>72</ele>
        <time>2022-08-15T10:32:51Z</time>
      </trkpt>
      <trkpt lat="47.14204" lon="-1.54667">
        <ele>72</ele>
        <time>2022-08-15T10:32:54Z</time>
      </trkpt>
      <trkpt lat="47.14199" lon="-1.54682">
        <ele>71</ele>
        <time>2022-08-15T10:32:56Z</time>
      </trkpt>
      <trkpt lat="47.14195" lon="-1.547">
        <ele>71</ele>
        <time>2022-08-15T10:32:58Z</time>
      </trkpt>
      <trkpt lat="47.14193" lon="-1.54718">
        <ele>70</ele>
        <time>2022-08-15T10:33:00Z</time>
      </trkpt>
      <trkpt lat="47.14199" lon="-1.54734">
        <ele>70</ele>
        <time>2022-08-15T10:33:02Z</time>
      </trkpt>
      <trkpt lat="47.14211" lon="-1.54743">
        <ele>70</ele>
        <time>2022-08-15T10:33:04Z</time>
      </trkpt>
      <trkpt lat="47.14224" lon="-1.54751">
        <ele>70</ele>
        <time>2022-08-15T10:33:06Z</time>
      </trkpt>
      <trkpt lat="47.14236" lon="-1.54759">
        <ele>70</ele>
        <time>2022-08-15T10:33:08Z</time>
      </trkpt>
      <trkpt lat="47.14248" lon="-1.54768">
        <ele>69</ele>
        <time>2022-08-15T10:33:10Z</time>
      </trkpt>
      <trkpt lat="47.1426" lon="-1.54778">
        <ele>69</ele>
        <time>2022-08-15T10:33:12Z</time>
      </trkpt>
      <trkpt lat="47.14272" lon="-1.54787">
        <ele>69</ele>
        <time>2022-08-15T10:33:14Z</time>
      </trkpt>
      <trkpt lat="47.14285" lon="-1.54796">
        <ele>69</ele>
        <time>2022-08-15T10:33:16Z</time>
      </trkpt>
      <trkpt lat="47.14297" lon="-1.54806">
        <ele>69</ele>
        <time>2022-08-15T10:33:18Z</time>
      </trkpt>
      <trkpt lat="47.1431" lon="-1.54815">
        <ele>69</ele>
        <time>2022-08-15T10:33:20Z</time>
      </trkpt>
      <trkpt lat="47.14322" lon="-1.54824">
        <ele>69</ele>
        <time>2022-08-15T10:33:22Z</time>
      </trkpt>
      <trkpt lat="47.14333" lon="-1.54834">
        <ele>69</ele>
        <time>2022-08-15T10:33:24Z</time>
      </trkpt>
      <trkpt lat="47.14344" lon="-1.54843">
        <ele>69</ele>
        <time>2022-08-15T10:33:26Z</time>
      </trkpt>
      <trkpt lat="47.14354" lon="-1.54853">
        <ele>69</ele>
        <time>2022-08-15T10:33:28Z</time>
      </trkpt>
      <trkpt lat="47.14363" lon="-1.54863">
        <ele>70</ele>
        <time>2022-08-15T10:33:30Z</time>
      </trkpt>
      <trkpt lat="47.14373" lon="-1.54873">
        <ele>70</ele>
        <time>2022-08-15T10:33:32Z</time>
      </trkpt>
      <trkpt lat="47.14384" lon="-1.54883">
        <ele>70</ele>
        <time>2022-08-15T10:33:34Z</time>
      </trkpt>
      <trkpt lat="47.14393" lon="-1.54893">
        <ele>70</ele>
        <time>2022-08-15T10:33:36Z</time>
      </trkpt>
      <trkpt lat="47.14403" lon="-1.54904">
        <ele>70</ele>
        <time>2022-08-15T10:33:38Z</time>
      </trkpt>
      <trkpt lat="47.14413" lon="-1.54914">
        <ele>70</ele>
        <time>2022-08-15T10:33:40Z</time>
      </trkpt>
      <trkpt lat="47.14424" lon="-1.54924">
        <ele>70</ele>
        <time>2022-08-15T10:33:42Z</time>
      </trkpt>
      <trkpt lat="47.14434" lon="-1.54934">
        <ele>70</ele>
        <time>2022-08-15T10:33:44Z</time>
      </trkpt>
      <trkpt lat="47.14444" lon="-1.54944">
        <ele>70</ele>
        <time>2022-08-15T10:33:46Z</time>
      </trkpt>
      <trkpt lat="47.14455" lon="-1.54954">
        <ele>70</ele>
        <time>2022-08-15T10:33:48Z</time>
      </trkpt>
      <trkpt lat="47.14465" lon="-1.54965">
        <ele>70</ele>
        <time>2022-08-15T10:33:50Z</time>
      </trkpt>
      <trkpt lat="47.14476" lon="-1.54977">
        <ele>70</ele>
        <time>2022-08-15T10:33:52Z</time>
      </trkpt>
      <trkpt lat="47.14486" lon="-1.54989">
        <ele>69</ele>
        <time>2022-08-15T10:33:54Z</time>
      </trkpt>
      <trkpt lat="47.14495" lon="-1.55004">
        <ele>69</ele>
        <time>2022-08-15T10:33:56Z</time>
      </trkpt>
      <trkpt lat="47.14504" lon="-1.5502">
        <ele>68</ele>
        <time>2022-08-15T10:33:58Z</time>
      </trkpt>
      <trkpt lat="47.14511" lon="-1.55037">
        <ele>68</ele>
        <time>2022-08-15T10:34:00Z</time>
      </trkpt>
      <trkpt lat="47.14518" lon="-1.55052">
        <ele>68</ele>
        <time>2022-08-15T10:34:02Z</time>
      </trkpt>
      <trkpt lat="47.14525" lon="-1.55068">
        <ele>68</ele>
        <time>2022-08-15T10:34:04Z</time>
      </trkpt>
      <trkpt lat="47.14532" lon="-1.55082">
        <ele>69</ele>
        <time>2022-08-15T10:34:06Z</time>
      </trkpt>
      <trkpt lat="47.14539" lon="-1.55097">
        <ele>69</ele>
        <time>2022-08-15T10:34:08Z</time>
      </trkpt>
      <trkpt lat="47.14545" lon="-1.55111">
        <ele>69</ele>
        <time>2022-08-15T10:34:10Z</time>
      </trkpt>
      <trkpt lat="47.14553" lon="-1.55125">
        <ele>69</ele>
        <time>2022-08-15T10:34:12Z</time>
      </trkpt>
      <trkpt lat="47.1456" lon="-1.55139">
        <ele>70</ele>
        <time>2022-08-15T10:34:14Z</time>
      </trkpt>
      <trkpt lat="47.14568" lon="-1.55153">
        <ele>70</ele>
        <time>2022-08-15T10:34:16Z</time>
      </trkpt>
      <trkpt lat="47.14575" lon="-1.55166">
        <ele>70</ele>
        <time>2022-08-15T10:34:18Z</time>
      </trkpt>
      <trkpt lat="47.14582" lon="-1.55179">
        <ele>70</ele>
        <time>2022-08-15T10:34:20Z</time>
      </trkpt>
      <trkpt lat="47.14589" lon="-1.55193">
        <ele>71</ele>
        <time>2022-08-15T10:34:22Z</time>
      </trkpt>
      <trkpt lat="47.14596" lon="-1.55206">
        <ele>71</ele>
        <time>2022-08-15T10:34:24Z</time>
      </trkpt>
      <trkpt lat="47.14603" lon="-1.55218">
        <ele>71</ele>
        <time>2022-08-15T10:34:26Z</time>
      </trkpt>
      <trkpt lat="47.14611" lon="-1.55231">
        <ele>72</ele>
        <time>2022-08-15T10:34:28Z</time>
      </trkpt>
      <trkpt lat="47.14618" lon="-1.55243">
        <ele>72</ele>
        <time>2022-08-15T10:34:30Z</time>
      </trkpt>
      <trkpt lat="47.14625" lon="-1.55256">
        <ele>72</ele>
        <time>2022-08-15T10:34:32Z</time>
      </trkpt>
      <trkpt lat="47.14633" lon="-1.55269">
        <ele>72</ele>
        <time>2022-08-15T10:34:34Z</time>
      </trkpt>
      <trkpt lat="47.14641" lon="-1.5528">
        <ele>72</ele>
        <time>2022-08-15T10:34:36Z</time>
      </trkpt>
      <trkpt lat="47.14649" lon="-1.55292">
        <ele>72</ele>
        <time>2022-08-15T10:34:38Z</time>
      </trkpt>
      <trkpt lat="47.14657" lon="-1.55303">
        <ele>72</ele>
        <time>2022-08-15T10:34:40Z</time>
      </trkpt>
      <trkpt lat="47.14665" lon="-1.55313">
        <ele>73</ele>
        <time>2022-08-15T10:34:42Z</time>
      </trkpt>
      <trkpt lat="47.14673" lon="-1.55324">
        <ele>73</ele>
        <time>2022-08-15T10:34:44Z</time>
      </trkpt>
      <trkpt lat="47.14681" lon="-1.55334">
        <ele>74</ele>
        <time>2022-08-15T10:34:46Z</time>
      </trkpt>
      <trkpt lat="47.14689" lon="-1.55344">
        <ele>74</ele>
        <time>2022-08-15T10:34:48Z</time>
      </trkpt>
      <trkpt lat="47.14698" lon="-1.55354">
        <ele>74</ele>
        <time>2022-08-15T10:34:50Z</time>
      </trkpt>
      <trkpt lat="47.14707" lon="-1.55365">
        <ele>74</ele>
        <time>2022-08-15T10:34:52Z</time>
      </trkpt>
      <trkpt lat="47.14716" lon="-1.55374">
        <ele>74</ele>
        <time>2022-08-15T10:34:54Z</time>
      </trkpt>
      <trkpt lat="47.14725" lon="-1.55384">
        <ele>74</ele>
        <time>2022-08-15T10:34:56Z</time>
      </trkpt>
      <trkpt lat="47.14736" lon="-1.55392">
        <ele>74</ele>
        <time>2022-08-15T10:34:58Z</time>
      </trkpt>
      <trkpt lat="47.14746" lon="-1.55401">
        <ele>73</ele>
        <time>2022-08-15T10:35:00Z</time>
      </trkpt>
      <trkpt lat="47.14755" lon="-1.55409">
        <ele>73</ele>
        <time>2022-08-15T10:35:02Z</time>
      </trkpt>
      <trkpt lat="47.14765" lon="-1.55418">
        <ele>74</ele>
        <time>2022-08-15T10:35:04Z</time>
      </trkpt>
      <trkpt lat="47.14775" lon="-1.55427">
        <ele>74</ele>
        <time>2022-08-15T10:35:06Z</time>
      </trkpt>
      <trkpt lat="47.14784" lon="-1.55437">
        <ele>74</ele>
        <time>2022-08-15T10:35:08Z</time>
      </trkpt>
      <trkpt lat="47.14794" lon="-1.55446">
        <ele>73</ele>
        <time>2022-08-15T10:35:10Z</time>
      </trkpt>
      <trkpt lat="47.14803" lon="-1.55455">
        <ele>73</ele>
        <time>2022-08-15T10:35:12Z</time>
      </trkpt>
      <trkpt lat="47.14812" lon="-1.55464">
        <ele>73</ele>
        <time>2022-08-15T10:35:14Z</time>
      </trkpt>
      <trkpt lat="47.1482" lon="-1.55474">
        <ele>74</ele>
        <time>2022-08-15T10:35:16Z</time>
      </trkpt>
      <trkpt lat="47.14829" lon="-1.55483">
        <ele>74</ele>
        <time>2022-08-15T10:35:18Z</time>
      </trkpt>
      <trkpt lat="47.14837" lon="-1.55495">
        <ele>74</ele>
        <time>2022-08-15T10:35:20Z</time>
      </trkpt>
      <trkpt lat="47.14846" lon="-1.55505">
        <ele>74</ele>
        <time>2022-08-15T10:35:22Z</time>
      </trkpt>
      <trkpt lat="47.14855" lon="-1.55514">
        <ele>74</ele>
        <time>2022-08-15T10:35:24Z</time>
      </trkpt>
      <trkpt lat="47.14865" lon="-1.55522">
        <ele>75</ele>
        <time>2022-08-15T10:35:26Z</time>
      </trkpt>
      <trkpt lat="47.14876" lon="-1.55528">
        <ele>75</ele>
        <time>2022-08-15T10:35:28Z</time>
      </trkpt>
      <trkpt lat="47.14887" lon="-1.55529">
        <ele>75</ele>
        <time>2022-08-15T10:35:30Z</time>
      </trkpt>
      <trkpt lat="47.149" lon="-1.55529">
        <ele>75</ele>
        <time>2022-08-15T10:35:32Z</time>
      </trkpt>
      <trkpt lat="47.14912" lon="-1.55526">
        <ele>76</ele>
        <time>2022-08-15T10:35:34Z</time>
      </trkpt>
      <trkpt lat="47.14925" lon="-1.55522">
        <ele>76</ele>
        <time>2022-08-15T10:35:36Z</time>
      </trkpt>
      <trkpt lat="47.14937" lon="-1.55519">
        <ele>76</ele>
        <time>2022-08-15T10:35:38Z</time>
      </trkpt>
      <trkpt lat="47.14949" lon="-1.55517">
        <ele>76</ele>
        <time>2022-08-15T10:35:40Z</time>
      </trkpt>
      <trkpt lat="47.14961" lon="-1.55514">
        <ele>75</ele>
        <time>2022-08-15T10:35:42Z</time>
      </trkpt>
      <trkpt lat="47.14974" lon="-1.55511">
        <ele>75</ele>
        <time>2022-08-15T10:35:44Z</time>
      </trkpt>
      <trkpt lat="47.14986" lon="-1.55507">
        <ele>74</ele>
        <time>2022-08-15T10:35:46Z</time>
      </trkpt>
      <trkpt lat="47.14999" lon="-1.55504">
        <ele>73</ele>
        <time>2022-08-15T10:35:48Z</time>
      </trkpt>
      <trkpt lat="47.15011" lon="-1.55501">
        <ele>73</ele>
        <time>2022-08-15T10:35:50Z</time>
      </trkpt>
      <trkpt lat="47.15023" lon="-1.55498">
        <ele>72</ele>
        <time>2022-08-15T10:35:52Z</time>
      </trkpt>
      <trkpt lat="47.15035" lon="-1.55495">
        <ele>72</ele>
        <time>2022-08-15T10:35:54Z</time>
      </trkpt>
      <trkpt lat="47.15047" lon="-1.55492">
        <ele>72</ele>
        <time>2022-08-15T10:35:56Z</time>
      </trkpt>
      <trkpt lat="47.15059" lon="-1.55488">
        <ele>72</ele>
        <time>2022-08-15T10:35:58Z</time>
      </trkpt>
      <trkpt lat="47.15071" lon="-1.55484">
        <ele>72</ele>
        <time>2022-08-15T10:36:00Z</time>
      </trkpt>
      <trkpt lat="47.15083" lon="-1.55482">
        <ele>72</ele>
        <time>2022-08-15T10:36:02Z</time>
      </trkpt>
      <trkpt lat="47.15094" lon="-1.55478">
        <ele>72</ele>
        <time>2022-08-15T10:36:04Z</time>
      </trkpt>
      <trkpt lat="47.15107" lon="-1.55475">
        <ele>72</ele>
        <time>2022-08-15T10:36:06Z</time>
      </trkpt>
      <trkpt lat="47.1512" lon="-1.55471">
        <ele>72</ele>
        <time>2022-08-15T10:36:08Z</time>
      </trkpt>
      <trkpt lat="47.15132" lon="-1.55467">
        <ele>72</ele>
        <time>2022-08-15T10:36:10Z</time>
      </trkpt>
      <trkpt lat="47.15145" lon="-1.55464">
        <ele>72</ele>
        <time>2022-08-15T10:36:12Z</time>
      </trkpt>
      <trkpt lat="47.15157" lon="-1.55461">
        <ele>72</ele>
        <time>2022-08-15T10:36:14Z</time>
      </trkpt>
      <trkpt lat="47.1517" lon="-1.55459">
        <ele>72</ele>
        <time>2022-08-15T10:36:16Z</time>
      </trkpt>
      <trkpt lat="47.15183" lon="-1.55459">
        <ele>72</ele>
        <time>2022-08-15T10:36:18Z</time>
      </trkpt>
      <trkpt lat="47.15195" lon="-1.55461">
        <ele>72</ele>
        <time>2022-08-15T10:36:20Z</time>
      </trkpt>
      <trkpt lat="47.15206" lon="-1.55469">
        <ele>73</ele>
        <time>2022-08-15T10:36:22Z</time>
      </trkpt>
      <trkpt lat="47.15216" lon="-1.5548">
        <ele>73</ele>
        <time>2022-08-15T10:36:24Z</time>
      </trkpt>
      <trkpt lat="47.15223" lon="-1.55494">
        <ele>73</ele>
        <time>2022-08-15T10:36:26Z</time>
      </trkpt>
      <trkpt lat="47.1523" lon="-1.55509">
        <ele>74</ele>
        <time>2022-08-15T10:36:28Z</time>
      </trkpt>
      <trkpt lat="47.15235" lon="-1.55524">
        <ele>74</ele>
        <time>2022-08-15T10:36:30Z</time>
      </trkpt>
      <trkpt lat="47.15241" lon="-1.55539">
        <ele>75</ele>
        <time>2022-08-15T10:36:32Z</time>
      </trkpt>
      <trkpt lat="47.15246" lon="-1.55555">
        <ele>75</ele>
        <time>2022-08-15T10:36:34Z</time>
      </trkpt>
      <trkpt lat="47.1525" lon="-1.5557">
        <ele>75</ele>
        <time>2022-08-15T10:36:36Z</time>
      </trkpt>
      <trkpt lat="47.15256" lon="-1.55584">
        <ele>76</ele>
        <time>2022-08-15T10:36:38Z</time>
      </trkpt>
      <trkpt lat="47.15261" lon="-1.55599">
        <ele>76</ele>
        <time>2022-08-15T10:36:40Z</time>
      </trkpt>
      <trkpt lat="47.15266" lon="-1.55614">
        <ele>76</ele>
        <time>2022-08-15T10:36:42Z</time>
      </trkpt>
      <trkpt lat="47.15272" lon="-1.55628">
        <ele>76</ele>
        <time>2022-08-15T10:36:44Z</time>
      </trkpt>
      <trkpt lat="47.15277" lon="-1.55642">
        <ele>76</ele>
        <time>2022-08-15T10:36:46Z</time>
      </trkpt>
      <trkpt lat="47.15284" lon="-1.55656">
        <ele>76</ele>
        <time>2022-08-15T10:36:48Z</time>
      </trkpt>
      <trkpt lat="47.1529" lon="-1.55669">
        <ele>76</ele>
        <time>2022-08-15T10:36:50Z</time>
      </trkpt>
      <trkpt lat="47.15296" lon="-1.55682">
        <ele>77</ele>
        <time>2022-08-15T10:36:52Z</time>
      </trkpt>
      <trkpt lat="47.15303" lon="-1.55695">
        <ele>77</ele>
        <time>2022-08-15T10:36:54Z</time>
      </trkpt>
      <trkpt lat="47.1531" lon="-1.55709">
        <ele>77</ele>
        <time>2022-08-15T10:36:56Z</time>
      </trkpt>
      <trkpt lat="47.15316" lon="-1.55722">
        <ele>77</ele>
        <time>2022-08-15T10:36:58Z</time>
      </trkpt>
      <trkpt lat="47.15323" lon="-1.55735">
        <ele>77</ele>
        <time>2022-08-15T10:37:00Z</time>
      </trkpt>
      <trkpt lat="47.1533" lon="-1.55749">
        <ele>77</ele>
        <time>2022-08-15T10:37:02Z</time>
      </trkpt>
      <trkpt lat="47.15337" lon="-1.55762">
        <ele>78</ele>
        <time>2022-08-15T10:37:04Z</time>
      </trkpt>
      <trkpt lat="47.15343" lon="-1.55774">
        <ele>78</ele>
        <time>2022-08-15T10:37:06Z</time>
      </trkpt>
      <trkpt lat="47.15349" lon="-1.55787">
        <ele>78</ele>
        <time>2022-08-15T10:37:08Z</time>
      </trkpt>
      <trkpt lat="47.15356" lon="-1.558">
        <ele>78</ele>
        <time>2022-08-15T10:37:10Z</time>
      </trkpt>
      <trkpt lat="47.15362" lon="-1.55813">
        <ele>78</ele>
        <time>2022-08-15T10:37:12Z</time>
      </trkpt>
      <trkpt lat="47.15369" lon="-1.55826">
        <ele>78</ele>
        <time>2022-08-15T10:37:14Z</time>
      </trkpt>
      <trkpt lat="47.15375" lon="-1.55839">
        <ele>79</ele>
        <time>2022-08-15T10:37:16Z</time>
      </trkpt>
      <trkpt lat="47.15382" lon="-1.55851">
        <ele>79</ele>
        <time>2022-08-15T10:37:18Z</time>
      </trkpt>
      <trkpt lat="47.15389" lon="-1.5586">
        <ele>79</ele>
        <time>2022-08-15T10:37:20Z</time>
      </trkpt>
      <trkpt lat="47.15396" lon="-1.55871">
        <ele>78</ele>
        <time>2022-08-15T10:37:23Z</time>
      </trkpt>
      <trkpt lat="47.15405" lon="-1.55876">
        <ele>79</ele>
        <time>2022-08-15T10:37:37Z</time>
      </trkpt>
      <trkpt lat="47.15413" lon="-1.55891">
        <ele>79</ele>
        <time>2022-08-15T10:37:40Z</time>
      </trkpt>
      <trkpt lat="47.15421" lon="-1.55902">
        <ele>79</ele>
        <time>2022-08-15T10:37:42Z</time>
      </trkpt>
      <trkpt lat="47.15432" lon="-1.5591">
        <ele>79</ele>
        <time>2022-08-15T10:37:44Z</time>
      </trkpt>
      <trkpt lat="47.15441" lon="-1.55918">
        <ele>79</ele>
        <time>2022-08-15T10:37:46Z</time>
      </trkpt>
      <trkpt lat="47.15451" lon="-1.55925">
        <ele>79</ele>
        <time>2022-08-15T10:37:48Z</time>
      </trkpt>
      <trkpt lat="47.15461" lon="-1.55933">
        <ele>80</ele>
        <time>2022-08-15T10:37:50Z</time>
      </trkpt>
      <trkpt lat="47.15471" lon="-1.55939">
        <ele>80</ele>
        <time>2022-08-15T10:37:52Z</time>
      </trkpt>
      <trkpt lat="47.1548" lon="-1.55946">
        <ele>80</ele>
        <time>2022-08-15T10:37:54Z</time>
      </trkpt>
      <trkpt lat="47.1549" lon="-1.55954">
        <ele>80</ele>
        <time>2022-08-15T10:37:56Z</time>
      </trkpt>
      <trkpt lat="47.15499" lon="-1.55962">
        <ele>80</ele>
        <time>2022-08-15T10:37:58Z</time>
      </trkpt>
      <trkpt lat="47.15509" lon="-1.55968">
        <ele>80</ele>
        <time>2022-08-15T10:38:00Z</time>
      </trkpt>
      <trkpt lat="47.15518" lon="-1.55976">
        <ele>81</ele>
        <time>2022-08-15T10:38:02Z</time>
      </trkpt>
      <trkpt lat="47.15528" lon="-1.55983">
        <ele>81</ele>
        <time>2022-08-15T10:38:04Z</time>
      </trkpt>
      <trkpt lat="47.15538" lon="-1.55991">
        <ele>81</ele>
        <time>2022-08-15T10:38:06Z</time>
      </trkpt>
      <trkpt lat="47.15547" lon="-1.55999">
        <ele>81</ele>
        <time>2022-08-15T10:38:08Z</time>
      </trkpt>
      <trkpt lat="47.15557" lon="-1.56008">
        <ele>81</ele>
        <time>2022-08-15T10:38:10Z</time>
      </trkpt>
      <trkpt lat="47.15566" lon="-1.56015">
        <ele>81</ele>
        <time>2022-08-15T10:38:12Z</time>
      </trkpt>
      <trkpt lat="47.15574" lon="-1.56023">
        <ele>81</ele>
        <time>2022-08-15T10:38:14Z</time>
      </trkpt>
      <trkpt lat="47.15582" lon="-1.56033">
        <ele>81</ele>
        <time>2022-08-15T10:38:16Z</time>
      </trkpt>
      <trkpt lat="47.15584" lon="-1.56048">
        <ele>81</ele>
        <time>2022-08-15T10:38:18Z</time>
      </trkpt>
      <trkpt lat="47.15581" lon="-1.56064">
        <ele>81</ele>
        <time>2022-08-15T10:38:20Z</time>
      </trkpt>
      <trkpt lat="47.15577" lon="-1.5608">
        <ele>81</ele>
        <time>2022-08-15T10:38:22Z</time>
      </trkpt>
      <trkpt lat="47.15576" lon="-1.56097">
        <ele>81</ele>
        <time>2022-08-15T10:38:24Z</time>
      </trkpt>
      <trkpt lat="47.15578" lon="-1.56114">
        <ele>81</ele>
        <time>2022-08-15T10:38:26Z</time>
      </trkpt>
      <trkpt lat="47.15584" lon="-1.5613">
        <ele>80</ele>
        <time>2022-08-15T10:38:28Z</time>
      </trkpt>
      <trkpt lat="47.1559" lon="-1.56145">
        <ele>80</ele>
        <time>2022-08-15T10:38:30Z</time>
      </trkpt>
      <trkpt lat="47.15596" lon="-1.56159">
        <ele>81</ele>
        <time>2022-08-15T10:38:32Z</time>
      </trkpt>
      <trkpt lat="47.15601" lon="-1.56173">
        <ele>81</ele>
        <time>2022-08-15T10:38:34Z</time>
      </trkpt>
      <trkpt lat="47.15607" lon="-1.56188">
        <ele>81</ele>
        <time>2022-08-15T10:38:36Z</time>
      </trkpt>
      <trkpt lat="47.15613" lon="-1.56204">
        <ele>81</ele>
        <time>2022-08-15T10:38:38Z</time>
      </trkpt>
      <trkpt lat="47.1562" lon="-1.56219">
        <ele>81</ele>
        <time>2022-08-15T10:38:40Z</time>
      </trkpt>
      <trkpt lat="47.15626" lon="-1.56233">
        <ele>81</ele>
        <time>2022-08-15T10:38:42Z</time>
      </trkpt>
      <trkpt lat="47.15633" lon="-1.56248">
        <ele>81</ele>
        <time>2022-08-15T10:38:44Z</time>
      </trkpt>
      <trkpt lat="47.15639" lon="-1.56263">
        <ele>81</ele>
        <time>2022-08-15T10:38:46Z</time>
      </trkpt>
      <trkpt lat="47.15645" lon="-1.56278">
        <ele>81</ele>
        <time>2022-08-15T10:38:48Z</time>
      </trkpt>
      <trkpt lat="47.15652" lon="-1.56292">
        <ele>81</ele>
        <time>2022-08-15T10:38:50Z</time>
      </trkpt>
      <trkpt lat="47.15663" lon="-1.563">
        <ele>81</ele>
        <time>2022-08-15T10:38:52Z</time>
      </trkpt>
      <trkpt lat="47.15674" lon="-1.56307">
        <ele>81</ele>
        <time>2022-08-15T10:38:54Z</time>
      </trkpt>
      <trkpt lat="47.15684" lon="-1.56318">
        <ele>81</ele>
        <time>2022-08-15T10:38:56Z</time>
      </trkpt>
      <trkpt lat="47.15689" lon="-1.56334">
        <ele>81</ele>
        <time>2022-08-15T10:38:58Z</time>
      </trkpt>
      <trkpt lat="47.15692" lon="-1.56351">
        <ele>81</ele>
        <time>2022-08-15T10:39:00Z</time>
      </trkpt>
      <trkpt lat="47.15695" lon="-1.5637">
        <ele>81</ele>
        <time>2022-08-15T10:39:02Z</time>
      </trkpt>
      <trkpt lat="47.15699" lon="-1.56387">
        <ele>80</ele>
        <time>2022-08-15T10:39:04Z</time>
      </trkpt>
      <trkpt lat="47.15706" lon="-1.56403">
        <ele>81</ele>
        <time>2022-08-15T10:39:06Z</time>
      </trkpt>
      <trkpt lat="47.15715" lon="-1.56415">
        <ele>80</ele>
        <time>2022-08-15T10:39:08Z</time>
      </trkpt>
      <trkpt lat="47.15724" lon="-1.56428">
        <ele>80</ele>
        <time>2022-08-15T10:39:10Z</time>
      </trkpt>
      <trkpt lat="47.15732" lon="-1.56441">
        <ele>80</ele>
        <time>2022-08-15T10:39:12Z</time>
      </trkpt>
      <trkpt lat="47.15739" lon="-1.56456">
        <ele>80</ele>
        <time>2022-08-15T10:39:14Z</time>
      </trkpt>
      <trkpt lat="47.15743" lon="-1.56474">
        <ele>80</ele>
        <time>2022-08-15T10:39:16Z</time>
      </trkpt>
      <trkpt lat="47.15744" lon="-1.56491">
        <ele>80</ele>
        <time>2022-08-15T10:39:18Z</time>
      </trkpt>
      <trkpt lat="47.15743" lon="-1.56509">
        <ele>80</ele>
        <time>2022-08-15T10:39:20Z</time>
      </trkpt>
      <trkpt lat="47.1574" lon="-1.56526">
        <ele>80</ele>
        <time>2022-08-15T10:39:22Z</time>
      </trkpt>
      <trkpt lat="47.15735" lon="-1.56542">
        <ele>81</ele>
        <time>2022-08-15T10:39:24Z</time>
      </trkpt>
      <trkpt lat="47.1573" lon="-1.56557">
        <ele>80</ele>
        <time>2022-08-15T10:39:26Z</time>
      </trkpt>
      <trkpt lat="47.15726" lon="-1.56573">
        <ele>80</ele>
        <time>2022-08-15T10:39:28Z</time>
      </trkpt>
      <trkpt lat="47.15722" lon="-1.5659">
        <ele>80</ele>
        <time>2022-08-15T10:39:30Z</time>
      </trkpt>
      <trkpt lat="47.15716" lon="-1.56607">
        <ele>79</ele>
        <time>2022-08-15T10:39:32Z</time>
      </trkpt>
      <trkpt lat="47.15711" lon="-1.56625">
        <ele>79</ele>
        <time>2022-08-15T10:39:34Z</time>
      </trkpt>
      <trkpt lat="47.15706" lon="-1.56643">
        <ele>79</ele>
        <time>2022-08-15T10:39:36Z</time>
      </trkpt>
      <trkpt lat="47.15703" lon="-1.5666">
        <ele>78</ele>
        <time>2022-08-15T10:39:38Z</time>
      </trkpt>
      <trkpt lat="47.15701" lon="-1.56678">
        <ele>78</ele>
        <time>2022-08-15T10:39:40Z</time>
      </trkpt>
      <trkpt lat="47.157" lon="-1.56696">
        <ele>78</ele>
        <time>2022-08-15T10:39:42Z</time>
      </trkpt>
      <trkpt lat="47.157" lon="-1.56715">
        <ele>78</ele>
        <time>2022-08-15T10:39:44Z</time>
      </trkpt>
      <trkpt lat="47.15702" lon="-1.56733">
        <ele>78</ele>
        <time>2022-08-15T10:39:46Z</time>
      </trkpt>
      <trkpt lat="47.15703" lon="-1.5675">
        <ele>78</ele>
        <time>2022-08-15T10:39:48Z</time>
      </trkpt>
      <trkpt lat="47.15705" lon="-1.56768">
        <ele>78</ele>
        <time>2022-08-15T10:39:50Z</time>
      </trkpt>
      <trkpt lat="47.15708" lon="-1.56785">
        <ele>77</ele>
        <time>2022-08-15T10:39:52Z</time>
      </trkpt>
      <trkpt lat="47.15711" lon="-1.56803">
        <ele>77</ele>
        <time>2022-08-15T10:39:54Z</time>
      </trkpt>
      <trkpt lat="47.15714" lon="-1.56822">
        <ele>77</ele>
        <time>2022-08-15T10:39:56Z</time>
      </trkpt>
      <trkpt lat="47.15716" lon="-1.56841">
        <ele>77</ele>
        <time>2022-08-15T10:39:58Z</time>
      </trkpt>
      <trkpt lat="47.1572" lon="-1.5686">
        <ele>77</ele>
        <time>2022-08-15T10:40:00Z</time>
      </trkpt>
      <trkpt lat="47.15724" lon="-1.56878">
        <ele>76</ele>
        <time>2022-08-15T10:40:02Z</time>
      </trkpt>
      <trkpt lat="47.15728" lon="-1.56896">
        <ele>76</ele>
        <time>2022-08-15T10:40:04Z</time>
      </trkpt>
      <trkpt lat="47.15734" lon="-1.56913">
        <ele>76</ele>
        <time>2022-08-15T10:40:06Z</time>
      </trkpt>
      <trkpt lat="47.15741" lon="-1.56928">
        <ele>76</ele>
        <time>2022-08-15T10:40:08Z</time>
      </trkpt>
      <trkpt lat="47.15748" lon="-1.56944">
        <ele>76</ele>
        <time>2022-08-15T10:40:10Z</time>
      </trkpt>
      <trkpt lat="47.15755" lon="-1.56959">
        <ele>76</ele>
        <time>2022-08-15T10:40:12Z</time>
      </trkpt>
      <trkpt lat="47.15763" lon="-1.56974">
        <ele>76</ele>
        <time>2022-08-15T10:40:14Z</time>
      </trkpt>
      <trkpt lat="47.1577" lon="-1.5699">
        <ele>76</ele>
        <time>2022-08-15T10:40:16Z</time>
      </trkpt>
      <trkpt lat="47.15778" lon="-1.57005">
        <ele>77</ele>
        <time>2022-08-15T10:40:18Z</time>
      </trkpt>
      <trkpt lat="47.15785" lon="-1.5702">
        <ele>76</ele>
        <time>2022-08-15T10:40:20Z</time>
      </trkpt>
      <trkpt lat="47.15793" lon="-1.57035">
        <ele>77</ele>
        <time>2022-08-15T10:40:22Z</time>
      </trkpt>
      <trkpt lat="47.15799" lon="-1.5705">
        <ele>77</ele>
        <time>2022-08-15T10:40:24Z</time>
      </trkpt>
      <trkpt lat="47.15806" lon="-1.57064">
        <ele>77</ele>
        <time>2022-08-15T10:40:26Z</time>
      </trkpt>
      <trkpt lat="47.15813" lon="-1.57078">
        <ele>77</ele>
        <time>2022-08-15T10:40:28Z</time>
      </trkpt>
      <trkpt lat="47.1582" lon="-1.5709">
        <ele>77</ele>
        <time>2022-08-15T10:40:30Z</time>
      </trkpt>
      <trkpt lat="47.15827" lon="-1.57102">
        <ele>77</ele>
        <time>2022-08-15T10:40:32Z</time>
      </trkpt>
      <trkpt lat="47.15833" lon="-1.57114">
        <ele>77</ele>
        <time>2022-08-15T10:40:34Z</time>
      </trkpt>
      <trkpt lat="47.1584" lon="-1.57127">
        <ele>78</ele>
        <time>2022-08-15T10:40:36Z</time>
      </trkpt>
      <trkpt lat="47.15847" lon="-1.57138">
        <ele>78</ele>
        <time>2022-08-15T10:40:38Z</time>
      </trkpt>
      <trkpt lat="47.15854" lon="-1.5715">
        <ele>78</ele>
        <time>2022-08-15T10:40:40Z</time>
      </trkpt>
      <trkpt lat="47.1586" lon="-1.57161">
        <ele>78</ele>
        <time>2022-08-15T10:40:42Z</time>
      </trkpt>
      <trkpt lat="47.15867" lon="-1.57173">
        <ele>78</ele>
        <time>2022-08-15T10:40:44Z</time>
      </trkpt>
      <trkpt lat="47.15874" lon="-1.57185">
        <ele>79</ele>
        <time>2022-08-15T10:40:46Z</time>
      </trkpt>
      <trkpt lat="47.15882" lon="-1.57198">
        <ele>80</ele>
        <time>2022-08-15T10:40:48Z</time>
      </trkpt>
      <trkpt lat="47.15888" lon="-1.57211">
        <ele>81</ele>
        <time>2022-08-15T10:40:50Z</time>
      </trkpt>
      <trkpt lat="47.15895" lon="-1.57224">
        <ele>81</ele>
        <time>2022-08-15T10:40:52Z</time>
      </trkpt>
      <trkpt lat="47.15902" lon="-1.57239">
        <ele>81</ele>
        <time>2022-08-15T10:40:54Z</time>
      </trkpt>
      <trkpt lat="47.15909" lon="-1.57254">
        <ele>80</ele>
        <time>2022-08-15T10:40:56Z</time>
      </trkpt>
      <trkpt lat="47.15916" lon="-1.57267">
        <ele>80</ele>
        <time>2022-08-15T10:40:58Z</time>
      </trkpt>
      <trkpt lat="47.15923" lon="-1.5728">
        <ele>80</ele>
        <time>2022-08-15T10:41:00Z</time>
      </trkpt>
      <trkpt lat="47.1593" lon="-1.57291">
        <ele>80</ele>
        <time>2022-08-15T10:41:02Z</time>
      </trkpt>
      <trkpt lat="47.15939" lon="-1.57303">
        <ele>81</ele>
        <time>2022-08-15T10:41:04Z</time>
      </trkpt>
      <trkpt lat="47.15946" lon="-1.57314">
        <ele>81</ele>
        <time>2022-08-15T10:41:06Z</time>
      </trkpt>
      <trkpt lat="47.15954" lon="-1.57326">
        <ele>81</ele>
        <time>2022-08-15T10:41:08Z</time>
      </trkpt>
      <trkpt lat="47.15963" lon="-1.57336">
        <ele>81</ele>
        <time>2022-08-15T10:41:10Z</time>
      </trkpt>
      <trkpt lat="47.15973" lon="-1.57347">
        <ele>82</ele>
        <time>2022-08-15T10:41:12Z</time>
      </trkpt>
      <trkpt lat="47.15984" lon="-1.57354">
        <ele>81</ele>
        <time>2022-08-15T10:41:14Z</time>
      </trkpt>
      <trkpt lat="47.15995" lon="-1.57359">
        <ele>81</ele>
        <time>2022-08-15T10:41:16Z</time>
      </trkpt>
      <trkpt lat="47.16006" lon="-1.57364">
        <ele>82</ele>
        <time>2022-08-15T10:41:18Z</time>
      </trkpt>
      <trkpt lat="47.16017" lon="-1.57369">
        <ele>82</ele>
        <time>2022-08-15T10:41:20Z</time>
      </trkpt>
      <trkpt lat="47.16028" lon="-1.57373">
        <ele>82</ele>
        <time>2022-08-15T10:41:22Z</time>
      </trkpt>
      <trkpt lat="47.1604" lon="-1.57376">
        <ele>83</ele>
        <time>2022-08-15T10:41:24Z</time>
      </trkpt>
      <trkpt lat="47.16051" lon="-1.57379">
        <ele>82</ele>
        <time>2022-08-15T10:41:26Z</time>
      </trkpt>
      <trkpt lat="47.16064" lon="-1.57379">
        <ele>82</ele>
        <time>2022-08-15T10:41:28Z</time>
      </trkpt>
      <trkpt lat="47.16076" lon="-1.57378">
        <ele>82</ele>
        <time>2022-08-15T10:41:30Z</time>
      </trkpt>
      <trkpt lat="47.16088" lon="-1.57376">
        <ele>81</ele>
        <time>2022-08-15T10:41:32Z</time>
      </trkpt>
      <trkpt lat="47.161" lon="-1.57373">
        <ele>81</ele>
        <time>2022-08-15T10:41:34Z</time>
      </trkpt>
      <trkpt lat="47.16112" lon="-1.5737">
        <ele>81</ele>
        <time>2022-08-15T10:41:36Z</time>
      </trkpt>
      <trkpt lat="47.16124" lon="-1.57365">
        <ele>81</ele>
        <time>2022-08-15T10:41:38Z</time>
      </trkpt>
      <trkpt lat="47.16136" lon="-1.57361">
        <ele>80</ele>
        <time>2022-08-15T10:41:40Z</time>
      </trkpt>
      <trkpt lat="47.16148" lon="-1.57357">
        <ele>80</ele>
        <time>2022-08-15T10:41:42Z</time>
      </trkpt>
      <trkpt lat="47.16159" lon="-1.57354">
        <ele>80</ele>
        <time>2022-08-15T10:41:44Z</time>
      </trkpt>
      <trkpt lat="47.1617" lon="-1.57364">
        <ele>80</ele>
        <time>2022-08-15T10:41:46Z</time>
      </trkpt>
      <trkpt lat="47.16172" lon="-1.57382">
        <ele>81</ele>
        <time>2022-08-15T10:41:48Z</time>
      </trkpt>
      <trkpt lat="47.16172" lon="-1.574">
        <ele>81</ele>
        <time>2022-08-15T10:41:50Z</time>
      </trkpt>
      <trkpt lat="47.16173" lon="-1.57419">
        <ele>80</ele>
        <time>2022-08-15T10:41:52Z</time>
      </trkpt>
      <trkpt lat="47.16173" lon="-1.57437">
        <ele>80</ele>
        <time>2022-08-15T10:41:54Z</time>
      </trkpt>
      <trkpt lat="47.16173" lon="-1.57454">
        <ele>80</ele>
        <time>2022-08-15T10:41:56Z</time>
      </trkpt>
      <trkpt lat="47.16172" lon="-1.57471">
        <ele>80</ele>
        <time>2022-08-15T10:41:58Z</time>
      </trkpt>
      <trkpt lat="47.16172" lon="-1.57487">
        <ele>80</ele>
        <time>2022-08-15T10:42:00Z</time>
      </trkpt>
      <trkpt lat="47.16171" lon="-1.57504">
        <ele>79</ele>
        <time>2022-08-15T10:42:02Z</time>
      </trkpt>
      <trkpt lat="47.16171" lon="-1.57521">
        <ele>80</ele>
        <time>2022-08-15T10:42:04Z</time>
      </trkpt>
      <trkpt lat="47.16173" lon="-1.57537">
        <ele>80</ele>
        <time>2022-08-15T10:42:06Z</time>
      </trkpt>
      <trkpt lat="47.16178" lon="-1.57553">
        <ele>80</ele>
        <time>2022-08-15T10:42:08Z</time>
      </trkpt>
      <trkpt lat="47.16184" lon="-1.57568">
        <ele>80</ele>
        <time>2022-08-15T10:42:10Z</time>
      </trkpt>
      <trkpt lat="47.1619" lon="-1.57581">
        <ele>81</ele>
        <time>2022-08-15T10:42:12Z</time>
      </trkpt>
      <trkpt lat="47.16196" lon="-1.57595">
        <ele>81</ele>
        <time>2022-08-15T10:42:14Z</time>
      </trkpt>
      <trkpt lat="47.16203" lon="-1.57608">
        <ele>81</ele>
        <time>2022-08-15T10:42:16Z</time>
      </trkpt>
      <trkpt lat="47.16212" lon="-1.5762">
        <ele>81</ele>
        <time>2022-08-15T10:42:18Z</time>
      </trkpt>
      <trkpt lat="47.1622" lon="-1.57632">
        <ele>82</ele>
        <time>2022-08-15T10:42:20Z</time>
      </trkpt>
      <trkpt lat="47.16229" lon="-1.57642">
        <ele>82</ele>
        <time>2022-08-15T10:42:22Z</time>
      </trkpt>
      <trkpt lat="47.16238" lon="-1.57651">
        <ele>83</ele>
        <time>2022-08-15T10:42:24Z</time>
      </trkpt>
      <trkpt lat="47.16248" lon="-1.57661">
        <ele>82</ele>
        <time>2022-08-15T10:42:26Z</time>
      </trkpt>
      <trkpt lat="47.16257" lon="-1.57669">
        <ele>82</ele>
        <time>2022-08-15T10:42:28Z</time>
      </trkpt>
      <trkpt lat="47.16267" lon="-1.57678">
        <ele>82</ele>
        <time>2022-08-15T10:42:30Z</time>
      </trkpt>
      <trkpt lat="47.16276" lon="-1.57688">
        <ele>83</ele>
        <time>2022-08-15T10:42:32Z</time>
      </trkpt>
      <trkpt lat="47.16284" lon="-1.57699">
        <ele>83</ele>
        <time>2022-08-15T10:42:34Z</time>
      </trkpt>
      <trkpt lat="47.16292" lon="-1.57712">
        <ele>83</ele>
        <time>2022-08-15T10:42:36Z</time>
      </trkpt>
      <trkpt lat="47.16301" lon="-1.57724">
        <ele>84</ele>
        <time>2022-08-15T10:42:38Z</time>
      </trkpt>
      <trkpt lat="47.1631" lon="-1.57736">
        <ele>83</ele>
        <time>2022-08-15T10:42:40Z</time>
      </trkpt>
      <trkpt lat="47.16318" lon="-1.57748">
        <ele>84</ele>
        <time>2022-08-15T10:42:42Z</time>
      </trkpt>
      <trkpt lat="47.16326" lon="-1.5776">
        <ele>84</ele>
        <time>2022-08-15T10:42:44Z</time>
      </trkpt>
      <trkpt lat="47.16334" lon="-1.57773">
        <ele>84</ele>
        <time>2022-08-15T10:42:46Z</time>
      </trkpt>
      <trkpt lat="47.16342" lon="-1.57785">
        <ele>84</ele>
        <time>2022-08-15T10:42:48Z</time>
      </trkpt>
      <trkpt lat="47.16349" lon="-1.57798">
        <ele>84</ele>
        <time>2022-08-15T10:42:50Z</time>
      </trkpt>
      <trkpt lat="47.16358" lon="-1.5781">
        <ele>84</ele>
        <time>2022-08-15T10:42:52Z</time>
      </trkpt>
      <trkpt lat="47.16368" lon="-1.57818">
        <ele>84</ele>
        <time>2022-08-15T10:42:54Z</time>
      </trkpt>
      <trkpt lat="47.16378" lon="-1.57826">
        <ele>84</ele>
        <time>2022-08-15T10:42:56Z</time>
      </trkpt>
      <trkpt lat="47.16388" lon="-1.57834">
        <ele>84</ele>
        <time>2022-08-15T10:42:58Z</time>
      </trkpt>
      <trkpt lat="47.16399" lon="-1.57843">
        <ele>84</ele>
        <time>2022-08-15T10:43:00Z</time>
      </trkpt>
      <trkpt lat="47.16409" lon="-1.57851">
        <ele>84</ele>
        <time>2022-08-15T10:43:02Z</time>
      </trkpt>
      <trkpt lat="47.1642" lon="-1.57859">
        <ele>84</ele>
        <time>2022-08-15T10:43:04Z</time>
      </trkpt>
      <trkpt lat="47.1643" lon="-1.57867">
        <ele>84</ele>
        <time>2022-08-15T10:43:06Z</time>
      </trkpt>
      <trkpt lat="47.16441" lon="-1.57875">
        <ele>84</ele>
        <time>2022-08-15T10:43:08Z</time>
      </trkpt>
      <trkpt lat="47.16451" lon="-1.57883">
        <ele>84</ele>
        <time>2022-08-15T10:43:10Z</time>
      </trkpt>
      <trkpt lat="47.16462" lon="-1.57891">
        <ele>83</ele>
        <time>2022-08-15T10:43:12Z</time>
      </trkpt>
      <trkpt lat="47.16472" lon="-1.57899">
        <ele>84</ele>
        <time>2022-08-15T10:43:14Z</time>
      </trkpt>
      <trkpt lat="47.16482" lon="-1.57909">
        <ele>83</ele>
        <time>2022-08-15T10:43:16Z</time>
      </trkpt>
      <trkpt lat="47.16492" lon="-1.5792">
        <ele>83</ele>
        <time>2022-08-15T10:43:18Z</time>
      </trkpt>
      <trkpt lat="47.16503" lon="-1.57931">
        <ele>83</ele>
        <time>2022-08-15T10:43:20Z</time>
      </trkpt>
      <trkpt lat="47.16514" lon="-1.57941">
        <ele>83</ele>
        <time>2022-08-15T10:43:22Z</time>
      </trkpt>
      <trkpt lat="47.16524" lon="-1.57952">
        <ele>83</ele>
        <time>2022-08-15T10:43:24Z</time>
      </trkpt>
      <trkpt lat="47.16535" lon="-1.57963">
        <ele>82</ele>
        <time>2022-08-15T10:43:26Z</time>
      </trkpt>
      <trkpt lat="47.16545" lon="-1.57973">
        <ele>82</ele>
        <time>2022-08-15T10:43:28Z</time>
      </trkpt>
      <trkpt lat="47.16556" lon="-1.57985">
        <ele>82</ele>
        <time>2022-08-15T10:43:30Z</time>
      </trkpt>
      <trkpt lat="47.16567" lon="-1.57996">
        <ele>82</ele>
        <time>2022-08-15T10:43:32Z</time>
      </trkpt>
      <trkpt lat="47.16578" lon="-1.58006">
        <ele>82</ele>
        <time>2022-08-15T10:43:34Z</time>
      </trkpt>
      <trkpt lat="47.16588" lon="-1.58015">
        <ele>82</ele>
        <time>2022-08-15T10:43:36Z</time>
      </trkpt>
      <trkpt lat="47.16599" lon="-1.58022">
        <ele>82</ele>
        <time>2022-08-15T10:43:38Z</time>
      </trkpt>
      <trkpt lat="47.16612" lon="-1.5803">
        <ele>82</ele>
        <time>2022-08-15T10:43:40Z</time>
      </trkpt>
      <trkpt lat="47.16624" lon="-1.58039">
        <ele>81</ele>
        <time>2022-08-15T10:43:42Z</time>
      </trkpt>
      <trkpt lat="47.16635" lon="-1.58051">
        <ele>81</ele>
        <time>2022-08-15T10:43:44Z</time>
      </trkpt>
      <trkpt lat="47.16644" lon="-1.58064">
        <ele>81</ele>
        <time>2022-08-15T10:43:46Z</time>
      </trkpt>
      <trkpt lat="47.16653" lon="-1.58079">
        <ele>81</ele>
        <time>2022-08-15T10:43:48Z</time>
      </trkpt>
      <trkpt lat="47.16662" lon="-1.58093">
        <ele>81</ele>
        <time>2022-08-15T10:43:50Z</time>
      </trkpt>
      <trkpt lat="47.1667" lon="-1.58107">
        <ele>81</ele>
        <time>2022-08-15T10:43:52Z</time>
      </trkpt>
      <trkpt lat="47.16681" lon="-1.58117">
        <ele>80</ele>
        <time>2022-08-15T10:43:54Z</time>
      </trkpt>
      <trkpt lat="47.16692" lon="-1.58128">
        <ele>81</ele>
        <time>2022-08-15T10:43:56Z</time>
      </trkpt>
      <trkpt lat="47.16702" lon="-1.58137">
        <ele>81</ele>
        <time>2022-08-15T10:43:58Z</time>
      </trkpt>
      <trkpt lat="47.16712" lon="-1.58147">
        <ele>81</ele>
        <time>2022-08-15T10:44:00Z</time>
      </trkpt>
      <trkpt lat="47.16721" lon="-1.58157">
        <ele>81</ele>
        <time>2022-08-15T10:44:02Z</time>
      </trkpt>
      <trkpt lat="47.16731" lon="-1.58166">
        <ele>81</ele>
        <time>2022-08-15T10:44:04Z</time>
      </trkpt>
      <trkpt lat="47.16742" lon="-1.58175">
        <ele>81</ele>
        <time>2022-08-15T10:44:06Z</time>
      </trkpt>
      <trkpt lat="47.16752" lon="-1.58185">
        <ele>81</ele>
        <time>2022-08-15T10:44:08Z</time>
      </trkpt>
      <trkpt lat="47.16761" lon="-1.58195">
        <ele>81</ele>
        <time>2022-08-15T10:44:10Z</time>
      </trkpt>
      <trkpt lat="47.1677" lon="-1.58204">
        <ele>81</ele>
        <time>2022-08-15T10:44:12Z</time>
      </trkpt>
      <trkpt lat="47.16778" lon="-1.58212">
        <ele>82</ele>
        <time>2022-08-15T10:44:14Z</time>
      </trkpt>
      <trkpt lat="47.16787" lon="-1.5822">
        <ele>82</ele>
        <time>2022-08-15T10:44:16Z</time>
      </trkpt>
      <trkpt lat="47.16797" lon="-1.58229">
        <ele>82</ele>
        <time>2022-08-15T10:44:18Z</time>
      </trkpt>
      <trkpt lat="47.16807" lon="-1.58239">
        <ele>82</ele>
        <time>2022-08-15T10:44:20Z</time>
      </trkpt>
      <trkpt lat="47.16817" lon="-1.5825">
        <ele>82</ele>
        <time>2022-08-15T10:44:22Z</time>
      </trkpt>
      <trkpt lat="47.16827" lon="-1.58261">
        <ele>82</ele>
        <time>2022-08-15T10:44:24Z</time>
      </trkpt>
      <trkpt lat="47.16838" lon="-1.58271">
        <ele>82</ele>
        <time>2022-08-15T10:44:26Z</time>
      </trkpt>
      <trkpt lat="47.16848" lon="-1.5828">
        <ele>82</ele>
        <time>2022-08-15T10:44:28Z</time>
      </trkpt>
      <trkpt lat="47.16858" lon="-1.58291">
        <ele>82</ele>
        <time>2022-08-15T10:44:30Z</time>
      </trkpt>
      <trkpt lat="47.16868" lon="-1.583">
        <ele>82</ele>
        <time>2022-08-15T10:44:32Z</time>
      </trkpt>
      <trkpt lat="47.16879" lon="-1.58311">
        <ele>81</ele>
        <time>2022-08-15T10:44:34Z</time>
      </trkpt>
      <trkpt lat="47.16889" lon="-1.58323">
        <ele>81</ele>
        <time>2022-08-15T10:44:36Z</time>
      </trkpt>
      <trkpt lat="47.169" lon="-1.58333">
        <ele>81</ele>
        <time>2022-08-15T10:44:38Z</time>
      </trkpt>
      <trkpt lat="47.1691" lon="-1.58343">
        <ele>81</ele>
        <time>2022-08-15T10:44:40Z</time>
      </trkpt>
      <trkpt lat="47.16921" lon="-1.58354">
        <ele>81</ele>
        <time>2022-08-15T10:44:42Z</time>
      </trkpt>
      <trkpt lat="47.16931" lon="-1.58364">
        <ele>81</ele>
        <time>2022-08-15T10:44:44Z</time>
      </trkpt>
      <trkpt lat="47.16942" lon="-1.58375">
        <ele>81</ele>
        <time>2022-08-15T10:44:46Z</time>
      </trkpt>
      <trkpt lat="47.16952" lon="-1.58385">
        <ele>81</ele>
        <time>2022-08-15T10:44:48Z</time>
      </trkpt>
      <trkpt lat="47.16962" lon="-1.58396">
        <ele>80</ele>
        <time>2022-08-15T10:44:50Z</time>
      </trkpt>
      <trkpt lat="47.16973" lon="-1.58404">
        <ele>80</ele>
        <time>2022-08-15T10:44:52Z</time>
      </trkpt>
      <trkpt lat="47.16984" lon="-1.5841">
        <ele>80</ele>
        <time>2022-08-15T10:44:54Z</time>
      </trkpt>
      <trkpt lat="47.16994" lon="-1.58413">
        <ele>80</ele>
        <time>2022-08-15T10:44:56Z</time>
      </trkpt>
      <trkpt lat="47.17004" lon="-1.58409">
        <ele>80</ele>
        <time>2022-08-15T10:44:58Z</time>
      </trkpt>
      <trkpt lat="47.17014" lon="-1.58404">
        <ele>81</ele>
        <time>2022-08-15T10:45:00Z</time>
      </trkpt>
      <trkpt lat="47.17025" lon="-1.58401">
        <ele>80</ele>
        <time>2022-08-15T10:45:02Z</time>
      </trkpt>
      <trkpt lat="47.17034" lon="-1.58397">
        <ele>79</ele>
        <time>2022-08-15T10:45:04Z</time>
      </trkpt>
      <trkpt lat="47.17043" lon="-1.58395">
        <ele>79</ele>
        <time>2022-08-15T10:45:06Z</time>
      </trkpt>
      <trkpt lat="47.17052" lon="-1.58406">
        <ele>79</ele>
        <time>2022-08-15T10:45:09Z</time>
      </trkpt>
      <trkpt lat="47.17055" lon="-1.58422">
        <ele>79</ele>
        <time>2022-08-15T10:45:11Z</time>
      </trkpt>
      <trkpt lat="47.17058" lon="-1.58439">
        <ele>78</ele>
        <time>2022-08-15T10:45:13Z</time>
      </trkpt>
      <trkpt lat="47.17064" lon="-1.58451">
        <ele>78</ele>
        <time>2022-08-15T10:45:15Z</time>
      </trkpt>
      <trkpt lat="47.17073" lon="-1.58454">
        <ele>78</ele>
        <time>2022-08-15T10:45:17Z</time>
      </trkpt>
      <trkpt lat="47.17082" lon="-1.58461">
        <ele>77</ele>
        <time>2022-08-15T10:45:19Z</time>
      </trkpt>
      <trkpt lat="47.17093" lon="-1.58468">
        <ele>77</ele>
        <time>2022-08-15T10:45:21Z</time>
      </trkpt>
      <trkpt lat="47.17104" lon="-1.58469">
        <ele>78</ele>
        <time>2022-08-15T10:45:23Z</time>
      </trkpt>
      <trkpt lat="47.17116" lon="-1.58469">
        <ele>78</ele>
        <time>2022-08-15T10:45:25Z</time>
      </trkpt>
      <trkpt lat="47.17128" lon="-1.58471">
        <ele>77</ele>
        <time>2022-08-15T10:45:27Z</time>
      </trkpt>
      <trkpt lat="47.1714" lon="-1.58471">
        <ele>77</ele>
        <time>2022-08-15T10:45:29Z</time>
      </trkpt>
      <trkpt lat="47.17151" lon="-1.58471">
        <ele>77</ele>
        <time>2022-08-15T10:45:31Z</time>
      </trkpt>
      <trkpt lat="47.17163" lon="-1.58472">
        <ele>77</ele>
        <time>2022-08-15T10:45:33Z</time>
      </trkpt>
      <trkpt lat="47.17176" lon="-1.58473">
        <ele>77</ele>
        <time>2022-08-15T10:45:35Z</time>
      </trkpt>
      <trkpt lat="47.17187" lon="-1.58474">
        <ele>77</ele>
        <time>2022-08-15T10:45:37Z</time>
      </trkpt>
      <trkpt lat="47.17199" lon="-1.58475">
        <ele>77</ele>
        <time>2022-08-15T10:45:39Z</time>
      </trkpt>
      <trkpt lat="47.1721" lon="-1.58477">
        <ele>77</ele>
        <time>2022-08-15T10:45:41Z</time>
      </trkpt>
      <trkpt lat="47.17222" lon="-1.58477">
        <ele>77</ele>
        <time>2022-08-15T10:45:43Z</time>
      </trkpt>
      <trkpt lat="47.17235" lon="-1.58479">
        <ele>77</ele>
        <time>2022-08-15T10:45:45Z</time>
      </trkpt>
      <trkpt lat="47.17248" lon="-1.5848">
        <ele>76</ele>
        <time>2022-08-15T10:45:47Z</time>
      </trkpt>
      <trkpt lat="47.17259" lon="-1.58483">
        <ele>76</ele>
        <time>2022-08-15T10:45:49Z</time>
      </trkpt>
      <trkpt lat="47.17271" lon="-1.58485">
        <ele>77</ele>
        <time>2022-08-15T10:45:51Z</time>
      </trkpt>
      <trkpt lat="47.17283" lon="-1.58488">
        <ele>77</ele>
        <time>2022-08-15T10:45:53Z</time>
      </trkpt>
      <trkpt lat="47.17295" lon="-1.58489">
        <ele>77</ele>
        <time>2022-08-15T10:45:55Z</time>
      </trkpt>
      <trkpt lat="47.17307" lon="-1.58491">
        <ele>77</ele>
        <time>2022-08-15T10:45:57Z</time>
      </trkpt>
      <trkpt lat="47.17319" lon="-1.58492">
        <ele>77</ele>
        <time>2022-08-15T10:45:59Z</time>
      </trkpt>
      <trkpt lat="47.17332" lon="-1.58494">
        <ele>77</ele>
        <time>2022-08-15T10:46:01Z</time>
      </trkpt>
      <trkpt lat="47.17344" lon="-1.58497">
        <ele>76</ele>
        <time>2022-08-15T10:46:03Z</time>
      </trkpt>
      <trkpt lat="47.17356" lon="-1.58499">
        <ele>76</ele>
        <time>2022-08-15T10:46:05Z</time>
      </trkpt>
      <trkpt lat="47.17368" lon="-1.58502">
        <ele>76</ele>
        <time>2022-08-15T10:46:07Z</time>
      </trkpt>
      <trkpt lat="47.1738" lon="-1.58504">
        <ele>77</ele>
        <time>2022-08-15T10:46:09Z</time>
      </trkpt>
      <trkpt lat="47.17393" lon="-1.58505">
        <ele>76</ele>
        <time>2022-08-15T10:46:11Z</time>
      </trkpt>
      <trkpt lat="47.17405" lon="-1.58507">
        <ele>76</ele>
        <time>2022-08-15T10:46:13Z</time>
      </trkpt>
      <trkpt lat="47.17417" lon="-1.58508">
        <ele>76</ele>
        <time>2022-08-15T10:46:15Z</time>
      </trkpt>
      <trkpt lat="47.17429" lon="-1.5851">
        <ele>76</ele>
        <time>2022-08-15T10:46:17Z</time>
      </trkpt>
      <trkpt lat="47.17442" lon="-1.58512">
        <ele>75</ele>
        <time>2022-08-15T10:46:19Z</time>
      </trkpt>
      <trkpt lat="47.17454" lon="-1.58514">
        <ele>75</ele>
        <time>2022-08-15T10:46:21Z</time>
      </trkpt>
      <trkpt lat="47.17467" lon="-1.58517">
        <ele>76</ele>
        <time>2022-08-15T10:46:23Z</time>
      </trkpt>
      <trkpt lat="47.17479" lon="-1.58521">
        <ele>76</ele>
        <time>2022-08-15T10:46:25Z</time>
      </trkpt>
      <trkpt lat="47.17491" lon="-1.58526">
        <ele>76</ele>
        <time>2022-08-15T10:46:27Z</time>
      </trkpt>
      <trkpt lat="47.17509" lon="-1.58535">
        <ele>77</ele>
        <time>2022-08-15T10:46:30Z</time>
      </trkpt>
      <trkpt lat="47.17527" lon="-1.58544">
        <ele>77</ele>
        <time>2022-08-15T10:46:33Z</time>
      </trkpt>
      <trkpt lat="47.17544" lon="-1.58554">
        <ele>77</ele>
        <time>2022-08-15T10:46:36Z</time>
      </trkpt>
      <trkpt lat="47.17556" lon="-1.58559">
        <ele>77</ele>
        <time>2022-08-15T10:46:38Z</time>
      </trkpt>
      <trkpt lat="47.17574" lon="-1.5857">
        <ele>77</ele>
        <time>2022-08-15T10:46:41Z</time>
      </trkpt>
      <trkpt lat="47.17592" lon="-1.58581">
        <ele>76</ele>
        <time>2022-08-15T10:46:44Z</time>
      </trkpt>
      <trkpt lat="47.17604" lon="-1.58587">
        <ele>76</ele>
        <time>2022-08-15T10:46:46Z</time>
      </trkpt>
      <trkpt lat="47.17616" lon="-1.58594">
        <ele>76</ele>
        <time>2022-08-15T10:46:48Z</time>
      </trkpt>
      <trkpt lat="47.17628" lon="-1.586">
        <ele>76</ele>
        <time>2022-08-15T10:46:50Z</time>
      </trkpt>
      <trkpt lat="47.17646" lon="-1.58609">
        <ele>76</ele>
        <time>2022-08-15T10:46:53Z</time>
      </trkpt>
      <trkpt lat="47.17658" lon="-1.58615">
        <ele>76</ele>
        <time>2022-08-15T10:46:55Z</time>
      </trkpt>
      <trkpt lat="47.1767" lon="-1.5862">
        <ele>76</ele>
        <time>2022-08-15T10:46:57Z</time>
      </trkpt>
      <trkpt lat="47.17681" lon="-1.58624">
        <ele>77</ele>
        <time>2022-08-15T10:46:59Z</time>
      </trkpt>
      <trkpt lat="47.17693" lon="-1.58625">
        <ele>76</ele>
        <time>2022-08-15T10:47:01Z</time>
      </trkpt>
      <trkpt lat="47.17705" lon="-1.58625">
        <ele>76</ele>
        <time>2022-08-15T10:47:03Z</time>
      </trkpt>
      <trkpt lat="47.17719" lon="-1.58625">
        <ele>75</ele>
        <time>2022-08-15T10:47:05Z</time>
      </trkpt>
      <trkpt lat="47.17731" lon="-1.58625">
        <ele>75</ele>
        <time>2022-08-15T10:47:07Z</time>
      </trkpt>
      <trkpt lat="47.17744" lon="-1.58623">
        <ele>75</ele>
        <time>2022-08-15T10:47:09Z</time>
      </trkpt>
      <trkpt lat="47.17756" lon="-1.58618">
        <ele>75</ele>
        <time>2022-08-15T10:47:11Z</time>
      </trkpt>
      <trkpt lat="47.17767" lon="-1.58622">
        <ele>75</ele>
        <time>2022-08-15T10:47:13Z</time>
      </trkpt>
      <trkpt lat="47.17773" lon="-1.58639">
        <ele>74</ele>
        <time>2022-08-15T10:47:15Z</time>
      </trkpt>
      <trkpt lat="47.1778" lon="-1.58655">
        <ele>74</ele>
        <time>2022-08-15T10:47:17Z</time>
      </trkpt>
      <trkpt lat="47.1779" lon="-1.58668">
        <ele>74</ele>
        <time>2022-08-15T10:47:19Z</time>
      </trkpt>
      <trkpt lat="47.178" lon="-1.5868">
        <ele>74</ele>
        <time>2022-08-15T10:47:21Z</time>
      </trkpt>
      <trkpt lat="47.17809" lon="-1.58692">
        <ele>74</ele>
        <time>2022-08-15T10:47:23Z</time>
      </trkpt>
      <trkpt lat="47.17819" lon="-1.58705">
        <ele>74</ele>
        <time>2022-08-15T10:47:25Z</time>
      </trkpt>
      <trkpt lat="47.17828" lon="-1.58717">
        <ele>74</ele>
        <time>2022-08-15T10:47:27Z</time>
      </trkpt>
      <trkpt lat="47.17837" lon="-1.58729">
        <ele>74</ele>
        <time>2022-08-15T10:47:29Z</time>
      </trkpt>
      <trkpt lat="47.17846" lon="-1.58742">
        <ele>74</ele>
        <time>2022-08-15T10:47:31Z</time>
      </trkpt>
      <trkpt lat="47.17855" lon="-1.58753">
        <ele>74</ele>
        <time>2022-08-15T10:47:33Z</time>
      </trkpt>
      <trkpt lat="47.17865" lon="-1.58764">
        <ele>74</ele>
        <time>2022-08-15T10:47:35Z</time>
      </trkpt>
      <trkpt lat="47.17875" lon="-1.58776">
        <ele>74</ele>
        <time>2022-08-15T10:47:37Z</time>
      </trkpt>
      <trkpt lat="47.17885" lon="-1.58788">
        <ele>74</ele>
        <time>2022-08-15T10:47:39Z</time>
      </trkpt>
      <trkpt lat="47.17895" lon="-1.58798">
        <ele>74</ele>
        <time>2022-08-15T10:47:41Z</time>
      </trkpt>
      <trkpt lat="47.17906" lon="-1.58808">
        <ele>74</ele>
        <time>2022-08-15T10:47:43Z</time>
      </trkpt>
      <trkpt lat="47.17918" lon="-1.58818">
        <ele>74</ele>
        <time>2022-08-15T10:47:45Z</time>
      </trkpt>
      <trkpt lat="47.17929" lon="-1.58827">
        <ele>74</ele>
        <time>2022-08-15T10:47:47Z</time>
      </trkpt>
      <trkpt lat="47.17941" lon="-1.58837">
        <ele>74</ele>
        <time>2022-08-15T10:47:49Z</time>
      </trkpt>
      <trkpt lat="47.17952" lon="-1.58846">
        <ele>74</ele>
        <time>2022-08-15T10:47:51Z</time>
      </trkpt>
      <trkpt lat="47.17962" lon="-1.58856">
        <ele>73</ele>
        <time>2022-08-15T10:47:53Z</time>
      </trkpt>
      <trkpt lat="47.17973" lon="-1.58862">
        <ele>73</ele>
        <time>2022-08-15T10:47:55Z</time>
      </trkpt>
      <trkpt lat="47.17984" lon="-1.58869">
        <ele>73</ele>
        <time>2022-08-15T10:47:57Z</time>
      </trkpt>
      <trkpt lat="47.17992" lon="-1.5888">
        <ele>72</ele>
        <time>2022-08-15T10:47:59Z</time>
      </trkpt>
      <trkpt lat="47.18002" lon="-1.5889">
        <ele>72</ele>
        <time>2022-08-15T10:48:01Z</time>
      </trkpt>
      <trkpt lat="47.18012" lon="-1.58899">
        <ele>72</ele>
        <time>2022-08-15T10:48:03Z</time>
      </trkpt>
      <trkpt lat="47.18022" lon="-1.58908">
        <ele>72</ele>
        <time>2022-08-15T10:48:05Z</time>
      </trkpt>
      <trkpt lat="47.18033" lon="-1.58917">
        <ele>73</ele>
        <time>2022-08-15T10:48:07Z</time>
      </trkpt>
      <trkpt lat="47.18043" lon="-1.58927">
        <ele>73</ele>
        <time>2022-08-15T10:48:09Z</time>
      </trkpt>
      <trkpt lat="47.18051" lon="-1.5894">
        <ele>73</ele>
        <time>2022-08-15T10:48:11Z</time>
      </trkpt>
      <trkpt lat="47.18058" lon="-1.58955">
        <ele>73</ele>
        <time>2022-08-15T10:48:13Z</time>
      </trkpt>
      <trkpt lat="47.18062" lon="-1.58971">
        <ele>72</ele>
        <time>2022-08-15T10:48:15Z</time>
      </trkpt>
      <trkpt lat="47.18065" lon="-1.58989">
        <ele>73</ele>
        <time>2022-08-15T10:48:17Z</time>
      </trkpt>
      <trkpt lat="47.18067" lon="-1.59007">
        <ele>73</ele>
        <time>2022-08-15T10:48:19Z</time>
      </trkpt>
      <trkpt lat="47.1807" lon="-1.59025">
        <ele>73</ele>
        <time>2022-08-15T10:48:21Z</time>
      </trkpt>
      <trkpt lat="47.18072" lon="-1.59044">
        <ele>73</ele>
        <time>2022-08-15T10:48:23Z</time>
      </trkpt>
      <trkpt lat="47.18074" lon="-1.59061">
        <ele>73</ele>
        <time>2022-08-15T10:48:25Z</time>
      </trkpt>
      <trkpt lat="47.18076" lon="-1.5908">
        <ele>73</ele>
        <time>2022-08-15T10:48:27Z</time>
      </trkpt>
      <trkpt lat="47.1808" lon="-1.59099">
        <ele>72</ele>
        <time>2022-08-15T10:48:29Z</time>
      </trkpt>
      <trkpt lat="47.18083" lon="-1.59118">
        <ele>72</ele>
        <time>2022-08-15T10:48:31Z</time>
      </trkpt>
      <trkpt lat="47.18086" lon="-1.59136">
        <ele>72</ele>
        <time>2022-08-15T10:48:33Z</time>
      </trkpt>
      <trkpt lat="47.18089" lon="-1.59153">
        <ele>71</ele>
        <time>2022-08-15T10:48:35Z</time>
      </trkpt>
      <trkpt lat="47.18092" lon="-1.5917">
        <ele>71</ele>
        <time>2022-08-15T10:48:37Z</time>
      </trkpt>
      <trkpt lat="47.18094" lon="-1.59185">
        <ele>71</ele>
        <time>2022-08-15T10:48:39Z</time>
      </trkpt>
      <trkpt lat="47.18087" lon="-1.592">
        <ele>71</ele>
        <time>2022-08-15T10:48:41Z</time>
      </trkpt>
      <trkpt lat="47.18078" lon="-1.59214">
        <ele>71</ele>
        <time>2022-08-15T10:48:43Z</time>
      </trkpt>
      <trkpt lat="47.18074" lon="-1.5923">
        <ele>71</ele>
        <time>2022-08-15T10:48:45Z</time>
      </trkpt>
      <trkpt lat="47.18071" lon="-1.59248">
        <ele>71</ele>
        <time>2022-08-15T10:48:47Z</time>
      </trkpt>
      <trkpt lat="47.18068" lon="-1.59266">
        <ele>72</ele>
        <time>2022-08-15T10:48:49Z</time>
      </trkpt>
      <trkpt lat="47.18064" lon="-1.59283">
        <ele>72</ele>
        <time>2022-08-15T10:48:51Z</time>
      </trkpt>
      <trkpt lat="47.18062" lon="-1.59301">
        <ele>72</ele>
        <time>2022-08-15T10:48:53Z</time>
      </trkpt>
      <trkpt lat="47.18059" lon="-1.59319">
        <ele>71</ele>
        <time>2022-08-15T10:48:55Z</time>
      </trkpt>
      <trkpt lat="47.18057" lon="-1.59336">
        <ele>71</ele>
        <time>2022-08-15T10:48:57Z</time>
      </trkpt>
      <trkpt lat="47.18054" lon="-1.59353">
        <ele>71</ele>
        <time>2022-08-15T10:48:59Z</time>
      </trkpt>
      <trkpt lat="47.18052" lon="-1.59368">
        <ele>71</ele>
        <time>2022-08-15T10:49:01Z</time>
      </trkpt>
      <trkpt lat="47.1805" lon="-1.59383">
        <ele>71</ele>
        <time>2022-08-15T10:49:03Z</time>
      </trkpt>
      <trkpt lat="47.18056" lon="-1.594">
        <ele>73</ele>
        <time>2022-08-15T10:49:06Z</time>
      </trkpt>
      <trkpt lat="47.18064" lon="-1.59412">
        <ele>73</ele>
        <time>2022-08-15T10:49:08Z</time>
      </trkpt>
      <trkpt lat="47.18062" lon="-1.59427">
        <ele>74</ele>
        <time>2022-08-15T10:49:10Z</time>
      </trkpt>
      <trkpt lat="47.18053" lon="-1.59441">
        <ele>74</ele>
        <time>2022-08-15T10:49:12Z</time>
      </trkpt>
      <trkpt lat="47.18045" lon="-1.59453">
        <ele>73</ele>
        <time>2022-08-15T10:49:14Z</time>
      </trkpt>
      <trkpt lat="47.18038" lon="-1.59468">
        <ele>73</ele>
        <time>2022-08-15T10:49:16Z</time>
      </trkpt>
      <trkpt lat="47.18033" lon="-1.59484">
        <ele>72</ele>
        <time>2022-08-15T10:49:18Z</time>
      </trkpt>
      <trkpt lat="47.18029" lon="-1.595">
        <ele>71</ele>
        <time>2022-08-15T10:49:20Z</time>
      </trkpt>
      <trkpt lat="47.18025" lon="-1.59516">
        <ele>71</ele>
        <time>2022-08-15T10:49:22Z</time>
      </trkpt>
      <trkpt lat="47.18021" lon="-1.59532">
        <ele>71</ele>
        <time>2022-08-15T10:49:24Z</time>
      </trkpt>
      <trkpt lat="47.18016" lon="-1.5955">
        <ele>71</ele>
        <time>2022-08-15T10:49:26Z</time>
      </trkpt>
      <trkpt lat="47.18012" lon="-1.59566">
        <ele>71</ele>
        <time>2022-08-15T10:49:28Z</time>
      </trkpt>
      <trkpt lat="47.18008" lon="-1.59582">
        <ele>71</ele>
        <time>2022-08-15T10:49:30Z</time>
      </trkpt>
      <trkpt lat="47.18003" lon="-1.59598">
        <ele>72</ele>
        <time>2022-08-15T10:49:32Z</time>
      </trkpt>
      <trkpt lat="47.17999" lon="-1.59615">
        <ele>71</ele>
        <time>2022-08-15T10:49:34Z</time>
      </trkpt>
      <trkpt lat="47.17995" lon="-1.59631">
        <ele>70</ele>
        <time>2022-08-15T10:49:36Z</time>
      </trkpt>
      <trkpt lat="47.1799" lon="-1.59648">
        <ele>70</ele>
        <time>2022-08-15T10:49:38Z</time>
      </trkpt>
      <trkpt lat="47.17986" lon="-1.59664">
        <ele>70</ele>
        <time>2022-08-15T10:49:40Z</time>
      </trkpt>
      <trkpt lat="47.17983" lon="-1.59682">
        <ele>69</ele>
        <time>2022-08-15T10:49:42Z</time>
      </trkpt>
      <trkpt lat="47.17979" lon="-1.597">
        <ele>68</ele>
        <time>2022-08-15T10:49:44Z</time>
      </trkpt>
      <trkpt lat="47.17973" lon="-1.59717">
        <ele>68</ele>
        <time>2022-08-15T10:49:46Z</time>
      </trkpt>
      <trkpt lat="47.17969" lon="-1.59735">
        <ele>67</ele>
        <time>2022-08-15T10:49:48Z</time>
      </trkpt>
      <trkpt lat="47.17963" lon="-1.59753">
        <ele>67</ele>
        <time>2022-08-15T10:49:50Z</time>
      </trkpt>
      <trkpt lat="47.17957" lon="-1.59771">
        <ele>66</ele>
        <time>2022-08-15T10:49:52Z</time>
      </trkpt>
      <trkpt lat="47.17952" lon="-1.59791">
        <ele>65</ele>
        <time>2022-08-15T10:49:54Z</time>
      </trkpt>
      <trkpt lat="47.17948" lon="-1.59812">
        <ele>64</ele>
        <time>2022-08-15T10:49:56Z</time>
      </trkpt>
      <trkpt lat="47.17945" lon="-1.59834">
        <ele>63</ele>
        <time>2022-08-15T10:49:58Z</time>
      </trkpt>
      <trkpt lat="47.17942" lon="-1.59857">
        <ele>61</ele>
        <time>2022-08-15T10:50:00Z</time>
      </trkpt>
      <trkpt lat="47.17937" lon="-1.5988">
        <ele>61</ele>
        <time>2022-08-15T10:50:02Z</time>
      </trkpt>
      <trkpt lat="47.17931" lon="-1.59901">
        <ele>60</ele>
        <time>2022-08-15T10:50:04Z</time>
      </trkpt>
      <trkpt lat="47.17927" lon="-1.59924">
        <ele>59</ele>
        <time>2022-08-15T10:50:06Z</time>
      </trkpt>
      <trkpt lat="47.17915" lon="-1.59941">
        <ele>58</ele>
        <time>2022-08-15T10:50:08Z</time>
      </trkpt>
      <trkpt lat="47.17899" lon="-1.59944">
        <ele>57</ele>
        <time>2022-08-15T10:50:10Z</time>
      </trkpt>
      <trkpt lat="47.17886" lon="-1.59951">
        <ele>57</ele>
        <time>2022-08-15T10:50:12Z</time>
      </trkpt>
      <trkpt lat="47.17877" lon="-1.59964">
        <ele>57</ele>
        <time>2022-08-15T10:50:14Z</time>
      </trkpt>
      <trkpt lat="47.17868" lon="-1.59978">
        <ele>58</ele>
        <time>2022-08-15T10:50:16Z</time>
      </trkpt>
      <trkpt lat="47.17861" lon="-1.59992">
        <ele>57</ele>
        <time>2022-08-15T10:50:18Z</time>
      </trkpt>
      <trkpt lat="47.17853" lon="-1.60005">
        <ele>57</ele>
        <time>2022-08-15T10:50:20Z</time>
      </trkpt>
      <trkpt lat="47.17846" lon="-1.60018">
        <ele>58</ele>
        <time>2022-08-15T10:50:22Z</time>
      </trkpt>
      <trkpt lat="47.17839" lon="-1.6003">
        <ele>58</ele>
        <time>2022-08-15T10:50:24Z</time>
      </trkpt>
      <trkpt lat="47.17832" lon="-1.60042">
        <ele>58</ele>
        <time>2022-08-15T10:50:26Z</time>
      </trkpt>
      <trkpt lat="47.17825" lon="-1.60053">
        <ele>58</ele>
        <time>2022-08-15T10:50:28Z</time>
      </trkpt>
      <trkpt lat="47.17819" lon="-1.60065">
        <ele>58</ele>
        <time>2022-08-15T10:50:30Z</time>
      </trkpt>
      <trkpt lat="47.17812" lon="-1.60076">
        <ele>59</ele>
        <time>2022-08-15T10:50:32Z</time>
      </trkpt>
      <trkpt lat="47.17806" lon="-1.60086">
        <ele>60</ele>
        <time>2022-08-15T10:50:34Z</time>
      </trkpt>
      <trkpt lat="47.17798" lon="-1.60102">
        <ele>60</ele>
        <time>2022-08-15T10:50:37Z</time>
      </trkpt>
      <trkpt lat="47.17792" lon="-1.60112">
        <ele>61</ele>
        <time>2022-08-15T10:50:39Z</time>
      </trkpt>
      <trkpt lat="47.17786" lon="-1.60122">
        <ele>61</ele>
        <time>2022-08-15T10:50:41Z</time>
      </trkpt>
      <trkpt lat="47.1778" lon="-1.60132">
        <ele>62</ele>
        <time>2022-08-15T10:50:43Z</time>
      </trkpt>
      <trkpt lat="47.17772" lon="-1.60147">
        <ele>62</ele>
        <time>2022-08-15T10:50:46Z</time>
      </trkpt>
      <trkpt lat="47.17764" lon="-1.60163">
        <ele>63</ele>
        <time>2022-08-15T10:50:49Z</time>
      </trkpt>
      <trkpt lat="47.17756" lon="-1.60178">
        <ele>63</ele>
        <time>2022-08-15T10:50:52Z</time>
      </trkpt>
      <trkpt lat="47.17751" lon="-1.60196">
        <ele>64</ele>
        <time>2022-08-15T10:50:55Z</time>
      </trkpt>
      <trkpt lat="47.17747" lon="-1.60208">
        <ele>64</ele>
        <time>2022-08-15T10:50:57Z</time>
      </trkpt>
      <trkpt lat="47.17744" lon="-1.60221">
        <ele>65</ele>
        <time>2022-08-15T10:50:59Z</time>
      </trkpt>
      <trkpt lat="47.1774" lon="-1.6024">
        <ele>65</ele>
        <time>2022-08-15T10:51:02Z</time>
      </trkpt>
      <trkpt lat="47.17737" lon="-1.60253">
        <ele>65</ele>
        <time>2022-08-15T10:51:04Z</time>
      </trkpt>
      <trkpt lat="47.17733" lon="-1.60265">
        <ele>65</ele>
        <time>2022-08-15T10:51:06Z</time>
      </trkpt>
      <trkpt lat="47.17727" lon="-1.60276">
        <ele>66</ele>
        <time>2022-08-15T10:51:08Z</time>
      </trkpt>
      <trkpt lat="47.1772" lon="-1.60286">
        <ele>66</ele>
        <time>2022-08-15T10:51:10Z</time>
      </trkpt>
      <trkpt lat="47.17713" lon="-1.60297">
        <ele>66</ele>
        <time>2022-08-15T10:51:12Z</time>
      </trkpt>
      <trkpt lat="47.17706" lon="-1.60306">
        <ele>66</ele>
        <time>2022-08-15T10:51:14Z</time>
      </trkpt>
      <trkpt lat="47.17699" lon="-1.60316">
        <ele>67</ele>
        <time>2022-08-15T10:51:16Z</time>
      </trkpt>
      <trkpt lat="47.17692" lon="-1.60325">
        <ele>67</ele>
        <time>2022-08-15T10:51:18Z</time>
      </trkpt>
      <trkpt lat="47.17685" lon="-1.60335">
        <ele>67</ele>
        <time>2022-08-15T10:51:20Z</time>
      </trkpt>
      <trkpt lat="47.17678" lon="-1.60345">
        <ele>67</ele>
        <time>2022-08-15T10:51:22Z</time>
      </trkpt>
      <trkpt lat="47.17671" lon="-1.60355">
        <ele>66</ele>
        <time>2022-08-15T10:51:24Z</time>
      </trkpt>
      <trkpt lat="47.17663" lon="-1.60366">
        <ele>66</ele>
        <time>2022-08-15T10:51:26Z</time>
      </trkpt>
      <trkpt lat="47.17656" lon="-1.60377">
        <ele>67</ele>
        <time>2022-08-15T10:51:28Z</time>
      </trkpt>
      <trkpt lat="47.17648" lon="-1.60389">
        <ele>67</ele>
        <time>2022-08-15T10:51:30Z</time>
      </trkpt>
      <trkpt lat="47.17641" lon="-1.60401">
        <ele>66</ele>
        <time>2022-08-15T10:51:32Z</time>
      </trkpt>
      <trkpt lat="47.17633" lon="-1.60414">
        <ele>66</ele>
        <time>2022-08-15T10:51:34Z</time>
      </trkpt>
      <trkpt lat="47.17626" lon="-1.60427">
        <ele>65</ele>
        <time>2022-08-15T10:51:36Z</time>
      </trkpt>
      <trkpt lat="47.17618" lon="-1.6044">
        <ele>65</ele>
        <time>2022-08-15T10:51:38Z</time>
      </trkpt>
      <trkpt lat="47.17609" lon="-1.60453">
        <ele>65</ele>
        <time>2022-08-15T10:51:40Z</time>
      </trkpt>
      <trkpt lat="47.17601" lon="-1.60465">
        <ele>65</ele>
        <time>2022-08-15T10:51:42Z</time>
      </trkpt>
      <trkpt lat="47.17593" lon="-1.60478">
        <ele>65</ele>
        <time>2022-08-15T10:51:44Z</time>
      </trkpt>
      <trkpt lat="47.17586" lon="-1.60491">
        <ele>65</ele>
        <time>2022-08-15T10:51:46Z</time>
      </trkpt>
      <trkpt lat="47.17578" lon="-1.60503">
        <ele>64</ele>
        <time>2022-08-15T10:51:48Z</time>
      </trkpt>
      <trkpt lat="47.1757" lon="-1.60515">
        <ele>64</ele>
        <time>2022-08-15T10:51:50Z</time>
      </trkpt>
      <trkpt lat="47.17563" lon="-1.60527">
        <ele>64</ele>
        <time>2022-08-15T10:51:52Z</time>
      </trkpt>
      <trkpt lat="47.17555" lon="-1.6054">
        <ele>64</ele>
        <time>2022-08-15T10:51:54Z</time>
      </trkpt>
      <trkpt lat="47.17547" lon="-1.60552">
        <ele>64</ele>
        <time>2022-08-15T10:51:56Z</time>
      </trkpt>
      <trkpt lat="47.1754" lon="-1.60565">
        <ele>64</ele>
        <time>2022-08-15T10:51:58Z</time>
      </trkpt>
      <trkpt lat="47.17532" lon="-1.60577">
        <ele>64</ele>
        <time>2022-08-15T10:52:00Z</time>
      </trkpt>
      <trkpt lat="47.17525" lon="-1.6059">
        <ele>64</ele>
        <time>2022-08-15T10:52:02Z</time>
      </trkpt>
      <trkpt lat="47.17517" lon="-1.60603">
        <ele>64</ele>
        <time>2022-08-15T10:52:04Z</time>
      </trkpt>
      <trkpt lat="47.17509" lon="-1.60615">
        <ele>63</ele>
        <time>2022-08-15T10:52:06Z</time>
      </trkpt>
      <trkpt lat="47.17502" lon="-1.60628">
        <ele>63</ele>
        <time>2022-08-15T10:52:08Z</time>
      </trkpt>
      <trkpt lat="47.17494" lon="-1.6064">
        <ele>63</ele>
        <time>2022-08-15T10:52:10Z</time>
      </trkpt>
      <trkpt lat="47.17486" lon="-1.60653">
        <ele>63</ele>
        <time>2022-08-15T10:52:12Z</time>
      </trkpt>
      <trkpt lat="47.17478" lon="-1.60666">
        <ele>63</ele>
        <time>2022-08-15T10:52:14Z</time>
      </trkpt>
      <trkpt lat="47.1747" lon="-1.60679">
        <ele>63</ele>
        <time>2022-08-15T10:52:16Z</time>
      </trkpt>
      <trkpt lat="47.17462" lon="-1.60691">
        <ele>63</ele>
        <time>2022-08-15T10:52:18Z</time>
      </trkpt>
      <trkpt lat="47.17453" lon="-1.60704">
        <ele>62</ele>
        <time>2022-08-15T10:52:20Z</time>
      </trkpt>
      <trkpt lat="47.17445" lon="-1.60718">
        <ele>62</ele>
        <time>2022-08-15T10:52:22Z</time>
      </trkpt>
      <trkpt lat="47.17436" lon="-1.60733">
        <ele>61</ele>
        <time>2022-08-15T10:52:24Z</time>
      </trkpt>
      <trkpt lat="47.17429" lon="-1.60748">
        <ele>61</ele>
        <time>2022-08-15T10:52:26Z</time>
      </trkpt>
      <trkpt lat="47.17422" lon="-1.60765">
        <ele>61</ele>
        <time>2022-08-15T10:52:28Z</time>
      </trkpt>
      <trkpt lat="47.17416" lon="-1.60782">
        <ele>60</ele>
        <time>2022-08-15T10:52:30Z</time>
      </trkpt>
      <trkpt lat="47.1741" lon="-1.60799">
        <ele>59</ele>
        <time>2022-08-15T10:52:32Z</time>
      </trkpt>
      <trkpt lat="47.17405" lon="-1.60818">
        <ele>59</ele>
        <time>2022-08-15T10:52:34Z</time>
      </trkpt>
      <trkpt lat="47.174" lon="-1.60837">
        <ele>59</ele>
        <time>2022-08-15T10:52:36Z</time>
      </trkpt>
      <trkpt lat="47.17397" lon="-1.60857">
        <ele>58</ele>
        <time>2022-08-15T10:52:38Z</time>
      </trkpt>
      <trkpt lat="47.17395" lon="-1.60877">
        <ele>58</ele>
        <time>2022-08-15T10:52:40Z</time>
      </trkpt>
      <trkpt lat="47.17394" lon="-1.60898">
        <ele>58</ele>
        <time>2022-08-15T10:52:42Z</time>
      </trkpt>
      <trkpt lat="47.17395" lon="-1.60919">
        <ele>58</ele>
        <time>2022-08-15T10:52:44Z</time>
      </trkpt>
      <trkpt lat="47.17397" lon="-1.60941">
        <ele>58</ele>
        <time>2022-08-15T10:52:46Z</time>
      </trkpt>
      <trkpt lat="47.17401" lon="-1.6096">
        <ele>57</ele>
        <time>2022-08-15T10:52:48Z</time>
      </trkpt>
      <trkpt lat="47.17407" lon="-1.60978">
        <ele>58</ele>
        <time>2022-08-15T10:52:50Z</time>
      </trkpt>
      <trkpt lat="47.17415" lon="-1.60995">
        <ele>58</ele>
        <time>2022-08-15T10:52:52Z</time>
      </trkpt>
      <trkpt lat="47.1742" lon="-1.61013">
        <ele>58</ele>
        <time>2022-08-15T10:52:54Z</time>
      </trkpt>
      <trkpt lat="47.17421" lon="-1.61032">
        <ele>58</ele>
        <time>2022-08-15T10:52:56Z</time>
      </trkpt>
      <trkpt lat="47.17423" lon="-1.61047">
        <ele>59</ele>
        <time>2022-08-15T10:52:58Z</time>
      </trkpt>
      <trkpt lat="47.17428" lon="-1.61061">
        <ele>59</ele>
        <time>2022-08-15T10:53:00Z</time>
      </trkpt>
      <trkpt lat="47.17434" lon="-1.61076">
        <ele>60</ele>
        <time>2022-08-15T10:53:02Z</time>
      </trkpt>
      <trkpt lat="47.17441" lon="-1.61091">
        <ele>60</ele>
        <time>2022-08-15T10:53:04Z</time>
      </trkpt>
      <trkpt lat="47.17446" lon="-1.61105">
        <ele>60</ele>
        <time>2022-08-15T10:53:06Z</time>
      </trkpt>
      <trkpt lat="47.17452" lon="-1.6112">
        <ele>61</ele>
        <time>2022-08-15T10:53:08Z</time>
      </trkpt>
      <trkpt lat="47.17458" lon="-1.61134">
        <ele>61</ele>
        <time>2022-08-15T10:53:10Z</time>
      </trkpt>
      <trkpt lat="47.17463" lon="-1.61147">
        <ele>62</ele>
        <time>2022-08-15T10:53:12Z</time>
      </trkpt>
      <trkpt lat="47.17469" lon="-1.61161">
        <ele>62</ele>
        <time>2022-08-15T10:53:14Z</time>
      </trkpt>
      <trkpt lat="47.17475" lon="-1.61174">
        <ele>63</ele>
        <time>2022-08-15T10:53:16Z</time>
      </trkpt>
      <trkpt lat="47.1748" lon="-1.61189">
        <ele>62</ele>
        <time>2022-08-15T10:53:18Z</time>
      </trkpt>
      <trkpt lat="47.17486" lon="-1.61204">
        <ele>62</ele>
        <time>2022-08-15T10:53:20Z</time>
      </trkpt>
      <trkpt lat="47.17493" lon="-1.61219">
        <ele>62</ele>
        <time>2022-08-15T10:53:22Z</time>
      </trkpt>
      <trkpt lat="47.17499" lon="-1.61234">
        <ele>62</ele>
        <time>2022-08-15T10:53:24Z</time>
      </trkpt>
      <trkpt lat="47.17507" lon="-1.61249">
        <ele>63</ele>
        <time>2022-08-15T10:53:26Z</time>
      </trkpt>
      <trkpt lat="47.17515" lon="-1.61264">
        <ele>63</ele>
        <time>2022-08-15T10:53:28Z</time>
      </trkpt>
      <trkpt lat="47.17524" lon="-1.61276">
        <ele>62</ele>
        <time>2022-08-15T10:53:30Z</time>
      </trkpt>
      <trkpt lat="47.17534" lon="-1.61286">
        <ele>63</ele>
        <time>2022-08-15T10:53:32Z</time>
      </trkpt>
      <trkpt lat="47.17546" lon="-1.61293">
        <ele>63</ele>
        <time>2022-08-15T10:53:34Z</time>
      </trkpt>
      <trkpt lat="47.17557" lon="-1.61303">
        <ele>63</ele>
        <time>2022-08-15T10:53:36Z</time>
      </trkpt>
      <trkpt lat="47.17562" lon="-1.61321">
        <ele>62</ele>
        <time>2022-08-15T10:53:38Z</time>
      </trkpt>
      <trkpt lat="47.17559" lon="-1.6134">
        <ele>62</ele>
        <time>2022-08-15T10:53:40Z</time>
      </trkpt>
      <trkpt lat="47.17548" lon="-1.61354">
        <ele>62</ele>
        <time>2022-08-15T10:53:42Z</time>
      </trkpt>
      <trkpt lat="47.17537" lon="-1.61363">
        <ele>62</ele>
        <time>2022-08-15T10:53:44Z</time>
      </trkpt>
      <trkpt lat="47.1753" lon="-1.61377">
        <ele>62</ele>
        <time>2022-08-15T10:53:46Z</time>
      </trkpt>
      <trkpt lat="47.17525" lon="-1.61393">
        <ele>61</ele>
        <time>2022-08-15T10:53:48Z</time>
      </trkpt>
      <trkpt lat="47.17521" lon="-1.6141">
        <ele>62</ele>
        <time>2022-08-15T10:53:50Z</time>
      </trkpt>
      <trkpt lat="47.17518" lon="-1.61425">
        <ele>62</ele>
        <time>2022-08-15T10:53:52Z</time>
      </trkpt>
      <trkpt lat="47.17515" lon="-1.61441">
        <ele>63</ele>
        <time>2022-08-15T10:53:54Z</time>
      </trkpt>
      <trkpt lat="47.17512" lon="-1.61454">
        <ele>64</ele>
        <time>2022-08-15T10:53:56Z</time>
      </trkpt>
      <trkpt lat="47.17505" lon="-1.61465">
        <ele>64</ele>
        <time>2022-08-15T10:53:58Z</time>
      </trkpt>
      <trkpt lat="47.17494" lon="-1.61469">
        <ele>65</ele>
        <time>2022-08-15T10:54:00Z</time>
      </trkpt>
      <trkpt lat="47.17483" lon="-1.61473">
        <ele>65</ele>
        <time>2022-08-15T10:54:02Z</time>
      </trkpt>
      <trkpt lat="47.17472" lon="-1.61477">
        <ele>66</ele>
        <time>2022-08-15T10:54:04Z</time>
      </trkpt>
      <trkpt lat="47.17461" lon="-1.6148">
        <ele>67</ele>
        <time>2022-08-15T10:54:06Z</time>
      </trkpt>
      <trkpt lat="47.17451" lon="-1.61486">
        <ele>67</ele>
        <time>2022-08-15T10:54:08Z</time>
      </trkpt>
      <trkpt lat="47.17441" lon="-1.61491">
        <ele>68</ele>
        <time>2022-08-15T10:54:10Z</time>
      </trkpt>
      <trkpt lat="47.17432" lon="-1.61498">
        <ele>68</ele>
        <time>2022-08-15T10:54:12Z</time>
      </trkpt>
      <trkpt lat="47.17422" lon="-1.61503">
        <ele>69</ele>
        <time>2022-08-15T10:54:14Z</time>
      </trkpt>
      <trkpt lat="47.17413" lon="-1.61509">
        <ele>69</ele>
        <time>2022-08-15T10:54:16Z</time>
      </trkpt>
      <trkpt lat="47.17404" lon="-1.61515">
        <ele>69</ele>
        <time>2022-08-15T10:54:18Z</time>
      </trkpt>
      <trkpt lat="47.17396" lon="-1.61522">
        <ele>69</ele>
        <time>2022-08-15T10:54:20Z</time>
      </trkpt>
      <trkpt lat="47.17388" lon="-1.6153">
        <ele>69</ele>
        <time>2022-08-15T10:54:22Z</time>
      </trkpt>
      <trkpt lat="47.17379" lon="-1.61537">
        <ele>70</ele>
        <time>2022-08-15T10:54:24Z</time>
      </trkpt>
      <trkpt lat="47.17372" lon="-1.61546">
        <ele>70</ele>
        <time>2022-08-15T10:54:26Z</time>
      </trkpt>
      <trkpt lat="47.17363" lon="-1.61554">
        <ele>71</ele>
        <time>2022-08-15T10:54:28Z</time>
      </trkpt>
      <trkpt lat="47.17356" lon="-1.61563">
        <ele>71</ele>
        <time>2022-08-15T10:54:30Z</time>
      </trkpt>
      <trkpt lat="47.17348" lon="-1.61572">
        <ele>71</ele>
        <time>2022-08-15T10:54:32Z</time>
      </trkpt>
      <trkpt lat="47.17341" lon="-1.61581">
        <ele>71</ele>
        <time>2022-08-15T10:54:34Z</time>
      </trkpt>
      <trkpt lat="47.17333" lon="-1.61591">
        <ele>71</ele>
        <time>2022-08-15T10:54:36Z</time>
      </trkpt>
      <trkpt lat="47.17325" lon="-1.616">
        <ele>71</ele>
        <time>2022-08-15T10:54:38Z</time>
      </trkpt>
      <trkpt lat="47.17318" lon="-1.61611">
        <ele>71</ele>
        <time>2022-08-15T10:54:40Z</time>
      </trkpt>
      <trkpt lat="47.1731" lon="-1.61621">
        <ele>71</ele>
        <time>2022-08-15T10:54:42Z</time>
      </trkpt>
      <trkpt lat="47.17303" lon="-1.61633">
        <ele>70</ele>
        <time>2022-08-15T10:54:44Z</time>
      </trkpt>
      <trkpt lat="47.17296" lon="-1.61644">
        <ele>70</ele>
        <time>2022-08-15T10:54:46Z</time>
      </trkpt>
      <trkpt lat="47.17289" lon="-1.61656">
        <ele>70</ele>
        <time>2022-08-15T10:54:48Z</time>
      </trkpt>
      <trkpt lat="47.17283" lon="-1.61668">
        <ele>70</ele>
        <time>2022-08-15T10:54:50Z</time>
      </trkpt>
      <trkpt lat="47.17276" lon="-1.61681">
        <ele>70</ele>
        <time>2022-08-15T10:54:52Z</time>
      </trkpt>
      <trkpt lat="47.1727" lon="-1.61694">
        <ele>69</ele>
        <time>2022-08-15T10:54:54Z</time>
      </trkpt>
      <trkpt lat="47.17263" lon="-1.61707">
        <ele>70</ele>
        <time>2022-08-15T10:54:56Z</time>
      </trkpt>
      <trkpt lat="47.17258" lon="-1.6172">
        <ele>70</ele>
        <time>2022-08-15T10:54:58Z</time>
      </trkpt>
      <trkpt lat="47.17251" lon="-1.61733">
        <ele>70</ele>
        <time>2022-08-15T10:55:00Z</time>
      </trkpt>
      <trkpt lat="47.17247" lon="-1.61746">
        <ele>70</ele>
        <time>2022-08-15T10:55:02Z</time>
      </trkpt>
      <trkpt lat="47.17244" lon="-1.61762">
        <ele>69</ele>
        <time>2022-08-15T10:55:04Z</time>
      </trkpt>
      <trkpt lat="47.1724" lon="-1.61777">
        <ele>69</ele>
        <time>2022-08-15T10:55:06Z</time>
      </trkpt>
      <trkpt lat="47.1723" lon="-1.61787">
        <ele>69</ele>
        <time>2022-08-15T10:55:08Z</time>
      </trkpt>
      <trkpt lat="47.1722" lon="-1.61797">
        <ele>69</ele>
        <time>2022-08-15T10:55:10Z</time>
      </trkpt>
      <trkpt lat="47.17211" lon="-1.61805">
        <ele>68</ele>
        <time>2022-08-15T10:55:12Z</time>
      </trkpt>
      <trkpt lat="47.17201" lon="-1.61814">
        <ele>68</ele>
        <time>2022-08-15T10:55:14Z</time>
      </trkpt>
      <trkpt lat="47.17192" lon="-1.61822">
        <ele>69</ele>
        <time>2022-08-15T10:55:16Z</time>
      </trkpt>
      <trkpt lat="47.17182" lon="-1.61831">
        <ele>69</ele>
        <time>2022-08-15T10:55:18Z</time>
      </trkpt>
      <trkpt lat="47.17173" lon="-1.6184">
        <ele>69</ele>
        <time>2022-08-15T10:55:20Z</time>
      </trkpt>
      <trkpt lat="47.17164" lon="-1.61849">
        <ele>69</ele>
        <time>2022-08-15T10:55:22Z</time>
      </trkpt>
      <trkpt lat="47.17155" lon="-1.61857">
        <ele>69</ele>
        <time>2022-08-15T10:55:24Z</time>
      </trkpt>
      <trkpt lat="47.17146" lon="-1.61867">
        <ele>69</ele>
        <time>2022-08-15T10:55:26Z</time>
      </trkpt>
      <trkpt lat="47.17137" lon="-1.61875">
        <ele>69</ele>
        <time>2022-08-15T10:55:28Z</time>
      </trkpt>
      <trkpt lat="47.17127" lon="-1.61884">
        <ele>69</ele>
        <time>2022-08-15T10:55:30Z</time>
      </trkpt>
      <trkpt lat="47.17118" lon="-1.61893">
        <ele>69</ele>
        <time>2022-08-15T10:55:32Z</time>
      </trkpt>
      <trkpt lat="47.17109" lon="-1.61902">
        <ele>69</ele>
        <time>2022-08-15T10:55:34Z</time>
      </trkpt>
      <trkpt lat="47.17099" lon="-1.61912">
        <ele>69</ele>
        <time>2022-08-15T10:55:36Z</time>
      </trkpt>
      <trkpt lat="47.17089" lon="-1.61921">
        <ele>69</ele>
        <time>2022-08-15T10:55:38Z</time>
      </trkpt>
      <trkpt lat="47.1708" lon="-1.6193">
        <ele>69</ele>
        <time>2022-08-15T10:55:40Z</time>
      </trkpt>
      <trkpt lat="47.17071" lon="-1.61939">
        <ele>69</ele>
        <time>2022-08-15T10:55:42Z</time>
      </trkpt>
      <trkpt lat="47.17062" lon="-1.61949">
        <ele>69</ele>
        <time>2022-08-15T10:55:44Z</time>
      </trkpt>
      <trkpt lat="47.17053" lon="-1.6196">
        <ele>69</ele>
        <time>2022-08-15T10:55:46Z</time>
      </trkpt>
      <trkpt lat="47.17045" lon="-1.61971">
        <ele>69</ele>
        <time>2022-08-15T10:55:48Z</time>
      </trkpt>
      <trkpt lat="47.17038" lon="-1.61982">
        <ele>69</ele>
        <time>2022-08-15T10:55:50Z</time>
      </trkpt>
      <trkpt lat="47.17029" lon="-1.61994">
        <ele>69</ele>
        <time>2022-08-15T10:55:52Z</time>
      </trkpt>
      <trkpt lat="47.17021" lon="-1.62006">
        <ele>68</ele>
        <time>2022-08-15T10:55:54Z</time>
      </trkpt>
      <trkpt lat="47.17013" lon="-1.62019">
        <ele>68</ele>
        <time>2022-08-15T10:55:56Z</time>
      </trkpt>
      <trkpt lat="47.17005" lon="-1.62031">
        <ele>68</ele>
        <time>2022-08-15T10:55:58Z</time>
      </trkpt>
      <trkpt lat="47.16998" lon="-1.62044">
        <ele>68</ele>
        <time>2022-08-15T10:56:00Z</time>
      </trkpt>
      <trkpt lat="47.1699" lon="-1.62057">
        <ele>68</ele>
        <time>2022-08-15T10:56:02Z</time>
      </trkpt>
      <trkpt lat="47.16983" lon="-1.6207">
        <ele>68</ele>
        <time>2022-08-15T10:56:04Z</time>
      </trkpt>
      <trkpt lat="47.16977" lon="-1.62083">
        <ele>68</ele>
        <time>2022-08-15T10:56:06Z</time>
      </trkpt>
      <trkpt lat="47.16969" lon="-1.62095">
        <ele>68</ele>
        <time>2022-08-15T10:56:08Z</time>
      </trkpt>
      <trkpt lat="47.16962" lon="-1.62108">
        <ele>68</ele>
        <time>2022-08-15T10:56:10Z</time>
      </trkpt>
      <trkpt lat="47.16955" lon="-1.62121">
        <ele>68</ele>
        <time>2022-08-15T10:56:12Z</time>
      </trkpt>
      <trkpt lat="47.16949" lon="-1.62134">
        <ele>68</ele>
        <time>2022-08-15T10:56:14Z</time>
      </trkpt>
      <trkpt lat="47.16942" lon="-1.62147">
        <ele>68</ele>
        <time>2022-08-15T10:56:16Z</time>
      </trkpt>
      <trkpt lat="47.16936" lon="-1.6216">
        <ele>68</ele>
        <time>2022-08-15T10:56:18Z</time>
      </trkpt>
      <trkpt lat="47.16931" lon="-1.62174">
        <ele>69</ele>
        <time>2022-08-15T10:56:20Z</time>
      </trkpt>
      <trkpt lat="47.16924" lon="-1.62187">
        <ele>69</ele>
        <time>2022-08-15T10:56:22Z</time>
      </trkpt>
      <trkpt lat="47.16917" lon="-1.62199">
        <ele>69</ele>
        <time>2022-08-15T10:56:24Z</time>
      </trkpt>
      <trkpt lat="47.1691" lon="-1.62212">
        <ele>69</ele>
        <time>2022-08-15T10:56:26Z</time>
      </trkpt>
      <trkpt lat="47.16902" lon="-1.62223">
        <ele>69</ele>
        <time>2022-08-15T10:56:28Z</time>
      </trkpt>
      <trkpt lat="47.16893" lon="-1.62233">
        <ele>70</ele>
        <time>2022-08-15T10:56:30Z</time>
      </trkpt>
      <trkpt lat="47.16885" lon="-1.62243">
        <ele>70</ele>
        <time>2022-08-15T10:56:32Z</time>
      </trkpt>
      <trkpt lat="47.16876" lon="-1.62254">
        <ele>70</ele>
        <time>2022-08-15T10:56:34Z</time>
      </trkpt>
      <trkpt lat="47.16868" lon="-1.62264">
        <ele>70</ele>
        <time>2022-08-15T10:56:36Z</time>
      </trkpt>
      <trkpt lat="47.16859" lon="-1.62274">
        <ele>70</ele>
        <time>2022-08-15T10:56:38Z</time>
      </trkpt>
      <trkpt lat="47.16851" lon="-1.62284">
        <ele>70</ele>
        <time>2022-08-15T10:56:40Z</time>
      </trkpt>
      <trkpt lat="47.16842" lon="-1.62295">
        <ele>70</ele>
        <time>2022-08-15T10:56:42Z</time>
      </trkpt>
      <trkpt lat="47.16834" lon="-1.62305">
        <ele>70</ele>
        <time>2022-08-15T10:56:44Z</time>
      </trkpt>
      <trkpt lat="47.16824" lon="-1.62313">
        <ele>70</ele>
        <time>2022-08-15T10:56:46Z</time>
      </trkpt>
      <trkpt lat="47.16813" lon="-1.62321">
        <ele>70</ele>
        <time>2022-08-15T10:56:48Z</time>
      </trkpt>
      <trkpt lat="47.16803" lon="-1.62327">
        <ele>70</ele>
        <time>2022-08-15T10:56:50Z</time>
      </trkpt>
      <trkpt lat="47.16792" lon="-1.62334">
        <ele>70</ele>
        <time>2022-08-15T10:56:52Z</time>
      </trkpt>
      <trkpt lat="47.1678" lon="-1.6234">
        <ele>70</ele>
        <time>2022-08-15T10:56:54Z</time>
      </trkpt>
      <trkpt lat="47.16769" lon="-1.62347">
        <ele>69</ele>
        <time>2022-08-15T10:56:56Z</time>
      </trkpt>
      <trkpt lat="47.16758" lon="-1.62354">
        <ele>68</ele>
        <time>2022-08-15T10:56:58Z</time>
      </trkpt>
      <trkpt lat="47.16748" lon="-1.62364">
        <ele>67</ele>
        <time>2022-08-15T10:57:00Z</time>
      </trkpt>
      <trkpt lat="47.16739" lon="-1.62376">
        <ele>67</ele>
        <time>2022-08-15T10:57:02Z</time>
      </trkpt>
      <trkpt lat="47.16733" lon="-1.62391">
        <ele>67</ele>
        <time>2022-08-15T10:57:04Z</time>
      </trkpt>
      <trkpt lat="47.16731" lon="-1.62407">
        <ele>67</ele>
        <time>2022-08-15T10:57:06Z</time>
      </trkpt>
      <trkpt lat="47.16728" lon="-1.62422">
        <ele>67</ele>
        <time>2022-08-15T10:57:08Z</time>
      </trkpt>
      <trkpt lat="47.16726" lon="-1.62437">
        <ele>68</ele>
        <time>2022-08-15T10:57:10Z</time>
      </trkpt>
      <trkpt lat="47.16722" lon="-1.62452">
        <ele>67</ele>
        <time>2022-08-15T10:57:12Z</time>
      </trkpt>
      <trkpt lat="47.16718" lon="-1.62467">
        <ele>67</ele>
        <time>2022-08-15T10:57:14Z</time>
      </trkpt>
      <trkpt lat="47.16716" lon="-1.62483">
        <ele>67</ele>
        <time>2022-08-15T10:57:16Z</time>
      </trkpt>
      <trkpt lat="47.16723" lon="-1.62497">
        <ele>68</ele>
        <time>2022-08-15T10:57:19Z</time>
      </trkpt>
      <trkpt lat="47.16735" lon="-1.62501">
        <ele>68</ele>
        <time>2022-08-15T10:57:21Z</time>
      </trkpt>
      <trkpt lat="47.16746" lon="-1.62506">
        <ele>68</ele>
        <time>2022-08-15T10:57:23Z</time>
      </trkpt>
      <trkpt lat="47.16757" lon="-1.62511">
        <ele>68</ele>
        <time>2022-08-15T10:57:25Z</time>
      </trkpt>
      <trkpt lat="47.16767" lon="-1.62517">
        <ele>69</ele>
        <time>2022-08-15T10:57:27Z</time>
      </trkpt>
      <trkpt lat="47.16778" lon="-1.62524">
        <ele>69</ele>
        <time>2022-08-15T10:57:29Z</time>
      </trkpt>
      <trkpt lat="47.16788" lon="-1.62531">
        <ele>70</ele>
        <time>2022-08-15T10:57:31Z</time>
      </trkpt>
      <trkpt lat="47.16798" lon="-1.62537">
        <ele>70</ele>
        <time>2022-08-15T10:57:33Z</time>
      </trkpt>
      <trkpt lat="47.16808" lon="-1.62544">
        <ele>70</ele>
        <time>2022-08-15T10:57:35Z</time>
      </trkpt>
      <trkpt lat="47.16817" lon="-1.62552">
        <ele>70</ele>
        <time>2022-08-15T10:57:37Z</time>
      </trkpt>
      <trkpt lat="47.16825" lon="-1.6256">
        <ele>70</ele>
        <time>2022-08-15T10:57:39Z</time>
      </trkpt>
      <trkpt lat="47.16831" lon="-1.62572">
        <ele>71</ele>
        <time>2022-08-15T10:57:41Z</time>
      </trkpt>
      <trkpt lat="47.1683" lon="-1.62586">
        <ele>71</ele>
        <time>2022-08-15T10:57:43Z</time>
      </trkpt>
      <trkpt lat="47.16823" lon="-1.62598">
        <ele>71</ele>
        <time>2022-08-15T10:57:45Z</time>
      </trkpt>
      <trkpt lat="47.16816" lon="-1.6261">
        <ele>71</ele>
        <time>2022-08-15T10:57:47Z</time>
      </trkpt>
      <trkpt lat="47.16809" lon="-1.62622">
        <ele>71</ele>
        <time>2022-08-15T10:57:49Z</time>
      </trkpt>
      <trkpt lat="47.16802" lon="-1.62633">
        <ele>71</ele>
        <time>2022-08-15T10:57:51Z</time>
      </trkpt>
      <trkpt lat="47.16796" lon="-1.62644">
        <ele>71</ele>
        <time>2022-08-15T10:57:53Z</time>
      </trkpt>
      <trkpt lat="47.16789" lon="-1.62657">
        <ele>71</ele>
        <time>2022-08-15T10:57:56Z</time>
      </trkpt>
      <trkpt lat="47.16779" lon="-1.62657">
        <ele>71</ele>
        <time>2022-08-15T10:58:01Z</time>
      </trkpt>
    </trkseg>
  </trk>
</gpx>